<?xml version="1.0" encoding="UTF-8" standalone="no" ?>
<gpx xmlns="http://www.topografix.com/GPX/1/1" xmlns:xsi="http://www.w3.org/2001/XMLSchema-instance" xsi:schemaLocation="http://www.topografix.com/GPX/1/1 http://www.topografix.com/GPX/1/1/gpx.xsd" version="1.1" creator="VisuGPX - https://www.visugpx.com">
  <metadata>
    <name>1er 100km!</name>
    <desc><![CDATA[sortie vélo objectif 100km pour la première fois ;)]]></desc>
  </metadata>
  <trk>
    <name><![CDATA[--Gap-- OR-6027709:1er 100km]]></name>
    <trkseg>
      <trkpt lat="44.56035" lon="6.07684">
        <ele>745</ele>
        <time>2016-05-03T20:58:28Z</time>
      </trkpt>
      <trkpt lat="44.56025" lon="6.07658">
        <ele>745</ele>
        <time>2016-05-03T21:00:28Z</time>
      </trkpt>
      <trkpt lat="44.56018" lon="6.07637">
        <ele>746</ele>
        <time>2016-05-03T21:02:28Z</time>
      </trkpt>
      <trkpt lat="44.56018" lon="6.07637">
        <ele>746</ele>
        <time>2016-05-03T21:04:28Z</time>
      </trkpt>
      <trkpt lat="44.56004" lon="6.07615">
        <ele>746</ele>
        <time>2016-05-03T21:06:28Z</time>
      </trkpt>
      <trkpt lat="44.55997" lon="6.07605">
        <ele>746</ele>
        <time>2016-05-03T21:08:28Z</time>
      </trkpt>
      <trkpt lat="44.5599" lon="6.07596">
        <ele>747</ele>
        <time>2016-05-03T21:10:28Z</time>
      </trkpt>
      <trkpt lat="44.55974" lon="6.07584">
        <ele>747</ele>
        <time>2016-05-03T21:12:28Z</time>
      </trkpt>
      <trkpt lat="44.55973" lon="6.07583">
        <ele>747</ele>
        <time>2016-05-03T21:14:28Z</time>
      </trkpt>
      <trkpt lat="44.55951" lon="6.07563">
        <ele>747</ele>
        <time>2016-05-03T21:16:28Z</time>
      </trkpt>
      <trkpt lat="44.55893" lon="6.07511">
        <ele>747</ele>
        <time>2016-05-03T21:18:28Z</time>
      </trkpt>
      <trkpt lat="44.55883" lon="6.07499">
        <ele>747</ele>
        <time>2016-05-03T21:20:28Z</time>
      </trkpt>
      <trkpt lat="44.55847" lon="6.0746">
        <ele>747</ele>
        <time>2016-05-03T21:22:28Z</time>
      </trkpt>
      <trkpt lat="44.55834" lon="6.07448">
        <ele>747</ele>
        <time>2016-05-03T21:24:28Z</time>
      </trkpt>
      <trkpt lat="44.55826" lon="6.07443">
        <ele>747</ele>
        <time>2016-05-03T21:26:28Z</time>
      </trkpt>
      <trkpt lat="44.55816" lon="6.07441">
        <ele>746</ele>
        <time>2016-05-03T21:28:28Z</time>
      </trkpt>
      <trkpt lat="44.55804" lon="6.07444">
        <ele>746</ele>
        <time>2016-05-03T21:30:28Z</time>
      </trkpt>
      <trkpt lat="44.55779" lon="6.07451">
        <ele>744</ele>
        <time>2016-05-03T21:32:28Z</time>
      </trkpt>
      <trkpt lat="44.55764" lon="6.07458">
        <ele>742</ele>
        <time>2016-05-03T21:34:28Z</time>
      </trkpt>
      <trkpt lat="44.55752" lon="6.07467">
        <ele>741</ele>
        <time>2016-05-03T21:36:28Z</time>
      </trkpt>
      <trkpt lat="44.55748" lon="6.07472">
        <ele>741</ele>
        <time>2016-05-03T21:38:28Z</time>
      </trkpt>
      <trkpt lat="44.55744" lon="6.07478">
        <ele>740</ele>
        <time>2016-05-03T21:40:28Z</time>
      </trkpt>
      <trkpt lat="44.55734" lon="6.07499">
        <ele>739</ele>
        <time>2016-05-03T21:42:28Z</time>
      </trkpt>
      <trkpt lat="44.55716" lon="6.07537">
        <ele>737</ele>
        <time>2016-05-03T21:44:28Z</time>
      </trkpt>
      <trkpt lat="44.55708" lon="6.07553">
        <ele>737</ele>
        <time>2016-05-03T21:46:28Z</time>
      </trkpt>
      <trkpt lat="44.55691" lon="6.07586">
        <ele>735</ele>
        <time>2016-05-03T21:48:28Z</time>
      </trkpt>
      <trkpt lat="44.55689" lon="6.07592">
        <ele>735</ele>
        <time>2016-05-03T21:50:28Z</time>
      </trkpt>
      <trkpt lat="44.55669" lon="6.07631">
        <ele>735</ele>
        <time>2016-05-03T21:52:28Z</time>
      </trkpt>
      <trkpt lat="44.55663" lon="6.07643">
        <ele>735</ele>
        <time>2016-05-03T21:54:28Z</time>
      </trkpt>
      <trkpt lat="44.5566" lon="6.07647">
        <ele>734</ele>
        <time>2016-05-03T21:56:28Z</time>
      </trkpt>
      <trkpt lat="44.55654" lon="6.07653">
        <ele>734</ele>
        <time>2016-05-03T21:58:28Z</time>
      </trkpt>
      <trkpt lat="44.55654" lon="6.07653">
        <ele>734</ele>
        <time>2016-05-03T22:00:28Z</time>
      </trkpt>
      <trkpt lat="44.55647" lon="6.07649">
        <ele>734</ele>
        <time>2016-05-03T22:02:28Z</time>
      </trkpt>
      <trkpt lat="44.55642" lon="6.07644">
        <ele>734</ele>
        <time>2016-05-03T22:04:28Z</time>
      </trkpt>
      <trkpt lat="44.55633" lon="6.07637">
        <ele>733</ele>
        <time>2016-05-03T22:06:28Z</time>
      </trkpt>
      <trkpt lat="44.55626" lon="6.0763">
        <ele>733</ele>
        <time>2016-05-03T22:08:28Z</time>
      </trkpt>
      <trkpt lat="44.55591" lon="6.07585">
        <ele>732</ele>
        <time>2016-05-03T22:10:28Z</time>
      </trkpt>
      <trkpt lat="44.55583" lon="6.07573">
        <ele>732</ele>
        <time>2016-05-03T22:12:28Z</time>
      </trkpt>
      <trkpt lat="44.55543" lon="6.07526">
        <ele>734</ele>
        <time>2016-05-03T22:14:28Z</time>
      </trkpt>
      <trkpt lat="44.55534" lon="6.07518">
        <ele>734</ele>
        <time>2016-05-03T22:16:28Z</time>
      </trkpt>
      <trkpt lat="44.55524" lon="6.07509">
        <ele>734</ele>
        <time>2016-05-03T22:18:28Z</time>
      </trkpt>
      <trkpt lat="44.55514" lon="6.07501">
        <ele>733</ele>
        <time>2016-05-03T22:20:28Z</time>
      </trkpt>
      <trkpt lat="44.55514" lon="6.07501">
        <ele>733</ele>
        <time>2016-05-03T22:22:28Z</time>
      </trkpt>
      <trkpt lat="44.55514" lon="6.07499">
        <ele>734</ele>
        <time>2016-05-03T22:24:28Z</time>
      </trkpt>
      <trkpt lat="44.55514" lon="6.07498">
        <ele>734</ele>
        <time>2016-05-03T22:26:28Z</time>
      </trkpt>
      <trkpt lat="44.55513" lon="6.07496">
        <ele>734</ele>
        <time>2016-05-03T22:28:28Z</time>
      </trkpt>
      <trkpt lat="44.55512" lon="6.07495">
        <ele>734</ele>
        <time>2016-05-03T22:30:28Z</time>
      </trkpt>
      <trkpt lat="44.55512" lon="6.07493">
        <ele>734</ele>
        <time>2016-05-03T22:32:28Z</time>
      </trkpt>
      <trkpt lat="44.55511" lon="6.07492">
        <ele>734</ele>
        <time>2016-05-03T22:34:28Z</time>
      </trkpt>
      <trkpt lat="44.5551" lon="6.0749">
        <ele>734</ele>
        <time>2016-05-03T22:36:28Z</time>
      </trkpt>
      <trkpt lat="44.55509" lon="6.07489">
        <ele>734</ele>
        <time>2016-05-03T22:38:28Z</time>
      </trkpt>
      <trkpt lat="44.55508" lon="6.07488">
        <ele>734</ele>
        <time>2016-05-03T22:40:28Z</time>
      </trkpt>
      <trkpt lat="44.55507" lon="6.07487">
        <ele>734</ele>
        <time>2016-05-03T22:42:28Z</time>
      </trkpt>
      <trkpt lat="44.55506" lon="6.07486">
        <ele>734</ele>
        <time>2016-05-03T22:44:28Z</time>
      </trkpt>
      <trkpt lat="44.55505" lon="6.07485">
        <ele>734</ele>
        <time>2016-05-03T22:46:28Z</time>
      </trkpt>
      <trkpt lat="44.55504" lon="6.07484">
        <ele>734</ele>
        <time>2016-05-03T22:48:28Z</time>
      </trkpt>
      <trkpt lat="44.55503" lon="6.07483">
        <ele>734</ele>
        <time>2016-05-03T22:50:28Z</time>
      </trkpt>
      <trkpt lat="44.55502" lon="6.07483">
        <ele>733</ele>
        <time>2016-05-03T22:52:28Z</time>
      </trkpt>
      <trkpt lat="44.55501" lon="6.07482">
        <ele>733</ele>
        <time>2016-05-03T22:54:28Z</time>
      </trkpt>
      <trkpt lat="44.55499" lon="6.07482">
        <ele>733</ele>
        <time>2016-05-03T22:56:28Z</time>
      </trkpt>
      <trkpt lat="44.55498" lon="6.07482">
        <ele>733</ele>
        <time>2016-05-03T22:58:28Z</time>
      </trkpt>
      <trkpt lat="44.55497" lon="6.07482">
        <ele>734</ele>
        <time>2016-05-03T23:00:28Z</time>
      </trkpt>
      <trkpt lat="44.55496" lon="6.07482">
        <ele>734</ele>
        <time>2016-05-03T23:02:28Z</time>
      </trkpt>
      <trkpt lat="44.55494" lon="6.07482">
        <ele>734</ele>
        <time>2016-05-03T23:04:28Z</time>
      </trkpt>
      <trkpt lat="44.55493" lon="6.07482">
        <ele>734</ele>
        <time>2016-05-03T23:06:28Z</time>
      </trkpt>
      <trkpt lat="44.55492" lon="6.07482">
        <ele>734</ele>
        <time>2016-05-03T23:08:28Z</time>
      </trkpt>
      <trkpt lat="44.55491" lon="6.07483">
        <ele>734</ele>
        <time>2016-05-03T23:10:28Z</time>
      </trkpt>
      <trkpt lat="44.5549" lon="6.07483">
        <ele>734</ele>
        <time>2016-05-03T23:12:28Z</time>
      </trkpt>
      <trkpt lat="44.55489" lon="6.07484">
        <ele>734</ele>
        <time>2016-05-03T23:14:28Z</time>
      </trkpt>
      <trkpt lat="44.55488" lon="6.07485">
        <ele>734</ele>
        <time>2016-05-03T23:16:28Z</time>
      </trkpt>
      <trkpt lat="44.55487" lon="6.07486">
        <ele>734</ele>
        <time>2016-05-03T23:18:28Z</time>
      </trkpt>
      <trkpt lat="44.55485" lon="6.07487">
        <ele>734</ele>
        <time>2016-05-03T23:20:28Z</time>
      </trkpt>
      <trkpt lat="44.55484" lon="6.07489">
        <ele>734</ele>
        <time>2016-05-03T23:22:28Z</time>
      </trkpt>
      <trkpt lat="44.55484" lon="6.07491">
        <ele>734</ele>
        <time>2016-05-03T23:24:28Z</time>
      </trkpt>
      <trkpt lat="44.55483" lon="6.07492">
        <ele>734</ele>
        <time>2016-05-03T23:26:28Z</time>
      </trkpt>
      <trkpt lat="44.55483" lon="6.07494">
        <ele>734</ele>
        <time>2016-05-03T23:28:28Z</time>
      </trkpt>
      <trkpt lat="44.55482" lon="6.07496">
        <ele>734</ele>
        <time>2016-05-03T23:30:28Z</time>
      </trkpt>
      <trkpt lat="44.55482" lon="6.07498">
        <ele>734</ele>
        <time>2016-05-03T23:32:28Z</time>
      </trkpt>
      <trkpt lat="44.55482" lon="6.075">
        <ele>734</ele>
        <time>2016-05-03T23:34:28Z</time>
      </trkpt>
      <trkpt lat="44.55482" lon="6.07501">
        <ele>734</ele>
        <time>2016-05-03T23:36:28Z</time>
      </trkpt>
      <trkpt lat="44.55482" lon="6.07507">
        <ele>733</ele>
        <time>2016-05-03T23:38:28Z</time>
      </trkpt>
      <trkpt lat="44.55482" lon="6.0751">
        <ele>733</ele>
        <time>2016-05-03T23:40:28Z</time>
      </trkpt>
      <trkpt lat="44.55483" lon="6.07513">
        <ele>733</ele>
        <time>2016-05-03T23:42:28Z</time>
      </trkpt>
      <trkpt lat="44.55483" lon="6.07515">
        <ele>733</ele>
        <time>2016-05-03T23:44:28Z</time>
      </trkpt>
      <trkpt lat="44.55484" lon="6.07518">
        <ele>733</ele>
        <time>2016-05-03T23:46:28Z</time>
      </trkpt>
      <trkpt lat="44.55485" lon="6.0752">
        <ele>733</ele>
        <time>2016-05-03T23:48:28Z</time>
      </trkpt>
      <trkpt lat="44.55486" lon="6.07523">
        <ele>733</ele>
        <time>2016-05-03T23:50:28Z</time>
      </trkpt>
      <trkpt lat="44.55488" lon="6.07525">
        <ele>733</ele>
        <time>2016-05-03T23:52:28Z</time>
      </trkpt>
      <trkpt lat="44.55489" lon="6.07527">
        <ele>733</ele>
        <time>2016-05-03T23:54:28Z</time>
      </trkpt>
      <trkpt lat="44.5549" lon="6.07527">
        <ele>733</ele>
        <time>2016-05-03T23:56:28Z</time>
      </trkpt>
      <trkpt lat="44.5549" lon="6.07528">
        <ele>733</ele>
        <time>2016-05-03T23:58:28Z</time>
      </trkpt>
      <trkpt lat="44.55491" lon="6.07528">
        <ele>733</ele>
        <time>2016-05-04T00:00:28Z</time>
      </trkpt>
      <trkpt lat="44.55492" lon="6.07529">
        <ele>733</ele>
        <time>2016-05-04T00:02:28Z</time>
      </trkpt>
      <trkpt lat="44.55493" lon="6.07529">
        <ele>733</ele>
        <time>2016-05-04T00:04:28Z</time>
      </trkpt>
      <trkpt lat="44.55494" lon="6.07529">
        <ele>732</ele>
        <time>2016-05-04T00:06:28Z</time>
      </trkpt>
      <trkpt lat="44.55495" lon="6.07529">
        <ele>732</ele>
        <time>2016-05-04T00:08:28Z</time>
      </trkpt>
      <trkpt lat="44.55494" lon="6.07538">
        <ele>732</ele>
        <time>2016-05-04T00:10:28Z</time>
      </trkpt>
      <trkpt lat="44.55494" lon="6.07543">
        <ele>732</ele>
        <time>2016-05-04T00:12:28Z</time>
      </trkpt>
      <trkpt lat="44.55495" lon="6.0755">
        <ele>732</ele>
        <time>2016-05-04T00:14:28Z</time>
      </trkpt>
      <trkpt lat="44.55497" lon="6.07565">
        <ele>732</ele>
        <time>2016-05-04T00:16:28Z</time>
      </trkpt>
      <trkpt lat="44.55501" lon="6.07586">
        <ele>731</ele>
        <time>2016-05-04T00:18:28Z</time>
      </trkpt>
      <trkpt lat="44.55516" lon="6.07663">
        <ele>730</ele>
        <time>2016-05-04T00:20:28Z</time>
      </trkpt>
      <trkpt lat="44.55533" lon="6.07729">
        <ele>730</ele>
        <time>2016-05-04T00:22:28Z</time>
      </trkpt>
      <trkpt lat="44.55544" lon="6.07761">
        <ele>729</ele>
        <time>2016-05-04T00:24:28Z</time>
      </trkpt>
      <trkpt lat="44.55546" lon="6.07768">
        <ele>729</ele>
        <time>2016-05-04T00:26:28Z</time>
      </trkpt>
      <trkpt lat="44.5556" lon="6.07806">
        <ele>730</ele>
        <time>2016-05-04T00:28:28Z</time>
      </trkpt>
      <trkpt lat="44.55568" lon="6.07825">
        <ele>730</ele>
        <time>2016-05-04T00:30:28Z</time>
      </trkpt>
      <trkpt lat="44.55575" lon="6.07843">
        <ele>730</ele>
        <time>2016-05-04T00:32:28Z</time>
      </trkpt>
      <trkpt lat="44.55578" lon="6.0785">
        <ele>730</ele>
        <time>2016-05-04T00:34:28Z</time>
      </trkpt>
      <trkpt lat="44.55578" lon="6.0785">
        <ele>730</ele>
        <time>2016-05-04T00:36:28Z</time>
      </trkpt>
      <trkpt lat="44.55578" lon="6.07851">
        <ele>730</ele>
        <time>2016-05-04T00:38:28Z</time>
      </trkpt>
      <trkpt lat="44.55578" lon="6.07852">
        <ele>730</ele>
        <time>2016-05-04T00:40:28Z</time>
      </trkpt>
      <trkpt lat="44.55578" lon="6.07853">
        <ele>730</ele>
        <time>2016-05-04T00:42:28Z</time>
      </trkpt>
      <trkpt lat="44.55578" lon="6.07854">
        <ele>730</ele>
        <time>2016-05-04T00:44:28Z</time>
      </trkpt>
      <trkpt lat="44.55578" lon="6.07855">
        <ele>730</ele>
        <time>2016-05-04T00:46:28Z</time>
      </trkpt>
      <trkpt lat="44.55578" lon="6.07856">
        <ele>730</ele>
        <time>2016-05-04T00:48:28Z</time>
      </trkpt>
      <trkpt lat="44.55578" lon="6.07857">
        <ele>730</ele>
        <time>2016-05-04T00:50:28Z</time>
      </trkpt>
      <trkpt lat="44.55578" lon="6.07858">
        <ele>730</ele>
        <time>2016-05-04T00:52:28Z</time>
      </trkpt>
      <trkpt lat="44.55578" lon="6.07859">
        <ele>730</ele>
        <time>2016-05-04T00:54:28Z</time>
      </trkpt>
      <trkpt lat="44.55579" lon="6.0786">
        <ele>730</ele>
        <time>2016-05-04T00:56:28Z</time>
      </trkpt>
      <trkpt lat="44.55579" lon="6.07861">
        <ele>730</ele>
        <time>2016-05-04T00:58:28Z</time>
      </trkpt>
      <trkpt lat="44.5558" lon="6.07863">
        <ele>730</ele>
        <time>2016-05-04T01:00:28Z</time>
      </trkpt>
      <trkpt lat="44.55581" lon="6.07866">
        <ele>730</ele>
        <time>2016-05-04T01:02:28Z</time>
      </trkpt>
      <trkpt lat="44.55581" lon="6.07867">
        <ele>730</ele>
        <time>2016-05-04T01:04:28Z</time>
      </trkpt>
      <trkpt lat="44.55582" lon="6.07868">
        <ele>730</ele>
        <time>2016-05-04T01:06:28Z</time>
      </trkpt>
      <trkpt lat="44.55582" lon="6.07869">
        <ele>730</ele>
        <time>2016-05-04T01:08:28Z</time>
      </trkpt>
      <trkpt lat="44.55583" lon="6.07869">
        <ele>730</ele>
        <time>2016-05-04T01:10:28Z</time>
      </trkpt>
      <trkpt lat="44.55583" lon="6.0787">
        <ele>730</ele>
        <time>2016-05-04T01:12:28Z</time>
      </trkpt>
      <trkpt lat="44.55584" lon="6.07871">
        <ele>730</ele>
        <time>2016-05-04T01:14:28Z</time>
      </trkpt>
      <trkpt lat="44.55585" lon="6.07872">
        <ele>730</ele>
        <time>2016-05-04T01:16:28Z</time>
      </trkpt>
      <trkpt lat="44.55586" lon="6.07872">
        <ele>730</ele>
        <time>2016-05-04T01:18:28Z</time>
      </trkpt>
      <trkpt lat="44.55587" lon="6.07872">
        <ele>731</ele>
        <time>2016-05-04T01:20:28Z</time>
      </trkpt>
      <trkpt lat="44.55587" lon="6.07873">
        <ele>731</ele>
        <time>2016-05-04T01:22:28Z</time>
      </trkpt>
      <trkpt lat="44.55588" lon="6.07873">
        <ele>731</ele>
        <time>2016-05-04T01:24:28Z</time>
      </trkpt>
      <trkpt lat="44.55589" lon="6.07873">
        <ele>731</ele>
        <time>2016-05-04T01:26:28Z</time>
      </trkpt>
      <trkpt lat="44.5559" lon="6.07873">
        <ele>731</ele>
        <time>2016-05-04T01:28:28Z</time>
      </trkpt>
      <trkpt lat="44.55591" lon="6.07873">
        <ele>731</ele>
        <time>2016-05-04T01:30:28Z</time>
      </trkpt>
      <trkpt lat="44.55604" lon="6.07886">
        <ele>731</ele>
        <time>2016-05-04T01:32:28Z</time>
      </trkpt>
      <trkpt lat="44.55614" lon="6.07897">
        <ele>731</ele>
        <time>2016-05-04T01:34:28Z</time>
      </trkpt>
      <trkpt lat="44.55618" lon="6.07902">
        <ele>731</ele>
        <time>2016-05-04T01:36:28Z</time>
      </trkpt>
      <trkpt lat="44.55627" lon="6.07915">
        <ele>731</ele>
        <time>2016-05-04T01:38:28Z</time>
      </trkpt>
      <trkpt lat="44.55636" lon="6.0793">
        <ele>731</ele>
        <time>2016-05-04T01:40:28Z</time>
      </trkpt>
      <trkpt lat="44.55643" lon="6.07942">
        <ele>731</ele>
        <time>2016-05-04T01:42:28Z</time>
      </trkpt>
      <trkpt lat="44.55659" lon="6.0797">
        <ele>730</ele>
        <time>2016-05-04T01:44:28Z</time>
      </trkpt>
      <trkpt lat="44.55673" lon="6.07998">
        <ele>729</ele>
        <time>2016-05-04T01:46:28Z</time>
      </trkpt>
      <trkpt lat="44.55684" lon="6.0802">
        <ele>730</ele>
        <time>2016-05-04T01:48:28Z</time>
      </trkpt>
      <trkpt lat="44.55707" lon="6.08065">
        <ele>732</ele>
        <time>2016-05-04T01:50:28Z</time>
      </trkpt>
      <trkpt lat="44.5571" lon="6.0807">
        <ele>732</ele>
        <time>2016-05-04T01:52:28Z</time>
      </trkpt>
      <trkpt lat="44.55725" lon="6.08101">
        <ele>733</ele>
        <time>2016-05-04T01:54:28Z</time>
      </trkpt>
      <trkpt lat="44.55731" lon="6.08112">
        <ele>733</ele>
        <time>2016-05-04T01:56:28Z</time>
      </trkpt>
      <trkpt lat="44.5574" lon="6.08131">
        <ele>733</ele>
        <time>2016-05-04T01:58:28Z</time>
      </trkpt>
      <trkpt lat="44.55753" lon="6.08156">
        <ele>733</ele>
        <time>2016-05-04T02:00:28Z</time>
      </trkpt>
      <trkpt lat="44.55756" lon="6.08163">
        <ele>733</ele>
        <time>2016-05-04T02:02:28Z</time>
      </trkpt>
      <trkpt lat="44.55768" lon="6.08186">
        <ele>735</ele>
        <time>2016-05-04T02:04:28Z</time>
      </trkpt>
      <trkpt lat="44.55772" lon="6.08192">
        <ele>735</ele>
        <time>2016-05-04T02:06:28Z</time>
      </trkpt>
      <trkpt lat="44.55779" lon="6.08206">
        <ele>736</ele>
        <time>2016-05-04T02:08:28Z</time>
      </trkpt>
      <trkpt lat="44.55785" lon="6.08218">
        <ele>737</ele>
        <time>2016-05-04T02:10:28Z</time>
      </trkpt>
      <trkpt lat="44.55789" lon="6.08228">
        <ele>737</ele>
        <time>2016-05-04T02:12:28Z</time>
      </trkpt>
      <trkpt lat="44.55798" lon="6.08244">
        <ele>737</ele>
        <time>2016-05-04T02:14:28Z</time>
      </trkpt>
      <trkpt lat="44.55814" lon="6.08268">
        <ele>739</ele>
        <time>2016-05-04T02:16:28Z</time>
      </trkpt>
      <trkpt lat="44.55815" lon="6.08271">
        <ele>739</ele>
        <time>2016-05-04T02:18:28Z</time>
      </trkpt>
      <trkpt lat="44.55828" lon="6.08286">
        <ele>740</ele>
        <time>2016-05-04T02:20:28Z</time>
      </trkpt>
      <trkpt lat="44.55844" lon="6.08304">
        <ele>740</ele>
        <time>2016-05-04T02:22:28Z</time>
      </trkpt>
      <trkpt lat="44.55865" lon="6.08322">
        <ele>740</ele>
        <time>2016-05-04T02:24:28Z</time>
      </trkpt>
      <trkpt lat="44.55944" lon="6.08404">
        <ele>736</ele>
        <time>2016-05-04T02:26:28Z</time>
      </trkpt>
      <trkpt lat="44.5595" lon="6.08411">
        <ele>736</ele>
        <time>2016-05-04T02:28:28Z</time>
      </trkpt>
      <trkpt lat="44.55957" lon="6.0842">
        <ele>736</ele>
        <time>2016-05-04T02:30:28Z</time>
      </trkpt>
      <trkpt lat="44.55961" lon="6.08424">
        <ele>736</ele>
        <time>2016-05-04T02:32:28Z</time>
      </trkpt>
      <trkpt lat="44.55968" lon="6.08431">
        <ele>737</ele>
        <time>2016-05-04T02:34:28Z</time>
      </trkpt>
      <trkpt lat="44.55975" lon="6.08436">
        <ele>737</ele>
        <time>2016-05-04T02:36:28Z</time>
      </trkpt>
      <trkpt lat="44.55981" lon="6.08441">
        <ele>737</ele>
        <time>2016-05-04T02:38:28Z</time>
      </trkpt>
      <trkpt lat="44.55981" lon="6.08441">
        <ele>737</ele>
        <time>2016-05-04T02:40:28Z</time>
      </trkpt>
      <trkpt lat="44.55973" lon="6.08468">
        <ele>738</ele>
        <time>2016-05-04T02:42:28Z</time>
      </trkpt>
      <trkpt lat="44.55972" lon="6.08472">
        <ele>738</ele>
        <time>2016-05-04T02:44:28Z</time>
      </trkpt>
      <trkpt lat="44.55962" lon="6.08506">
        <ele>740</ele>
        <time>2016-05-04T02:46:28Z</time>
      </trkpt>
      <trkpt lat="44.55957" lon="6.0852">
        <ele>741</ele>
        <time>2016-05-04T02:48:28Z</time>
      </trkpt>
      <trkpt lat="44.55954" lon="6.0853">
        <ele>742</ele>
        <time>2016-05-04T02:50:28Z</time>
      </trkpt>
      <trkpt lat="44.55952" lon="6.08536">
        <ele>743</ele>
        <time>2016-05-04T02:52:28Z</time>
      </trkpt>
      <trkpt lat="44.55946" lon="6.08553">
        <ele>744</ele>
        <time>2016-05-04T02:54:28Z</time>
      </trkpt>
      <trkpt lat="44.55944" lon="6.08563">
        <ele>745</ele>
        <time>2016-05-04T02:56:28Z</time>
      </trkpt>
      <trkpt lat="44.55942" lon="6.08571">
        <ele>746</ele>
        <time>2016-05-04T02:58:28Z</time>
      </trkpt>
      <trkpt lat="44.55942" lon="6.08571">
        <ele>746</ele>
        <time>2016-05-04T03:00:28Z</time>
      </trkpt>
      <trkpt lat="44.55944" lon="6.08579">
        <ele>746</ele>
        <time>2016-05-04T03:02:28Z</time>
      </trkpt>
      <trkpt lat="44.55947" lon="6.08593">
        <ele>747</ele>
        <time>2016-05-04T03:04:28Z</time>
      </trkpt>
      <trkpt lat="44.55956" lon="6.08616">
        <ele>748</ele>
        <time>2016-05-04T03:06:28Z</time>
      </trkpt>
      <trkpt lat="44.55967" lon="6.08647">
        <ele>749</ele>
        <time>2016-05-04T03:08:28Z</time>
      </trkpt>
      <trkpt lat="44.55986" lon="6.08694">
        <ele>750</ele>
        <time>2016-05-04T03:10:28Z</time>
      </trkpt>
      <trkpt lat="44.56014" lon="6.0877">
        <ele>751</ele>
        <time>2016-05-04T03:12:28Z</time>
      </trkpt>
      <trkpt lat="44.56032" lon="6.08817">
        <ele>751</ele>
        <time>2016-05-04T03:14:28Z</time>
      </trkpt>
      <trkpt lat="44.56036" lon="6.08824">
        <ele>751</ele>
        <time>2016-05-04T03:16:28Z</time>
      </trkpt>
      <trkpt lat="44.56056" lon="6.08879">
        <ele>751</ele>
        <time>2016-05-04T03:18:28Z</time>
      </trkpt>
      <trkpt lat="44.56084" lon="6.08953">
        <ele>753</ele>
        <time>2016-05-04T03:20:28Z</time>
      </trkpt>
      <trkpt lat="44.56101" lon="6.08996">
        <ele>753</ele>
        <time>2016-05-04T03:22:28Z</time>
      </trkpt>
      <trkpt lat="44.56115" lon="6.09033">
        <ele>754</ele>
        <time>2016-05-04T03:24:28Z</time>
      </trkpt>
      <trkpt lat="44.56123" lon="6.09055">
        <ele>754</ele>
        <time>2016-05-04T03:26:28Z</time>
      </trkpt>
      <trkpt lat="44.56128" lon="6.09072">
        <ele>754</ele>
        <time>2016-05-04T03:28:28Z</time>
      </trkpt>
      <trkpt lat="44.56132" lon="6.09085">
        <ele>754</ele>
        <time>2016-05-04T03:30:28Z</time>
      </trkpt>
      <trkpt lat="44.56142" lon="6.09129">
        <ele>755</ele>
        <time>2016-05-04T03:32:28Z</time>
      </trkpt>
      <trkpt lat="44.56152" lon="6.09179">
        <ele>756</ele>
        <time>2016-05-04T03:34:28Z</time>
      </trkpt>
      <trkpt lat="44.56157" lon="6.09203">
        <ele>756</ele>
        <time>2016-05-04T03:36:28Z</time>
      </trkpt>
      <trkpt lat="44.5616" lon="6.09216">
        <ele>756</ele>
        <time>2016-05-04T03:38:28Z</time>
      </trkpt>
      <trkpt lat="44.56171" lon="6.0926">
        <ele>755</ele>
        <time>2016-05-04T03:40:28Z</time>
      </trkpt>
      <trkpt lat="44.56179" lon="6.09299">
        <ele>753</ele>
        <time>2016-05-04T03:42:28Z</time>
      </trkpt>
      <trkpt lat="44.56183" lon="6.09327">
        <ele>753</ele>
        <time>2016-05-04T03:44:28Z</time>
      </trkpt>
      <trkpt lat="44.56184" lon="6.09356">
        <ele>752</ele>
        <time>2016-05-04T03:46:28Z</time>
      </trkpt>
      <trkpt lat="44.56183" lon="6.09375">
        <ele>752</ele>
        <time>2016-05-04T03:48:28Z</time>
      </trkpt>
      <trkpt lat="44.56181" lon="6.09399">
        <ele>753</ele>
        <time>2016-05-04T03:50:28Z</time>
      </trkpt>
      <trkpt lat="44.56181" lon="6.09399">
        <ele>753</ele>
        <time>2016-05-04T03:52:28Z</time>
      </trkpt>
      <trkpt lat="44.5618" lon="6.09412">
        <ele>753</ele>
        <time>2016-05-04T03:54:28Z</time>
      </trkpt>
      <trkpt lat="44.56178" lon="6.09422">
        <ele>753</ele>
        <time>2016-05-04T03:56:28Z</time>
      </trkpt>
      <trkpt lat="44.56175" lon="6.09436">
        <ele>753</ele>
        <time>2016-05-04T03:58:28Z</time>
      </trkpt>
      <trkpt lat="44.5617" lon="6.09455">
        <ele>754</ele>
        <time>2016-05-04T04:00:28Z</time>
      </trkpt>
      <trkpt lat="44.56163" lon="6.09478">
        <ele>755</ele>
        <time>2016-05-04T04:02:28Z</time>
      </trkpt>
      <trkpt lat="44.56158" lon="6.09493">
        <ele>756</ele>
        <time>2016-05-04T04:04:28Z</time>
      </trkpt>
      <trkpt lat="44.56155" lon="6.09501">
        <ele>757</ele>
        <time>2016-05-04T04:06:28Z</time>
      </trkpt>
      <trkpt lat="44.56149" lon="6.09515">
        <ele>758</ele>
        <time>2016-05-04T04:08:28Z</time>
      </trkpt>
      <trkpt lat="44.56141" lon="6.09535">
        <ele>759</ele>
        <time>2016-05-04T04:10:28Z</time>
      </trkpt>
      <trkpt lat="44.56135" lon="6.09552">
        <ele>760</ele>
        <time>2016-05-04T04:12:28Z</time>
      </trkpt>
      <trkpt lat="44.56133" lon="6.0956">
        <ele>760</ele>
        <time>2016-05-04T04:14:28Z</time>
      </trkpt>
      <trkpt lat="44.56132" lon="6.09564">
        <ele>760</ele>
        <time>2016-05-04T04:16:28Z</time>
      </trkpt>
      <trkpt lat="44.56131" lon="6.0957">
        <ele>761</ele>
        <time>2016-05-04T04:18:28Z</time>
      </trkpt>
      <trkpt lat="44.56131" lon="6.09574">
        <ele>761</ele>
        <time>2016-05-04T04:20:28Z</time>
      </trkpt>
      <trkpt lat="44.56131" lon="6.09577">
        <ele>761</ele>
        <time>2016-05-04T04:22:28Z</time>
      </trkpt>
      <trkpt lat="44.56131" lon="6.09582">
        <ele>761</ele>
        <time>2016-05-04T04:24:28Z</time>
      </trkpt>
      <trkpt lat="44.56131" lon="6.09589">
        <ele>761</ele>
        <time>2016-05-04T04:26:28Z</time>
      </trkpt>
      <trkpt lat="44.56132" lon="6.09596">
        <ele>761</ele>
        <time>2016-05-04T04:28:28Z</time>
      </trkpt>
      <trkpt lat="44.56134" lon="6.09607">
        <ele>761</ele>
        <time>2016-05-04T04:30:28Z</time>
      </trkpt>
      <trkpt lat="44.56138" lon="6.09633">
        <ele>761</ele>
        <time>2016-05-04T04:32:28Z</time>
      </trkpt>
      <trkpt lat="44.56141" lon="6.09648">
        <ele>761</ele>
        <time>2016-05-04T04:34:28Z</time>
      </trkpt>
      <trkpt lat="44.56143" lon="6.09658">
        <ele>761</ele>
        <time>2016-05-04T04:36:28Z</time>
      </trkpt>
      <trkpt lat="44.56147" lon="6.09675">
        <ele>761</ele>
        <time>2016-05-04T04:38:28Z</time>
      </trkpt>
      <trkpt lat="44.56148" lon="6.09683">
        <ele>761</ele>
        <time>2016-05-04T04:40:28Z</time>
      </trkpt>
      <trkpt lat="44.56151" lon="6.09702">
        <ele>760</ele>
        <time>2016-05-04T04:42:28Z</time>
      </trkpt>
      <trkpt lat="44.56153" lon="6.09719">
        <ele>760</ele>
        <time>2016-05-04T04:44:28Z</time>
      </trkpt>
      <trkpt lat="44.56154" lon="6.09744">
        <ele>760</ele>
        <time>2016-05-04T04:46:28Z</time>
      </trkpt>
      <trkpt lat="44.56155" lon="6.09772">
        <ele>762</ele>
        <time>2016-05-04T04:48:28Z</time>
      </trkpt>
      <trkpt lat="44.56155" lon="6.09799">
        <ele>764</ele>
        <time>2016-05-04T04:50:28Z</time>
      </trkpt>
      <trkpt lat="44.56154" lon="6.09838">
        <ele>767</ele>
        <time>2016-05-04T04:52:28Z</time>
      </trkpt>
      <trkpt lat="44.56153" lon="6.09874">
        <ele>769</ele>
        <time>2016-05-04T04:54:28Z</time>
      </trkpt>
      <trkpt lat="44.56152" lon="6.09931">
        <ele>771</ele>
        <time>2016-05-04T04:56:28Z</time>
      </trkpt>
      <trkpt lat="44.5615" lon="6.09974">
        <ele>773</ele>
        <time>2016-05-04T04:58:28Z</time>
      </trkpt>
      <trkpt lat="44.56148" lon="6.09989">
        <ele>773</ele>
        <time>2016-05-04T05:00:28Z</time>
      </trkpt>
      <trkpt lat="44.56147" lon="6.09999">
        <ele>774</ele>
        <time>2016-05-04T05:02:28Z</time>
      </trkpt>
      <trkpt lat="44.5614" lon="6.10044">
        <ele>777</ele>
        <time>2016-05-04T05:04:28Z</time>
      </trkpt>
      <trkpt lat="44.56134" lon="6.10085">
        <ele>781</ele>
        <time>2016-05-04T05:06:28Z</time>
      </trkpt>
      <trkpt lat="44.56128" lon="6.1014">
        <ele>784</ele>
        <time>2016-05-04T05:08:28Z</time>
      </trkpt>
      <trkpt lat="44.56126" lon="6.10162">
        <ele>785</ele>
        <time>2016-05-04T05:10:28Z</time>
      </trkpt>
      <trkpt lat="44.56123" lon="6.10193">
        <ele>786</ele>
        <time>2016-05-04T05:12:28Z</time>
      </trkpt>
      <trkpt lat="44.56119" lon="6.10244">
        <ele>787</ele>
        <time>2016-05-04T05:14:28Z</time>
      </trkpt>
      <trkpt lat="44.56113" lon="6.10293">
        <ele>789</ele>
        <time>2016-05-04T05:16:28Z</time>
      </trkpt>
      <trkpt lat="44.56107" lon="6.10341">
        <ele>792</ele>
        <time>2016-05-04T05:18:28Z</time>
      </trkpt>
      <trkpt lat="44.56104" lon="6.10369">
        <ele>793</ele>
        <time>2016-05-04T05:20:28Z</time>
      </trkpt>
      <trkpt lat="44.56099" lon="6.10414">
        <ele>794</ele>
        <time>2016-05-04T05:22:28Z</time>
      </trkpt>
      <trkpt lat="44.56092" lon="6.1045">
        <ele>796</ele>
        <time>2016-05-04T05:24:28Z</time>
      </trkpt>
      <trkpt lat="44.56085" lon="6.10481">
        <ele>798</ele>
        <time>2016-05-04T05:26:28Z</time>
      </trkpt>
      <trkpt lat="44.56078" lon="6.10513">
        <ele>801</ele>
        <time>2016-05-04T05:28:28Z</time>
      </trkpt>
      <trkpt lat="44.56068" lon="6.10548">
        <ele>804</ele>
        <time>2016-05-04T05:30:28Z</time>
      </trkpt>
      <trkpt lat="44.56061" lon="6.10573">
        <ele>806</ele>
        <time>2016-05-04T05:32:28Z</time>
      </trkpt>
      <trkpt lat="44.56049" lon="6.10607">
        <ele>808</ele>
        <time>2016-05-04T05:34:28Z</time>
      </trkpt>
      <trkpt lat="44.56043" lon="6.10626">
        <ele>810</ele>
        <time>2016-05-04T05:36:28Z</time>
      </trkpt>
      <trkpt lat="44.5604" lon="6.10636">
        <ele>811</ele>
        <time>2016-05-04T05:38:28Z</time>
      </trkpt>
      <trkpt lat="44.56037" lon="6.10646">
        <ele>811</ele>
        <time>2016-05-04T05:40:28Z</time>
      </trkpt>
      <trkpt lat="44.56034" lon="6.10661">
        <ele>812</ele>
        <time>2016-05-04T05:42:28Z</time>
      </trkpt>
      <trkpt lat="44.56032" lon="6.10679">
        <ele>812</ele>
        <time>2016-05-04T05:44:28Z</time>
      </trkpt>
      <trkpt lat="44.56028" lon="6.1072">
        <ele>812</ele>
        <time>2016-05-04T05:46:28Z</time>
      </trkpt>
      <trkpt lat="44.56027" lon="6.10733">
        <ele>812</ele>
        <time>2016-05-04T05:48:28Z</time>
      </trkpt>
      <trkpt lat="44.56026" lon="6.10753">
        <ele>812</ele>
        <time>2016-05-04T05:50:28Z</time>
      </trkpt>
      <trkpt lat="44.56021" lon="6.10788">
        <ele>813</ele>
        <time>2016-05-04T05:52:28Z</time>
      </trkpt>
      <trkpt lat="44.56018" lon="6.10814">
        <ele>814</ele>
        <time>2016-05-04T05:54:28Z</time>
      </trkpt>
      <trkpt lat="44.56016" lon="6.10822">
        <ele>814</ele>
        <time>2016-05-04T05:56:28Z</time>
      </trkpt>
      <trkpt lat="44.56015" lon="6.10827">
        <ele>814</ele>
        <time>2016-05-04T05:58:28Z</time>
      </trkpt>
      <trkpt lat="44.56013" lon="6.1083">
        <ele>815</ele>
        <time>2016-05-04T06:00:28Z</time>
      </trkpt>
      <trkpt lat="44.5601" lon="6.10838">
        <ele>815</ele>
        <time>2016-05-04T06:02:28Z</time>
      </trkpt>
      <trkpt lat="44.56006" lon="6.1085">
        <ele>816</ele>
        <time>2016-05-04T06:04:28Z</time>
      </trkpt>
      <trkpt lat="44.5599" lon="6.10896">
        <ele>822</ele>
        <time>2016-05-04T06:06:28Z</time>
      </trkpt>
      <trkpt lat="44.55984" lon="6.10918">
        <ele>824</ele>
        <time>2016-05-04T06:08:28Z</time>
      </trkpt>
      <trkpt lat="44.5598" lon="6.10933">
        <ele>826</ele>
        <time>2016-05-04T06:10:28Z</time>
      </trkpt>
      <trkpt lat="44.55977" lon="6.1095">
        <ele>827</ele>
        <time>2016-05-04T06:12:28Z</time>
      </trkpt>
      <trkpt lat="44.55976" lon="6.1096">
        <ele>828</ele>
        <time>2016-05-04T06:14:28Z</time>
      </trkpt>
      <trkpt lat="44.55974" lon="6.10973">
        <ele>829</ele>
        <time>2016-05-04T06:16:28Z</time>
      </trkpt>
      <trkpt lat="44.55969" lon="6.11009">
        <ele>831</ele>
        <time>2016-05-04T06:18:28Z</time>
      </trkpt>
      <trkpt lat="44.55964" lon="6.11053">
        <ele>834</ele>
        <time>2016-05-04T06:20:28Z</time>
      </trkpt>
      <trkpt lat="44.5596" lon="6.11086">
        <ele>835</ele>
        <time>2016-05-04T06:22:28Z</time>
      </trkpt>
      <trkpt lat="44.55955" lon="6.11131">
        <ele>835</ele>
        <time>2016-05-04T06:24:28Z</time>
      </trkpt>
      <trkpt lat="44.55948" lon="6.11183">
        <ele>834</ele>
        <time>2016-05-04T06:26:28Z</time>
      </trkpt>
      <trkpt lat="44.55942" lon="6.11227">
        <ele>833</ele>
        <time>2016-05-04T06:28:28Z</time>
      </trkpt>
      <trkpt lat="44.5594" lon="6.11235">
        <ele>833</ele>
        <time>2016-05-04T06:30:28Z</time>
      </trkpt>
      <trkpt lat="44.55936" lon="6.11254">
        <ele>832</ele>
        <time>2016-05-04T06:32:28Z</time>
      </trkpt>
      <trkpt lat="44.55931" lon="6.11279">
        <ele>833</ele>
        <time>2016-05-04T06:34:28Z</time>
      </trkpt>
      <trkpt lat="44.55927" lon="6.11296">
        <ele>833</ele>
        <time>2016-05-04T06:36:28Z</time>
      </trkpt>
      <trkpt lat="44.55926" lon="6.11299">
        <ele>833</ele>
        <time>2016-05-04T06:38:28Z</time>
      </trkpt>
      <trkpt lat="44.55924" lon="6.11314">
        <ele>834</ele>
        <time>2016-05-04T06:40:28Z</time>
      </trkpt>
      <trkpt lat="44.55924" lon="6.1133">
        <ele>833</ele>
        <time>2016-05-04T06:42:28Z</time>
      </trkpt>
      <trkpt lat="44.55924" lon="6.11351">
        <ele>833</ele>
        <time>2016-05-04T06:44:28Z</time>
      </trkpt>
      <trkpt lat="44.55924" lon="6.11389">
        <ele>833</ele>
        <time>2016-05-04T06:46:28Z</time>
      </trkpt>
      <trkpt lat="44.55926" lon="6.11434">
        <ele>833</ele>
        <time>2016-05-04T06:48:28Z</time>
      </trkpt>
      <trkpt lat="44.55927" lon="6.11441">
        <ele>832</ele>
        <time>2016-05-04T06:50:28Z</time>
      </trkpt>
      <trkpt lat="44.55928" lon="6.11468">
        <ele>832</ele>
        <time>2016-05-04T06:52:28Z</time>
      </trkpt>
      <trkpt lat="44.55928" lon="6.11477">
        <ele>832</ele>
        <time>2016-05-04T06:54:28Z</time>
      </trkpt>
      <trkpt lat="44.55928" lon="6.11484">
        <ele>832</ele>
        <time>2016-05-04T06:56:28Z</time>
      </trkpt>
      <trkpt lat="44.55926" lon="6.11496">
        <ele>833</ele>
        <time>2016-05-04T06:58:28Z</time>
      </trkpt>
      <trkpt lat="44.55926" lon="6.11502">
        <ele>833</ele>
        <time>2016-05-04T07:00:28Z</time>
      </trkpt>
      <trkpt lat="44.55925" lon="6.11505">
        <ele>833</ele>
        <time>2016-05-04T07:02:28Z</time>
      </trkpt>
      <trkpt lat="44.55924" lon="6.11513">
        <ele>833</ele>
        <time>2016-05-04T07:04:28Z</time>
      </trkpt>
      <trkpt lat="44.5592" lon="6.11533">
        <ele>833</ele>
        <time>2016-05-04T07:06:28Z</time>
      </trkpt>
      <trkpt lat="44.55918" lon="6.11545">
        <ele>832</ele>
        <time>2016-05-04T07:08:28Z</time>
      </trkpt>
      <trkpt lat="44.5591" lon="6.11572">
        <ele>833</ele>
        <time>2016-05-04T07:10:28Z</time>
      </trkpt>
      <trkpt lat="44.55904" lon="6.11591">
        <ele>833</ele>
        <time>2016-05-04T07:12:28Z</time>
      </trkpt>
      <trkpt lat="44.55898" lon="6.11608">
        <ele>833</ele>
        <time>2016-05-04T07:14:28Z</time>
      </trkpt>
      <trkpt lat="44.55889" lon="6.11628">
        <ele>834</ele>
        <time>2016-05-04T07:16:28Z</time>
      </trkpt>
      <trkpt lat="44.55887" lon="6.11633">
        <ele>834</ele>
        <time>2016-05-04T07:18:28Z</time>
      </trkpt>
      <trkpt lat="44.55879" lon="6.11649">
        <ele>834</ele>
        <time>2016-05-04T07:20:28Z</time>
      </trkpt>
      <trkpt lat="44.55869" lon="6.11668">
        <ele>835</ele>
        <time>2016-05-04T07:22:28Z</time>
      </trkpt>
      <trkpt lat="44.55867" lon="6.1167">
        <ele>835</ele>
        <time>2016-05-04T07:24:28Z</time>
      </trkpt>
      <trkpt lat="44.55861" lon="6.11681">
        <ele>835</ele>
        <time>2016-05-04T07:26:28Z</time>
      </trkpt>
      <trkpt lat="44.55853" lon="6.11695">
        <ele>835</ele>
        <time>2016-05-04T07:28:28Z</time>
      </trkpt>
      <trkpt lat="44.55837" lon="6.11715">
        <ele>835</ele>
        <time>2016-05-04T07:30:28Z</time>
      </trkpt>
      <trkpt lat="44.55814" lon="6.11736">
        <ele>834</ele>
        <time>2016-05-04T07:32:28Z</time>
      </trkpt>
      <trkpt lat="44.55792" lon="6.11753">
        <ele>836</ele>
        <time>2016-05-04T07:34:28Z</time>
      </trkpt>
      <trkpt lat="44.55774" lon="6.11772">
        <ele>838</ele>
        <time>2016-05-04T07:36:28Z</time>
      </trkpt>
      <trkpt lat="44.5576" lon="6.11794">
        <ele>839</ele>
        <time>2016-05-04T07:38:28Z</time>
      </trkpt>
      <trkpt lat="44.55752" lon="6.11816">
        <ele>839</ele>
        <time>2016-05-04T07:40:28Z</time>
      </trkpt>
      <trkpt lat="44.55747" lon="6.11839">
        <ele>840</ele>
        <time>2016-05-04T07:42:28Z</time>
      </trkpt>
      <trkpt lat="44.55743" lon="6.11875">
        <ele>841</ele>
        <time>2016-05-04T07:44:28Z</time>
      </trkpt>
      <trkpt lat="44.55741" lon="6.11904">
        <ele>841</ele>
        <time>2016-05-04T07:46:28Z</time>
      </trkpt>
      <trkpt lat="44.55737" lon="6.11939">
        <ele>842</ele>
        <time>2016-05-04T07:48:28Z</time>
      </trkpt>
      <trkpt lat="44.5573" lon="6.11983">
        <ele>842</ele>
        <time>2016-05-04T07:50:28Z</time>
      </trkpt>
      <trkpt lat="44.55722" lon="6.12038">
        <ele>841</ele>
        <time>2016-05-04T07:52:28Z</time>
      </trkpt>
      <trkpt lat="44.55717" lon="6.12064">
        <ele>839</ele>
        <time>2016-05-04T07:54:28Z</time>
      </trkpt>
      <trkpt lat="44.55717" lon="6.12066">
        <ele>839</ele>
        <time>2016-05-04T07:56:28Z</time>
      </trkpt>
      <trkpt lat="44.55715" lon="6.12073">
        <ele>839</ele>
        <time>2016-05-04T07:58:28Z</time>
      </trkpt>
      <trkpt lat="44.5571" lon="6.1209">
        <ele>839</ele>
        <time>2016-05-04T08:00:28Z</time>
      </trkpt>
      <trkpt lat="44.55707" lon="6.12096">
        <ele>839</ele>
        <time>2016-05-04T08:02:28Z</time>
      </trkpt>
      <trkpt lat="44.55699" lon="6.12115">
        <ele>840</ele>
        <time>2016-05-04T08:04:28Z</time>
      </trkpt>
      <trkpt lat="44.55684" lon="6.12141">
        <ele>841</ele>
        <time>2016-05-04T08:06:28Z</time>
      </trkpt>
      <trkpt lat="44.55673" lon="6.12157">
        <ele>841</ele>
        <time>2016-05-04T08:08:28Z</time>
      </trkpt>
      <trkpt lat="44.55653" lon="6.1218">
        <ele>841</ele>
        <time>2016-05-04T08:10:28Z</time>
      </trkpt>
      <trkpt lat="44.55618" lon="6.12218">
        <ele>842</ele>
        <time>2016-05-04T08:12:28Z</time>
      </trkpt>
      <trkpt lat="44.55602" lon="6.12237">
        <ele>842</ele>
        <time>2016-05-04T08:14:28Z</time>
      </trkpt>
      <trkpt lat="44.55595" lon="6.12251">
        <ele>843</ele>
        <time>2016-05-04T08:16:28Z</time>
      </trkpt>
      <trkpt lat="44.55592" lon="6.1227">
        <ele>843</ele>
        <time>2016-05-04T08:18:28Z</time>
      </trkpt>
      <trkpt lat="44.55592" lon="6.12288">
        <ele>844</ele>
        <time>2016-05-04T08:20:28Z</time>
      </trkpt>
      <trkpt lat="44.55591" lon="6.12307">
        <ele>844</ele>
        <time>2016-05-04T08:22:28Z</time>
      </trkpt>
      <trkpt lat="44.55588" lon="6.12326">
        <ele>845</ele>
        <time>2016-05-04T08:24:28Z</time>
      </trkpt>
      <trkpt lat="44.55578" lon="6.12348">
        <ele>845</ele>
        <time>2016-05-04T08:26:28Z</time>
      </trkpt>
      <trkpt lat="44.55567" lon="6.12364">
        <ele>845</ele>
        <time>2016-05-04T08:28:28Z</time>
      </trkpt>
      <trkpt lat="44.55553" lon="6.12374">
        <ele>845</ele>
        <time>2016-05-04T08:30:28Z</time>
      </trkpt>
      <trkpt lat="44.55537" lon="6.12384">
        <ele>845</ele>
        <time>2016-05-04T08:32:28Z</time>
      </trkpt>
      <trkpt lat="44.55527" lon="6.12393">
        <ele>845</ele>
        <time>2016-05-04T08:34:28Z</time>
      </trkpt>
      <trkpt lat="44.55513" lon="6.12411">
        <ele>845</ele>
        <time>2016-05-04T08:36:28Z</time>
      </trkpt>
      <trkpt lat="44.55493" lon="6.12448">
        <ele>846</ele>
        <time>2016-05-04T08:38:28Z</time>
      </trkpt>
      <trkpt lat="44.55476" lon="6.12484">
        <ele>846</ele>
        <time>2016-05-04T08:40:28Z</time>
      </trkpt>
      <trkpt lat="44.55457" lon="6.12521">
        <ele>846</ele>
        <time>2016-05-04T08:42:28Z</time>
      </trkpt>
      <trkpt lat="44.55444" lon="6.12546">
        <ele>846</ele>
        <time>2016-05-04T08:44:28Z</time>
      </trkpt>
      <trkpt lat="44.55435" lon="6.12558">
        <ele>846</ele>
        <time>2016-05-04T08:46:28Z</time>
      </trkpt>
      <trkpt lat="44.55415" lon="6.12576">
        <ele>845</ele>
        <time>2016-05-04T08:48:28Z</time>
      </trkpt>
      <trkpt lat="44.55381" lon="6.12606">
        <ele>847</ele>
        <time>2016-05-04T08:50:28Z</time>
      </trkpt>
      <trkpt lat="44.55357" lon="6.1263">
        <ele>848</ele>
        <time>2016-05-04T08:52:28Z</time>
      </trkpt>
      <trkpt lat="44.55304" lon="6.12681">
        <ele>849</ele>
        <time>2016-05-04T08:54:28Z</time>
      </trkpt>
      <trkpt lat="44.55267" lon="6.12718">
        <ele>849</ele>
        <time>2016-05-04T08:56:28Z</time>
      </trkpt>
      <trkpt lat="44.55253" lon="6.12733">
        <ele>849</ele>
        <time>2016-05-04T08:58:28Z</time>
      </trkpt>
      <trkpt lat="44.55247" lon="6.12747">
        <ele>849</ele>
        <time>2016-05-04T09:00:28Z</time>
      </trkpt>
      <trkpt lat="44.55244" lon="6.1276">
        <ele>849</ele>
        <time>2016-05-04T09:02:28Z</time>
      </trkpt>
      <trkpt lat="44.55245" lon="6.12773">
        <ele>850</ele>
        <time>2016-05-04T09:04:28Z</time>
      </trkpt>
      <trkpt lat="44.55247" lon="6.12781">
        <ele>850</ele>
        <time>2016-05-04T09:06:28Z</time>
      </trkpt>
      <trkpt lat="44.55248" lon="6.12787">
        <ele>850</ele>
        <time>2016-05-04T09:08:28Z</time>
      </trkpt>
      <trkpt lat="44.5525" lon="6.12793">
        <ele>850</ele>
        <time>2016-05-04T09:10:28Z</time>
      </trkpt>
      <trkpt lat="44.55257" lon="6.12822">
        <ele>851</ele>
        <time>2016-05-04T09:12:28Z</time>
      </trkpt>
      <trkpt lat="44.55274" lon="6.12887">
        <ele>854</ele>
        <time>2016-05-04T09:14:28Z</time>
      </trkpt>
      <trkpt lat="44.55282" lon="6.1291">
        <ele>855</ele>
        <time>2016-05-04T09:16:28Z</time>
      </trkpt>
      <trkpt lat="44.55291" lon="6.12925">
        <ele>857</ele>
        <time>2016-05-04T09:18:28Z</time>
      </trkpt>
      <trkpt lat="44.55302" lon="6.12939">
        <ele>858</ele>
        <time>2016-05-04T09:20:28Z</time>
      </trkpt>
      <trkpt lat="44.55315" lon="6.12949">
        <ele>859</ele>
        <time>2016-05-04T09:22:28Z</time>
      </trkpt>
      <trkpt lat="44.55339" lon="6.12962">
        <ele>861</ele>
        <time>2016-05-04T09:24:28Z</time>
      </trkpt>
      <trkpt lat="44.55343" lon="6.12964">
        <ele>861</ele>
        <time>2016-05-04T09:26:28Z</time>
      </trkpt>
      <trkpt lat="44.55361" lon="6.12973">
        <ele>863</ele>
        <time>2016-05-04T09:28:28Z</time>
      </trkpt>
      <trkpt lat="44.55379" lon="6.12985">
        <ele>864</ele>
        <time>2016-05-04T09:30:28Z</time>
      </trkpt>
      <trkpt lat="44.5539" lon="6.12996">
        <ele>864</ele>
        <time>2016-05-04T09:32:28Z</time>
      </trkpt>
      <trkpt lat="44.55398" lon="6.13011">
        <ele>865</ele>
        <time>2016-05-04T09:34:28Z</time>
      </trkpt>
      <trkpt lat="44.55403" lon="6.13029">
        <ele>865</ele>
        <time>2016-05-04T09:36:28Z</time>
      </trkpt>
      <trkpt lat="44.55406" lon="6.13052">
        <ele>866</ele>
        <time>2016-05-04T09:38:28Z</time>
      </trkpt>
      <trkpt lat="44.55408" lon="6.13074">
        <ele>867</ele>
        <time>2016-05-04T09:40:28Z</time>
      </trkpt>
      <trkpt lat="44.5541" lon="6.13087">
        <ele>868</ele>
        <time>2016-05-04T09:42:28Z</time>
      </trkpt>
      <trkpt lat="44.55413" lon="6.13138">
        <ele>871</ele>
        <time>2016-05-04T09:44:28Z</time>
      </trkpt>
      <trkpt lat="44.55415" lon="6.13164">
        <ele>872</ele>
        <time>2016-05-04T09:46:28Z</time>
      </trkpt>
      <trkpt lat="44.55421" lon="6.13188">
        <ele>873</ele>
        <time>2016-05-04T09:48:28Z</time>
      </trkpt>
      <trkpt lat="44.55432" lon="6.13228">
        <ele>875</ele>
        <time>2016-05-04T09:50:28Z</time>
      </trkpt>
      <trkpt lat="44.55449" lon="6.13285">
        <ele>875</ele>
        <time>2016-05-04T09:52:28Z</time>
      </trkpt>
      <trkpt lat="44.55463" lon="6.13338">
        <ele>876</ele>
        <time>2016-05-04T09:54:28Z</time>
      </trkpt>
      <trkpt lat="44.55476" lon="6.13383">
        <ele>877</ele>
        <time>2016-05-04T09:56:28Z</time>
      </trkpt>
      <trkpt lat="44.5548" lon="6.13401">
        <ele>878</ele>
        <time>2016-05-04T09:58:28Z</time>
      </trkpt>
      <trkpt lat="44.5548" lon="6.13414">
        <ele>879</ele>
        <time>2016-05-04T10:00:28Z</time>
      </trkpt>
      <trkpt lat="44.55481" lon="6.13456">
        <ele>879</ele>
        <time>2016-05-04T10:02:28Z</time>
      </trkpt>
      <trkpt lat="44.55482" lon="6.1348">
        <ele>879</ele>
        <time>2016-05-04T10:04:28Z</time>
      </trkpt>
      <trkpt lat="44.55486" lon="6.13503">
        <ele>879</ele>
        <time>2016-05-04T10:06:28Z</time>
      </trkpt>
      <trkpt lat="44.55498" lon="6.13546">
        <ele>879</ele>
        <time>2016-05-04T10:08:28Z</time>
      </trkpt>
      <trkpt lat="44.55515" lon="6.13607">
        <ele>881</ele>
        <time>2016-05-04T10:10:28Z</time>
      </trkpt>
      <trkpt lat="44.55516" lon="6.13614">
        <ele>882</ele>
        <time>2016-05-04T10:12:28Z</time>
      </trkpt>
      <trkpt lat="44.55528" lon="6.13657">
        <ele>883</ele>
        <time>2016-05-04T10:14:28Z</time>
      </trkpt>
      <trkpt lat="44.55541" lon="6.13701">
        <ele>884</ele>
        <time>2016-05-04T10:16:28Z</time>
      </trkpt>
      <trkpt lat="44.55541" lon="6.13704">
        <ele>884</ele>
        <time>2016-05-04T10:18:28Z</time>
      </trkpt>
      <trkpt lat="44.55549" lon="6.1373">
        <ele>885</ele>
        <time>2016-05-04T10:20:28Z</time>
      </trkpt>
      <trkpt lat="44.55561" lon="6.13756">
        <ele>886</ele>
        <time>2016-05-04T10:22:28Z</time>
      </trkpt>
      <trkpt lat="44.55584" lon="6.13806">
        <ele>887</ele>
        <time>2016-05-04T10:24:28Z</time>
      </trkpt>
      <trkpt lat="44.55602" lon="6.13846">
        <ele>889</ele>
        <time>2016-05-04T10:26:28Z</time>
      </trkpt>
      <trkpt lat="44.55617" lon="6.13882">
        <ele>890</ele>
        <time>2016-05-04T10:28:28Z</time>
      </trkpt>
      <trkpt lat="44.55626" lon="6.13913">
        <ele>892</ele>
        <time>2016-05-04T10:30:28Z</time>
      </trkpt>
      <trkpt lat="44.55633" lon="6.13941">
        <ele>893</ele>
        <time>2016-05-04T10:32:28Z</time>
      </trkpt>
      <trkpt lat="44.55639" lon="6.13978">
        <ele>894</ele>
        <time>2016-05-04T10:34:28Z</time>
      </trkpt>
      <trkpt lat="44.55646" lon="6.14024">
        <ele>896</ele>
        <time>2016-05-04T10:36:28Z</time>
      </trkpt>
      <trkpt lat="44.55648" lon="6.14037">
        <ele>897</ele>
        <time>2016-05-04T10:38:28Z</time>
      </trkpt>
      <trkpt lat="44.55652" lon="6.14055">
        <ele>897</ele>
        <time>2016-05-04T10:40:28Z</time>
      </trkpt>
      <trkpt lat="44.5566" lon="6.14077">
        <ele>899</ele>
        <time>2016-05-04T10:42:28Z</time>
      </trkpt>
      <trkpt lat="44.55675" lon="6.14111">
        <ele>900</ele>
        <time>2016-05-04T10:44:28Z</time>
      </trkpt>
      <trkpt lat="44.55697" lon="6.14164">
        <ele>902</ele>
        <time>2016-05-04T10:46:28Z</time>
      </trkpt>
      <trkpt lat="44.55718" lon="6.14215">
        <ele>904</ele>
        <time>2016-05-04T10:48:28Z</time>
      </trkpt>
      <trkpt lat="44.55732" lon="6.14255">
        <ele>906</ele>
        <time>2016-05-04T10:50:28Z</time>
      </trkpt>
      <trkpt lat="44.55739" lon="6.14275">
        <ele>907</ele>
        <time>2016-05-04T10:52:28Z</time>
      </trkpt>
      <trkpt lat="44.55748" lon="6.14292">
        <ele>908</ele>
        <time>2016-05-04T10:54:28Z</time>
      </trkpt>
      <trkpt lat="44.55764" lon="6.14317">
        <ele>908</ele>
        <time>2016-05-04T10:56:28Z</time>
      </trkpt>
      <trkpt lat="44.55772" lon="6.14334">
        <ele>908</ele>
        <time>2016-05-04T10:58:28Z</time>
      </trkpt>
      <trkpt lat="44.55781" lon="6.14359">
        <ele>908</ele>
        <time>2016-05-04T11:00:28Z</time>
      </trkpt>
      <trkpt lat="44.55796" lon="6.14428">
        <ele>910</ele>
        <time>2016-05-04T11:02:28Z</time>
      </trkpt>
      <trkpt lat="44.55808" lon="6.14483">
        <ele>912</ele>
        <time>2016-05-04T11:04:28Z</time>
      </trkpt>
      <trkpt lat="44.55818" lon="6.14536">
        <ele>915</ele>
        <time>2016-05-04T11:06:28Z</time>
      </trkpt>
      <trkpt lat="44.55823" lon="6.14566">
        <ele>918</ele>
        <time>2016-05-04T11:08:28Z</time>
      </trkpt>
      <trkpt lat="44.55827" lon="6.14589">
        <ele>919</ele>
        <time>2016-05-04T11:10:28Z</time>
      </trkpt>
      <trkpt lat="44.55832" lon="6.14607">
        <ele>920</ele>
        <time>2016-05-04T11:12:28Z</time>
      </trkpt>
      <trkpt lat="44.55842" lon="6.14636">
        <ele>921</ele>
        <time>2016-05-04T11:14:28Z</time>
      </trkpt>
      <trkpt lat="44.55848" lon="6.14664">
        <ele>922</ele>
        <time>2016-05-04T11:16:28Z</time>
      </trkpt>
      <trkpt lat="44.55849" lon="6.1467">
        <ele>923</ele>
        <time>2016-05-04T11:18:28Z</time>
      </trkpt>
      <trkpt lat="44.55849" lon="6.14675">
        <ele>923</ele>
        <time>2016-05-04T11:20:28Z</time>
      </trkpt>
      <trkpt lat="44.55852" lon="6.147">
        <ele>925</ele>
        <time>2016-05-04T11:22:28Z</time>
      </trkpt>
      <trkpt lat="44.55853" lon="6.14711">
        <ele>926</ele>
        <time>2016-05-04T11:24:28Z</time>
      </trkpt>
      <trkpt lat="44.55856" lon="6.14746">
        <ele>929</ele>
        <time>2016-05-04T11:26:28Z</time>
      </trkpt>
      <trkpt lat="44.55861" lon="6.14778">
        <ele>929</ele>
        <time>2016-05-04T11:28:28Z</time>
      </trkpt>
      <trkpt lat="44.55869" lon="6.14821">
        <ele>930</ele>
        <time>2016-05-04T11:30:28Z</time>
      </trkpt>
      <trkpt lat="44.55877" lon="6.14863">
        <ele>931</ele>
        <time>2016-05-04T11:32:28Z</time>
      </trkpt>
      <trkpt lat="44.55882" lon="6.149">
        <ele>934</ele>
        <time>2016-05-04T11:34:28Z</time>
      </trkpt>
      <trkpt lat="44.55886" lon="6.14934">
        <ele>936</ele>
        <time>2016-05-04T11:36:28Z</time>
      </trkpt>
      <trkpt lat="44.55887" lon="6.14972">
        <ele>939</ele>
        <time>2016-05-04T11:38:28Z</time>
      </trkpt>
      <trkpt lat="44.55889" lon="6.15023">
        <ele>942</ele>
        <time>2016-05-04T11:40:28Z</time>
      </trkpt>
      <trkpt lat="44.5589" lon="6.15083">
        <ele>944</ele>
        <time>2016-05-04T11:42:28Z</time>
      </trkpt>
      <trkpt lat="44.55892" lon="6.15139">
        <ele>945</ele>
        <time>2016-05-04T11:44:28Z</time>
      </trkpt>
      <trkpt lat="44.55895" lon="6.1521">
        <ele>948</ele>
        <time>2016-05-04T11:46:28Z</time>
      </trkpt>
      <trkpt lat="44.55898" lon="6.15263">
        <ele>951</ele>
        <time>2016-05-04T11:48:28Z</time>
      </trkpt>
      <trkpt lat="44.55901" lon="6.15314">
        <ele>953</ele>
        <time>2016-05-04T11:50:28Z</time>
      </trkpt>
      <trkpt lat="44.55904" lon="6.15337">
        <ele>954</ele>
        <time>2016-05-04T11:52:28Z</time>
      </trkpt>
      <trkpt lat="44.55922" lon="6.15431">
        <ele>956</ele>
        <time>2016-05-04T11:54:28Z</time>
      </trkpt>
      <trkpt lat="44.55939" lon="6.15512">
        <ele>962</ele>
        <time>2016-05-04T11:56:28Z</time>
      </trkpt>
      <trkpt lat="44.55956" lon="6.15601">
        <ele>968</ele>
        <time>2016-05-04T11:58:28Z</time>
      </trkpt>
      <trkpt lat="44.5596" lon="6.15626">
        <ele>968</ele>
        <time>2016-05-04T12:00:28Z</time>
      </trkpt>
      <trkpt lat="44.55962" lon="6.15648">
        <ele>969</ele>
        <time>2016-05-04T12:02:28Z</time>
      </trkpt>
      <trkpt lat="44.55959" lon="6.15678">
        <ele>971</ele>
        <time>2016-05-04T12:04:28Z</time>
      </trkpt>
      <trkpt lat="44.55953" lon="6.15755">
        <ele>975</ele>
        <time>2016-05-04T12:06:28Z</time>
      </trkpt>
      <trkpt lat="44.55949" lon="6.15816">
        <ele>977</ele>
        <time>2016-05-04T12:08:28Z</time>
      </trkpt>
      <trkpt lat="44.55946" lon="6.15858">
        <ele>977</ele>
        <time>2016-05-04T12:10:28Z</time>
      </trkpt>
      <trkpt lat="44.55943" lon="6.15885">
        <ele>977</ele>
        <time>2016-05-04T12:12:28Z</time>
      </trkpt>
      <trkpt lat="44.55933" lon="6.15934">
        <ele>977</ele>
        <time>2016-05-04T12:14:28Z</time>
      </trkpt>
      <trkpt lat="44.5592" lon="6.15985">
        <ele>977</ele>
        <time>2016-05-04T12:16:28Z</time>
      </trkpt>
      <trkpt lat="44.55913" lon="6.16005">
        <ele>977</ele>
        <time>2016-05-04T12:18:28Z</time>
      </trkpt>
      <trkpt lat="44.5591" lon="6.16011">
        <ele>977</ele>
        <time>2016-05-04T12:20:28Z</time>
      </trkpt>
      <trkpt lat="44.55904" lon="6.16021">
        <ele>977</ele>
        <time>2016-05-04T12:22:28Z</time>
      </trkpt>
      <trkpt lat="44.55882" lon="6.16042">
        <ele>979</ele>
        <time>2016-05-04T12:24:28Z</time>
      </trkpt>
      <trkpt lat="44.55849" lon="6.16069">
        <ele>982</ele>
        <time>2016-05-04T12:26:28Z</time>
      </trkpt>
      <trkpt lat="44.5584" lon="6.16076">
        <ele>983</ele>
        <time>2016-05-04T12:28:28Z</time>
      </trkpt>
      <trkpt lat="44.55817" lon="6.16092">
        <ele>984</ele>
        <time>2016-05-04T12:30:28Z</time>
      </trkpt>
      <trkpt lat="44.55795" lon="6.16103">
        <ele>985</ele>
        <time>2016-05-04T12:32:28Z</time>
      </trkpt>
      <trkpt lat="44.55778" lon="6.16107">
        <ele>986</ele>
        <time>2016-05-04T12:34:28Z</time>
      </trkpt>
      <trkpt lat="44.55761" lon="6.16108">
        <ele>988</ele>
        <time>2016-05-04T12:36:28Z</time>
      </trkpt>
      <trkpt lat="44.55742" lon="6.16104">
        <ele>990</ele>
        <time>2016-05-04T12:38:28Z</time>
      </trkpt>
      <trkpt lat="44.55728" lon="6.16098">
        <ele>991</ele>
        <time>2016-05-04T12:40:28Z</time>
      </trkpt>
      <trkpt lat="44.55703" lon="6.16089">
        <ele>992</ele>
        <time>2016-05-04T12:42:28Z</time>
      </trkpt>
      <trkpt lat="44.55682" lon="6.16082">
        <ele>993</ele>
        <time>2016-05-04T12:44:28Z</time>
      </trkpt>
      <trkpt lat="44.55675" lon="6.16079">
        <ele>994</ele>
        <time>2016-05-04T12:46:28Z</time>
      </trkpt>
      <trkpt lat="44.55647" lon="6.16067">
        <ele>997</ele>
        <time>2016-05-04T12:48:28Z</time>
      </trkpt>
      <trkpt lat="44.55627" lon="6.16054">
        <ele>1000</ele>
        <time>2016-05-04T12:50:28Z</time>
      </trkpt>
      <trkpt lat="44.55601" lon="6.16034">
        <ele>1003</ele>
        <time>2016-05-04T12:52:28Z</time>
      </trkpt>
      <trkpt lat="44.55577" lon="6.16012">
        <ele>1004</ele>
        <time>2016-05-04T12:54:28Z</time>
      </trkpt>
      <trkpt lat="44.55554" lon="6.15995">
        <ele>1006</ele>
        <time>2016-05-04T12:56:28Z</time>
      </trkpt>
      <trkpt lat="44.55547" lon="6.15992">
        <ele>1007</ele>
        <time>2016-05-04T12:58:28Z</time>
      </trkpt>
      <trkpt lat="44.55536" lon="6.15987">
        <ele>1008</ele>
        <time>2016-05-04T13:00:28Z</time>
      </trkpt>
      <trkpt lat="44.55521" lon="6.15985">
        <ele>1009</ele>
        <time>2016-05-04T13:02:28Z</time>
      </trkpt>
      <trkpt lat="44.55505" lon="6.15986">
        <ele>1012</ele>
        <time>2016-05-04T13:04:28Z</time>
      </trkpt>
      <trkpt lat="44.55492" lon="6.1599">
        <ele>1012</ele>
        <time>2016-05-04T13:06:28Z</time>
      </trkpt>
      <trkpt lat="44.55481" lon="6.15998">
        <ele>1012</ele>
        <time>2016-05-04T13:08:28Z</time>
      </trkpt>
      <trkpt lat="44.55464" lon="6.16014">
        <ele>1013</ele>
        <time>2016-05-04T13:10:28Z</time>
      </trkpt>
      <trkpt lat="44.55444" lon="6.16036">
        <ele>1014</ele>
        <time>2016-05-04T13:12:28Z</time>
      </trkpt>
      <trkpt lat="44.55438" lon="6.16048">
        <ele>1014</ele>
        <time>2016-05-04T13:14:28Z</time>
      </trkpt>
      <trkpt lat="44.55429" lon="6.16069">
        <ele>1014</ele>
        <time>2016-05-04T13:16:28Z</time>
      </trkpt>
      <trkpt lat="44.55423" lon="6.16092">
        <ele>1015</ele>
        <time>2016-05-04T13:18:28Z</time>
      </trkpt>
      <trkpt lat="44.55418" lon="6.16113">
        <ele>1015</ele>
        <time>2016-05-04T13:20:28Z</time>
      </trkpt>
      <trkpt lat="44.55417" lon="6.16136">
        <ele>1016</ele>
        <time>2016-05-04T13:22:28Z</time>
      </trkpt>
      <trkpt lat="44.55412" lon="6.16171">
        <ele>1017</ele>
        <time>2016-05-04T13:24:28Z</time>
      </trkpt>
      <trkpt lat="44.55408" lon="6.16188">
        <ele>1017</ele>
        <time>2016-05-04T13:26:28Z</time>
      </trkpt>
      <trkpt lat="44.55407" lon="6.16192">
        <ele>1017</ele>
        <time>2016-05-04T13:28:28Z</time>
      </trkpt>
      <trkpt lat="44.55403" lon="6.16203">
        <ele>1017</ele>
        <time>2016-05-04T13:30:28Z</time>
      </trkpt>
      <trkpt lat="44.55387" lon="6.16235">
        <ele>1015</ele>
        <time>2016-05-04T13:32:28Z</time>
      </trkpt>
      <trkpt lat="44.55382" lon="6.16245">
        <ele>1015</ele>
        <time>2016-05-04T13:34:28Z</time>
      </trkpt>
      <trkpt lat="44.55374" lon="6.1626">
        <ele>1014</ele>
        <time>2016-05-04T13:36:28Z</time>
      </trkpt>
      <trkpt lat="44.55363" lon="6.16281">
        <ele>1013</ele>
        <time>2016-05-04T13:38:28Z</time>
      </trkpt>
      <trkpt lat="44.55354" lon="6.16293">
        <ele>1013</ele>
        <time>2016-05-04T13:40:28Z</time>
      </trkpt>
      <trkpt lat="44.55346" lon="6.16312">
        <ele>1012</ele>
        <time>2016-05-04T13:42:28Z</time>
      </trkpt>
      <trkpt lat="44.55341" lon="6.16327">
        <ele>1013</ele>
        <time>2016-05-04T13:44:28Z</time>
      </trkpt>
      <trkpt lat="44.55337" lon="6.16332">
        <ele>1012</ele>
        <time>2016-05-04T13:46:28Z</time>
      </trkpt>
      <trkpt lat="44.55337" lon="6.16332">
        <ele>1012</ele>
        <time>2016-05-04T13:48:28Z</time>
      </trkpt>
      <trkpt lat="44.55333" lon="6.16339">
        <ele>1012</ele>
        <time>2016-05-04T13:50:28Z</time>
      </trkpt>
      <trkpt lat="44.55328" lon="6.16351">
        <ele>1011</ele>
        <time>2016-05-04T13:52:28Z</time>
      </trkpt>
      <trkpt lat="44.55324" lon="6.16369">
        <ele>1010</ele>
        <time>2016-05-04T13:54:28Z</time>
      </trkpt>
      <trkpt lat="44.55324" lon="6.16393">
        <ele>1010</ele>
        <time>2016-05-04T13:56:28Z</time>
      </trkpt>
      <trkpt lat="44.55325" lon="6.16418">
        <ele>1009</ele>
        <time>2016-05-04T13:58:28Z</time>
      </trkpt>
      <trkpt lat="44.55326" lon="6.16434">
        <ele>1008</ele>
        <time>2016-05-04T14:00:28Z</time>
      </trkpt>
      <trkpt lat="44.55325" lon="6.16441">
        <ele>1007</ele>
        <time>2016-05-04T14:02:28Z</time>
      </trkpt>
      <trkpt lat="44.55325" lon="6.16441">
        <ele>1007</ele>
        <time>2016-05-04T14:04:28Z</time>
      </trkpt>
      <trkpt lat="44.5532" lon="6.1645">
        <ele>1006</ele>
        <time>2016-05-04T14:06:28Z</time>
      </trkpt>
      <trkpt lat="44.5531" lon="6.16461">
        <ele>1004</ele>
        <time>2016-05-04T14:08:28Z</time>
      </trkpt>
      <trkpt lat="44.55294" lon="6.16478">
        <ele>1003</ele>
        <time>2016-05-04T14:10:28Z</time>
      </trkpt>
      <trkpt lat="44.5528" lon="6.16498">
        <ele>1002</ele>
        <time>2016-05-04T14:12:28Z</time>
      </trkpt>
      <trkpt lat="44.5527" lon="6.1652">
        <ele>1003</ele>
        <time>2016-05-04T14:14:28Z</time>
      </trkpt>
      <trkpt lat="44.55269" lon="6.16526">
        <ele>1003</ele>
        <time>2016-05-04T14:16:28Z</time>
      </trkpt>
      <trkpt lat="44.5527" lon="6.16531">
        <ele>1003</ele>
        <time>2016-05-04T14:18:28Z</time>
      </trkpt>
      <trkpt lat="44.55272" lon="6.16536">
        <ele>1004</ele>
        <time>2016-05-04T14:20:28Z</time>
      </trkpt>
      <trkpt lat="44.55274" lon="6.16538">
        <ele>1004</ele>
        <time>2016-05-04T14:22:28Z</time>
      </trkpt>
      <trkpt lat="44.55277" lon="6.16538">
        <ele>1004</ele>
        <time>2016-05-04T14:24:28Z</time>
      </trkpt>
      <trkpt lat="44.55283" lon="6.16538">
        <ele>1004</ele>
        <time>2016-05-04T14:26:28Z</time>
      </trkpt>
      <trkpt lat="44.55299" lon="6.16536">
        <ele>1004</ele>
        <time>2016-05-04T14:28:28Z</time>
      </trkpt>
      <trkpt lat="44.55306" lon="6.16536">
        <ele>1004</ele>
        <time>2016-05-04T14:30:28Z</time>
      </trkpt>
      <trkpt lat="44.55312" lon="6.16534">
        <ele>1004</ele>
        <time>2016-05-04T14:32:28Z</time>
      </trkpt>
      <trkpt lat="44.55317" lon="6.16532">
        <ele>1004</ele>
        <time>2016-05-04T14:34:28Z</time>
      </trkpt>
      <trkpt lat="44.55324" lon="6.16527">
        <ele>1004</ele>
        <time>2016-05-04T14:36:28Z</time>
      </trkpt>
      <trkpt lat="44.55333" lon="6.16522">
        <ele>1003</ele>
        <time>2016-05-04T14:38:28Z</time>
      </trkpt>
      <trkpt lat="44.55341" lon="6.1652">
        <ele>1002</ele>
        <time>2016-05-04T14:40:28Z</time>
      </trkpt>
      <trkpt lat="44.55352" lon="6.16522">
        <ele>1001</ele>
        <time>2016-05-04T14:42:28Z</time>
      </trkpt>
      <trkpt lat="44.55361" lon="6.16528">
        <ele>1001</ele>
        <time>2016-05-04T14:44:28Z</time>
      </trkpt>
      <trkpt lat="44.55369" lon="6.16538">
        <ele>1000</ele>
        <time>2016-05-04T14:46:28Z</time>
      </trkpt>
      <trkpt lat="44.55378" lon="6.16558">
        <ele>999</ele>
        <time>2016-05-04T14:48:28Z</time>
      </trkpt>
      <trkpt lat="44.55383" lon="6.16588">
        <ele>999</ele>
        <time>2016-05-04T14:50:28Z</time>
      </trkpt>
      <trkpt lat="44.5539" lon="6.1664">
        <ele>1000</ele>
        <time>2016-05-04T14:52:28Z</time>
      </trkpt>
      <trkpt lat="44.55393" lon="6.16699">
        <ele>1005</ele>
        <time>2016-05-04T14:54:28Z</time>
      </trkpt>
      <trkpt lat="44.55397" lon="6.16777">
        <ele>1010</ele>
        <time>2016-05-04T14:56:28Z</time>
      </trkpt>
      <trkpt lat="44.55401" lon="6.16858">
        <ele>1014</ele>
        <time>2016-05-04T14:58:28Z</time>
      </trkpt>
      <trkpt lat="44.55402" lon="6.16901">
        <ele>1015</ele>
        <time>2016-05-04T15:00:28Z</time>
      </trkpt>
      <trkpt lat="44.55399" lon="6.16925">
        <ele>1017</ele>
        <time>2016-05-04T15:02:28Z</time>
      </trkpt>
      <trkpt lat="44.55395" lon="6.16958">
        <ele>1019</ele>
        <time>2016-05-04T15:04:28Z</time>
      </trkpt>
      <trkpt lat="44.5539" lon="6.16985">
        <ele>1020</ele>
        <time>2016-05-04T15:06:28Z</time>
      </trkpt>
      <trkpt lat="44.5539" lon="6.17002">
        <ele>1020</ele>
        <time>2016-05-04T15:08:28Z</time>
      </trkpt>
      <trkpt lat="44.55393" lon="6.17024">
        <ele>1020</ele>
        <time>2016-05-04T15:10:28Z</time>
      </trkpt>
      <trkpt lat="44.55408" lon="6.17075">
        <ele>1019</ele>
        <time>2016-05-04T15:12:28Z</time>
      </trkpt>
      <trkpt lat="44.55411" lon="6.17094">
        <ele>1019</ele>
        <time>2016-05-04T15:14:28Z</time>
      </trkpt>
      <trkpt lat="44.55412" lon="6.17117">
        <ele>1020</ele>
        <time>2016-05-04T15:16:28Z</time>
      </trkpt>
      <trkpt lat="44.55413" lon="6.17141">
        <ele>1021</ele>
        <time>2016-05-04T15:18:28Z</time>
      </trkpt>
      <trkpt lat="44.55416" lon="6.1716">
        <ele>1021</ele>
        <time>2016-05-04T15:20:28Z</time>
      </trkpt>
      <trkpt lat="44.55421" lon="6.17194">
        <ele>1021</ele>
        <time>2016-05-04T15:22:28Z</time>
      </trkpt>
      <trkpt lat="44.55424" lon="6.17226">
        <ele>1022</ele>
        <time>2016-05-04T15:24:28Z</time>
      </trkpt>
      <trkpt lat="44.55424" lon="6.17228">
        <ele>1022</ele>
        <time>2016-05-04T15:26:28Z</time>
      </trkpt>
      <trkpt lat="44.55425" lon="6.17238">
        <ele>1022</ele>
        <time>2016-05-04T15:28:28Z</time>
      </trkpt>
      <trkpt lat="44.55427" lon="6.17274">
        <ele>1021</ele>
        <time>2016-05-04T15:30:28Z</time>
      </trkpt>
      <trkpt lat="44.55433" lon="6.1735">
        <ele>1019</ele>
        <time>2016-05-04T15:32:28Z</time>
      </trkpt>
      <trkpt lat="44.55433" lon="6.17375">
        <ele>1020</ele>
        <time>2016-05-04T15:34:28Z</time>
      </trkpt>
      <trkpt lat="44.55439" lon="6.17429">
        <ele>1020</ele>
        <time>2016-05-04T15:36:28Z</time>
      </trkpt>
      <trkpt lat="44.55443" lon="6.17468">
        <ele>1022</ele>
        <time>2016-05-04T15:38:28Z</time>
      </trkpt>
      <trkpt lat="44.55446" lon="6.17503">
        <ele>1023</ele>
        <time>2016-05-04T15:40:28Z</time>
      </trkpt>
      <trkpt lat="44.55452" lon="6.17532">
        <ele>1022</ele>
        <time>2016-05-04T15:42:28Z</time>
      </trkpt>
      <trkpt lat="44.55464" lon="6.17581">
        <ele>1018</ele>
        <time>2016-05-04T15:44:28Z</time>
      </trkpt>
      <trkpt lat="44.55466" lon="6.17599">
        <ele>1017</ele>
        <time>2016-05-04T15:46:28Z</time>
      </trkpt>
      <trkpt lat="44.5547" lon="6.17637">
        <ele>1016</ele>
        <time>2016-05-04T15:48:28Z</time>
      </trkpt>
      <trkpt lat="44.55473" lon="6.17665">
        <ele>1014</ele>
        <time>2016-05-04T15:50:28Z</time>
      </trkpt>
      <trkpt lat="44.55474" lon="6.17687">
        <ele>1015</ele>
        <time>2016-05-04T15:52:28Z</time>
      </trkpt>
      <trkpt lat="44.55476" lon="6.17712">
        <ele>1015</ele>
        <time>2016-05-04T15:54:28Z</time>
      </trkpt>
      <trkpt lat="44.55481" lon="6.17739">
        <ele>1014</ele>
        <time>2016-05-04T15:56:28Z</time>
      </trkpt>
      <trkpt lat="44.55488" lon="6.17765">
        <ele>1014</ele>
        <time>2016-05-04T15:58:28Z</time>
      </trkpt>
      <trkpt lat="44.55496" lon="6.17784">
        <ele>1014</ele>
        <time>2016-05-04T16:00:28Z</time>
      </trkpt>
      <trkpt lat="44.55504" lon="6.17797">
        <ele>1013</ele>
        <time>2016-05-04T16:02:28Z</time>
      </trkpt>
      <trkpt lat="44.55513" lon="6.1781">
        <ele>1012</ele>
        <time>2016-05-04T16:04:28Z</time>
      </trkpt>
      <trkpt lat="44.55517" lon="6.17818">
        <ele>1012</ele>
        <time>2016-05-04T16:06:28Z</time>
      </trkpt>
      <trkpt lat="44.55519" lon="6.1783">
        <ele>1013</ele>
        <time>2016-05-04T16:08:28Z</time>
      </trkpt>
      <trkpt lat="44.55525" lon="6.17873">
        <ele>1013</ele>
        <time>2016-05-04T16:10:28Z</time>
      </trkpt>
      <trkpt lat="44.55525" lon="6.17887">
        <ele>1013</ele>
        <time>2016-05-04T16:12:28Z</time>
      </trkpt>
      <trkpt lat="44.55525" lon="6.17912">
        <ele>1014</ele>
        <time>2016-05-04T16:14:28Z</time>
      </trkpt>
      <trkpt lat="44.55525" lon="6.17938">
        <ele>1015</ele>
        <time>2016-05-04T16:16:28Z</time>
      </trkpt>
      <trkpt lat="44.55527" lon="6.17953">
        <ele>1015</ele>
        <time>2016-05-04T16:18:28Z</time>
      </trkpt>
      <trkpt lat="44.55529" lon="6.17971">
        <ele>1014</ele>
        <time>2016-05-04T16:20:28Z</time>
      </trkpt>
      <trkpt lat="44.5553" lon="6.17977">
        <ele>1014</ele>
        <time>2016-05-04T16:22:28Z</time>
      </trkpt>
      <trkpt lat="44.55535" lon="6.18016">
        <ele>1014</ele>
        <time>2016-05-04T16:24:28Z</time>
      </trkpt>
      <trkpt lat="44.55541" lon="6.18054">
        <ele>1012</ele>
        <time>2016-05-04T16:26:28Z</time>
      </trkpt>
      <trkpt lat="44.55542" lon="6.18067">
        <ele>1012</ele>
        <time>2016-05-04T16:28:28Z</time>
      </trkpt>
      <trkpt lat="44.55541" lon="6.18092">
        <ele>1012</ele>
        <time>2016-05-04T16:30:28Z</time>
      </trkpt>
      <trkpt lat="44.55539" lon="6.18136">
        <ele>1009</ele>
        <time>2016-05-04T16:32:28Z</time>
      </trkpt>
      <trkpt lat="44.55539" lon="6.18157">
        <ele>1008</ele>
        <time>2016-05-04T16:34:28Z</time>
      </trkpt>
      <trkpt lat="44.55539" lon="6.18167">
        <ele>1007</ele>
        <time>2016-05-04T16:36:28Z</time>
      </trkpt>
      <trkpt lat="44.55541" lon="6.18176">
        <ele>1007</ele>
        <time>2016-05-04T16:38:28Z</time>
      </trkpt>
      <trkpt lat="44.55546" lon="6.18187">
        <ele>1005</ele>
        <time>2016-05-04T16:40:28Z</time>
      </trkpt>
      <trkpt lat="44.55555" lon="6.18204">
        <ele>1003</ele>
        <time>2016-05-04T16:42:28Z</time>
      </trkpt>
      <trkpt lat="44.5556" lon="6.1821">
        <ele>1003</ele>
        <time>2016-05-04T16:44:28Z</time>
      </trkpt>
      <trkpt lat="44.55568" lon="6.18219">
        <ele>1001</ele>
        <time>2016-05-04T16:46:28Z</time>
      </trkpt>
      <trkpt lat="44.55576" lon="6.1823">
        <ele>1000</ele>
        <time>2016-05-04T16:48:28Z</time>
      </trkpt>
      <trkpt lat="44.5558" lon="6.1824">
        <ele>999</ele>
        <time>2016-05-04T16:50:28Z</time>
      </trkpt>
      <trkpt lat="44.55582" lon="6.18249">
        <ele>998</ele>
        <time>2016-05-04T16:52:28Z</time>
      </trkpt>
      <trkpt lat="44.55584" lon="6.18263">
        <ele>998</ele>
        <time>2016-05-04T16:54:28Z</time>
      </trkpt>
      <trkpt lat="44.55587" lon="6.18286">
        <ele>996</ele>
        <time>2016-05-04T16:56:28Z</time>
      </trkpt>
      <trkpt lat="44.55591" lon="6.18305">
        <ele>995</ele>
        <time>2016-05-04T16:58:28Z</time>
      </trkpt>
      <trkpt lat="44.55596" lon="6.18322">
        <ele>993</ele>
        <time>2016-05-04T17:00:28Z</time>
      </trkpt>
      <trkpt lat="44.55604" lon="6.18339">
        <ele>990</ele>
        <time>2016-05-04T17:02:28Z</time>
      </trkpt>
      <trkpt lat="44.55607" lon="6.18354">
        <ele>988</ele>
        <time>2016-05-04T17:04:28Z</time>
      </trkpt>
      <trkpt lat="44.55609" lon="6.18374">
        <ele>987</ele>
        <time>2016-05-04T17:06:28Z</time>
      </trkpt>
      <trkpt lat="44.55609" lon="6.18386">
        <ele>986</ele>
        <time>2016-05-04T17:08:28Z</time>
      </trkpt>
      <trkpt lat="44.55607" lon="6.18399">
        <ele>986</ele>
        <time>2016-05-04T17:10:28Z</time>
      </trkpt>
      <trkpt lat="44.55601" lon="6.18417">
        <ele>987</ele>
        <time>2016-05-04T17:12:28Z</time>
      </trkpt>
      <trkpt lat="44.55599" lon="6.1843">
        <ele>986</ele>
        <time>2016-05-04T17:14:28Z</time>
      </trkpt>
      <trkpt lat="44.55598" lon="6.18445">
        <ele>985</ele>
        <time>2016-05-04T17:16:28Z</time>
      </trkpt>
      <trkpt lat="44.55598" lon="6.18464">
        <ele>983</ele>
        <time>2016-05-04T17:18:28Z</time>
      </trkpt>
      <trkpt lat="44.55598" lon="6.18479">
        <ele>981</ele>
        <time>2016-05-04T17:20:28Z</time>
      </trkpt>
      <trkpt lat="44.556" lon="6.18495">
        <ele>979</ele>
        <time>2016-05-04T17:22:28Z</time>
      </trkpt>
      <trkpt lat="44.55602" lon="6.18509">
        <ele>977</ele>
        <time>2016-05-04T17:24:28Z</time>
      </trkpt>
      <trkpt lat="44.55603" lon="6.18524">
        <ele>975</ele>
        <time>2016-05-04T17:26:28Z</time>
      </trkpt>
      <trkpt lat="44.55602" lon="6.18541">
        <ele>974</ele>
        <time>2016-05-04T17:28:28Z</time>
      </trkpt>
      <trkpt lat="44.55603" lon="6.18549">
        <ele>973</ele>
        <time>2016-05-04T17:30:28Z</time>
      </trkpt>
      <trkpt lat="44.55604" lon="6.18553">
        <ele>972</ele>
        <time>2016-05-04T17:32:28Z</time>
      </trkpt>
      <trkpt lat="44.55604" lon="6.18553">
        <ele>972</ele>
        <time>2016-05-04T17:34:28Z</time>
      </trkpt>
      <trkpt lat="44.55605" lon="6.18553">
        <ele>972</ele>
        <time>2016-05-04T17:36:28Z</time>
      </trkpt>
      <trkpt lat="44.55609" lon="6.18553">
        <ele>971</ele>
        <time>2016-05-04T17:38:28Z</time>
      </trkpt>
      <trkpt lat="44.55612" lon="6.18551">
        <ele>970</ele>
        <time>2016-05-04T17:40:28Z</time>
      </trkpt>
      <trkpt lat="44.55615" lon="6.18548">
        <ele>969</ele>
        <time>2016-05-04T17:42:28Z</time>
      </trkpt>
      <trkpt lat="44.55616" lon="6.18542">
        <ele>970</ele>
        <time>2016-05-04T17:44:28Z</time>
      </trkpt>
      <trkpt lat="44.55617" lon="6.18528">
        <ele>970</ele>
        <time>2016-05-04T17:46:28Z</time>
      </trkpt>
      <trkpt lat="44.55619" lon="6.18515">
        <ele>971</ele>
        <time>2016-05-04T17:48:28Z</time>
      </trkpt>
      <trkpt lat="44.55625" lon="6.1849">
        <ele>971</ele>
        <time>2016-05-04T17:50:28Z</time>
      </trkpt>
      <trkpt lat="44.55629" lon="6.18474">
        <ele>971</ele>
        <time>2016-05-04T17:52:28Z</time>
      </trkpt>
      <trkpt lat="44.55633" lon="6.18458">
        <ele>972</ele>
        <time>2016-05-04T17:54:28Z</time>
      </trkpt>
      <trkpt lat="44.55636" lon="6.1845">
        <ele>972</ele>
        <time>2016-05-04T17:56:28Z</time>
      </trkpt>
      <trkpt lat="44.5564" lon="6.18444">
        <ele>971</ele>
        <time>2016-05-04T17:58:28Z</time>
      </trkpt>
      <trkpt lat="44.55645" lon="6.1844">
        <ele>970</ele>
        <time>2016-05-04T18:00:28Z</time>
      </trkpt>
      <trkpt lat="44.55653" lon="6.18434">
        <ele>968</ele>
        <time>2016-05-04T18:02:28Z</time>
      </trkpt>
      <trkpt lat="44.55658" lon="6.18428">
        <ele>967</ele>
        <time>2016-05-04T18:04:28Z</time>
      </trkpt>
      <trkpt lat="44.55663" lon="6.18419">
        <ele>966</ele>
        <time>2016-05-04T18:06:28Z</time>
      </trkpt>
      <trkpt lat="44.55669" lon="6.18402">
        <ele>965</ele>
        <time>2016-05-04T18:08:28Z</time>
      </trkpt>
      <trkpt lat="44.55678" lon="6.18377">
        <ele>964</ele>
        <time>2016-05-04T18:10:28Z</time>
      </trkpt>
      <trkpt lat="44.55681" lon="6.18367">
        <ele>964</ele>
        <time>2016-05-04T18:12:28Z</time>
      </trkpt>
      <trkpt lat="44.55682" lon="6.18359">
        <ele>964</ele>
        <time>2016-05-04T18:14:28Z</time>
      </trkpt>
      <trkpt lat="44.55683" lon="6.18347">
        <ele>965</ele>
        <time>2016-05-04T18:16:28Z</time>
      </trkpt>
      <trkpt lat="44.55683" lon="6.18333">
        <ele>966</ele>
        <time>2016-05-04T18:18:28Z</time>
      </trkpt>
      <trkpt lat="44.55685" lon="6.18327">
        <ele>965</ele>
        <time>2016-05-04T18:20:28Z</time>
      </trkpt>
      <trkpt lat="44.55687" lon="6.1832">
        <ele>965</ele>
        <time>2016-05-04T18:22:28Z</time>
      </trkpt>
      <trkpt lat="44.55692" lon="6.18312">
        <ele>964</ele>
        <time>2016-05-04T18:24:28Z</time>
      </trkpt>
      <trkpt lat="44.557" lon="6.18303">
        <ele>962</ele>
        <time>2016-05-04T18:26:28Z</time>
      </trkpt>
      <trkpt lat="44.55707" lon="6.18292">
        <ele>961</ele>
        <time>2016-05-04T18:28:28Z</time>
      </trkpt>
      <trkpt lat="44.55713" lon="6.18285">
        <ele>960</ele>
        <time>2016-05-04T18:30:28Z</time>
      </trkpt>
      <trkpt lat="44.55722" lon="6.18273">
        <ele>958</ele>
        <time>2016-05-04T18:32:28Z</time>
      </trkpt>
      <trkpt lat="44.55727" lon="6.18264">
        <ele>957</ele>
        <time>2016-05-04T18:34:28Z</time>
      </trkpt>
      <trkpt lat="44.55731" lon="6.18252">
        <ele>956</ele>
        <time>2016-05-04T18:36:28Z</time>
      </trkpt>
      <trkpt lat="44.55735" lon="6.18236">
        <ele>955</ele>
        <time>2016-05-04T18:38:28Z</time>
      </trkpt>
      <trkpt lat="44.55742" lon="6.18218">
        <ele>953</ele>
        <time>2016-05-04T18:40:28Z</time>
      </trkpt>
      <trkpt lat="44.55744" lon="6.18209">
        <ele>953</ele>
        <time>2016-05-04T18:42:28Z</time>
      </trkpt>
      <trkpt lat="44.55749" lon="6.18194">
        <ele>951</ele>
        <time>2016-05-04T18:44:28Z</time>
      </trkpt>
      <trkpt lat="44.55756" lon="6.18171">
        <ele>950</ele>
        <time>2016-05-04T18:46:28Z</time>
      </trkpt>
      <trkpt lat="44.5576" lon="6.18156">
        <ele>949</ele>
        <time>2016-05-04T18:48:28Z</time>
      </trkpt>
      <trkpt lat="44.55765" lon="6.18145">
        <ele>948</ele>
        <time>2016-05-04T18:50:28Z</time>
      </trkpt>
      <trkpt lat="44.5577" lon="6.18137">
        <ele>947</ele>
        <time>2016-05-04T18:52:28Z</time>
      </trkpt>
      <trkpt lat="44.5578" lon="6.18123">
        <ele>945</ele>
        <time>2016-05-04T18:54:28Z</time>
      </trkpt>
      <trkpt lat="44.55788" lon="6.1811">
        <ele>943</ele>
        <time>2016-05-04T18:56:28Z</time>
      </trkpt>
      <trkpt lat="44.55793" lon="6.18101">
        <ele>942</ele>
        <time>2016-05-04T18:58:28Z</time>
      </trkpt>
      <trkpt lat="44.55798" lon="6.18088">
        <ele>941</ele>
        <time>2016-05-04T19:00:28Z</time>
      </trkpt>
      <trkpt lat="44.55806" lon="6.18061">
        <ele>940</ele>
        <time>2016-05-04T19:02:28Z</time>
      </trkpt>
      <trkpt lat="44.55812" lon="6.18045">
        <ele>938</ele>
        <time>2016-05-04T19:04:28Z</time>
      </trkpt>
      <trkpt lat="44.55818" lon="6.18026">
        <ele>937</ele>
        <time>2016-05-04T19:06:28Z</time>
      </trkpt>
      <trkpt lat="44.55823" lon="6.1801">
        <ele>936</ele>
        <time>2016-05-04T19:08:28Z</time>
      </trkpt>
      <trkpt lat="44.55827" lon="6.18003">
        <ele>936</ele>
        <time>2016-05-04T19:10:28Z</time>
      </trkpt>
      <trkpt lat="44.5583" lon="6.18">
        <ele>935</ele>
        <time>2016-05-04T19:12:28Z</time>
      </trkpt>
      <trkpt lat="44.55834" lon="6.17998">
        <ele>935</ele>
        <time>2016-05-04T19:14:28Z</time>
      </trkpt>
      <trkpt lat="44.55838" lon="6.17997">
        <ele>935</ele>
        <time>2016-05-04T19:16:28Z</time>
      </trkpt>
      <trkpt lat="44.55843" lon="6.17999">
        <ele>934</ele>
        <time>2016-05-04T19:18:28Z</time>
      </trkpt>
      <trkpt lat="44.55846" lon="6.18002">
        <ele>934</ele>
        <time>2016-05-04T19:20:28Z</time>
      </trkpt>
      <trkpt lat="44.55849" lon="6.18007">
        <ele>934</ele>
        <time>2016-05-04T19:22:28Z</time>
      </trkpt>
      <trkpt lat="44.5585" lon="6.18013">
        <ele>934</ele>
        <time>2016-05-04T19:24:28Z</time>
      </trkpt>
      <trkpt lat="44.55851" lon="6.18027">
        <ele>935</ele>
        <time>2016-05-04T19:26:28Z</time>
      </trkpt>
      <trkpt lat="44.55849" lon="6.18052">
        <ele>935</ele>
        <time>2016-05-04T19:28:28Z</time>
      </trkpt>
      <trkpt lat="44.55848" lon="6.18073">
        <ele>936</ele>
        <time>2016-05-04T19:30:28Z</time>
      </trkpt>
      <trkpt lat="44.55848" lon="6.18108">
        <ele>936</ele>
        <time>2016-05-04T19:32:28Z</time>
      </trkpt>
      <trkpt lat="44.5585" lon="6.18158">
        <ele>935</ele>
        <time>2016-05-04T19:34:28Z</time>
      </trkpt>
      <trkpt lat="44.55853" lon="6.18205">
        <ele>934</ele>
        <time>2016-05-04T19:36:28Z</time>
      </trkpt>
      <trkpt lat="44.55857" lon="6.18235">
        <ele>932</ele>
        <time>2016-05-04T19:38:28Z</time>
      </trkpt>
      <trkpt lat="44.55863" lon="6.18277">
        <ele>931</ele>
        <time>2016-05-04T19:40:28Z</time>
      </trkpt>
      <trkpt lat="44.55866" lon="6.18298">
        <ele>930</ele>
        <time>2016-05-04T19:42:28Z</time>
      </trkpt>
      <trkpt lat="44.55867" lon="6.18316">
        <ele>930</ele>
        <time>2016-05-04T19:44:28Z</time>
      </trkpt>
      <trkpt lat="44.55865" lon="6.18346">
        <ele>929</ele>
        <time>2016-05-04T19:46:28Z</time>
      </trkpt>
      <trkpt lat="44.55863" lon="6.18386">
        <ele>928</ele>
        <time>2016-05-04T19:48:28Z</time>
      </trkpt>
      <trkpt lat="44.55864" lon="6.18403">
        <ele>928</ele>
        <time>2016-05-04T19:50:28Z</time>
      </trkpt>
      <trkpt lat="44.55864" lon="6.18413">
        <ele>928</ele>
        <time>2016-05-04T19:52:28Z</time>
      </trkpt>
      <trkpt lat="44.55867" lon="6.18462">
        <ele>926</ele>
        <time>2016-05-04T19:54:28Z</time>
      </trkpt>
      <trkpt lat="44.5587" lon="6.18501">
        <ele>925</ele>
        <time>2016-05-04T19:56:28Z</time>
      </trkpt>
      <trkpt lat="44.55871" lon="6.18543">
        <ele>923</ele>
        <time>2016-05-04T19:58:28Z</time>
      </trkpt>
      <trkpt lat="44.55868" lon="6.186">
        <ele>920</ele>
        <time>2016-05-04T20:00:28Z</time>
      </trkpt>
      <trkpt lat="44.55867" lon="6.18635">
        <ele>918</ele>
        <time>2016-05-04T20:02:28Z</time>
      </trkpt>
      <trkpt lat="44.55864" lon="6.18657">
        <ele>917</ele>
        <time>2016-05-04T20:04:28Z</time>
      </trkpt>
      <trkpt lat="44.55858" lon="6.18699">
        <ele>916</ele>
        <time>2016-05-04T20:06:28Z</time>
      </trkpt>
      <trkpt lat="44.55856" lon="6.18718">
        <ele>915</ele>
        <time>2016-05-04T20:08:28Z</time>
      </trkpt>
      <trkpt lat="44.55856" lon="6.18733">
        <ele>914</ele>
        <time>2016-05-04T20:10:28Z</time>
      </trkpt>
      <trkpt lat="44.55859" lon="6.1875">
        <ele>913</ele>
        <time>2016-05-04T20:12:28Z</time>
      </trkpt>
      <trkpt lat="44.55865" lon="6.1877">
        <ele>912</ele>
        <time>2016-05-04T20:14:28Z</time>
      </trkpt>
      <trkpt lat="44.55874" lon="6.18795">
        <ele>910</ele>
        <time>2016-05-04T20:16:28Z</time>
      </trkpt>
      <trkpt lat="44.55891" lon="6.18833">
        <ele>907</ele>
        <time>2016-05-04T20:18:28Z</time>
      </trkpt>
      <trkpt lat="44.55899" lon="6.18855">
        <ele>905</ele>
        <time>2016-05-04T20:20:28Z</time>
      </trkpt>
      <trkpt lat="44.55901" lon="6.18865">
        <ele>905</ele>
        <time>2016-05-04T20:22:28Z</time>
      </trkpt>
      <trkpt lat="44.55901" lon="6.18874">
        <ele>905</ele>
        <time>2016-05-04T20:24:28Z</time>
      </trkpt>
      <trkpt lat="44.55898" lon="6.18897">
        <ele>904</ele>
        <time>2016-05-04T20:26:28Z</time>
      </trkpt>
      <trkpt lat="44.55896" lon="6.18922">
        <ele>903</ele>
        <time>2016-05-04T20:28:28Z</time>
      </trkpt>
      <trkpt lat="44.55895" lon="6.18948">
        <ele>901</ele>
        <time>2016-05-04T20:30:28Z</time>
      </trkpt>
      <trkpt lat="44.55894" lon="6.18978">
        <ele>899</ele>
        <time>2016-05-04T20:32:28Z</time>
      </trkpt>
      <trkpt lat="44.55897" lon="6.1901">
        <ele>897</ele>
        <time>2016-05-04T20:34:28Z</time>
      </trkpt>
      <trkpt lat="44.55898" lon="6.19029">
        <ele>895</ele>
        <time>2016-05-04T20:36:28Z</time>
      </trkpt>
      <trkpt lat="44.559" lon="6.19047">
        <ele>894</ele>
        <time>2016-05-04T20:38:28Z</time>
      </trkpt>
      <trkpt lat="44.55901" lon="6.19079">
        <ele>893</ele>
        <time>2016-05-04T20:40:28Z</time>
      </trkpt>
      <trkpt lat="44.55902" lon="6.19118">
        <ele>888</ele>
        <time>2016-05-04T20:42:28Z</time>
      </trkpt>
      <trkpt lat="44.55902" lon="6.1917">
        <ele>883</ele>
        <time>2016-05-04T20:44:28Z</time>
      </trkpt>
      <trkpt lat="44.55903" lon="6.19195">
        <ele>881</ele>
        <time>2016-05-04T20:46:28Z</time>
      </trkpt>
      <trkpt lat="44.55904" lon="6.19207">
        <ele>880</ele>
        <time>2016-05-04T20:48:28Z</time>
      </trkpt>
      <trkpt lat="44.55907" lon="6.19227">
        <ele>879</ele>
        <time>2016-05-04T20:50:28Z</time>
      </trkpt>
      <trkpt lat="44.5591" lon="6.1925">
        <ele>878</ele>
        <time>2016-05-04T20:52:28Z</time>
      </trkpt>
      <trkpt lat="44.55914" lon="6.19284">
        <ele>876</ele>
        <time>2016-05-04T20:54:28Z</time>
      </trkpt>
      <trkpt lat="44.55915" lon="6.19292">
        <ele>875</ele>
        <time>2016-05-04T20:56:28Z</time>
      </trkpt>
      <trkpt lat="44.55915" lon="6.19302">
        <ele>874</ele>
        <time>2016-05-04T20:58:28Z</time>
      </trkpt>
      <trkpt lat="44.55916" lon="6.19323">
        <ele>872</ele>
        <time>2016-05-04T21:00:28Z</time>
      </trkpt>
      <trkpt lat="44.55919" lon="6.1934">
        <ele>871</ele>
        <time>2016-05-04T21:02:28Z</time>
      </trkpt>
      <trkpt lat="44.55925" lon="6.19383">
        <ele>867</ele>
        <time>2016-05-04T21:04:28Z</time>
      </trkpt>
      <trkpt lat="44.55931" lon="6.19423">
        <ele>863</ele>
        <time>2016-05-04T21:06:28Z</time>
      </trkpt>
      <trkpt lat="44.55935" lon="6.19455">
        <ele>861</ele>
        <time>2016-05-04T21:08:28Z</time>
      </trkpt>
      <trkpt lat="44.55938" lon="6.19469">
        <ele>860</ele>
        <time>2016-05-04T21:10:28Z</time>
      </trkpt>
      <trkpt lat="44.55941" lon="6.19488">
        <ele>858</ele>
        <time>2016-05-04T21:12:28Z</time>
      </trkpt>
      <trkpt lat="44.5595" lon="6.19517">
        <ele>856</ele>
        <time>2016-05-04T21:14:28Z</time>
      </trkpt>
      <trkpt lat="44.55963" lon="6.19562">
        <ele>853</ele>
        <time>2016-05-04T21:16:28Z</time>
      </trkpt>
      <trkpt lat="44.55974" lon="6.19595">
        <ele>851</ele>
        <time>2016-05-04T21:18:28Z</time>
      </trkpt>
      <trkpt lat="44.55978" lon="6.1961">
        <ele>851</ele>
        <time>2016-05-04T21:20:28Z</time>
      </trkpt>
      <trkpt lat="44.55978" lon="6.1961">
        <ele>851</ele>
        <time>2016-05-04T21:22:28Z</time>
      </trkpt>
      <trkpt lat="44.56017" lon="6.19638">
        <ele>852</ele>
        <time>2016-05-04T21:24:28Z</time>
      </trkpt>
      <trkpt lat="44.56084" lon="6.19687">
        <ele>853</ele>
        <time>2016-05-04T21:26:28Z</time>
      </trkpt>
      <trkpt lat="44.56137" lon="6.19726">
        <ele>853</ele>
        <time>2016-05-04T21:28:28Z</time>
      </trkpt>
      <trkpt lat="44.56155" lon="6.19744">
        <ele>853</ele>
        <time>2016-05-04T21:30:28Z</time>
      </trkpt>
      <trkpt lat="44.56167" lon="6.19758">
        <ele>853</ele>
        <time>2016-05-04T21:32:28Z</time>
      </trkpt>
      <trkpt lat="44.5618" lon="6.19774">
        <ele>852</ele>
        <time>2016-05-04T21:34:28Z</time>
      </trkpt>
      <trkpt lat="44.56189" lon="6.19781">
        <ele>852</ele>
        <time>2016-05-04T21:36:28Z</time>
      </trkpt>
      <trkpt lat="44.56202" lon="6.19786">
        <ele>852</ele>
        <time>2016-05-04T21:38:28Z</time>
      </trkpt>
      <trkpt lat="44.56222" lon="6.1979">
        <ele>853</ele>
        <time>2016-05-04T21:40:28Z</time>
      </trkpt>
      <trkpt lat="44.56232" lon="6.19792">
        <ele>853</ele>
        <time>2016-05-04T21:42:28Z</time>
      </trkpt>
      <trkpt lat="44.56244" lon="6.19795">
        <ele>853</ele>
        <time>2016-05-04T21:44:28Z</time>
      </trkpt>
      <trkpt lat="44.56248" lon="6.19797">
        <ele>853</ele>
        <time>2016-05-04T21:46:28Z</time>
      </trkpt>
      <trkpt lat="44.5626" lon="6.198">
        <ele>854</ele>
        <time>2016-05-04T21:48:28Z</time>
      </trkpt>
      <trkpt lat="44.56279" lon="6.1981">
        <ele>854</ele>
        <time>2016-05-04T21:50:28Z</time>
      </trkpt>
      <trkpt lat="44.56279" lon="6.1981">
        <ele>854</ele>
        <time>2016-05-04T21:52:28Z</time>
      </trkpt>
      <trkpt lat="44.56282" lon="6.19804">
        <ele>854</ele>
        <time>2016-05-04T21:54:28Z</time>
      </trkpt>
      <trkpt lat="44.56288" lon="6.19793">
        <ele>855</ele>
        <time>2016-05-04T21:56:28Z</time>
      </trkpt>
      <trkpt lat="44.56294" lon="6.19776">
        <ele>855</ele>
        <time>2016-05-04T21:58:28Z</time>
      </trkpt>
      <trkpt lat="44.56299" lon="6.19758">
        <ele>856</ele>
        <time>2016-05-04T22:00:28Z</time>
      </trkpt>
      <trkpt lat="44.56309" lon="6.19716">
        <ele>856</ele>
        <time>2016-05-04T22:02:28Z</time>
      </trkpt>
      <trkpt lat="44.56315" lon="6.19697">
        <ele>857</ele>
        <time>2016-05-04T22:04:28Z</time>
      </trkpt>
      <trkpt lat="44.56316" lon="6.19695">
        <ele>857</ele>
        <time>2016-05-04T22:06:28Z</time>
      </trkpt>
      <trkpt lat="44.56322" lon="6.19685">
        <ele>857</ele>
        <time>2016-05-04T22:08:28Z</time>
      </trkpt>
      <trkpt lat="44.56326" lon="6.19685">
        <ele>857</ele>
        <time>2016-05-04T22:10:28Z</time>
      </trkpt>
      <trkpt lat="44.56327" lon="6.19686">
        <ele>857</ele>
        <time>2016-05-04T22:12:28Z</time>
      </trkpt>
      <trkpt lat="44.56329" lon="6.19686">
        <ele>857</ele>
        <time>2016-05-04T22:14:28Z</time>
      </trkpt>
      <trkpt lat="44.56331" lon="6.19688">
        <ele>857</ele>
        <time>2016-05-04T22:16:28Z</time>
      </trkpt>
      <trkpt lat="44.56335" lon="6.19691">
        <ele>857</ele>
        <time>2016-05-04T22:18:28Z</time>
      </trkpt>
      <trkpt lat="44.56344" lon="6.197">
        <ele>857</ele>
        <time>2016-05-04T22:20:28Z</time>
      </trkpt>
      <trkpt lat="44.56346" lon="6.19705">
        <ele>857</ele>
        <time>2016-05-04T22:22:28Z</time>
      </trkpt>
      <trkpt lat="44.56346" lon="6.19711">
        <ele>857</ele>
        <time>2016-05-04T22:24:28Z</time>
      </trkpt>
      <trkpt lat="44.56347" lon="6.19718">
        <ele>857</ele>
        <time>2016-05-04T22:26:28Z</time>
      </trkpt>
      <trkpt lat="44.56345" lon="6.19728">
        <ele>857</ele>
        <time>2016-05-04T22:28:28Z</time>
      </trkpt>
      <trkpt lat="44.56344" lon="6.19733">
        <ele>857</ele>
        <time>2016-05-04T22:30:28Z</time>
      </trkpt>
      <trkpt lat="44.56341" lon="6.19739">
        <ele>856</ele>
        <time>2016-05-04T22:32:28Z</time>
      </trkpt>
      <trkpt lat="44.56336" lon="6.19754">
        <ele>856</ele>
        <time>2016-05-04T22:34:28Z</time>
      </trkpt>
      <trkpt lat="44.56332" lon="6.19765">
        <ele>856</ele>
        <time>2016-05-04T22:36:28Z</time>
      </trkpt>
      <trkpt lat="44.56329" lon="6.19775">
        <ele>856</ele>
        <time>2016-05-04T22:38:28Z</time>
      </trkpt>
      <trkpt lat="44.56327" lon="6.19785">
        <ele>856</ele>
        <time>2016-05-04T22:40:28Z</time>
      </trkpt>
      <trkpt lat="44.56327" lon="6.1979">
        <ele>856</ele>
        <time>2016-05-04T22:42:28Z</time>
      </trkpt>
      <trkpt lat="44.56327" lon="6.19794">
        <ele>856</ele>
        <time>2016-05-04T22:44:28Z</time>
      </trkpt>
      <trkpt lat="44.56327" lon="6.19797">
        <ele>856</ele>
        <time>2016-05-04T22:46:28Z</time>
      </trkpt>
      <trkpt lat="44.56328" lon="6.198">
        <ele>856</ele>
        <time>2016-05-04T22:48:28Z</time>
      </trkpt>
      <trkpt lat="44.56329" lon="6.19802">
        <ele>856</ele>
        <time>2016-05-04T22:50:28Z</time>
      </trkpt>
      <trkpt lat="44.5633" lon="6.19804">
        <ele>857</ele>
        <time>2016-05-04T22:52:28Z</time>
      </trkpt>
      <trkpt lat="44.56332" lon="6.19807">
        <ele>857</ele>
        <time>2016-05-04T22:54:28Z</time>
      </trkpt>
      <trkpt lat="44.56335" lon="6.19809">
        <ele>857</ele>
        <time>2016-05-04T22:56:28Z</time>
      </trkpt>
      <trkpt lat="44.5634" lon="6.1981">
        <ele>857</ele>
        <time>2016-05-04T22:58:28Z</time>
      </trkpt>
      <trkpt lat="44.56343" lon="6.19811">
        <ele>857</ele>
        <time>2016-05-04T23:00:28Z</time>
      </trkpt>
      <trkpt lat="44.56356" lon="6.19813">
        <ele>857</ele>
        <time>2016-05-04T23:02:28Z</time>
      </trkpt>
      <trkpt lat="44.56373" lon="6.19816">
        <ele>857</ele>
        <time>2016-05-04T23:04:28Z</time>
      </trkpt>
      <trkpt lat="44.56385" lon="6.19819">
        <ele>858</ele>
        <time>2016-05-04T23:06:28Z</time>
      </trkpt>
      <trkpt lat="44.56417" lon="6.19834">
        <ele>858</ele>
        <time>2016-05-04T23:08:28Z</time>
      </trkpt>
      <trkpt lat="44.56432" lon="6.19838">
        <ele>858</ele>
        <time>2016-05-04T23:10:28Z</time>
      </trkpt>
      <trkpt lat="44.56442" lon="6.19841">
        <ele>857</ele>
        <time>2016-05-04T23:12:28Z</time>
      </trkpt>
      <trkpt lat="44.56455" lon="6.19844">
        <ele>857</ele>
        <time>2016-05-04T23:14:28Z</time>
      </trkpt>
      <trkpt lat="44.56468" lon="6.19846">
        <ele>857</ele>
        <time>2016-05-04T23:16:28Z</time>
      </trkpt>
      <trkpt lat="44.56475" lon="6.19847">
        <ele>857</ele>
        <time>2016-05-04T23:18:28Z</time>
      </trkpt>
      <trkpt lat="44.56475" lon="6.19847">
        <ele>857</ele>
        <time>2016-05-04T23:20:28Z</time>
      </trkpt>
      <trkpt lat="44.56464" lon="6.19942">
        <ele>859</ele>
        <time>2016-05-04T23:22:28Z</time>
      </trkpt>
      <trkpt lat="44.56457" lon="6.19962">
        <ele>860</ele>
        <time>2016-05-04T23:24:28Z</time>
      </trkpt>
      <trkpt lat="44.56456" lon="6.19965">
        <ele>860</ele>
        <time>2016-05-04T23:26:28Z</time>
      </trkpt>
      <trkpt lat="44.56456" lon="6.19969">
        <ele>860</ele>
        <time>2016-05-04T23:28:28Z</time>
      </trkpt>
      <trkpt lat="44.56453" lon="6.19978">
        <ele>860</ele>
        <time>2016-05-04T23:30:28Z</time>
      </trkpt>
      <trkpt lat="44.56453" lon="6.19978">
        <ele>860</ele>
        <time>2016-05-04T23:32:28Z</time>
      </trkpt>
      <trkpt lat="44.5645" lon="6.1998">
        <ele>860</ele>
        <time>2016-05-04T23:34:28Z</time>
      </trkpt>
      <trkpt lat="44.56446" lon="6.19984">
        <ele>861</ele>
        <time>2016-05-04T23:36:28Z</time>
      </trkpt>
      <trkpt lat="44.56444" lon="6.19988">
        <ele>861</ele>
        <time>2016-05-04T23:38:28Z</time>
      </trkpt>
      <trkpt lat="44.56443" lon="6.19994">
        <ele>861</ele>
        <time>2016-05-04T23:40:28Z</time>
      </trkpt>
      <trkpt lat="44.56443" lon="6.19998">
        <ele>861</ele>
        <time>2016-05-04T23:42:28Z</time>
      </trkpt>
      <trkpt lat="44.56442" lon="6.20001">
        <ele>861</ele>
        <time>2016-05-04T23:44:28Z</time>
      </trkpt>
      <trkpt lat="44.56443" lon="6.20008">
        <ele>861</ele>
        <time>2016-05-04T23:46:28Z</time>
      </trkpt>
      <trkpt lat="44.56445" lon="6.20013">
        <ele>861</ele>
        <time>2016-05-04T23:48:28Z</time>
      </trkpt>
      <trkpt lat="44.56448" lon="6.20016">
        <ele>861</ele>
        <time>2016-05-04T23:50:28Z</time>
      </trkpt>
      <trkpt lat="44.56452" lon="6.2002">
        <ele>861</ele>
        <time>2016-05-04T23:52:28Z</time>
      </trkpt>
      <trkpt lat="44.56453" lon="6.20021">
        <ele>861</ele>
        <time>2016-05-04T23:54:28Z</time>
      </trkpt>
      <trkpt lat="44.56456" lon="6.20021">
        <ele>861</ele>
        <time>2016-05-04T23:56:28Z</time>
      </trkpt>
      <trkpt lat="44.5646" lon="6.20021">
        <ele>861</ele>
        <time>2016-05-04T23:58:28Z</time>
      </trkpt>
      <trkpt lat="44.56461" lon="6.20021">
        <ele>861</ele>
        <time>2016-05-05T00:00:28Z</time>
      </trkpt>
      <trkpt lat="44.56464" lon="6.20019">
        <ele>861</ele>
        <time>2016-05-05T00:02:28Z</time>
      </trkpt>
      <trkpt lat="44.56468" lon="6.20015">
        <ele>861</ele>
        <time>2016-05-05T00:04:28Z</time>
      </trkpt>
      <trkpt lat="44.56474" lon="6.20015">
        <ele>861</ele>
        <time>2016-05-05T00:06:28Z</time>
      </trkpt>
      <trkpt lat="44.56477" lon="6.20017">
        <ele>861</ele>
        <time>2016-05-05T00:08:28Z</time>
      </trkpt>
      <trkpt lat="44.56479" lon="6.20019">
        <ele>861</ele>
        <time>2016-05-05T00:10:28Z</time>
      </trkpt>
      <trkpt lat="44.56481" lon="6.2002">
        <ele>860</ele>
        <time>2016-05-05T00:12:28Z</time>
      </trkpt>
      <trkpt lat="44.56482" lon="6.20022">
        <ele>860</ele>
        <time>2016-05-05T00:14:28Z</time>
      </trkpt>
      <trkpt lat="44.56493" lon="6.20034">
        <ele>860</ele>
        <time>2016-05-05T00:16:28Z</time>
      </trkpt>
      <trkpt lat="44.56507" lon="6.20068">
        <ele>860</ele>
        <time>2016-05-05T00:18:28Z</time>
      </trkpt>
      <trkpt lat="44.56522" lon="6.20107">
        <ele>860</ele>
        <time>2016-05-05T00:20:28Z</time>
      </trkpt>
      <trkpt lat="44.56537" lon="6.20147">
        <ele>860</ele>
        <time>2016-05-05T00:22:28Z</time>
      </trkpt>
      <trkpt lat="44.56543" lon="6.2016">
        <ele>860</ele>
        <time>2016-05-05T00:24:28Z</time>
      </trkpt>
      <trkpt lat="44.56551" lon="6.20177">
        <ele>860</ele>
        <time>2016-05-05T00:26:28Z</time>
      </trkpt>
      <trkpt lat="44.56565" lon="6.20205">
        <ele>860</ele>
        <time>2016-05-05T00:28:28Z</time>
      </trkpt>
      <trkpt lat="44.56575" lon="6.20223">
        <ele>860</ele>
        <time>2016-05-05T00:30:28Z</time>
      </trkpt>
      <trkpt lat="44.56582" lon="6.20235">
        <ele>860</ele>
        <time>2016-05-05T00:32:28Z</time>
      </trkpt>
      <trkpt lat="44.56595" lon="6.20259">
        <ele>860</ele>
        <time>2016-05-05T00:34:28Z</time>
      </trkpt>
      <trkpt lat="44.56602" lon="6.20271">
        <ele>860</ele>
        <time>2016-05-05T00:36:28Z</time>
      </trkpt>
      <trkpt lat="44.56632" lon="6.20326">
        <ele>861</ele>
        <time>2016-05-05T00:38:28Z</time>
      </trkpt>
      <trkpt lat="44.56658" lon="6.20378">
        <ele>862</ele>
        <time>2016-05-05T00:40:28Z</time>
      </trkpt>
      <trkpt lat="44.56668" lon="6.20401">
        <ele>863</ele>
        <time>2016-05-05T00:42:28Z</time>
      </trkpt>
      <trkpt lat="44.56679" lon="6.2043">
        <ele>864</ele>
        <time>2016-05-05T00:44:28Z</time>
      </trkpt>
      <trkpt lat="44.56685" lon="6.20447">
        <ele>864</ele>
        <time>2016-05-05T00:46:28Z</time>
      </trkpt>
      <trkpt lat="44.56696" lon="6.20484">
        <ele>865</ele>
        <time>2016-05-05T00:48:28Z</time>
      </trkpt>
      <trkpt lat="44.56699" lon="6.20492">
        <ele>865</ele>
        <time>2016-05-05T00:50:28Z</time>
      </trkpt>
      <trkpt lat="44.56716" lon="6.20565">
        <ele>865</ele>
        <time>2016-05-05T00:52:28Z</time>
      </trkpt>
      <trkpt lat="44.56727" lon="6.20611">
        <ele>865</ele>
        <time>2016-05-05T00:54:28Z</time>
      </trkpt>
      <trkpt lat="44.56735" lon="6.20647">
        <ele>864</ele>
        <time>2016-05-05T00:56:28Z</time>
      </trkpt>
      <trkpt lat="44.56738" lon="6.20657">
        <ele>864</ele>
        <time>2016-05-05T00:58:28Z</time>
      </trkpt>
      <trkpt lat="44.56743" lon="6.2068">
        <ele>864</ele>
        <time>2016-05-05T01:00:28Z</time>
      </trkpt>
      <trkpt lat="44.56745" lon="6.20688">
        <ele>864</ele>
        <time>2016-05-05T01:02:28Z</time>
      </trkpt>
      <trkpt lat="44.56763" lon="6.20762">
        <ele>866</ele>
        <time>2016-05-05T01:04:28Z</time>
      </trkpt>
      <trkpt lat="44.56777" lon="6.20818">
        <ele>867</ele>
        <time>2016-05-05T01:06:28Z</time>
      </trkpt>
      <trkpt lat="44.56787" lon="6.20856">
        <ele>868</ele>
        <time>2016-05-05T01:08:28Z</time>
      </trkpt>
      <trkpt lat="44.56798" lon="6.20887">
        <ele>869</ele>
        <time>2016-05-05T01:10:28Z</time>
      </trkpt>
      <trkpt lat="44.56817" lon="6.20933">
        <ele>870</ele>
        <time>2016-05-05T01:12:28Z</time>
      </trkpt>
      <trkpt lat="44.56849" lon="6.21007">
        <ele>872</ele>
        <time>2016-05-05T01:14:28Z</time>
      </trkpt>
      <trkpt lat="44.56874" lon="6.21061">
        <ele>875</ele>
        <time>2016-05-05T01:16:28Z</time>
      </trkpt>
      <trkpt lat="44.56882" lon="6.21079">
        <ele>876</ele>
        <time>2016-05-05T01:18:28Z</time>
      </trkpt>
      <trkpt lat="44.56891" lon="6.21101">
        <ele>876</ele>
        <time>2016-05-05T01:20:28Z</time>
      </trkpt>
      <trkpt lat="44.56906" lon="6.21137">
        <ele>877</ele>
        <time>2016-05-05T01:22:28Z</time>
      </trkpt>
      <trkpt lat="44.56923" lon="6.21179">
        <ele>878</ele>
        <time>2016-05-05T01:24:28Z</time>
      </trkpt>
      <trkpt lat="44.56944" lon="6.21236">
        <ele>881</ele>
        <time>2016-05-05T01:26:28Z</time>
      </trkpt>
      <trkpt lat="44.56968" lon="6.21302">
        <ele>886</ele>
        <time>2016-05-05T01:28:28Z</time>
      </trkpt>
      <trkpt lat="44.56989" lon="6.21361">
        <ele>892</ele>
        <time>2016-05-05T01:30:28Z</time>
      </trkpt>
      <trkpt lat="44.57001" lon="6.214">
        <ele>897</ele>
        <time>2016-05-05T01:32:28Z</time>
      </trkpt>
      <trkpt lat="44.5701" lon="6.21435">
        <ele>899</ele>
        <time>2016-05-05T01:34:28Z</time>
      </trkpt>
      <trkpt lat="44.57015" lon="6.2147">
        <ele>901</ele>
        <time>2016-05-05T01:36:28Z</time>
      </trkpt>
      <trkpt lat="44.57018" lon="6.21511">
        <ele>902</ele>
        <time>2016-05-05T01:38:28Z</time>
      </trkpt>
      <trkpt lat="44.57018" lon="6.21598">
        <ele>904</ele>
        <time>2016-05-05T01:40:28Z</time>
      </trkpt>
      <trkpt lat="44.57018" lon="6.21609">
        <ele>904</ele>
        <time>2016-05-05T01:42:28Z</time>
      </trkpt>
      <trkpt lat="44.57018" lon="6.21638">
        <ele>905</ele>
        <time>2016-05-05T01:44:28Z</time>
      </trkpt>
      <trkpt lat="44.57017" lon="6.21663">
        <ele>905</ele>
        <time>2016-05-05T01:46:28Z</time>
      </trkpt>
      <trkpt lat="44.57017" lon="6.21693">
        <ele>907</ele>
        <time>2016-05-05T01:48:28Z</time>
      </trkpt>
      <trkpt lat="44.57017" lon="6.21725">
        <ele>908</ele>
        <time>2016-05-05T01:50:28Z</time>
      </trkpt>
      <trkpt lat="44.57017" lon="6.21729">
        <ele>909</ele>
        <time>2016-05-05T01:52:28Z</time>
      </trkpt>
      <trkpt lat="44.57021" lon="6.2176">
        <ele>911</ele>
        <time>2016-05-05T01:54:28Z</time>
      </trkpt>
      <trkpt lat="44.57027" lon="6.21795">
        <ele>913</ele>
        <time>2016-05-05T01:56:28Z</time>
      </trkpt>
      <trkpt lat="44.57037" lon="6.21831">
        <ele>916</ele>
        <time>2016-05-05T01:58:28Z</time>
      </trkpt>
      <trkpt lat="44.57038" lon="6.21834">
        <ele>917</ele>
        <time>2016-05-05T02:00:28Z</time>
      </trkpt>
      <trkpt lat="44.57048" lon="6.21857">
        <ele>919</ele>
        <time>2016-05-05T02:02:28Z</time>
      </trkpt>
      <trkpt lat="44.57059" lon="6.21879">
        <ele>921</ele>
        <time>2016-05-05T02:04:28Z</time>
      </trkpt>
      <trkpt lat="44.57068" lon="6.21896">
        <ele>923</ele>
        <time>2016-05-05T02:06:28Z</time>
      </trkpt>
      <trkpt lat="44.57119" lon="6.2197">
        <ele>931</ele>
        <time>2016-05-05T02:08:28Z</time>
      </trkpt>
      <trkpt lat="44.57141" lon="6.22">
        <ele>935</ele>
        <time>2016-05-05T02:10:28Z</time>
      </trkpt>
      <trkpt lat="44.57157" lon="6.22023">
        <ele>937</ele>
        <time>2016-05-05T02:12:28Z</time>
      </trkpt>
      <trkpt lat="44.57171" lon="6.22047">
        <ele>939</ele>
        <time>2016-05-05T02:14:28Z</time>
      </trkpt>
      <trkpt lat="44.5718" lon="6.22065">
        <ele>940</ele>
        <time>2016-05-05T02:16:28Z</time>
      </trkpt>
      <trkpt lat="44.57184" lon="6.22075">
        <ele>941</ele>
        <time>2016-05-05T02:18:28Z</time>
      </trkpt>
      <trkpt lat="44.57189" lon="6.22087">
        <ele>942</ele>
        <time>2016-05-05T02:20:28Z</time>
      </trkpt>
      <trkpt lat="44.57193" lon="6.221">
        <ele>942</ele>
        <time>2016-05-05T02:22:28Z</time>
      </trkpt>
      <trkpt lat="44.57197" lon="6.22112">
        <ele>943</ele>
        <time>2016-05-05T02:24:28Z</time>
      </trkpt>
      <trkpt lat="44.57201" lon="6.22126">
        <ele>944</ele>
        <time>2016-05-05T02:26:28Z</time>
      </trkpt>
      <trkpt lat="44.57204" lon="6.22139">
        <ele>945</ele>
        <time>2016-05-05T02:28:28Z</time>
      </trkpt>
      <trkpt lat="44.57215" lon="6.22216">
        <ele>948</ele>
        <time>2016-05-05T02:30:28Z</time>
      </trkpt>
      <trkpt lat="44.57222" lon="6.2226">
        <ele>951</ele>
        <time>2016-05-05T02:32:28Z</time>
      </trkpt>
      <trkpt lat="44.57226" lon="6.22283">
        <ele>952</ele>
        <time>2016-05-05T02:34:28Z</time>
      </trkpt>
      <trkpt lat="44.57228" lon="6.22291">
        <ele>953</ele>
        <time>2016-05-05T02:36:28Z</time>
      </trkpt>
      <trkpt lat="44.57232" lon="6.223">
        <ele>953</ele>
        <time>2016-05-05T02:38:28Z</time>
      </trkpt>
      <trkpt lat="44.57236" lon="6.2231">
        <ele>954</ele>
        <time>2016-05-05T02:40:28Z</time>
      </trkpt>
      <trkpt lat="44.5724" lon="6.22317">
        <ele>955</ele>
        <time>2016-05-05T02:42:28Z</time>
      </trkpt>
      <trkpt lat="44.57246" lon="6.22322">
        <ele>955</ele>
        <time>2016-05-05T02:44:28Z</time>
      </trkpt>
      <trkpt lat="44.57253" lon="6.22327">
        <ele>956</ele>
        <time>2016-05-05T02:46:28Z</time>
      </trkpt>
      <trkpt lat="44.57256" lon="6.22329">
        <ele>957</ele>
        <time>2016-05-05T02:48:28Z</time>
      </trkpt>
      <trkpt lat="44.57264" lon="6.22332">
        <ele>958</ele>
        <time>2016-05-05T02:50:28Z</time>
      </trkpt>
      <trkpt lat="44.57271" lon="6.22333">
        <ele>959</ele>
        <time>2016-05-05T02:52:28Z</time>
      </trkpt>
      <trkpt lat="44.57285" lon="6.22336">
        <ele>960</ele>
        <time>2016-05-05T02:54:28Z</time>
      </trkpt>
      <trkpt lat="44.57292" lon="6.22337">
        <ele>961</ele>
        <time>2016-05-05T02:56:28Z</time>
      </trkpt>
      <trkpt lat="44.57299" lon="6.22339">
        <ele>962</ele>
        <time>2016-05-05T02:58:28Z</time>
      </trkpt>
      <trkpt lat="44.57308" lon="6.22343">
        <ele>963</ele>
        <time>2016-05-05T03:00:28Z</time>
      </trkpt>
      <trkpt lat="44.57318" lon="6.22349">
        <ele>965</ele>
        <time>2016-05-05T03:02:28Z</time>
      </trkpt>
      <trkpt lat="44.5734" lon="6.22363">
        <ele>968</ele>
        <time>2016-05-05T03:04:28Z</time>
      </trkpt>
      <trkpt lat="44.57347" lon="6.22367">
        <ele>970</ele>
        <time>2016-05-05T03:06:28Z</time>
      </trkpt>
      <trkpt lat="44.5736" lon="6.22371">
        <ele>972</ele>
        <time>2016-05-05T03:08:28Z</time>
      </trkpt>
      <trkpt lat="44.57365" lon="6.22369">
        <ele>972</ele>
        <time>2016-05-05T03:10:28Z</time>
      </trkpt>
      <trkpt lat="44.57366" lon="6.22368">
        <ele>972</ele>
        <time>2016-05-05T03:12:28Z</time>
      </trkpt>
      <trkpt lat="44.57366" lon="6.22368">
        <ele>972</ele>
        <time>2016-05-05T03:14:28Z</time>
      </trkpt>
      <trkpt lat="44.57365" lon="6.22378">
        <ele>972</ele>
        <time>2016-05-05T03:16:28Z</time>
      </trkpt>
      <trkpt lat="44.57364" lon="6.22383">
        <ele>972</ele>
        <time>2016-05-05T03:18:28Z</time>
      </trkpt>
      <trkpt lat="44.57363" lon="6.22385">
        <ele>972</ele>
        <time>2016-05-05T03:20:28Z</time>
      </trkpt>
      <trkpt lat="44.57345" lon="6.22402">
        <ele>971</ele>
        <time>2016-05-05T03:22:28Z</time>
      </trkpt>
      <trkpt lat="44.57336" lon="6.22412">
        <ele>970</ele>
        <time>2016-05-05T03:24:28Z</time>
      </trkpt>
      <trkpt lat="44.57331" lon="6.2242">
        <ele>970</ele>
        <time>2016-05-05T03:26:28Z</time>
      </trkpt>
      <trkpt lat="44.57326" lon="6.22426">
        <ele>970</ele>
        <time>2016-05-05T03:28:28Z</time>
      </trkpt>
      <trkpt lat="44.57323" lon="6.22431">
        <ele>971</ele>
        <time>2016-05-05T03:30:28Z</time>
      </trkpt>
      <trkpt lat="44.57322" lon="6.22433">
        <ele>971</ele>
        <time>2016-05-05T03:32:28Z</time>
      </trkpt>
      <trkpt lat="44.57322" lon="6.22436">
        <ele>971</ele>
        <time>2016-05-05T03:34:28Z</time>
      </trkpt>
      <trkpt lat="44.57322" lon="6.22443">
        <ele>972</ele>
        <time>2016-05-05T03:36:28Z</time>
      </trkpt>
      <trkpt lat="44.57321" lon="6.22459">
        <ele>974</ele>
        <time>2016-05-05T03:38:28Z</time>
      </trkpt>
      <trkpt lat="44.57321" lon="6.22496">
        <ele>978</ele>
        <time>2016-05-05T03:40:28Z</time>
      </trkpt>
      <trkpt lat="44.5732" lon="6.22548">
        <ele>980</ele>
        <time>2016-05-05T03:42:28Z</time>
      </trkpt>
      <trkpt lat="44.57324" lon="6.22579">
        <ele>982</ele>
        <time>2016-05-05T03:44:28Z</time>
      </trkpt>
      <trkpt lat="44.57324" lon="6.22595">
        <ele>983</ele>
        <time>2016-05-05T03:46:28Z</time>
      </trkpt>
      <trkpt lat="44.57324" lon="6.22608">
        <ele>984</ele>
        <time>2016-05-05T03:48:28Z</time>
      </trkpt>
      <trkpt lat="44.57324" lon="6.22621">
        <ele>985</ele>
        <time>2016-05-05T03:50:28Z</time>
      </trkpt>
      <trkpt lat="44.57321" lon="6.22635">
        <ele>986</ele>
        <time>2016-05-05T03:52:28Z</time>
      </trkpt>
      <trkpt lat="44.57314" lon="6.22663">
        <ele>987</ele>
        <time>2016-05-05T03:54:28Z</time>
      </trkpt>
      <trkpt lat="44.57311" lon="6.22684">
        <ele>988</ele>
        <time>2016-05-05T03:56:28Z</time>
      </trkpt>
      <trkpt lat="44.5731" lon="6.22704">
        <ele>990</ele>
        <time>2016-05-05T03:58:28Z</time>
      </trkpt>
      <trkpt lat="44.57311" lon="6.22711">
        <ele>991</ele>
        <time>2016-05-05T04:00:28Z</time>
      </trkpt>
      <trkpt lat="44.57313" lon="6.2272">
        <ele>992</ele>
        <time>2016-05-05T04:02:28Z</time>
      </trkpt>
      <trkpt lat="44.57314" lon="6.22726">
        <ele>992</ele>
        <time>2016-05-05T04:04:28Z</time>
      </trkpt>
      <trkpt lat="44.57317" lon="6.22732">
        <ele>993</ele>
        <time>2016-05-05T04:06:28Z</time>
      </trkpt>
      <trkpt lat="44.57325" lon="6.22744">
        <ele>995</ele>
        <time>2016-05-05T04:08:28Z</time>
      </trkpt>
      <trkpt lat="44.57336" lon="6.22764">
        <ele>998</ele>
        <time>2016-05-05T04:10:28Z</time>
      </trkpt>
      <trkpt lat="44.57342" lon="6.22778">
        <ele>999</ele>
        <time>2016-05-05T04:12:28Z</time>
      </trkpt>
      <trkpt lat="44.57344" lon="6.22789">
        <ele>1000</ele>
        <time>2016-05-05T04:14:28Z</time>
      </trkpt>
      <trkpt lat="44.57346" lon="6.22799">
        <ele>1001</ele>
        <time>2016-05-05T04:16:28Z</time>
      </trkpt>
      <trkpt lat="44.57345" lon="6.22808">
        <ele>1001</ele>
        <time>2016-05-05T04:18:28Z</time>
      </trkpt>
      <trkpt lat="44.57344" lon="6.22817">
        <ele>1002</ele>
        <time>2016-05-05T04:20:28Z</time>
      </trkpt>
      <trkpt lat="44.57342" lon="6.22827">
        <ele>1002</ele>
        <time>2016-05-05T04:22:28Z</time>
      </trkpt>
      <trkpt lat="44.57339" lon="6.22835">
        <ele>1002</ele>
        <time>2016-05-05T04:24:28Z</time>
      </trkpt>
      <trkpt lat="44.57335" lon="6.22844">
        <ele>1002</ele>
        <time>2016-05-05T04:26:28Z</time>
      </trkpt>
      <trkpt lat="44.57325" lon="6.22865">
        <ele>1003</ele>
        <time>2016-05-05T04:28:28Z</time>
      </trkpt>
      <trkpt lat="44.57321" lon="6.22874">
        <ele>1004</ele>
        <time>2016-05-05T04:30:28Z</time>
      </trkpt>
      <trkpt lat="44.57306" lon="6.22935">
        <ele>1008</ele>
        <time>2016-05-05T04:32:28Z</time>
      </trkpt>
      <trkpt lat="44.57291" lon="6.22982">
        <ele>1009</ele>
        <time>2016-05-05T04:34:28Z</time>
      </trkpt>
      <trkpt lat="44.57288" lon="6.22992">
        <ele>1009</ele>
        <time>2016-05-05T04:36:28Z</time>
      </trkpt>
      <trkpt lat="44.57278" lon="6.23016">
        <ele>1010</ele>
        <time>2016-05-05T04:38:28Z</time>
      </trkpt>
      <trkpt lat="44.57268" lon="6.23036">
        <ele>1010</ele>
        <time>2016-05-05T04:40:28Z</time>
      </trkpt>
      <trkpt lat="44.57254" lon="6.23059">
        <ele>1010</ele>
        <time>2016-05-05T04:42:28Z</time>
      </trkpt>
      <trkpt lat="44.5725" lon="6.23065">
        <ele>1010</ele>
        <time>2016-05-05T04:44:28Z</time>
      </trkpt>
      <trkpt lat="44.57243" lon="6.23076">
        <ele>1011</ele>
        <time>2016-05-05T04:46:28Z</time>
      </trkpt>
      <trkpt lat="44.57238" lon="6.23084">
        <ele>1011</ele>
        <time>2016-05-05T04:48:28Z</time>
      </trkpt>
      <trkpt lat="44.57214" lon="6.23114">
        <ele>1011</ele>
        <time>2016-05-05T04:50:28Z</time>
      </trkpt>
      <trkpt lat="44.57203" lon="6.23128">
        <ele>1011</ele>
        <time>2016-05-05T04:52:28Z</time>
      </trkpt>
      <trkpt lat="44.57198" lon="6.23133">
        <ele>1011</ele>
        <time>2016-05-05T04:54:28Z</time>
      </trkpt>
      <trkpt lat="44.57183" lon="6.23143">
        <ele>1010</ele>
        <time>2016-05-05T04:56:28Z</time>
      </trkpt>
      <trkpt lat="44.57175" lon="6.2315">
        <ele>1010</ele>
        <time>2016-05-05T04:58:28Z</time>
      </trkpt>
      <trkpt lat="44.57168" lon="6.23157">
        <ele>1010</ele>
        <time>2016-05-05T05:00:28Z</time>
      </trkpt>
      <trkpt lat="44.57159" lon="6.23171">
        <ele>1009</ele>
        <time>2016-05-05T05:02:28Z</time>
      </trkpt>
      <trkpt lat="44.57145" lon="6.23205">
        <ele>1008</ele>
        <time>2016-05-05T05:04:28Z</time>
      </trkpt>
      <trkpt lat="44.57101" lon="6.2331">
        <ele>1007</ele>
        <time>2016-05-05T05:06:28Z</time>
      </trkpt>
      <trkpt lat="44.57096" lon="6.23326">
        <ele>1007</ele>
        <time>2016-05-05T05:08:28Z</time>
      </trkpt>
      <trkpt lat="44.57084" lon="6.23369">
        <ele>1008</ele>
        <time>2016-05-05T05:10:28Z</time>
      </trkpt>
      <trkpt lat="44.5708" lon="6.23377">
        <ele>1007</ele>
        <time>2016-05-05T05:12:28Z</time>
      </trkpt>
      <trkpt lat="44.57076" lon="6.23386">
        <ele>1007</ele>
        <time>2016-05-05T05:14:28Z</time>
      </trkpt>
      <trkpt lat="44.57069" lon="6.23399">
        <ele>1006</ele>
        <time>2016-05-05T05:16:28Z</time>
      </trkpt>
      <trkpt lat="44.57063" lon="6.23408">
        <ele>1005</ele>
        <time>2016-05-05T05:18:28Z</time>
      </trkpt>
      <trkpt lat="44.57057" lon="6.23416">
        <ele>1005</ele>
        <time>2016-05-05T05:20:28Z</time>
      </trkpt>
      <trkpt lat="44.57035" lon="6.2345">
        <ele>1001</ele>
        <time>2016-05-05T05:22:28Z</time>
      </trkpt>
      <trkpt lat="44.57031" lon="6.23458">
        <ele>1001</ele>
        <time>2016-05-05T05:24:28Z</time>
      </trkpt>
      <trkpt lat="44.57029" lon="6.23467">
        <ele>1001</ele>
        <time>2016-05-05T05:26:28Z</time>
      </trkpt>
      <trkpt lat="44.57026" lon="6.23478">
        <ele>1001</ele>
        <time>2016-05-05T05:28:28Z</time>
      </trkpt>
      <trkpt lat="44.57022" lon="6.2352">
        <ele>1002</ele>
        <time>2016-05-05T05:30:28Z</time>
      </trkpt>
      <trkpt lat="44.57021" lon="6.23553">
        <ele>1004</ele>
        <time>2016-05-05T05:32:28Z</time>
      </trkpt>
      <trkpt lat="44.57019" lon="6.23579">
        <ele>1005</ele>
        <time>2016-05-05T05:34:28Z</time>
      </trkpt>
      <trkpt lat="44.57016" lon="6.23592">
        <ele>1006</ele>
        <time>2016-05-05T05:36:28Z</time>
      </trkpt>
      <trkpt lat="44.5701" lon="6.23614">
        <ele>1006</ele>
        <time>2016-05-05T05:38:28Z</time>
      </trkpt>
      <trkpt lat="44.57005" lon="6.23635">
        <ele>1007</ele>
        <time>2016-05-05T05:40:28Z</time>
      </trkpt>
      <trkpt lat="44.57002" lon="6.2365">
        <ele>1007</ele>
        <time>2016-05-05T05:42:28Z</time>
      </trkpt>
      <trkpt lat="44.57" lon="6.23672">
        <ele>1008</ele>
        <time>2016-05-05T05:44:28Z</time>
      </trkpt>
      <trkpt lat="44.56999" lon="6.23735">
        <ele>1008</ele>
        <time>2016-05-05T05:46:28Z</time>
      </trkpt>
      <trkpt lat="44.56996" lon="6.23743">
        <ele>1007</ele>
        <time>2016-05-05T05:48:28Z</time>
      </trkpt>
      <trkpt lat="44.5699" lon="6.23758">
        <ele>1006</ele>
        <time>2016-05-05T05:50:28Z</time>
      </trkpt>
      <trkpt lat="44.56987" lon="6.23776">
        <ele>1004</ele>
        <time>2016-05-05T05:52:28Z</time>
      </trkpt>
      <trkpt lat="44.56987" lon="6.23795">
        <ele>1004</ele>
        <time>2016-05-05T05:54:28Z</time>
      </trkpt>
      <trkpt lat="44.56988" lon="6.23811">
        <ele>1003</ele>
        <time>2016-05-05T05:56:28Z</time>
      </trkpt>
      <trkpt lat="44.56993" lon="6.2383">
        <ele>1003</ele>
        <time>2016-05-05T05:58:28Z</time>
      </trkpt>
      <trkpt lat="44.57004" lon="6.23859">
        <ele>1004</ele>
        <time>2016-05-05T06:00:28Z</time>
      </trkpt>
      <trkpt lat="44.57007" lon="6.23873">
        <ele>1004</ele>
        <time>2016-05-05T06:02:28Z</time>
      </trkpt>
      <trkpt lat="44.57008" lon="6.23886">
        <ele>1004</ele>
        <time>2016-05-05T06:04:28Z</time>
      </trkpt>
      <trkpt lat="44.57009" lon="6.23909">
        <ele>1003</ele>
        <time>2016-05-05T06:06:28Z</time>
      </trkpt>
      <trkpt lat="44.57008" lon="6.23954">
        <ele>1002</ele>
        <time>2016-05-05T06:08:28Z</time>
      </trkpt>
      <trkpt lat="44.57009" lon="6.23983">
        <ele>1001</ele>
        <time>2016-05-05T06:10:28Z</time>
      </trkpt>
      <trkpt lat="44.57009" lon="6.24012">
        <ele>1000</ele>
        <time>2016-05-05T06:12:28Z</time>
      </trkpt>
      <trkpt lat="44.5701" lon="6.24021">
        <ele>1000</ele>
        <time>2016-05-05T06:14:28Z</time>
      </trkpt>
      <trkpt lat="44.57009" lon="6.24031">
        <ele>999</ele>
        <time>2016-05-05T06:16:28Z</time>
      </trkpt>
      <trkpt lat="44.57007" lon="6.24055">
        <ele>998</ele>
        <time>2016-05-05T06:18:28Z</time>
      </trkpt>
      <trkpt lat="44.57004" lon="6.24106">
        <ele>997</ele>
        <time>2016-05-05T06:20:28Z</time>
      </trkpt>
      <trkpt lat="44.57001" lon="6.24128">
        <ele>996</ele>
        <time>2016-05-05T06:22:28Z</time>
      </trkpt>
      <trkpt lat="44.56998" lon="6.24142">
        <ele>996</ele>
        <time>2016-05-05T06:24:28Z</time>
      </trkpt>
      <trkpt lat="44.56996" lon="6.24147">
        <ele>995</ele>
        <time>2016-05-05T06:26:28Z</time>
      </trkpt>
      <trkpt lat="44.56989" lon="6.24172">
        <ele>995</ele>
        <time>2016-05-05T06:28:28Z</time>
      </trkpt>
      <trkpt lat="44.56979" lon="6.24202">
        <ele>997</ele>
        <time>2016-05-05T06:30:28Z</time>
      </trkpt>
      <trkpt lat="44.56966" lon="6.24227">
        <ele>999</ele>
        <time>2016-05-05T06:32:28Z</time>
      </trkpt>
      <trkpt lat="44.56951" lon="6.24259">
        <ele>1001</ele>
        <time>2016-05-05T06:34:28Z</time>
      </trkpt>
      <trkpt lat="44.56938" lon="6.24283">
        <ele>1002</ele>
        <time>2016-05-05T06:36:28Z</time>
      </trkpt>
      <trkpt lat="44.56921" lon="6.24316">
        <ele>1002</ele>
        <time>2016-05-05T06:38:28Z</time>
      </trkpt>
      <trkpt lat="44.56913" lon="6.24327">
        <ele>1002</ele>
        <time>2016-05-05T06:40:28Z</time>
      </trkpt>
      <trkpt lat="44.56907" lon="6.24332">
        <ele>1003</ele>
        <time>2016-05-05T06:42:28Z</time>
      </trkpt>
      <trkpt lat="44.56896" lon="6.24336">
        <ele>1003</ele>
        <time>2016-05-05T06:44:28Z</time>
      </trkpt>
      <trkpt lat="44.56887" lon="6.2434">
        <ele>1003</ele>
        <time>2016-05-05T06:46:28Z</time>
      </trkpt>
      <trkpt lat="44.56885" lon="6.24341">
        <ele>1003</ele>
        <time>2016-05-05T06:48:28Z</time>
      </trkpt>
      <trkpt lat="44.5687" lon="6.24348">
        <ele>1002</ele>
        <time>2016-05-05T06:50:28Z</time>
      </trkpt>
      <trkpt lat="44.5686" lon="6.24354">
        <ele>1002</ele>
        <time>2016-05-05T06:52:28Z</time>
      </trkpt>
      <trkpt lat="44.56849" lon="6.24364">
        <ele>1002</ele>
        <time>2016-05-05T06:54:28Z</time>
      </trkpt>
      <trkpt lat="44.5683" lon="6.24385">
        <ele>1002</ele>
        <time>2016-05-05T06:56:28Z</time>
      </trkpt>
      <trkpt lat="44.56797" lon="6.2442">
        <ele>1000</ele>
        <time>2016-05-05T06:58:28Z</time>
      </trkpt>
      <trkpt lat="44.56787" lon="6.24433">
        <ele>999</ele>
        <time>2016-05-05T07:00:28Z</time>
      </trkpt>
      <trkpt lat="44.56777" lon="6.24447">
        <ele>998</ele>
        <time>2016-05-05T07:02:28Z</time>
      </trkpt>
      <trkpt lat="44.56765" lon="6.24465">
        <ele>996</ele>
        <time>2016-05-05T07:04:28Z</time>
      </trkpt>
      <trkpt lat="44.56753" lon="6.24481">
        <ele>995</ele>
        <time>2016-05-05T07:06:28Z</time>
      </trkpt>
      <trkpt lat="44.56739" lon="6.24505">
        <ele>994</ele>
        <time>2016-05-05T07:08:28Z</time>
      </trkpt>
      <trkpt lat="44.56729" lon="6.24518">
        <ele>995</ele>
        <time>2016-05-05T07:10:28Z</time>
      </trkpt>
      <trkpt lat="44.56721" lon="6.24526">
        <ele>995</ele>
        <time>2016-05-05T07:12:28Z</time>
      </trkpt>
      <trkpt lat="44.56719" lon="6.24527">
        <ele>995</ele>
        <time>2016-05-05T07:14:28Z</time>
      </trkpt>
      <trkpt lat="44.56717" lon="6.24528">
        <ele>995</ele>
        <time>2016-05-05T07:16:28Z</time>
      </trkpt>
      <trkpt lat="44.56706" lon="6.24532">
        <ele>995</ele>
        <time>2016-05-05T07:18:28Z</time>
      </trkpt>
      <trkpt lat="44.56681" lon="6.24548">
        <ele>994</ele>
        <time>2016-05-05T07:20:28Z</time>
      </trkpt>
      <trkpt lat="44.56643" lon="6.24574">
        <ele>992</ele>
        <time>2016-05-05T07:22:28Z</time>
      </trkpt>
      <trkpt lat="44.56631" lon="6.24581">
        <ele>991</ele>
        <time>2016-05-05T07:24:28Z</time>
      </trkpt>
      <trkpt lat="44.56613" lon="6.2459">
        <ele>991</ele>
        <time>2016-05-05T07:26:28Z</time>
      </trkpt>
      <trkpt lat="44.56593" lon="6.24599">
        <ele>990</ele>
        <time>2016-05-05T07:28:28Z</time>
      </trkpt>
      <trkpt lat="44.56555" lon="6.24613">
        <ele>989</ele>
        <time>2016-05-05T07:30:28Z</time>
      </trkpt>
      <trkpt lat="44.5653" lon="6.24622">
        <ele>987</ele>
        <time>2016-05-05T07:32:28Z</time>
      </trkpt>
      <trkpt lat="44.56508" lon="6.24632">
        <ele>986</ele>
        <time>2016-05-05T07:34:28Z</time>
      </trkpt>
      <trkpt lat="44.56483" lon="6.24646">
        <ele>986</ele>
        <time>2016-05-05T07:36:28Z</time>
      </trkpt>
      <trkpt lat="44.56463" lon="6.24661">
        <ele>986</ele>
        <time>2016-05-05T07:38:28Z</time>
      </trkpt>
      <trkpt lat="44.56437" lon="6.24679">
        <ele>985</ele>
        <time>2016-05-05T07:40:28Z</time>
      </trkpt>
      <trkpt lat="44.56401" lon="6.24707">
        <ele>985</ele>
        <time>2016-05-05T07:42:28Z</time>
      </trkpt>
      <trkpt lat="44.56398" lon="6.24709">
        <ele>985</ele>
        <time>2016-05-05T07:44:28Z</time>
      </trkpt>
      <trkpt lat="44.56391" lon="6.24713">
        <ele>985</ele>
        <time>2016-05-05T07:46:28Z</time>
      </trkpt>
      <trkpt lat="44.56382" lon="6.2472">
        <ele>985</ele>
        <time>2016-05-05T07:48:28Z</time>
      </trkpt>
      <trkpt lat="44.56364" lon="6.2473">
        <ele>984</ele>
        <time>2016-05-05T07:50:28Z</time>
      </trkpt>
      <trkpt lat="44.5635" lon="6.24739">
        <ele>983</ele>
        <time>2016-05-05T07:52:28Z</time>
      </trkpt>
      <trkpt lat="44.56339" lon="6.24747">
        <ele>982</ele>
        <time>2016-05-05T07:54:28Z</time>
      </trkpt>
      <trkpt lat="44.5633" lon="6.24755">
        <ele>980</ele>
        <time>2016-05-05T07:56:28Z</time>
      </trkpt>
      <trkpt lat="44.56319" lon="6.24762">
        <ele>979</ele>
        <time>2016-05-05T07:58:28Z</time>
      </trkpt>
      <trkpt lat="44.56309" lon="6.24766">
        <ele>977</ele>
        <time>2016-05-05T08:00:28Z</time>
      </trkpt>
      <trkpt lat="44.56297" lon="6.24771">
        <ele>975</ele>
        <time>2016-05-05T08:02:28Z</time>
      </trkpt>
      <trkpt lat="44.56289" lon="6.24775">
        <ele>974</ele>
        <time>2016-05-05T08:04:28Z</time>
      </trkpt>
      <trkpt lat="44.56278" lon="6.24782">
        <ele>972</ele>
        <time>2016-05-05T08:06:28Z</time>
      </trkpt>
      <trkpt lat="44.56272" lon="6.24787">
        <ele>971</ele>
        <time>2016-05-05T08:08:28Z</time>
      </trkpt>
      <trkpt lat="44.56269" lon="6.2479">
        <ele>971</ele>
        <time>2016-05-05T08:10:28Z</time>
      </trkpt>
      <trkpt lat="44.56261" lon="6.24797">
        <ele>970</ele>
        <time>2016-05-05T08:12:28Z</time>
      </trkpt>
      <trkpt lat="44.56254" lon="6.24805">
        <ele>969</ele>
        <time>2016-05-05T08:14:28Z</time>
      </trkpt>
      <trkpt lat="44.56249" lon="6.24813">
        <ele>968</ele>
        <time>2016-05-05T08:16:28Z</time>
      </trkpt>
      <trkpt lat="44.56246" lon="6.24827">
        <ele>967</ele>
        <time>2016-05-05T08:18:28Z</time>
      </trkpt>
      <trkpt lat="44.56244" lon="6.24845">
        <ele>967</ele>
        <time>2016-05-05T08:20:28Z</time>
      </trkpt>
      <trkpt lat="44.5624" lon="6.24859">
        <ele>967</ele>
        <time>2016-05-05T08:22:28Z</time>
      </trkpt>
      <trkpt lat="44.56234" lon="6.24873">
        <ele>966</ele>
        <time>2016-05-05T08:24:28Z</time>
      </trkpt>
      <trkpt lat="44.56232" lon="6.24876">
        <ele>965</ele>
        <time>2016-05-05T08:26:28Z</time>
      </trkpt>
      <trkpt lat="44.56228" lon="6.24888">
        <ele>965</ele>
        <time>2016-05-05T08:28:28Z</time>
      </trkpt>
      <trkpt lat="44.56223" lon="6.24903">
        <ele>964</ele>
        <time>2016-05-05T08:30:28Z</time>
      </trkpt>
      <trkpt lat="44.56222" lon="6.24908">
        <ele>964</ele>
        <time>2016-05-05T08:32:28Z</time>
      </trkpt>
      <trkpt lat="44.56217" lon="6.2493">
        <ele>964</ele>
        <time>2016-05-05T08:34:28Z</time>
      </trkpt>
      <trkpt lat="44.5621" lon="6.24951">
        <ele>964</ele>
        <time>2016-05-05T08:36:28Z</time>
      </trkpt>
      <trkpt lat="44.56206" lon="6.24959">
        <ele>963</ele>
        <time>2016-05-05T08:38:28Z</time>
      </trkpt>
      <trkpt lat="44.56203" lon="6.24966">
        <ele>963</ele>
        <time>2016-05-05T08:40:28Z</time>
      </trkpt>
      <trkpt lat="44.56196" lon="6.24978">
        <ele>962</ele>
        <time>2016-05-05T08:42:28Z</time>
      </trkpt>
      <trkpt lat="44.56193" lon="6.24983">
        <ele>962</ele>
        <time>2016-05-05T08:44:28Z</time>
      </trkpt>
      <trkpt lat="44.56179" lon="6.25007">
        <ele>961</ele>
        <time>2016-05-05T08:46:28Z</time>
      </trkpt>
      <trkpt lat="44.56168" lon="6.25025">
        <ele>959</ele>
        <time>2016-05-05T08:48:28Z</time>
      </trkpt>
      <trkpt lat="44.56163" lon="6.25031">
        <ele>959</ele>
        <time>2016-05-05T08:50:28Z</time>
      </trkpt>
      <trkpt lat="44.56154" lon="6.2504">
        <ele>957</ele>
        <time>2016-05-05T08:52:28Z</time>
      </trkpt>
      <trkpt lat="44.56147" lon="6.25044">
        <ele>955</ele>
        <time>2016-05-05T08:54:28Z</time>
      </trkpt>
      <trkpt lat="44.56143" lon="6.25047">
        <ele>955</ele>
        <time>2016-05-05T08:56:28Z</time>
      </trkpt>
      <trkpt lat="44.56138" lon="6.2505">
        <ele>954</ele>
        <time>2016-05-05T08:58:28Z</time>
      </trkpt>
      <trkpt lat="44.56136" lon="6.25051">
        <ele>953</ele>
        <time>2016-05-05T09:00:28Z</time>
      </trkpt>
      <trkpt lat="44.56125" lon="6.2506">
        <ele>951</ele>
        <time>2016-05-05T09:02:28Z</time>
      </trkpt>
      <trkpt lat="44.56113" lon="6.25075">
        <ele>950</ele>
        <time>2016-05-05T09:04:28Z</time>
      </trkpt>
      <trkpt lat="44.56101" lon="6.25092">
        <ele>948</ele>
        <time>2016-05-05T09:06:28Z</time>
      </trkpt>
      <trkpt lat="44.56091" lon="6.25107">
        <ele>946</ele>
        <time>2016-05-05T09:08:28Z</time>
      </trkpt>
      <trkpt lat="44.56084" lon="6.25123">
        <ele>945</ele>
        <time>2016-05-05T09:10:28Z</time>
      </trkpt>
      <trkpt lat="44.56079" lon="6.25135">
        <ele>944</ele>
        <time>2016-05-05T09:12:28Z</time>
      </trkpt>
      <trkpt lat="44.56079" lon="6.25135">
        <ele>944</ele>
        <time>2016-05-05T09:14:28Z</time>
      </trkpt>
      <trkpt lat="44.56076" lon="6.25142">
        <ele>944</ele>
        <time>2016-05-05T09:16:28Z</time>
      </trkpt>
      <trkpt lat="44.5607" lon="6.25157">
        <ele>943</ele>
        <time>2016-05-05T09:18:28Z</time>
      </trkpt>
      <trkpt lat="44.56067" lon="6.25171">
        <ele>942</ele>
        <time>2016-05-05T09:20:28Z</time>
      </trkpt>
      <trkpt lat="44.56066" lon="6.25188">
        <ele>942</ele>
        <time>2016-05-05T09:22:28Z</time>
      </trkpt>
      <trkpt lat="44.56068" lon="6.25203">
        <ele>942</ele>
        <time>2016-05-05T09:24:28Z</time>
      </trkpt>
      <trkpt lat="44.56071" lon="6.25213">
        <ele>943</ele>
        <time>2016-05-05T09:26:28Z</time>
      </trkpt>
      <trkpt lat="44.56074" lon="6.25222">
        <ele>943</ele>
        <time>2016-05-05T09:28:28Z</time>
      </trkpt>
      <trkpt lat="44.56074" lon="6.25231">
        <ele>943</ele>
        <time>2016-05-05T09:30:28Z</time>
      </trkpt>
      <trkpt lat="44.56073" lon="6.25237">
        <ele>943</ele>
        <time>2016-05-05T09:32:28Z</time>
      </trkpt>
      <trkpt lat="44.56069" lon="6.25243">
        <ele>942</ele>
        <time>2016-05-05T09:34:28Z</time>
      </trkpt>
      <trkpt lat="44.56063" lon="6.25245">
        <ele>941</ele>
        <time>2016-05-05T09:36:28Z</time>
      </trkpt>
      <trkpt lat="44.56044" lon="6.25249">
        <ele>939</ele>
        <time>2016-05-05T09:38:28Z</time>
      </trkpt>
      <trkpt lat="44.56013" lon="6.25256">
        <ele>935</ele>
        <time>2016-05-05T09:40:28Z</time>
      </trkpt>
      <trkpt lat="44.55996" lon="6.25263">
        <ele>933</ele>
        <time>2016-05-05T09:42:28Z</time>
      </trkpt>
      <trkpt lat="44.55987" lon="6.25267">
        <ele>933</ele>
        <time>2016-05-05T09:44:28Z</time>
      </trkpt>
      <trkpt lat="44.55981" lon="6.25269">
        <ele>932</ele>
        <time>2016-05-05T09:46:28Z</time>
      </trkpt>
      <trkpt lat="44.55976" lon="6.2527">
        <ele>932</ele>
        <time>2016-05-05T09:48:28Z</time>
      </trkpt>
      <trkpt lat="44.55959" lon="6.25272">
        <ele>931</ele>
        <time>2016-05-05T09:50:28Z</time>
      </trkpt>
      <trkpt lat="44.55952" lon="6.25275">
        <ele>930</ele>
        <time>2016-05-05T09:52:28Z</time>
      </trkpt>
      <trkpt lat="44.55946" lon="6.2528">
        <ele>930</ele>
        <time>2016-05-05T09:54:28Z</time>
      </trkpt>
      <trkpt lat="44.55943" lon="6.25287">
        <ele>930</ele>
        <time>2016-05-05T09:56:28Z</time>
      </trkpt>
      <trkpt lat="44.55941" lon="6.25295">
        <ele>930</ele>
        <time>2016-05-05T09:58:28Z</time>
      </trkpt>
      <trkpt lat="44.5594" lon="6.25304">
        <ele>930</ele>
        <time>2016-05-05T10:00:28Z</time>
      </trkpt>
      <trkpt lat="44.55939" lon="6.25308">
        <ele>930</ele>
        <time>2016-05-05T10:02:28Z</time>
      </trkpt>
      <trkpt lat="44.55938" lon="6.25312">
        <ele>930</ele>
        <time>2016-05-05T10:04:28Z</time>
      </trkpt>
      <trkpt lat="44.55935" lon="6.2532">
        <ele>930</ele>
        <time>2016-05-05T10:06:28Z</time>
      </trkpt>
      <trkpt lat="44.55932" lon="6.25327">
        <ele>930</ele>
        <time>2016-05-05T10:08:28Z</time>
      </trkpt>
      <trkpt lat="44.55924" lon="6.25335">
        <ele>930</ele>
        <time>2016-05-05T10:10:28Z</time>
      </trkpt>
      <trkpt lat="44.55914" lon="6.25343">
        <ele>929</ele>
        <time>2016-05-05T10:12:28Z</time>
      </trkpt>
      <trkpt lat="44.55908" lon="6.25351">
        <ele>928</ele>
        <time>2016-05-05T10:14:28Z</time>
      </trkpt>
      <trkpt lat="44.55901" lon="6.25357">
        <ele>927</ele>
        <time>2016-05-05T10:16:28Z</time>
      </trkpt>
      <trkpt lat="44.55893" lon="6.25365">
        <ele>926</ele>
        <time>2016-05-05T10:18:28Z</time>
      </trkpt>
      <trkpt lat="44.55886" lon="6.25375">
        <ele>926</ele>
        <time>2016-05-05T10:20:28Z</time>
      </trkpt>
      <trkpt lat="44.55874" lon="6.2539">
        <ele>924</ele>
        <time>2016-05-05T10:22:28Z</time>
      </trkpt>
      <trkpt lat="44.55867" lon="6.25399">
        <ele>923</ele>
        <time>2016-05-05T10:24:28Z</time>
      </trkpt>
      <trkpt lat="44.55863" lon="6.25407">
        <ele>923</ele>
        <time>2016-05-05T10:26:28Z</time>
      </trkpt>
      <trkpt lat="44.5586" lon="6.25418">
        <ele>922</ele>
        <time>2016-05-05T10:28:28Z</time>
      </trkpt>
      <trkpt lat="44.55854" lon="6.25435">
        <ele>921</ele>
        <time>2016-05-05T10:30:28Z</time>
      </trkpt>
      <trkpt lat="44.55848" lon="6.2545">
        <ele>921</ele>
        <time>2016-05-05T10:32:28Z</time>
      </trkpt>
      <trkpt lat="44.55844" lon="6.2546">
        <ele>920</ele>
        <time>2016-05-05T10:34:28Z</time>
      </trkpt>
      <trkpt lat="44.55841" lon="6.25476">
        <ele>920</ele>
        <time>2016-05-05T10:36:28Z</time>
      </trkpt>
      <trkpt lat="44.55836" lon="6.25497">
        <ele>919</ele>
        <time>2016-05-05T10:38:28Z</time>
      </trkpt>
      <trkpt lat="44.55827" lon="6.25526">
        <ele>918</ele>
        <time>2016-05-05T10:40:28Z</time>
      </trkpt>
      <trkpt lat="44.55821" lon="6.25542">
        <ele>917</ele>
        <time>2016-05-05T10:42:28Z</time>
      </trkpt>
      <trkpt lat="44.55813" lon="6.25565">
        <ele>915</ele>
        <time>2016-05-05T10:44:28Z</time>
      </trkpt>
      <trkpt lat="44.55804" lon="6.25589">
        <ele>914</ele>
        <time>2016-05-05T10:46:28Z</time>
      </trkpt>
      <trkpt lat="44.55797" lon="6.25602">
        <ele>913</ele>
        <time>2016-05-05T10:48:28Z</time>
      </trkpt>
      <trkpt lat="44.55787" lon="6.25615">
        <ele>912</ele>
        <time>2016-05-05T10:50:28Z</time>
      </trkpt>
      <trkpt lat="44.5577" lon="6.25634">
        <ele>910</ele>
        <time>2016-05-05T10:52:28Z</time>
      </trkpt>
      <trkpt lat="44.55763" lon="6.25643">
        <ele>909</ele>
        <time>2016-05-05T10:54:28Z</time>
      </trkpt>
      <trkpt lat="44.55758" lon="6.25651">
        <ele>909</ele>
        <time>2016-05-05T10:56:28Z</time>
      </trkpt>
      <trkpt lat="44.55742" lon="6.25676">
        <ele>907</ele>
        <time>2016-05-05T10:58:28Z</time>
      </trkpt>
      <trkpt lat="44.5573" lon="6.25696">
        <ele>906</ele>
        <time>2016-05-05T11:00:28Z</time>
      </trkpt>
      <trkpt lat="44.5572" lon="6.25713">
        <ele>905</ele>
        <time>2016-05-05T11:02:28Z</time>
      </trkpt>
      <trkpt lat="44.55711" lon="6.25732">
        <ele>904</ele>
        <time>2016-05-05T11:04:28Z</time>
      </trkpt>
      <trkpt lat="44.55701" lon="6.25748">
        <ele>904</ele>
        <time>2016-05-05T11:06:28Z</time>
      </trkpt>
      <trkpt lat="44.55695" lon="6.25762">
        <ele>903</ele>
        <time>2016-05-05T11:08:28Z</time>
      </trkpt>
      <trkpt lat="44.55689" lon="6.25776">
        <ele>903</ele>
        <time>2016-05-05T11:10:28Z</time>
      </trkpt>
      <trkpt lat="44.55685" lon="6.25787">
        <ele>902</ele>
        <time>2016-05-05T11:12:28Z</time>
      </trkpt>
      <trkpt lat="44.55682" lon="6.25797">
        <ele>902</ele>
        <time>2016-05-05T11:14:28Z</time>
      </trkpt>
      <trkpt lat="44.55681" lon="6.25806">
        <ele>902</ele>
        <time>2016-05-05T11:16:28Z</time>
      </trkpt>
      <trkpt lat="44.5568" lon="6.25815">
        <ele>902</ele>
        <time>2016-05-05T11:18:28Z</time>
      </trkpt>
      <trkpt lat="44.55679" lon="6.25822">
        <ele>902</ele>
        <time>2016-05-05T11:20:28Z</time>
      </trkpt>
      <trkpt lat="44.55677" lon="6.25827">
        <ele>902</ele>
        <time>2016-05-05T11:22:28Z</time>
      </trkpt>
      <trkpt lat="44.55674" lon="6.25829">
        <ele>901</ele>
        <time>2016-05-05T11:24:28Z</time>
      </trkpt>
      <trkpt lat="44.55674" lon="6.25829">
        <ele>901</ele>
        <time>2016-05-05T11:26:28Z</time>
      </trkpt>
      <trkpt lat="44.55674" lon="6.25834">
        <ele>901</ele>
        <time>2016-05-05T11:28:28Z</time>
      </trkpt>
      <trkpt lat="44.55669" lon="6.25852">
        <ele>900</ele>
        <time>2016-05-05T11:30:28Z</time>
      </trkpt>
      <trkpt lat="44.55658" lon="6.25881">
        <ele>899</ele>
        <time>2016-05-05T11:32:28Z</time>
      </trkpt>
      <trkpt lat="44.55645" lon="6.25905">
        <ele>897</ele>
        <time>2016-05-05T11:34:28Z</time>
      </trkpt>
      <trkpt lat="44.55635" lon="6.2592">
        <ele>896</ele>
        <time>2016-05-05T11:36:28Z</time>
      </trkpt>
      <trkpt lat="44.55632" lon="6.25923">
        <ele>896</ele>
        <time>2016-05-05T11:38:28Z</time>
      </trkpt>
      <trkpt lat="44.5563" lon="6.25925">
        <ele>896</ele>
        <time>2016-05-05T11:40:28Z</time>
      </trkpt>
      <trkpt lat="44.55623" lon="6.25931">
        <ele>895</ele>
        <time>2016-05-05T11:42:28Z</time>
      </trkpt>
      <trkpt lat="44.55603" lon="6.25941">
        <ele>894</ele>
        <time>2016-05-05T11:44:28Z</time>
      </trkpt>
      <trkpt lat="44.55595" lon="6.25948">
        <ele>893</ele>
        <time>2016-05-05T11:46:28Z</time>
      </trkpt>
      <trkpt lat="44.55579" lon="6.25961">
        <ele>892</ele>
        <time>2016-05-05T11:48:28Z</time>
      </trkpt>
      <trkpt lat="44.55565" lon="6.2597">
        <ele>890</ele>
        <time>2016-05-05T11:50:28Z</time>
      </trkpt>
      <trkpt lat="44.55558" lon="6.25974">
        <ele>890</ele>
        <time>2016-05-05T11:52:28Z</time>
      </trkpt>
      <trkpt lat="44.55546" lon="6.2598">
        <ele>888</ele>
        <time>2016-05-05T11:54:28Z</time>
      </trkpt>
      <trkpt lat="44.5554" lon="6.25985">
        <ele>888</ele>
        <time>2016-05-05T11:56:28Z</time>
      </trkpt>
      <trkpt lat="44.55535" lon="6.25991">
        <ele>888</ele>
        <time>2016-05-05T11:58:28Z</time>
      </trkpt>
      <trkpt lat="44.55523" lon="6.26005">
        <ele>886</ele>
        <time>2016-05-05T12:00:28Z</time>
      </trkpt>
      <trkpt lat="44.55509" lon="6.26028">
        <ele>885</ele>
        <time>2016-05-05T12:02:28Z</time>
      </trkpt>
      <trkpt lat="44.55498" lon="6.26046">
        <ele>883</ele>
        <time>2016-05-05T12:04:28Z</time>
      </trkpt>
      <trkpt lat="44.5549" lon="6.26057">
        <ele>882</ele>
        <time>2016-05-05T12:06:28Z</time>
      </trkpt>
      <trkpt lat="44.5548" lon="6.2607">
        <ele>882</ele>
        <time>2016-05-05T12:08:28Z</time>
      </trkpt>
      <trkpt lat="44.55467" lon="6.26093">
        <ele>880</ele>
        <time>2016-05-05T12:10:28Z</time>
      </trkpt>
      <trkpt lat="44.5546" lon="6.26105">
        <ele>880</ele>
        <time>2016-05-05T12:12:28Z</time>
      </trkpt>
      <trkpt lat="44.55451" lon="6.26114">
        <ele>879</ele>
        <time>2016-05-05T12:14:28Z</time>
      </trkpt>
      <trkpt lat="44.55439" lon="6.26124">
        <ele>878</ele>
        <time>2016-05-05T12:16:28Z</time>
      </trkpt>
      <trkpt lat="44.5543" lon="6.26133">
        <ele>877</ele>
        <time>2016-05-05T12:18:28Z</time>
      </trkpt>
      <trkpt lat="44.55428" lon="6.2614">
        <ele>877</ele>
        <time>2016-05-05T12:20:28Z</time>
      </trkpt>
      <trkpt lat="44.55425" lon="6.26151">
        <ele>876</ele>
        <time>2016-05-05T12:22:28Z</time>
      </trkpt>
      <trkpt lat="44.55423" lon="6.26192">
        <ele>874</ele>
        <time>2016-05-05T12:24:28Z</time>
      </trkpt>
      <trkpt lat="44.55421" lon="6.26225">
        <ele>873</ele>
        <time>2016-05-05T12:26:28Z</time>
      </trkpt>
      <trkpt lat="44.55421" lon="6.26314">
        <ele>871</ele>
        <time>2016-05-05T12:28:28Z</time>
      </trkpt>
      <trkpt lat="44.5542" lon="6.26343">
        <ele>871</ele>
        <time>2016-05-05T12:30:28Z</time>
      </trkpt>
      <trkpt lat="44.55418" lon="6.26385">
        <ele>872</ele>
        <time>2016-05-05T12:32:28Z</time>
      </trkpt>
      <trkpt lat="44.55415" lon="6.2642">
        <ele>873</ele>
        <time>2016-05-05T12:34:28Z</time>
      </trkpt>
      <trkpt lat="44.55412" lon="6.26439">
        <ele>872</ele>
        <time>2016-05-05T12:36:28Z</time>
      </trkpt>
      <trkpt lat="44.554" lon="6.26474">
        <ele>871</ele>
        <time>2016-05-05T12:38:28Z</time>
      </trkpt>
      <trkpt lat="44.55385" lon="6.26509">
        <ele>869</ele>
        <time>2016-05-05T12:40:28Z</time>
      </trkpt>
      <trkpt lat="44.55373" lon="6.26541">
        <ele>868</ele>
        <time>2016-05-05T12:42:28Z</time>
      </trkpt>
      <trkpt lat="44.55368" lon="6.26557">
        <ele>868</ele>
        <time>2016-05-05T12:44:28Z</time>
      </trkpt>
      <trkpt lat="44.55363" lon="6.26572">
        <ele>867</ele>
        <time>2016-05-05T12:46:28Z</time>
      </trkpt>
      <trkpt lat="44.55359" lon="6.2659">
        <ele>867</ele>
        <time>2016-05-05T12:48:28Z</time>
      </trkpt>
      <trkpt lat="44.55355" lon="6.26609">
        <ele>866</ele>
        <time>2016-05-05T12:50:28Z</time>
      </trkpt>
      <trkpt lat="44.55349" lon="6.26629">
        <ele>865</ele>
        <time>2016-05-05T12:52:28Z</time>
      </trkpt>
      <trkpt lat="44.55342" lon="6.26648">
        <ele>864</ele>
        <time>2016-05-05T12:54:28Z</time>
      </trkpt>
      <trkpt lat="44.55339" lon="6.26659">
        <ele>864</ele>
        <time>2016-05-05T12:56:28Z</time>
      </trkpt>
      <trkpt lat="44.55336" lon="6.26677">
        <ele>864</ele>
        <time>2016-05-05T12:58:28Z</time>
      </trkpt>
      <trkpt lat="44.55335" lon="6.267">
        <ele>864</ele>
        <time>2016-05-05T13:00:28Z</time>
      </trkpt>
      <trkpt lat="44.55335" lon="6.26725">
        <ele>865</ele>
        <time>2016-05-05T13:02:28Z</time>
      </trkpt>
      <trkpt lat="44.55334" lon="6.26775">
        <ele>865</ele>
        <time>2016-05-05T13:04:28Z</time>
      </trkpt>
      <trkpt lat="44.55334" lon="6.26797">
        <ele>865</ele>
        <time>2016-05-05T13:06:28Z</time>
      </trkpt>
      <trkpt lat="44.55333" lon="6.26819">
        <ele>865</ele>
        <time>2016-05-05T13:08:28Z</time>
      </trkpt>
      <trkpt lat="44.55328" lon="6.26876">
        <ele>866</ele>
        <time>2016-05-05T13:10:28Z</time>
      </trkpt>
      <trkpt lat="44.55325" lon="6.26922">
        <ele>867</ele>
        <time>2016-05-05T13:12:28Z</time>
      </trkpt>
      <trkpt lat="44.55324" lon="6.2694">
        <ele>868</ele>
        <time>2016-05-05T13:14:28Z</time>
      </trkpt>
      <trkpt lat="44.55322" lon="6.26947">
        <ele>868</ele>
        <time>2016-05-05T13:16:28Z</time>
      </trkpt>
      <trkpt lat="44.55322" lon="6.2695">
        <ele>868</ele>
        <time>2016-05-05T13:18:28Z</time>
      </trkpt>
      <trkpt lat="44.55317" lon="6.26968">
        <ele>868</ele>
        <time>2016-05-05T13:20:28Z</time>
      </trkpt>
      <trkpt lat="44.55311" lon="6.26983">
        <ele>868</ele>
        <time>2016-05-05T13:22:28Z</time>
      </trkpt>
      <trkpt lat="44.553" lon="6.27006">
        <ele>868</ele>
        <time>2016-05-05T13:24:28Z</time>
      </trkpt>
      <trkpt lat="44.55282" lon="6.27038">
        <ele>868</ele>
        <time>2016-05-05T13:26:28Z</time>
      </trkpt>
      <trkpt lat="44.55276" lon="6.27052">
        <ele>869</ele>
        <time>2016-05-05T13:28:28Z</time>
      </trkpt>
      <trkpt lat="44.5527" lon="6.27065">
        <ele>869</ele>
        <time>2016-05-05T13:30:28Z</time>
      </trkpt>
      <trkpt lat="44.5526" lon="6.27086">
        <ele>869</ele>
        <time>2016-05-05T13:32:28Z</time>
      </trkpt>
      <trkpt lat="44.55253" lon="6.27101">
        <ele>870</ele>
        <time>2016-05-05T13:34:28Z</time>
      </trkpt>
      <trkpt lat="44.55244" lon="6.27115">
        <ele>870</ele>
        <time>2016-05-05T13:36:28Z</time>
      </trkpt>
      <trkpt lat="44.55232" lon="6.27128">
        <ele>870</ele>
        <time>2016-05-05T13:38:28Z</time>
      </trkpt>
      <trkpt lat="44.55223" lon="6.27134">
        <ele>870</ele>
        <time>2016-05-05T13:40:28Z</time>
      </trkpt>
      <trkpt lat="44.55223" lon="6.27134">
        <ele>870</ele>
        <time>2016-05-05T13:42:28Z</time>
      </trkpt>
      <trkpt lat="44.55218" lon="6.27138">
        <ele>870</ele>
        <time>2016-05-05T13:44:28Z</time>
      </trkpt>
      <trkpt lat="44.55202" lon="6.27152">
        <ele>870</ele>
        <time>2016-05-05T13:46:28Z</time>
      </trkpt>
      <trkpt lat="44.5518" lon="6.27172">
        <ele>871</ele>
        <time>2016-05-05T13:48:28Z</time>
      </trkpt>
      <trkpt lat="44.55157" lon="6.27192">
        <ele>871</ele>
        <time>2016-05-05T13:50:28Z</time>
      </trkpt>
      <trkpt lat="44.55134" lon="6.27212">
        <ele>870</ele>
        <time>2016-05-05T13:52:28Z</time>
      </trkpt>
      <trkpt lat="44.551" lon="6.27242">
        <ele>871</ele>
        <time>2016-05-05T13:54:28Z</time>
      </trkpt>
      <trkpt lat="44.55094" lon="6.2725">
        <ele>871</ele>
        <time>2016-05-05T13:56:28Z</time>
      </trkpt>
      <trkpt lat="44.55086" lon="6.27261">
        <ele>871</ele>
        <time>2016-05-05T13:58:28Z</time>
      </trkpt>
      <trkpt lat="44.5507" lon="6.27285">
        <ele>872</ele>
        <time>2016-05-05T14:00:28Z</time>
      </trkpt>
      <trkpt lat="44.55058" lon="6.27307">
        <ele>873</ele>
        <time>2016-05-05T14:02:28Z</time>
      </trkpt>
      <trkpt lat="44.55038" lon="6.27344">
        <ele>874</ele>
        <time>2016-05-05T14:04:28Z</time>
      </trkpt>
      <trkpt lat="44.55038" lon="6.27344">
        <ele>874</ele>
        <time>2016-05-05T14:06:28Z</time>
      </trkpt>
      <trkpt lat="44.55038" lon="6.27346">
        <ele>874</ele>
        <time>2016-05-05T14:08:28Z</time>
      </trkpt>
      <trkpt lat="44.55024" lon="6.27372">
        <ele>875</ele>
        <time>2016-05-05T14:10:28Z</time>
      </trkpt>
      <trkpt lat="44.55017" lon="6.27384">
        <ele>875</ele>
        <time>2016-05-05T14:12:28Z</time>
      </trkpt>
      <trkpt lat="44.55008" lon="6.27397">
        <ele>875</ele>
        <time>2016-05-05T14:14:28Z</time>
      </trkpt>
      <trkpt lat="44.55007" lon="6.27398">
        <ele>875</ele>
        <time>2016-05-05T14:16:28Z</time>
      </trkpt>
      <trkpt lat="44.54996" lon="6.27411">
        <ele>876</ele>
        <time>2016-05-05T14:18:28Z</time>
      </trkpt>
      <trkpt lat="44.54994" lon="6.27414">
        <ele>876</ele>
        <time>2016-05-05T14:20:28Z</time>
      </trkpt>
      <trkpt lat="44.54982" lon="6.2743">
        <ele>875</ele>
        <time>2016-05-05T14:22:28Z</time>
      </trkpt>
      <trkpt lat="44.54967" lon="6.27455">
        <ele>876</ele>
        <time>2016-05-05T14:24:28Z</time>
      </trkpt>
      <trkpt lat="44.5494" lon="6.27496">
        <ele>876</ele>
        <time>2016-05-05T14:26:28Z</time>
      </trkpt>
      <trkpt lat="44.54939" lon="6.27498">
        <ele>876</ele>
        <time>2016-05-05T14:28:28Z</time>
      </trkpt>
      <trkpt lat="44.5492" lon="6.27522">
        <ele>876</ele>
        <time>2016-05-05T14:30:28Z</time>
      </trkpt>
      <trkpt lat="44.54903" lon="6.27546">
        <ele>876</ele>
        <time>2016-05-05T14:32:28Z</time>
      </trkpt>
      <trkpt lat="44.5489" lon="6.27565">
        <ele>876</ele>
        <time>2016-05-05T14:34:28Z</time>
      </trkpt>
      <trkpt lat="44.54874" lon="6.27592">
        <ele>876</ele>
        <time>2016-05-05T14:36:28Z</time>
      </trkpt>
      <trkpt lat="44.54853" lon="6.2763">
        <ele>876</ele>
        <time>2016-05-05T14:38:28Z</time>
      </trkpt>
      <trkpt lat="44.5484" lon="6.27651">
        <ele>876</ele>
        <time>2016-05-05T14:40:28Z</time>
      </trkpt>
      <trkpt lat="44.54836" lon="6.27657">
        <ele>876</ele>
        <time>2016-05-05T14:42:28Z</time>
      </trkpt>
      <trkpt lat="44.54832" lon="6.27665">
        <ele>876</ele>
        <time>2016-05-05T14:44:28Z</time>
      </trkpt>
      <trkpt lat="44.54831" lon="6.27667">
        <ele>876</ele>
        <time>2016-05-05T14:46:28Z</time>
      </trkpt>
      <trkpt lat="44.5482" lon="6.27684">
        <ele>876</ele>
        <time>2016-05-05T14:48:28Z</time>
      </trkpt>
      <trkpt lat="44.5482" lon="6.27684">
        <ele>876</ele>
        <time>2016-05-05T14:50:28Z</time>
      </trkpt>
      <trkpt lat="44.548" lon="6.27667">
        <ele>874</ele>
        <time>2016-05-05T14:52:28Z</time>
      </trkpt>
      <trkpt lat="44.54775" lon="6.27647">
        <ele>873</ele>
        <time>2016-05-05T14:54:28Z</time>
      </trkpt>
      <trkpt lat="44.54758" lon="6.27634">
        <ele>872</ele>
        <time>2016-05-05T14:56:28Z</time>
      </trkpt>
      <trkpt lat="44.54747" lon="6.27626">
        <ele>871</ele>
        <time>2016-05-05T14:58:28Z</time>
      </trkpt>
      <trkpt lat="44.5473" lon="6.27614">
        <ele>870</ele>
        <time>2016-05-05T15:00:28Z</time>
      </trkpt>
      <trkpt lat="44.54715" lon="6.27608">
        <ele>870</ele>
        <time>2016-05-05T15:02:28Z</time>
      </trkpt>
      <trkpt lat="44.54695" lon="6.276">
        <ele>869</ele>
        <time>2016-05-05T15:04:28Z</time>
      </trkpt>
      <trkpt lat="44.54689" lon="6.27597">
        <ele>869</ele>
        <time>2016-05-05T15:06:28Z</time>
      </trkpt>
      <trkpt lat="44.54688" lon="6.27596">
        <ele>869</ele>
        <time>2016-05-05T15:08:28Z</time>
      </trkpt>
      <trkpt lat="44.5468" lon="6.27588">
        <ele>868</ele>
        <time>2016-05-05T15:10:28Z</time>
      </trkpt>
      <trkpt lat="44.54653" lon="6.27562">
        <ele>868</ele>
        <time>2016-05-05T15:12:28Z</time>
      </trkpt>
      <trkpt lat="44.54625" lon="6.27535">
        <ele>867</ele>
        <time>2016-05-05T15:14:28Z</time>
      </trkpt>
      <trkpt lat="44.54605" lon="6.27516">
        <ele>867</ele>
        <time>2016-05-05T15:16:28Z</time>
      </trkpt>
      <trkpt lat="44.54594" lon="6.27506">
        <ele>867</ele>
        <time>2016-05-05T15:18:28Z</time>
      </trkpt>
      <trkpt lat="44.54588" lon="6.27496">
        <ele>867</ele>
        <time>2016-05-05T15:20:28Z</time>
      </trkpt>
      <trkpt lat="44.54569" lon="6.27478">
        <ele>866</ele>
        <time>2016-05-05T15:22:28Z</time>
      </trkpt>
      <trkpt lat="44.54569" lon="6.27478">
        <ele>866</ele>
        <time>2016-05-05T15:24:28Z</time>
      </trkpt>
      <trkpt lat="44.54547" lon="6.27466">
        <ele>866</ele>
        <time>2016-05-05T15:26:28Z</time>
      </trkpt>
      <trkpt lat="44.54536" lon="6.27462">
        <ele>866</ele>
        <time>2016-05-05T15:28:28Z</time>
      </trkpt>
      <trkpt lat="44.54529" lon="6.27459">
        <ele>866</ele>
        <time>2016-05-05T15:30:28Z</time>
      </trkpt>
      <trkpt lat="44.54523" lon="6.27458">
        <ele>866</ele>
        <time>2016-05-05T15:32:28Z</time>
      </trkpt>
      <trkpt lat="44.54518" lon="6.27459">
        <ele>866</ele>
        <time>2016-05-05T15:34:28Z</time>
      </trkpt>
      <trkpt lat="44.54509" lon="6.27465">
        <ele>867</ele>
        <time>2016-05-05T15:36:28Z</time>
      </trkpt>
      <trkpt lat="44.54494" lon="6.27477">
        <ele>867</ele>
        <time>2016-05-05T15:38:28Z</time>
      </trkpt>
      <trkpt lat="44.54486" lon="6.27484">
        <ele>868</ele>
        <time>2016-05-05T15:40:28Z</time>
      </trkpt>
      <trkpt lat="44.54479" lon="6.27488">
        <ele>867</ele>
        <time>2016-05-05T15:42:28Z</time>
      </trkpt>
      <trkpt lat="44.54466" lon="6.27496">
        <ele>867</ele>
        <time>2016-05-05T15:44:28Z</time>
      </trkpt>
      <trkpt lat="44.54453" lon="6.27505">
        <ele>867</ele>
        <time>2016-05-05T15:46:28Z</time>
      </trkpt>
      <trkpt lat="44.54442" lon="6.27514">
        <ele>867</ele>
        <time>2016-05-05T15:48:28Z</time>
      </trkpt>
      <trkpt lat="44.54436" lon="6.27521">
        <ele>867</ele>
        <time>2016-05-05T15:50:28Z</time>
      </trkpt>
      <trkpt lat="44.54429" lon="6.2753">
        <ele>867</ele>
        <time>2016-05-05T15:52:28Z</time>
      </trkpt>
      <trkpt lat="44.54425" lon="6.2754">
        <ele>867</ele>
        <time>2016-05-05T15:54:28Z</time>
      </trkpt>
      <trkpt lat="44.5442" lon="6.27555">
        <ele>868</ele>
        <time>2016-05-05T15:56:28Z</time>
      </trkpt>
      <trkpt lat="44.54416" lon="6.27568">
        <ele>868</ele>
        <time>2016-05-05T15:58:28Z</time>
      </trkpt>
      <trkpt lat="44.54401" lon="6.27608">
        <ele>867</ele>
        <time>2016-05-05T16:00:28Z</time>
      </trkpt>
      <trkpt lat="44.54396" lon="6.2762">
        <ele>866</ele>
        <time>2016-05-05T16:02:28Z</time>
      </trkpt>
      <trkpt lat="44.54393" lon="6.27627">
        <ele>865</ele>
        <time>2016-05-05T16:04:28Z</time>
      </trkpt>
      <trkpt lat="44.54393" lon="6.27627">
        <ele>865</ele>
        <time>2016-05-05T16:06:28Z</time>
      </trkpt>
      <trkpt lat="44.54389" lon="6.27621">
        <ele>865</ele>
        <time>2016-05-05T16:08:28Z</time>
      </trkpt>
      <trkpt lat="44.54383" lon="6.27612">
        <ele>864</ele>
        <time>2016-05-05T16:10:28Z</time>
      </trkpt>
      <trkpt lat="44.54377" lon="6.27608">
        <ele>864</ele>
        <time>2016-05-05T16:12:28Z</time>
      </trkpt>
      <trkpt lat="44.5436" lon="6.27597">
        <ele>862</ele>
        <time>2016-05-05T16:14:28Z</time>
      </trkpt>
      <trkpt lat="44.54346" lon="6.27587">
        <ele>860</ele>
        <time>2016-05-05T16:16:28Z</time>
      </trkpt>
      <trkpt lat="44.54333" lon="6.2758">
        <ele>859</ele>
        <time>2016-05-05T16:18:28Z</time>
      </trkpt>
      <trkpt lat="44.54321" lon="6.27574">
        <ele>858</ele>
        <time>2016-05-05T16:20:28Z</time>
      </trkpt>
      <trkpt lat="44.54309" lon="6.27567">
        <ele>858</ele>
        <time>2016-05-05T16:22:28Z</time>
      </trkpt>
      <trkpt lat="44.54305" lon="6.27566">
        <ele>858</ele>
        <time>2016-05-05T16:24:28Z</time>
      </trkpt>
      <trkpt lat="44.543" lon="6.27566">
        <ele>858</ele>
        <time>2016-05-05T16:26:28Z</time>
      </trkpt>
      <trkpt lat="44.54295" lon="6.27569">
        <ele>857</ele>
        <time>2016-05-05T16:28:28Z</time>
      </trkpt>
      <trkpt lat="44.54281" lon="6.27588">
        <ele>856</ele>
        <time>2016-05-05T16:30:28Z</time>
      </trkpt>
      <trkpt lat="44.54266" lon="6.27605">
        <ele>855</ele>
        <time>2016-05-05T16:32:28Z</time>
      </trkpt>
      <trkpt lat="44.54253" lon="6.2762">
        <ele>854</ele>
        <time>2016-05-05T16:34:28Z</time>
      </trkpt>
      <trkpt lat="44.54246" lon="6.27629">
        <ele>854</ele>
        <time>2016-05-05T16:36:28Z</time>
      </trkpt>
      <trkpt lat="44.5424" lon="6.27639">
        <ele>854</ele>
        <time>2016-05-05T16:38:28Z</time>
      </trkpt>
      <trkpt lat="44.54234" lon="6.27649">
        <ele>853</ele>
        <time>2016-05-05T16:40:28Z</time>
      </trkpt>
      <trkpt lat="44.5423" lon="6.27653">
        <ele>853</ele>
        <time>2016-05-05T16:42:28Z</time>
      </trkpt>
      <trkpt lat="44.54228" lon="6.27654">
        <ele>853</ele>
        <time>2016-05-05T16:44:28Z</time>
      </trkpt>
      <trkpt lat="44.54222" lon="6.27653">
        <ele>853</ele>
        <time>2016-05-05T16:46:28Z</time>
      </trkpt>
      <trkpt lat="44.54216" lon="6.27646">
        <ele>853</ele>
        <time>2016-05-05T16:48:28Z</time>
      </trkpt>
      <trkpt lat="44.5421" lon="6.27639">
        <ele>854</ele>
        <time>2016-05-05T16:50:28Z</time>
      </trkpt>
      <trkpt lat="44.54205" lon="6.27631">
        <ele>854</ele>
        <time>2016-05-05T16:52:28Z</time>
      </trkpt>
      <trkpt lat="44.54199" lon="6.27624">
        <ele>854</ele>
        <time>2016-05-05T16:54:28Z</time>
      </trkpt>
      <trkpt lat="44.54199" lon="6.27624">
        <ele>854</ele>
        <time>2016-05-05T16:56:28Z</time>
      </trkpt>
      <trkpt lat="44.54201" lon="6.27621">
        <ele>854</ele>
        <time>2016-05-05T16:58:28Z</time>
      </trkpt>
      <trkpt lat="44.54217" lon="6.27604">
        <ele>855</ele>
        <time>2016-05-05T17:00:28Z</time>
      </trkpt>
      <trkpt lat="44.54233" lon="6.27589">
        <ele>855</ele>
        <time>2016-05-05T17:02:28Z</time>
      </trkpt>
      <trkpt lat="44.54245" lon="6.27577">
        <ele>855</ele>
        <time>2016-05-05T17:04:28Z</time>
      </trkpt>
      <trkpt lat="44.54252" lon="6.27568">
        <ele>856</ele>
        <time>2016-05-05T17:06:28Z</time>
      </trkpt>
      <trkpt lat="44.54256" lon="6.27561">
        <ele>856</ele>
        <time>2016-05-05T17:08:28Z</time>
      </trkpt>
      <trkpt lat="44.54256" lon="6.2756">
        <ele>856</ele>
        <time>2016-05-05T17:10:28Z</time>
      </trkpt>
      <trkpt lat="44.54259" lon="6.27554">
        <ele>857</ele>
        <time>2016-05-05T17:12:28Z</time>
      </trkpt>
      <trkpt lat="44.54259" lon="6.27548">
        <ele>857</ele>
        <time>2016-05-05T17:14:28Z</time>
      </trkpt>
      <trkpt lat="44.54259" lon="6.27539">
        <ele>857</ele>
        <time>2016-05-05T17:16:28Z</time>
      </trkpt>
      <trkpt lat="44.54258" lon="6.27536">
        <ele>857</ele>
        <time>2016-05-05T17:18:28Z</time>
      </trkpt>
      <trkpt lat="44.54257" lon="6.27535">
        <ele>857</ele>
        <time>2016-05-05T17:20:28Z</time>
      </trkpt>
      <trkpt lat="44.54255" lon="6.27534">
        <ele>857</ele>
        <time>2016-05-05T17:22:28Z</time>
      </trkpt>
      <trkpt lat="44.54252" lon="6.27531">
        <ele>858</ele>
        <time>2016-05-05T17:24:28Z</time>
      </trkpt>
      <trkpt lat="44.5425" lon="6.2753">
        <ele>858</ele>
        <time>2016-05-05T17:26:28Z</time>
      </trkpt>
      <trkpt lat="44.54243" lon="6.27524">
        <ele>858</ele>
        <time>2016-05-05T17:28:28Z</time>
      </trkpt>
      <trkpt lat="44.5423" lon="6.27515">
        <ele>859</ele>
        <time>2016-05-05T17:30:28Z</time>
      </trkpt>
      <trkpt lat="44.54219" lon="6.27507">
        <ele>859</ele>
        <time>2016-05-05T17:32:28Z</time>
      </trkpt>
      <trkpt lat="44.54207" lon="6.27496">
        <ele>860</ele>
        <time>2016-05-05T17:34:28Z</time>
      </trkpt>
      <trkpt lat="44.54196" lon="6.27485">
        <ele>861</ele>
        <time>2016-05-05T17:36:28Z</time>
      </trkpt>
      <trkpt lat="44.5419" lon="6.27475">
        <ele>861</ele>
        <time>2016-05-05T17:38:28Z</time>
      </trkpt>
      <trkpt lat="44.54185" lon="6.27466">
        <ele>861</ele>
        <time>2016-05-05T17:40:28Z</time>
      </trkpt>
      <trkpt lat="44.54178" lon="6.27454">
        <ele>862</ele>
        <time>2016-05-05T17:42:28Z</time>
      </trkpt>
      <trkpt lat="44.54172" lon="6.27449">
        <ele>862</ele>
        <time>2016-05-05T17:44:28Z</time>
      </trkpt>
      <trkpt lat="44.54165" lon="6.27444">
        <ele>862</ele>
        <time>2016-05-05T17:46:28Z</time>
      </trkpt>
      <trkpt lat="44.54156" lon="6.27441">
        <ele>863</ele>
        <time>2016-05-05T17:48:28Z</time>
      </trkpt>
      <trkpt lat="44.54147" lon="6.2744">
        <ele>864</ele>
        <time>2016-05-05T17:50:28Z</time>
      </trkpt>
      <trkpt lat="44.54135" lon="6.27441">
        <ele>865</ele>
        <time>2016-05-05T17:52:28Z</time>
      </trkpt>
      <trkpt lat="44.54117" lon="6.27445">
        <ele>866</ele>
        <time>2016-05-05T17:54:28Z</time>
      </trkpt>
      <trkpt lat="44.541" lon="6.27451">
        <ele>867</ele>
        <time>2016-05-05T17:56:28Z</time>
      </trkpt>
      <trkpt lat="44.54078" lon="6.27459">
        <ele>868</ele>
        <time>2016-05-05T17:58:28Z</time>
      </trkpt>
      <trkpt lat="44.5406" lon="6.27468">
        <ele>868</ele>
        <time>2016-05-05T18:00:28Z</time>
      </trkpt>
      <trkpt lat="44.54048" lon="6.27475">
        <ele>868</ele>
        <time>2016-05-05T18:02:28Z</time>
      </trkpt>
      <trkpt lat="44.54041" lon="6.27478">
        <ele>868</ele>
        <time>2016-05-05T18:04:28Z</time>
      </trkpt>
      <trkpt lat="44.54036" lon="6.27481">
        <ele>868</ele>
        <time>2016-05-05T18:06:28Z</time>
      </trkpt>
      <trkpt lat="44.54033" lon="6.27482">
        <ele>868</ele>
        <time>2016-05-05T18:08:28Z</time>
      </trkpt>
      <trkpt lat="44.54024" lon="6.27481">
        <ele>868</ele>
        <time>2016-05-05T18:10:28Z</time>
      </trkpt>
      <trkpt lat="44.54006" lon="6.27474">
        <ele>868</ele>
        <time>2016-05-05T18:12:28Z</time>
      </trkpt>
      <trkpt lat="44.53978" lon="6.27462">
        <ele>869</ele>
        <time>2016-05-05T18:14:28Z</time>
      </trkpt>
      <trkpt lat="44.53971" lon="6.27459">
        <ele>869</ele>
        <time>2016-05-05T18:16:28Z</time>
      </trkpt>
      <trkpt lat="44.53963" lon="6.27458">
        <ele>869</ele>
        <time>2016-05-05T18:18:28Z</time>
      </trkpt>
      <trkpt lat="44.53953" lon="6.27457">
        <ele>869</ele>
        <time>2016-05-05T18:20:28Z</time>
      </trkpt>
      <trkpt lat="44.53934" lon="6.27455">
        <ele>870</ele>
        <time>2016-05-05T18:22:28Z</time>
      </trkpt>
      <trkpt lat="44.53917" lon="6.27453">
        <ele>870</ele>
        <time>2016-05-05T18:24:28Z</time>
      </trkpt>
      <trkpt lat="44.53905" lon="6.2745">
        <ele>870</ele>
        <time>2016-05-05T18:26:28Z</time>
      </trkpt>
      <trkpt lat="44.53896" lon="6.27447">
        <ele>871</ele>
        <time>2016-05-05T18:28:28Z</time>
      </trkpt>
      <trkpt lat="44.53875" lon="6.27441">
        <ele>871</ele>
        <time>2016-05-05T18:30:28Z</time>
      </trkpt>
      <trkpt lat="44.53869" lon="6.27439">
        <ele>871</ele>
        <time>2016-05-05T18:32:28Z</time>
      </trkpt>
      <trkpt lat="44.53852" lon="6.27437">
        <ele>871</ele>
        <time>2016-05-05T18:34:28Z</time>
      </trkpt>
      <trkpt lat="44.53843" lon="6.27438">
        <ele>871</ele>
        <time>2016-05-05T18:36:28Z</time>
      </trkpt>
      <trkpt lat="44.53829" lon="6.27439">
        <ele>872</ele>
        <time>2016-05-05T18:38:28Z</time>
      </trkpt>
      <trkpt lat="44.5381" lon="6.27443">
        <ele>872</ele>
        <time>2016-05-05T18:40:28Z</time>
      </trkpt>
      <trkpt lat="44.53798" lon="6.27446">
        <ele>872</ele>
        <time>2016-05-05T18:42:28Z</time>
      </trkpt>
      <trkpt lat="44.53789" lon="6.27448">
        <ele>872</ele>
        <time>2016-05-05T18:44:28Z</time>
      </trkpt>
      <trkpt lat="44.53776" lon="6.27449">
        <ele>872</ele>
        <time>2016-05-05T18:46:28Z</time>
      </trkpt>
      <trkpt lat="44.5375" lon="6.27448">
        <ele>872</ele>
        <time>2016-05-05T18:48:28Z</time>
      </trkpt>
      <trkpt lat="44.53728" lon="6.27448">
        <ele>874</ele>
        <time>2016-05-05T18:50:28Z</time>
      </trkpt>
      <trkpt lat="44.53718" lon="6.27448">
        <ele>875</ele>
        <time>2016-05-05T18:52:28Z</time>
      </trkpt>
      <trkpt lat="44.53694" lon="6.27441">
        <ele>876</ele>
        <time>2016-05-05T18:54:28Z</time>
      </trkpt>
      <trkpt lat="44.53664" lon="6.27431">
        <ele>879</ele>
        <time>2016-05-05T18:56:28Z</time>
      </trkpt>
      <trkpt lat="44.53645" lon="6.27426">
        <ele>880</ele>
        <time>2016-05-05T18:58:28Z</time>
      </trkpt>
      <trkpt lat="44.53616" lon="6.27419">
        <ele>883</ele>
        <time>2016-05-05T19:00:28Z</time>
      </trkpt>
      <trkpt lat="44.53602" lon="6.27416">
        <ele>884</ele>
        <time>2016-05-05T19:02:28Z</time>
      </trkpt>
      <trkpt lat="44.53587" lon="6.27412">
        <ele>886</ele>
        <time>2016-05-05T19:04:28Z</time>
      </trkpt>
      <trkpt lat="44.5358" lon="6.27411">
        <ele>887</ele>
        <time>2016-05-05T19:06:28Z</time>
      </trkpt>
      <trkpt lat="44.53566" lon="6.27411">
        <ele>890</ele>
        <time>2016-05-05T19:08:28Z</time>
      </trkpt>
      <trkpt lat="44.53556" lon="6.27413">
        <ele>892</ele>
        <time>2016-05-05T19:10:28Z</time>
      </trkpt>
      <trkpt lat="44.53546" lon="6.27417">
        <ele>893</ele>
        <time>2016-05-05T19:12:28Z</time>
      </trkpt>
      <trkpt lat="44.53532" lon="6.27428">
        <ele>895</ele>
        <time>2016-05-05T19:14:28Z</time>
      </trkpt>
      <trkpt lat="44.53515" lon="6.27442">
        <ele>898</ele>
        <time>2016-05-05T19:16:28Z</time>
      </trkpt>
      <trkpt lat="44.53499" lon="6.27453">
        <ele>900</ele>
        <time>2016-05-05T19:18:28Z</time>
      </trkpt>
      <trkpt lat="44.53481" lon="6.27465">
        <ele>901</ele>
        <time>2016-05-05T19:20:28Z</time>
      </trkpt>
      <trkpt lat="44.53463" lon="6.27477">
        <ele>902</ele>
        <time>2016-05-05T19:22:28Z</time>
      </trkpt>
      <trkpt lat="44.53446" lon="6.27487">
        <ele>902</ele>
        <time>2016-05-05T19:24:28Z</time>
      </trkpt>
      <trkpt lat="44.5343" lon="6.27496">
        <ele>902</ele>
        <time>2016-05-05T19:26:28Z</time>
      </trkpt>
      <trkpt lat="44.53416" lon="6.27504">
        <ele>902</ele>
        <time>2016-05-05T19:28:28Z</time>
      </trkpt>
      <trkpt lat="44.53401" lon="6.27513">
        <ele>904</ele>
        <time>2016-05-05T19:30:28Z</time>
      </trkpt>
      <trkpt lat="44.53396" lon="6.27516">
        <ele>904</ele>
        <time>2016-05-05T19:32:28Z</time>
      </trkpt>
      <trkpt lat="44.53391" lon="6.27517">
        <ele>905</ele>
        <time>2016-05-05T19:34:28Z</time>
      </trkpt>
      <trkpt lat="44.53386" lon="6.27515">
        <ele>907</ele>
        <time>2016-05-05T19:36:28Z</time>
      </trkpt>
      <trkpt lat="44.53384" lon="6.27511">
        <ele>908</ele>
        <time>2016-05-05T19:38:28Z</time>
      </trkpt>
      <trkpt lat="44.53383" lon="6.27505">
        <ele>909</ele>
        <time>2016-05-05T19:40:28Z</time>
      </trkpt>
      <trkpt lat="44.53384" lon="6.275">
        <ele>909</ele>
        <time>2016-05-05T19:42:28Z</time>
      </trkpt>
      <trkpt lat="44.53387" lon="6.27493">
        <ele>910</ele>
        <time>2016-05-05T19:44:28Z</time>
      </trkpt>
      <trkpt lat="44.53398" lon="6.27481">
        <ele>910</ele>
        <time>2016-05-05T19:46:28Z</time>
      </trkpt>
      <trkpt lat="44.53411" lon="6.27466">
        <ele>910</ele>
        <time>2016-05-05T19:48:28Z</time>
      </trkpt>
      <trkpt lat="44.53422" lon="6.27451">
        <ele>912</ele>
        <time>2016-05-05T19:50:28Z</time>
      </trkpt>
      <trkpt lat="44.53433" lon="6.27436">
        <ele>913</ele>
        <time>2016-05-05T19:52:28Z</time>
      </trkpt>
      <trkpt lat="44.53441" lon="6.27423">
        <ele>914</ele>
        <time>2016-05-05T19:54:28Z</time>
      </trkpt>
      <trkpt lat="44.53447" lon="6.27409">
        <ele>916</ele>
        <time>2016-05-05T19:56:28Z</time>
      </trkpt>
      <trkpt lat="44.53454" lon="6.27389">
        <ele>919</ele>
        <time>2016-05-05T19:58:28Z</time>
      </trkpt>
      <trkpt lat="44.53458" lon="6.27371">
        <ele>923</ele>
        <time>2016-05-05T20:00:28Z</time>
      </trkpt>
      <trkpt lat="44.53464" lon="6.27349">
        <ele>926</ele>
        <time>2016-05-05T20:02:28Z</time>
      </trkpt>
      <trkpt lat="44.53471" lon="6.27334">
        <ele>928</ele>
        <time>2016-05-05T20:04:28Z</time>
      </trkpt>
      <trkpt lat="44.53479" lon="6.2732">
        <ele>931</ele>
        <time>2016-05-05T20:06:28Z</time>
      </trkpt>
      <trkpt lat="44.53487" lon="6.27307">
        <ele>934</ele>
        <time>2016-05-05T20:08:28Z</time>
      </trkpt>
      <trkpt lat="44.53501" lon="6.27291">
        <ele>936</ele>
        <time>2016-05-05T20:10:28Z</time>
      </trkpt>
      <trkpt lat="44.53505" lon="6.27286">
        <ele>936</ele>
        <time>2016-05-05T20:12:28Z</time>
      </trkpt>
      <trkpt lat="44.53509" lon="6.2728">
        <ele>937</ele>
        <time>2016-05-05T20:14:28Z</time>
      </trkpt>
      <trkpt lat="44.53511" lon="6.27277">
        <ele>938</ele>
        <time>2016-05-05T20:16:28Z</time>
      </trkpt>
      <trkpt lat="44.53514" lon="6.27272">
        <ele>938</ele>
        <time>2016-05-05T20:18:28Z</time>
      </trkpt>
      <trkpt lat="44.53521" lon="6.27266">
        <ele>938</ele>
        <time>2016-05-05T20:20:28Z</time>
      </trkpt>
      <trkpt lat="44.5353" lon="6.27258">
        <ele>938</ele>
        <time>2016-05-05T20:22:28Z</time>
      </trkpt>
      <trkpt lat="44.53537" lon="6.27252">
        <ele>938</ele>
        <time>2016-05-05T20:24:28Z</time>
      </trkpt>
      <trkpt lat="44.53544" lon="6.27243">
        <ele>939</ele>
        <time>2016-05-05T20:26:28Z</time>
      </trkpt>
      <trkpt lat="44.53551" lon="6.27233">
        <ele>940</ele>
        <time>2016-05-05T20:28:28Z</time>
      </trkpt>
      <trkpt lat="44.53559" lon="6.27226">
        <ele>940</ele>
        <time>2016-05-05T20:30:28Z</time>
      </trkpt>
      <trkpt lat="44.53569" lon="6.27218">
        <ele>940</ele>
        <time>2016-05-05T20:32:28Z</time>
      </trkpt>
      <trkpt lat="44.53582" lon="6.27208">
        <ele>939</ele>
        <time>2016-05-05T20:34:28Z</time>
      </trkpt>
      <trkpt lat="44.53597" lon="6.27195">
        <ele>940</ele>
        <time>2016-05-05T20:36:28Z</time>
      </trkpt>
      <trkpt lat="44.53605" lon="6.27184">
        <ele>942</ele>
        <time>2016-05-05T20:38:28Z</time>
      </trkpt>
      <trkpt lat="44.53612" lon="6.27172">
        <ele>945</ele>
        <time>2016-05-05T20:40:28Z</time>
      </trkpt>
      <trkpt lat="44.53617" lon="6.27158">
        <ele>947</ele>
        <time>2016-05-05T20:42:28Z</time>
      </trkpt>
      <trkpt lat="44.53622" lon="6.27144">
        <ele>950</ele>
        <time>2016-05-05T20:44:28Z</time>
      </trkpt>
      <trkpt lat="44.53633" lon="6.27121">
        <ele>952</ele>
        <time>2016-05-05T20:46:28Z</time>
      </trkpt>
      <trkpt lat="44.53648" lon="6.27096">
        <ele>954</ele>
        <time>2016-05-05T20:48:28Z</time>
      </trkpt>
      <trkpt lat="44.53663" lon="6.27075">
        <ele>955</ele>
        <time>2016-05-05T20:50:28Z</time>
      </trkpt>
      <trkpt lat="44.53674" lon="6.27057">
        <ele>956</ele>
        <time>2016-05-05T20:52:28Z</time>
      </trkpt>
      <trkpt lat="44.53681" lon="6.27042">
        <ele>958</ele>
        <time>2016-05-05T20:54:28Z</time>
      </trkpt>
      <trkpt lat="44.53686" lon="6.27029">
        <ele>959</ele>
        <time>2016-05-05T20:56:28Z</time>
      </trkpt>
      <trkpt lat="44.53689" lon="6.27015">
        <ele>962</ele>
        <time>2016-05-05T20:58:28Z</time>
      </trkpt>
      <trkpt lat="44.53694" lon="6.27003">
        <ele>963</ele>
        <time>2016-05-05T21:00:28Z</time>
      </trkpt>
      <trkpt lat="44.53698" lon="6.26994">
        <ele>964</ele>
        <time>2016-05-05T21:02:28Z</time>
      </trkpt>
      <trkpt lat="44.537" lon="6.2698">
        <ele>964</ele>
        <time>2016-05-05T21:04:28Z</time>
      </trkpt>
      <trkpt lat="44.53702" lon="6.26955">
        <ele>966</ele>
        <time>2016-05-05T21:06:28Z</time>
      </trkpt>
      <trkpt lat="44.53702" lon="6.26931">
        <ele>968</ele>
        <time>2016-05-05T21:08:28Z</time>
      </trkpt>
      <trkpt lat="44.537" lon="6.26913">
        <ele>970</ele>
        <time>2016-05-05T21:10:28Z</time>
      </trkpt>
      <trkpt lat="44.53697" lon="6.26898">
        <ele>971</ele>
        <time>2016-05-05T21:12:28Z</time>
      </trkpt>
      <trkpt lat="44.53696" lon="6.26887">
        <ele>971</ele>
        <time>2016-05-05T21:14:28Z</time>
      </trkpt>
      <trkpt lat="44.53695" lon="6.26879">
        <ele>972</ele>
        <time>2016-05-05T21:16:28Z</time>
      </trkpt>
      <trkpt lat="44.53696" lon="6.26869">
        <ele>972</ele>
        <time>2016-05-05T21:18:28Z</time>
      </trkpt>
      <trkpt lat="44.53698" lon="6.26861">
        <ele>971</ele>
        <time>2016-05-05T21:20:28Z</time>
      </trkpt>
      <trkpt lat="44.537" lon="6.26851">
        <ele>971</ele>
        <time>2016-05-05T21:22:28Z</time>
      </trkpt>
      <trkpt lat="44.537" lon="6.26844">
        <ele>971</ele>
        <time>2016-05-05T21:24:28Z</time>
      </trkpt>
      <trkpt lat="44.53698" lon="6.26839">
        <ele>972</ele>
        <time>2016-05-05T21:26:28Z</time>
      </trkpt>
      <trkpt lat="44.53694" lon="6.26837">
        <ele>973</ele>
        <time>2016-05-05T21:28:28Z</time>
      </trkpt>
      <trkpt lat="44.53689" lon="6.26841">
        <ele>974</ele>
        <time>2016-05-05T21:30:28Z</time>
      </trkpt>
      <trkpt lat="44.53686" lon="6.26847">
        <ele>975</ele>
        <time>2016-05-05T21:32:28Z</time>
      </trkpt>
      <trkpt lat="44.53682" lon="6.26859">
        <ele>976</ele>
        <time>2016-05-05T21:34:28Z</time>
      </trkpt>
      <trkpt lat="44.53672" lon="6.26889">
        <ele>979</ele>
        <time>2016-05-05T21:36:28Z</time>
      </trkpt>
      <trkpt lat="44.53667" lon="6.26918">
        <ele>980</ele>
        <time>2016-05-05T21:38:28Z</time>
      </trkpt>
      <trkpt lat="44.53663" lon="6.26935">
        <ele>979</ele>
        <time>2016-05-05T21:40:28Z</time>
      </trkpt>
      <trkpt lat="44.53661" lon="6.2694">
        <ele>978</ele>
        <time>2016-05-05T21:42:28Z</time>
      </trkpt>
      <trkpt lat="44.53656" lon="6.26946">
        <ele>979</ele>
        <time>2016-05-05T21:44:28Z</time>
      </trkpt>
      <trkpt lat="44.53645" lon="6.26957">
        <ele>980</ele>
        <time>2016-05-05T21:46:28Z</time>
      </trkpt>
      <trkpt lat="44.53634" lon="6.26969">
        <ele>981</ele>
        <time>2016-05-05T21:48:28Z</time>
      </trkpt>
      <trkpt lat="44.53627" lon="6.2698">
        <ele>981</ele>
        <time>2016-05-05T21:50:28Z</time>
      </trkpt>
      <trkpt lat="44.5362" lon="6.26993">
        <ele>981</ele>
        <time>2016-05-05T21:52:28Z</time>
      </trkpt>
      <trkpt lat="44.53617" lon="6.27001">
        <ele>980</ele>
        <time>2016-05-05T21:54:28Z</time>
      </trkpt>
      <trkpt lat="44.53614" lon="6.27005">
        <ele>980</ele>
        <time>2016-05-05T21:56:28Z</time>
      </trkpt>
      <trkpt lat="44.5361" lon="6.27007">
        <ele>981</ele>
        <time>2016-05-05T21:58:28Z</time>
      </trkpt>
      <trkpt lat="44.53605" lon="6.27005">
        <ele>982</ele>
        <time>2016-05-05T22:00:28Z</time>
      </trkpt>
      <trkpt lat="44.53602" lon="6.27002">
        <ele>983</ele>
        <time>2016-05-05T22:02:28Z</time>
      </trkpt>
      <trkpt lat="44.53601" lon="6.26994">
        <ele>985</ele>
        <time>2016-05-05T22:04:28Z</time>
      </trkpt>
      <trkpt lat="44.53602" lon="6.26986">
        <ele>986</ele>
        <time>2016-05-05T22:06:28Z</time>
      </trkpt>
      <trkpt lat="44.53607" lon="6.26976">
        <ele>986</ele>
        <time>2016-05-05T22:08:28Z</time>
      </trkpt>
      <trkpt lat="44.53612" lon="6.26963">
        <ele>987</ele>
        <time>2016-05-05T22:10:28Z</time>
      </trkpt>
      <trkpt lat="44.53615" lon="6.26954">
        <ele>988</ele>
        <time>2016-05-05T22:12:28Z</time>
      </trkpt>
      <trkpt lat="44.53617" lon="6.26942">
        <ele>989</ele>
        <time>2016-05-05T22:14:28Z</time>
      </trkpt>
      <trkpt lat="44.53617" lon="6.26931">
        <ele>991</ele>
        <time>2016-05-05T22:16:28Z</time>
      </trkpt>
      <trkpt lat="44.53616" lon="6.26918">
        <ele>993</ele>
        <time>2016-05-05T22:18:28Z</time>
      </trkpt>
      <trkpt lat="44.53614" lon="6.26906">
        <ele>994</ele>
        <time>2016-05-05T22:20:28Z</time>
      </trkpt>
      <trkpt lat="44.5361" lon="6.26893">
        <ele>996</ele>
        <time>2016-05-05T22:22:28Z</time>
      </trkpt>
      <trkpt lat="44.53609" lon="6.26882">
        <ele>997</ele>
        <time>2016-05-05T22:24:28Z</time>
      </trkpt>
      <trkpt lat="44.5361" lon="6.26865">
        <ele>998</ele>
        <time>2016-05-05T22:26:28Z</time>
      </trkpt>
      <trkpt lat="44.53611" lon="6.2685">
        <ele>998</ele>
        <time>2016-05-05T22:28:28Z</time>
      </trkpt>
      <trkpt lat="44.5361" lon="6.26838">
        <ele>999</ele>
        <time>2016-05-05T22:30:28Z</time>
      </trkpt>
      <trkpt lat="44.53609" lon="6.26828">
        <ele>1000</ele>
        <time>2016-05-05T22:32:28Z</time>
      </trkpt>
      <trkpt lat="44.53603" lon="6.26816">
        <ele>1002</ele>
        <time>2016-05-05T22:34:28Z</time>
      </trkpt>
      <trkpt lat="44.53593" lon="6.26795">
        <ele>1006</ele>
        <time>2016-05-05T22:36:28Z</time>
      </trkpt>
      <trkpt lat="44.5359" lon="6.26788">
        <ele>1007</ele>
        <time>2016-05-05T22:38:28Z</time>
      </trkpt>
      <trkpt lat="44.53587" lon="6.26779">
        <ele>1009</ele>
        <time>2016-05-05T22:40:28Z</time>
      </trkpt>
      <trkpt lat="44.53586" lon="6.2677">
        <ele>1009</ele>
        <time>2016-05-05T22:42:28Z</time>
      </trkpt>
      <trkpt lat="44.53586" lon="6.2676">
        <ele>1010</ele>
        <time>2016-05-05T22:44:28Z</time>
      </trkpt>
      <trkpt lat="44.53588" lon="6.26745">
        <ele>1010</ele>
        <time>2016-05-05T22:46:28Z</time>
      </trkpt>
      <trkpt lat="44.53589" lon="6.2673">
        <ele>1010</ele>
        <time>2016-05-05T22:48:28Z</time>
      </trkpt>
      <trkpt lat="44.53588" lon="6.26717">
        <ele>1010</ele>
        <time>2016-05-05T22:50:28Z</time>
      </trkpt>
      <trkpt lat="44.53587" lon="6.26704">
        <ele>1011</ele>
        <time>2016-05-05T22:52:28Z</time>
      </trkpt>
      <trkpt lat="44.53586" lon="6.26695">
        <ele>1011</ele>
        <time>2016-05-05T22:54:28Z</time>
      </trkpt>
      <trkpt lat="44.5358" lon="6.2668">
        <ele>1012</ele>
        <time>2016-05-05T22:56:28Z</time>
      </trkpt>
      <trkpt lat="44.53574" lon="6.26668">
        <ele>1013</ele>
        <time>2016-05-05T22:58:28Z</time>
      </trkpt>
      <trkpt lat="44.5357" lon="6.26661">
        <ele>1015</ele>
        <time>2016-05-05T23:00:28Z</time>
      </trkpt>
      <trkpt lat="44.53563" lon="6.26653">
        <ele>1016</ele>
        <time>2016-05-05T23:02:28Z</time>
      </trkpt>
      <trkpt lat="44.53552" lon="6.26645">
        <ele>1019</ele>
        <time>2016-05-05T23:04:28Z</time>
      </trkpt>
      <trkpt lat="44.53529" lon="6.26633">
        <ele>1022</ele>
        <time>2016-05-05T23:06:28Z</time>
      </trkpt>
      <trkpt lat="44.5352" lon="6.26627">
        <ele>1023</ele>
        <time>2016-05-05T23:08:28Z</time>
      </trkpt>
      <trkpt lat="44.53517" lon="6.26627">
        <ele>1023</ele>
        <time>2016-05-05T23:10:28Z</time>
      </trkpt>
      <trkpt lat="44.53513" lon="6.26625">
        <ele>1023</ele>
        <time>2016-05-05T23:12:28Z</time>
      </trkpt>
      <trkpt lat="44.53503" lon="6.26625">
        <ele>1024</ele>
        <time>2016-05-05T23:14:28Z</time>
      </trkpt>
      <trkpt lat="44.53494" lon="6.26624">
        <ele>1025</ele>
        <time>2016-05-05T23:16:28Z</time>
      </trkpt>
      <trkpt lat="44.53486" lon="6.26623">
        <ele>1026</ele>
        <time>2016-05-05T23:18:28Z</time>
      </trkpt>
      <trkpt lat="44.53479" lon="6.26621">
        <ele>1026</ele>
        <time>2016-05-05T23:20:28Z</time>
      </trkpt>
      <trkpt lat="44.53472" lon="6.26618">
        <ele>1027</ele>
        <time>2016-05-05T23:22:28Z</time>
      </trkpt>
      <trkpt lat="44.53459" lon="6.26608">
        <ele>1028</ele>
        <time>2016-05-05T23:24:28Z</time>
      </trkpt>
      <trkpt lat="44.53445" lon="6.26598">
        <ele>1029</ele>
        <time>2016-05-05T23:26:28Z</time>
      </trkpt>
      <trkpt lat="44.53432" lon="6.26589">
        <ele>1029</ele>
        <time>2016-05-05T23:28:28Z</time>
      </trkpt>
      <trkpt lat="44.53426" lon="6.26584">
        <ele>1029</ele>
        <time>2016-05-05T23:30:28Z</time>
      </trkpt>
      <trkpt lat="44.53419" lon="6.26577">
        <ele>1030</ele>
        <time>2016-05-05T23:32:28Z</time>
      </trkpt>
      <trkpt lat="44.53412" lon="6.26567">
        <ele>1031</ele>
        <time>2016-05-05T23:34:28Z</time>
      </trkpt>
      <trkpt lat="44.53407" lon="6.2656">
        <ele>1032</ele>
        <time>2016-05-05T23:36:28Z</time>
      </trkpt>
      <trkpt lat="44.53399" lon="6.26544">
        <ele>1033</ele>
        <time>2016-05-05T23:38:28Z</time>
      </trkpt>
      <trkpt lat="44.5339" lon="6.26524">
        <ele>1034</ele>
        <time>2016-05-05T23:40:28Z</time>
      </trkpt>
      <trkpt lat="44.53383" lon="6.26509">
        <ele>1035</ele>
        <time>2016-05-05T23:42:28Z</time>
      </trkpt>
      <trkpt lat="44.53377" lon="6.26487">
        <ele>1036</ele>
        <time>2016-05-05T23:44:28Z</time>
      </trkpt>
      <trkpt lat="44.53374" lon="6.26475">
        <ele>1036</ele>
        <time>2016-05-05T23:46:28Z</time>
      </trkpt>
      <trkpt lat="44.53356" lon="6.26413">
        <ele>1036</ele>
        <time>2016-05-05T23:48:28Z</time>
      </trkpt>
      <trkpt lat="44.53355" lon="6.26409">
        <ele>1035</ele>
        <time>2016-05-05T23:50:28Z</time>
      </trkpt>
      <trkpt lat="44.53353" lon="6.26405">
        <ele>1035</ele>
        <time>2016-05-05T23:52:28Z</time>
      </trkpt>
      <trkpt lat="44.53349" lon="6.26399">
        <ele>1035</ele>
        <time>2016-05-05T23:54:28Z</time>
      </trkpt>
      <trkpt lat="44.53342" lon="6.26392">
        <ele>1035</ele>
        <time>2016-05-05T23:56:28Z</time>
      </trkpt>
      <trkpt lat="44.53335" lon="6.26387">
        <ele>1035</ele>
        <time>2016-05-05T23:58:28Z</time>
      </trkpt>
      <trkpt lat="44.53326" lon="6.26382">
        <ele>1035</ele>
        <time>2016-05-06T00:00:28Z</time>
      </trkpt>
      <trkpt lat="44.53311" lon="6.2638">
        <ele>1035</ele>
        <time>2016-05-06T00:02:28Z</time>
      </trkpt>
      <trkpt lat="44.53292" lon="6.26376">
        <ele>1035</ele>
        <time>2016-05-06T00:04:28Z</time>
      </trkpt>
      <trkpt lat="44.53237" lon="6.26369">
        <ele>1035</ele>
        <time>2016-05-06T00:06:28Z</time>
      </trkpt>
      <trkpt lat="44.53211" lon="6.26364">
        <ele>1035</ele>
        <time>2016-05-06T00:08:28Z</time>
      </trkpt>
      <trkpt lat="44.53205" lon="6.26364">
        <ele>1035</ele>
        <time>2016-05-06T00:10:28Z</time>
      </trkpt>
      <trkpt lat="44.53188" lon="6.26362">
        <ele>1035</ele>
        <time>2016-05-06T00:12:28Z</time>
      </trkpt>
      <trkpt lat="44.53171" lon="6.26359">
        <ele>1035</ele>
        <time>2016-05-06T00:14:28Z</time>
      </trkpt>
      <trkpt lat="44.53162" lon="6.26357">
        <ele>1034</ele>
        <time>2016-05-06T00:16:28Z</time>
      </trkpt>
      <trkpt lat="44.53151" lon="6.26352">
        <ele>1033</ele>
        <time>2016-05-06T00:18:28Z</time>
      </trkpt>
      <trkpt lat="44.53143" lon="6.26346">
        <ele>1032</ele>
        <time>2016-05-06T00:20:28Z</time>
      </trkpt>
      <trkpt lat="44.53134" lon="6.26338">
        <ele>1031</ele>
        <time>2016-05-06T00:22:28Z</time>
      </trkpt>
      <trkpt lat="44.53125" lon="6.26327">
        <ele>1031</ele>
        <time>2016-05-06T00:24:28Z</time>
      </trkpt>
      <trkpt lat="44.53105" lon="6.26302">
        <ele>1029</ele>
        <time>2016-05-06T00:26:28Z</time>
      </trkpt>
      <trkpt lat="44.53065" lon="6.26252">
        <ele>1027</ele>
        <time>2016-05-06T00:28:28Z</time>
      </trkpt>
      <trkpt lat="44.53051" lon="6.26236">
        <ele>1026</ele>
        <time>2016-05-06T00:30:28Z</time>
      </trkpt>
      <trkpt lat="44.53032" lon="6.26209">
        <ele>1024</ele>
        <time>2016-05-06T00:32:28Z</time>
      </trkpt>
      <trkpt lat="44.53003" lon="6.26169">
        <ele>1022</ele>
        <time>2016-05-06T00:34:28Z</time>
      </trkpt>
      <trkpt lat="44.52979" lon="6.26135">
        <ele>1023</ele>
        <time>2016-05-06T00:36:28Z</time>
      </trkpt>
      <trkpt lat="44.52952" lon="6.26101">
        <ele>1025</ele>
        <time>2016-05-06T00:38:28Z</time>
      </trkpt>
      <trkpt lat="44.52931" lon="6.26072">
        <ele>1027</ele>
        <time>2016-05-06T00:40:28Z</time>
      </trkpt>
      <trkpt lat="44.52923" lon="6.26063">
        <ele>1028</ele>
        <time>2016-05-06T00:42:28Z</time>
      </trkpt>
      <trkpt lat="44.52921" lon="6.26061">
        <ele>1028</ele>
        <time>2016-05-06T00:44:28Z</time>
      </trkpt>
      <trkpt lat="44.52918" lon="6.26058">
        <ele>1028</ele>
        <time>2016-05-06T00:46:28Z</time>
      </trkpt>
      <trkpt lat="44.5291" lon="6.26054">
        <ele>1029</ele>
        <time>2016-05-06T00:48:28Z</time>
      </trkpt>
      <trkpt lat="44.52904" lon="6.26054">
        <ele>1029</ele>
        <time>2016-05-06T00:50:28Z</time>
      </trkpt>
      <trkpt lat="44.52894" lon="6.26056">
        <ele>1029</ele>
        <time>2016-05-06T00:52:28Z</time>
      </trkpt>
      <trkpt lat="44.52878" lon="6.26066">
        <ele>1028</ele>
        <time>2016-05-06T00:54:28Z</time>
      </trkpt>
      <trkpt lat="44.5286" lon="6.26079">
        <ele>1027</ele>
        <time>2016-05-06T00:56:28Z</time>
      </trkpt>
      <trkpt lat="44.52855" lon="6.26087">
        <ele>1027</ele>
        <time>2016-05-06T00:58:28Z</time>
      </trkpt>
      <trkpt lat="44.52847" lon="6.26101">
        <ele>1026</ele>
        <time>2016-05-06T01:00:28Z</time>
      </trkpt>
      <trkpt lat="44.52831" lon="6.26127">
        <ele>1024</ele>
        <time>2016-05-06T01:02:28Z</time>
      </trkpt>
      <trkpt lat="44.5282" lon="6.26143">
        <ele>1024</ele>
        <time>2016-05-06T01:04:28Z</time>
      </trkpt>
      <trkpt lat="44.52803" lon="6.26163">
        <ele>1024</ele>
        <time>2016-05-06T01:06:28Z</time>
      </trkpt>
      <trkpt lat="44.52771" lon="6.26195">
        <ele>1024</ele>
        <time>2016-05-06T01:08:28Z</time>
      </trkpt>
      <trkpt lat="44.5275" lon="6.26217">
        <ele>1023</ele>
        <time>2016-05-06T01:10:28Z</time>
      </trkpt>
      <trkpt lat="44.52735" lon="6.26232">
        <ele>1023</ele>
        <time>2016-05-06T01:12:28Z</time>
      </trkpt>
      <trkpt lat="44.52704" lon="6.26259">
        <ele>1024</ele>
        <time>2016-05-06T01:14:28Z</time>
      </trkpt>
      <trkpt lat="44.52692" lon="6.26269">
        <ele>1025</ele>
        <time>2016-05-06T01:16:28Z</time>
      </trkpt>
      <trkpt lat="44.52685" lon="6.26273">
        <ele>1025</ele>
        <time>2016-05-06T01:18:28Z</time>
      </trkpt>
      <trkpt lat="44.52678" lon="6.26274">
        <ele>1026</ele>
        <time>2016-05-06T01:20:28Z</time>
      </trkpt>
      <trkpt lat="44.52664" lon="6.26276">
        <ele>1027</ele>
        <time>2016-05-06T01:22:28Z</time>
      </trkpt>
      <trkpt lat="44.52644" lon="6.26278">
        <ele>1030</ele>
        <time>2016-05-06T01:24:28Z</time>
      </trkpt>
      <trkpt lat="44.52634" lon="6.26282">
        <ele>1031</ele>
        <time>2016-05-06T01:26:28Z</time>
      </trkpt>
      <trkpt lat="44.52627" lon="6.26287">
        <ele>1031</ele>
        <time>2016-05-06T01:28:28Z</time>
      </trkpt>
      <trkpt lat="44.5262" lon="6.26297">
        <ele>1031</ele>
        <time>2016-05-06T01:30:28Z</time>
      </trkpt>
      <trkpt lat="44.52616" lon="6.26307">
        <ele>1031</ele>
        <time>2016-05-06T01:32:28Z</time>
      </trkpt>
      <trkpt lat="44.52614" lon="6.26322">
        <ele>1030</ele>
        <time>2016-05-06T01:34:28Z</time>
      </trkpt>
      <trkpt lat="44.52614" lon="6.26348">
        <ele>1027</ele>
        <time>2016-05-06T01:36:28Z</time>
      </trkpt>
      <trkpt lat="44.52612" lon="6.26372">
        <ele>1026</ele>
        <time>2016-05-06T01:38:28Z</time>
      </trkpt>
      <trkpt lat="44.5261" lon="6.26387">
        <ele>1025</ele>
        <time>2016-05-06T01:40:28Z</time>
      </trkpt>
      <trkpt lat="44.52607" lon="6.26394">
        <ele>1025</ele>
        <time>2016-05-06T01:42:28Z</time>
      </trkpt>
      <trkpt lat="44.526" lon="6.26402">
        <ele>1026</ele>
        <time>2016-05-06T01:44:28Z</time>
      </trkpt>
      <trkpt lat="44.52593" lon="6.2641">
        <ele>1026</ele>
        <time>2016-05-06T01:46:28Z</time>
      </trkpt>
      <trkpt lat="44.52561" lon="6.26433">
        <ele>1029</ele>
        <time>2016-05-06T01:48:28Z</time>
      </trkpt>
      <trkpt lat="44.52524" lon="6.26463">
        <ele>1032</ele>
        <time>2016-05-06T01:50:28Z</time>
      </trkpt>
      <trkpt lat="44.52504" lon="6.26478">
        <ele>1033</ele>
        <time>2016-05-06T01:52:28Z</time>
      </trkpt>
      <trkpt lat="44.5248" lon="6.26498">
        <ele>1034</ele>
        <time>2016-05-06T01:54:28Z</time>
      </trkpt>
      <trkpt lat="44.52467" lon="6.26509">
        <ele>1035</ele>
        <time>2016-05-06T01:56:28Z</time>
      </trkpt>
      <trkpt lat="44.52451" lon="6.26518">
        <ele>1036</ele>
        <time>2016-05-06T01:58:28Z</time>
      </trkpt>
      <trkpt lat="44.52438" lon="6.26524">
        <ele>1037</ele>
        <time>2016-05-06T02:00:28Z</time>
      </trkpt>
      <trkpt lat="44.52426" lon="6.26524">
        <ele>1038</ele>
        <time>2016-05-06T02:02:28Z</time>
      </trkpt>
      <trkpt lat="44.52414" lon="6.26523">
        <ele>1039</ele>
        <time>2016-05-06T02:04:28Z</time>
      </trkpt>
      <trkpt lat="44.52403" lon="6.26519">
        <ele>1041</ele>
        <time>2016-05-06T02:06:28Z</time>
      </trkpt>
      <trkpt lat="44.52393" lon="6.26515">
        <ele>1043</ele>
        <time>2016-05-06T02:08:28Z</time>
      </trkpt>
      <trkpt lat="44.52387" lon="6.26515">
        <ele>1043</ele>
        <time>2016-05-06T02:10:28Z</time>
      </trkpt>
      <trkpt lat="44.5238" lon="6.26518">
        <ele>1044</ele>
        <time>2016-05-06T02:12:28Z</time>
      </trkpt>
      <trkpt lat="44.52371" lon="6.26522">
        <ele>1044</ele>
        <time>2016-05-06T02:14:28Z</time>
      </trkpt>
      <trkpt lat="44.52363" lon="6.26523">
        <ele>1045</ele>
        <time>2016-05-06T02:16:28Z</time>
      </trkpt>
      <trkpt lat="44.52356" lon="6.2652">
        <ele>1046</ele>
        <time>2016-05-06T02:18:28Z</time>
      </trkpt>
      <trkpt lat="44.52345" lon="6.26514">
        <ele>1048</ele>
        <time>2016-05-06T02:20:28Z</time>
      </trkpt>
      <trkpt lat="44.52337" lon="6.26512">
        <ele>1050</ele>
        <time>2016-05-06T02:22:28Z</time>
      </trkpt>
      <trkpt lat="44.52332" lon="6.26514">
        <ele>1050</ele>
        <time>2016-05-06T02:24:28Z</time>
      </trkpt>
      <trkpt lat="44.52327" lon="6.26519">
        <ele>1050</ele>
        <time>2016-05-06T02:26:28Z</time>
      </trkpt>
      <trkpt lat="44.52323" lon="6.26528">
        <ele>1049</ele>
        <time>2016-05-06T02:28:28Z</time>
      </trkpt>
      <trkpt lat="44.52318" lon="6.26535">
        <ele>1049</ele>
        <time>2016-05-06T02:30:28Z</time>
      </trkpt>
      <trkpt lat="44.52313" lon="6.26537">
        <ele>1049</ele>
        <time>2016-05-06T02:32:28Z</time>
      </trkpt>
      <trkpt lat="44.52306" lon="6.26537">
        <ele>1050</ele>
        <time>2016-05-06T02:34:28Z</time>
      </trkpt>
      <trkpt lat="44.52288" lon="6.26535">
        <ele>1052</ele>
        <time>2016-05-06T02:36:28Z</time>
      </trkpt>
      <trkpt lat="44.5227" lon="6.26532">
        <ele>1055</ele>
        <time>2016-05-06T02:38:28Z</time>
      </trkpt>
      <trkpt lat="44.52257" lon="6.26529">
        <ele>1058</ele>
        <time>2016-05-06T02:40:28Z</time>
      </trkpt>
      <trkpt lat="44.5225" lon="6.26524">
        <ele>1059</ele>
        <time>2016-05-06T02:42:28Z</time>
      </trkpt>
      <trkpt lat="44.52244" lon="6.26515">
        <ele>1062</ele>
        <time>2016-05-06T02:44:28Z</time>
      </trkpt>
      <trkpt lat="44.52239" lon="6.2651">
        <ele>1064</ele>
        <time>2016-05-06T02:46:28Z</time>
      </trkpt>
      <trkpt lat="44.52233" lon="6.2651">
        <ele>1065</ele>
        <time>2016-05-06T02:48:28Z</time>
      </trkpt>
      <trkpt lat="44.52228" lon="6.26514">
        <ele>1065</ele>
        <time>2016-05-06T02:50:28Z</time>
      </trkpt>
      <trkpt lat="44.52226" lon="6.26524">
        <ele>1064</ele>
        <time>2016-05-06T02:52:28Z</time>
      </trkpt>
      <trkpt lat="44.52222" lon="6.26537">
        <ele>1062</ele>
        <time>2016-05-06T02:54:28Z</time>
      </trkpt>
      <trkpt lat="44.52216" lon="6.26547">
        <ele>1061</ele>
        <time>2016-05-06T02:56:28Z</time>
      </trkpt>
      <trkpt lat="44.5221" lon="6.26553">
        <ele>1061</ele>
        <time>2016-05-06T02:58:28Z</time>
      </trkpt>
      <trkpt lat="44.52198" lon="6.26558">
        <ele>1062</ele>
        <time>2016-05-06T03:00:28Z</time>
      </trkpt>
      <trkpt lat="44.52174" lon="6.26565">
        <ele>1065</ele>
        <time>2016-05-06T03:02:28Z</time>
      </trkpt>
      <trkpt lat="44.52144" lon="6.26574">
        <ele>1067</ele>
        <time>2016-05-06T03:04:28Z</time>
      </trkpt>
      <trkpt lat="44.5212" lon="6.26581">
        <ele>1069</ele>
        <time>2016-05-06T03:06:28Z</time>
      </trkpt>
      <trkpt lat="44.52109" lon="6.26584">
        <ele>1069</ele>
        <time>2016-05-06T03:08:28Z</time>
      </trkpt>
      <trkpt lat="44.52099" lon="6.26583">
        <ele>1070</ele>
        <time>2016-05-06T03:10:28Z</time>
      </trkpt>
      <trkpt lat="44.52087" lon="6.2658">
        <ele>1072</ele>
        <time>2016-05-06T03:12:28Z</time>
      </trkpt>
      <trkpt lat="44.52079" lon="6.2658">
        <ele>1073</ele>
        <time>2016-05-06T03:14:28Z</time>
      </trkpt>
      <trkpt lat="44.52075" lon="6.26582">
        <ele>1074</ele>
        <time>2016-05-06T03:16:28Z</time>
      </trkpt>
      <trkpt lat="44.5207" lon="6.26587">
        <ele>1073</ele>
        <time>2016-05-06T03:18:28Z</time>
      </trkpt>
      <trkpt lat="44.52066" lon="6.26596">
        <ele>1072</ele>
        <time>2016-05-06T03:20:28Z</time>
      </trkpt>
      <trkpt lat="44.52065" lon="6.26598">
        <ele>1072</ele>
        <time>2016-05-06T03:22:28Z</time>
      </trkpt>
      <trkpt lat="44.52059" lon="6.26608">
        <ele>1070</ele>
        <time>2016-05-06T03:24:28Z</time>
      </trkpt>
      <trkpt lat="44.52048" lon="6.26617">
        <ele>1070</ele>
        <time>2016-05-06T03:26:28Z</time>
      </trkpt>
      <trkpt lat="44.52029" lon="6.26633">
        <ele>1070</ele>
        <time>2016-05-06T03:28:28Z</time>
      </trkpt>
      <trkpt lat="44.52011" lon="6.26645">
        <ele>1071</ele>
        <time>2016-05-06T03:30:28Z</time>
      </trkpt>
      <trkpt lat="44.52" lon="6.26649">
        <ele>1072</ele>
        <time>2016-05-06T03:32:28Z</time>
      </trkpt>
      <trkpt lat="44.51992" lon="6.2665">
        <ele>1073</ele>
        <time>2016-05-06T03:34:28Z</time>
      </trkpt>
      <trkpt lat="44.51984" lon="6.26651">
        <ele>1074</ele>
        <time>2016-05-06T03:36:28Z</time>
      </trkpt>
      <trkpt lat="44.51978" lon="6.26657">
        <ele>1074</ele>
        <time>2016-05-06T03:38:28Z</time>
      </trkpt>
      <trkpt lat="44.51974" lon="6.26666">
        <ele>1073</ele>
        <time>2016-05-06T03:40:28Z</time>
      </trkpt>
      <trkpt lat="44.51971" lon="6.26681">
        <ele>1071</ele>
        <time>2016-05-06T03:42:28Z</time>
      </trkpt>
      <trkpt lat="44.51964" lon="6.26696">
        <ele>1070</ele>
        <time>2016-05-06T03:44:28Z</time>
      </trkpt>
      <trkpt lat="44.51955" lon="6.26709">
        <ele>1069</ele>
        <time>2016-05-06T03:46:28Z</time>
      </trkpt>
      <trkpt lat="44.51942" lon="6.26722">
        <ele>1070</ele>
        <time>2016-05-06T03:48:28Z</time>
      </trkpt>
      <trkpt lat="44.51931" lon="6.26728">
        <ele>1072</ele>
        <time>2016-05-06T03:50:28Z</time>
      </trkpt>
      <trkpt lat="44.51922" lon="6.26731">
        <ele>1074</ele>
        <time>2016-05-06T03:52:28Z</time>
      </trkpt>
      <trkpt lat="44.51908" lon="6.26735">
        <ele>1076</ele>
        <time>2016-05-06T03:54:28Z</time>
      </trkpt>
      <trkpt lat="44.51894" lon="6.26741">
        <ele>1077</ele>
        <time>2016-05-06T03:56:28Z</time>
      </trkpt>
      <trkpt lat="44.51884" lon="6.26741">
        <ele>1078</ele>
        <time>2016-05-06T03:58:28Z</time>
      </trkpt>
      <trkpt lat="44.51875" lon="6.26741">
        <ele>1079</ele>
        <time>2016-05-06T04:00:28Z</time>
      </trkpt>
      <trkpt lat="44.51866" lon="6.26744">
        <ele>1080</ele>
        <time>2016-05-06T04:02:28Z</time>
      </trkpt>
      <trkpt lat="44.51851" lon="6.26754">
        <ele>1081</ele>
        <time>2016-05-06T04:04:28Z</time>
      </trkpt>
      <trkpt lat="44.51841" lon="6.26761">
        <ele>1081</ele>
        <time>2016-05-06T04:06:28Z</time>
      </trkpt>
      <trkpt lat="44.51834" lon="6.26762">
        <ele>1082</ele>
        <time>2016-05-06T04:08:28Z</time>
      </trkpt>
      <trkpt lat="44.51826" lon="6.26761">
        <ele>1082</ele>
        <time>2016-05-06T04:10:28Z</time>
      </trkpt>
      <trkpt lat="44.51819" lon="6.26759">
        <ele>1083</ele>
        <time>2016-05-06T04:12:28Z</time>
      </trkpt>
      <trkpt lat="44.51812" lon="6.26759">
        <ele>1083</ele>
        <time>2016-05-06T04:14:28Z</time>
      </trkpt>
      <trkpt lat="44.51801" lon="6.26764">
        <ele>1082</ele>
        <time>2016-05-06T04:16:28Z</time>
      </trkpt>
      <trkpt lat="44.518" lon="6.26765">
        <ele>1082</ele>
        <time>2016-05-06T04:18:28Z</time>
      </trkpt>
      <trkpt lat="44.5179" lon="6.26768">
        <ele>1082</ele>
        <time>2016-05-06T04:20:28Z</time>
      </trkpt>
      <trkpt lat="44.51782" lon="6.26768">
        <ele>1082</ele>
        <time>2016-05-06T04:22:28Z</time>
      </trkpt>
      <trkpt lat="44.51774" lon="6.26767">
        <ele>1083</ele>
        <time>2016-05-06T04:24:28Z</time>
      </trkpt>
      <trkpt lat="44.51764" lon="6.26763">
        <ele>1083</ele>
        <time>2016-05-06T04:26:28Z</time>
      </trkpt>
      <trkpt lat="44.51756" lon="6.26761">
        <ele>1083</ele>
        <time>2016-05-06T04:28:28Z</time>
      </trkpt>
      <trkpt lat="44.5175" lon="6.2676">
        <ele>1084</ele>
        <time>2016-05-06T04:30:28Z</time>
      </trkpt>
      <trkpt lat="44.5175" lon="6.2676">
        <ele>1084</ele>
        <time>2016-05-06T04:32:28Z</time>
      </trkpt>
      <trkpt lat="44.51747" lon="6.26764">
        <ele>1083</ele>
        <time>2016-05-06T04:34:28Z</time>
      </trkpt>
      <trkpt lat="44.51744" lon="6.2677">
        <ele>1083</ele>
        <time>2016-05-06T04:36:28Z</time>
      </trkpt>
      <trkpt lat="44.51741" lon="6.26777">
        <ele>1082</ele>
        <time>2016-05-06T04:38:28Z</time>
      </trkpt>
      <trkpt lat="44.51741" lon="6.26777">
        <ele>1082</ele>
        <time>2016-05-06T04:40:28Z</time>
      </trkpt>
      <trkpt lat="44.51741" lon="6.26772">
        <ele>1082</ele>
        <time>2016-05-06T04:42:28Z</time>
      </trkpt>
      <trkpt lat="44.5174" lon="6.26766">
        <ele>1083</ele>
        <time>2016-05-06T04:44:28Z</time>
      </trkpt>
      <trkpt lat="44.51739" lon="6.26756">
        <ele>1083</ele>
        <time>2016-05-06T04:46:28Z</time>
      </trkpt>
      <trkpt lat="44.51739" lon="6.26748">
        <ele>1083</ele>
        <time>2016-05-06T04:48:28Z</time>
      </trkpt>
      <trkpt lat="44.51739" lon="6.26746">
        <ele>1083</ele>
        <time>2016-05-06T04:50:28Z</time>
      </trkpt>
      <trkpt lat="44.5174" lon="6.26744">
        <ele>1084</ele>
        <time>2016-05-06T04:52:28Z</time>
      </trkpt>
      <trkpt lat="44.5174" lon="6.26744">
        <ele>1084</ele>
        <time>2016-05-06T04:54:28Z</time>
      </trkpt>
      <trkpt lat="44.5174" lon="6.26733">
        <ele>1084</ele>
        <time>2016-05-06T04:56:28Z</time>
      </trkpt>
      <trkpt lat="44.51742" lon="6.26716">
        <ele>1086</ele>
        <time>2016-05-06T04:58:28Z</time>
      </trkpt>
      <trkpt lat="44.51752" lon="6.26674">
        <ele>1089</ele>
        <time>2016-05-06T05:00:28Z</time>
      </trkpt>
      <trkpt lat="44.51759" lon="6.26643">
        <ele>1090</ele>
        <time>2016-05-06T05:02:28Z</time>
      </trkpt>
      <trkpt lat="44.51766" lon="6.26621">
        <ele>1091</ele>
        <time>2016-05-06T05:04:28Z</time>
      </trkpt>
      <trkpt lat="44.51774" lon="6.26597">
        <ele>1093</ele>
        <time>2016-05-06T05:06:28Z</time>
      </trkpt>
      <trkpt lat="44.51781" lon="6.26575">
        <ele>1094</ele>
        <time>2016-05-06T05:08:28Z</time>
      </trkpt>
      <trkpt lat="44.51786" lon="6.26552">
        <ele>1095</ele>
        <time>2016-05-06T05:10:28Z</time>
      </trkpt>
      <trkpt lat="44.51787" lon="6.26549">
        <ele>1096</ele>
        <time>2016-05-06T05:12:28Z</time>
      </trkpt>
      <trkpt lat="44.51792" lon="6.26521">
        <ele>1097</ele>
        <time>2016-05-06T05:14:28Z</time>
      </trkpt>
      <trkpt lat="44.51794" lon="6.26508">
        <ele>1098</ele>
        <time>2016-05-06T05:16:28Z</time>
      </trkpt>
      <trkpt lat="44.51795" lon="6.26499">
        <ele>1098</ele>
        <time>2016-05-06T05:18:28Z</time>
      </trkpt>
      <trkpt lat="44.51799" lon="6.26483">
        <ele>1099</ele>
        <time>2016-05-06T05:20:28Z</time>
      </trkpt>
      <trkpt lat="44.51806" lon="6.26464">
        <ele>1101</ele>
        <time>2016-05-06T05:22:28Z</time>
      </trkpt>
      <trkpt lat="44.51813" lon="6.26442">
        <ele>1102</ele>
        <time>2016-05-06T05:24:28Z</time>
      </trkpt>
      <trkpt lat="44.5182" lon="6.26415">
        <ele>1104</ele>
        <time>2016-05-06T05:26:28Z</time>
      </trkpt>
      <trkpt lat="44.51825" lon="6.26386">
        <ele>1105</ele>
        <time>2016-05-06T05:28:28Z</time>
      </trkpt>
      <trkpt lat="44.51827" lon="6.26367">
        <ele>1106</ele>
        <time>2016-05-06T05:30:28Z</time>
      </trkpt>
      <trkpt lat="44.51828" lon="6.26348">
        <ele>1107</ele>
        <time>2016-05-06T05:32:28Z</time>
      </trkpt>
      <trkpt lat="44.51827" lon="6.2633">
        <ele>1108</ele>
        <time>2016-05-06T05:34:28Z</time>
      </trkpt>
      <trkpt lat="44.51826" lon="6.26323">
        <ele>1108</ele>
        <time>2016-05-06T05:36:28Z</time>
      </trkpt>
      <trkpt lat="44.51824" lon="6.26303">
        <ele>1109</ele>
        <time>2016-05-06T05:38:28Z</time>
      </trkpt>
      <trkpt lat="44.51824" lon="6.26288">
        <ele>1110</ele>
        <time>2016-05-06T05:40:28Z</time>
      </trkpt>
      <trkpt lat="44.51826" lon="6.26267">
        <ele>1111</ele>
        <time>2016-05-06T05:42:28Z</time>
      </trkpt>
      <trkpt lat="44.51826" lon="6.26258">
        <ele>1111</ele>
        <time>2016-05-06T05:44:28Z</time>
      </trkpt>
      <trkpt lat="44.51824" lon="6.26247">
        <ele>1112</ele>
        <time>2016-05-06T05:46:28Z</time>
      </trkpt>
      <trkpt lat="44.51818" lon="6.26237">
        <ele>1113</ele>
        <time>2016-05-06T05:48:28Z</time>
      </trkpt>
      <trkpt lat="44.5181" lon="6.2623">
        <ele>1113</ele>
        <time>2016-05-06T05:50:28Z</time>
      </trkpt>
      <trkpt lat="44.51804" lon="6.26223">
        <ele>1114</ele>
        <time>2016-05-06T05:52:28Z</time>
      </trkpt>
      <trkpt lat="44.518" lon="6.26213">
        <ele>1115</ele>
        <time>2016-05-06T05:54:28Z</time>
      </trkpt>
      <trkpt lat="44.51798" lon="6.26196">
        <ele>1117</ele>
        <time>2016-05-06T05:56:28Z</time>
      </trkpt>
      <trkpt lat="44.51796" lon="6.26176">
        <ele>1119</ele>
        <time>2016-05-06T05:58:28Z</time>
      </trkpt>
      <trkpt lat="44.5179" lon="6.26141">
        <ele>1121</ele>
        <time>2016-05-06T06:00:28Z</time>
      </trkpt>
      <trkpt lat="44.51785" lon="6.26117">
        <ele>1122</ele>
        <time>2016-05-06T06:02:28Z</time>
      </trkpt>
      <trkpt lat="44.5178" lon="6.26105">
        <ele>1123</ele>
        <time>2016-05-06T06:04:28Z</time>
      </trkpt>
      <trkpt lat="44.51775" lon="6.26097">
        <ele>1123</ele>
        <time>2016-05-06T06:06:28Z</time>
      </trkpt>
      <trkpt lat="44.51768" lon="6.26091">
        <ele>1123</ele>
        <time>2016-05-06T06:08:28Z</time>
      </trkpt>
      <trkpt lat="44.51763" lon="6.26088">
        <ele>1123</ele>
        <time>2016-05-06T06:10:28Z</time>
      </trkpt>
      <trkpt lat="44.51755" lon="6.26085">
        <ele>1122</ele>
        <time>2016-05-06T06:12:28Z</time>
      </trkpt>
      <trkpt lat="44.51743" lon="6.26083">
        <ele>1123</ele>
        <time>2016-05-06T06:14:28Z</time>
      </trkpt>
      <trkpt lat="44.51735" lon="6.26084">
        <ele>1123</ele>
        <time>2016-05-06T06:16:28Z</time>
      </trkpt>
      <trkpt lat="44.51726" lon="6.26089">
        <ele>1124</ele>
        <time>2016-05-06T06:18:28Z</time>
      </trkpt>
      <trkpt lat="44.51715" lon="6.26098">
        <ele>1125</ele>
        <time>2016-05-06T06:20:28Z</time>
      </trkpt>
      <trkpt lat="44.51703" lon="6.26113">
        <ele>1125</ele>
        <time>2016-05-06T06:22:28Z</time>
      </trkpt>
      <trkpt lat="44.51687" lon="6.26132">
        <ele>1126</ele>
        <time>2016-05-06T06:24:28Z</time>
      </trkpt>
      <trkpt lat="44.51674" lon="6.26148">
        <ele>1126</ele>
        <time>2016-05-06T06:26:28Z</time>
      </trkpt>
      <trkpt lat="44.51666" lon="6.26156">
        <ele>1127</ele>
        <time>2016-05-06T06:28:28Z</time>
      </trkpt>
      <trkpt lat="44.51656" lon="6.26162">
        <ele>1127</ele>
        <time>2016-05-06T06:30:28Z</time>
      </trkpt>
      <trkpt lat="44.51641" lon="6.26168">
        <ele>1128</ele>
        <time>2016-05-06T06:32:28Z</time>
      </trkpt>
      <trkpt lat="44.51615" lon="6.26178">
        <ele>1129</ele>
        <time>2016-05-06T06:34:28Z</time>
      </trkpt>
      <trkpt lat="44.51592" lon="6.26187">
        <ele>1130</ele>
        <time>2016-05-06T06:36:28Z</time>
      </trkpt>
      <trkpt lat="44.51573" lon="6.26194">
        <ele>1132</ele>
        <time>2016-05-06T06:38:28Z</time>
      </trkpt>
      <trkpt lat="44.51558" lon="6.26202">
        <ele>1135</ele>
        <time>2016-05-06T06:40:28Z</time>
      </trkpt>
      <trkpt lat="44.51539" lon="6.26215">
        <ele>1137</ele>
        <time>2016-05-06T06:42:28Z</time>
      </trkpt>
      <trkpt lat="44.51514" lon="6.26234">
        <ele>1141</ele>
        <time>2016-05-06T06:44:28Z</time>
      </trkpt>
      <trkpt lat="44.51493" lon="6.26248">
        <ele>1144</ele>
        <time>2016-05-06T06:46:28Z</time>
      </trkpt>
      <trkpt lat="44.51486" lon="6.26254">
        <ele>1146</ele>
        <time>2016-05-06T06:48:28Z</time>
      </trkpt>
      <trkpt lat="44.5148" lon="6.26263">
        <ele>1147</ele>
        <time>2016-05-06T06:50:28Z</time>
      </trkpt>
      <trkpt lat="44.51474" lon="6.26277">
        <ele>1147</ele>
        <time>2016-05-06T06:52:28Z</time>
      </trkpt>
      <trkpt lat="44.51467" lon="6.26289">
        <ele>1148</ele>
        <time>2016-05-06T06:54:28Z</time>
      </trkpt>
      <trkpt lat="44.51462" lon="6.26299">
        <ele>1148</ele>
        <time>2016-05-06T06:56:28Z</time>
      </trkpt>
      <trkpt lat="44.51451" lon="6.26311">
        <ele>1150</ele>
        <time>2016-05-06T06:58:28Z</time>
      </trkpt>
      <trkpt lat="44.51434" lon="6.26329">
        <ele>1152</ele>
        <time>2016-05-06T07:00:28Z</time>
      </trkpt>
      <trkpt lat="44.51413" lon="6.26349">
        <ele>1156</ele>
        <time>2016-05-06T07:02:28Z</time>
      </trkpt>
      <trkpt lat="44.51399" lon="6.26361">
        <ele>1159</ele>
        <time>2016-05-06T07:04:28Z</time>
      </trkpt>
      <trkpt lat="44.51386" lon="6.26374">
        <ele>1162</ele>
        <time>2016-05-06T07:06:28Z</time>
      </trkpt>
      <trkpt lat="44.51379" lon="6.2638">
        <ele>1163</ele>
        <time>2016-05-06T07:08:28Z</time>
      </trkpt>
      <trkpt lat="44.51377" lon="6.2638">
        <ele>1164</ele>
        <time>2016-05-06T07:10:28Z</time>
      </trkpt>
      <trkpt lat="44.51374" lon="6.2638">
        <ele>1165</ele>
        <time>2016-05-06T07:12:28Z</time>
      </trkpt>
      <trkpt lat="44.51368" lon="6.26398">
        <ele>1165</ele>
        <time>2016-05-06T07:14:28Z</time>
      </trkpt>
      <trkpt lat="44.5136" lon="6.26412">
        <ele>1166</ele>
        <time>2016-05-06T07:16:28Z</time>
      </trkpt>
      <trkpt lat="44.5135" lon="6.26433">
        <ele>1167</ele>
        <time>2016-05-06T07:18:28Z</time>
      </trkpt>
      <trkpt lat="44.51334" lon="6.26462">
        <ele>1167</ele>
        <time>2016-05-06T07:20:28Z</time>
      </trkpt>
      <trkpt lat="44.51322" lon="6.2648">
        <ele>1169</ele>
        <time>2016-05-06T07:22:28Z</time>
      </trkpt>
      <trkpt lat="44.51315" lon="6.26489">
        <ele>1170</ele>
        <time>2016-05-06T07:24:28Z</time>
      </trkpt>
      <trkpt lat="44.51306" lon="6.26494">
        <ele>1173</ele>
        <time>2016-05-06T07:26:28Z</time>
      </trkpt>
      <trkpt lat="44.513" lon="6.26501">
        <ele>1174</ele>
        <time>2016-05-06T07:28:28Z</time>
      </trkpt>
      <trkpt lat="44.51296" lon="6.26513">
        <ele>1173</ele>
        <time>2016-05-06T07:30:28Z</time>
      </trkpt>
      <trkpt lat="44.5129" lon="6.26526">
        <ele>1173</ele>
        <time>2016-05-06T07:32:28Z</time>
      </trkpt>
      <trkpt lat="44.51279" lon="6.26542">
        <ele>1175</ele>
        <time>2016-05-06T07:34:28Z</time>
      </trkpt>
      <trkpt lat="44.51268" lon="6.26556">
        <ele>1176</ele>
        <time>2016-05-06T07:36:28Z</time>
      </trkpt>
      <trkpt lat="44.51252" lon="6.26567">
        <ele>1181</ele>
        <time>2016-05-06T07:38:28Z</time>
      </trkpt>
      <trkpt lat="44.51241" lon="6.26573">
        <ele>1184</ele>
        <time>2016-05-06T07:40:28Z</time>
      </trkpt>
      <trkpt lat="44.51237" lon="6.26579">
        <ele>1185</ele>
        <time>2016-05-06T07:42:28Z</time>
      </trkpt>
      <trkpt lat="44.51237" lon="6.26591">
        <ele>1183</ele>
        <time>2016-05-06T07:44:28Z</time>
      </trkpt>
      <trkpt lat="44.51238" lon="6.26604">
        <ele>1180</ele>
        <time>2016-05-06T07:46:28Z</time>
      </trkpt>
      <trkpt lat="44.51236" lon="6.2661">
        <ele>1179</ele>
        <time>2016-05-06T07:48:28Z</time>
      </trkpt>
      <trkpt lat="44.51232" lon="6.26617">
        <ele>1179</ele>
        <time>2016-05-06T07:50:28Z</time>
      </trkpt>
      <trkpt lat="44.51222" lon="6.26631">
        <ele>1180</ele>
        <time>2016-05-06T07:52:28Z</time>
      </trkpt>
      <trkpt lat="44.51214" lon="6.26638">
        <ele>1181</ele>
        <time>2016-05-06T07:54:28Z</time>
      </trkpt>
      <trkpt lat="44.51205" lon="6.2665">
        <ele>1182</ele>
        <time>2016-05-06T07:56:28Z</time>
      </trkpt>
      <trkpt lat="44.51194" lon="6.26668">
        <ele>1181</ele>
        <time>2016-05-06T07:58:28Z</time>
      </trkpt>
      <trkpt lat="44.5118" lon="6.2669">
        <ele>1181</ele>
        <time>2016-05-06T08:00:28Z</time>
      </trkpt>
      <trkpt lat="44.51172" lon="6.26704">
        <ele>1180</ele>
        <time>2016-05-06T08:02:28Z</time>
      </trkpt>
      <trkpt lat="44.51163" lon="6.26713">
        <ele>1181</ele>
        <time>2016-05-06T08:04:28Z</time>
      </trkpt>
      <trkpt lat="44.51156" lon="6.26722">
        <ele>1181</ele>
        <time>2016-05-06T08:06:28Z</time>
      </trkpt>
      <trkpt lat="44.51149" lon="6.2673">
        <ele>1181</ele>
        <time>2016-05-06T08:08:28Z</time>
      </trkpt>
      <trkpt lat="44.51139" lon="6.26733">
        <ele>1183</ele>
        <time>2016-05-06T08:10:28Z</time>
      </trkpt>
      <trkpt lat="44.51126" lon="6.26733">
        <ele>1187</ele>
        <time>2016-05-06T08:12:28Z</time>
      </trkpt>
      <trkpt lat="44.51111" lon="6.26737">
        <ele>1191</ele>
        <time>2016-05-06T08:14:28Z</time>
      </trkpt>
      <trkpt lat="44.511" lon="6.26746">
        <ele>1191</ele>
        <time>2016-05-06T08:16:28Z</time>
      </trkpt>
      <trkpt lat="44.51091" lon="6.26753">
        <ele>1192</ele>
        <time>2016-05-06T08:18:28Z</time>
      </trkpt>
      <trkpt lat="44.51087" lon="6.26759">
        <ele>1191</ele>
        <time>2016-05-06T08:20:28Z</time>
      </trkpt>
      <trkpt lat="44.51085" lon="6.26767">
        <ele>1190</ele>
        <time>2016-05-06T08:22:28Z</time>
      </trkpt>
      <trkpt lat="44.51084" lon="6.26778">
        <ele>1187</ele>
        <time>2016-05-06T08:24:28Z</time>
      </trkpt>
      <trkpt lat="44.51081" lon="6.26788">
        <ele>1185</ele>
        <time>2016-05-06T08:26:28Z</time>
      </trkpt>
      <trkpt lat="44.51073" lon="6.26797">
        <ele>1185</ele>
        <time>2016-05-06T08:28:28Z</time>
      </trkpt>
      <trkpt lat="44.51062" lon="6.26806">
        <ele>1186</ele>
        <time>2016-05-06T08:30:28Z</time>
      </trkpt>
      <trkpt lat="44.51046" lon="6.2681">
        <ele>1191</ele>
        <time>2016-05-06T08:32:28Z</time>
      </trkpt>
      <trkpt lat="44.51036" lon="6.2681">
        <ele>1194</ele>
        <time>2016-05-06T08:34:28Z</time>
      </trkpt>
      <trkpt lat="44.51025" lon="6.26807">
        <ele>1199</ele>
        <time>2016-05-06T08:36:28Z</time>
      </trkpt>
      <trkpt lat="44.51016" lon="6.26808">
        <ele>1202</ele>
        <time>2016-05-06T08:38:28Z</time>
      </trkpt>
      <trkpt lat="44.51011" lon="6.26812">
        <ele>1203</ele>
        <time>2016-05-06T08:40:28Z</time>
      </trkpt>
      <trkpt lat="44.51007" lon="6.26818">
        <ele>1202</ele>
        <time>2016-05-06T08:42:28Z</time>
      </trkpt>
      <trkpt lat="44.51002" lon="6.26824">
        <ele>1202</ele>
        <time>2016-05-06T08:44:28Z</time>
      </trkpt>
      <trkpt lat="44.50993" lon="6.26833">
        <ele>1202</ele>
        <time>2016-05-06T08:46:28Z</time>
      </trkpt>
      <trkpt lat="44.50984" lon="6.26838">
        <ele>1205</ele>
        <time>2016-05-06T08:48:28Z</time>
      </trkpt>
      <trkpt lat="44.50981" lon="6.2684">
        <ele>1206</ele>
        <time>2016-05-06T08:50:28Z</time>
      </trkpt>
      <trkpt lat="44.50978" lon="6.26846">
        <ele>1206</ele>
        <time>2016-05-06T08:52:28Z</time>
      </trkpt>
      <trkpt lat="44.50977" lon="6.26856">
        <ele>1205</ele>
        <time>2016-05-06T08:54:28Z</time>
      </trkpt>
      <trkpt lat="44.50977" lon="6.2687">
        <ele>1202</ele>
        <time>2016-05-06T08:56:28Z</time>
      </trkpt>
      <trkpt lat="44.50975" lon="6.26892">
        <ele>1199</ele>
        <time>2016-05-06T08:58:28Z</time>
      </trkpt>
      <trkpt lat="44.50974" lon="6.26903">
        <ele>1197</ele>
        <time>2016-05-06T09:00:28Z</time>
      </trkpt>
      <trkpt lat="44.5097" lon="6.26912">
        <ele>1198</ele>
        <time>2016-05-06T09:02:28Z</time>
      </trkpt>
      <trkpt lat="44.50961" lon="6.26927">
        <ele>1200</ele>
        <time>2016-05-06T09:04:28Z</time>
      </trkpt>
      <trkpt lat="44.50957" lon="6.26935">
        <ele>1200</ele>
        <time>2016-05-06T09:06:28Z</time>
      </trkpt>
      <trkpt lat="44.50955" lon="6.26946">
        <ele>1200</ele>
        <time>2016-05-06T09:08:28Z</time>
      </trkpt>
      <trkpt lat="44.50953" lon="6.26968">
        <ele>1197</ele>
        <time>2016-05-06T09:10:28Z</time>
      </trkpt>
      <trkpt lat="44.5095" lon="6.26981">
        <ele>1197</ele>
        <time>2016-05-06T09:12:28Z</time>
      </trkpt>
      <trkpt lat="44.50948" lon="6.26985">
        <ele>1197</ele>
        <time>2016-05-06T09:14:28Z</time>
      </trkpt>
      <trkpt lat="44.50945" lon="6.26988">
        <ele>1198</ele>
        <time>2016-05-06T09:16:28Z</time>
      </trkpt>
      <trkpt lat="44.50931" lon="6.26997">
        <ele>1202</ele>
        <time>2016-05-06T09:18:28Z</time>
      </trkpt>
      <trkpt lat="44.50925" lon="6.27002">
        <ele>1204</ele>
        <time>2016-05-06T09:20:28Z</time>
      </trkpt>
      <trkpt lat="44.50921" lon="6.27009">
        <ele>1204</ele>
        <time>2016-05-06T09:22:28Z</time>
      </trkpt>
      <trkpt lat="44.50916" lon="6.27015">
        <ele>1205</ele>
        <time>2016-05-06T09:24:28Z</time>
      </trkpt>
      <trkpt lat="44.50907" lon="6.27022">
        <ele>1207</ele>
        <time>2016-05-06T09:26:28Z</time>
      </trkpt>
      <trkpt lat="44.50891" lon="6.27028">
        <ele>1212</ele>
        <time>2016-05-06T09:28:28Z</time>
      </trkpt>
      <trkpt lat="44.50878" lon="6.27034">
        <ele>1216</ele>
        <time>2016-05-06T09:30:28Z</time>
      </trkpt>
      <trkpt lat="44.50871" lon="6.2704">
        <ele>1217</ele>
        <time>2016-05-06T09:32:28Z</time>
      </trkpt>
      <trkpt lat="44.50859" lon="6.27051">
        <ele>1219</ele>
        <time>2016-05-06T09:34:28Z</time>
      </trkpt>
      <trkpt lat="44.50847" lon="6.2706">
        <ele>1222</ele>
        <time>2016-05-06T09:36:28Z</time>
      </trkpt>
      <trkpt lat="44.50842" lon="6.2707">
        <ele>1222</ele>
        <time>2016-05-06T09:38:28Z</time>
      </trkpt>
      <trkpt lat="44.50835" lon="6.27083">
        <ele>1221</ele>
        <time>2016-05-06T09:40:28Z</time>
      </trkpt>
      <trkpt lat="44.5083" lon="6.27097">
        <ele>1222</ele>
        <time>2016-05-06T09:42:28Z</time>
      </trkpt>
      <trkpt lat="44.5083" lon="6.27106">
        <ele>1221</ele>
        <time>2016-05-06T09:44:28Z</time>
      </trkpt>
      <trkpt lat="44.50826" lon="6.27131">
        <ele>1219</ele>
        <time>2016-05-06T09:46:28Z</time>
      </trkpt>
      <trkpt lat="44.50821" lon="6.27151">
        <ele>1219</ele>
        <time>2016-05-06T09:48:28Z</time>
      </trkpt>
      <trkpt lat="44.50815" lon="6.27169">
        <ele>1220</ele>
        <time>2016-05-06T09:50:28Z</time>
      </trkpt>
      <trkpt lat="44.50816" lon="6.27171">
        <ele>1219</ele>
        <time>2016-05-06T09:52:28Z</time>
      </trkpt>
      <trkpt lat="44.50817" lon="6.27173">
        <ele>1219</ele>
        <time>2016-05-06T09:54:28Z</time>
      </trkpt>
      <trkpt lat="44.50817" lon="6.27176">
        <ele>1218</ele>
        <time>2016-05-06T09:56:28Z</time>
      </trkpt>
      <trkpt lat="44.50816" lon="6.2718">
        <ele>1218</ele>
        <time>2016-05-06T09:58:28Z</time>
      </trkpt>
      <trkpt lat="44.50812" lon="6.27196">
        <ele>1219</ele>
        <time>2016-05-06T10:00:28Z</time>
      </trkpt>
      <trkpt lat="44.50808" lon="6.27209">
        <ele>1220</ele>
        <time>2016-05-06T10:02:28Z</time>
      </trkpt>
      <trkpt lat="44.50805" lon="6.27224">
        <ele>1221</ele>
        <time>2016-05-06T10:04:28Z</time>
      </trkpt>
      <trkpt lat="44.50803" lon="6.27241">
        <ele>1220</ele>
        <time>2016-05-06T10:06:28Z</time>
      </trkpt>
      <trkpt lat="44.50803" lon="6.27252">
        <ele>1219</ele>
        <time>2016-05-06T10:08:28Z</time>
      </trkpt>
      <trkpt lat="44.50803" lon="6.2726">
        <ele>1218</ele>
        <time>2016-05-06T10:10:28Z</time>
      </trkpt>
      <trkpt lat="44.50804" lon="6.27268">
        <ele>1217</ele>
        <time>2016-05-06T10:12:28Z</time>
      </trkpt>
      <trkpt lat="44.50805" lon="6.27276">
        <ele>1216</ele>
        <time>2016-05-06T10:14:28Z</time>
      </trkpt>
      <trkpt lat="44.50806" lon="6.27286">
        <ele>1215</ele>
        <time>2016-05-06T10:16:28Z</time>
      </trkpt>
      <trkpt lat="44.50807" lon="6.27294">
        <ele>1214</ele>
        <time>2016-05-06T10:18:28Z</time>
      </trkpt>
      <trkpt lat="44.50807" lon="6.27308">
        <ele>1212</ele>
        <time>2016-05-06T10:20:28Z</time>
      </trkpt>
      <trkpt lat="44.50807" lon="6.27321">
        <ele>1212</ele>
        <time>2016-05-06T10:22:28Z</time>
      </trkpt>
      <trkpt lat="44.50807" lon="6.27332">
        <ele>1211</ele>
        <time>2016-05-06T10:24:28Z</time>
      </trkpt>
      <trkpt lat="44.50807" lon="6.27344">
        <ele>1210</ele>
        <time>2016-05-06T10:26:28Z</time>
      </trkpt>
      <trkpt lat="44.50806" lon="6.27361">
        <ele>1208</ele>
        <time>2016-05-06T10:28:28Z</time>
      </trkpt>
      <trkpt lat="44.50806" lon="6.27374">
        <ele>1207</ele>
        <time>2016-05-06T10:30:28Z</time>
      </trkpt>
      <trkpt lat="44.50805" lon="6.27388">
        <ele>1206</ele>
        <time>2016-05-06T10:32:28Z</time>
      </trkpt>
      <trkpt lat="44.50804" lon="6.27398">
        <ele>1206</ele>
        <time>2016-05-06T10:34:28Z</time>
      </trkpt>
      <trkpt lat="44.50803" lon="6.2741">
        <ele>1205</ele>
        <time>2016-05-06T10:36:28Z</time>
      </trkpt>
      <trkpt lat="44.50801" lon="6.27426">
        <ele>1204</ele>
        <time>2016-05-06T10:38:28Z</time>
      </trkpt>
      <trkpt lat="44.50798" lon="6.27445">
        <ele>1202</ele>
        <time>2016-05-06T10:40:28Z</time>
      </trkpt>
      <trkpt lat="44.50795" lon="6.27465">
        <ele>1200</ele>
        <time>2016-05-06T10:42:28Z</time>
      </trkpt>
      <trkpt lat="44.50791" lon="6.27479">
        <ele>1199</ele>
        <time>2016-05-06T10:44:28Z</time>
      </trkpt>
      <trkpt lat="44.50789" lon="6.27494">
        <ele>1197</ele>
        <time>2016-05-06T10:46:28Z</time>
      </trkpt>
      <trkpt lat="44.50788" lon="6.27502">
        <ele>1196</ele>
        <time>2016-05-06T10:48:28Z</time>
      </trkpt>
      <trkpt lat="44.50787" lon="6.27514">
        <ele>1194</ele>
        <time>2016-05-06T10:50:28Z</time>
      </trkpt>
      <trkpt lat="44.50785" lon="6.27521">
        <ele>1193</ele>
        <time>2016-05-06T10:52:28Z</time>
      </trkpt>
      <trkpt lat="44.5078" lon="6.27532">
        <ele>1192</ele>
        <time>2016-05-06T10:54:28Z</time>
      </trkpt>
      <trkpt lat="44.50771" lon="6.2755">
        <ele>1192</ele>
        <time>2016-05-06T10:56:28Z</time>
      </trkpt>
      <trkpt lat="44.50766" lon="6.27559">
        <ele>1192</ele>
        <time>2016-05-06T10:58:28Z</time>
      </trkpt>
      <trkpt lat="44.50762" lon="6.27572">
        <ele>1190</ele>
        <time>2016-05-06T11:00:28Z</time>
      </trkpt>
      <trkpt lat="44.50759" lon="6.27583">
        <ele>1189</ele>
        <time>2016-05-06T11:02:28Z</time>
      </trkpt>
      <trkpt lat="44.50754" lon="6.27594">
        <ele>1189</ele>
        <time>2016-05-06T11:04:28Z</time>
      </trkpt>
      <trkpt lat="44.5075" lon="6.27602">
        <ele>1189</ele>
        <time>2016-05-06T11:06:28Z</time>
      </trkpt>
      <trkpt lat="44.5074" lon="6.27617">
        <ele>1189</ele>
        <time>2016-05-06T11:08:28Z</time>
      </trkpt>
      <trkpt lat="44.50731" lon="6.27631">
        <ele>1188</ele>
        <time>2016-05-06T11:10:28Z</time>
      </trkpt>
      <trkpt lat="44.50725" lon="6.27641">
        <ele>1188</ele>
        <time>2016-05-06T11:12:28Z</time>
      </trkpt>
      <trkpt lat="44.50721" lon="6.27651">
        <ele>1187</ele>
        <time>2016-05-06T11:14:28Z</time>
      </trkpt>
      <trkpt lat="44.50718" lon="6.2766">
        <ele>1186</ele>
        <time>2016-05-06T11:16:28Z</time>
      </trkpt>
      <trkpt lat="44.50716" lon="6.27668">
        <ele>1185</ele>
        <time>2016-05-06T11:18:28Z</time>
      </trkpt>
      <trkpt lat="44.50714" lon="6.2768">
        <ele>1184</ele>
        <time>2016-05-06T11:20:28Z</time>
      </trkpt>
      <trkpt lat="44.50713" lon="6.27694">
        <ele>1182</ele>
        <time>2016-05-06T11:22:28Z</time>
      </trkpt>
      <trkpt lat="44.50713" lon="6.27707">
        <ele>1181</ele>
        <time>2016-05-06T11:24:28Z</time>
      </trkpt>
      <trkpt lat="44.50711" lon="6.27726">
        <ele>1178</ele>
        <time>2016-05-06T11:26:28Z</time>
      </trkpt>
      <trkpt lat="44.5071" lon="6.27742">
        <ele>1176</ele>
        <time>2016-05-06T11:28:28Z</time>
      </trkpt>
      <trkpt lat="44.50707" lon="6.27751">
        <ele>1176</ele>
        <time>2016-05-06T11:30:28Z</time>
      </trkpt>
      <trkpt lat="44.50704" lon="6.2776">
        <ele>1175</ele>
        <time>2016-05-06T11:32:28Z</time>
      </trkpt>
      <trkpt lat="44.50701" lon="6.27765">
        <ele>1175</ele>
        <time>2016-05-06T11:34:28Z</time>
      </trkpt>
      <trkpt lat="44.50697" lon="6.27769">
        <ele>1176</ele>
        <time>2016-05-06T11:36:28Z</time>
      </trkpt>
      <trkpt lat="44.50691" lon="6.27773">
        <ele>1177</ele>
        <time>2016-05-06T11:38:28Z</time>
      </trkpt>
      <trkpt lat="44.50687" lon="6.27776">
        <ele>1178</ele>
        <time>2016-05-06T11:40:28Z</time>
      </trkpt>
      <trkpt lat="44.50683" lon="6.27779">
        <ele>1178</ele>
        <time>2016-05-06T11:42:28Z</time>
      </trkpt>
      <trkpt lat="44.50681" lon="6.27783">
        <ele>1178</ele>
        <time>2016-05-06T11:44:28Z</time>
      </trkpt>
      <trkpt lat="44.50679" lon="6.27789">
        <ele>1178</ele>
        <time>2016-05-06T11:46:28Z</time>
      </trkpt>
      <trkpt lat="44.50679" lon="6.27798">
        <ele>1177</ele>
        <time>2016-05-06T11:48:28Z</time>
      </trkpt>
      <trkpt lat="44.5068" lon="6.27806">
        <ele>1176</ele>
        <time>2016-05-06T11:50:28Z</time>
      </trkpt>
      <trkpt lat="44.50683" lon="6.27814">
        <ele>1174</ele>
        <time>2016-05-06T11:52:28Z</time>
      </trkpt>
      <trkpt lat="44.50686" lon="6.27822">
        <ele>1172</ele>
        <time>2016-05-06T11:54:28Z</time>
      </trkpt>
      <trkpt lat="44.50688" lon="6.27831">
        <ele>1171</ele>
        <time>2016-05-06T11:56:28Z</time>
      </trkpt>
      <trkpt lat="44.50689" lon="6.2784">
        <ele>1169</ele>
        <time>2016-05-06T11:58:28Z</time>
      </trkpt>
      <trkpt lat="44.5069" lon="6.27851">
        <ele>1168</ele>
        <time>2016-05-06T12:00:28Z</time>
      </trkpt>
      <trkpt lat="44.50692" lon="6.2786">
        <ele>1166</ele>
        <time>2016-05-06T12:02:28Z</time>
      </trkpt>
      <trkpt lat="44.50694" lon="6.2787">
        <ele>1165</ele>
        <time>2016-05-06T12:04:28Z</time>
      </trkpt>
      <trkpt lat="44.50697" lon="6.27879">
        <ele>1163</ele>
        <time>2016-05-06T12:06:28Z</time>
      </trkpt>
      <trkpt lat="44.50699" lon="6.27887">
        <ele>1162</ele>
        <time>2016-05-06T12:08:28Z</time>
      </trkpt>
      <trkpt lat="44.507" lon="6.27894">
        <ele>1161</ele>
        <time>2016-05-06T12:10:28Z</time>
      </trkpt>
      <trkpt lat="44.50701" lon="6.27902">
        <ele>1160</ele>
        <time>2016-05-06T12:12:28Z</time>
      </trkpt>
      <trkpt lat="44.507" lon="6.27911">
        <ele>1159</ele>
        <time>2016-05-06T12:14:28Z</time>
      </trkpt>
      <trkpt lat="44.50698" lon="6.27928">
        <ele>1158</ele>
        <time>2016-05-06T12:16:28Z</time>
      </trkpt>
      <trkpt lat="44.50698" lon="6.27942">
        <ele>1157</ele>
        <time>2016-05-06T12:18:28Z</time>
      </trkpt>
      <trkpt lat="44.50698" lon="6.2796">
        <ele>1155</ele>
        <time>2016-05-06T12:20:28Z</time>
      </trkpt>
      <trkpt lat="44.50696" lon="6.27974">
        <ele>1154</ele>
        <time>2016-05-06T12:22:28Z</time>
      </trkpt>
      <trkpt lat="44.50695" lon="6.2799">
        <ele>1153</ele>
        <time>2016-05-06T12:24:28Z</time>
      </trkpt>
      <trkpt lat="44.50696" lon="6.28">
        <ele>1152</ele>
        <time>2016-05-06T12:26:28Z</time>
      </trkpt>
      <trkpt lat="44.50696" lon="6.28008">
        <ele>1151</ele>
        <time>2016-05-06T12:28:28Z</time>
      </trkpt>
      <trkpt lat="44.50695" lon="6.28015">
        <ele>1151</ele>
        <time>2016-05-06T12:30:28Z</time>
      </trkpt>
      <trkpt lat="44.50694" lon="6.28022">
        <ele>1150</ele>
        <time>2016-05-06T12:32:28Z</time>
      </trkpt>
      <trkpt lat="44.50692" lon="6.28031">
        <ele>1150</ele>
        <time>2016-05-06T12:34:28Z</time>
      </trkpt>
      <trkpt lat="44.5069" lon="6.28039">
        <ele>1150</ele>
        <time>2016-05-06T12:36:28Z</time>
      </trkpt>
      <trkpt lat="44.5069" lon="6.28046">
        <ele>1149</ele>
        <time>2016-05-06T12:38:28Z</time>
      </trkpt>
      <trkpt lat="44.5069" lon="6.28052">
        <ele>1148</ele>
        <time>2016-05-06T12:40:28Z</time>
      </trkpt>
      <trkpt lat="44.5069" lon="6.28061">
        <ele>1147</ele>
        <time>2016-05-06T12:42:28Z</time>
      </trkpt>
      <trkpt lat="44.5069" lon="6.28067">
        <ele>1147</ele>
        <time>2016-05-06T12:44:28Z</time>
      </trkpt>
      <trkpt lat="44.5069" lon="6.28074">
        <ele>1146</ele>
        <time>2016-05-06T12:46:28Z</time>
      </trkpt>
      <trkpt lat="44.50689" lon="6.28081">
        <ele>1145</ele>
        <time>2016-05-06T12:48:28Z</time>
      </trkpt>
      <trkpt lat="44.50688" lon="6.28086">
        <ele>1145</ele>
        <time>2016-05-06T12:50:28Z</time>
      </trkpt>
      <trkpt lat="44.50688" lon="6.28091">
        <ele>1144</ele>
        <time>2016-05-06T12:52:28Z</time>
      </trkpt>
      <trkpt lat="44.50688" lon="6.28102">
        <ele>1143</ele>
        <time>2016-05-06T12:54:28Z</time>
      </trkpt>
      <trkpt lat="44.50689" lon="6.28111">
        <ele>1142</ele>
        <time>2016-05-06T12:56:28Z</time>
      </trkpt>
      <trkpt lat="44.5069" lon="6.28117">
        <ele>1141</ele>
        <time>2016-05-06T12:58:28Z</time>
      </trkpt>
      <trkpt lat="44.5069" lon="6.28124">
        <ele>1140</ele>
        <time>2016-05-06T13:00:28Z</time>
      </trkpt>
      <trkpt lat="44.5069" lon="6.28133">
        <ele>1138</ele>
        <time>2016-05-06T13:02:28Z</time>
      </trkpt>
      <trkpt lat="44.50689" lon="6.28143">
        <ele>1137</ele>
        <time>2016-05-06T13:04:28Z</time>
      </trkpt>
      <trkpt lat="44.50688" lon="6.28152">
        <ele>1137</ele>
        <time>2016-05-06T13:06:28Z</time>
      </trkpt>
      <trkpt lat="44.50688" lon="6.28164">
        <ele>1135</ele>
        <time>2016-05-06T13:08:28Z</time>
      </trkpt>
      <trkpt lat="44.50688" lon="6.28176">
        <ele>1134</ele>
        <time>2016-05-06T13:10:28Z</time>
      </trkpt>
      <trkpt lat="44.50688" lon="6.2819">
        <ele>1132</ele>
        <time>2016-05-06T13:12:28Z</time>
      </trkpt>
      <trkpt lat="44.50687" lon="6.28204">
        <ele>1131</ele>
        <time>2016-05-06T13:14:28Z</time>
      </trkpt>
      <trkpt lat="44.50685" lon="6.2822">
        <ele>1130</ele>
        <time>2016-05-06T13:16:28Z</time>
      </trkpt>
      <trkpt lat="44.50683" lon="6.28236">
        <ele>1128</ele>
        <time>2016-05-06T13:18:28Z</time>
      </trkpt>
      <trkpt lat="44.5068" lon="6.28248">
        <ele>1127</ele>
        <time>2016-05-06T13:20:28Z</time>
      </trkpt>
      <trkpt lat="44.50678" lon="6.28258">
        <ele>1127</ele>
        <time>2016-05-06T13:22:28Z</time>
      </trkpt>
      <trkpt lat="44.50678" lon="6.28266">
        <ele>1126</ele>
        <time>2016-05-06T13:24:28Z</time>
      </trkpt>
      <trkpt lat="44.50677" lon="6.28274">
        <ele>1125</ele>
        <time>2016-05-06T13:26:28Z</time>
      </trkpt>
      <trkpt lat="44.50677" lon="6.2828">
        <ele>1124</ele>
        <time>2016-05-06T13:28:28Z</time>
      </trkpt>
      <trkpt lat="44.50676" lon="6.28288">
        <ele>1124</ele>
        <time>2016-05-06T13:30:28Z</time>
      </trkpt>
      <trkpt lat="44.50674" lon="6.28297">
        <ele>1123</ele>
        <time>2016-05-06T13:32:28Z</time>
      </trkpt>
      <trkpt lat="44.50673" lon="6.28307">
        <ele>1122</ele>
        <time>2016-05-06T13:34:28Z</time>
      </trkpt>
      <trkpt lat="44.50672" lon="6.28317">
        <ele>1121</ele>
        <time>2016-05-06T13:36:28Z</time>
      </trkpt>
      <trkpt lat="44.50672" lon="6.2832">
        <ele>1120</ele>
        <time>2016-05-06T13:38:28Z</time>
      </trkpt>
      <trkpt lat="44.50672" lon="6.28325">
        <ele>1120</ele>
        <time>2016-05-06T13:40:28Z</time>
      </trkpt>
      <trkpt lat="44.50672" lon="6.28332">
        <ele>1119</ele>
        <time>2016-05-06T13:42:28Z</time>
      </trkpt>
      <trkpt lat="44.50674" lon="6.28339">
        <ele>1118</ele>
        <time>2016-05-06T13:44:28Z</time>
      </trkpt>
      <trkpt lat="44.50677" lon="6.28345">
        <ele>1117</ele>
        <time>2016-05-06T13:46:28Z</time>
      </trkpt>
      <trkpt lat="44.50681" lon="6.28352">
        <ele>1116</ele>
        <time>2016-05-06T13:48:28Z</time>
      </trkpt>
      <trkpt lat="44.50692" lon="6.2836">
        <ele>1115</ele>
        <time>2016-05-06T13:50:28Z</time>
      </trkpt>
      <trkpt lat="44.50705" lon="6.28374">
        <ele>1113</ele>
        <time>2016-05-06T13:52:28Z</time>
      </trkpt>
      <trkpt lat="44.50712" lon="6.28381">
        <ele>1112</ele>
        <time>2016-05-06T13:54:28Z</time>
      </trkpt>
      <trkpt lat="44.50717" lon="6.28386">
        <ele>1111</ele>
        <time>2016-05-06T13:56:28Z</time>
      </trkpt>
      <trkpt lat="44.5072" lon="6.2839">
        <ele>1111</ele>
        <time>2016-05-06T13:58:28Z</time>
      </trkpt>
      <trkpt lat="44.50722" lon="6.28396">
        <ele>1110</ele>
        <time>2016-05-06T14:00:28Z</time>
      </trkpt>
      <trkpt lat="44.50723" lon="6.284">
        <ele>1110</ele>
        <time>2016-05-06T14:02:28Z</time>
      </trkpt>
      <trkpt lat="44.50724" lon="6.28413">
        <ele>1109</ele>
        <time>2016-05-06T14:04:28Z</time>
      </trkpt>
      <trkpt lat="44.50722" lon="6.28424">
        <ele>1108</ele>
        <time>2016-05-06T14:06:28Z</time>
      </trkpt>
      <trkpt lat="44.50722" lon="6.28424">
        <ele>1108</ele>
        <time>2016-05-06T14:08:28Z</time>
      </trkpt>
      <trkpt lat="44.50712" lon="6.28414">
        <ele>1108</ele>
        <time>2016-05-06T14:10:28Z</time>
      </trkpt>
      <trkpt lat="44.50702" lon="6.28406">
        <ele>1109</ele>
        <time>2016-05-06T14:12:28Z</time>
      </trkpt>
      <trkpt lat="44.50701" lon="6.28406">
        <ele>1109</ele>
        <time>2016-05-06T14:14:28Z</time>
      </trkpt>
      <trkpt lat="44.50691" lon="6.28398">
        <ele>1110</ele>
        <time>2016-05-06T14:16:28Z</time>
      </trkpt>
      <trkpt lat="44.50683" lon="6.28392">
        <ele>1111</ele>
        <time>2016-05-06T14:18:28Z</time>
      </trkpt>
      <trkpt lat="44.5068" lon="6.2839">
        <ele>1111</ele>
        <time>2016-05-06T14:20:28Z</time>
      </trkpt>
      <trkpt lat="44.50676" lon="6.28388">
        <ele>1111</ele>
        <time>2016-05-06T14:22:28Z</time>
      </trkpt>
      <trkpt lat="44.50668" lon="6.28383">
        <ele>1112</ele>
        <time>2016-05-06T14:24:28Z</time>
      </trkpt>
      <trkpt lat="44.50658" lon="6.28378">
        <ele>1112</ele>
        <time>2016-05-06T14:26:28Z</time>
      </trkpt>
      <trkpt lat="44.50649" lon="6.28374">
        <ele>1113</ele>
        <time>2016-05-06T14:28:28Z</time>
      </trkpt>
      <trkpt lat="44.50639" lon="6.2837">
        <ele>1114</ele>
        <time>2016-05-06T14:30:28Z</time>
      </trkpt>
      <trkpt lat="44.50631" lon="6.28368">
        <ele>1114</ele>
        <time>2016-05-06T14:32:28Z</time>
      </trkpt>
      <trkpt lat="44.50623" lon="6.28368">
        <ele>1114</ele>
        <time>2016-05-06T14:34:28Z</time>
      </trkpt>
      <trkpt lat="44.50613" lon="6.28367">
        <ele>1114</ele>
        <time>2016-05-06T14:36:28Z</time>
      </trkpt>
      <trkpt lat="44.50598" lon="6.28367">
        <ele>1115</ele>
        <time>2016-05-06T14:38:28Z</time>
      </trkpt>
      <trkpt lat="44.50583" lon="6.28368">
        <ele>1114</ele>
        <time>2016-05-06T14:40:28Z</time>
      </trkpt>
      <trkpt lat="44.50572" lon="6.28369">
        <ele>1115</ele>
        <time>2016-05-06T14:42:28Z</time>
      </trkpt>
      <trkpt lat="44.50561" lon="6.28374">
        <ele>1115</ele>
        <time>2016-05-06T14:44:28Z</time>
      </trkpt>
      <trkpt lat="44.50544" lon="6.28384">
        <ele>1113</ele>
        <time>2016-05-06T14:46:28Z</time>
      </trkpt>
      <trkpt lat="44.50522" lon="6.28396">
        <ele>1111</ele>
        <time>2016-05-06T14:48:28Z</time>
      </trkpt>
      <trkpt lat="44.50504" lon="6.28404">
        <ele>1111</ele>
        <time>2016-05-06T14:50:28Z</time>
      </trkpt>
      <trkpt lat="44.5049" lon="6.28411">
        <ele>1109</ele>
        <time>2016-05-06T14:52:28Z</time>
      </trkpt>
      <trkpt lat="44.50476" lon="6.28416">
        <ele>1109</ele>
        <time>2016-05-06T14:54:28Z</time>
      </trkpt>
      <trkpt lat="44.50473" lon="6.28416">
        <ele>1109</ele>
        <time>2016-05-06T14:56:28Z</time>
      </trkpt>
      <trkpt lat="44.50457" lon="6.2842">
        <ele>1108</ele>
        <time>2016-05-06T14:58:28Z</time>
      </trkpt>
      <trkpt lat="44.50431" lon="6.28426">
        <ele>1108</ele>
        <time>2016-05-06T15:00:28Z</time>
      </trkpt>
      <trkpt lat="44.50408" lon="6.28433">
        <ele>1106</ele>
        <time>2016-05-06T15:02:28Z</time>
      </trkpt>
      <trkpt lat="44.50384" lon="6.2844">
        <ele>1103</ele>
        <time>2016-05-06T15:04:28Z</time>
      </trkpt>
      <trkpt lat="44.50358" lon="6.28448">
        <ele>1100</ele>
        <time>2016-05-06T15:06:28Z</time>
      </trkpt>
      <trkpt lat="44.50338" lon="6.28454">
        <ele>1097</ele>
        <time>2016-05-06T15:08:28Z</time>
      </trkpt>
      <trkpt lat="44.50313" lon="6.28461">
        <ele>1095</ele>
        <time>2016-05-06T15:10:28Z</time>
      </trkpt>
      <trkpt lat="44.50285" lon="6.28471">
        <ele>1093</ele>
        <time>2016-05-06T15:12:28Z</time>
      </trkpt>
      <trkpt lat="44.50268" lon="6.28476">
        <ele>1091</ele>
        <time>2016-05-06T15:14:28Z</time>
      </trkpt>
      <trkpt lat="44.50258" lon="6.28478">
        <ele>1091</ele>
        <time>2016-05-06T15:16:28Z</time>
      </trkpt>
      <trkpt lat="44.5024" lon="6.2848">
        <ele>1089</ele>
        <time>2016-05-06T15:18:28Z</time>
      </trkpt>
      <trkpt lat="44.50218" lon="6.28481">
        <ele>1087</ele>
        <time>2016-05-06T15:20:28Z</time>
      </trkpt>
      <trkpt lat="44.50196" lon="6.2848">
        <ele>1085</ele>
        <time>2016-05-06T15:22:28Z</time>
      </trkpt>
      <trkpt lat="44.50174" lon="6.28477">
        <ele>1084</ele>
        <time>2016-05-06T15:24:28Z</time>
      </trkpt>
      <trkpt lat="44.50141" lon="6.28468">
        <ele>1082</ele>
        <time>2016-05-06T15:26:28Z</time>
      </trkpt>
      <trkpt lat="44.50104" lon="6.2846">
        <ele>1079</ele>
        <time>2016-05-06T15:28:28Z</time>
      </trkpt>
      <trkpt lat="44.50065" lon="6.28452">
        <ele>1075</ele>
        <time>2016-05-06T15:30:28Z</time>
      </trkpt>
      <trkpt lat="44.5002" lon="6.28443">
        <ele>1071</ele>
        <time>2016-05-06T15:32:28Z</time>
      </trkpt>
      <trkpt lat="44.49981" lon="6.28433">
        <ele>1067</ele>
        <time>2016-05-06T15:34:28Z</time>
      </trkpt>
      <trkpt lat="44.49943" lon="6.28425">
        <ele>1061</ele>
        <time>2016-05-06T15:36:28Z</time>
      </trkpt>
      <trkpt lat="44.49919" lon="6.28421">
        <ele>1057</ele>
        <time>2016-05-06T15:38:28Z</time>
      </trkpt>
      <trkpt lat="44.499" lon="6.28419">
        <ele>1056</ele>
        <time>2016-05-06T15:40:28Z</time>
      </trkpt>
      <trkpt lat="44.49882" lon="6.28417">
        <ele>1055</ele>
        <time>2016-05-06T15:42:28Z</time>
      </trkpt>
      <trkpt lat="44.49861" lon="6.28415">
        <ele>1054</ele>
        <time>2016-05-06T15:44:28Z</time>
      </trkpt>
      <trkpt lat="44.49844" lon="6.28413">
        <ele>1053</ele>
        <time>2016-05-06T15:46:28Z</time>
      </trkpt>
      <trkpt lat="44.49823" lon="6.2841">
        <ele>1052</ele>
        <time>2016-05-06T15:48:28Z</time>
      </trkpt>
      <trkpt lat="44.49808" lon="6.28409">
        <ele>1051</ele>
        <time>2016-05-06T15:50:28Z</time>
      </trkpt>
      <trkpt lat="44.49795" lon="6.2841">
        <ele>1049</ele>
        <time>2016-05-06T15:52:28Z</time>
      </trkpt>
      <trkpt lat="44.4977" lon="6.28413">
        <ele>1046</ele>
        <time>2016-05-06T15:54:28Z</time>
      </trkpt>
      <trkpt lat="44.49737" lon="6.28416">
        <ele>1042</ele>
        <time>2016-05-06T15:56:28Z</time>
      </trkpt>
      <trkpt lat="44.49706" lon="6.28418">
        <ele>1040</ele>
        <time>2016-05-06T15:58:28Z</time>
      </trkpt>
      <trkpt lat="44.49691" lon="6.28422">
        <ele>1038</ele>
        <time>2016-05-06T16:00:28Z</time>
      </trkpt>
      <trkpt lat="44.49679" lon="6.28428">
        <ele>1036</ele>
        <time>2016-05-06T16:02:28Z</time>
      </trkpt>
      <trkpt lat="44.49663" lon="6.28438">
        <ele>1033</ele>
        <time>2016-05-06T16:04:28Z</time>
      </trkpt>
      <trkpt lat="44.49645" lon="6.28454">
        <ele>1029</ele>
        <time>2016-05-06T16:06:28Z</time>
      </trkpt>
      <trkpt lat="44.49628" lon="6.28466">
        <ele>1026</ele>
        <time>2016-05-06T16:08:28Z</time>
      </trkpt>
      <trkpt lat="44.49615" lon="6.28478">
        <ele>1024</ele>
        <time>2016-05-06T16:10:28Z</time>
      </trkpt>
      <trkpt lat="44.49607" lon="6.28483">
        <ele>1024</ele>
        <time>2016-05-06T16:12:28Z</time>
      </trkpt>
      <trkpt lat="44.496" lon="6.28486">
        <ele>1024</ele>
        <time>2016-05-06T16:14:28Z</time>
      </trkpt>
      <trkpt lat="44.49592" lon="6.28488">
        <ele>1024</ele>
        <time>2016-05-06T16:16:28Z</time>
      </trkpt>
      <trkpt lat="44.49586" lon="6.28488">
        <ele>1024</ele>
        <time>2016-05-06T16:18:28Z</time>
      </trkpt>
      <trkpt lat="44.4958" lon="6.28488">
        <ele>1023</ele>
        <time>2016-05-06T16:20:28Z</time>
      </trkpt>
      <trkpt lat="44.49573" lon="6.28488">
        <ele>1023</ele>
        <time>2016-05-06T16:22:28Z</time>
      </trkpt>
      <trkpt lat="44.49566" lon="6.28485">
        <ele>1022</ele>
        <time>2016-05-06T16:24:28Z</time>
      </trkpt>
      <trkpt lat="44.49557" lon="6.28482">
        <ele>1022</ele>
        <time>2016-05-06T16:26:28Z</time>
      </trkpt>
      <trkpt lat="44.49554" lon="6.2848">
        <ele>1021</ele>
        <time>2016-05-06T16:28:28Z</time>
      </trkpt>
      <trkpt lat="44.49544" lon="6.28471">
        <ele>1021</ele>
        <time>2016-05-06T16:30:28Z</time>
      </trkpt>
      <trkpt lat="44.49536" lon="6.28463">
        <ele>1020</ele>
        <time>2016-05-06T16:32:28Z</time>
      </trkpt>
      <trkpt lat="44.49529" lon="6.28453">
        <ele>1019</ele>
        <time>2016-05-06T16:34:28Z</time>
      </trkpt>
      <trkpt lat="44.49524" lon="6.28444">
        <ele>1018</ele>
        <time>2016-05-06T16:36:28Z</time>
      </trkpt>
      <trkpt lat="44.4952" lon="6.28435">
        <ele>1018</ele>
        <time>2016-05-06T16:38:28Z</time>
      </trkpt>
      <trkpt lat="44.49517" lon="6.28426">
        <ele>1017</ele>
        <time>2016-05-06T16:40:28Z</time>
      </trkpt>
      <trkpt lat="44.49515" lon="6.28415">
        <ele>1016</ele>
        <time>2016-05-06T16:42:28Z</time>
      </trkpt>
      <trkpt lat="44.49514" lon="6.28403">
        <ele>1016</ele>
        <time>2016-05-06T16:44:28Z</time>
      </trkpt>
      <trkpt lat="44.49512" lon="6.28374">
        <ele>1015</ele>
        <time>2016-05-06T16:46:28Z</time>
      </trkpt>
      <trkpt lat="44.49508" lon="6.283">
        <ele>1009</ele>
        <time>2016-05-06T16:48:28Z</time>
      </trkpt>
      <trkpt lat="44.49506" lon="6.28258">
        <ele>1004</ele>
        <time>2016-05-06T16:50:28Z</time>
      </trkpt>
      <trkpt lat="44.49505" lon="6.28246">
        <ele>1003</ele>
        <time>2016-05-06T16:52:28Z</time>
      </trkpt>
      <trkpt lat="44.49502" lon="6.28232">
        <ele>1003</ele>
        <time>2016-05-06T16:54:28Z</time>
      </trkpt>
      <trkpt lat="44.49499" lon="6.28219">
        <ele>1003</ele>
        <time>2016-05-06T16:56:28Z</time>
      </trkpt>
      <trkpt lat="44.49492" lon="6.28206">
        <ele>1002</ele>
        <time>2016-05-06T16:58:28Z</time>
      </trkpt>
      <trkpt lat="44.4947" lon="6.28173">
        <ele>999</ele>
        <time>2016-05-06T17:00:28Z</time>
      </trkpt>
      <trkpt lat="44.4943" lon="6.28118">
        <ele>999</ele>
        <time>2016-05-06T17:02:28Z</time>
      </trkpt>
      <trkpt lat="44.49414" lon="6.28097">
        <ele>999</ele>
        <time>2016-05-06T17:04:28Z</time>
      </trkpt>
      <trkpt lat="44.49404" lon="6.28086">
        <ele>999</ele>
        <time>2016-05-06T17:06:28Z</time>
      </trkpt>
      <trkpt lat="44.4939" lon="6.28074">
        <ele>998</ele>
        <time>2016-05-06T17:08:28Z</time>
      </trkpt>
      <trkpt lat="44.49376" lon="6.28064">
        <ele>997</ele>
        <time>2016-05-06T17:10:28Z</time>
      </trkpt>
      <trkpt lat="44.49362" lon="6.28058">
        <ele>995</ele>
        <time>2016-05-06T17:12:28Z</time>
      </trkpt>
      <trkpt lat="44.49353" lon="6.28055">
        <ele>994</ele>
        <time>2016-05-06T17:14:28Z</time>
      </trkpt>
      <trkpt lat="44.49341" lon="6.28054">
        <ele>991</ele>
        <time>2016-05-06T17:16:28Z</time>
      </trkpt>
      <trkpt lat="44.49329" lon="6.28054">
        <ele>990</ele>
        <time>2016-05-06T17:18:28Z</time>
      </trkpt>
      <trkpt lat="44.49316" lon="6.28057">
        <ele>990</ele>
        <time>2016-05-06T17:20:28Z</time>
      </trkpt>
      <trkpt lat="44.493" lon="6.28062">
        <ele>990</ele>
        <time>2016-05-06T17:22:28Z</time>
      </trkpt>
      <trkpt lat="44.49286" lon="6.28069">
        <ele>989</ele>
        <time>2016-05-06T17:24:28Z</time>
      </trkpt>
      <trkpt lat="44.49264" lon="6.28086">
        <ele>984</ele>
        <time>2016-05-06T17:26:28Z</time>
      </trkpt>
      <trkpt lat="44.49241" lon="6.28105">
        <ele>976</ele>
        <time>2016-05-06T17:28:28Z</time>
      </trkpt>
      <trkpt lat="44.49219" lon="6.28118">
        <ele>972</ele>
        <time>2016-05-06T17:30:28Z</time>
      </trkpt>
      <trkpt lat="44.49197" lon="6.28129">
        <ele>968</ele>
        <time>2016-05-06T17:32:28Z</time>
      </trkpt>
      <trkpt lat="44.49184" lon="6.28132">
        <ele>967</ele>
        <time>2016-05-06T17:34:28Z</time>
      </trkpt>
      <trkpt lat="44.49178" lon="6.28132">
        <ele>967</ele>
        <time>2016-05-06T17:36:28Z</time>
      </trkpt>
      <trkpt lat="44.4917" lon="6.28132">
        <ele>968</ele>
        <time>2016-05-06T17:38:28Z</time>
      </trkpt>
      <trkpt lat="44.49159" lon="6.28129">
        <ele>969</ele>
        <time>2016-05-06T17:40:28Z</time>
      </trkpt>
      <trkpt lat="44.49134" lon="6.28119">
        <ele>968</ele>
        <time>2016-05-06T17:42:28Z</time>
      </trkpt>
      <trkpt lat="44.4909" lon="6.28093">
        <ele>969</ele>
        <time>2016-05-06T17:44:28Z</time>
      </trkpt>
      <trkpt lat="44.49062" lon="6.28076">
        <ele>970</ele>
        <time>2016-05-06T17:46:28Z</time>
      </trkpt>
      <trkpt lat="44.49055" lon="6.28073">
        <ele>969</ele>
        <time>2016-05-06T17:48:28Z</time>
      </trkpt>
      <trkpt lat="44.49047" lon="6.2807">
        <ele>969</ele>
        <time>2016-05-06T17:50:28Z</time>
      </trkpt>
      <trkpt lat="44.49037" lon="6.28069">
        <ele>967</ele>
        <time>2016-05-06T17:52:28Z</time>
      </trkpt>
      <trkpt lat="44.49025" lon="6.28069">
        <ele>964</ele>
        <time>2016-05-06T17:54:28Z</time>
      </trkpt>
      <trkpt lat="44.49015" lon="6.28068">
        <ele>962</ele>
        <time>2016-05-06T17:56:28Z</time>
      </trkpt>
      <trkpt lat="44.49007" lon="6.28066">
        <ele>962</ele>
        <time>2016-05-06T17:58:28Z</time>
      </trkpt>
      <trkpt lat="44.48995" lon="6.28062">
        <ele>961</ele>
        <time>2016-05-06T18:00:28Z</time>
      </trkpt>
      <trkpt lat="44.48982" lon="6.28054">
        <ele>964</ele>
        <time>2016-05-06T18:02:28Z</time>
      </trkpt>
      <trkpt lat="44.48972" lon="6.28051">
        <ele>965</ele>
        <time>2016-05-06T18:04:28Z</time>
      </trkpt>
      <trkpt lat="44.48963" lon="6.28049">
        <ele>965</ele>
        <time>2016-05-06T18:06:28Z</time>
      </trkpt>
      <trkpt lat="44.48954" lon="6.28049">
        <ele>965</ele>
        <time>2016-05-06T18:08:28Z</time>
      </trkpt>
      <trkpt lat="44.48942" lon="6.28051">
        <ele>963</ele>
        <time>2016-05-06T18:10:28Z</time>
      </trkpt>
      <trkpt lat="44.48913" lon="6.2806">
        <ele>957</ele>
        <time>2016-05-06T18:12:28Z</time>
      </trkpt>
      <trkpt lat="44.48871" lon="6.28071">
        <ele>949</ele>
        <time>2016-05-06T18:14:28Z</time>
      </trkpt>
      <trkpt lat="44.48857" lon="6.28074">
        <ele>946</ele>
        <time>2016-05-06T18:16:28Z</time>
      </trkpt>
      <trkpt lat="44.48851" lon="6.28074">
        <ele>946</ele>
        <time>2016-05-06T18:18:28Z</time>
      </trkpt>
      <trkpt lat="44.48845" lon="6.28074">
        <ele>946</ele>
        <time>2016-05-06T18:20:28Z</time>
      </trkpt>
      <trkpt lat="44.48839" lon="6.28072">
        <ele>946</ele>
        <time>2016-05-06T18:22:28Z</time>
      </trkpt>
      <trkpt lat="44.48835" lon="6.2807">
        <ele>947</ele>
        <time>2016-05-06T18:24:28Z</time>
      </trkpt>
      <trkpt lat="44.4883" lon="6.28067">
        <ele>949</ele>
        <time>2016-05-06T18:26:28Z</time>
      </trkpt>
      <trkpt lat="44.48827" lon="6.28063">
        <ele>951</ele>
        <time>2016-05-06T18:28:28Z</time>
      </trkpt>
      <trkpt lat="44.48824" lon="6.28059">
        <ele>953</ele>
        <time>2016-05-06T18:30:28Z</time>
      </trkpt>
      <trkpt lat="44.4882" lon="6.28052">
        <ele>957</ele>
        <time>2016-05-06T18:32:28Z</time>
      </trkpt>
      <trkpt lat="44.48815" lon="6.28038">
        <ele>965</ele>
        <time>2016-05-06T18:34:28Z</time>
      </trkpt>
      <trkpt lat="44.48777" lon="6.27894">
        <ele>1035</ele>
        <time>2016-05-06T18:36:28Z</time>
      </trkpt>
      <trkpt lat="44.48712" lon="6.27665">
        <ele>1019</ele>
        <time>2016-05-06T18:38:28Z</time>
      </trkpt>
      <trkpt lat="44.48663" lon="6.27498">
        <ele>935</ele>
        <time>2016-05-06T18:40:28Z</time>
      </trkpt>
      <trkpt lat="44.48652" lon="6.27459">
        <ele>927</ele>
        <time>2016-05-06T18:42:28Z</time>
      </trkpt>
      <trkpt lat="44.4863" lon="6.27384">
        <ele>917</ele>
        <time>2016-05-06T18:44:28Z</time>
      </trkpt>
      <trkpt lat="44.48618" lon="6.27343">
        <ele>912</ele>
        <time>2016-05-06T18:46:28Z</time>
      </trkpt>
      <trkpt lat="44.48614" lon="6.27331">
        <ele>910</ele>
        <time>2016-05-06T18:48:28Z</time>
      </trkpt>
      <trkpt lat="44.48611" lon="6.27318">
        <ele>908</ele>
        <time>2016-05-06T18:50:28Z</time>
      </trkpt>
      <trkpt lat="44.48609" lon="6.27306">
        <ele>907</ele>
        <time>2016-05-06T18:52:28Z</time>
      </trkpt>
      <trkpt lat="44.48607" lon="6.27294">
        <ele>905</ele>
        <time>2016-05-06T18:54:28Z</time>
      </trkpt>
      <trkpt lat="44.48605" lon="6.27282">
        <ele>904</ele>
        <time>2016-05-06T18:56:28Z</time>
      </trkpt>
      <trkpt lat="44.48604" lon="6.2727">
        <ele>903</ele>
        <time>2016-05-06T18:58:28Z</time>
      </trkpt>
      <trkpt lat="44.48604" lon="6.27257">
        <ele>902</ele>
        <time>2016-05-06T19:00:28Z</time>
      </trkpt>
      <trkpt lat="44.48604" lon="6.27245">
        <ele>901</ele>
        <time>2016-05-06T19:02:28Z</time>
      </trkpt>
      <trkpt lat="44.48605" lon="6.27234">
        <ele>900</ele>
        <time>2016-05-06T19:04:28Z</time>
      </trkpt>
      <trkpt lat="44.48607" lon="6.27222">
        <ele>899</ele>
        <time>2016-05-06T19:06:28Z</time>
      </trkpt>
      <trkpt lat="44.48609" lon="6.27212">
        <ele>898</ele>
        <time>2016-05-06T19:08:28Z</time>
      </trkpt>
      <trkpt lat="44.48612" lon="6.27202">
        <ele>897</ele>
        <time>2016-05-06T19:10:28Z</time>
      </trkpt>
      <trkpt lat="44.48615" lon="6.27192">
        <ele>896</ele>
        <time>2016-05-06T19:12:28Z</time>
      </trkpt>
      <trkpt lat="44.48619" lon="6.27182">
        <ele>896</ele>
        <time>2016-05-06T19:14:28Z</time>
      </trkpt>
      <trkpt lat="44.48623" lon="6.27173">
        <ele>895</ele>
        <time>2016-05-06T19:16:28Z</time>
      </trkpt>
      <trkpt lat="44.48628" lon="6.27164">
        <ele>895</ele>
        <time>2016-05-06T19:18:28Z</time>
      </trkpt>
      <trkpt lat="44.48633" lon="6.27156">
        <ele>894</ele>
        <time>2016-05-06T19:20:28Z</time>
      </trkpt>
      <trkpt lat="44.48639" lon="6.27148">
        <ele>894</ele>
        <time>2016-05-06T19:22:28Z</time>
      </trkpt>
      <trkpt lat="44.48646" lon="6.2714">
        <ele>894</ele>
        <time>2016-05-06T19:24:28Z</time>
      </trkpt>
      <trkpt lat="44.48656" lon="6.27129">
        <ele>893</ele>
        <time>2016-05-06T19:26:28Z</time>
      </trkpt>
      <trkpt lat="44.48668" lon="6.27121">
        <ele>893</ele>
        <time>2016-05-06T19:28:28Z</time>
      </trkpt>
      <trkpt lat="44.48676" lon="6.27117">
        <ele>894</ele>
        <time>2016-05-06T19:30:28Z</time>
      </trkpt>
      <trkpt lat="44.48692" lon="6.27109">
        <ele>894</ele>
        <time>2016-05-06T19:32:28Z</time>
      </trkpt>
      <trkpt lat="44.48704" lon="6.27103">
        <ele>894</ele>
        <time>2016-05-06T19:34:28Z</time>
      </trkpt>
      <trkpt lat="44.48712" lon="6.27099">
        <ele>894</ele>
        <time>2016-05-06T19:36:28Z</time>
      </trkpt>
      <trkpt lat="44.48717" lon="6.27095">
        <ele>893</ele>
        <time>2016-05-06T19:38:28Z</time>
      </trkpt>
      <trkpt lat="44.48721" lon="6.27091">
        <ele>892</ele>
        <time>2016-05-06T19:40:28Z</time>
      </trkpt>
      <trkpt lat="44.48725" lon="6.27087">
        <ele>892</ele>
        <time>2016-05-06T19:42:28Z</time>
      </trkpt>
      <trkpt lat="44.48728" lon="6.27082">
        <ele>891</ele>
        <time>2016-05-06T19:44:28Z</time>
      </trkpt>
      <trkpt lat="44.4873" lon="6.27076">
        <ele>889</ele>
        <time>2016-05-06T19:46:28Z</time>
      </trkpt>
      <trkpt lat="44.48731" lon="6.2707">
        <ele>888</ele>
        <time>2016-05-06T19:48:28Z</time>
      </trkpt>
      <trkpt lat="44.48732" lon="6.27063">
        <ele>886</ele>
        <time>2016-05-06T19:50:28Z</time>
      </trkpt>
      <trkpt lat="44.48731" lon="6.27057">
        <ele>884</ele>
        <time>2016-05-06T19:52:28Z</time>
      </trkpt>
      <trkpt lat="44.4873" lon="6.27055">
        <ele>884</ele>
        <time>2016-05-06T19:54:28Z</time>
      </trkpt>
      <trkpt lat="44.48727" lon="6.27046">
        <ele>881</ele>
        <time>2016-05-06T19:56:28Z</time>
      </trkpt>
      <trkpt lat="44.48723" lon="6.2704">
        <ele>880</ele>
        <time>2016-05-06T19:58:28Z</time>
      </trkpt>
      <trkpt lat="44.48715" lon="6.27035">
        <ele>878</ele>
        <time>2016-05-06T20:00:28Z</time>
      </trkpt>
      <trkpt lat="44.48696" lon="6.27029">
        <ele>876</ele>
        <time>2016-05-06T20:02:28Z</time>
      </trkpt>
      <trkpt lat="44.48669" lon="6.27021">
        <ele>873</ele>
        <time>2016-05-06T20:04:28Z</time>
      </trkpt>
      <trkpt lat="44.48644" lon="6.27012">
        <ele>868</ele>
        <time>2016-05-06T20:06:28Z</time>
      </trkpt>
      <trkpt lat="44.48613" lon="6.27003">
        <ele>862</ele>
        <time>2016-05-06T20:08:28Z</time>
      </trkpt>
      <trkpt lat="44.48597" lon="6.27">
        <ele>860</ele>
        <time>2016-05-06T20:10:28Z</time>
      </trkpt>
      <trkpt lat="44.48586" lon="6.27">
        <ele>858</ele>
        <time>2016-05-06T20:12:28Z</time>
      </trkpt>
      <trkpt lat="44.48579" lon="6.27002">
        <ele>858</ele>
        <time>2016-05-06T20:14:28Z</time>
      </trkpt>
      <trkpt lat="44.48568" lon="6.27005">
        <ele>856</ele>
        <time>2016-05-06T20:16:28Z</time>
      </trkpt>
      <trkpt lat="44.48555" lon="6.27012">
        <ele>856</ele>
        <time>2016-05-06T20:18:28Z</time>
      </trkpt>
      <trkpt lat="44.48536" lon="6.27026">
        <ele>855</ele>
        <time>2016-05-06T20:20:28Z</time>
      </trkpt>
      <trkpt lat="44.48521" lon="6.27043">
        <ele>855</ele>
        <time>2016-05-06T20:22:28Z</time>
      </trkpt>
      <trkpt lat="44.48512" lon="6.27057">
        <ele>855</ele>
        <time>2016-05-06T20:24:28Z</time>
      </trkpt>
      <trkpt lat="44.48501" lon="6.2708">
        <ele>857</ele>
        <time>2016-05-06T20:26:28Z</time>
      </trkpt>
      <trkpt lat="44.48488" lon="6.27115">
        <ele>856</ele>
        <time>2016-05-06T20:28:28Z</time>
      </trkpt>
      <trkpt lat="44.48472" lon="6.27168">
        <ele>855</ele>
        <time>2016-05-06T20:30:28Z</time>
      </trkpt>
      <trkpt lat="44.48447" lon="6.2725">
        <ele>847</ele>
        <time>2016-05-06T20:32:28Z</time>
      </trkpt>
      <trkpt lat="44.48429" lon="6.2731">
        <ele>842</ele>
        <time>2016-05-06T20:34:28Z</time>
      </trkpt>
      <trkpt lat="44.4842" lon="6.27337">
        <ele>840</ele>
        <time>2016-05-06T20:36:28Z</time>
      </trkpt>
      <trkpt lat="44.48415" lon="6.27348">
        <ele>839</ele>
        <time>2016-05-06T20:38:28Z</time>
      </trkpt>
      <trkpt lat="44.48411" lon="6.27358">
        <ele>837</ele>
        <time>2016-05-06T20:40:28Z</time>
      </trkpt>
      <trkpt lat="44.48406" lon="6.27369">
        <ele>836</ele>
        <time>2016-05-06T20:42:28Z</time>
      </trkpt>
      <trkpt lat="44.48401" lon="6.27378">
        <ele>834</ele>
        <time>2016-05-06T20:44:28Z</time>
      </trkpt>
      <trkpt lat="44.48396" lon="6.27387">
        <ele>833</ele>
        <time>2016-05-06T20:46:28Z</time>
      </trkpt>
      <trkpt lat="44.48391" lon="6.27396">
        <ele>831</ele>
        <time>2016-05-06T20:48:28Z</time>
      </trkpt>
      <trkpt lat="44.48387" lon="6.27403">
        <ele>830</ele>
        <time>2016-05-06T20:50:28Z</time>
      </trkpt>
      <trkpt lat="44.48383" lon="6.27409">
        <ele>829</ele>
        <time>2016-05-06T20:52:28Z</time>
      </trkpt>
      <trkpt lat="44.4838" lon="6.27415">
        <ele>829</ele>
        <time>2016-05-06T20:54:28Z</time>
      </trkpt>
      <trkpt lat="44.48376" lon="6.27419">
        <ele>827</ele>
        <time>2016-05-06T20:56:28Z</time>
      </trkpt>
      <trkpt lat="44.48373" lon="6.27422">
        <ele>825</ele>
        <time>2016-05-06T20:58:28Z</time>
      </trkpt>
      <trkpt lat="44.4837" lon="6.27424">
        <ele>823</ele>
        <time>2016-05-06T21:00:28Z</time>
      </trkpt>
      <trkpt lat="44.48367" lon="6.27425">
        <ele>822</ele>
        <time>2016-05-06T21:02:28Z</time>
      </trkpt>
      <trkpt lat="44.48364" lon="6.27425">
        <ele>821</ele>
        <time>2016-05-06T21:04:28Z</time>
      </trkpt>
      <trkpt lat="44.48362" lon="6.27424">
        <ele>821</ele>
        <time>2016-05-06T21:06:28Z</time>
      </trkpt>
      <trkpt lat="44.48359" lon="6.27423">
        <ele>820</ele>
        <time>2016-05-06T21:08:28Z</time>
      </trkpt>
      <trkpt lat="44.48357" lon="6.2742">
        <ele>820</ele>
        <time>2016-05-06T21:10:28Z</time>
      </trkpt>
      <trkpt lat="44.48356" lon="6.27417">
        <ele>821</ele>
        <time>2016-05-06T21:12:28Z</time>
      </trkpt>
      <trkpt lat="44.48355" lon="6.27413">
        <ele>820</ele>
        <time>2016-05-06T21:14:28Z</time>
      </trkpt>
      <trkpt lat="44.48354" lon="6.27409">
        <ele>819</ele>
        <time>2016-05-06T21:16:28Z</time>
      </trkpt>
      <trkpt lat="44.48355" lon="6.27404">
        <ele>819</ele>
        <time>2016-05-06T21:18:28Z</time>
      </trkpt>
      <trkpt lat="44.48356" lon="6.27399">
        <ele>819</ele>
        <time>2016-05-06T21:20:28Z</time>
      </trkpt>
      <trkpt lat="44.48358" lon="6.27394">
        <ele>820</ele>
        <time>2016-05-06T21:22:28Z</time>
      </trkpt>
      <trkpt lat="44.48361" lon="6.27389">
        <ele>821</ele>
        <time>2016-05-06T21:24:28Z</time>
      </trkpt>
      <trkpt lat="44.48368" lon="6.27378">
        <ele>822</ele>
        <time>2016-05-06T21:26:28Z</time>
      </trkpt>
      <trkpt lat="44.48373" lon="6.27372">
        <ele>824</ele>
        <time>2016-05-06T21:28:28Z</time>
      </trkpt>
      <trkpt lat="44.48377" lon="6.27365">
        <ele>825</ele>
        <time>2016-05-06T21:30:28Z</time>
      </trkpt>
      <trkpt lat="44.48381" lon="6.27359">
        <ele>826</ele>
        <time>2016-05-06T21:32:28Z</time>
      </trkpt>
      <trkpt lat="44.48385" lon="6.27351">
        <ele>827</ele>
        <time>2016-05-06T21:34:28Z</time>
      </trkpt>
      <trkpt lat="44.48389" lon="6.27344">
        <ele>829</ele>
        <time>2016-05-06T21:36:28Z</time>
      </trkpt>
      <trkpt lat="44.48392" lon="6.27335">
        <ele>829</ele>
        <time>2016-05-06T21:38:28Z</time>
      </trkpt>
      <trkpt lat="44.48394" lon="6.27327">
        <ele>830</ele>
        <time>2016-05-06T21:40:28Z</time>
      </trkpt>
      <trkpt lat="44.48397" lon="6.27317">
        <ele>830</ele>
        <time>2016-05-06T21:42:28Z</time>
      </trkpt>
      <trkpt lat="44.48398" lon="6.27307">
        <ele>830</ele>
        <time>2016-05-06T21:44:28Z</time>
      </trkpt>
      <trkpt lat="44.48398" lon="6.27297">
        <ele>829</ele>
        <time>2016-05-06T21:46:28Z</time>
      </trkpt>
      <trkpt lat="44.48398" lon="6.27286">
        <ele>829</ele>
        <time>2016-05-06T21:48:28Z</time>
      </trkpt>
      <trkpt lat="44.48398" lon="6.27275">
        <ele>828</ele>
        <time>2016-05-06T21:50:28Z</time>
      </trkpt>
      <trkpt lat="44.48396" lon="6.27263">
        <ele>827</ele>
        <time>2016-05-06T21:52:28Z</time>
      </trkpt>
      <trkpt lat="44.48394" lon="6.27251">
        <ele>825</ele>
        <time>2016-05-06T21:54:28Z</time>
      </trkpt>
      <trkpt lat="44.48392" lon="6.27238">
        <ele>824</ele>
        <time>2016-05-06T21:56:28Z</time>
      </trkpt>
      <trkpt lat="44.4839" lon="6.27225">
        <ele>823</ele>
        <time>2016-05-06T21:58:28Z</time>
      </trkpt>
      <trkpt lat="44.48388" lon="6.27213">
        <ele>822</ele>
        <time>2016-05-06T22:00:28Z</time>
      </trkpt>
      <trkpt lat="44.48385" lon="6.272">
        <ele>821</ele>
        <time>2016-05-06T22:02:28Z</time>
      </trkpt>
      <trkpt lat="44.48383" lon="6.27187">
        <ele>820</ele>
        <time>2016-05-06T22:04:28Z</time>
      </trkpt>
      <trkpt lat="44.48381" lon="6.27174">
        <ele>820</ele>
        <time>2016-05-06T22:06:28Z</time>
      </trkpt>
      <trkpt lat="44.48378" lon="6.2716">
        <ele>819</ele>
        <time>2016-05-06T22:08:28Z</time>
      </trkpt>
      <trkpt lat="44.48376" lon="6.27147">
        <ele>818</ele>
        <time>2016-05-06T22:10:28Z</time>
      </trkpt>
      <trkpt lat="44.48374" lon="6.27134">
        <ele>817</ele>
        <time>2016-05-06T22:12:28Z</time>
      </trkpt>
      <trkpt lat="44.48371" lon="6.27121">
        <ele>816</ele>
        <time>2016-05-06T22:14:28Z</time>
      </trkpt>
      <trkpt lat="44.48369" lon="6.27107">
        <ele>816</ele>
        <time>2016-05-06T22:16:28Z</time>
      </trkpt>
      <trkpt lat="44.48366" lon="6.27095">
        <ele>815</ele>
        <time>2016-05-06T22:18:28Z</time>
      </trkpt>
      <trkpt lat="44.48363" lon="6.27083">
        <ele>814</ele>
        <time>2016-05-06T22:20:28Z</time>
      </trkpt>
      <trkpt lat="44.48361" lon="6.27072">
        <ele>813</ele>
        <time>2016-05-06T22:22:28Z</time>
      </trkpt>
      <trkpt lat="44.48357" lon="6.27061">
        <ele>811</ele>
        <time>2016-05-06T22:24:28Z</time>
      </trkpt>
      <trkpt lat="44.48353" lon="6.27048">
        <ele>810</ele>
        <time>2016-05-06T22:26:28Z</time>
      </trkpt>
      <trkpt lat="44.48348" lon="6.27038">
        <ele>808</ele>
        <time>2016-05-06T22:28:28Z</time>
      </trkpt>
      <trkpt lat="44.48342" lon="6.27028">
        <ele>806</ele>
        <time>2016-05-06T22:30:28Z</time>
      </trkpt>
      <trkpt lat="44.48337" lon="6.27019">
        <ele>804</ele>
        <time>2016-05-06T22:32:28Z</time>
      </trkpt>
      <trkpt lat="44.48331" lon="6.2701">
        <ele>803</ele>
        <time>2016-05-06T22:34:28Z</time>
      </trkpt>
      <trkpt lat="44.48324" lon="6.27003">
        <ele>803</ele>
        <time>2016-05-06T22:36:28Z</time>
      </trkpt>
      <trkpt lat="44.48318" lon="6.26996">
        <ele>803</ele>
        <time>2016-05-06T22:38:28Z</time>
      </trkpt>
      <trkpt lat="44.48311" lon="6.26991">
        <ele>803</ele>
        <time>2016-05-06T22:40:28Z</time>
      </trkpt>
      <trkpt lat="44.48303" lon="6.26986">
        <ele>803</ele>
        <time>2016-05-06T22:42:28Z</time>
      </trkpt>
      <trkpt lat="44.48295" lon="6.26982">
        <ele>803</ele>
        <time>2016-05-06T22:44:28Z</time>
      </trkpt>
      <trkpt lat="44.48286" lon="6.26978">
        <ele>803</ele>
        <time>2016-05-06T22:46:28Z</time>
      </trkpt>
      <trkpt lat="44.48278" lon="6.26976">
        <ele>804</ele>
        <time>2016-05-06T22:48:28Z</time>
      </trkpt>
      <trkpt lat="44.48269" lon="6.26974">
        <ele>804</ele>
        <time>2016-05-06T22:50:28Z</time>
      </trkpt>
      <trkpt lat="44.4826" lon="6.26972">
        <ele>804</ele>
        <time>2016-05-06T22:52:28Z</time>
      </trkpt>
      <trkpt lat="44.4825" lon="6.26969">
        <ele>805</ele>
        <time>2016-05-06T22:54:28Z</time>
      </trkpt>
      <trkpt lat="44.48242" lon="6.26967">
        <ele>805</ele>
        <time>2016-05-06T22:56:28Z</time>
      </trkpt>
      <trkpt lat="44.48232" lon="6.26965">
        <ele>805</ele>
        <time>2016-05-06T22:58:28Z</time>
      </trkpt>
      <trkpt lat="44.48223" lon="6.26963">
        <ele>805</ele>
        <time>2016-05-06T23:00:28Z</time>
      </trkpt>
      <trkpt lat="44.48195" lon="6.26956">
        <ele>805</ele>
        <time>2016-05-06T23:02:28Z</time>
      </trkpt>
      <trkpt lat="44.48188" lon="6.26955">
        <ele>804</ele>
        <time>2016-05-06T23:04:28Z</time>
      </trkpt>
      <trkpt lat="44.48182" lon="6.26954">
        <ele>804</ele>
        <time>2016-05-06T23:06:28Z</time>
      </trkpt>
      <trkpt lat="44.48172" lon="6.26952">
        <ele>804</ele>
        <time>2016-05-06T23:08:28Z</time>
      </trkpt>
      <trkpt lat="44.48163" lon="6.2695">
        <ele>804</ele>
        <time>2016-05-06T23:10:28Z</time>
      </trkpt>
      <trkpt lat="44.4816" lon="6.26949">
        <ele>805</ele>
        <time>2016-05-06T23:12:28Z</time>
      </trkpt>
      <trkpt lat="44.48136" lon="6.26944">
        <ele>807</ele>
        <time>2016-05-06T23:14:28Z</time>
      </trkpt>
      <trkpt lat="44.48123" lon="6.26942">
        <ele>808</ele>
        <time>2016-05-06T23:16:28Z</time>
      </trkpt>
      <trkpt lat="44.48116" lon="6.26942">
        <ele>808</ele>
        <time>2016-05-06T23:18:28Z</time>
      </trkpt>
      <trkpt lat="44.48111" lon="6.26943">
        <ele>809</ele>
        <time>2016-05-06T23:20:28Z</time>
      </trkpt>
      <trkpt lat="44.48109" lon="6.26944">
        <ele>809</ele>
        <time>2016-05-06T23:22:28Z</time>
      </trkpt>
      <trkpt lat="44.48105" lon="6.26945">
        <ele>809</ele>
        <time>2016-05-06T23:24:28Z</time>
      </trkpt>
      <trkpt lat="44.48099" lon="6.26948">
        <ele>809</ele>
        <time>2016-05-06T23:26:28Z</time>
      </trkpt>
      <trkpt lat="44.48093" lon="6.26951">
        <ele>809</ele>
        <time>2016-05-06T23:28:28Z</time>
      </trkpt>
      <trkpt lat="44.48088" lon="6.26956">
        <ele>809</ele>
        <time>2016-05-06T23:30:28Z</time>
      </trkpt>
      <trkpt lat="44.48083" lon="6.26961">
        <ele>809</ele>
        <time>2016-05-06T23:32:28Z</time>
      </trkpt>
      <trkpt lat="44.48079" lon="6.26967">
        <ele>809</ele>
        <time>2016-05-06T23:34:28Z</time>
      </trkpt>
      <trkpt lat="44.48074" lon="6.26974">
        <ele>810</ele>
        <time>2016-05-06T23:36:28Z</time>
      </trkpt>
      <trkpt lat="44.4807" lon="6.26982">
        <ele>811</ele>
        <time>2016-05-06T23:38:28Z</time>
      </trkpt>
      <trkpt lat="44.48067" lon="6.2699">
        <ele>811</ele>
        <time>2016-05-06T23:40:28Z</time>
      </trkpt>
      <trkpt lat="44.48064" lon="6.26999">
        <ele>812</ele>
        <time>2016-05-06T23:42:28Z</time>
      </trkpt>
      <trkpt lat="44.48062" lon="6.27008">
        <ele>813</ele>
        <time>2016-05-06T23:44:28Z</time>
      </trkpt>
      <trkpt lat="44.48061" lon="6.27019">
        <ele>813</ele>
        <time>2016-05-06T23:46:28Z</time>
      </trkpt>
      <trkpt lat="44.4806" lon="6.27029">
        <ele>813</ele>
        <time>2016-05-06T23:48:28Z</time>
      </trkpt>
      <trkpt lat="44.4806" lon="6.27039">
        <ele>813</ele>
        <time>2016-05-06T23:50:28Z</time>
      </trkpt>
      <trkpt lat="44.4806" lon="6.2705">
        <ele>813</ele>
        <time>2016-05-06T23:52:28Z</time>
      </trkpt>
      <trkpt lat="44.4806" lon="6.2706">
        <ele>813</ele>
        <time>2016-05-06T23:54:28Z</time>
      </trkpt>
      <trkpt lat="44.4806" lon="6.27069">
        <ele>813</ele>
        <time>2016-05-06T23:56:28Z</time>
      </trkpt>
      <trkpt lat="44.4806" lon="6.27079">
        <ele>813</ele>
        <time>2016-05-06T23:58:28Z</time>
      </trkpt>
      <trkpt lat="44.48059" lon="6.27088">
        <ele>813</ele>
        <time>2016-05-07T00:00:28Z</time>
      </trkpt>
      <trkpt lat="44.48058" lon="6.27098">
        <ele>814</ele>
        <time>2016-05-07T00:02:28Z</time>
      </trkpt>
      <trkpt lat="44.48057" lon="6.27106">
        <ele>814</ele>
        <time>2016-05-07T00:04:28Z</time>
      </trkpt>
      <trkpt lat="44.48055" lon="6.27114">
        <ele>815</ele>
        <time>2016-05-07T00:06:28Z</time>
      </trkpt>
      <trkpt lat="44.48053" lon="6.27121">
        <ele>816</ele>
        <time>2016-05-07T00:08:28Z</time>
      </trkpt>
      <trkpt lat="44.4805" lon="6.27128">
        <ele>816</ele>
        <time>2016-05-07T00:10:28Z</time>
      </trkpt>
      <trkpt lat="44.48047" lon="6.27135">
        <ele>817</ele>
        <time>2016-05-07T00:12:28Z</time>
      </trkpt>
      <trkpt lat="44.48043" lon="6.27141">
        <ele>818</ele>
        <time>2016-05-07T00:14:28Z</time>
      </trkpt>
      <trkpt lat="44.48038" lon="6.27147">
        <ele>819</ele>
        <time>2016-05-07T00:16:28Z</time>
      </trkpt>
      <trkpt lat="44.48033" lon="6.27152">
        <ele>820</ele>
        <time>2016-05-07T00:18:28Z</time>
      </trkpt>
      <trkpt lat="44.48031" lon="6.27154">
        <ele>821</ele>
        <time>2016-05-07T00:20:28Z</time>
      </trkpt>
      <trkpt lat="44.48028" lon="6.27156">
        <ele>822</ele>
        <time>2016-05-07T00:22:28Z</time>
      </trkpt>
      <trkpt lat="44.48022" lon="6.27159">
        <ele>823</ele>
        <time>2016-05-07T00:24:28Z</time>
      </trkpt>
      <trkpt lat="44.48016" lon="6.27163">
        <ele>824</ele>
        <time>2016-05-07T00:26:28Z</time>
      </trkpt>
      <trkpt lat="44.48003" lon="6.27168">
        <ele>826</ele>
        <time>2016-05-07T00:28:28Z</time>
      </trkpt>
      <trkpt lat="44.47989" lon="6.27172">
        <ele>827</ele>
        <time>2016-05-07T00:30:28Z</time>
      </trkpt>
      <trkpt lat="44.47975" lon="6.27176">
        <ele>827</ele>
        <time>2016-05-07T00:32:28Z</time>
      </trkpt>
      <trkpt lat="44.47954" lon="6.27182">
        <ele>828</ele>
        <time>2016-05-07T00:34:28Z</time>
      </trkpt>
      <trkpt lat="44.47948" lon="6.27184">
        <ele>829</ele>
        <time>2016-05-07T00:36:28Z</time>
      </trkpt>
      <trkpt lat="44.47944" lon="6.27185">
        <ele>829</ele>
        <time>2016-05-07T00:38:28Z</time>
      </trkpt>
      <trkpt lat="44.47888" lon="6.27201">
        <ele>834</ele>
        <time>2016-05-07T00:40:28Z</time>
      </trkpt>
      <trkpt lat="44.47819" lon="6.27222">
        <ele>841</ele>
        <time>2016-05-07T00:42:28Z</time>
      </trkpt>
      <trkpt lat="44.47789" lon="6.27231">
        <ele>843</ele>
        <time>2016-05-07T00:44:28Z</time>
      </trkpt>
      <trkpt lat="44.47752" lon="6.27241">
        <ele>846</ele>
        <time>2016-05-07T00:46:28Z</time>
      </trkpt>
      <trkpt lat="44.47709" lon="6.27256">
        <ele>848</ele>
        <time>2016-05-07T00:48:28Z</time>
      </trkpt>
      <trkpt lat="44.47695" lon="6.27259">
        <ele>849</ele>
        <time>2016-05-07T00:50:28Z</time>
      </trkpt>
      <trkpt lat="44.47682" lon="6.2726">
        <ele>850</ele>
        <time>2016-05-07T00:52:28Z</time>
      </trkpt>
      <trkpt lat="44.47673" lon="6.27259">
        <ele>851</ele>
        <time>2016-05-07T00:54:28Z</time>
      </trkpt>
      <trkpt lat="44.4766" lon="6.27257">
        <ele>850</ele>
        <time>2016-05-07T00:56:28Z</time>
      </trkpt>
      <trkpt lat="44.47647" lon="6.27251">
        <ele>849</ele>
        <time>2016-05-07T00:58:28Z</time>
      </trkpt>
      <trkpt lat="44.47635" lon="6.27244">
        <ele>849</ele>
        <time>2016-05-07T01:00:28Z</time>
      </trkpt>
      <trkpt lat="44.4762" lon="6.2723">
        <ele>848</ele>
        <time>2016-05-07T01:02:28Z</time>
      </trkpt>
      <trkpt lat="44.4761" lon="6.27218">
        <ele>849</ele>
        <time>2016-05-07T01:04:28Z</time>
      </trkpt>
      <trkpt lat="44.47608" lon="6.27215">
        <ele>849</ele>
        <time>2016-05-07T01:06:28Z</time>
      </trkpt>
      <trkpt lat="44.47601" lon="6.27201">
        <ele>850</ele>
        <time>2016-05-07T01:08:28Z</time>
      </trkpt>
      <trkpt lat="44.47589" lon="6.27163">
        <ele>855</ele>
        <time>2016-05-07T01:10:28Z</time>
      </trkpt>
      <trkpt lat="44.47568" lon="6.27092">
        <ele>856</ele>
        <time>2016-05-07T01:12:28Z</time>
      </trkpt>
      <trkpt lat="44.47538" lon="6.27007">
        <ele>855</ele>
        <time>2016-05-07T01:14:28Z</time>
      </trkpt>
      <trkpt lat="44.47529" lon="6.26979">
        <ele>856</ele>
        <time>2016-05-07T01:16:28Z</time>
      </trkpt>
      <trkpt lat="44.4752" lon="6.2696">
        <ele>856</ele>
        <time>2016-05-07T01:18:28Z</time>
      </trkpt>
      <trkpt lat="44.47509" lon="6.26938">
        <ele>855</ele>
        <time>2016-05-07T01:20:28Z</time>
      </trkpt>
      <trkpt lat="44.47496" lon="6.26913">
        <ele>855</ele>
        <time>2016-05-07T01:22:28Z</time>
      </trkpt>
      <trkpt lat="44.47483" lon="6.26887">
        <ele>851</ele>
        <time>2016-05-07T01:24:28Z</time>
      </trkpt>
      <trkpt lat="44.47476" lon="6.26876">
        <ele>849</ele>
        <time>2016-05-07T01:26:28Z</time>
      </trkpt>
      <trkpt lat="44.47471" lon="6.26866">
        <ele>848</ele>
        <time>2016-05-07T01:28:28Z</time>
      </trkpt>
      <trkpt lat="44.47468" lon="6.2686">
        <ele>847</ele>
        <time>2016-05-07T01:30:28Z</time>
      </trkpt>
      <trkpt lat="44.47466" lon="6.26854">
        <ele>846</ele>
        <time>2016-05-07T01:32:28Z</time>
      </trkpt>
      <trkpt lat="44.47463" lon="6.26846">
        <ele>846</ele>
        <time>2016-05-07T01:34:28Z</time>
      </trkpt>
      <trkpt lat="44.47462" lon="6.26841">
        <ele>846</ele>
        <time>2016-05-07T01:36:28Z</time>
      </trkpt>
      <trkpt lat="44.47461" lon="6.26837">
        <ele>846</ele>
        <time>2016-05-07T01:38:28Z</time>
      </trkpt>
      <trkpt lat="44.47461" lon="6.26831">
        <ele>846</ele>
        <time>2016-05-07T01:40:28Z</time>
      </trkpt>
      <trkpt lat="44.4746" lon="6.26826">
        <ele>846</ele>
        <time>2016-05-07T01:42:28Z</time>
      </trkpt>
      <trkpt lat="44.4746" lon="6.26805">
        <ele>848</ele>
        <time>2016-05-07T01:44:28Z</time>
      </trkpt>
      <trkpt lat="44.47459" lon="6.26774">
        <ele>849</ele>
        <time>2016-05-07T01:46:28Z</time>
      </trkpt>
      <trkpt lat="44.47457" lon="6.26746">
        <ele>850</ele>
        <time>2016-05-07T01:48:28Z</time>
      </trkpt>
      <trkpt lat="44.47453" lon="6.26724">
        <ele>850</ele>
        <time>2016-05-07T01:50:28Z</time>
      </trkpt>
      <trkpt lat="44.47447" lon="6.267">
        <ele>850</ele>
        <time>2016-05-07T01:52:28Z</time>
      </trkpt>
      <trkpt lat="44.47436" lon="6.26667">
        <ele>848</ele>
        <time>2016-05-07T01:54:28Z</time>
      </trkpt>
      <trkpt lat="44.47426" lon="6.2664">
        <ele>846</ele>
        <time>2016-05-07T01:56:28Z</time>
      </trkpt>
      <trkpt lat="44.47419" lon="6.26626">
        <ele>844</ele>
        <time>2016-05-07T01:58:28Z</time>
      </trkpt>
      <trkpt lat="44.47413" lon="6.26616">
        <ele>842</ele>
        <time>2016-05-07T02:00:28Z</time>
      </trkpt>
      <trkpt lat="44.47408" lon="6.26609">
        <ele>840</ele>
        <time>2016-05-07T02:02:28Z</time>
      </trkpt>
      <trkpt lat="44.47399" lon="6.26592">
        <ele>836</ele>
        <time>2016-05-07T02:04:28Z</time>
      </trkpt>
      <trkpt lat="44.47393" lon="6.26579">
        <ele>835</ele>
        <time>2016-05-07T02:06:28Z</time>
      </trkpt>
      <trkpt lat="44.47391" lon="6.26575">
        <ele>834</ele>
        <time>2016-05-07T02:08:28Z</time>
      </trkpt>
      <trkpt lat="44.4739" lon="6.26571">
        <ele>834</ele>
        <time>2016-05-07T02:10:28Z</time>
      </trkpt>
      <trkpt lat="44.4739" lon="6.26566">
        <ele>835</ele>
        <time>2016-05-07T02:12:28Z</time>
      </trkpt>
      <trkpt lat="44.47389" lon="6.26562">
        <ele>836</ele>
        <time>2016-05-07T02:14:28Z</time>
      </trkpt>
      <trkpt lat="44.47389" lon="6.26556">
        <ele>837</ele>
        <time>2016-05-07T02:16:28Z</time>
      </trkpt>
      <trkpt lat="44.4739" lon="6.26551">
        <ele>839</ele>
        <time>2016-05-07T02:18:28Z</time>
      </trkpt>
      <trkpt lat="44.47393" lon="6.26534">
        <ele>844</ele>
        <time>2016-05-07T02:20:28Z</time>
      </trkpt>
      <trkpt lat="44.47394" lon="6.26528">
        <ele>846</ele>
        <time>2016-05-07T02:22:28Z</time>
      </trkpt>
      <trkpt lat="44.47394" lon="6.26522">
        <ele>847</ele>
        <time>2016-05-07T02:24:28Z</time>
      </trkpt>
      <trkpt lat="44.47395" lon="6.26515">
        <ele>849</ele>
        <time>2016-05-07T02:26:28Z</time>
      </trkpt>
      <trkpt lat="44.47394" lon="6.26509">
        <ele>850</ele>
        <time>2016-05-07T02:28:28Z</time>
      </trkpt>
      <trkpt lat="44.47392" lon="6.26502">
        <ele>850</ele>
        <time>2016-05-07T02:30:28Z</time>
      </trkpt>
      <trkpt lat="44.47391" lon="6.26497">
        <ele>851</ele>
        <time>2016-05-07T02:32:28Z</time>
      </trkpt>
      <trkpt lat="44.47388" lon="6.26493">
        <ele>850</ele>
        <time>2016-05-07T02:34:28Z</time>
      </trkpt>
      <trkpt lat="44.47386" lon="6.26489">
        <ele>850</ele>
        <time>2016-05-07T02:36:28Z</time>
      </trkpt>
      <trkpt lat="44.47382" lon="6.26485">
        <ele>848</ele>
        <time>2016-05-07T02:38:28Z</time>
      </trkpt>
      <trkpt lat="44.47371" lon="6.26475">
        <ele>844</ele>
        <time>2016-05-07T02:40:28Z</time>
      </trkpt>
      <trkpt lat="44.47361" lon="6.26468">
        <ele>840</ele>
        <time>2016-05-07T02:42:28Z</time>
      </trkpt>
      <trkpt lat="44.47352" lon="6.2646">
        <ele>836</ele>
        <time>2016-05-07T02:44:28Z</time>
      </trkpt>
      <trkpt lat="44.47346" lon="6.26452">
        <ele>834</ele>
        <time>2016-05-07T02:46:28Z</time>
      </trkpt>
      <trkpt lat="44.47341" lon="6.26444">
        <ele>833</ele>
        <time>2016-05-07T02:48:28Z</time>
      </trkpt>
      <trkpt lat="44.4733" lon="6.26425">
        <ele>831</ele>
        <time>2016-05-07T02:50:28Z</time>
      </trkpt>
      <trkpt lat="44.47317" lon="6.264">
        <ele>830</ele>
        <time>2016-05-07T02:52:28Z</time>
      </trkpt>
      <trkpt lat="44.47303" lon="6.2637">
        <ele>829</ele>
        <time>2016-05-07T02:54:28Z</time>
      </trkpt>
      <trkpt lat="44.47289" lon="6.26344">
        <ele>827</ele>
        <time>2016-05-07T02:56:28Z</time>
      </trkpt>
      <trkpt lat="44.47284" lon="6.26335">
        <ele>826</ele>
        <time>2016-05-07T02:58:28Z</time>
      </trkpt>
      <trkpt lat="44.47279" lon="6.26327">
        <ele>825</ele>
        <time>2016-05-07T03:00:28Z</time>
      </trkpt>
      <trkpt lat="44.47274" lon="6.26321">
        <ele>823</ele>
        <time>2016-05-07T03:02:28Z</time>
      </trkpt>
      <trkpt lat="44.47269" lon="6.26316">
        <ele>822</ele>
        <time>2016-05-07T03:04:28Z</time>
      </trkpt>
      <trkpt lat="44.47263" lon="6.26311">
        <ele>820</ele>
        <time>2016-05-07T03:06:28Z</time>
      </trkpt>
      <trkpt lat="44.47258" lon="6.26307">
        <ele>819</ele>
        <time>2016-05-07T03:08:28Z</time>
      </trkpt>
      <trkpt lat="44.4725" lon="6.26301">
        <ele>817</ele>
        <time>2016-05-07T03:10:28Z</time>
      </trkpt>
      <trkpt lat="44.47242" lon="6.26295">
        <ele>816</ele>
        <time>2016-05-07T03:12:28Z</time>
      </trkpt>
      <trkpt lat="44.47234" lon="6.2629">
        <ele>815</ele>
        <time>2016-05-07T03:14:28Z</time>
      </trkpt>
      <trkpt lat="44.47232" lon="6.26289">
        <ele>814</ele>
        <time>2016-05-07T03:16:28Z</time>
      </trkpt>
      <trkpt lat="44.47229" lon="6.26288">
        <ele>813</ele>
        <time>2016-05-07T03:18:28Z</time>
      </trkpt>
      <trkpt lat="44.47226" lon="6.26287">
        <ele>813</ele>
        <time>2016-05-07T03:20:28Z</time>
      </trkpt>
      <trkpt lat="44.47223" lon="6.26286">
        <ele>812</ele>
        <time>2016-05-07T03:22:28Z</time>
      </trkpt>
      <trkpt lat="44.4722" lon="6.26286">
        <ele>811</ele>
        <time>2016-05-07T03:24:28Z</time>
      </trkpt>
      <trkpt lat="44.47216" lon="6.26287">
        <ele>810</ele>
        <time>2016-05-07T03:26:28Z</time>
      </trkpt>
      <trkpt lat="44.47213" lon="6.2629">
        <ele>808</ele>
        <time>2016-05-07T03:28:28Z</time>
      </trkpt>
      <trkpt lat="44.4721" lon="6.26292">
        <ele>807</ele>
        <time>2016-05-07T03:30:28Z</time>
      </trkpt>
      <trkpt lat="44.47208" lon="6.26297">
        <ele>805</ele>
        <time>2016-05-07T03:32:28Z</time>
      </trkpt>
      <trkpt lat="44.47207" lon="6.26301">
        <ele>803</ele>
        <time>2016-05-07T03:34:28Z</time>
      </trkpt>
      <trkpt lat="44.47207" lon="6.26305">
        <ele>802</ele>
        <time>2016-05-07T03:36:28Z</time>
      </trkpt>
      <trkpt lat="44.47207" lon="6.2631">
        <ele>801</ele>
        <time>2016-05-07T03:38:28Z</time>
      </trkpt>
      <trkpt lat="44.47209" lon="6.26314">
        <ele>801</ele>
        <time>2016-05-07T03:40:28Z</time>
      </trkpt>
      <trkpt lat="44.47211" lon="6.26319">
        <ele>800</ele>
        <time>2016-05-07T03:42:28Z</time>
      </trkpt>
      <trkpt lat="44.4722" lon="6.26334">
        <ele>799</ele>
        <time>2016-05-07T03:44:28Z</time>
      </trkpt>
      <trkpt lat="44.47239" lon="6.26361">
        <ele>799</ele>
        <time>2016-05-07T03:46:28Z</time>
      </trkpt>
      <trkpt lat="44.47259" lon="6.26387">
        <ele>803</ele>
        <time>2016-05-07T03:48:28Z</time>
      </trkpt>
      <trkpt lat="44.47276" lon="6.26408">
        <ele>807</ele>
        <time>2016-05-07T03:50:28Z</time>
      </trkpt>
      <trkpt lat="44.47285" lon="6.2642">
        <ele>809</ele>
        <time>2016-05-07T03:52:28Z</time>
      </trkpt>
      <trkpt lat="44.47286" lon="6.26422">
        <ele>809</ele>
        <time>2016-05-07T03:54:28Z</time>
      </trkpt>
      <trkpt lat="44.47287" lon="6.26424">
        <ele>809</ele>
        <time>2016-05-07T03:56:28Z</time>
      </trkpt>
      <trkpt lat="44.47288" lon="6.26426">
        <ele>809</ele>
        <time>2016-05-07T03:58:28Z</time>
      </trkpt>
      <trkpt lat="44.47289" lon="6.2643">
        <ele>809</ele>
        <time>2016-05-07T04:00:28Z</time>
      </trkpt>
      <trkpt lat="44.4729" lon="6.26434">
        <ele>808</ele>
        <time>2016-05-07T04:02:28Z</time>
      </trkpt>
      <trkpt lat="44.4729" lon="6.26437">
        <ele>807</ele>
        <time>2016-05-07T04:04:28Z</time>
      </trkpt>
      <trkpt lat="44.47289" lon="6.26441">
        <ele>806</ele>
        <time>2016-05-07T04:06:28Z</time>
      </trkpt>
      <trkpt lat="44.47288" lon="6.26444">
        <ele>804</ele>
        <time>2016-05-07T04:08:28Z</time>
      </trkpt>
      <trkpt lat="44.47286" lon="6.26446">
        <ele>803</ele>
        <time>2016-05-07T04:10:28Z</time>
      </trkpt>
      <trkpt lat="44.47285" lon="6.26448">
        <ele>802</ele>
        <time>2016-05-07T04:12:28Z</time>
      </trkpt>
      <trkpt lat="44.47283" lon="6.26449">
        <ele>800</ele>
        <time>2016-05-07T04:14:28Z</time>
      </trkpt>
      <trkpt lat="44.47281" lon="6.2645">
        <ele>799</ele>
        <time>2016-05-07T04:16:28Z</time>
      </trkpt>
      <trkpt lat="44.4728" lon="6.26451">
        <ele>798</ele>
        <time>2016-05-07T04:18:28Z</time>
      </trkpt>
      <trkpt lat="44.47278" lon="6.26451">
        <ele>797</ele>
        <time>2016-05-07T04:20:28Z</time>
      </trkpt>
      <trkpt lat="44.47276" lon="6.26451">
        <ele>796</ele>
        <time>2016-05-07T04:22:28Z</time>
      </trkpt>
      <trkpt lat="44.47274" lon="6.2645">
        <ele>795</ele>
        <time>2016-05-07T04:24:28Z</time>
      </trkpt>
      <trkpt lat="44.47271" lon="6.26449">
        <ele>794</ele>
        <time>2016-05-07T04:26:28Z</time>
      </trkpt>
      <trkpt lat="44.47268" lon="6.26446">
        <ele>793</ele>
        <time>2016-05-07T04:28:28Z</time>
      </trkpt>
      <trkpt lat="44.47248" lon="6.26432">
        <ele>787</ele>
        <time>2016-05-07T04:30:28Z</time>
      </trkpt>
      <trkpt lat="44.47234" lon="6.26422">
        <ele>784</ele>
        <time>2016-05-07T04:32:28Z</time>
      </trkpt>
      <trkpt lat="44.47225" lon="6.26412">
        <ele>783</ele>
        <time>2016-05-07T04:34:28Z</time>
      </trkpt>
      <trkpt lat="44.47219" lon="6.26402">
        <ele>782</ele>
        <time>2016-05-07T04:36:28Z</time>
      </trkpt>
      <trkpt lat="44.47211" lon="6.26385">
        <ele>784</ele>
        <time>2016-05-07T04:38:28Z</time>
      </trkpt>
      <trkpt lat="44.47201" lon="6.26361">
        <ele>786</ele>
        <time>2016-05-07T04:40:28Z</time>
      </trkpt>
      <trkpt lat="44.47197" lon="6.26352">
        <ele>787</ele>
        <time>2016-05-07T04:42:28Z</time>
      </trkpt>
      <trkpt lat="44.47195" lon="6.26349">
        <ele>787</ele>
        <time>2016-05-07T04:44:28Z</time>
      </trkpt>
      <trkpt lat="44.47193" lon="6.26346">
        <ele>787</ele>
        <time>2016-05-07T04:46:28Z</time>
      </trkpt>
      <trkpt lat="44.47188" lon="6.2634">
        <ele>787</ele>
        <time>2016-05-07T04:48:28Z</time>
      </trkpt>
      <trkpt lat="44.47181" lon="6.26334">
        <ele>786</ele>
        <time>2016-05-07T04:50:28Z</time>
      </trkpt>
      <trkpt lat="44.47172" lon="6.26328">
        <ele>785</ele>
        <time>2016-05-07T04:52:28Z</time>
      </trkpt>
      <trkpt lat="44.47164" lon="6.2632">
        <ele>785</ele>
        <time>2016-05-07T04:54:28Z</time>
      </trkpt>
      <trkpt lat="44.47156" lon="6.26312">
        <ele>784</ele>
        <time>2016-05-07T04:56:28Z</time>
      </trkpt>
      <trkpt lat="44.4715" lon="6.26305">
        <ele>783</ele>
        <time>2016-05-07T04:58:28Z</time>
      </trkpt>
      <trkpt lat="44.47144" lon="6.26297">
        <ele>782</ele>
        <time>2016-05-07T05:00:28Z</time>
      </trkpt>
      <trkpt lat="44.47137" lon="6.26282">
        <ele>782</ele>
        <time>2016-05-07T05:02:28Z</time>
      </trkpt>
      <trkpt lat="44.47133" lon="6.26271">
        <ele>783</ele>
        <time>2016-05-07T05:04:28Z</time>
      </trkpt>
      <trkpt lat="44.47128" lon="6.26251">
        <ele>783</ele>
        <time>2016-05-07T05:06:28Z</time>
      </trkpt>
      <trkpt lat="44.47123" lon="6.26224">
        <ele>789</ele>
        <time>2016-05-07T05:08:28Z</time>
      </trkpt>
      <trkpt lat="44.47119" lon="6.26208">
        <ele>792</ele>
        <time>2016-05-07T05:10:28Z</time>
      </trkpt>
      <trkpt lat="44.47119" lon="6.26205">
        <ele>793</ele>
        <time>2016-05-07T05:12:28Z</time>
      </trkpt>
      <trkpt lat="44.47117" lon="6.26202">
        <ele>793</ele>
        <time>2016-05-07T05:14:28Z</time>
      </trkpt>
      <trkpt lat="44.47115" lon="6.262">
        <ele>792</ele>
        <time>2016-05-07T05:16:28Z</time>
      </trkpt>
      <trkpt lat="44.47114" lon="6.26199">
        <ele>792</ele>
        <time>2016-05-07T05:18:28Z</time>
      </trkpt>
      <trkpt lat="44.47112" lon="6.26198">
        <ele>791</ele>
        <time>2016-05-07T05:20:28Z</time>
      </trkpt>
      <trkpt lat="44.4711" lon="6.26198">
        <ele>790</ele>
        <time>2016-05-07T05:22:28Z</time>
      </trkpt>
      <trkpt lat="44.47108" lon="6.26198">
        <ele>789</ele>
        <time>2016-05-07T05:24:28Z</time>
      </trkpt>
      <trkpt lat="44.47106" lon="6.26198">
        <ele>788</ele>
        <time>2016-05-07T05:26:28Z</time>
      </trkpt>
      <trkpt lat="44.47104" lon="6.26199">
        <ele>786</ele>
        <time>2016-05-07T05:28:28Z</time>
      </trkpt>
      <trkpt lat="44.47102" lon="6.26201">
        <ele>785</ele>
        <time>2016-05-07T05:30:28Z</time>
      </trkpt>
      <trkpt lat="44.47101" lon="6.26203">
        <ele>783</ele>
        <time>2016-05-07T05:32:28Z</time>
      </trkpt>
      <trkpt lat="44.47099" lon="6.26206">
        <ele>781</ele>
        <time>2016-05-07T05:34:28Z</time>
      </trkpt>
      <trkpt lat="44.47099" lon="6.26207">
        <ele>781</ele>
        <time>2016-05-07T05:36:28Z</time>
      </trkpt>
      <trkpt lat="44.47099" lon="6.26211">
        <ele>780</ele>
        <time>2016-05-07T05:38:28Z</time>
      </trkpt>
      <trkpt lat="44.47099" lon="6.26214">
        <ele>779</ele>
        <time>2016-05-07T05:40:28Z</time>
      </trkpt>
      <trkpt lat="44.47101" lon="6.26217">
        <ele>779</ele>
        <time>2016-05-07T05:42:28Z</time>
      </trkpt>
      <trkpt lat="44.4711" lon="6.26238">
        <ele>778</ele>
        <time>2016-05-07T05:44:28Z</time>
      </trkpt>
      <trkpt lat="44.47113" lon="6.26245">
        <ele>777</ele>
        <time>2016-05-07T05:46:28Z</time>
      </trkpt>
      <trkpt lat="44.47116" lon="6.26253">
        <ele>777</ele>
        <time>2016-05-07T05:48:28Z</time>
      </trkpt>
      <trkpt lat="44.47117" lon="6.26258">
        <ele>776</ele>
        <time>2016-05-07T05:50:28Z</time>
      </trkpt>
      <trkpt lat="44.47119" lon="6.26263">
        <ele>777</ele>
        <time>2016-05-07T05:52:28Z</time>
      </trkpt>
      <trkpt lat="44.4712" lon="6.26271">
        <ele>776</ele>
        <time>2016-05-07T05:54:28Z</time>
      </trkpt>
      <trkpt lat="44.47122" lon="6.26279">
        <ele>776</ele>
        <time>2016-05-07T05:56:28Z</time>
      </trkpt>
      <trkpt lat="44.47123" lon="6.26286">
        <ele>775</ele>
        <time>2016-05-07T05:58:28Z</time>
      </trkpt>
      <trkpt lat="44.47124" lon="6.26293">
        <ele>775</ele>
        <time>2016-05-07T06:00:28Z</time>
      </trkpt>
      <trkpt lat="44.47124" lon="6.263">
        <ele>773</ele>
        <time>2016-05-07T06:02:28Z</time>
      </trkpt>
      <trkpt lat="44.47123" lon="6.26311">
        <ele>771</ele>
        <time>2016-05-07T06:04:28Z</time>
      </trkpt>
      <trkpt lat="44.47122" lon="6.26317">
        <ele>770</ele>
        <time>2016-05-07T06:06:28Z</time>
      </trkpt>
      <trkpt lat="44.47121" lon="6.26323">
        <ele>769</ele>
        <time>2016-05-07T06:08:28Z</time>
      </trkpt>
      <trkpt lat="44.47119" lon="6.2633">
        <ele>767</ele>
        <time>2016-05-07T06:10:28Z</time>
      </trkpt>
      <trkpt lat="44.47117" lon="6.26336">
        <ele>766</ele>
        <time>2016-05-07T06:12:28Z</time>
      </trkpt>
      <trkpt lat="44.47115" lon="6.2634">
        <ele>764</ele>
        <time>2016-05-07T06:14:28Z</time>
      </trkpt>
      <trkpt lat="44.47112" lon="6.26345">
        <ele>763</ele>
        <time>2016-05-07T06:16:28Z</time>
      </trkpt>
      <trkpt lat="44.47107" lon="6.26353">
        <ele>760</ele>
        <time>2016-05-07T06:18:28Z</time>
      </trkpt>
      <trkpt lat="44.471" lon="6.26363">
        <ele>757</ele>
        <time>2016-05-07T06:20:28Z</time>
      </trkpt>
      <trkpt lat="44.4709" lon="6.26375">
        <ele>754</ele>
        <time>2016-05-07T06:22:28Z</time>
      </trkpt>
      <trkpt lat="44.47062" lon="6.26407">
        <ele>750</ele>
        <time>2016-05-07T06:24:28Z</time>
      </trkpt>
      <trkpt lat="44.47035" lon="6.26435">
        <ele>748</ele>
        <time>2016-05-07T06:26:28Z</time>
      </trkpt>
      <trkpt lat="44.47015" lon="6.26456">
        <ele>748</ele>
        <time>2016-05-07T06:28:28Z</time>
      </trkpt>
      <trkpt lat="44.46991" lon="6.26481">
        <ele>745</ele>
        <time>2016-05-07T06:30:28Z</time>
      </trkpt>
      <trkpt lat="44.46974" lon="6.265">
        <ele>739</ele>
        <time>2016-05-07T06:32:28Z</time>
      </trkpt>
      <trkpt lat="44.46971" lon="6.26505">
        <ele>737</ele>
        <time>2016-05-07T06:34:28Z</time>
      </trkpt>
      <trkpt lat="44.46967" lon="6.26511">
        <ele>735</ele>
        <time>2016-05-07T06:36:28Z</time>
      </trkpt>
      <trkpt lat="44.46965" lon="6.26521">
        <ele>732</ele>
        <time>2016-05-07T06:38:28Z</time>
      </trkpt>
      <trkpt lat="44.46963" lon="6.26531">
        <ele>730</ele>
        <time>2016-05-07T06:40:28Z</time>
      </trkpt>
      <trkpt lat="44.46964" lon="6.26541">
        <ele>729</ele>
        <time>2016-05-07T06:42:28Z</time>
      </trkpt>
      <trkpt lat="44.46965" lon="6.26549">
        <ele>728</ele>
        <time>2016-05-07T06:44:28Z</time>
      </trkpt>
      <trkpt lat="44.46967" lon="6.26558">
        <ele>727</ele>
        <time>2016-05-07T06:46:28Z</time>
      </trkpt>
      <trkpt lat="44.46971" lon="6.26567">
        <ele>726</ele>
        <time>2016-05-07T06:48:28Z</time>
      </trkpt>
      <trkpt lat="44.46975" lon="6.26572">
        <ele>726</ele>
        <time>2016-05-07T06:50:28Z</time>
      </trkpt>
      <trkpt lat="44.4698" lon="6.26577">
        <ele>726</ele>
        <time>2016-05-07T06:52:28Z</time>
      </trkpt>
      <trkpt lat="44.46987" lon="6.26581">
        <ele>726</ele>
        <time>2016-05-07T06:54:28Z</time>
      </trkpt>
      <trkpt lat="44.46993" lon="6.26583">
        <ele>727</ele>
        <time>2016-05-07T06:56:28Z</time>
      </trkpt>
      <trkpt lat="44.46998" lon="6.26583">
        <ele>728</ele>
        <time>2016-05-07T06:58:28Z</time>
      </trkpt>
      <trkpt lat="44.47005" lon="6.26583">
        <ele>728</ele>
        <time>2016-05-07T07:00:28Z</time>
      </trkpt>
      <trkpt lat="44.47021" lon="6.26579">
        <ele>728</ele>
        <time>2016-05-07T07:02:28Z</time>
      </trkpt>
      <trkpt lat="44.47049" lon="6.26571">
        <ele>728</ele>
        <time>2016-05-07T07:04:28Z</time>
      </trkpt>
      <trkpt lat="44.47067" lon="6.26567">
        <ele>728</ele>
        <time>2016-05-07T07:06:28Z</time>
      </trkpt>
      <trkpt lat="44.47074" lon="6.26563">
        <ele>728</ele>
        <time>2016-05-07T07:08:28Z</time>
      </trkpt>
      <trkpt lat="44.47081" lon="6.26558">
        <ele>729</ele>
        <time>2016-05-07T07:10:28Z</time>
      </trkpt>
      <trkpt lat="44.47086" lon="6.26551">
        <ele>730</ele>
        <time>2016-05-07T07:12:28Z</time>
      </trkpt>
      <trkpt lat="44.47092" lon="6.26543">
        <ele>731</ele>
        <time>2016-05-07T07:14:28Z</time>
      </trkpt>
      <trkpt lat="44.47096" lon="6.26535">
        <ele>732</ele>
        <time>2016-05-07T07:16:28Z</time>
      </trkpt>
      <trkpt lat="44.47102" lon="6.26516">
        <ele>735</ele>
        <time>2016-05-07T07:18:28Z</time>
      </trkpt>
      <trkpt lat="44.47106" lon="6.26501">
        <ele>738</ele>
        <time>2016-05-07T07:20:28Z</time>
      </trkpt>
      <trkpt lat="44.47109" lon="6.26495">
        <ele>739</ele>
        <time>2016-05-07T07:22:28Z</time>
      </trkpt>
      <trkpt lat="44.47112" lon="6.26492">
        <ele>739</ele>
        <time>2016-05-07T07:24:28Z</time>
      </trkpt>
      <trkpt lat="44.47116" lon="6.26489">
        <ele>740</ele>
        <time>2016-05-07T07:26:28Z</time>
      </trkpt>
      <trkpt lat="44.4712" lon="6.26488">
        <ele>739</ele>
        <time>2016-05-07T07:28:28Z</time>
      </trkpt>
      <trkpt lat="44.47127" lon="6.26489">
        <ele>739</ele>
        <time>2016-05-07T07:30:28Z</time>
      </trkpt>
      <trkpt lat="44.47133" lon="6.26491">
        <ele>738</ele>
        <time>2016-05-07T07:32:28Z</time>
      </trkpt>
      <trkpt lat="44.47137" lon="6.26495">
        <ele>736</ele>
        <time>2016-05-07T07:34:28Z</time>
      </trkpt>
      <trkpt lat="44.47138" lon="6.26497">
        <ele>736</ele>
        <time>2016-05-07T07:36:28Z</time>
      </trkpt>
      <trkpt lat="44.4714" lon="6.265">
        <ele>735</ele>
        <time>2016-05-07T07:38:28Z</time>
      </trkpt>
      <trkpt lat="44.47143" lon="6.26507">
        <ele>733</ele>
        <time>2016-05-07T07:40:28Z</time>
      </trkpt>
      <trkpt lat="44.47143" lon="6.26514">
        <ele>731</ele>
        <time>2016-05-07T07:42:28Z</time>
      </trkpt>
      <trkpt lat="44.47142" lon="6.26522">
        <ele>730</ele>
        <time>2016-05-07T07:44:28Z</time>
      </trkpt>
      <trkpt lat="44.47139" lon="6.2653">
        <ele>728</ele>
        <time>2016-05-07T07:46:28Z</time>
      </trkpt>
      <trkpt lat="44.47133" lon="6.26539">
        <ele>727</ele>
        <time>2016-05-07T07:48:28Z</time>
      </trkpt>
      <trkpt lat="44.47122" lon="6.26556">
        <ele>724</ele>
        <time>2016-05-07T07:50:28Z</time>
      </trkpt>
      <trkpt lat="44.47112" lon="6.2657">
        <ele>722</ele>
        <time>2016-05-07T07:52:28Z</time>
      </trkpt>
      <trkpt lat="44.47104" lon="6.26581">
        <ele>721</ele>
        <time>2016-05-07T07:54:28Z</time>
      </trkpt>
      <trkpt lat="44.47097" lon="6.26591">
        <ele>718</ele>
        <time>2016-05-07T07:56:28Z</time>
      </trkpt>
      <trkpt lat="44.47093" lon="6.26595">
        <ele>717</ele>
        <time>2016-05-07T07:58:28Z</time>
      </trkpt>
      <trkpt lat="44.47086" lon="6.266">
        <ele>715</ele>
        <time>2016-05-07T08:00:28Z</time>
      </trkpt>
      <trkpt lat="44.47081" lon="6.26603">
        <ele>714</ele>
        <time>2016-05-07T08:02:28Z</time>
      </trkpt>
      <trkpt lat="44.47076" lon="6.26604">
        <ele>714</ele>
        <time>2016-05-07T08:04:28Z</time>
      </trkpt>
      <trkpt lat="44.47068" lon="6.26603">
        <ele>715</ele>
        <time>2016-05-07T08:06:28Z</time>
      </trkpt>
      <trkpt lat="44.47057" lon="6.26601">
        <ele>717</ele>
        <time>2016-05-07T08:08:28Z</time>
      </trkpt>
      <trkpt lat="44.47051" lon="6.26601">
        <ele>717</ele>
        <time>2016-05-07T08:10:28Z</time>
      </trkpt>
      <trkpt lat="44.47047" lon="6.26602">
        <ele>717</ele>
        <time>2016-05-07T08:12:28Z</time>
      </trkpt>
      <trkpt lat="44.47041" lon="6.26604">
        <ele>716</ele>
        <time>2016-05-07T08:14:28Z</time>
      </trkpt>
      <trkpt lat="44.47018" lon="6.26616">
        <ele>712</ele>
        <time>2016-05-07T08:16:28Z</time>
      </trkpt>
      <trkpt lat="44.46982" lon="6.26633">
        <ele>705</ele>
        <time>2016-05-07T08:18:28Z</time>
      </trkpt>
      <trkpt lat="44.46967" lon="6.26639">
        <ele>702</ele>
        <time>2016-05-07T08:20:28Z</time>
      </trkpt>
      <trkpt lat="44.46961" lon="6.26643">
        <ele>701</ele>
        <time>2016-05-07T08:22:28Z</time>
      </trkpt>
      <trkpt lat="44.46957" lon="6.26647">
        <ele>700</ele>
        <time>2016-05-07T08:24:28Z</time>
      </trkpt>
      <trkpt lat="44.46951" lon="6.26653">
        <ele>698</ele>
        <time>2016-05-07T08:26:28Z</time>
      </trkpt>
      <trkpt lat="44.46947" lon="6.26658">
        <ele>697</ele>
        <time>2016-05-07T08:28:28Z</time>
      </trkpt>
      <trkpt lat="44.46932" lon="6.26684">
        <ele>692</ele>
        <time>2016-05-07T08:30:28Z</time>
      </trkpt>
      <trkpt lat="44.46927" lon="6.26691">
        <ele>691</ele>
        <time>2016-05-07T08:32:28Z</time>
      </trkpt>
      <trkpt lat="44.46925" lon="6.26695">
        <ele>691</ele>
        <time>2016-05-07T08:34:28Z</time>
      </trkpt>
      <trkpt lat="44.46923" lon="6.26697">
        <ele>690</ele>
        <time>2016-05-07T08:36:28Z</time>
      </trkpt>
      <trkpt lat="44.46921" lon="6.26698">
        <ele>690</ele>
        <time>2016-05-07T08:38:28Z</time>
      </trkpt>
      <trkpt lat="44.4692" lon="6.26698">
        <ele>690</ele>
        <time>2016-05-07T08:40:28Z</time>
      </trkpt>
      <trkpt lat="44.46919" lon="6.26699">
        <ele>690</ele>
        <time>2016-05-07T08:42:28Z</time>
      </trkpt>
      <trkpt lat="44.46917" lon="6.26699">
        <ele>690</ele>
        <time>2016-05-07T08:44:28Z</time>
      </trkpt>
      <trkpt lat="44.46916" lon="6.26699">
        <ele>690</ele>
        <time>2016-05-07T08:46:28Z</time>
      </trkpt>
      <trkpt lat="44.46914" lon="6.26698">
        <ele>690</ele>
        <time>2016-05-07T08:48:28Z</time>
      </trkpt>
      <trkpt lat="44.46913" lon="6.26698">
        <ele>690</ele>
        <time>2016-05-07T08:50:28Z</time>
      </trkpt>
      <trkpt lat="44.46911" lon="6.26697">
        <ele>690</ele>
        <time>2016-05-07T08:52:28Z</time>
      </trkpt>
      <trkpt lat="44.46909" lon="6.26695">
        <ele>690</ele>
        <time>2016-05-07T08:54:28Z</time>
      </trkpt>
      <trkpt lat="44.46908" lon="6.26693">
        <ele>690</ele>
        <time>2016-05-07T08:56:28Z</time>
      </trkpt>
      <trkpt lat="44.46907" lon="6.26691">
        <ele>690</ele>
        <time>2016-05-07T08:58:28Z</time>
      </trkpt>
      <trkpt lat="44.46906" lon="6.26689">
        <ele>690</ele>
        <time>2016-05-07T09:00:28Z</time>
      </trkpt>
      <trkpt lat="44.46905" lon="6.26687">
        <ele>690</ele>
        <time>2016-05-07T09:02:28Z</time>
      </trkpt>
      <trkpt lat="44.46904" lon="6.26684">
        <ele>691</ele>
        <time>2016-05-07T09:04:28Z</time>
      </trkpt>
      <trkpt lat="44.46904" lon="6.2668">
        <ele>691</ele>
        <time>2016-05-07T09:06:28Z</time>
      </trkpt>
      <trkpt lat="44.469" lon="6.26657">
        <ele>694</ele>
        <time>2016-05-07T09:08:28Z</time>
      </trkpt>
      <trkpt lat="44.46896" lon="6.26629">
        <ele>697</ele>
        <time>2016-05-07T09:10:28Z</time>
      </trkpt>
      <trkpt lat="44.46887" lon="6.2658">
        <ele>700</ele>
        <time>2016-05-07T09:12:28Z</time>
      </trkpt>
      <trkpt lat="44.46884" lon="6.26564">
        <ele>699</ele>
        <time>2016-05-07T09:14:28Z</time>
      </trkpt>
      <trkpt lat="44.46883" lon="6.26548">
        <ele>700</ele>
        <time>2016-05-07T09:16:28Z</time>
      </trkpt>
      <trkpt lat="44.46883" lon="6.2653">
        <ele>700</ele>
        <time>2016-05-07T09:18:28Z</time>
      </trkpt>
      <trkpt lat="44.46884" lon="6.26509">
        <ele>702</ele>
        <time>2016-05-07T09:20:28Z</time>
      </trkpt>
      <trkpt lat="44.46886" lon="6.26486">
        <ele>702</ele>
        <time>2016-05-07T09:22:28Z</time>
      </trkpt>
      <trkpt lat="44.4689" lon="6.26456">
        <ele>702</ele>
        <time>2016-05-07T09:24:28Z</time>
      </trkpt>
      <trkpt lat="44.46902" lon="6.26395">
        <ele>702</ele>
        <time>2016-05-07T09:26:28Z</time>
      </trkpt>
      <trkpt lat="44.4691" lon="6.26359">
        <ele>699</ele>
        <time>2016-05-07T09:28:28Z</time>
      </trkpt>
      <trkpt lat="44.46911" lon="6.26348">
        <ele>698</ele>
        <time>2016-05-07T09:30:28Z</time>
      </trkpt>
      <trkpt lat="44.46912" lon="6.26337">
        <ele>696</ele>
        <time>2016-05-07T09:32:28Z</time>
      </trkpt>
      <trkpt lat="44.46912" lon="6.26321">
        <ele>695</ele>
        <time>2016-05-07T09:34:28Z</time>
      </trkpt>
      <trkpt lat="44.46911" lon="6.26304">
        <ele>693</ele>
        <time>2016-05-07T09:36:28Z</time>
      </trkpt>
      <trkpt lat="44.46906" lon="6.26283">
        <ele>690</ele>
        <time>2016-05-07T09:38:28Z</time>
      </trkpt>
      <trkpt lat="44.46901" lon="6.26266">
        <ele>688</ele>
        <time>2016-05-07T09:40:28Z</time>
      </trkpt>
      <trkpt lat="44.46879" lon="6.26209">
        <ele>685</ele>
        <time>2016-05-07T09:42:28Z</time>
      </trkpt>
      <trkpt lat="44.46872" lon="6.2619">
        <ele>685</ele>
        <time>2016-05-07T09:44:28Z</time>
      </trkpt>
      <trkpt lat="44.46868" lon="6.26179">
        <ele>685</ele>
        <time>2016-05-07T09:46:28Z</time>
      </trkpt>
      <trkpt lat="44.46867" lon="6.26167">
        <ele>685</ele>
        <time>2016-05-07T09:48:28Z</time>
      </trkpt>
      <trkpt lat="44.46867" lon="6.26155">
        <ele>686</ele>
        <time>2016-05-07T09:50:28Z</time>
      </trkpt>
      <trkpt lat="44.46867" lon="6.26141">
        <ele>687</ele>
        <time>2016-05-07T09:52:28Z</time>
      </trkpt>
      <trkpt lat="44.46867" lon="6.26094">
        <ele>690</ele>
        <time>2016-05-07T09:54:28Z</time>
      </trkpt>
      <trkpt lat="44.46867" lon="6.26085">
        <ele>690</ele>
        <time>2016-05-07T09:56:28Z</time>
      </trkpt>
      <trkpt lat="44.46864" lon="6.26062">
        <ele>690</ele>
        <time>2016-05-07T09:58:28Z</time>
      </trkpt>
      <trkpt lat="44.46862" lon="6.26034">
        <ele>689</ele>
        <time>2016-05-07T10:00:28Z</time>
      </trkpt>
      <trkpt lat="44.4686" lon="6.26011">
        <ele>689</ele>
        <time>2016-05-07T10:02:28Z</time>
      </trkpt>
      <trkpt lat="44.46859" lon="6.25989">
        <ele>689</ele>
        <time>2016-05-07T10:04:28Z</time>
      </trkpt>
      <trkpt lat="44.46858" lon="6.25948">
        <ele>689</ele>
        <time>2016-05-07T10:06:28Z</time>
      </trkpt>
      <trkpt lat="44.46858" lon="6.25932">
        <ele>690</ele>
        <time>2016-05-07T10:08:28Z</time>
      </trkpt>
      <trkpt lat="44.46857" lon="6.25918">
        <ele>690</ele>
        <time>2016-05-07T10:10:28Z</time>
      </trkpt>
      <trkpt lat="44.46854" lon="6.25897">
        <ele>690</ele>
        <time>2016-05-07T10:12:28Z</time>
      </trkpt>
      <trkpt lat="44.46851" lon="6.25877">
        <ele>690</ele>
        <time>2016-05-07T10:14:28Z</time>
      </trkpt>
      <trkpt lat="44.46844" lon="6.25847">
        <ele>689</ele>
        <time>2016-05-07T10:16:28Z</time>
      </trkpt>
      <trkpt lat="44.46828" lon="6.25787">
        <ele>687</ele>
        <time>2016-05-07T10:18:28Z</time>
      </trkpt>
      <trkpt lat="44.46818" lon="6.25748">
        <ele>687</ele>
        <time>2016-05-07T10:20:28Z</time>
      </trkpt>
      <trkpt lat="44.46806" lon="6.25707">
        <ele>685</ele>
        <time>2016-05-07T10:22:28Z</time>
      </trkpt>
      <trkpt lat="44.46802" lon="6.25693">
        <ele>684</ele>
        <time>2016-05-07T10:24:28Z</time>
      </trkpt>
      <trkpt lat="44.46797" lon="6.25675">
        <ele>682</ele>
        <time>2016-05-07T10:26:28Z</time>
      </trkpt>
      <trkpt lat="44.46795" lon="6.25668">
        <ele>682</ele>
        <time>2016-05-07T10:28:28Z</time>
      </trkpt>
      <trkpt lat="44.46791" lon="6.25651">
        <ele>679</ele>
        <time>2016-05-07T10:30:28Z</time>
      </trkpt>
      <trkpt lat="44.46788" lon="6.25634">
        <ele>676</ele>
        <time>2016-05-07T10:32:28Z</time>
      </trkpt>
      <trkpt lat="44.46776" lon="6.25541">
        <ele>673</ele>
        <time>2016-05-07T10:34:28Z</time>
      </trkpt>
      <trkpt lat="44.46769" lon="6.25478">
        <ele>676</ele>
        <time>2016-05-07T10:36:28Z</time>
      </trkpt>
      <trkpt lat="44.46769" lon="6.25476">
        <ele>676</ele>
        <time>2016-05-07T10:38:28Z</time>
      </trkpt>
      <trkpt lat="44.46768" lon="6.25466">
        <ele>677</ele>
        <time>2016-05-07T10:40:28Z</time>
      </trkpt>
      <trkpt lat="44.46766" lon="6.25451">
        <ele>676</ele>
        <time>2016-05-07T10:42:28Z</time>
      </trkpt>
      <trkpt lat="44.46759" lon="6.25389">
        <ele>679</ele>
        <time>2016-05-07T10:44:28Z</time>
      </trkpt>
      <trkpt lat="44.46754" lon="6.2534">
        <ele>684</ele>
        <time>2016-05-07T10:46:28Z</time>
      </trkpt>
      <trkpt lat="44.46748" lon="6.2529">
        <ele>683</ele>
        <time>2016-05-07T10:48:28Z</time>
      </trkpt>
      <trkpt lat="44.46743" lon="6.25252">
        <ele>683</ele>
        <time>2016-05-07T10:50:28Z</time>
      </trkpt>
      <trkpt lat="44.4674" lon="6.25227">
        <ele>685</ele>
        <time>2016-05-07T10:52:28Z</time>
      </trkpt>
      <trkpt lat="44.46736" lon="6.25205">
        <ele>686</ele>
        <time>2016-05-07T10:54:28Z</time>
      </trkpt>
      <trkpt lat="44.46731" lon="6.25177">
        <ele>687</ele>
        <time>2016-05-07T10:56:28Z</time>
      </trkpt>
      <trkpt lat="44.46725" lon="6.25149">
        <ele>688</ele>
        <time>2016-05-07T10:58:28Z</time>
      </trkpt>
      <trkpt lat="44.46717" lon="6.25115">
        <ele>688</ele>
        <time>2016-05-07T11:00:28Z</time>
      </trkpt>
      <trkpt lat="44.46711" lon="6.25093">
        <ele>688</ele>
        <time>2016-05-07T11:02:28Z</time>
      </trkpt>
      <trkpt lat="44.46705" lon="6.25073">
        <ele>688</ele>
        <time>2016-05-07T11:04:28Z</time>
      </trkpt>
      <trkpt lat="44.46695" lon="6.25045">
        <ele>686</ele>
        <time>2016-05-07T11:06:28Z</time>
      </trkpt>
      <trkpt lat="44.46683" lon="6.25012">
        <ele>682</ele>
        <time>2016-05-07T11:08:28Z</time>
      </trkpt>
      <trkpt lat="44.46676" lon="6.24995">
        <ele>679</ele>
        <time>2016-05-07T11:10:28Z</time>
      </trkpt>
      <trkpt lat="44.46673" lon="6.24983">
        <ele>677</ele>
        <time>2016-05-07T11:12:28Z</time>
      </trkpt>
      <trkpt lat="44.4667" lon="6.24976">
        <ele>676</ele>
        <time>2016-05-07T11:14:28Z</time>
      </trkpt>
      <trkpt lat="44.46666" lon="6.24957">
        <ele>674</ele>
        <time>2016-05-07T11:16:28Z</time>
      </trkpt>
      <trkpt lat="44.4666" lon="6.24924">
        <ele>674</ele>
        <time>2016-05-07T11:18:28Z</time>
      </trkpt>
      <trkpt lat="44.46654" lon="6.2489">
        <ele>673</ele>
        <time>2016-05-07T11:20:28Z</time>
      </trkpt>
      <trkpt lat="44.46646" lon="6.2485">
        <ele>671</ele>
        <time>2016-05-07T11:22:28Z</time>
      </trkpt>
      <trkpt lat="44.46639" lon="6.24813">
        <ele>670</ele>
        <time>2016-05-07T11:24:28Z</time>
      </trkpt>
      <trkpt lat="44.46632" lon="6.24773">
        <ele>671</ele>
        <time>2016-05-07T11:26:28Z</time>
      </trkpt>
      <trkpt lat="44.46623" lon="6.2473">
        <ele>671</ele>
        <time>2016-05-07T11:28:28Z</time>
      </trkpt>
      <trkpt lat="44.46616" lon="6.24691">
        <ele>672</ele>
        <time>2016-05-07T11:30:28Z</time>
      </trkpt>
      <trkpt lat="44.46613" lon="6.2467">
        <ele>673</ele>
        <time>2016-05-07T11:32:28Z</time>
      </trkpt>
      <trkpt lat="44.46612" lon="6.24657">
        <ele>674</ele>
        <time>2016-05-07T11:34:28Z</time>
      </trkpt>
      <trkpt lat="44.46611" lon="6.24643">
        <ele>674</ele>
        <time>2016-05-07T11:36:28Z</time>
      </trkpt>
      <trkpt lat="44.46612" lon="6.24627">
        <ele>676</ele>
        <time>2016-05-07T11:38:28Z</time>
      </trkpt>
      <trkpt lat="44.46618" lon="6.24558">
        <ele>681</ele>
        <time>2016-05-07T11:40:28Z</time>
      </trkpt>
      <trkpt lat="44.46622" lon="6.24509">
        <ele>682</ele>
        <time>2016-05-07T11:42:28Z</time>
      </trkpt>
      <trkpt lat="44.46627" lon="6.24449">
        <ele>680</ele>
        <time>2016-05-07T11:44:28Z</time>
      </trkpt>
      <trkpt lat="44.46633" lon="6.2437">
        <ele>677</ele>
        <time>2016-05-07T11:46:28Z</time>
      </trkpt>
      <trkpt lat="44.46638" lon="6.24307">
        <ele>676</ele>
        <time>2016-05-07T11:48:28Z</time>
      </trkpt>
      <trkpt lat="44.46639" lon="6.2429">
        <ele>675</ele>
        <time>2016-05-07T11:50:28Z</time>
      </trkpt>
      <trkpt lat="44.46643" lon="6.24241">
        <ele>675</ele>
        <time>2016-05-07T11:52:28Z</time>
      </trkpt>
      <trkpt lat="44.46647" lon="6.24194">
        <ele>674</ele>
        <time>2016-05-07T11:54:28Z</time>
      </trkpt>
      <trkpt lat="44.4665" lon="6.2416">
        <ele>673</ele>
        <time>2016-05-07T11:56:28Z</time>
      </trkpt>
      <trkpt lat="44.46651" lon="6.24142">
        <ele>673</ele>
        <time>2016-05-07T11:58:28Z</time>
      </trkpt>
      <trkpt lat="44.46652" lon="6.24124">
        <ele>672</ele>
        <time>2016-05-07T12:00:28Z</time>
      </trkpt>
      <trkpt lat="44.46651" lon="6.24107">
        <ele>672</ele>
        <time>2016-05-07T12:02:28Z</time>
      </trkpt>
      <trkpt lat="44.46651" lon="6.24092">
        <ele>671</ele>
        <time>2016-05-07T12:04:28Z</time>
      </trkpt>
      <trkpt lat="44.46649" lon="6.24077">
        <ele>671</ele>
        <time>2016-05-07T12:06:28Z</time>
      </trkpt>
      <trkpt lat="44.46647" lon="6.24056">
        <ele>672</ele>
        <time>2016-05-07T12:08:28Z</time>
      </trkpt>
      <trkpt lat="44.46643" lon="6.24034">
        <ele>673</ele>
        <time>2016-05-07T12:10:28Z</time>
      </trkpt>
      <trkpt lat="44.46637" lon="6.24001">
        <ele>673</ele>
        <time>2016-05-07T12:12:28Z</time>
      </trkpt>
      <trkpt lat="44.46631" lon="6.23977">
        <ele>672</ele>
        <time>2016-05-07T12:14:28Z</time>
      </trkpt>
      <trkpt lat="44.46625" lon="6.23953">
        <ele>670</ele>
        <time>2016-05-07T12:16:28Z</time>
      </trkpt>
      <trkpt lat="44.46606" lon="6.23886">
        <ele>666</ele>
        <time>2016-05-07T12:18:28Z</time>
      </trkpt>
      <trkpt lat="44.46597" lon="6.23854">
        <ele>665</ele>
        <time>2016-05-07T12:20:28Z</time>
      </trkpt>
      <trkpt lat="44.46592" lon="6.23834">
        <ele>665</ele>
        <time>2016-05-07T12:22:28Z</time>
      </trkpt>
      <trkpt lat="44.46591" lon="6.23826">
        <ele>665</ele>
        <time>2016-05-07T12:24:28Z</time>
      </trkpt>
      <trkpt lat="44.46577" lon="6.23755">
        <ele>662</ele>
        <time>2016-05-07T12:26:28Z</time>
      </trkpt>
      <trkpt lat="44.46548" lon="6.23606">
        <ele>663</ele>
        <time>2016-05-07T12:28:28Z</time>
      </trkpt>
      <trkpt lat="44.46546" lon="6.23593">
        <ele>663</ele>
        <time>2016-05-07T12:30:28Z</time>
      </trkpt>
      <trkpt lat="44.4654" lon="6.23565">
        <ele>663</ele>
        <time>2016-05-07T12:32:28Z</time>
      </trkpt>
      <trkpt lat="44.46536" lon="6.23542">
        <ele>663</ele>
        <time>2016-05-07T12:34:28Z</time>
      </trkpt>
      <trkpt lat="44.46529" lon="6.23518">
        <ele>662</ele>
        <time>2016-05-07T12:36:28Z</time>
      </trkpt>
      <trkpt lat="44.46527" lon="6.2351">
        <ele>662</ele>
        <time>2016-05-07T12:38:28Z</time>
      </trkpt>
      <trkpt lat="44.46525" lon="6.23505">
        <ele>662</ele>
        <time>2016-05-07T12:40:28Z</time>
      </trkpt>
      <trkpt lat="44.46523" lon="6.23498">
        <ele>662</ele>
        <time>2016-05-07T12:42:28Z</time>
      </trkpt>
      <trkpt lat="44.46522" lon="6.23497">
        <ele>662</ele>
        <time>2016-05-07T12:44:28Z</time>
      </trkpt>
      <trkpt lat="44.46522" lon="6.23497">
        <ele>662</ele>
        <time>2016-05-07T12:46:28Z</time>
      </trkpt>
      <trkpt lat="44.46523" lon="6.23496">
        <ele>662</ele>
        <time>2016-05-07T12:48:28Z</time>
      </trkpt>
      <trkpt lat="44.46524" lon="6.23495">
        <ele>662</ele>
        <time>2016-05-07T12:50:28Z</time>
      </trkpt>
      <trkpt lat="44.46524" lon="6.23494">
        <ele>662</ele>
        <time>2016-05-07T12:52:28Z</time>
      </trkpt>
      <trkpt lat="44.46525" lon="6.23494">
        <ele>662</ele>
        <time>2016-05-07T12:54:28Z</time>
      </trkpt>
      <trkpt lat="44.46525" lon="6.23493">
        <ele>662</ele>
        <time>2016-05-07T12:56:28Z</time>
      </trkpt>
      <trkpt lat="44.46525" lon="6.23492">
        <ele>662</ele>
        <time>2016-05-07T12:58:28Z</time>
      </trkpt>
      <trkpt lat="44.46526" lon="6.23491">
        <ele>662</ele>
        <time>2016-05-07T13:00:28Z</time>
      </trkpt>
      <trkpt lat="44.46526" lon="6.2349">
        <ele>662</ele>
        <time>2016-05-07T13:02:28Z</time>
      </trkpt>
      <trkpt lat="44.46526" lon="6.23489">
        <ele>662</ele>
        <time>2016-05-07T13:04:28Z</time>
      </trkpt>
      <trkpt lat="44.46526" lon="6.23488">
        <ele>662</ele>
        <time>2016-05-07T13:06:28Z</time>
      </trkpt>
      <trkpt lat="44.46526" lon="6.23487">
        <ele>662</ele>
        <time>2016-05-07T13:08:28Z</time>
      </trkpt>
      <trkpt lat="44.46527" lon="6.23487">
        <ele>662</ele>
        <time>2016-05-07T13:10:28Z</time>
      </trkpt>
      <trkpt lat="44.46527" lon="6.23486">
        <ele>662</ele>
        <time>2016-05-07T13:12:28Z</time>
      </trkpt>
      <trkpt lat="44.46527" lon="6.23485">
        <ele>662</ele>
        <time>2016-05-07T13:14:28Z</time>
      </trkpt>
      <trkpt lat="44.46527" lon="6.23484">
        <ele>662</ele>
        <time>2016-05-07T13:16:28Z</time>
      </trkpt>
      <trkpt lat="44.46527" lon="6.23483">
        <ele>662</ele>
        <time>2016-05-07T13:18:28Z</time>
      </trkpt>
      <trkpt lat="44.46527" lon="6.23482">
        <ele>662</ele>
        <time>2016-05-07T13:20:28Z</time>
      </trkpt>
      <trkpt lat="44.46526" lon="6.23481">
        <ele>662</ele>
        <time>2016-05-07T13:22:28Z</time>
      </trkpt>
      <trkpt lat="44.46526" lon="6.2348">
        <ele>662</ele>
        <time>2016-05-07T13:24:28Z</time>
      </trkpt>
      <trkpt lat="44.46526" lon="6.23479">
        <ele>662</ele>
        <time>2016-05-07T13:26:28Z</time>
      </trkpt>
      <trkpt lat="44.46526" lon="6.23478">
        <ele>662</ele>
        <time>2016-05-07T13:28:28Z</time>
      </trkpt>
      <trkpt lat="44.46525" lon="6.23477">
        <ele>662</ele>
        <time>2016-05-07T13:30:28Z</time>
      </trkpt>
      <trkpt lat="44.46525" lon="6.23476">
        <ele>662</ele>
        <time>2016-05-07T13:32:28Z</time>
      </trkpt>
      <trkpt lat="44.46524" lon="6.23475">
        <ele>662</ele>
        <time>2016-05-07T13:34:28Z</time>
      </trkpt>
      <trkpt lat="44.46524" lon="6.23474">
        <ele>662</ele>
        <time>2016-05-07T13:36:28Z</time>
      </trkpt>
      <trkpt lat="44.46523" lon="6.23474">
        <ele>662</ele>
        <time>2016-05-07T13:38:28Z</time>
      </trkpt>
      <trkpt lat="44.46523" lon="6.23473">
        <ele>662</ele>
        <time>2016-05-07T13:40:28Z</time>
      </trkpt>
      <trkpt lat="44.46522" lon="6.23472">
        <ele>662</ele>
        <time>2016-05-07T13:42:28Z</time>
      </trkpt>
      <trkpt lat="44.46521" lon="6.23471">
        <ele>662</ele>
        <time>2016-05-07T13:44:28Z</time>
      </trkpt>
      <trkpt lat="44.4652" lon="6.23471">
        <ele>662</ele>
        <time>2016-05-07T13:46:28Z</time>
      </trkpt>
      <trkpt lat="44.4652" lon="6.2347">
        <ele>662</ele>
        <time>2016-05-07T13:48:28Z</time>
      </trkpt>
      <trkpt lat="44.46519" lon="6.2347">
        <ele>662</ele>
        <time>2016-05-07T13:50:28Z</time>
      </trkpt>
      <trkpt lat="44.46518" lon="6.2347">
        <ele>662</ele>
        <time>2016-05-07T13:52:28Z</time>
      </trkpt>
      <trkpt lat="44.46517" lon="6.23469">
        <ele>662</ele>
        <time>2016-05-07T13:54:28Z</time>
      </trkpt>
      <trkpt lat="44.46516" lon="6.23469">
        <ele>662</ele>
        <time>2016-05-07T13:56:28Z</time>
      </trkpt>
      <trkpt lat="44.46515" lon="6.23469">
        <ele>661</ele>
        <time>2016-05-07T13:58:28Z</time>
      </trkpt>
      <trkpt lat="44.46514" lon="6.23469">
        <ele>661</ele>
        <time>2016-05-07T14:00:28Z</time>
      </trkpt>
      <trkpt lat="44.46513" lon="6.2347">
        <ele>661</ele>
        <time>2016-05-07T14:02:28Z</time>
      </trkpt>
      <trkpt lat="44.46512" lon="6.2347">
        <ele>661</ele>
        <time>2016-05-07T14:04:28Z</time>
      </trkpt>
      <trkpt lat="44.46511" lon="6.23471">
        <ele>661</ele>
        <time>2016-05-07T14:06:28Z</time>
      </trkpt>
      <trkpt lat="44.4651" lon="6.23471">
        <ele>661</ele>
        <time>2016-05-07T14:08:28Z</time>
      </trkpt>
      <trkpt lat="44.4651" lon="6.23472">
        <ele>661</ele>
        <time>2016-05-07T14:10:28Z</time>
      </trkpt>
      <trkpt lat="44.46509" lon="6.23472">
        <ele>661</ele>
        <time>2016-05-07T14:12:28Z</time>
      </trkpt>
      <trkpt lat="44.46508" lon="6.23473">
        <ele>661</ele>
        <time>2016-05-07T14:14:28Z</time>
      </trkpt>
      <trkpt lat="44.46508" lon="6.23474">
        <ele>661</ele>
        <time>2016-05-07T14:16:28Z</time>
      </trkpt>
      <trkpt lat="44.46507" lon="6.23475">
        <ele>661</ele>
        <time>2016-05-07T14:18:28Z</time>
      </trkpt>
      <trkpt lat="44.46506" lon="6.23476">
        <ele>661</ele>
        <time>2016-05-07T14:20:28Z</time>
      </trkpt>
      <trkpt lat="44.46506" lon="6.23477">
        <ele>661</ele>
        <time>2016-05-07T14:22:28Z</time>
      </trkpt>
      <trkpt lat="44.46506" lon="6.23478">
        <ele>661</ele>
        <time>2016-05-07T14:24:28Z</time>
      </trkpt>
      <trkpt lat="44.46505" lon="6.23479">
        <ele>661</ele>
        <time>2016-05-07T14:26:28Z</time>
      </trkpt>
      <trkpt lat="44.46505" lon="6.2348">
        <ele>661</ele>
        <time>2016-05-07T14:28:28Z</time>
      </trkpt>
      <trkpt lat="44.46505" lon="6.23481">
        <ele>661</ele>
        <time>2016-05-07T14:30:28Z</time>
      </trkpt>
      <trkpt lat="44.46505" lon="6.23482">
        <ele>661</ele>
        <time>2016-05-07T14:32:28Z</time>
      </trkpt>
      <trkpt lat="44.46505" lon="6.23483">
        <ele>661</ele>
        <time>2016-05-07T14:34:28Z</time>
      </trkpt>
      <trkpt lat="44.46504" lon="6.23484">
        <ele>660</ele>
        <time>2016-05-07T14:36:28Z</time>
      </trkpt>
      <trkpt lat="44.46504" lon="6.23485">
        <ele>660</ele>
        <time>2016-05-07T14:38:28Z</time>
      </trkpt>
      <trkpt lat="44.46504" lon="6.23486">
        <ele>660</ele>
        <time>2016-05-07T14:40:28Z</time>
      </trkpt>
      <trkpt lat="44.46505" lon="6.23487">
        <ele>661</ele>
        <time>2016-05-07T14:42:28Z</time>
      </trkpt>
      <trkpt lat="44.46505" lon="6.23488">
        <ele>661</ele>
        <time>2016-05-07T14:44:28Z</time>
      </trkpt>
      <trkpt lat="44.46505" lon="6.23489">
        <ele>660</ele>
        <time>2016-05-07T14:46:28Z</time>
      </trkpt>
      <trkpt lat="44.46505" lon="6.2349">
        <ele>660</ele>
        <time>2016-05-07T14:48:28Z</time>
      </trkpt>
      <trkpt lat="44.46505" lon="6.23491">
        <ele>660</ele>
        <time>2016-05-07T14:50:28Z</time>
      </trkpt>
      <trkpt lat="44.46505" lon="6.23492">
        <ele>660</ele>
        <time>2016-05-07T14:52:28Z</time>
      </trkpt>
      <trkpt lat="44.46506" lon="6.23493">
        <ele>661</ele>
        <time>2016-05-07T14:54:28Z</time>
      </trkpt>
      <trkpt lat="44.46495" lon="6.23501">
        <ele>660</ele>
        <time>2016-05-07T14:56:28Z</time>
      </trkpt>
      <trkpt lat="44.46474" lon="6.23514">
        <ele>658</ele>
        <time>2016-05-07T14:58:28Z</time>
      </trkpt>
      <trkpt lat="44.46449" lon="6.23528">
        <ele>657</ele>
        <time>2016-05-07T15:00:28Z</time>
      </trkpt>
      <trkpt lat="44.46424" lon="6.23541">
        <ele>655</ele>
        <time>2016-05-07T15:02:28Z</time>
      </trkpt>
      <trkpt lat="44.46403" lon="6.23553">
        <ele>655</ele>
        <time>2016-05-07T15:04:28Z</time>
      </trkpt>
      <trkpt lat="44.46381" lon="6.23565">
        <ele>656</ele>
        <time>2016-05-07T15:06:28Z</time>
      </trkpt>
      <trkpt lat="44.46335" lon="6.2359">
        <ele>656</ele>
        <time>2016-05-07T15:08:28Z</time>
      </trkpt>
      <trkpt lat="44.4632" lon="6.23599">
        <ele>657</ele>
        <time>2016-05-07T15:10:28Z</time>
      </trkpt>
      <trkpt lat="44.46305" lon="6.23607">
        <ele>657</ele>
        <time>2016-05-07T15:12:28Z</time>
      </trkpt>
      <trkpt lat="44.4629" lon="6.23615">
        <ele>658</ele>
        <time>2016-05-07T15:14:28Z</time>
      </trkpt>
      <trkpt lat="44.46238" lon="6.23642">
        <ele>659</ele>
        <time>2016-05-07T15:16:28Z</time>
      </trkpt>
      <trkpt lat="44.46221" lon="6.23651">
        <ele>660</ele>
        <time>2016-05-07T15:18:28Z</time>
      </trkpt>
      <trkpt lat="44.46214" lon="6.23655">
        <ele>660</ele>
        <time>2016-05-07T15:20:28Z</time>
      </trkpt>
      <trkpt lat="44.46206" lon="6.23658">
        <ele>661</ele>
        <time>2016-05-07T15:22:28Z</time>
      </trkpt>
      <trkpt lat="44.46112" lon="6.23703">
        <ele>663</ele>
        <time>2016-05-07T15:24:28Z</time>
      </trkpt>
      <trkpt lat="44.46072" lon="6.23722">
        <ele>664</ele>
        <time>2016-05-07T15:26:28Z</time>
      </trkpt>
      <trkpt lat="44.45997" lon="6.2376">
        <ele>667</ele>
        <time>2016-05-07T15:28:28Z</time>
      </trkpt>
      <trkpt lat="44.45979" lon="6.23771">
        <ele>667</ele>
        <time>2016-05-07T15:30:28Z</time>
      </trkpt>
      <trkpt lat="44.45968" lon="6.23778">
        <ele>668</ele>
        <time>2016-05-07T15:32:28Z</time>
      </trkpt>
      <trkpt lat="44.45947" lon="6.23792">
        <ele>668</ele>
        <time>2016-05-07T15:34:28Z</time>
      </trkpt>
      <trkpt lat="44.45925" lon="6.23807">
        <ele>668</ele>
        <time>2016-05-07T15:36:28Z</time>
      </trkpt>
      <trkpt lat="44.45905" lon="6.23824">
        <ele>669</ele>
        <time>2016-05-07T15:38:28Z</time>
      </trkpt>
      <trkpt lat="44.45875" lon="6.23854">
        <ele>670</ele>
        <time>2016-05-07T15:40:28Z</time>
      </trkpt>
      <trkpt lat="44.45835" lon="6.23894">
        <ele>671</ele>
        <time>2016-05-07T15:42:28Z</time>
      </trkpt>
      <trkpt lat="44.45827" lon="6.23902">
        <ele>671</ele>
        <time>2016-05-07T15:44:28Z</time>
      </trkpt>
      <trkpt lat="44.45813" lon="6.23916">
        <ele>671</ele>
        <time>2016-05-07T15:46:28Z</time>
      </trkpt>
      <trkpt lat="44.458" lon="6.23929">
        <ele>672</ele>
        <time>2016-05-07T15:48:28Z</time>
      </trkpt>
      <trkpt lat="44.45789" lon="6.23942">
        <ele>672</ele>
        <time>2016-05-07T15:50:28Z</time>
      </trkpt>
      <trkpt lat="44.45789" lon="6.23942">
        <ele>672</ele>
        <time>2016-05-07T15:52:28Z</time>
      </trkpt>
      <trkpt lat="44.45768" lon="6.23942">
        <ele>673</ele>
        <time>2016-05-07T15:54:28Z</time>
      </trkpt>
      <trkpt lat="44.45764" lon="6.23943">
        <ele>673</ele>
        <time>2016-05-07T15:56:28Z</time>
      </trkpt>
      <trkpt lat="44.45758" lon="6.23944">
        <ele>674</ele>
        <time>2016-05-07T15:58:28Z</time>
      </trkpt>
      <trkpt lat="44.45752" lon="6.23942">
        <ele>674</ele>
        <time>2016-05-07T16:00:28Z</time>
      </trkpt>
      <trkpt lat="44.45747" lon="6.2394">
        <ele>675</ele>
        <time>2016-05-07T16:02:28Z</time>
      </trkpt>
      <trkpt lat="44.4574" lon="6.23936">
        <ele>676</ele>
        <time>2016-05-07T16:04:28Z</time>
      </trkpt>
      <trkpt lat="44.45734" lon="6.23931">
        <ele>678</ele>
        <time>2016-05-07T16:06:28Z</time>
      </trkpt>
      <trkpt lat="44.45726" lon="6.23922">
        <ele>679</ele>
        <time>2016-05-07T16:08:28Z</time>
      </trkpt>
      <trkpt lat="44.45701" lon="6.23894">
        <ele>682</ele>
        <time>2016-05-07T16:10:28Z</time>
      </trkpt>
      <trkpt lat="44.45693" lon="6.23885">
        <ele>682</ele>
        <time>2016-05-07T16:12:28Z</time>
      </trkpt>
      <trkpt lat="44.45681" lon="6.23874">
        <ele>683</ele>
        <time>2016-05-07T16:14:28Z</time>
      </trkpt>
      <trkpt lat="44.45667" lon="6.23863">
        <ele>683</ele>
        <time>2016-05-07T16:16:28Z</time>
      </trkpt>
      <trkpt lat="44.45652" lon="6.23854">
        <ele>684</ele>
        <time>2016-05-07T16:18:28Z</time>
      </trkpt>
      <trkpt lat="44.4564" lon="6.23849">
        <ele>686</ele>
        <time>2016-05-07T16:20:28Z</time>
      </trkpt>
      <trkpt lat="44.45616" lon="6.23841">
        <ele>687</ele>
        <time>2016-05-07T16:22:28Z</time>
      </trkpt>
      <trkpt lat="44.45594" lon="6.23835">
        <ele>688</ele>
        <time>2016-05-07T16:24:28Z</time>
      </trkpt>
      <trkpt lat="44.45582" lon="6.23835">
        <ele>690</ele>
        <time>2016-05-07T16:26:28Z</time>
      </trkpt>
      <trkpt lat="44.45569" lon="6.23835">
        <ele>690</ele>
        <time>2016-05-07T16:28:28Z</time>
      </trkpt>
      <trkpt lat="44.45528" lon="6.23839">
        <ele>693</ele>
        <time>2016-05-07T16:30:28Z</time>
      </trkpt>
      <trkpt lat="44.45512" lon="6.23841">
        <ele>695</ele>
        <time>2016-05-07T16:32:28Z</time>
      </trkpt>
      <trkpt lat="44.4549" lon="6.23841">
        <ele>696</ele>
        <time>2016-05-07T16:34:28Z</time>
      </trkpt>
      <trkpt lat="44.4548" lon="6.2384">
        <ele>696</ele>
        <time>2016-05-07T16:36:28Z</time>
      </trkpt>
      <trkpt lat="44.45466" lon="6.23836">
        <ele>693</ele>
        <time>2016-05-07T16:38:28Z</time>
      </trkpt>
      <trkpt lat="44.45452" lon="6.23832">
        <ele>691</ele>
        <time>2016-05-07T16:40:28Z</time>
      </trkpt>
      <trkpt lat="44.45438" lon="6.23829">
        <ele>691</ele>
        <time>2016-05-07T16:42:28Z</time>
      </trkpt>
      <trkpt lat="44.45423" lon="6.23827">
        <ele>691</ele>
        <time>2016-05-07T16:44:28Z</time>
      </trkpt>
      <trkpt lat="44.45369" lon="6.23828">
        <ele>692</ele>
        <time>2016-05-07T16:46:28Z</time>
      </trkpt>
      <trkpt lat="44.45313" lon="6.23831">
        <ele>692</ele>
        <time>2016-05-07T16:48:28Z</time>
      </trkpt>
      <trkpt lat="44.45303" lon="6.23831">
        <ele>691</ele>
        <time>2016-05-07T16:50:28Z</time>
      </trkpt>
      <trkpt lat="44.45288" lon="6.23833">
        <ele>691</ele>
        <time>2016-05-07T16:52:28Z</time>
      </trkpt>
      <trkpt lat="44.45274" lon="6.23838">
        <ele>694</ele>
        <time>2016-05-07T16:54:28Z</time>
      </trkpt>
      <trkpt lat="44.45252" lon="6.2385">
        <ele>701</ele>
        <time>2016-05-07T16:56:28Z</time>
      </trkpt>
      <trkpt lat="44.45231" lon="6.23865">
        <ele>706</ele>
        <time>2016-05-07T16:58:28Z</time>
      </trkpt>
      <trkpt lat="44.45218" lon="6.23872">
        <ele>706</ele>
        <time>2016-05-07T17:00:28Z</time>
      </trkpt>
      <trkpt lat="44.45215" lon="6.23874">
        <ele>706</ele>
        <time>2016-05-07T17:02:28Z</time>
      </trkpt>
      <trkpt lat="44.45212" lon="6.23877">
        <ele>707</ele>
        <time>2016-05-07T17:04:28Z</time>
      </trkpt>
      <trkpt lat="44.45208" lon="6.23883">
        <ele>708</ele>
        <time>2016-05-07T17:06:28Z</time>
      </trkpt>
      <trkpt lat="44.452" lon="6.2391">
        <ele>713</ele>
        <time>2016-05-07T17:08:28Z</time>
      </trkpt>
      <trkpt lat="44.45193" lon="6.23929">
        <ele>717</ele>
        <time>2016-05-07T17:10:28Z</time>
      </trkpt>
      <trkpt lat="44.45185" lon="6.23948">
        <ele>722</ele>
        <time>2016-05-07T17:12:28Z</time>
      </trkpt>
      <trkpt lat="44.45175" lon="6.23969">
        <ele>726</ele>
        <time>2016-05-07T17:14:28Z</time>
      </trkpt>
      <trkpt lat="44.45167" lon="6.23984">
        <ele>729</ele>
        <time>2016-05-07T17:16:28Z</time>
      </trkpt>
      <trkpt lat="44.45147" lon="6.24015">
        <ele>742</ele>
        <time>2016-05-07T17:18:28Z</time>
      </trkpt>
      <trkpt lat="44.45142" lon="6.24021">
        <ele>745</ele>
        <time>2016-05-07T17:20:28Z</time>
      </trkpt>
      <trkpt lat="44.45138" lon="6.24025">
        <ele>747</ele>
        <time>2016-05-07T17:22:28Z</time>
      </trkpt>
      <trkpt lat="44.4513" lon="6.2403">
        <ele>750</ele>
        <time>2016-05-07T17:24:28Z</time>
      </trkpt>
      <trkpt lat="44.45124" lon="6.24033">
        <ele>752</ele>
        <time>2016-05-07T17:26:28Z</time>
      </trkpt>
      <trkpt lat="44.45117" lon="6.24034">
        <ele>751</ele>
        <time>2016-05-07T17:28:28Z</time>
      </trkpt>
      <trkpt lat="44.45083" lon="6.24036">
        <ele>749</ele>
        <time>2016-05-07T17:30:28Z</time>
      </trkpt>
      <trkpt lat="44.45072" lon="6.24035">
        <ele>748</ele>
        <time>2016-05-07T17:32:28Z</time>
      </trkpt>
      <trkpt lat="44.45061" lon="6.24033">
        <ele>745</ele>
        <time>2016-05-07T17:34:28Z</time>
      </trkpt>
      <trkpt lat="44.45053" lon="6.24029">
        <ele>742</ele>
        <time>2016-05-07T17:36:28Z</time>
      </trkpt>
      <trkpt lat="44.45045" lon="6.24025">
        <ele>738</ele>
        <time>2016-05-07T17:38:28Z</time>
      </trkpt>
      <trkpt lat="44.4503" lon="6.24011">
        <ele>727</ele>
        <time>2016-05-07T17:40:28Z</time>
      </trkpt>
      <trkpt lat="44.45024" lon="6.24004">
        <ele>722</ele>
        <time>2016-05-07T17:42:28Z</time>
      </trkpt>
      <trkpt lat="44.45017" lon="6.23997">
        <ele>719</ele>
        <time>2016-05-07T17:44:28Z</time>
      </trkpt>
      <trkpt lat="44.45006" lon="6.2399">
        <ele>719</ele>
        <time>2016-05-07T17:46:28Z</time>
      </trkpt>
      <trkpt lat="44.45001" lon="6.23989">
        <ele>719</ele>
        <time>2016-05-07T17:48:28Z</time>
      </trkpt>
      <trkpt lat="44.44996" lon="6.23991">
        <ele>719</ele>
        <time>2016-05-07T17:50:28Z</time>
      </trkpt>
      <trkpt lat="44.44992" lon="6.23994">
        <ele>720</ele>
        <time>2016-05-07T17:52:28Z</time>
      </trkpt>
      <trkpt lat="44.44989" lon="6.23998">
        <ele>721</ele>
        <time>2016-05-07T17:54:28Z</time>
      </trkpt>
      <trkpt lat="44.44988" lon="6.24002">
        <ele>722</ele>
        <time>2016-05-07T17:56:28Z</time>
      </trkpt>
      <trkpt lat="44.44984" lon="6.24009">
        <ele>727</ele>
        <time>2016-05-07T17:58:28Z</time>
      </trkpt>
      <trkpt lat="44.44978" lon="6.24017">
        <ele>731</ele>
        <time>2016-05-07T18:00:28Z</time>
      </trkpt>
      <trkpt lat="44.44972" lon="6.24024">
        <ele>735</ele>
        <time>2016-05-07T18:02:28Z</time>
      </trkpt>
      <trkpt lat="44.44964" lon="6.24031">
        <ele>738</ele>
        <time>2016-05-07T18:04:28Z</time>
      </trkpt>
      <trkpt lat="44.44952" lon="6.24039">
        <ele>740</ele>
        <time>2016-05-07T18:06:28Z</time>
      </trkpt>
      <trkpt lat="44.44945" lon="6.24045">
        <ele>742</ele>
        <time>2016-05-07T18:08:28Z</time>
      </trkpt>
      <trkpt lat="44.44938" lon="6.24055">
        <ele>745</ele>
        <time>2016-05-07T18:10:28Z</time>
      </trkpt>
      <trkpt lat="44.44929" lon="6.24071">
        <ele>749</ele>
        <time>2016-05-07T18:12:28Z</time>
      </trkpt>
      <trkpt lat="44.44926" lon="6.24074">
        <ele>750</ele>
        <time>2016-05-07T18:14:28Z</time>
      </trkpt>
      <trkpt lat="44.44922" lon="6.24077">
        <ele>749</ele>
        <time>2016-05-07T18:16:28Z</time>
      </trkpt>
      <trkpt lat="44.44916" lon="6.24077">
        <ele>748</ele>
        <time>2016-05-07T18:18:28Z</time>
      </trkpt>
      <trkpt lat="44.44907" lon="6.24072">
        <ele>745</ele>
        <time>2016-05-07T18:20:28Z</time>
      </trkpt>
      <trkpt lat="44.44878" lon="6.24052">
        <ele>738</ele>
        <time>2016-05-07T18:22:28Z</time>
      </trkpt>
      <trkpt lat="44.44871" lon="6.24049">
        <ele>738</ele>
        <time>2016-05-07T18:24:28Z</time>
      </trkpt>
      <trkpt lat="44.44864" lon="6.24047">
        <ele>737</ele>
        <time>2016-05-07T18:26:28Z</time>
      </trkpt>
      <trkpt lat="44.44855" lon="6.24046">
        <ele>737</ele>
        <time>2016-05-07T18:28:28Z</time>
      </trkpt>
      <trkpt lat="44.44843" lon="6.24049">
        <ele>738</ele>
        <time>2016-05-07T18:30:28Z</time>
      </trkpt>
      <trkpt lat="44.44837" lon="6.24054">
        <ele>738</ele>
        <time>2016-05-07T18:32:28Z</time>
      </trkpt>
      <trkpt lat="44.44831" lon="6.24059">
        <ele>739</ele>
        <time>2016-05-07T18:34:28Z</time>
      </trkpt>
      <trkpt lat="44.44824" lon="6.24068">
        <ele>741</ele>
        <time>2016-05-07T18:36:28Z</time>
      </trkpt>
      <trkpt lat="44.44812" lon="6.24088">
        <ele>745</ele>
        <time>2016-05-07T18:38:28Z</time>
      </trkpt>
      <trkpt lat="44.44809" lon="6.24099">
        <ele>746</ele>
        <time>2016-05-07T18:40:28Z</time>
      </trkpt>
      <trkpt lat="44.44809" lon="6.24108">
        <ele>747</ele>
        <time>2016-05-07T18:42:28Z</time>
      </trkpt>
      <trkpt lat="44.44809" lon="6.24117">
        <ele>747</ele>
        <time>2016-05-07T18:44:28Z</time>
      </trkpt>
      <trkpt lat="44.44813" lon="6.24137">
        <ele>747</ele>
        <time>2016-05-07T18:46:28Z</time>
      </trkpt>
      <trkpt lat="44.44816" lon="6.24154">
        <ele>747</ele>
        <time>2016-05-07T18:48:28Z</time>
      </trkpt>
      <trkpt lat="44.44819" lon="6.24174">
        <ele>748</ele>
        <time>2016-05-07T18:50:28Z</time>
      </trkpt>
      <trkpt lat="44.4482" lon="6.24189">
        <ele>750</ele>
        <time>2016-05-07T18:52:28Z</time>
      </trkpt>
      <trkpt lat="44.4482" lon="6.24203">
        <ele>752</ele>
        <time>2016-05-07T18:54:28Z</time>
      </trkpt>
      <trkpt lat="44.44818" lon="6.24222">
        <ele>754</ele>
        <time>2016-05-07T18:56:28Z</time>
      </trkpt>
      <trkpt lat="44.44815" lon="6.24245">
        <ele>756</ele>
        <time>2016-05-07T18:58:28Z</time>
      </trkpt>
      <trkpt lat="44.4481" lon="6.24264">
        <ele>758</ele>
        <time>2016-05-07T19:00:28Z</time>
      </trkpt>
      <trkpt lat="44.44804" lon="6.24282">
        <ele>760</ele>
        <time>2016-05-07T19:02:28Z</time>
      </trkpt>
      <trkpt lat="44.44796" lon="6.24301">
        <ele>759</ele>
        <time>2016-05-07T19:04:28Z</time>
      </trkpt>
      <trkpt lat="44.44788" lon="6.24319">
        <ele>758</ele>
        <time>2016-05-07T19:06:28Z</time>
      </trkpt>
      <trkpt lat="44.44778" lon="6.24337">
        <ele>755</ele>
        <time>2016-05-07T19:08:28Z</time>
      </trkpt>
      <trkpt lat="44.44768" lon="6.24354">
        <ele>755</ele>
        <time>2016-05-07T19:10:28Z</time>
      </trkpt>
      <trkpt lat="44.44743" lon="6.24386">
        <ele>756</ele>
        <time>2016-05-07T19:12:28Z</time>
      </trkpt>
      <trkpt lat="44.44722" lon="6.24414">
        <ele>758</ele>
        <time>2016-05-07T19:14:28Z</time>
      </trkpt>
      <trkpt lat="44.44716" lon="6.24424">
        <ele>760</ele>
        <time>2016-05-07T19:16:28Z</time>
      </trkpt>
      <trkpt lat="44.44711" lon="6.2443">
        <ele>761</ele>
        <time>2016-05-07T19:18:28Z</time>
      </trkpt>
      <trkpt lat="44.44705" lon="6.24436">
        <ele>762</ele>
        <time>2016-05-07T19:20:28Z</time>
      </trkpt>
      <trkpt lat="44.447" lon="6.2444">
        <ele>762</ele>
        <time>2016-05-07T19:22:28Z</time>
      </trkpt>
      <trkpt lat="44.4468" lon="6.24449">
        <ele>760</ele>
        <time>2016-05-07T19:24:28Z</time>
      </trkpt>
      <trkpt lat="44.4465" lon="6.24464">
        <ele>763</ele>
        <time>2016-05-07T19:26:28Z</time>
      </trkpt>
      <trkpt lat="44.44642" lon="6.24467">
        <ele>764</ele>
        <time>2016-05-07T19:28:28Z</time>
      </trkpt>
      <trkpt lat="44.44635" lon="6.2447">
        <ele>765</ele>
        <time>2016-05-07T19:30:28Z</time>
      </trkpt>
      <trkpt lat="44.44627" lon="6.24475">
        <ele>766</ele>
        <time>2016-05-07T19:32:28Z</time>
      </trkpt>
      <trkpt lat="44.44617" lon="6.24483">
        <ele>768</ele>
        <time>2016-05-07T19:34:28Z</time>
      </trkpt>
      <trkpt lat="44.44609" lon="6.24487">
        <ele>769</ele>
        <time>2016-05-07T19:36:28Z</time>
      </trkpt>
      <trkpt lat="44.44604" lon="6.24488">
        <ele>768</ele>
        <time>2016-05-07T19:38:28Z</time>
      </trkpt>
      <trkpt lat="44.44599" lon="6.24488">
        <ele>768</ele>
        <time>2016-05-07T19:40:28Z</time>
      </trkpt>
      <trkpt lat="44.4455" lon="6.24484">
        <ele>762</ele>
        <time>2016-05-07T19:42:28Z</time>
      </trkpt>
      <trkpt lat="44.44545" lon="6.24484">
        <ele>761</ele>
        <time>2016-05-07T19:44:28Z</time>
      </trkpt>
      <trkpt lat="44.44539" lon="6.24486">
        <ele>760</ele>
        <time>2016-05-07T19:46:28Z</time>
      </trkpt>
      <trkpt lat="44.44535" lon="6.24488">
        <ele>759</ele>
        <time>2016-05-07T19:48:28Z</time>
      </trkpt>
      <trkpt lat="44.4453" lon="6.24492">
        <ele>758</ele>
        <time>2016-05-07T19:50:28Z</time>
      </trkpt>
      <trkpt lat="44.44523" lon="6.24499">
        <ele>757</ele>
        <time>2016-05-07T19:52:28Z</time>
      </trkpt>
      <trkpt lat="44.44508" lon="6.24519">
        <ele>757</ele>
        <time>2016-05-07T19:54:28Z</time>
      </trkpt>
      <trkpt lat="44.44498" lon="6.24529">
        <ele>757</ele>
        <time>2016-05-07T19:56:28Z</time>
      </trkpt>
      <trkpt lat="44.44486" lon="6.24537">
        <ele>759</ele>
        <time>2016-05-07T19:58:28Z</time>
      </trkpt>
      <trkpt lat="44.4448" lon="6.24545">
        <ele>760</ele>
        <time>2016-05-07T20:00:28Z</time>
      </trkpt>
      <trkpt lat="44.44476" lon="6.24553">
        <ele>760</ele>
        <time>2016-05-07T20:02:28Z</time>
      </trkpt>
      <trkpt lat="44.44472" lon="6.24563">
        <ele>761</ele>
        <time>2016-05-07T20:04:28Z</time>
      </trkpt>
      <trkpt lat="44.4446" lon="6.2462">
        <ele>764</ele>
        <time>2016-05-07T20:06:28Z</time>
      </trkpt>
      <trkpt lat="44.44455" lon="6.24655">
        <ele>767</ele>
        <time>2016-05-07T20:08:28Z</time>
      </trkpt>
      <trkpt lat="44.44453" lon="6.24659">
        <ele>766</ele>
        <time>2016-05-07T20:10:28Z</time>
      </trkpt>
      <trkpt lat="44.44451" lon="6.24663">
        <ele>766</ele>
        <time>2016-05-07T20:12:28Z</time>
      </trkpt>
      <trkpt lat="44.44449" lon="6.24666">
        <ele>766</ele>
        <time>2016-05-07T20:14:28Z</time>
      </trkpt>
      <trkpt lat="44.44446" lon="6.24669">
        <ele>766</ele>
        <time>2016-05-07T20:16:28Z</time>
      </trkpt>
      <trkpt lat="44.44439" lon="6.24673">
        <ele>765</ele>
        <time>2016-05-07T20:18:28Z</time>
      </trkpt>
      <trkpt lat="44.4443" lon="6.24676">
        <ele>764</ele>
        <time>2016-05-07T20:20:28Z</time>
      </trkpt>
      <trkpt lat="44.44424" lon="6.24676">
        <ele>762</ele>
        <time>2016-05-07T20:22:28Z</time>
      </trkpt>
      <trkpt lat="44.44417" lon="6.24675">
        <ele>760</ele>
        <time>2016-05-07T20:24:28Z</time>
      </trkpt>
      <trkpt lat="44.4441" lon="6.24674">
        <ele>759</ele>
        <time>2016-05-07T20:26:28Z</time>
      </trkpt>
      <trkpt lat="44.444" lon="6.24676">
        <ele>759</ele>
        <time>2016-05-07T20:28:28Z</time>
      </trkpt>
      <trkpt lat="44.44394" lon="6.24679">
        <ele>759</ele>
        <time>2016-05-07T20:30:28Z</time>
      </trkpt>
      <trkpt lat="44.44387" lon="6.24683">
        <ele>759</ele>
        <time>2016-05-07T20:32:28Z</time>
      </trkpt>
      <trkpt lat="44.44381" lon="6.24687">
        <ele>759</ele>
        <time>2016-05-07T20:34:28Z</time>
      </trkpt>
      <trkpt lat="44.44374" lon="6.24693">
        <ele>759</ele>
        <time>2016-05-07T20:36:28Z</time>
      </trkpt>
      <trkpt lat="44.44364" lon="6.24704">
        <ele>759</ele>
        <time>2016-05-07T20:38:28Z</time>
      </trkpt>
      <trkpt lat="44.44355" lon="6.24718">
        <ele>759</ele>
        <time>2016-05-07T20:40:28Z</time>
      </trkpt>
      <trkpt lat="44.44347" lon="6.2473">
        <ele>759</ele>
        <time>2016-05-07T20:42:28Z</time>
      </trkpt>
      <trkpt lat="44.44338" lon="6.2475">
        <ele>759</ele>
        <time>2016-05-07T20:44:28Z</time>
      </trkpt>
      <trkpt lat="44.44331" lon="6.24763">
        <ele>760</ele>
        <time>2016-05-07T20:46:28Z</time>
      </trkpt>
      <trkpt lat="44.44324" lon="6.24774">
        <ele>761</ele>
        <time>2016-05-07T20:48:28Z</time>
      </trkpt>
      <trkpt lat="44.44313" lon="6.24786">
        <ele>761</ele>
        <time>2016-05-07T20:50:28Z</time>
      </trkpt>
      <trkpt lat="44.44307" lon="6.24794">
        <ele>762</ele>
        <time>2016-05-07T20:52:28Z</time>
      </trkpt>
      <trkpt lat="44.44303" lon="6.24801">
        <ele>762</ele>
        <time>2016-05-07T20:54:28Z</time>
      </trkpt>
      <trkpt lat="44.44299" lon="6.24808">
        <ele>763</ele>
        <time>2016-05-07T20:56:28Z</time>
      </trkpt>
      <trkpt lat="44.44294" lon="6.24821">
        <ele>764</ele>
        <time>2016-05-07T20:58:28Z</time>
      </trkpt>
      <trkpt lat="44.44292" lon="6.24826">
        <ele>765</ele>
        <time>2016-05-07T21:00:28Z</time>
      </trkpt>
      <trkpt lat="44.44289" lon="6.24831">
        <ele>765</ele>
        <time>2016-05-07T21:02:28Z</time>
      </trkpt>
      <trkpt lat="44.44286" lon="6.24835">
        <ele>766</ele>
        <time>2016-05-07T21:04:28Z</time>
      </trkpt>
      <trkpt lat="44.44282" lon="6.24838">
        <ele>766</ele>
        <time>2016-05-07T21:06:28Z</time>
      </trkpt>
      <trkpt lat="44.44278" lon="6.24839">
        <ele>765</ele>
        <time>2016-05-07T21:08:28Z</time>
      </trkpt>
      <trkpt lat="44.44274" lon="6.24839">
        <ele>765</ele>
        <time>2016-05-07T21:10:28Z</time>
      </trkpt>
      <trkpt lat="44.44265" lon="6.24837">
        <ele>763</ele>
        <time>2016-05-07T21:12:28Z</time>
      </trkpt>
      <trkpt lat="44.44237" lon="6.24833">
        <ele>759</ele>
        <time>2016-05-07T21:14:28Z</time>
      </trkpt>
      <trkpt lat="44.44227" lon="6.24833">
        <ele>759</ele>
        <time>2016-05-07T21:16:28Z</time>
      </trkpt>
      <trkpt lat="44.44216" lon="6.24835">
        <ele>759</ele>
        <time>2016-05-07T21:18:28Z</time>
      </trkpt>
      <trkpt lat="44.44205" lon="6.24836">
        <ele>759</ele>
        <time>2016-05-07T21:20:28Z</time>
      </trkpt>
      <trkpt lat="44.44192" lon="6.24836">
        <ele>759</ele>
        <time>2016-05-07T21:22:28Z</time>
      </trkpt>
      <trkpt lat="44.44179" lon="6.24835">
        <ele>758</ele>
        <time>2016-05-07T21:24:28Z</time>
      </trkpt>
      <trkpt lat="44.44162" lon="6.24832">
        <ele>757</ele>
        <time>2016-05-07T21:26:28Z</time>
      </trkpt>
      <trkpt lat="44.44148" lon="6.24831">
        <ele>757</ele>
        <time>2016-05-07T21:28:28Z</time>
      </trkpt>
      <trkpt lat="44.44137" lon="6.24828">
        <ele>757</ele>
        <time>2016-05-07T21:30:28Z</time>
      </trkpt>
      <trkpt lat="44.44123" lon="6.24822">
        <ele>756</ele>
        <time>2016-05-07T21:32:28Z</time>
      </trkpt>
      <trkpt lat="44.44117" lon="6.2482">
        <ele>756</ele>
        <time>2016-05-07T21:34:28Z</time>
      </trkpt>
      <trkpt lat="44.44113" lon="6.2482">
        <ele>756</ele>
        <time>2016-05-07T21:36:28Z</time>
      </trkpt>
      <trkpt lat="44.44106" lon="6.24821">
        <ele>756</ele>
        <time>2016-05-07T21:38:28Z</time>
      </trkpt>
      <trkpt lat="44.44093" lon="6.24826">
        <ele>757</ele>
        <time>2016-05-07T21:40:28Z</time>
      </trkpt>
      <trkpt lat="44.44084" lon="6.24829">
        <ele>757</ele>
        <time>2016-05-07T21:42:28Z</time>
      </trkpt>
      <trkpt lat="44.44076" lon="6.2483">
        <ele>756</ele>
        <time>2016-05-07T21:44:28Z</time>
      </trkpt>
      <trkpt lat="44.44064" lon="6.2483">
        <ele>755</ele>
        <time>2016-05-07T21:46:28Z</time>
      </trkpt>
      <trkpt lat="44.4406" lon="6.2483">
        <ele>755</ele>
        <time>2016-05-07T21:48:28Z</time>
      </trkpt>
      <trkpt lat="44.44054" lon="6.24832">
        <ele>755</ele>
        <time>2016-05-07T21:50:28Z</time>
      </trkpt>
      <trkpt lat="44.44049" lon="6.24836">
        <ele>755</ele>
        <time>2016-05-07T21:52:28Z</time>
      </trkpt>
      <trkpt lat="44.44044" lon="6.24842">
        <ele>755</ele>
        <time>2016-05-07T21:54:28Z</time>
      </trkpt>
      <trkpt lat="44.44039" lon="6.24851">
        <ele>756</ele>
        <time>2016-05-07T21:56:28Z</time>
      </trkpt>
      <trkpt lat="44.44035" lon="6.24862">
        <ele>757</ele>
        <time>2016-05-07T21:58:28Z</time>
      </trkpt>
      <trkpt lat="44.44032" lon="6.24872">
        <ele>758</ele>
        <time>2016-05-07T22:00:28Z</time>
      </trkpt>
      <trkpt lat="44.44031" lon="6.24879">
        <ele>759</ele>
        <time>2016-05-07T22:02:28Z</time>
      </trkpt>
      <trkpt lat="44.44024" lon="6.24929">
        <ele>764</ele>
        <time>2016-05-07T22:04:28Z</time>
      </trkpt>
      <trkpt lat="44.44014" lon="6.24998">
        <ele>772</ele>
        <time>2016-05-07T22:06:28Z</time>
      </trkpt>
      <trkpt lat="44.44013" lon="6.25003">
        <ele>773</ele>
        <time>2016-05-07T22:08:28Z</time>
      </trkpt>
      <trkpt lat="44.44011" lon="6.25008">
        <ele>773</ele>
        <time>2016-05-07T22:10:28Z</time>
      </trkpt>
      <trkpt lat="44.44008" lon="6.25014">
        <ele>773</ele>
        <time>2016-05-07T22:12:28Z</time>
      </trkpt>
      <trkpt lat="44.44004" lon="6.25018">
        <ele>772</ele>
        <time>2016-05-07T22:14:28Z</time>
      </trkpt>
      <trkpt lat="44.44003" lon="6.25018">
        <ele>772</ele>
        <time>2016-05-07T22:16:28Z</time>
      </trkpt>
      <trkpt lat="44.43993" lon="6.25025">
        <ele>772</ele>
        <time>2016-05-07T22:18:28Z</time>
      </trkpt>
      <trkpt lat="44.43986" lon="6.2503">
        <ele>773</ele>
        <time>2016-05-07T22:20:28Z</time>
      </trkpt>
      <trkpt lat="44.4398" lon="6.25031">
        <ele>773</ele>
        <time>2016-05-07T22:22:28Z</time>
      </trkpt>
      <trkpt lat="44.43976" lon="6.25031">
        <ele>773</ele>
        <time>2016-05-07T22:24:28Z</time>
      </trkpt>
      <trkpt lat="44.43974" lon="6.25031">
        <ele>773</ele>
        <time>2016-05-07T22:26:28Z</time>
      </trkpt>
      <trkpt lat="44.43969" lon="6.25028">
        <ele>773</ele>
        <time>2016-05-07T22:28:28Z</time>
      </trkpt>
      <trkpt lat="44.43964" lon="6.25024">
        <ele>772</ele>
        <time>2016-05-07T22:30:28Z</time>
      </trkpt>
      <trkpt lat="44.4396" lon="6.25018">
        <ele>772</ele>
        <time>2016-05-07T22:32:28Z</time>
      </trkpt>
      <trkpt lat="44.43957" lon="6.25013">
        <ele>772</ele>
        <time>2016-05-07T22:34:28Z</time>
      </trkpt>
      <trkpt lat="44.43954" lon="6.25005">
        <ele>771</ele>
        <time>2016-05-07T22:36:28Z</time>
      </trkpt>
      <trkpt lat="44.43952" lon="6.24997">
        <ele>770</ele>
        <time>2016-05-07T22:38:28Z</time>
      </trkpt>
      <trkpt lat="44.4395" lon="6.24986">
        <ele>769</ele>
        <time>2016-05-07T22:40:28Z</time>
      </trkpt>
      <trkpt lat="44.4395" lon="6.24978">
        <ele>768</ele>
        <time>2016-05-07T22:42:28Z</time>
      </trkpt>
      <trkpt lat="44.4395" lon="6.24965">
        <ele>766</ele>
        <time>2016-05-07T22:44:28Z</time>
      </trkpt>
      <trkpt lat="44.43949" lon="6.24961">
        <ele>765</ele>
        <time>2016-05-07T22:46:28Z</time>
      </trkpt>
      <trkpt lat="44.43947" lon="6.24957">
        <ele>765</ele>
        <time>2016-05-07T22:48:28Z</time>
      </trkpt>
      <trkpt lat="44.43945" lon="6.24953">
        <ele>764</ele>
        <time>2016-05-07T22:50:28Z</time>
      </trkpt>
      <trkpt lat="44.4394" lon="6.24949">
        <ele>764</ele>
        <time>2016-05-07T22:52:28Z</time>
      </trkpt>
      <trkpt lat="44.43936" lon="6.24948">
        <ele>764</ele>
        <time>2016-05-07T22:54:28Z</time>
      </trkpt>
      <trkpt lat="44.43931" lon="6.24949">
        <ele>764</ele>
        <time>2016-05-07T22:56:28Z</time>
      </trkpt>
      <trkpt lat="44.43928" lon="6.2495">
        <ele>764</ele>
        <time>2016-05-07T22:58:28Z</time>
      </trkpt>
      <trkpt lat="44.439" lon="6.24978">
        <ele>768</ele>
        <time>2016-05-07T23:00:28Z</time>
      </trkpt>
      <trkpt lat="44.43897" lon="6.2498">
        <ele>768</ele>
        <time>2016-05-07T23:02:28Z</time>
      </trkpt>
      <trkpt lat="44.4389" lon="6.24987">
        <ele>768</ele>
        <time>2016-05-07T23:04:28Z</time>
      </trkpt>
      <trkpt lat="44.43877" lon="6.24997">
        <ele>769</ele>
        <time>2016-05-07T23:06:28Z</time>
      </trkpt>
      <trkpt lat="44.43862" lon="6.25006">
        <ele>769</ele>
        <time>2016-05-07T23:08:28Z</time>
      </trkpt>
      <trkpt lat="44.43805" lon="6.2503">
        <ele>770</ele>
        <time>2016-05-07T23:10:28Z</time>
      </trkpt>
      <trkpt lat="44.43796" lon="6.25033">
        <ele>770</ele>
        <time>2016-05-07T23:12:28Z</time>
      </trkpt>
      <trkpt lat="44.43788" lon="6.25035">
        <ele>771</ele>
        <time>2016-05-07T23:14:28Z</time>
      </trkpt>
      <trkpt lat="44.43777" lon="6.25036">
        <ele>771</ele>
        <time>2016-05-07T23:16:28Z</time>
      </trkpt>
      <trkpt lat="44.43759" lon="6.25033">
        <ele>771</ele>
        <time>2016-05-07T23:18:28Z</time>
      </trkpt>
      <trkpt lat="44.43753" lon="6.25033">
        <ele>771</ele>
        <time>2016-05-07T23:20:28Z</time>
      </trkpt>
      <trkpt lat="44.43747" lon="6.25034">
        <ele>771</ele>
        <time>2016-05-07T23:22:28Z</time>
      </trkpt>
      <trkpt lat="44.43741" lon="6.25036">
        <ele>771</ele>
        <time>2016-05-07T23:24:28Z</time>
      </trkpt>
      <trkpt lat="44.43708" lon="6.25053">
        <ele>774</ele>
        <time>2016-05-07T23:26:28Z</time>
      </trkpt>
      <trkpt lat="44.43668" lon="6.25074">
        <ele>778</ele>
        <time>2016-05-07T23:28:28Z</time>
      </trkpt>
      <trkpt lat="44.4364" lon="6.25089">
        <ele>779</ele>
        <time>2016-05-07T23:30:28Z</time>
      </trkpt>
      <trkpt lat="44.43629" lon="6.25098">
        <ele>779</ele>
        <time>2016-05-07T23:32:28Z</time>
      </trkpt>
      <trkpt lat="44.43623" lon="6.25105">
        <ele>780</ele>
        <time>2016-05-07T23:34:28Z</time>
      </trkpt>
      <trkpt lat="44.43618" lon="6.25111">
        <ele>780</ele>
        <time>2016-05-07T23:36:28Z</time>
      </trkpt>
      <trkpt lat="44.43596" lon="6.25144">
        <ele>783</ele>
        <time>2016-05-07T23:38:28Z</time>
      </trkpt>
      <trkpt lat="44.4359" lon="6.25154">
        <ele>784</ele>
        <time>2016-05-07T23:40:28Z</time>
      </trkpt>
      <trkpt lat="44.43586" lon="6.25163">
        <ele>785</ele>
        <time>2016-05-07T23:42:28Z</time>
      </trkpt>
      <trkpt lat="44.43585" lon="6.25169">
        <ele>785</ele>
        <time>2016-05-07T23:44:28Z</time>
      </trkpt>
      <trkpt lat="44.43584" lon="6.25175">
        <ele>785</ele>
        <time>2016-05-07T23:46:28Z</time>
      </trkpt>
      <trkpt lat="44.43584" lon="6.2518">
        <ele>786</ele>
        <time>2016-05-07T23:48:28Z</time>
      </trkpt>
      <trkpt lat="44.43585" lon="6.25186">
        <ele>786</ele>
        <time>2016-05-07T23:50:28Z</time>
      </trkpt>
      <trkpt lat="44.43587" lon="6.25194">
        <ele>786</ele>
        <time>2016-05-07T23:52:28Z</time>
      </trkpt>
      <trkpt lat="44.43593" lon="6.25208">
        <ele>787</ele>
        <time>2016-05-07T23:54:28Z</time>
      </trkpt>
      <trkpt lat="44.43595" lon="6.25214">
        <ele>788</ele>
        <time>2016-05-07T23:56:28Z</time>
      </trkpt>
      <trkpt lat="44.43597" lon="6.25224">
        <ele>788</ele>
        <time>2016-05-07T23:58:28Z</time>
      </trkpt>
      <trkpt lat="44.43598" lon="6.25228">
        <ele>788</ele>
        <time>2016-05-08T00:00:28Z</time>
      </trkpt>
      <trkpt lat="44.43597" lon="6.2523">
        <ele>788</ele>
        <time>2016-05-08T00:02:28Z</time>
      </trkpt>
      <trkpt lat="44.43596" lon="6.2524">
        <ele>789</ele>
        <time>2016-05-08T00:04:28Z</time>
      </trkpt>
      <trkpt lat="44.43594" lon="6.25246">
        <ele>789</ele>
        <time>2016-05-08T00:06:28Z</time>
      </trkpt>
      <trkpt lat="44.4359" lon="6.25252">
        <ele>789</ele>
        <time>2016-05-08T00:08:28Z</time>
      </trkpt>
      <trkpt lat="44.43585" lon="6.25257">
        <ele>789</ele>
        <time>2016-05-08T00:10:28Z</time>
      </trkpt>
      <trkpt lat="44.43581" lon="6.25259">
        <ele>789</ele>
        <time>2016-05-08T00:12:28Z</time>
      </trkpt>
      <trkpt lat="44.43573" lon="6.25264">
        <ele>789</ele>
        <time>2016-05-08T00:14:28Z</time>
      </trkpt>
      <trkpt lat="44.43563" lon="6.2527">
        <ele>789</ele>
        <time>2016-05-08T00:16:28Z</time>
      </trkpt>
      <trkpt lat="44.43514" lon="6.25295">
        <ele>789</ele>
        <time>2016-05-08T00:18:28Z</time>
      </trkpt>
      <trkpt lat="44.43508" lon="6.253">
        <ele>790</ele>
        <time>2016-05-08T00:20:28Z</time>
      </trkpt>
      <trkpt lat="44.43502" lon="6.25305">
        <ele>790</ele>
        <time>2016-05-08T00:22:28Z</time>
      </trkpt>
      <trkpt lat="44.43488" lon="6.25322">
        <ele>791</ele>
        <time>2016-05-08T00:24:28Z</time>
      </trkpt>
      <trkpt lat="44.43482" lon="6.25327">
        <ele>791</ele>
        <time>2016-05-08T00:26:28Z</time>
      </trkpt>
      <trkpt lat="44.43476" lon="6.25331">
        <ele>790</ele>
        <time>2016-05-08T00:28:28Z</time>
      </trkpt>
      <trkpt lat="44.4347" lon="6.25334">
        <ele>790</ele>
        <time>2016-05-08T00:30:28Z</time>
      </trkpt>
      <trkpt lat="44.43438" lon="6.25345">
        <ele>791</ele>
        <time>2016-05-08T00:32:28Z</time>
      </trkpt>
      <trkpt lat="44.43418" lon="6.25355">
        <ele>793</ele>
        <time>2016-05-08T00:34:28Z</time>
      </trkpt>
      <trkpt lat="44.43411" lon="6.25361">
        <ele>796</ele>
        <time>2016-05-08T00:36:28Z</time>
      </trkpt>
      <trkpt lat="44.43405" lon="6.25367">
        <ele>799</ele>
        <time>2016-05-08T00:38:28Z</time>
      </trkpt>
      <trkpt lat="44.43401" lon="6.2537">
        <ele>800</ele>
        <time>2016-05-08T00:40:28Z</time>
      </trkpt>
      <trkpt lat="44.43395" lon="6.25378">
        <ele>804</ele>
        <time>2016-05-08T00:42:28Z</time>
      </trkpt>
      <trkpt lat="44.4339" lon="6.25383">
        <ele>807</ele>
        <time>2016-05-08T00:44:28Z</time>
      </trkpt>
      <trkpt lat="44.43385" lon="6.25386">
        <ele>808</ele>
        <time>2016-05-08T00:46:28Z</time>
      </trkpt>
      <trkpt lat="44.4338" lon="6.25388">
        <ele>810</ele>
        <time>2016-05-08T00:48:28Z</time>
      </trkpt>
      <trkpt lat="44.43375" lon="6.25389">
        <ele>811</ele>
        <time>2016-05-08T00:50:28Z</time>
      </trkpt>
      <trkpt lat="44.4336" lon="6.25392">
        <ele>814</ele>
        <time>2016-05-08T00:52:28Z</time>
      </trkpt>
      <trkpt lat="44.43353" lon="6.25391">
        <ele>814</ele>
        <time>2016-05-08T00:54:28Z</time>
      </trkpt>
      <trkpt lat="44.43346" lon="6.25389">
        <ele>814</ele>
        <time>2016-05-08T00:56:28Z</time>
      </trkpt>
      <trkpt lat="44.43338" lon="6.25383">
        <ele>811</ele>
        <time>2016-05-08T00:58:28Z</time>
      </trkpt>
      <trkpt lat="44.43315" lon="6.2537">
        <ele>808</ele>
        <time>2016-05-08T01:00:28Z</time>
      </trkpt>
      <trkpt lat="44.4331" lon="6.25366">
        <ele>807</ele>
        <time>2016-05-08T01:02:28Z</time>
      </trkpt>
      <trkpt lat="44.43302" lon="6.25358">
        <ele>804</ele>
        <time>2016-05-08T01:04:28Z</time>
      </trkpt>
      <trkpt lat="44.43297" lon="6.25352">
        <ele>802</ele>
        <time>2016-05-08T01:06:28Z</time>
      </trkpt>
      <trkpt lat="44.43293" lon="6.25347">
        <ele>800</ele>
        <time>2016-05-08T01:08:28Z</time>
      </trkpt>
      <trkpt lat="44.43286" lon="6.25339">
        <ele>798</ele>
        <time>2016-05-08T01:10:28Z</time>
      </trkpt>
      <trkpt lat="44.43274" lon="6.25332">
        <ele>798</ele>
        <time>2016-05-08T01:12:28Z</time>
      </trkpt>
      <trkpt lat="44.43262" lon="6.2533">
        <ele>800</ele>
        <time>2016-05-08T01:14:28Z</time>
      </trkpt>
      <trkpt lat="44.43255" lon="6.25327">
        <ele>801</ele>
        <time>2016-05-08T01:16:28Z</time>
      </trkpt>
      <trkpt lat="44.43241" lon="6.25316">
        <ele>800</ele>
        <time>2016-05-08T01:18:28Z</time>
      </trkpt>
      <trkpt lat="44.43234" lon="6.25313">
        <ele>799</ele>
        <time>2016-05-08T01:20:28Z</time>
      </trkpt>
      <trkpt lat="44.43225" lon="6.2531">
        <ele>799</ele>
        <time>2016-05-08T01:22:28Z</time>
      </trkpt>
      <trkpt lat="44.43204" lon="6.25305">
        <ele>799</ele>
        <time>2016-05-08T01:24:28Z</time>
      </trkpt>
      <trkpt lat="44.43193" lon="6.25305">
        <ele>799</ele>
        <time>2016-05-08T01:26:28Z</time>
      </trkpt>
      <trkpt lat="44.43182" lon="6.25306">
        <ele>800</ele>
        <time>2016-05-08T01:28:28Z</time>
      </trkpt>
      <trkpt lat="44.4317" lon="6.2531">
        <ele>801</ele>
        <time>2016-05-08T01:30:28Z</time>
      </trkpt>
      <trkpt lat="44.43157" lon="6.25316">
        <ele>801</ele>
        <time>2016-05-08T01:32:28Z</time>
      </trkpt>
      <trkpt lat="44.43144" lon="6.25325">
        <ele>801</ele>
        <time>2016-05-08T01:34:28Z</time>
      </trkpt>
      <trkpt lat="44.43133" lon="6.25334">
        <ele>800</ele>
        <time>2016-05-08T01:36:28Z</time>
      </trkpt>
      <trkpt lat="44.43126" lon="6.25342">
        <ele>801</ele>
        <time>2016-05-08T01:38:28Z</time>
      </trkpt>
      <trkpt lat="44.43123" lon="6.25346">
        <ele>801</ele>
        <time>2016-05-08T01:40:28Z</time>
      </trkpt>
      <trkpt lat="44.43086" lon="6.25386">
        <ele>800</ele>
        <time>2016-05-08T01:42:28Z</time>
      </trkpt>
      <trkpt lat="44.43084" lon="6.25389">
        <ele>800</ele>
        <time>2016-05-08T01:44:28Z</time>
      </trkpt>
      <trkpt lat="44.43077" lon="6.25397">
        <ele>800</ele>
        <time>2016-05-08T01:46:28Z</time>
      </trkpt>
      <trkpt lat="44.43075" lon="6.254">
        <ele>801</ele>
        <time>2016-05-08T01:48:28Z</time>
      </trkpt>
      <trkpt lat="44.43062" lon="6.25417">
        <ele>801</ele>
        <time>2016-05-08T01:50:28Z</time>
      </trkpt>
      <trkpt lat="44.43054" lon="6.25429">
        <ele>803</ele>
        <time>2016-05-08T01:52:28Z</time>
      </trkpt>
      <trkpt lat="44.43045" lon="6.25441">
        <ele>805</ele>
        <time>2016-05-08T01:54:28Z</time>
      </trkpt>
      <trkpt lat="44.43037" lon="6.2545">
        <ele>806</ele>
        <time>2016-05-08T01:56:28Z</time>
      </trkpt>
      <trkpt lat="44.43035" lon="6.25451">
        <ele>806</ele>
        <time>2016-05-08T01:58:28Z</time>
      </trkpt>
      <trkpt lat="44.4303" lon="6.25457">
        <ele>807</ele>
        <time>2016-05-08T02:00:28Z</time>
      </trkpt>
      <trkpt lat="44.43027" lon="6.2546">
        <ele>807</ele>
        <time>2016-05-08T02:02:28Z</time>
      </trkpt>
      <trkpt lat="44.43009" lon="6.25469">
        <ele>807</ele>
        <time>2016-05-08T02:04:28Z</time>
      </trkpt>
      <trkpt lat="44.42993" lon="6.25477">
        <ele>807</ele>
        <time>2016-05-08T02:06:28Z</time>
      </trkpt>
      <trkpt lat="44.42981" lon="6.25481">
        <ele>806</ele>
        <time>2016-05-08T02:08:28Z</time>
      </trkpt>
      <trkpt lat="44.42978" lon="6.25483">
        <ele>807</ele>
        <time>2016-05-08T02:10:28Z</time>
      </trkpt>
      <trkpt lat="44.42972" lon="6.25485">
        <ele>806</ele>
        <time>2016-05-08T02:12:28Z</time>
      </trkpt>
      <trkpt lat="44.42969" lon="6.25486">
        <ele>806</ele>
        <time>2016-05-08T02:14:28Z</time>
      </trkpt>
      <trkpt lat="44.42961" lon="6.25488">
        <ele>806</ele>
        <time>2016-05-08T02:16:28Z</time>
      </trkpt>
      <trkpt lat="44.42945" lon="6.25493">
        <ele>804</ele>
        <time>2016-05-08T02:18:28Z</time>
      </trkpt>
      <trkpt lat="44.42932" lon="6.25495">
        <ele>803</ele>
        <time>2016-05-08T02:20:28Z</time>
      </trkpt>
      <trkpt lat="44.42901" lon="6.25499">
        <ele>800</ele>
        <time>2016-05-08T02:22:28Z</time>
      </trkpt>
      <trkpt lat="44.42878" lon="6.25501">
        <ele>799</ele>
        <time>2016-05-08T02:24:28Z</time>
      </trkpt>
      <trkpt lat="44.42869" lon="6.25502">
        <ele>799</ele>
        <time>2016-05-08T02:26:28Z</time>
      </trkpt>
      <trkpt lat="44.42859" lon="6.25504">
        <ele>799</ele>
        <time>2016-05-08T02:28:28Z</time>
      </trkpt>
      <trkpt lat="44.42849" lon="6.25506">
        <ele>799</ele>
        <time>2016-05-08T02:30:28Z</time>
      </trkpt>
      <trkpt lat="44.42839" lon="6.25509">
        <ele>799</ele>
        <time>2016-05-08T02:32:28Z</time>
      </trkpt>
      <trkpt lat="44.42827" lon="6.25514">
        <ele>799</ele>
        <time>2016-05-08T02:34:28Z</time>
      </trkpt>
      <trkpt lat="44.42819" lon="6.25518">
        <ele>800</ele>
        <time>2016-05-08T02:36:28Z</time>
      </trkpt>
      <trkpt lat="44.42811" lon="6.25522">
        <ele>801</ele>
        <time>2016-05-08T02:38:28Z</time>
      </trkpt>
      <trkpt lat="44.42803" lon="6.25527">
        <ele>802</ele>
        <time>2016-05-08T02:40:28Z</time>
      </trkpt>
      <trkpt lat="44.4279" lon="6.25538">
        <ele>803</ele>
        <time>2016-05-08T02:42:28Z</time>
      </trkpt>
      <trkpt lat="44.42777" lon="6.2555">
        <ele>803</ele>
        <time>2016-05-08T02:44:28Z</time>
      </trkpt>
      <trkpt lat="44.42751" lon="6.25575">
        <ele>803</ele>
        <time>2016-05-08T02:46:28Z</time>
      </trkpt>
      <trkpt lat="44.42727" lon="6.256">
        <ele>807</ele>
        <time>2016-05-08T02:48:28Z</time>
      </trkpt>
      <trkpt lat="44.42718" lon="6.25609">
        <ele>808</ele>
        <time>2016-05-08T02:50:28Z</time>
      </trkpt>
      <trkpt lat="44.42685" lon="6.25644">
        <ele>809</ele>
        <time>2016-05-08T02:52:28Z</time>
      </trkpt>
      <trkpt lat="44.42675" lon="6.25652">
        <ele>808</ele>
        <time>2016-05-08T02:54:28Z</time>
      </trkpt>
      <trkpt lat="44.42669" lon="6.25657">
        <ele>807</ele>
        <time>2016-05-08T02:56:28Z</time>
      </trkpt>
      <trkpt lat="44.42667" lon="6.25659">
        <ele>807</ele>
        <time>2016-05-08T02:58:28Z</time>
      </trkpt>
      <trkpt lat="44.42648" lon="6.25672">
        <ele>807</ele>
        <time>2016-05-08T03:00:28Z</time>
      </trkpt>
      <trkpt lat="44.42627" lon="6.25689">
        <ele>810</ele>
        <time>2016-05-08T03:02:28Z</time>
      </trkpt>
      <trkpt lat="44.42626" lon="6.25689">
        <ele>810</ele>
        <time>2016-05-08T03:04:28Z</time>
      </trkpt>
      <trkpt lat="44.42618" lon="6.25696">
        <ele>811</ele>
        <time>2016-05-08T03:06:28Z</time>
      </trkpt>
      <trkpt lat="44.42615" lon="6.25699">
        <ele>811</ele>
        <time>2016-05-08T03:08:28Z</time>
      </trkpt>
      <trkpt lat="44.42604" lon="6.25708">
        <ele>812</ele>
        <time>2016-05-08T03:10:28Z</time>
      </trkpt>
      <trkpt lat="44.42584" lon="6.25726">
        <ele>812</ele>
        <time>2016-05-08T03:12:28Z</time>
      </trkpt>
      <trkpt lat="44.42562" lon="6.25748">
        <ele>814</ele>
        <time>2016-05-08T03:14:28Z</time>
      </trkpt>
      <trkpt lat="44.42556" lon="6.25753">
        <ele>814</ele>
        <time>2016-05-08T03:16:28Z</time>
      </trkpt>
      <trkpt lat="44.42542" lon="6.25769">
        <ele>815</ele>
        <time>2016-05-08T03:18:28Z</time>
      </trkpt>
      <trkpt lat="44.42528" lon="6.25789">
        <ele>816</ele>
        <time>2016-05-08T03:20:28Z</time>
      </trkpt>
      <trkpt lat="44.42521" lon="6.25798">
        <ele>816</ele>
        <time>2016-05-08T03:22:28Z</time>
      </trkpt>
      <trkpt lat="44.42498" lon="6.25843">
        <ele>817</ele>
        <time>2016-05-08T03:24:28Z</time>
      </trkpt>
      <trkpt lat="44.42497" lon="6.25845">
        <ele>817</ele>
        <time>2016-05-08T03:26:28Z</time>
      </trkpt>
      <trkpt lat="44.42492" lon="6.25854">
        <ele>818</ele>
        <time>2016-05-08T03:28:28Z</time>
      </trkpt>
      <trkpt lat="44.42491" lon="6.25856">
        <ele>818</ele>
        <time>2016-05-08T03:30:28Z</time>
      </trkpt>
      <trkpt lat="44.42481" lon="6.25868">
        <ele>819</ele>
        <time>2016-05-08T03:32:28Z</time>
      </trkpt>
      <trkpt lat="44.42463" lon="6.25888">
        <ele>819</ele>
        <time>2016-05-08T03:34:28Z</time>
      </trkpt>
      <trkpt lat="44.42449" lon="6.259">
        <ele>818</ele>
        <time>2016-05-08T03:36:28Z</time>
      </trkpt>
      <trkpt lat="44.42437" lon="6.25913">
        <ele>818</ele>
        <time>2016-05-08T03:38:28Z</time>
      </trkpt>
      <trkpt lat="44.42422" lon="6.25926">
        <ele>817</ele>
        <time>2016-05-08T03:40:28Z</time>
      </trkpt>
      <trkpt lat="44.42401" lon="6.25943">
        <ele>819</ele>
        <time>2016-05-08T03:42:28Z</time>
      </trkpt>
      <trkpt lat="44.42372" lon="6.25963">
        <ele>821</ele>
        <time>2016-05-08T03:44:28Z</time>
      </trkpt>
      <trkpt lat="44.42371" lon="6.25963">
        <ele>821</ele>
        <time>2016-05-08T03:46:28Z</time>
      </trkpt>
      <trkpt lat="44.42364" lon="6.25968">
        <ele>822</ele>
        <time>2016-05-08T03:48:28Z</time>
      </trkpt>
      <trkpt lat="44.4236" lon="6.2597">
        <ele>822</ele>
        <time>2016-05-08T03:50:28Z</time>
      </trkpt>
      <trkpt lat="44.42331" lon="6.25984">
        <ele>823</ele>
        <time>2016-05-08T03:52:28Z</time>
      </trkpt>
      <trkpt lat="44.42302" lon="6.26002">
        <ele>822</ele>
        <time>2016-05-08T03:54:28Z</time>
      </trkpt>
      <trkpt lat="44.42281" lon="6.26019">
        <ele>823</ele>
        <time>2016-05-08T03:56:28Z</time>
      </trkpt>
      <trkpt lat="44.42266" lon="6.26029">
        <ele>824</ele>
        <time>2016-05-08T03:58:28Z</time>
      </trkpt>
      <trkpt lat="44.42255" lon="6.26037">
        <ele>824</ele>
        <time>2016-05-08T04:00:28Z</time>
      </trkpt>
      <trkpt lat="44.42242" lon="6.26044">
        <ele>825</ele>
        <time>2016-05-08T04:02:28Z</time>
      </trkpt>
      <trkpt lat="44.422" lon="6.26071">
        <ele>828</ele>
        <time>2016-05-08T04:04:28Z</time>
      </trkpt>
      <trkpt lat="44.42189" lon="6.26076">
        <ele>828</ele>
        <time>2016-05-08T04:06:28Z</time>
      </trkpt>
      <trkpt lat="44.42182" lon="6.26078">
        <ele>827</ele>
        <time>2016-05-08T04:08:28Z</time>
      </trkpt>
      <trkpt lat="44.42174" lon="6.2608">
        <ele>827</ele>
        <time>2016-05-08T04:10:28Z</time>
      </trkpt>
      <trkpt lat="44.42158" lon="6.26082">
        <ele>827</ele>
        <time>2016-05-08T04:12:28Z</time>
      </trkpt>
      <trkpt lat="44.42116" lon="6.26079">
        <ele>829</ele>
        <time>2016-05-08T04:14:28Z</time>
      </trkpt>
      <trkpt lat="44.42103" lon="6.26077">
        <ele>829</ele>
        <time>2016-05-08T04:16:28Z</time>
      </trkpt>
      <trkpt lat="44.42088" lon="6.26074">
        <ele>830</ele>
        <time>2016-05-08T04:18:28Z</time>
      </trkpt>
      <trkpt lat="44.42042" lon="6.26062">
        <ele>829</ele>
        <time>2016-05-08T04:20:28Z</time>
      </trkpt>
      <trkpt lat="44.42035" lon="6.26061">
        <ele>829</ele>
        <time>2016-05-08T04:22:28Z</time>
      </trkpt>
      <trkpt lat="44.42026" lon="6.26061">
        <ele>830</ele>
        <time>2016-05-08T04:24:28Z</time>
      </trkpt>
      <trkpt lat="44.42016" lon="6.26063">
        <ele>830</ele>
        <time>2016-05-08T04:26:28Z</time>
      </trkpt>
      <trkpt lat="44.42004" lon="6.26067">
        <ele>831</ele>
        <time>2016-05-08T04:28:28Z</time>
      </trkpt>
      <trkpt lat="44.41956" lon="6.26088">
        <ele>833</ele>
        <time>2016-05-08T04:30:28Z</time>
      </trkpt>
      <trkpt lat="44.41937" lon="6.26096">
        <ele>835</ele>
        <time>2016-05-08T04:32:28Z</time>
      </trkpt>
      <trkpt lat="44.41919" lon="6.26102">
        <ele>836</ele>
        <time>2016-05-08T04:34:28Z</time>
      </trkpt>
      <trkpt lat="44.41909" lon="6.26103">
        <ele>836</ele>
        <time>2016-05-08T04:36:28Z</time>
      </trkpt>
      <trkpt lat="44.41903" lon="6.26104">
        <ele>836</ele>
        <time>2016-05-08T04:38:28Z</time>
      </trkpt>
      <trkpt lat="44.41896" lon="6.26106">
        <ele>836</ele>
        <time>2016-05-08T04:40:28Z</time>
      </trkpt>
      <trkpt lat="44.4189" lon="6.26108">
        <ele>836</ele>
        <time>2016-05-08T04:42:28Z</time>
      </trkpt>
      <trkpt lat="44.41883" lon="6.2611">
        <ele>836</ele>
        <time>2016-05-08T04:44:28Z</time>
      </trkpt>
      <trkpt lat="44.41872" lon="6.26116">
        <ele>836</ele>
        <time>2016-05-08T04:46:28Z</time>
      </trkpt>
      <trkpt lat="44.41862" lon="6.26123">
        <ele>837</ele>
        <time>2016-05-08T04:48:28Z</time>
      </trkpt>
      <trkpt lat="44.41853" lon="6.26132">
        <ele>837</ele>
        <time>2016-05-08T04:50:28Z</time>
      </trkpt>
      <trkpt lat="44.41844" lon="6.26142">
        <ele>837</ele>
        <time>2016-05-08T04:52:28Z</time>
      </trkpt>
      <trkpt lat="44.41837" lon="6.2615">
        <ele>837</ele>
        <time>2016-05-08T04:54:28Z</time>
      </trkpt>
      <trkpt lat="44.41831" lon="6.2616">
        <ele>838</ele>
        <time>2016-05-08T04:56:28Z</time>
      </trkpt>
      <trkpt lat="44.41805" lon="6.26204">
        <ele>845</ele>
        <time>2016-05-08T04:58:28Z</time>
      </trkpt>
      <trkpt lat="44.418" lon="6.26214">
        <ele>846</ele>
        <time>2016-05-08T05:00:28Z</time>
      </trkpt>
      <trkpt lat="44.41795" lon="6.2622">
        <ele>846</ele>
        <time>2016-05-08T05:02:28Z</time>
      </trkpt>
      <trkpt lat="44.41789" lon="6.26227">
        <ele>847</ele>
        <time>2016-05-08T05:04:28Z</time>
      </trkpt>
      <trkpt lat="44.41782" lon="6.26231">
        <ele>846</ele>
        <time>2016-05-08T05:06:28Z</time>
      </trkpt>
      <trkpt lat="44.41773" lon="6.26234">
        <ele>844</ele>
        <time>2016-05-08T05:08:28Z</time>
      </trkpt>
      <trkpt lat="44.4177" lon="6.26235">
        <ele>843</ele>
        <time>2016-05-08T05:10:28Z</time>
      </trkpt>
      <trkpt lat="44.41763" lon="6.26238">
        <ele>842</ele>
        <time>2016-05-08T05:12:28Z</time>
      </trkpt>
      <trkpt lat="44.41762" lon="6.26238">
        <ele>842</ele>
        <time>2016-05-08T05:14:28Z</time>
      </trkpt>
      <trkpt lat="44.41717" lon="6.26252">
        <ele>839</ele>
        <time>2016-05-08T05:16:28Z</time>
      </trkpt>
      <trkpt lat="44.41698" lon="6.26257">
        <ele>840</ele>
        <time>2016-05-08T05:18:28Z</time>
      </trkpt>
      <trkpt lat="44.4168" lon="6.26264">
        <ele>842</ele>
        <time>2016-05-08T05:20:28Z</time>
      </trkpt>
      <trkpt lat="44.41657" lon="6.26275">
        <ele>846</ele>
        <time>2016-05-08T05:22:28Z</time>
      </trkpt>
      <trkpt lat="44.4163" lon="6.26292">
        <ele>851</ele>
        <time>2016-05-08T05:24:28Z</time>
      </trkpt>
      <trkpt lat="44.41604" lon="6.26306">
        <ele>854</ele>
        <time>2016-05-08T05:26:28Z</time>
      </trkpt>
      <trkpt lat="44.41597" lon="6.26309">
        <ele>855</ele>
        <time>2016-05-08T05:28:28Z</time>
      </trkpt>
      <trkpt lat="44.41591" lon="6.26311">
        <ele>855</ele>
        <time>2016-05-08T05:30:28Z</time>
      </trkpt>
      <trkpt lat="44.41582" lon="6.26312">
        <ele>855</ele>
        <time>2016-05-08T05:32:28Z</time>
      </trkpt>
      <trkpt lat="44.41574" lon="6.26311">
        <ele>854</ele>
        <time>2016-05-08T05:34:28Z</time>
      </trkpt>
      <trkpt lat="44.4156" lon="6.26307">
        <ele>853</ele>
        <time>2016-05-08T05:36:28Z</time>
      </trkpt>
      <trkpt lat="44.41551" lon="6.26304">
        <ele>852</ele>
        <time>2016-05-08T05:38:28Z</time>
      </trkpt>
      <trkpt lat="44.41544" lon="6.263">
        <ele>851</ele>
        <time>2016-05-08T05:40:28Z</time>
      </trkpt>
      <trkpt lat="44.41536" lon="6.26294">
        <ele>850</ele>
        <time>2016-05-08T05:42:28Z</time>
      </trkpt>
      <trkpt lat="44.4152" lon="6.26279">
        <ele>848</ele>
        <time>2016-05-08T05:44:28Z</time>
      </trkpt>
      <trkpt lat="44.41507" lon="6.26267">
        <ele>847</ele>
        <time>2016-05-08T05:46:28Z</time>
      </trkpt>
      <trkpt lat="44.41494" lon="6.26259">
        <ele>846</ele>
        <time>2016-05-08T05:48:28Z</time>
      </trkpt>
      <trkpt lat="44.41484" lon="6.26257">
        <ele>846</ele>
        <time>2016-05-08T05:50:28Z</time>
      </trkpt>
      <trkpt lat="44.41475" lon="6.26257">
        <ele>847</ele>
        <time>2016-05-08T05:52:28Z</time>
      </trkpt>
      <trkpt lat="44.41468" lon="6.26258">
        <ele>847</ele>
        <time>2016-05-08T05:54:28Z</time>
      </trkpt>
      <trkpt lat="44.41463" lon="6.2626">
        <ele>848</ele>
        <time>2016-05-08T05:56:28Z</time>
      </trkpt>
      <trkpt lat="44.41451" lon="6.26266">
        <ele>849</ele>
        <time>2016-05-08T05:58:28Z</time>
      </trkpt>
      <trkpt lat="44.41442" lon="6.26271">
        <ele>850</ele>
        <time>2016-05-08T06:00:28Z</time>
      </trkpt>
      <trkpt lat="44.41436" lon="6.26276">
        <ele>850</ele>
        <time>2016-05-08T06:02:28Z</time>
      </trkpt>
      <trkpt lat="44.41427" lon="6.26283">
        <ele>851</ele>
        <time>2016-05-08T06:04:28Z</time>
      </trkpt>
      <trkpt lat="44.41421" lon="6.2629">
        <ele>852</ele>
        <time>2016-05-08T06:06:28Z</time>
      </trkpt>
      <trkpt lat="44.41413" lon="6.26298">
        <ele>852</ele>
        <time>2016-05-08T06:08:28Z</time>
      </trkpt>
      <trkpt lat="44.414" lon="6.2631">
        <ele>853</ele>
        <time>2016-05-08T06:10:28Z</time>
      </trkpt>
      <trkpt lat="44.41383" lon="6.26327">
        <ele>853</ele>
        <time>2016-05-08T06:12:28Z</time>
      </trkpt>
      <trkpt lat="44.4137" lon="6.26341">
        <ele>853</ele>
        <time>2016-05-08T06:14:28Z</time>
      </trkpt>
      <trkpt lat="44.41357" lon="6.26354">
        <ele>854</ele>
        <time>2016-05-08T06:16:28Z</time>
      </trkpt>
      <trkpt lat="44.41349" lon="6.26365">
        <ele>855</ele>
        <time>2016-05-08T06:18:28Z</time>
      </trkpt>
      <trkpt lat="44.41341" lon="6.26379">
        <ele>856</ele>
        <time>2016-05-08T06:20:28Z</time>
      </trkpt>
      <trkpt lat="44.41337" lon="6.26391">
        <ele>857</ele>
        <time>2016-05-08T06:22:28Z</time>
      </trkpt>
      <trkpt lat="44.41334" lon="6.26401">
        <ele>858</ele>
        <time>2016-05-08T06:24:28Z</time>
      </trkpt>
      <trkpt lat="44.41317" lon="6.26449">
        <ele>862</ele>
        <time>2016-05-08T06:26:28Z</time>
      </trkpt>
      <trkpt lat="44.4131" lon="6.26462">
        <ele>862</ele>
        <time>2016-05-08T06:28:28Z</time>
      </trkpt>
      <trkpt lat="44.41303" lon="6.26473">
        <ele>863</ele>
        <time>2016-05-08T06:30:28Z</time>
      </trkpt>
      <trkpt lat="44.41298" lon="6.26478">
        <ele>863</ele>
        <time>2016-05-08T06:32:28Z</time>
      </trkpt>
      <trkpt lat="44.41292" lon="6.26483">
        <ele>863</ele>
        <time>2016-05-08T06:34:28Z</time>
      </trkpt>
      <trkpt lat="44.41284" lon="6.26489">
        <ele>863</ele>
        <time>2016-05-08T06:36:28Z</time>
      </trkpt>
      <trkpt lat="44.41269" lon="6.26495">
        <ele>862</ele>
        <time>2016-05-08T06:38:28Z</time>
      </trkpt>
      <trkpt lat="44.41259" lon="6.26499">
        <ele>861</ele>
        <time>2016-05-08T06:40:28Z</time>
      </trkpt>
      <trkpt lat="44.41248" lon="6.26501">
        <ele>860</ele>
        <time>2016-05-08T06:42:28Z</time>
      </trkpt>
      <trkpt lat="44.41241" lon="6.26501">
        <ele>860</ele>
        <time>2016-05-08T06:44:28Z</time>
      </trkpt>
      <trkpt lat="44.41227" lon="6.26501">
        <ele>860</ele>
        <time>2016-05-08T06:46:28Z</time>
      </trkpt>
      <trkpt lat="44.41215" lon="6.26502">
        <ele>859</ele>
        <time>2016-05-08T06:48:28Z</time>
      </trkpt>
      <trkpt lat="44.41205" lon="6.26503">
        <ele>859</ele>
        <time>2016-05-08T06:50:28Z</time>
      </trkpt>
      <trkpt lat="44.41195" lon="6.26505">
        <ele>860</ele>
        <time>2016-05-08T06:52:28Z</time>
      </trkpt>
      <trkpt lat="44.41194" lon="6.26505">
        <ele>860</ele>
        <time>2016-05-08T06:54:28Z</time>
      </trkpt>
      <trkpt lat="44.41183" lon="6.26509">
        <ele>861</ele>
        <time>2016-05-08T06:56:28Z</time>
      </trkpt>
      <trkpt lat="44.41173" lon="6.26513">
        <ele>862</ele>
        <time>2016-05-08T06:58:28Z</time>
      </trkpt>
      <trkpt lat="44.41162" lon="6.26517">
        <ele>863</ele>
        <time>2016-05-08T07:00:28Z</time>
      </trkpt>
      <trkpt lat="44.41151" lon="6.26523">
        <ele>864</ele>
        <time>2016-05-08T07:02:28Z</time>
      </trkpt>
      <trkpt lat="44.41142" lon="6.26526">
        <ele>865</ele>
        <time>2016-05-08T07:04:28Z</time>
      </trkpt>
      <trkpt lat="44.41128" lon="6.26529">
        <ele>865</ele>
        <time>2016-05-08T07:06:28Z</time>
      </trkpt>
      <trkpt lat="44.41111" lon="6.26529">
        <ele>864</ele>
        <time>2016-05-08T07:08:28Z</time>
      </trkpt>
      <trkpt lat="44.41099" lon="6.26532">
        <ele>864</ele>
        <time>2016-05-08T07:10:28Z</time>
      </trkpt>
      <trkpt lat="44.41078" lon="6.26542">
        <ele>867</ele>
        <time>2016-05-08T07:12:28Z</time>
      </trkpt>
      <trkpt lat="44.41074" lon="6.26544">
        <ele>868</ele>
        <time>2016-05-08T07:14:28Z</time>
      </trkpt>
      <trkpt lat="44.41062" lon="6.26549">
        <ele>870</ele>
        <time>2016-05-08T07:16:28Z</time>
      </trkpt>
      <trkpt lat="44.41059" lon="6.26551">
        <ele>871</ele>
        <time>2016-05-08T07:18:28Z</time>
      </trkpt>
      <trkpt lat="44.41058" lon="6.26551">
        <ele>871</ele>
        <time>2016-05-08T07:20:28Z</time>
      </trkpt>
      <trkpt lat="44.41054" lon="6.26551">
        <ele>872</ele>
        <time>2016-05-08T07:22:28Z</time>
      </trkpt>
      <trkpt lat="44.41049" lon="6.2655">
        <ele>872</ele>
        <time>2016-05-08T07:24:28Z</time>
      </trkpt>
      <trkpt lat="44.41045" lon="6.26548">
        <ele>871</ele>
        <time>2016-05-08T07:26:28Z</time>
      </trkpt>
      <trkpt lat="44.4104" lon="6.26546">
        <ele>871</ele>
        <time>2016-05-08T07:28:28Z</time>
      </trkpt>
      <trkpt lat="44.41031" lon="6.26541">
        <ele>870</ele>
        <time>2016-05-08T07:30:28Z</time>
      </trkpt>
      <trkpt lat="44.4102" lon="6.26534">
        <ele>869</ele>
        <time>2016-05-08T07:32:28Z</time>
      </trkpt>
      <trkpt lat="44.41001" lon="6.26516">
        <ele>864</ele>
        <time>2016-05-08T07:34:28Z</time>
      </trkpt>
      <trkpt lat="44.40982" lon="6.26501">
        <ele>860</ele>
        <time>2016-05-08T07:36:28Z</time>
      </trkpt>
      <trkpt lat="44.40976" lon="6.26497">
        <ele>860</ele>
        <time>2016-05-08T07:38:28Z</time>
      </trkpt>
      <trkpt lat="44.4097" lon="6.26494">
        <ele>860</ele>
        <time>2016-05-08T07:40:28Z</time>
      </trkpt>
      <trkpt lat="44.40961" lon="6.26493">
        <ele>860</ele>
        <time>2016-05-08T07:42:28Z</time>
      </trkpt>
      <trkpt lat="44.40955" lon="6.26498">
        <ele>860</ele>
        <time>2016-05-08T07:44:28Z</time>
      </trkpt>
      <trkpt lat="44.40952" lon="6.26502">
        <ele>861</ele>
        <time>2016-05-08T07:46:28Z</time>
      </trkpt>
      <trkpt lat="44.4095" lon="6.26507">
        <ele>862</ele>
        <time>2016-05-08T07:48:28Z</time>
      </trkpt>
      <trkpt lat="44.40948" lon="6.26515">
        <ele>863</ele>
        <time>2016-05-08T07:50:28Z</time>
      </trkpt>
      <trkpt lat="44.40947" lon="6.26521">
        <ele>864</ele>
        <time>2016-05-08T07:52:28Z</time>
      </trkpt>
      <trkpt lat="44.40946" lon="6.26534">
        <ele>867</ele>
        <time>2016-05-08T07:54:28Z</time>
      </trkpt>
      <trkpt lat="44.40944" lon="6.26542">
        <ele>868</ele>
        <time>2016-05-08T07:56:28Z</time>
      </trkpt>
      <trkpt lat="44.40942" lon="6.26549">
        <ele>869</ele>
        <time>2016-05-08T07:58:28Z</time>
      </trkpt>
      <trkpt lat="44.4094" lon="6.26561">
        <ele>871</ele>
        <time>2016-05-08T08:00:28Z</time>
      </trkpt>
      <trkpt lat="44.40937" lon="6.26569">
        <ele>872</ele>
        <time>2016-05-08T08:02:28Z</time>
      </trkpt>
      <trkpt lat="44.40934" lon="6.26584">
        <ele>874</ele>
        <time>2016-05-08T08:04:28Z</time>
      </trkpt>
      <trkpt lat="44.40929" lon="6.26598">
        <ele>876</ele>
        <time>2016-05-08T08:06:28Z</time>
      </trkpt>
      <trkpt lat="44.40923" lon="6.26611">
        <ele>878</ele>
        <time>2016-05-08T08:08:28Z</time>
      </trkpt>
      <trkpt lat="44.40919" lon="6.26618">
        <ele>879</ele>
        <time>2016-05-08T08:10:28Z</time>
      </trkpt>
      <trkpt lat="44.40909" lon="6.26635">
        <ele>881</ele>
        <time>2016-05-08T08:12:28Z</time>
      </trkpt>
      <trkpt lat="44.40903" lon="6.26646">
        <ele>882</ele>
        <time>2016-05-08T08:14:28Z</time>
      </trkpt>
      <trkpt lat="44.40897" lon="6.26657">
        <ele>883</ele>
        <time>2016-05-08T08:16:28Z</time>
      </trkpt>
      <trkpt lat="44.4089" lon="6.26674">
        <ele>886</ele>
        <time>2016-05-08T08:18:28Z</time>
      </trkpt>
      <trkpt lat="44.40886" lon="6.26681">
        <ele>888</ele>
        <time>2016-05-08T08:20:28Z</time>
      </trkpt>
      <trkpt lat="44.40883" lon="6.26686">
        <ele>889</ele>
        <time>2016-05-08T08:22:28Z</time>
      </trkpt>
      <trkpt lat="44.40875" lon="6.26697">
        <ele>891</ele>
        <time>2016-05-08T08:24:28Z</time>
      </trkpt>
      <trkpt lat="44.40867" lon="6.26706">
        <ele>891</ele>
        <time>2016-05-08T08:26:28Z</time>
      </trkpt>
      <trkpt lat="44.40862" lon="6.26711">
        <ele>891</ele>
        <time>2016-05-08T08:28:28Z</time>
      </trkpt>
      <trkpt lat="44.40852" lon="6.26719">
        <ele>891</ele>
        <time>2016-05-08T08:30:28Z</time>
      </trkpt>
      <trkpt lat="44.40846" lon="6.26724">
        <ele>890</ele>
        <time>2016-05-08T08:32:28Z</time>
      </trkpt>
      <trkpt lat="44.40834" lon="6.2673">
        <ele>888</ele>
        <time>2016-05-08T08:34:28Z</time>
      </trkpt>
      <trkpt lat="44.40823" lon="6.26732">
        <ele>887</ele>
        <time>2016-05-08T08:36:28Z</time>
      </trkpt>
      <trkpt lat="44.40793" lon="6.26736">
        <ele>885</ele>
        <time>2016-05-08T08:38:28Z</time>
      </trkpt>
      <trkpt lat="44.40787" lon="6.26736">
        <ele>885</ele>
        <time>2016-05-08T08:40:28Z</time>
      </trkpt>
      <trkpt lat="44.40781" lon="6.26738">
        <ele>884</ele>
        <time>2016-05-08T08:42:28Z</time>
      </trkpt>
      <trkpt lat="44.40776" lon="6.26741">
        <ele>884</ele>
        <time>2016-05-08T08:44:28Z</time>
      </trkpt>
      <trkpt lat="44.4077" lon="6.26744">
        <ele>884</ele>
        <time>2016-05-08T08:46:28Z</time>
      </trkpt>
      <trkpt lat="44.40765" lon="6.26749">
        <ele>885</ele>
        <time>2016-05-08T08:48:28Z</time>
      </trkpt>
      <trkpt lat="44.40749" lon="6.26766">
        <ele>888</ele>
        <time>2016-05-08T08:50:28Z</time>
      </trkpt>
      <trkpt lat="44.40738" lon="6.26778">
        <ele>890</ele>
        <time>2016-05-08T08:52:28Z</time>
      </trkpt>
      <trkpt lat="44.40733" lon="6.26781">
        <ele>891</ele>
        <time>2016-05-08T08:54:28Z</time>
      </trkpt>
      <trkpt lat="44.40728" lon="6.26782">
        <ele>890</ele>
        <time>2016-05-08T08:56:28Z</time>
      </trkpt>
      <trkpt lat="44.40716" lon="6.26783">
        <ele>889</ele>
        <time>2016-05-08T08:58:28Z</time>
      </trkpt>
      <trkpt lat="44.40712" lon="6.26783">
        <ele>889</ele>
        <time>2016-05-08T09:00:28Z</time>
      </trkpt>
      <trkpt lat="44.40703" lon="6.26783">
        <ele>888</ele>
        <time>2016-05-08T09:02:28Z</time>
      </trkpt>
      <trkpt lat="44.40694" lon="6.26785">
        <ele>888</ele>
        <time>2016-05-08T09:04:28Z</time>
      </trkpt>
      <trkpt lat="44.40686" lon="6.26788">
        <ele>888</ele>
        <time>2016-05-08T09:06:28Z</time>
      </trkpt>
      <trkpt lat="44.40673" lon="6.26795">
        <ele>888</ele>
        <time>2016-05-08T09:08:28Z</time>
      </trkpt>
      <trkpt lat="44.40665" lon="6.26801">
        <ele>889</ele>
        <time>2016-05-08T09:10:28Z</time>
      </trkpt>
      <trkpt lat="44.40657" lon="6.26809">
        <ele>892</ele>
        <time>2016-05-08T09:12:28Z</time>
      </trkpt>
      <trkpt lat="44.40646" lon="6.26822">
        <ele>898</ele>
        <time>2016-05-08T09:14:28Z</time>
      </trkpt>
      <trkpt lat="44.40641" lon="6.26824">
        <ele>899</ele>
        <time>2016-05-08T09:16:28Z</time>
      </trkpt>
      <trkpt lat="44.40636" lon="6.26826">
        <ele>901</ele>
        <time>2016-05-08T09:18:28Z</time>
      </trkpt>
      <trkpt lat="44.40632" lon="6.26826">
        <ele>901</ele>
        <time>2016-05-08T09:20:28Z</time>
      </trkpt>
      <trkpt lat="44.40627" lon="6.26826">
        <ele>902</ele>
        <time>2016-05-08T09:22:28Z</time>
      </trkpt>
      <trkpt lat="44.40622" lon="6.26824">
        <ele>903</ele>
        <time>2016-05-08T09:24:28Z</time>
      </trkpt>
      <trkpt lat="44.40607" lon="6.26818">
        <ele>903</ele>
        <time>2016-05-08T09:26:28Z</time>
      </trkpt>
      <trkpt lat="44.40593" lon="6.26812">
        <ele>904</ele>
        <time>2016-05-08T09:28:28Z</time>
      </trkpt>
      <trkpt lat="44.40572" lon="6.26797">
        <ele>904</ele>
        <time>2016-05-08T09:30:28Z</time>
      </trkpt>
      <trkpt lat="44.40561" lon="6.26785">
        <ele>904</ele>
        <time>2016-05-08T09:32:28Z</time>
      </trkpt>
      <trkpt lat="44.40552" lon="6.26775">
        <ele>903</ele>
        <time>2016-05-08T09:34:28Z</time>
      </trkpt>
      <trkpt lat="44.40537" lon="6.26753">
        <ele>899</ele>
        <time>2016-05-08T09:36:28Z</time>
      </trkpt>
      <trkpt lat="44.40519" lon="6.26725">
        <ele>897</ele>
        <time>2016-05-08T09:38:28Z</time>
      </trkpt>
      <trkpt lat="44.40514" lon="6.2672">
        <ele>897</ele>
        <time>2016-05-08T09:40:28Z</time>
      </trkpt>
      <trkpt lat="44.40509" lon="6.26716">
        <ele>897</ele>
        <time>2016-05-08T09:42:28Z</time>
      </trkpt>
      <trkpt lat="44.40505" lon="6.26714">
        <ele>897</ele>
        <time>2016-05-08T09:44:28Z</time>
      </trkpt>
      <trkpt lat="44.405" lon="6.26712">
        <ele>897</ele>
        <time>2016-05-08T09:46:28Z</time>
      </trkpt>
      <trkpt lat="44.40495" lon="6.26711">
        <ele>897</ele>
        <time>2016-05-08T09:48:28Z</time>
      </trkpt>
      <trkpt lat="44.40483" lon="6.26712">
        <ele>897</ele>
        <time>2016-05-08T09:50:28Z</time>
      </trkpt>
      <trkpt lat="44.40478" lon="6.26714">
        <ele>898</ele>
        <time>2016-05-08T09:52:28Z</time>
      </trkpt>
      <trkpt lat="44.40472" lon="6.26715">
        <ele>898</ele>
        <time>2016-05-08T09:54:28Z</time>
      </trkpt>
      <trkpt lat="44.40461" lon="6.26721">
        <ele>900</ele>
        <time>2016-05-08T09:56:28Z</time>
      </trkpt>
      <trkpt lat="44.40451" lon="6.26729">
        <ele>902</ele>
        <time>2016-05-08T09:58:28Z</time>
      </trkpt>
      <trkpt lat="44.40445" lon="6.26734">
        <ele>904</ele>
        <time>2016-05-08T10:00:28Z</time>
      </trkpt>
      <trkpt lat="44.40427" lon="6.26747">
        <ele>907</ele>
        <time>2016-05-08T10:02:28Z</time>
      </trkpt>
      <trkpt lat="44.4041" lon="6.26759">
        <ele>910</ele>
        <time>2016-05-08T10:04:28Z</time>
      </trkpt>
      <trkpt lat="44.40391" lon="6.26771">
        <ele>913</ele>
        <time>2016-05-08T10:06:28Z</time>
      </trkpt>
      <trkpt lat="44.40355" lon="6.26796">
        <ele>915</ele>
        <time>2016-05-08T10:08:28Z</time>
      </trkpt>
      <trkpt lat="44.4034" lon="6.26809">
        <ele>916</ele>
        <time>2016-05-08T10:10:28Z</time>
      </trkpt>
      <trkpt lat="44.4033" lon="6.26817">
        <ele>917</ele>
        <time>2016-05-08T10:12:28Z</time>
      </trkpt>
      <trkpt lat="44.40325" lon="6.2682">
        <ele>919</ele>
        <time>2016-05-08T10:14:28Z</time>
      </trkpt>
      <trkpt lat="44.40324" lon="6.2682">
        <ele>919</ele>
        <time>2016-05-08T10:16:28Z</time>
      </trkpt>
      <trkpt lat="44.40317" lon="6.26821">
        <ele>920</ele>
        <time>2016-05-08T10:18:28Z</time>
      </trkpt>
      <trkpt lat="44.40313" lon="6.2682">
        <ele>921</ele>
        <time>2016-05-08T10:20:28Z</time>
      </trkpt>
      <trkpt lat="44.40308" lon="6.26819">
        <ele>921</ele>
        <time>2016-05-08T10:22:28Z</time>
      </trkpt>
      <trkpt lat="44.40305" lon="6.26815">
        <ele>921</ele>
        <time>2016-05-08T10:24:28Z</time>
      </trkpt>
      <trkpt lat="44.40299" lon="6.26806">
        <ele>919</ele>
        <time>2016-05-08T10:26:28Z</time>
      </trkpt>
      <trkpt lat="44.40291" lon="6.26795">
        <ele>917</ele>
        <time>2016-05-08T10:28:28Z</time>
      </trkpt>
      <trkpt lat="44.40283" lon="6.26787">
        <ele>916</ele>
        <time>2016-05-08T10:30:28Z</time>
      </trkpt>
      <trkpt lat="44.40272" lon="6.26781">
        <ele>916</ele>
        <time>2016-05-08T10:32:28Z</time>
      </trkpt>
      <trkpt lat="44.40267" lon="6.26779">
        <ele>916</ele>
        <time>2016-05-08T10:34:28Z</time>
      </trkpt>
      <trkpt lat="44.40252" lon="6.26774">
        <ele>916</ele>
        <time>2016-05-08T10:36:28Z</time>
      </trkpt>
      <trkpt lat="44.40243" lon="6.26773">
        <ele>917</ele>
        <time>2016-05-08T10:38:28Z</time>
      </trkpt>
      <trkpt lat="44.40234" lon="6.26773">
        <ele>918</ele>
        <time>2016-05-08T10:40:28Z</time>
      </trkpt>
      <trkpt lat="44.4022" lon="6.26774">
        <ele>921</ele>
        <time>2016-05-08T10:42:28Z</time>
      </trkpt>
      <trkpt lat="44.40205" lon="6.26773">
        <ele>922</ele>
        <time>2016-05-08T10:44:28Z</time>
      </trkpt>
      <trkpt lat="44.40191" lon="6.26771">
        <ele>924</ele>
        <time>2016-05-08T10:46:28Z</time>
      </trkpt>
      <trkpt lat="44.40186" lon="6.26769">
        <ele>923</ele>
        <time>2016-05-08T10:48:28Z</time>
      </trkpt>
      <trkpt lat="44.40182" lon="6.26767">
        <ele>923</ele>
        <time>2016-05-08T10:50:28Z</time>
      </trkpt>
      <trkpt lat="44.40177" lon="6.26764">
        <ele>923</ele>
        <time>2016-05-08T10:52:28Z</time>
      </trkpt>
      <trkpt lat="44.40174" lon="6.2676">
        <ele>921</ele>
        <time>2016-05-08T10:54:28Z</time>
      </trkpt>
      <trkpt lat="44.40164" lon="6.26738">
        <ele>914</ele>
        <time>2016-05-08T10:56:28Z</time>
      </trkpt>
      <trkpt lat="44.40161" lon="6.26733">
        <ele>913</ele>
        <time>2016-05-08T10:58:28Z</time>
      </trkpt>
      <trkpt lat="44.40157" lon="6.26729">
        <ele>912</ele>
        <time>2016-05-08T11:00:28Z</time>
      </trkpt>
      <trkpt lat="44.40153" lon="6.26726">
        <ele>911</ele>
        <time>2016-05-08T11:02:28Z</time>
      </trkpt>
      <trkpt lat="44.40148" lon="6.26724">
        <ele>911</ele>
        <time>2016-05-08T11:04:28Z</time>
      </trkpt>
      <trkpt lat="44.40143" lon="6.26724">
        <ele>911</ele>
        <time>2016-05-08T11:06:28Z</time>
      </trkpt>
      <trkpt lat="44.40137" lon="6.26725">
        <ele>911</ele>
        <time>2016-05-08T11:08:28Z</time>
      </trkpt>
      <trkpt lat="44.40132" lon="6.26726">
        <ele>911</ele>
        <time>2016-05-08T11:10:28Z</time>
      </trkpt>
      <trkpt lat="44.40127" lon="6.26729">
        <ele>912</ele>
        <time>2016-05-08T11:12:28Z</time>
      </trkpt>
      <trkpt lat="44.40113" lon="6.26735">
        <ele>915</ele>
        <time>2016-05-08T11:14:28Z</time>
      </trkpt>
      <trkpt lat="44.40104" lon="6.26742">
        <ele>917</ele>
        <time>2016-05-08T11:16:28Z</time>
      </trkpt>
      <trkpt lat="44.40094" lon="6.26747">
        <ele>919</ele>
        <time>2016-05-08T11:18:28Z</time>
      </trkpt>
      <trkpt lat="44.40084" lon="6.2675">
        <ele>920</ele>
        <time>2016-05-08T11:20:28Z</time>
      </trkpt>
      <trkpt lat="44.40068" lon="6.26749">
        <ele>920</ele>
        <time>2016-05-08T11:22:28Z</time>
      </trkpt>
      <trkpt lat="44.40055" lon="6.26751">
        <ele>921</ele>
        <time>2016-05-08T11:24:28Z</time>
      </trkpt>
      <trkpt lat="44.40045" lon="6.26755">
        <ele>924</ele>
        <time>2016-05-08T11:26:28Z</time>
      </trkpt>
      <trkpt lat="44.40022" lon="6.26764">
        <ele>931</ele>
        <time>2016-05-08T11:28:28Z</time>
      </trkpt>
      <trkpt lat="44.40012" lon="6.26767">
        <ele>933</ele>
        <time>2016-05-08T11:30:28Z</time>
      </trkpt>
      <trkpt lat="44.40002" lon="6.26768">
        <ele>933</ele>
        <time>2016-05-08T11:32:28Z</time>
      </trkpt>
      <trkpt lat="44.39987" lon="6.26764">
        <ele>932</ele>
        <time>2016-05-08T11:34:28Z</time>
      </trkpt>
      <trkpt lat="44.39975" lon="6.26763">
        <ele>932</ele>
        <time>2016-05-08T11:36:28Z</time>
      </trkpt>
      <trkpt lat="44.39967" lon="6.26763">
        <ele>933</ele>
        <time>2016-05-08T11:38:28Z</time>
      </trkpt>
      <trkpt lat="44.39962" lon="6.26764">
        <ele>934</ele>
        <time>2016-05-08T11:40:28Z</time>
      </trkpt>
      <trkpt lat="44.39953" lon="6.26762">
        <ele>934</ele>
        <time>2016-05-08T11:42:28Z</time>
      </trkpt>
      <trkpt lat="44.39948" lon="6.2676">
        <ele>933</ele>
        <time>2016-05-08T11:44:28Z</time>
      </trkpt>
      <trkpt lat="44.39904" lon="6.26738">
        <ele>924</ele>
        <time>2016-05-08T11:46:28Z</time>
      </trkpt>
      <trkpt lat="44.39895" lon="6.26733">
        <ele>923</ele>
        <time>2016-05-08T11:48:28Z</time>
      </trkpt>
      <trkpt lat="44.3989" lon="6.26732">
        <ele>922</ele>
        <time>2016-05-08T11:50:28Z</time>
      </trkpt>
      <trkpt lat="44.39885" lon="6.26731">
        <ele>922</ele>
        <time>2016-05-08T11:52:28Z</time>
      </trkpt>
      <trkpt lat="44.39879" lon="6.26732">
        <ele>922</ele>
        <time>2016-05-08T11:54:28Z</time>
      </trkpt>
      <trkpt lat="44.39874" lon="6.26734">
        <ele>923</ele>
        <time>2016-05-08T11:56:28Z</time>
      </trkpt>
      <trkpt lat="44.3987" lon="6.26738">
        <ele>924</ele>
        <time>2016-05-08T11:58:28Z</time>
      </trkpt>
      <trkpt lat="44.39858" lon="6.26749">
        <ele>927</ele>
        <time>2016-05-08T12:00:28Z</time>
      </trkpt>
      <trkpt lat="44.39848" lon="6.26757">
        <ele>930</ele>
        <time>2016-05-08T12:02:28Z</time>
      </trkpt>
      <trkpt lat="44.39839" lon="6.26763">
        <ele>932</ele>
        <time>2016-05-08T12:04:28Z</time>
      </trkpt>
      <trkpt lat="44.39812" lon="6.2678">
        <ele>938</ele>
        <time>2016-05-08T12:06:28Z</time>
      </trkpt>
      <trkpt lat="44.39805" lon="6.26788">
        <ele>940</ele>
        <time>2016-05-08T12:08:28Z</time>
      </trkpt>
      <trkpt lat="44.39797" lon="6.26799">
        <ele>942</ele>
        <time>2016-05-08T12:10:28Z</time>
      </trkpt>
      <trkpt lat="44.3979" lon="6.2681">
        <ele>943</ele>
        <time>2016-05-08T12:12:28Z</time>
      </trkpt>
      <trkpt lat="44.39784" lon="6.26817">
        <ele>943</ele>
        <time>2016-05-08T12:14:28Z</time>
      </trkpt>
      <trkpt lat="44.39774" lon="6.26828">
        <ele>942</ele>
        <time>2016-05-08T12:16:28Z</time>
      </trkpt>
      <trkpt lat="44.39767" lon="6.26834">
        <ele>941</ele>
        <time>2016-05-08T12:18:28Z</time>
      </trkpt>
      <trkpt lat="44.39761" lon="6.26839">
        <ele>941</ele>
        <time>2016-05-08T12:20:28Z</time>
      </trkpt>
      <trkpt lat="44.39754" lon="6.26846">
        <ele>942</ele>
        <time>2016-05-08T12:22:28Z</time>
      </trkpt>
      <trkpt lat="44.39748" lon="6.26853">
        <ele>943</ele>
        <time>2016-05-08T12:24:28Z</time>
      </trkpt>
      <trkpt lat="44.39741" lon="6.26866">
        <ele>947</ele>
        <time>2016-05-08T12:26:28Z</time>
      </trkpt>
      <trkpt lat="44.39737" lon="6.2687">
        <ele>948</ele>
        <time>2016-05-08T12:28:28Z</time>
      </trkpt>
      <trkpt lat="44.39732" lon="6.26874">
        <ele>948</ele>
        <time>2016-05-08T12:30:28Z</time>
      </trkpt>
      <trkpt lat="44.39726" lon="6.26877">
        <ele>948</ele>
        <time>2016-05-08T12:32:28Z</time>
      </trkpt>
      <trkpt lat="44.39709" lon="6.2689">
        <ele>948</ele>
        <time>2016-05-08T12:34:28Z</time>
      </trkpt>
      <trkpt lat="44.39698" lon="6.26898">
        <ele>947</ele>
        <time>2016-05-08T12:36:28Z</time>
      </trkpt>
      <trkpt lat="44.39689" lon="6.26907">
        <ele>947</ele>
        <time>2016-05-08T12:38:28Z</time>
      </trkpt>
      <trkpt lat="44.39678" lon="6.2692">
        <ele>947</ele>
        <time>2016-05-08T12:40:28Z</time>
      </trkpt>
      <trkpt lat="44.39669" lon="6.2693">
        <ele>948</ele>
        <time>2016-05-08T12:42:28Z</time>
      </trkpt>
      <trkpt lat="44.39651" lon="6.26949">
        <ele>951</ele>
        <time>2016-05-08T12:44:28Z</time>
      </trkpt>
      <trkpt lat="44.39644" lon="6.26957">
        <ele>952</ele>
        <time>2016-05-08T12:46:28Z</time>
      </trkpt>
      <trkpt lat="44.39637" lon="6.26966">
        <ele>953</ele>
        <time>2016-05-08T12:48:28Z</time>
      </trkpt>
      <trkpt lat="44.39628" lon="6.26978">
        <ele>954</ele>
        <time>2016-05-08T12:50:28Z</time>
      </trkpt>
      <trkpt lat="44.39615" lon="6.27003">
        <ele>956</ele>
        <time>2016-05-08T12:52:28Z</time>
      </trkpt>
      <trkpt lat="44.39604" lon="6.27026">
        <ele>957</ele>
        <time>2016-05-08T12:54:28Z</time>
      </trkpt>
      <trkpt lat="44.39599" lon="6.27034">
        <ele>956</ele>
        <time>2016-05-08T12:56:28Z</time>
      </trkpt>
      <trkpt lat="44.39594" lon="6.2704">
        <ele>955</ele>
        <time>2016-05-08T12:58:28Z</time>
      </trkpt>
      <trkpt lat="44.3959" lon="6.27044">
        <ele>955</ele>
        <time>2016-05-08T13:00:28Z</time>
      </trkpt>
      <trkpt lat="44.39584" lon="6.27048">
        <ele>953</ele>
        <time>2016-05-08T13:02:28Z</time>
      </trkpt>
      <trkpt lat="44.39568" lon="6.27058">
        <ele>953</ele>
        <time>2016-05-08T13:04:28Z</time>
      </trkpt>
      <trkpt lat="44.39557" lon="6.27066">
        <ele>953</ele>
        <time>2016-05-08T13:06:28Z</time>
      </trkpt>
      <trkpt lat="44.39551" lon="6.2707">
        <ele>953</ele>
        <time>2016-05-08T13:08:28Z</time>
      </trkpt>
      <trkpt lat="44.39546" lon="6.27075">
        <ele>953</ele>
        <time>2016-05-08T13:10:28Z</time>
      </trkpt>
      <trkpt lat="44.39542" lon="6.27082">
        <ele>953</ele>
        <time>2016-05-08T13:12:28Z</time>
      </trkpt>
      <trkpt lat="44.39537" lon="6.27091">
        <ele>954</ele>
        <time>2016-05-08T13:14:28Z</time>
      </trkpt>
      <trkpt lat="44.39534" lon="6.27099">
        <ele>954</ele>
        <time>2016-05-08T13:16:28Z</time>
      </trkpt>
      <trkpt lat="44.39532" lon="6.27109">
        <ele>955</ele>
        <time>2016-05-08T13:18:28Z</time>
      </trkpt>
      <trkpt lat="44.39511" lon="6.27211">
        <ele>960</ele>
        <time>2016-05-08T13:20:28Z</time>
      </trkpt>
      <trkpt lat="44.39508" lon="6.27219">
        <ele>960</ele>
        <time>2016-05-08T13:22:28Z</time>
      </trkpt>
      <trkpt lat="44.39504" lon="6.27228">
        <ele>960</ele>
        <time>2016-05-08T13:24:28Z</time>
      </trkpt>
      <trkpt lat="44.39498" lon="6.27237">
        <ele>960</ele>
        <time>2016-05-08T13:26:28Z</time>
      </trkpt>
      <trkpt lat="44.39491" lon="6.27243">
        <ele>961</ele>
        <time>2016-05-08T13:28:28Z</time>
      </trkpt>
      <trkpt lat="44.39482" lon="6.2725">
        <ele>961</ele>
        <time>2016-05-08T13:30:28Z</time>
      </trkpt>
      <trkpt lat="44.39473" lon="6.27256">
        <ele>962</ele>
        <time>2016-05-08T13:32:28Z</time>
      </trkpt>
      <trkpt lat="44.39442" lon="6.2727">
        <ele>964</ele>
        <time>2016-05-08T13:34:28Z</time>
      </trkpt>
      <trkpt lat="44.39433" lon="6.27273">
        <ele>965</ele>
        <time>2016-05-08T13:36:28Z</time>
      </trkpt>
      <trkpt lat="44.39422" lon="6.27274">
        <ele>965</ele>
        <time>2016-05-08T13:38:28Z</time>
      </trkpt>
      <trkpt lat="44.39413" lon="6.27272">
        <ele>966</ele>
        <time>2016-05-08T13:40:28Z</time>
      </trkpt>
      <trkpt lat="44.39402" lon="6.27268">
        <ele>969</ele>
        <time>2016-05-08T13:42:28Z</time>
      </trkpt>
      <trkpt lat="44.39378" lon="6.27258">
        <ele>974</ele>
        <time>2016-05-08T13:44:28Z</time>
      </trkpt>
      <trkpt lat="44.39365" lon="6.27253">
        <ele>976</ele>
        <time>2016-05-08T13:46:28Z</time>
      </trkpt>
      <trkpt lat="44.39357" lon="6.27249">
        <ele>978</ele>
        <time>2016-05-08T13:48:28Z</time>
      </trkpt>
      <trkpt lat="44.39349" lon="6.27243">
        <ele>979</ele>
        <time>2016-05-08T13:50:28Z</time>
      </trkpt>
      <trkpt lat="44.39342" lon="6.27236">
        <ele>979</ele>
        <time>2016-05-08T13:52:28Z</time>
      </trkpt>
      <trkpt lat="44.39334" lon="6.27226">
        <ele>978</ele>
        <time>2016-05-08T13:54:28Z</time>
      </trkpt>
      <trkpt lat="44.39328" lon="6.27218">
        <ele>976</ele>
        <time>2016-05-08T13:56:28Z</time>
      </trkpt>
      <trkpt lat="44.39323" lon="6.27208">
        <ele>974</ele>
        <time>2016-05-08T13:58:28Z</time>
      </trkpt>
      <trkpt lat="44.39314" lon="6.27193">
        <ele>970</ele>
        <time>2016-05-08T14:00:28Z</time>
      </trkpt>
      <trkpt lat="44.39311" lon="6.27189">
        <ele>969</ele>
        <time>2016-05-08T14:02:28Z</time>
      </trkpt>
      <trkpt lat="44.39308" lon="6.27187">
        <ele>969</ele>
        <time>2016-05-08T14:04:28Z</time>
      </trkpt>
      <trkpt lat="44.39305" lon="6.27185">
        <ele>968</ele>
        <time>2016-05-08T14:06:28Z</time>
      </trkpt>
      <trkpt lat="44.39298" lon="6.27185">
        <ele>968</ele>
        <time>2016-05-08T14:08:28Z</time>
      </trkpt>
      <trkpt lat="44.39294" lon="6.27186">
        <ele>969</ele>
        <time>2016-05-08T14:10:28Z</time>
      </trkpt>
      <trkpt lat="44.39291" lon="6.27188">
        <ele>969</ele>
        <time>2016-05-08T14:12:28Z</time>
      </trkpt>
      <trkpt lat="44.39287" lon="6.27189">
        <ele>969</ele>
        <time>2016-05-08T14:14:28Z</time>
      </trkpt>
      <trkpt lat="44.39284" lon="6.27191">
        <ele>970</ele>
        <time>2016-05-08T14:16:28Z</time>
      </trkpt>
      <trkpt lat="44.39281" lon="6.27194">
        <ele>971</ele>
        <time>2016-05-08T14:18:28Z</time>
      </trkpt>
      <trkpt lat="44.39246" lon="6.27245">
        <ele>982</ele>
        <time>2016-05-08T14:20:28Z</time>
      </trkpt>
      <trkpt lat="44.39221" lon="6.27284">
        <ele>989</ele>
        <time>2016-05-08T14:22:28Z</time>
      </trkpt>
      <trkpt lat="44.39211" lon="6.27295">
        <ele>990</ele>
        <time>2016-05-08T14:24:28Z</time>
      </trkpt>
      <trkpt lat="44.39203" lon="6.27303">
        <ele>990</ele>
        <time>2016-05-08T14:26:28Z</time>
      </trkpt>
      <trkpt lat="44.39164" lon="6.27332">
        <ele>989</ele>
        <time>2016-05-08T14:28:28Z</time>
      </trkpt>
      <trkpt lat="44.39154" lon="6.27339">
        <ele>990</ele>
        <time>2016-05-08T14:30:28Z</time>
      </trkpt>
      <trkpt lat="44.39146" lon="6.27346">
        <ele>991</ele>
        <time>2016-05-08T14:32:28Z</time>
      </trkpt>
      <trkpt lat="44.39132" lon="6.27354">
        <ele>992</ele>
        <time>2016-05-08T14:34:28Z</time>
      </trkpt>
      <trkpt lat="44.39101" lon="6.27371">
        <ele>991</ele>
        <time>2016-05-08T14:36:28Z</time>
      </trkpt>
      <trkpt lat="44.39091" lon="6.27374">
        <ele>990</ele>
        <time>2016-05-08T14:38:28Z</time>
      </trkpt>
      <trkpt lat="44.39079" lon="6.27377">
        <ele>988</ele>
        <time>2016-05-08T14:40:28Z</time>
      </trkpt>
      <trkpt lat="44.39054" lon="6.27386">
        <ele>986</ele>
        <time>2016-05-08T14:42:28Z</time>
      </trkpt>
      <trkpt lat="44.3905" lon="6.27389">
        <ele>986</ele>
        <time>2016-05-08T14:44:28Z</time>
      </trkpt>
      <trkpt lat="44.39047" lon="6.27392">
        <ele>986</ele>
        <time>2016-05-08T14:46:28Z</time>
      </trkpt>
      <trkpt lat="44.39044" lon="6.27395">
        <ele>986</ele>
        <time>2016-05-08T14:48:28Z</time>
      </trkpt>
      <trkpt lat="44.39041" lon="6.27399">
        <ele>987</ele>
        <time>2016-05-08T14:50:28Z</time>
      </trkpt>
      <trkpt lat="44.3904" lon="6.27404">
        <ele>988</ele>
        <time>2016-05-08T14:52:28Z</time>
      </trkpt>
      <trkpt lat="44.39038" lon="6.27415">
        <ele>991</ele>
        <time>2016-05-08T14:54:28Z</time>
      </trkpt>
      <trkpt lat="44.39038" lon="6.27429">
        <ele>993</ele>
        <time>2016-05-08T14:56:28Z</time>
      </trkpt>
      <trkpt lat="44.39039" lon="6.27444">
        <ele>996</ele>
        <time>2016-05-08T14:58:28Z</time>
      </trkpt>
      <trkpt lat="44.3904" lon="6.27458">
        <ele>999</ele>
        <time>2016-05-08T15:00:28Z</time>
      </trkpt>
      <trkpt lat="44.39039" lon="6.27477">
        <ele>1002</ele>
        <time>2016-05-08T15:02:28Z</time>
      </trkpt>
      <trkpt lat="44.39038" lon="6.27494">
        <ele>1004</ele>
        <time>2016-05-08T15:04:28Z</time>
      </trkpt>
      <trkpt lat="44.39035" lon="6.2753">
        <ele>1008</ele>
        <time>2016-05-08T15:06:28Z</time>
      </trkpt>
      <trkpt lat="44.39032" lon="6.27545">
        <ele>1009</ele>
        <time>2016-05-08T15:08:28Z</time>
      </trkpt>
      <trkpt lat="44.39027" lon="6.27559">
        <ele>1009</ele>
        <time>2016-05-08T15:10:28Z</time>
      </trkpt>
      <trkpt lat="44.39021" lon="6.27573">
        <ele>1008</ele>
        <time>2016-05-08T15:12:28Z</time>
      </trkpt>
      <trkpt lat="44.39016" lon="6.27581">
        <ele>1007</ele>
        <time>2016-05-08T15:14:28Z</time>
      </trkpt>
      <trkpt lat="44.39002" lon="6.27601">
        <ele>1005</ele>
        <time>2016-05-08T15:16:28Z</time>
      </trkpt>
      <trkpt lat="44.38987" lon="6.27619">
        <ele>1006</ele>
        <time>2016-05-08T15:18:28Z</time>
      </trkpt>
      <trkpt lat="44.38976" lon="6.27631">
        <ele>1008</ele>
        <time>2016-05-08T15:20:28Z</time>
      </trkpt>
      <trkpt lat="44.38965" lon="6.27641">
        <ele>1010</ele>
        <time>2016-05-08T15:22:28Z</time>
      </trkpt>
      <trkpt lat="44.38963" lon="6.27643">
        <ele>1010</ele>
        <time>2016-05-08T15:24:28Z</time>
      </trkpt>
      <trkpt lat="44.3896" lon="6.27645">
        <ele>1010</ele>
        <time>2016-05-08T15:26:28Z</time>
      </trkpt>
      <trkpt lat="44.38957" lon="6.27646">
        <ele>1010</ele>
        <time>2016-05-08T15:28:28Z</time>
      </trkpt>
      <trkpt lat="44.3895" lon="6.27646">
        <ele>1010</ele>
        <time>2016-05-08T15:30:28Z</time>
      </trkpt>
      <trkpt lat="44.38943" lon="6.27647">
        <ele>1010</ele>
        <time>2016-05-08T15:32:28Z</time>
      </trkpt>
      <trkpt lat="44.38938" lon="6.27644">
        <ele>1009</ele>
        <time>2016-05-08T15:34:28Z</time>
      </trkpt>
      <trkpt lat="44.3893" lon="6.27639">
        <ele>1008</ele>
        <time>2016-05-08T15:36:28Z</time>
      </trkpt>
      <trkpt lat="44.38921" lon="6.27636">
        <ele>1007</ele>
        <time>2016-05-08T15:38:28Z</time>
      </trkpt>
      <trkpt lat="44.38917" lon="6.27636">
        <ele>1007</ele>
        <time>2016-05-08T15:40:28Z</time>
      </trkpt>
      <trkpt lat="44.38892" lon="6.27633">
        <ele>1006</ele>
        <time>2016-05-08T15:42:28Z</time>
      </trkpt>
      <trkpt lat="44.38884" lon="6.27632">
        <ele>1006</ele>
        <time>2016-05-08T15:44:28Z</time>
      </trkpt>
      <trkpt lat="44.38878" lon="6.27633">
        <ele>1006</ele>
        <time>2016-05-08T15:46:28Z</time>
      </trkpt>
      <trkpt lat="44.38871" lon="6.27636">
        <ele>1006</ele>
        <time>2016-05-08T15:48:28Z</time>
      </trkpt>
      <trkpt lat="44.38865" lon="6.27641">
        <ele>1008</ele>
        <time>2016-05-08T15:50:28Z</time>
      </trkpt>
      <trkpt lat="44.38859" lon="6.27649">
        <ele>1010</ele>
        <time>2016-05-08T15:52:28Z</time>
      </trkpt>
      <trkpt lat="44.38837" lon="6.27675">
        <ele>1017</ele>
        <time>2016-05-08T15:54:28Z</time>
      </trkpt>
      <trkpt lat="44.38822" lon="6.27693">
        <ele>1018</ele>
        <time>2016-05-08T15:56:28Z</time>
      </trkpt>
      <trkpt lat="44.38787" lon="6.27729">
        <ele>1013</ele>
        <time>2016-05-08T15:58:28Z</time>
      </trkpt>
      <trkpt lat="44.38777" lon="6.27742">
        <ele>1011</ele>
        <time>2016-05-08T16:00:28Z</time>
      </trkpt>
      <trkpt lat="44.38776" lon="6.27745">
        <ele>1011</ele>
        <time>2016-05-08T16:02:28Z</time>
      </trkpt>
      <trkpt lat="44.38774" lon="6.2775">
        <ele>1011</ele>
        <time>2016-05-08T16:04:28Z</time>
      </trkpt>
      <trkpt lat="44.38772" lon="6.27758">
        <ele>1011</ele>
        <time>2016-05-08T16:06:28Z</time>
      </trkpt>
      <trkpt lat="44.38772" lon="6.27765">
        <ele>1011</ele>
        <time>2016-05-08T16:08:28Z</time>
      </trkpt>
      <trkpt lat="44.38772" lon="6.27767">
        <ele>1011</ele>
        <time>2016-05-08T16:10:28Z</time>
      </trkpt>
      <trkpt lat="44.38785" lon="6.27822">
        <ele>1020</ele>
        <time>2016-05-08T16:12:28Z</time>
      </trkpt>
      <trkpt lat="44.38787" lon="6.27834">
        <ele>1021</ele>
        <time>2016-05-08T16:14:28Z</time>
      </trkpt>
      <trkpt lat="44.38789" lon="6.2785">
        <ele>1024</ele>
        <time>2016-05-08T16:16:28Z</time>
      </trkpt>
      <trkpt lat="44.38789" lon="6.27863">
        <ele>1026</ele>
        <time>2016-05-08T16:18:28Z</time>
      </trkpt>
      <trkpt lat="44.38788" lon="6.27871">
        <ele>1027</ele>
        <time>2016-05-08T16:20:28Z</time>
      </trkpt>
      <trkpt lat="44.38786" lon="6.27881">
        <ele>1027</ele>
        <time>2016-05-08T16:22:28Z</time>
      </trkpt>
      <trkpt lat="44.38765" lon="6.27966">
        <ele>1026</ele>
        <time>2016-05-08T16:24:28Z</time>
      </trkpt>
      <trkpt lat="44.3876" lon="6.2799">
        <ele>1026</ele>
        <time>2016-05-08T16:26:28Z</time>
      </trkpt>
      <trkpt lat="44.38756" lon="6.28011">
        <ele>1026</ele>
        <time>2016-05-08T16:28:28Z</time>
      </trkpt>
      <trkpt lat="44.38749" lon="6.28059">
        <ele>1032</ele>
        <time>2016-05-08T16:30:28Z</time>
      </trkpt>
      <trkpt lat="44.38749" lon="6.28073">
        <ele>1035</ele>
        <time>2016-05-08T16:32:28Z</time>
      </trkpt>
      <trkpt lat="44.38749" lon="6.2809">
        <ele>1038</ele>
        <time>2016-05-08T16:34:28Z</time>
      </trkpt>
      <trkpt lat="44.38749" lon="6.28097">
        <ele>1040</ele>
        <time>2016-05-08T16:36:28Z</time>
      </trkpt>
      <trkpt lat="44.38749" lon="6.28102">
        <ele>1041</ele>
        <time>2016-05-08T16:38:28Z</time>
      </trkpt>
      <trkpt lat="44.38746" lon="6.28112">
        <ele>1043</ele>
        <time>2016-05-08T16:40:28Z</time>
      </trkpt>
      <trkpt lat="44.38744" lon="6.28118">
        <ele>1043</ele>
        <time>2016-05-08T16:42:28Z</time>
      </trkpt>
      <trkpt lat="44.38742" lon="6.28121">
        <ele>1043</ele>
        <time>2016-05-08T16:44:28Z</time>
      </trkpt>
      <trkpt lat="44.38738" lon="6.28127">
        <ele>1044</ele>
        <time>2016-05-08T16:46:28Z</time>
      </trkpt>
      <trkpt lat="44.38728" lon="6.28137">
        <ele>1043</ele>
        <time>2016-05-08T16:48:28Z</time>
      </trkpt>
      <trkpt lat="44.38724" lon="6.28139">
        <ele>1042</ele>
        <time>2016-05-08T16:50:28Z</time>
      </trkpt>
      <trkpt lat="44.38718" lon="6.2814">
        <ele>1040</ele>
        <time>2016-05-08T16:52:28Z</time>
      </trkpt>
      <trkpt lat="44.38716" lon="6.2814">
        <ele>1040</ele>
        <time>2016-05-08T16:54:28Z</time>
      </trkpt>
      <trkpt lat="44.38712" lon="6.2814">
        <ele>1039</ele>
        <time>2016-05-08T16:56:28Z</time>
      </trkpt>
      <trkpt lat="44.38685" lon="6.28133">
        <ele>1028</ele>
        <time>2016-05-08T16:58:28Z</time>
      </trkpt>
      <trkpt lat="44.38683" lon="6.28133">
        <ele>1028</ele>
        <time>2016-05-08T17:00:28Z</time>
      </trkpt>
      <trkpt lat="44.38675" lon="6.28134">
        <ele>1025</ele>
        <time>2016-05-08T17:02:28Z</time>
      </trkpt>
      <trkpt lat="44.38669" lon="6.28137">
        <ele>1024</ele>
        <time>2016-05-08T17:04:28Z</time>
      </trkpt>
      <trkpt lat="44.38662" lon="6.28143">
        <ele>1024</ele>
        <time>2016-05-08T17:06:28Z</time>
      </trkpt>
      <trkpt lat="44.38658" lon="6.28148">
        <ele>1024</ele>
        <time>2016-05-08T17:08:28Z</time>
      </trkpt>
      <trkpt lat="44.38653" lon="6.28158">
        <ele>1024</ele>
        <time>2016-05-08T17:10:28Z</time>
      </trkpt>
      <trkpt lat="44.3865" lon="6.28169">
        <ele>1025</ele>
        <time>2016-05-08T17:12:28Z</time>
      </trkpt>
      <trkpt lat="44.3865" lon="6.28181">
        <ele>1025</ele>
        <time>2016-05-08T17:14:28Z</time>
      </trkpt>
      <trkpt lat="44.38651" lon="6.28189">
        <ele>1026</ele>
        <time>2016-05-08T17:16:28Z</time>
      </trkpt>
      <trkpt lat="44.38653" lon="6.28196">
        <ele>1027</ele>
        <time>2016-05-08T17:18:28Z</time>
      </trkpt>
      <trkpt lat="44.38657" lon="6.28207">
        <ele>1028</ele>
        <time>2016-05-08T17:20:28Z</time>
      </trkpt>
      <trkpt lat="44.38663" lon="6.28218">
        <ele>1031</ele>
        <time>2016-05-08T17:22:28Z</time>
      </trkpt>
      <trkpt lat="44.38669" lon="6.28228">
        <ele>1033</ele>
        <time>2016-05-08T17:24:28Z</time>
      </trkpt>
      <trkpt lat="44.38676" lon="6.28239">
        <ele>1037</ele>
        <time>2016-05-08T17:26:28Z</time>
      </trkpt>
      <trkpt lat="44.3868" lon="6.28246">
        <ele>1039</ele>
        <time>2016-05-08T17:28:28Z</time>
      </trkpt>
      <trkpt lat="44.38684" lon="6.28254">
        <ele>1042</ele>
        <time>2016-05-08T17:30:28Z</time>
      </trkpt>
      <trkpt lat="44.38687" lon="6.28262">
        <ele>1044</ele>
        <time>2016-05-08T17:32:28Z</time>
      </trkpt>
      <trkpt lat="44.3869" lon="6.28273">
        <ele>1047</ele>
        <time>2016-05-08T17:34:28Z</time>
      </trkpt>
      <trkpt lat="44.38691" lon="6.28285">
        <ele>1049</ele>
        <time>2016-05-08T17:36:28Z</time>
      </trkpt>
      <trkpt lat="44.38691" lon="6.28296">
        <ele>1050</ele>
        <time>2016-05-08T17:38:28Z</time>
      </trkpt>
      <trkpt lat="44.38689" lon="6.28302">
        <ele>1050</ele>
        <time>2016-05-08T17:40:28Z</time>
      </trkpt>
      <trkpt lat="44.38687" lon="6.28306">
        <ele>1050</ele>
        <time>2016-05-08T17:42:28Z</time>
      </trkpt>
      <trkpt lat="44.38685" lon="6.28311">
        <ele>1050</ele>
        <time>2016-05-08T17:44:28Z</time>
      </trkpt>
      <trkpt lat="44.38682" lon="6.28314">
        <ele>1049</ele>
        <time>2016-05-08T17:46:28Z</time>
      </trkpt>
      <trkpt lat="44.38679" lon="6.28318">
        <ele>1049</ele>
        <time>2016-05-08T17:48:28Z</time>
      </trkpt>
      <trkpt lat="44.38675" lon="6.2832">
        <ele>1047</ele>
        <time>2016-05-08T17:50:28Z</time>
      </trkpt>
      <trkpt lat="44.38672" lon="6.28322">
        <ele>1046</ele>
        <time>2016-05-08T17:52:28Z</time>
      </trkpt>
      <trkpt lat="44.38668" lon="6.28324">
        <ele>1045</ele>
        <time>2016-05-08T17:54:28Z</time>
      </trkpt>
      <trkpt lat="44.38643" lon="6.28322">
        <ele>1035</ele>
        <time>2016-05-08T17:56:28Z</time>
      </trkpt>
      <trkpt lat="44.38637" lon="6.28322">
        <ele>1033</ele>
        <time>2016-05-08T17:58:28Z</time>
      </trkpt>
      <trkpt lat="44.38633" lon="6.28323">
        <ele>1031</ele>
        <time>2016-05-08T18:00:28Z</time>
      </trkpt>
      <trkpt lat="44.38629" lon="6.28325">
        <ele>1030</ele>
        <time>2016-05-08T18:02:28Z</time>
      </trkpt>
      <trkpt lat="44.38623" lon="6.28331">
        <ele>1029</ele>
        <time>2016-05-08T18:04:28Z</time>
      </trkpt>
      <trkpt lat="44.38618" lon="6.28337">
        <ele>1029</ele>
        <time>2016-05-08T18:06:28Z</time>
      </trkpt>
      <trkpt lat="44.3861" lon="6.28355">
        <ele>1032</ele>
        <time>2016-05-08T18:08:28Z</time>
      </trkpt>
      <trkpt lat="44.38602" lon="6.28368">
        <ele>1033</ele>
        <time>2016-05-08T18:10:28Z</time>
      </trkpt>
      <trkpt lat="44.38593" lon="6.2838">
        <ele>1032</ele>
        <time>2016-05-08T18:12:28Z</time>
      </trkpt>
      <trkpt lat="44.38583" lon="6.28391">
        <ele>1031</ele>
        <time>2016-05-08T18:14:28Z</time>
      </trkpt>
      <trkpt lat="44.38578" lon="6.28398">
        <ele>1032</ele>
        <time>2016-05-08T18:16:28Z</time>
      </trkpt>
      <trkpt lat="44.38573" lon="6.28406">
        <ele>1032</ele>
        <time>2016-05-08T18:18:28Z</time>
      </trkpt>
      <trkpt lat="44.38571" lon="6.28411">
        <ele>1033</ele>
        <time>2016-05-08T18:20:28Z</time>
      </trkpt>
      <trkpt lat="44.38568" lon="6.28422">
        <ele>1033</ele>
        <time>2016-05-08T18:22:28Z</time>
      </trkpt>
      <trkpt lat="44.38566" lon="6.28431">
        <ele>1032</ele>
        <time>2016-05-08T18:24:28Z</time>
      </trkpt>
      <trkpt lat="44.38564" lon="6.28444">
        <ele>1031</ele>
        <time>2016-05-08T18:26:28Z</time>
      </trkpt>
      <trkpt lat="44.38564" lon="6.28457">
        <ele>1031</ele>
        <time>2016-05-08T18:28:28Z</time>
      </trkpt>
      <trkpt lat="44.38567" lon="6.28469">
        <ele>1032</ele>
        <time>2016-05-08T18:30:28Z</time>
      </trkpt>
      <trkpt lat="44.3857" lon="6.28482">
        <ele>1032</ele>
        <time>2016-05-08T18:32:28Z</time>
      </trkpt>
      <trkpt lat="44.38574" lon="6.28493">
        <ele>1034</ele>
        <time>2016-05-08T18:34:28Z</time>
      </trkpt>
      <trkpt lat="44.38577" lon="6.28498">
        <ele>1035</ele>
        <time>2016-05-08T18:36:28Z</time>
      </trkpt>
      <trkpt lat="44.38583" lon="6.28507">
        <ele>1036</ele>
        <time>2016-05-08T18:38:28Z</time>
      </trkpt>
      <trkpt lat="44.3859" lon="6.28513">
        <ele>1039</ele>
        <time>2016-05-08T18:40:28Z</time>
      </trkpt>
      <trkpt lat="44.38606" lon="6.28527">
        <ele>1045</ele>
        <time>2016-05-08T18:42:28Z</time>
      </trkpt>
      <trkpt lat="44.3861" lon="6.2853">
        <ele>1047</ele>
        <time>2016-05-08T18:44:28Z</time>
      </trkpt>
      <trkpt lat="44.38614" lon="6.28537">
        <ele>1048</ele>
        <time>2016-05-08T18:46:28Z</time>
      </trkpt>
      <trkpt lat="44.38616" lon="6.28546">
        <ele>1048</ele>
        <time>2016-05-08T18:48:28Z</time>
      </trkpt>
      <trkpt lat="44.38617" lon="6.28553">
        <ele>1048</ele>
        <time>2016-05-08T18:50:28Z</time>
      </trkpt>
      <trkpt lat="44.38618" lon="6.2856">
        <ele>1047</ele>
        <time>2016-05-08T18:52:28Z</time>
      </trkpt>
      <trkpt lat="44.38617" lon="6.28567">
        <ele>1046</ele>
        <time>2016-05-08T18:54:28Z</time>
      </trkpt>
      <trkpt lat="44.38617" lon="6.28574">
        <ele>1046</ele>
        <time>2016-05-08T18:56:28Z</time>
      </trkpt>
      <trkpt lat="44.38615" lon="6.2858">
        <ele>1044</ele>
        <time>2016-05-08T18:58:28Z</time>
      </trkpt>
      <trkpt lat="44.38613" lon="6.28584">
        <ele>1043</ele>
        <time>2016-05-08T19:00:28Z</time>
      </trkpt>
      <trkpt lat="44.38611" lon="6.28588">
        <ele>1042</ele>
        <time>2016-05-08T19:02:28Z</time>
      </trkpt>
      <trkpt lat="44.38608" lon="6.28591">
        <ele>1041</ele>
        <time>2016-05-08T19:04:28Z</time>
      </trkpt>
      <trkpt lat="44.38589" lon="6.28611">
        <ele>1036</ele>
        <time>2016-05-08T19:06:28Z</time>
      </trkpt>
      <trkpt lat="44.38584" lon="6.28618">
        <ele>1036</ele>
        <time>2016-05-08T19:08:28Z</time>
      </trkpt>
      <trkpt lat="44.38575" lon="6.28631">
        <ele>1035</ele>
        <time>2016-05-08T19:10:28Z</time>
      </trkpt>
      <trkpt lat="44.38565" lon="6.28647">
        <ele>1033</ele>
        <time>2016-05-08T19:12:28Z</time>
      </trkpt>
      <trkpt lat="44.38547" lon="6.28687">
        <ele>1030</ele>
        <time>2016-05-08T19:14:28Z</time>
      </trkpt>
      <trkpt lat="44.38545" lon="6.28693">
        <ele>1030</ele>
        <time>2016-05-08T19:16:28Z</time>
      </trkpt>
      <trkpt lat="44.38543" lon="6.28698">
        <ele>1029</ele>
        <time>2016-05-08T19:18:28Z</time>
      </trkpt>
      <trkpt lat="44.38541" lon="6.28704">
        <ele>1029</ele>
        <time>2016-05-08T19:20:28Z</time>
      </trkpt>
      <trkpt lat="44.38541" lon="6.28707">
        <ele>1029</ele>
        <time>2016-05-08T19:22:28Z</time>
      </trkpt>
      <trkpt lat="44.38541" lon="6.28712">
        <ele>1029</ele>
        <time>2016-05-08T19:24:28Z</time>
      </trkpt>
      <trkpt lat="44.38542" lon="6.28718">
        <ele>1029</ele>
        <time>2016-05-08T19:26:28Z</time>
      </trkpt>
      <trkpt lat="44.38543" lon="6.28724">
        <ele>1030</ele>
        <time>2016-05-08T19:28:28Z</time>
      </trkpt>
      <trkpt lat="44.38545" lon="6.2873">
        <ele>1030</ele>
        <time>2016-05-08T19:30:28Z</time>
      </trkpt>
      <trkpt lat="44.38547" lon="6.28735">
        <ele>1031</ele>
        <time>2016-05-08T19:32:28Z</time>
      </trkpt>
      <trkpt lat="44.38549" lon="6.28739">
        <ele>1031</ele>
        <time>2016-05-08T19:34:28Z</time>
      </trkpt>
      <trkpt lat="44.38552" lon="6.28743">
        <ele>1032</ele>
        <time>2016-05-08T19:36:28Z</time>
      </trkpt>
      <trkpt lat="44.38555" lon="6.28745">
        <ele>1033</ele>
        <time>2016-05-08T19:38:28Z</time>
      </trkpt>
      <trkpt lat="44.3856" lon="6.28749">
        <ele>1034</ele>
        <time>2016-05-08T19:40:28Z</time>
      </trkpt>
      <trkpt lat="44.38564" lon="6.28751">
        <ele>1034</ele>
        <time>2016-05-08T19:42:28Z</time>
      </trkpt>
      <trkpt lat="44.38568" lon="6.28753">
        <ele>1035</ele>
        <time>2016-05-08T19:44:28Z</time>
      </trkpt>
      <trkpt lat="44.38571" lon="6.28754">
        <ele>1035</ele>
        <time>2016-05-08T19:46:28Z</time>
      </trkpt>
      <trkpt lat="44.38576" lon="6.28755">
        <ele>1036</ele>
        <time>2016-05-08T19:48:28Z</time>
      </trkpt>
      <trkpt lat="44.3858" lon="6.28755">
        <ele>1037</ele>
        <time>2016-05-08T19:50:28Z</time>
      </trkpt>
      <trkpt lat="44.38587" lon="6.28754">
        <ele>1038</ele>
        <time>2016-05-08T19:52:28Z</time>
      </trkpt>
      <trkpt lat="44.38599" lon="6.2875">
        <ele>1039</ele>
        <time>2016-05-08T19:54:28Z</time>
      </trkpt>
      <trkpt lat="44.38607" lon="6.2875">
        <ele>1039</ele>
        <time>2016-05-08T19:56:28Z</time>
      </trkpt>
      <trkpt lat="44.38611" lon="6.28751">
        <ele>1039</ele>
        <time>2016-05-08T19:58:28Z</time>
      </trkpt>
      <trkpt lat="44.38617" lon="6.28753">
        <ele>1039</ele>
        <time>2016-05-08T20:00:28Z</time>
      </trkpt>
      <trkpt lat="44.38622" lon="6.28756">
        <ele>1039</ele>
        <time>2016-05-08T20:02:28Z</time>
      </trkpt>
      <trkpt lat="44.38627" lon="6.2876">
        <ele>1039</ele>
        <time>2016-05-08T20:04:28Z</time>
      </trkpt>
      <trkpt lat="44.38637" lon="6.28777">
        <ele>1038</ele>
        <time>2016-05-08T20:06:28Z</time>
      </trkpt>
      <trkpt lat="44.38646" lon="6.28798">
        <ele>1038</ele>
        <time>2016-05-08T20:08:28Z</time>
      </trkpt>
      <trkpt lat="44.38656" lon="6.28818">
        <ele>1037</ele>
        <time>2016-05-08T20:10:28Z</time>
      </trkpt>
      <trkpt lat="44.38667" lon="6.28851">
        <ele>1039</ele>
        <time>2016-05-08T20:12:28Z</time>
      </trkpt>
      <trkpt lat="44.38668" lon="6.28858">
        <ele>1040</ele>
        <time>2016-05-08T20:14:28Z</time>
      </trkpt>
      <trkpt lat="44.38668" lon="6.28867">
        <ele>1041</ele>
        <time>2016-05-08T20:16:28Z</time>
      </trkpt>
      <trkpt lat="44.38667" lon="6.28875">
        <ele>1041</ele>
        <time>2016-05-08T20:18:28Z</time>
      </trkpt>
      <trkpt lat="44.38666" lon="6.28882">
        <ele>1041</ele>
        <time>2016-05-08T20:20:28Z</time>
      </trkpt>
      <trkpt lat="44.38664" lon="6.28891">
        <ele>1042</ele>
        <time>2016-05-08T20:22:28Z</time>
      </trkpt>
      <trkpt lat="44.38641" lon="6.28951">
        <ele>1039</ele>
        <time>2016-05-08T20:24:28Z</time>
      </trkpt>
      <trkpt lat="44.38639" lon="6.2896">
        <ele>1039</ele>
        <time>2016-05-08T20:26:28Z</time>
      </trkpt>
      <trkpt lat="44.38637" lon="6.28968">
        <ele>1038</ele>
        <time>2016-05-08T20:28:28Z</time>
      </trkpt>
      <trkpt lat="44.38635" lon="6.28976">
        <ele>1038</ele>
        <time>2016-05-08T20:30:28Z</time>
      </trkpt>
      <trkpt lat="44.38634" lon="6.28985">
        <ele>1038</ele>
        <time>2016-05-08T20:32:28Z</time>
      </trkpt>
      <trkpt lat="44.38633" lon="6.28997">
        <ele>1039</ele>
        <time>2016-05-08T20:34:28Z</time>
      </trkpt>
      <trkpt lat="44.38634" lon="6.29007">
        <ele>1039</ele>
        <time>2016-05-08T20:36:28Z</time>
      </trkpt>
      <trkpt lat="44.38635" lon="6.29018">
        <ele>1039</ele>
        <time>2016-05-08T20:38:28Z</time>
      </trkpt>
      <trkpt lat="44.38637" lon="6.29032">
        <ele>1039</ele>
        <time>2016-05-08T20:40:28Z</time>
      </trkpt>
      <trkpt lat="44.3864" lon="6.2905">
        <ele>1040</ele>
        <time>2016-05-08T20:42:28Z</time>
      </trkpt>
      <trkpt lat="44.38643" lon="6.29059">
        <ele>1040</ele>
        <time>2016-05-08T20:44:28Z</time>
      </trkpt>
      <trkpt lat="44.38646" lon="6.29069">
        <ele>1040</ele>
        <time>2016-05-08T20:46:28Z</time>
      </trkpt>
      <trkpt lat="44.38653" lon="6.29085">
        <ele>1041</ele>
        <time>2016-05-08T20:48:28Z</time>
      </trkpt>
      <trkpt lat="44.3866" lon="6.29097">
        <ele>1041</ele>
        <time>2016-05-08T20:50:28Z</time>
      </trkpt>
      <trkpt lat="44.38684" lon="6.29142">
        <ele>1043</ele>
        <time>2016-05-08T20:52:28Z</time>
      </trkpt>
      <trkpt lat="44.38687" lon="6.29147">
        <ele>1043</ele>
        <time>2016-05-08T20:54:28Z</time>
      </trkpt>
      <trkpt lat="44.38689" lon="6.29153">
        <ele>1043</ele>
        <time>2016-05-08T20:56:28Z</time>
      </trkpt>
      <trkpt lat="44.38724" lon="6.29219">
        <ele>1045</ele>
        <time>2016-05-08T20:58:28Z</time>
      </trkpt>
      <trkpt lat="44.38728" lon="6.29229">
        <ele>1045</ele>
        <time>2016-05-08T21:00:28Z</time>
      </trkpt>
      <trkpt lat="44.38733" lon="6.29241">
        <ele>1045</ele>
        <time>2016-05-08T21:02:28Z</time>
      </trkpt>
      <trkpt lat="44.38737" lon="6.29259">
        <ele>1045</ele>
        <time>2016-05-08T21:04:28Z</time>
      </trkpt>
      <trkpt lat="44.38742" lon="6.29282">
        <ele>1045</ele>
        <time>2016-05-08T21:06:28Z</time>
      </trkpt>
      <trkpt lat="44.38744" lon="6.29296">
        <ele>1046</ele>
        <time>2016-05-08T21:08:28Z</time>
      </trkpt>
      <trkpt lat="44.38747" lon="6.29309">
        <ele>1046</ele>
        <time>2016-05-08T21:10:28Z</time>
      </trkpt>
      <trkpt lat="44.38751" lon="6.29329">
        <ele>1046</ele>
        <time>2016-05-08T21:12:28Z</time>
      </trkpt>
      <trkpt lat="44.38751" lon="6.29344">
        <ele>1046</ele>
        <time>2016-05-08T21:14:28Z</time>
      </trkpt>
      <trkpt lat="44.38752" lon="6.29362">
        <ele>1047</ele>
        <time>2016-05-08T21:16:28Z</time>
      </trkpt>
      <trkpt lat="44.38751" lon="6.29376">
        <ele>1047</ele>
        <time>2016-05-08T21:18:28Z</time>
      </trkpt>
      <trkpt lat="44.3875" lon="6.29391">
        <ele>1047</ele>
        <time>2016-05-08T21:20:28Z</time>
      </trkpt>
      <trkpt lat="44.38745" lon="6.29437">
        <ele>1048</ele>
        <time>2016-05-08T21:22:28Z</time>
      </trkpt>
      <trkpt lat="44.38737" lon="6.29509">
        <ele>1048</ele>
        <time>2016-05-08T21:24:28Z</time>
      </trkpt>
      <trkpt lat="44.38734" lon="6.29531">
        <ele>1049</ele>
        <time>2016-05-08T21:26:28Z</time>
      </trkpt>
      <trkpt lat="44.3873" lon="6.29547">
        <ele>1050</ele>
        <time>2016-05-08T21:28:28Z</time>
      </trkpt>
      <trkpt lat="44.38726" lon="6.29561">
        <ele>1051</ele>
        <time>2016-05-08T21:30:28Z</time>
      </trkpt>
      <trkpt lat="44.38705" lon="6.2962">
        <ele>1051</ele>
        <time>2016-05-08T21:32:28Z</time>
      </trkpt>
      <trkpt lat="44.38703" lon="6.29626">
        <ele>1052</ele>
        <time>2016-05-08T21:34:28Z</time>
      </trkpt>
      <trkpt lat="44.38702" lon="6.29629">
        <ele>1052</ele>
        <time>2016-05-08T21:36:28Z</time>
      </trkpt>
      <trkpt lat="44.38701" lon="6.29634">
        <ele>1052</ele>
        <time>2016-05-08T21:38:28Z</time>
      </trkpt>
      <trkpt lat="44.387" lon="6.29639">
        <ele>1052</ele>
        <time>2016-05-08T21:40:28Z</time>
      </trkpt>
      <trkpt lat="44.387" lon="6.29645">
        <ele>1053</ele>
        <time>2016-05-08T21:42:28Z</time>
      </trkpt>
      <trkpt lat="44.387" lon="6.29653">
        <ele>1053</ele>
        <time>2016-05-08T21:44:28Z</time>
      </trkpt>
      <trkpt lat="44.387" lon="6.29658">
        <ele>1054</ele>
        <time>2016-05-08T21:46:28Z</time>
      </trkpt>
      <trkpt lat="44.387" lon="6.29662">
        <ele>1054</ele>
        <time>2016-05-08T21:48:28Z</time>
      </trkpt>
      <trkpt lat="44.38701" lon="6.29667">
        <ele>1054</ele>
        <time>2016-05-08T21:50:28Z</time>
      </trkpt>
      <trkpt lat="44.38702" lon="6.2967">
        <ele>1054</ele>
        <time>2016-05-08T21:52:28Z</time>
      </trkpt>
      <trkpt lat="44.38712" lon="6.29699">
        <ele>1055</ele>
        <time>2016-05-08T21:54:28Z</time>
      </trkpt>
      <trkpt lat="44.38714" lon="6.29708">
        <ele>1055</ele>
        <time>2016-05-08T21:56:28Z</time>
      </trkpt>
      <trkpt lat="44.38716" lon="6.29714">
        <ele>1055</ele>
        <time>2016-05-08T21:58:28Z</time>
      </trkpt>
      <trkpt lat="44.38717" lon="6.29721">
        <ele>1055</ele>
        <time>2016-05-08T22:00:28Z</time>
      </trkpt>
      <trkpt lat="44.38717" lon="6.29733">
        <ele>1055</ele>
        <time>2016-05-08T22:02:28Z</time>
      </trkpt>
      <trkpt lat="44.38714" lon="6.29744">
        <ele>1055</ele>
        <time>2016-05-08T22:04:28Z</time>
      </trkpt>
      <trkpt lat="44.38711" lon="6.2975">
        <ele>1055</ele>
        <time>2016-05-08T22:06:28Z</time>
      </trkpt>
      <trkpt lat="44.38708" lon="6.29755">
        <ele>1055</ele>
        <time>2016-05-08T22:08:28Z</time>
      </trkpt>
      <trkpt lat="44.38704" lon="6.2976">
        <ele>1055</ele>
        <time>2016-05-08T22:10:28Z</time>
      </trkpt>
      <trkpt lat="44.38699" lon="6.29764">
        <ele>1056</ele>
        <time>2016-05-08T22:12:28Z</time>
      </trkpt>
      <trkpt lat="44.38694" lon="6.29767">
        <ele>1056</ele>
        <time>2016-05-08T22:14:28Z</time>
      </trkpt>
      <trkpt lat="44.38689" lon="6.29769">
        <ele>1056</ele>
        <time>2016-05-08T22:16:28Z</time>
      </trkpt>
      <trkpt lat="44.38679" lon="6.29768">
        <ele>1056</ele>
        <time>2016-05-08T22:18:28Z</time>
      </trkpt>
      <trkpt lat="44.38672" lon="6.29766">
        <ele>1056</ele>
        <time>2016-05-08T22:20:28Z</time>
      </trkpt>
      <trkpt lat="44.38653" lon="6.29757">
        <ele>1055</ele>
        <time>2016-05-08T22:22:28Z</time>
      </trkpt>
      <trkpt lat="44.38646" lon="6.29756">
        <ele>1055</ele>
        <time>2016-05-08T22:24:28Z</time>
      </trkpt>
      <trkpt lat="44.38638" lon="6.29756">
        <ele>1055</ele>
        <time>2016-05-08T22:26:28Z</time>
      </trkpt>
      <trkpt lat="44.38633" lon="6.29757">
        <ele>1055</ele>
        <time>2016-05-08T22:28:28Z</time>
      </trkpt>
      <trkpt lat="44.38628" lon="6.29759">
        <ele>1055</ele>
        <time>2016-05-08T22:30:28Z</time>
      </trkpt>
      <trkpt lat="44.3862" lon="6.29763">
        <ele>1056</ele>
        <time>2016-05-08T22:32:28Z</time>
      </trkpt>
      <trkpt lat="44.38616" lon="6.29767">
        <ele>1056</ele>
        <time>2016-05-08T22:34:28Z</time>
      </trkpt>
      <trkpt lat="44.38612" lon="6.29772">
        <ele>1056</ele>
        <time>2016-05-08T22:36:28Z</time>
      </trkpt>
      <trkpt lat="44.38606" lon="6.29781">
        <ele>1057</ele>
        <time>2016-05-08T22:38:28Z</time>
      </trkpt>
      <trkpt lat="44.38601" lon="6.29791">
        <ele>1057</ele>
        <time>2016-05-08T22:40:28Z</time>
      </trkpt>
      <trkpt lat="44.38584" lon="6.29865">
        <ele>1060</ele>
        <time>2016-05-08T22:42:28Z</time>
      </trkpt>
      <trkpt lat="44.38579" lon="6.29886">
        <ele>1060</ele>
        <time>2016-05-08T22:44:28Z</time>
      </trkpt>
      <trkpt lat="44.38575" lon="6.29905">
        <ele>1060</ele>
        <time>2016-05-08T22:46:28Z</time>
      </trkpt>
      <trkpt lat="44.38573" lon="6.29928">
        <ele>1060</ele>
        <time>2016-05-08T22:48:28Z</time>
      </trkpt>
      <trkpt lat="44.38573" lon="6.29952">
        <ele>1061</ele>
        <time>2016-05-08T22:50:28Z</time>
      </trkpt>
      <trkpt lat="44.38574" lon="6.2997">
        <ele>1061</ele>
        <time>2016-05-08T22:52:28Z</time>
      </trkpt>
      <trkpt lat="44.38577" lon="6.29982">
        <ele>1061</ele>
        <time>2016-05-08T22:54:28Z</time>
      </trkpt>
      <trkpt lat="44.38581" lon="6.30004">
        <ele>1062</ele>
        <time>2016-05-08T22:56:28Z</time>
      </trkpt>
      <trkpt lat="44.38596" lon="6.30064">
        <ele>1060</ele>
        <time>2016-05-08T22:58:28Z</time>
      </trkpt>
      <trkpt lat="44.38619" lon="6.30161">
        <ele>1057</ele>
        <time>2016-05-08T23:00:28Z</time>
      </trkpt>
      <trkpt lat="44.38627" lon="6.30196">
        <ele>1056</ele>
        <time>2016-05-08T23:02:28Z</time>
      </trkpt>
      <trkpt lat="44.38628" lon="6.30202">
        <ele>1055</ele>
        <time>2016-05-08T23:04:28Z</time>
      </trkpt>
      <trkpt lat="44.38628" lon="6.30202">
        <ele>1055</ele>
        <time>2016-05-08T23:06:28Z</time>
      </trkpt>
      <trkpt lat="44.38629" lon="6.30198">
        <ele>1056</ele>
        <time>2016-05-08T23:08:28Z</time>
      </trkpt>
      <trkpt lat="44.38634" lon="6.30191">
        <ele>1056</ele>
        <time>2016-05-08T23:10:28Z</time>
      </trkpt>
      <trkpt lat="44.38638" lon="6.30185">
        <ele>1057</ele>
        <time>2016-05-08T23:12:28Z</time>
      </trkpt>
      <trkpt lat="44.38642" lon="6.30182">
        <ele>1057</ele>
        <time>2016-05-08T23:14:28Z</time>
      </trkpt>
      <trkpt lat="44.38642" lon="6.30182">
        <ele>1057</ele>
        <time>2016-05-08T23:16:28Z</time>
      </trkpt>
      <trkpt lat="44.38645" lon="6.30185">
        <ele>1057</ele>
        <time>2016-05-08T23:18:28Z</time>
      </trkpt>
      <trkpt lat="44.38648" lon="6.30187">
        <ele>1058</ele>
        <time>2016-05-08T23:20:28Z</time>
      </trkpt>
      <trkpt lat="44.3867" lon="6.30191">
        <ele>1059</ele>
        <time>2016-05-08T23:22:28Z</time>
      </trkpt>
      <trkpt lat="44.38691" lon="6.30198">
        <ele>1061</ele>
        <time>2016-05-08T23:24:28Z</time>
      </trkpt>
      <trkpt lat="44.38705" lon="6.30205">
        <ele>1062</ele>
        <time>2016-05-08T23:26:28Z</time>
      </trkpt>
      <trkpt lat="44.3872" lon="6.30213">
        <ele>1063</ele>
        <time>2016-05-08T23:28:28Z</time>
      </trkpt>
      <trkpt lat="44.38787" lon="6.30274">
        <ele>1066</ele>
        <time>2016-05-08T23:30:28Z</time>
      </trkpt>
      <trkpt lat="44.38863" lon="6.30346">
        <ele>1070</ele>
        <time>2016-05-08T23:32:28Z</time>
      </trkpt>
      <trkpt lat="44.38928" lon="6.30405">
        <ele>1073</ele>
        <time>2016-05-08T23:34:28Z</time>
      </trkpt>
      <trkpt lat="44.38931" lon="6.30408">
        <ele>1073</ele>
        <time>2016-05-08T23:36:28Z</time>
      </trkpt>
      <trkpt lat="44.38937" lon="6.3041">
        <ele>1073</ele>
        <time>2016-05-08T23:38:28Z</time>
      </trkpt>
      <trkpt lat="44.38942" lon="6.30411">
        <ele>1074</ele>
        <time>2016-05-08T23:40:28Z</time>
      </trkpt>
      <trkpt lat="44.38947" lon="6.30411">
        <ele>1074</ele>
        <time>2016-05-08T23:42:28Z</time>
      </trkpt>
      <trkpt lat="44.38951" lon="6.3041">
        <ele>1074</ele>
        <time>2016-05-08T23:44:28Z</time>
      </trkpt>
      <trkpt lat="44.38954" lon="6.30408">
        <ele>1075</ele>
        <time>2016-05-08T23:46:28Z</time>
      </trkpt>
      <trkpt lat="44.3898" lon="6.30388">
        <ele>1076</ele>
        <time>2016-05-08T23:48:28Z</time>
      </trkpt>
      <trkpt lat="44.38989" lon="6.30381">
        <ele>1077</ele>
        <time>2016-05-08T23:50:28Z</time>
      </trkpt>
      <trkpt lat="44.38999" lon="6.30374">
        <ele>1077</ele>
        <time>2016-05-08T23:52:28Z</time>
      </trkpt>
      <trkpt lat="44.39011" lon="6.30368">
        <ele>1078</ele>
        <time>2016-05-08T23:54:28Z</time>
      </trkpt>
      <trkpt lat="44.39039" lon="6.30354">
        <ele>1080</ele>
        <time>2016-05-08T23:56:28Z</time>
      </trkpt>
      <trkpt lat="44.39061" lon="6.30341">
        <ele>1081</ele>
        <time>2016-05-08T23:58:28Z</time>
      </trkpt>
      <trkpt lat="44.39077" lon="6.3033">
        <ele>1082</ele>
        <time>2016-05-09T00:00:28Z</time>
      </trkpt>
      <trkpt lat="44.39088" lon="6.30319">
        <ele>1083</ele>
        <time>2016-05-09T00:02:28Z</time>
      </trkpt>
      <trkpt lat="44.39117" lon="6.3029">
        <ele>1085</ele>
        <time>2016-05-09T00:04:28Z</time>
      </trkpt>
      <trkpt lat="44.39128" lon="6.30279">
        <ele>1086</ele>
        <time>2016-05-09T00:06:28Z</time>
      </trkpt>
      <trkpt lat="44.3915" lon="6.3026">
        <ele>1088</ele>
        <time>2016-05-09T00:08:28Z</time>
      </trkpt>
      <trkpt lat="44.39167" lon="6.30242">
        <ele>1091</ele>
        <time>2016-05-09T00:10:28Z</time>
      </trkpt>
      <trkpt lat="44.39177" lon="6.3023">
        <ele>1092</ele>
        <time>2016-05-09T00:12:28Z</time>
      </trkpt>
      <trkpt lat="44.39189" lon="6.30216">
        <ele>1094</ele>
        <time>2016-05-09T00:14:28Z</time>
      </trkpt>
      <trkpt lat="44.39216" lon="6.30176">
        <ele>1098</ele>
        <time>2016-05-09T00:16:28Z</time>
      </trkpt>
      <trkpt lat="44.39222" lon="6.30171">
        <ele>1099</ele>
        <time>2016-05-09T00:18:28Z</time>
      </trkpt>
      <trkpt lat="44.39225" lon="6.30169">
        <ele>1099</ele>
        <time>2016-05-09T00:20:28Z</time>
      </trkpt>
      <trkpt lat="44.39229" lon="6.30168">
        <ele>1099</ele>
        <time>2016-05-09T00:22:28Z</time>
      </trkpt>
      <trkpt lat="44.39234" lon="6.30167">
        <ele>1100</ele>
        <time>2016-05-09T00:24:28Z</time>
      </trkpt>
      <trkpt lat="44.39238" lon="6.30168">
        <ele>1100</ele>
        <time>2016-05-09T00:26:28Z</time>
      </trkpt>
      <trkpt lat="44.39244" lon="6.3017">
        <ele>1100</ele>
        <time>2016-05-09T00:28:28Z</time>
      </trkpt>
      <trkpt lat="44.39258" lon="6.30177">
        <ele>1101</ele>
        <time>2016-05-09T00:30:28Z</time>
      </trkpt>
      <trkpt lat="44.39264" lon="6.30178">
        <ele>1102</ele>
        <time>2016-05-09T00:32:28Z</time>
      </trkpt>
      <trkpt lat="44.39271" lon="6.3018">
        <ele>1103</ele>
        <time>2016-05-09T00:34:28Z</time>
      </trkpt>
      <trkpt lat="44.39277" lon="6.30179">
        <ele>1103</ele>
        <time>2016-05-09T00:36:28Z</time>
      </trkpt>
      <trkpt lat="44.39283" lon="6.30176">
        <ele>1104</ele>
        <time>2016-05-09T00:38:28Z</time>
      </trkpt>
      <trkpt lat="44.39289" lon="6.30172">
        <ele>1105</ele>
        <time>2016-05-09T00:40:28Z</time>
      </trkpt>
      <trkpt lat="44.39294" lon="6.30168">
        <ele>1106</ele>
        <time>2016-05-09T00:42:28Z</time>
      </trkpt>
      <trkpt lat="44.39297" lon="6.30163">
        <ele>1107</ele>
        <time>2016-05-09T00:44:28Z</time>
      </trkpt>
      <trkpt lat="44.39299" lon="6.30156">
        <ele>1108</ele>
        <time>2016-05-09T00:46:28Z</time>
      </trkpt>
      <trkpt lat="44.39299" lon="6.3015">
        <ele>1108</ele>
        <time>2016-05-09T00:48:28Z</time>
      </trkpt>
      <trkpt lat="44.39298" lon="6.30143">
        <ele>1109</ele>
        <time>2016-05-09T00:50:28Z</time>
      </trkpt>
      <trkpt lat="44.39297" lon="6.30137">
        <ele>1109</ele>
        <time>2016-05-09T00:52:28Z</time>
      </trkpt>
      <trkpt lat="44.3927" lon="6.30051">
        <ele>1116</ele>
        <time>2016-05-09T00:54:28Z</time>
      </trkpt>
      <trkpt lat="44.39269" lon="6.30045">
        <ele>1117</ele>
        <time>2016-05-09T00:56:28Z</time>
      </trkpt>
      <trkpt lat="44.3927" lon="6.30041">
        <ele>1118</ele>
        <time>2016-05-09T00:58:28Z</time>
      </trkpt>
      <trkpt lat="44.3927" lon="6.30037">
        <ele>1118</ele>
        <time>2016-05-09T01:00:28Z</time>
      </trkpt>
      <trkpt lat="44.39272" lon="6.30031">
        <ele>1119</ele>
        <time>2016-05-09T01:02:28Z</time>
      </trkpt>
      <trkpt lat="44.39274" lon="6.30027">
        <ele>1120</ele>
        <time>2016-05-09T01:04:28Z</time>
      </trkpt>
      <trkpt lat="44.39276" lon="6.30024">
        <ele>1120</ele>
        <time>2016-05-09T01:06:28Z</time>
      </trkpt>
      <trkpt lat="44.39281" lon="6.30021">
        <ele>1121</ele>
        <time>2016-05-09T01:08:28Z</time>
      </trkpt>
      <trkpt lat="44.39297" lon="6.30015">
        <ele>1123</ele>
        <time>2016-05-09T01:10:28Z</time>
      </trkpt>
      <trkpt lat="44.39303" lon="6.30014">
        <ele>1123</ele>
        <time>2016-05-09T01:12:28Z</time>
      </trkpt>
      <trkpt lat="44.39308" lon="6.30014">
        <ele>1123</ele>
        <time>2016-05-09T01:14:28Z</time>
      </trkpt>
      <trkpt lat="44.39314" lon="6.30016">
        <ele>1123</ele>
        <time>2016-05-09T01:16:28Z</time>
      </trkpt>
      <trkpt lat="44.39332" lon="6.30027">
        <ele>1123</ele>
        <time>2016-05-09T01:18:28Z</time>
      </trkpt>
      <trkpt lat="44.39338" lon="6.30029">
        <ele>1124</ele>
        <time>2016-05-09T01:20:28Z</time>
      </trkpt>
      <trkpt lat="44.39343" lon="6.3003">
        <ele>1124</ele>
        <time>2016-05-09T01:22:28Z</time>
      </trkpt>
      <trkpt lat="44.39356" lon="6.30027">
        <ele>1126</ele>
        <time>2016-05-09T01:24:28Z</time>
      </trkpt>
      <trkpt lat="44.3936" lon="6.30027">
        <ele>1127</ele>
        <time>2016-05-09T01:26:28Z</time>
      </trkpt>
      <trkpt lat="44.39367" lon="6.30028">
        <ele>1127</ele>
        <time>2016-05-09T01:28:28Z</time>
      </trkpt>
      <trkpt lat="44.39375" lon="6.30032">
        <ele>1128</ele>
        <time>2016-05-09T01:30:28Z</time>
      </trkpt>
      <trkpt lat="44.39396" lon="6.30048">
        <ele>1129</ele>
        <time>2016-05-09T01:32:28Z</time>
      </trkpt>
      <trkpt lat="44.39403" lon="6.30054">
        <ele>1129</ele>
        <time>2016-05-09T01:34:28Z</time>
      </trkpt>
      <trkpt lat="44.39407" lon="6.3006">
        <ele>1129</ele>
        <time>2016-05-09T01:36:28Z</time>
      </trkpt>
      <trkpt lat="44.39411" lon="6.30066">
        <ele>1129</ele>
        <time>2016-05-09T01:38:28Z</time>
      </trkpt>
      <trkpt lat="44.39425" lon="6.30093">
        <ele>1130</ele>
        <time>2016-05-09T01:40:28Z</time>
      </trkpt>
      <trkpt lat="44.39431" lon="6.30103">
        <ele>1131</ele>
        <time>2016-05-09T01:42:28Z</time>
      </trkpt>
      <trkpt lat="44.39438" lon="6.30113">
        <ele>1132</ele>
        <time>2016-05-09T01:44:28Z</time>
      </trkpt>
      <trkpt lat="44.39446" lon="6.30124">
        <ele>1133</ele>
        <time>2016-05-09T01:46:28Z</time>
      </trkpt>
      <trkpt lat="44.39468" lon="6.3015">
        <ele>1137</ele>
        <time>2016-05-09T01:48:28Z</time>
      </trkpt>
      <trkpt lat="44.39492" lon="6.30173">
        <ele>1142</ele>
        <time>2016-05-09T01:50:28Z</time>
      </trkpt>
      <trkpt lat="44.39504" lon="6.30184">
        <ele>1144</ele>
        <time>2016-05-09T01:52:28Z</time>
      </trkpt>
      <trkpt lat="44.39515" lon="6.30196">
        <ele>1146</ele>
        <time>2016-05-09T01:54:28Z</time>
      </trkpt>
      <trkpt lat="44.39525" lon="6.30209">
        <ele>1148</ele>
        <time>2016-05-09T01:56:28Z</time>
      </trkpt>
      <trkpt lat="44.39543" lon="6.30231">
        <ele>1150</ele>
        <time>2016-05-09T01:58:28Z</time>
      </trkpt>
      <trkpt lat="44.39558" lon="6.30251">
        <ele>1152</ele>
        <time>2016-05-09T02:00:28Z</time>
      </trkpt>
      <trkpt lat="44.39562" lon="6.30257">
        <ele>1152</ele>
        <time>2016-05-09T02:02:28Z</time>
      </trkpt>
      <trkpt lat="44.39567" lon="6.30262">
        <ele>1153</ele>
        <time>2016-05-09T02:04:28Z</time>
      </trkpt>
      <trkpt lat="44.39573" lon="6.30268">
        <ele>1153</ele>
        <time>2016-05-09T02:06:28Z</time>
      </trkpt>
      <trkpt lat="44.39578" lon="6.30272">
        <ele>1154</ele>
        <time>2016-05-09T02:08:28Z</time>
      </trkpt>
      <trkpt lat="44.39595" lon="6.30282">
        <ele>1157</ele>
        <time>2016-05-09T02:10:28Z</time>
      </trkpt>
      <trkpt lat="44.39601" lon="6.30284">
        <ele>1158</ele>
        <time>2016-05-09T02:12:28Z</time>
      </trkpt>
      <trkpt lat="44.39608" lon="6.30289">
        <ele>1159</ele>
        <time>2016-05-09T02:14:28Z</time>
      </trkpt>
      <trkpt lat="44.39614" lon="6.30295">
        <ele>1159</ele>
        <time>2016-05-09T02:16:28Z</time>
      </trkpt>
      <trkpt lat="44.3962" lon="6.30305">
        <ele>1159</ele>
        <time>2016-05-09T02:18:28Z</time>
      </trkpt>
      <trkpt lat="44.39625" lon="6.30312">
        <ele>1159</ele>
        <time>2016-05-09T02:20:28Z</time>
      </trkpt>
      <trkpt lat="44.39635" lon="6.30322">
        <ele>1159</ele>
        <time>2016-05-09T02:22:28Z</time>
      </trkpt>
      <trkpt lat="44.39644" lon="6.30329">
        <ele>1160</ele>
        <time>2016-05-09T02:24:28Z</time>
      </trkpt>
      <trkpt lat="44.39669" lon="6.30344">
        <ele>1163</ele>
        <time>2016-05-09T02:26:28Z</time>
      </trkpt>
      <trkpt lat="44.3969" lon="6.30354">
        <ele>1166</ele>
        <time>2016-05-09T02:28:28Z</time>
      </trkpt>
      <trkpt lat="44.39709" lon="6.30362">
        <ele>1169</ele>
        <time>2016-05-09T02:30:28Z</time>
      </trkpt>
      <trkpt lat="44.39716" lon="6.30366">
        <ele>1170</ele>
        <time>2016-05-09T02:32:28Z</time>
      </trkpt>
      <trkpt lat="44.39723" lon="6.30371">
        <ele>1171</ele>
        <time>2016-05-09T02:34:28Z</time>
      </trkpt>
      <trkpt lat="44.3973" lon="6.30379">
        <ele>1171</ele>
        <time>2016-05-09T02:36:28Z</time>
      </trkpt>
      <trkpt lat="44.39769" lon="6.30417">
        <ele>1175</ele>
        <time>2016-05-09T02:38:28Z</time>
      </trkpt>
      <trkpt lat="44.39801" lon="6.30451">
        <ele>1180</ele>
        <time>2016-05-09T02:40:28Z</time>
      </trkpt>
      <trkpt lat="44.3981" lon="6.30468">
        <ele>1181</ele>
        <time>2016-05-09T02:42:28Z</time>
      </trkpt>
      <trkpt lat="44.39817" lon="6.30482">
        <ele>1182</ele>
        <time>2016-05-09T02:44:28Z</time>
      </trkpt>
      <trkpt lat="44.3982" lon="6.30484">
        <ele>1182</ele>
        <time>2016-05-09T02:46:28Z</time>
      </trkpt>
      <trkpt lat="44.39822" lon="6.30484">
        <ele>1183</ele>
        <time>2016-05-09T02:48:28Z</time>
      </trkpt>
      <trkpt lat="44.39824" lon="6.30483">
        <ele>1184</ele>
        <time>2016-05-09T02:50:28Z</time>
      </trkpt>
      <trkpt lat="44.39826" lon="6.30482">
        <ele>1184</ele>
        <time>2016-05-09T02:52:28Z</time>
      </trkpt>
      <trkpt lat="44.39828" lon="6.30481">
        <ele>1185</ele>
        <time>2016-05-09T02:54:28Z</time>
      </trkpt>
      <trkpt lat="44.39829" lon="6.30479">
        <ele>1186</ele>
        <time>2016-05-09T02:56:28Z</time>
      </trkpt>
      <trkpt lat="44.3983" lon="6.30477">
        <ele>1186</ele>
        <time>2016-05-09T02:58:28Z</time>
      </trkpt>
      <trkpt lat="44.39831" lon="6.30475">
        <ele>1186</ele>
        <time>2016-05-09T03:00:28Z</time>
      </trkpt>
      <trkpt lat="44.3983" lon="6.30471">
        <ele>1186</ele>
        <time>2016-05-09T03:02:28Z</time>
      </trkpt>
      <trkpt lat="44.39829" lon="6.30467">
        <ele>1187</ele>
        <time>2016-05-09T03:04:28Z</time>
      </trkpt>
      <trkpt lat="44.39822" lon="6.30456">
        <ele>1186</ele>
        <time>2016-05-09T03:06:28Z</time>
      </trkpt>
      <trkpt lat="44.39818" lon="6.30447">
        <ele>1185</ele>
        <time>2016-05-09T03:08:28Z</time>
      </trkpt>
      <trkpt lat="44.39804" lon="6.30402">
        <ele>1186</ele>
        <time>2016-05-09T03:10:28Z</time>
      </trkpt>
      <trkpt lat="44.39798" lon="6.30384">
        <ele>1187</ele>
        <time>2016-05-09T03:12:28Z</time>
      </trkpt>
      <trkpt lat="44.39793" lon="6.30361">
        <ele>1189</ele>
        <time>2016-05-09T03:14:28Z</time>
      </trkpt>
      <trkpt lat="44.39789" lon="6.3034">
        <ele>1191</ele>
        <time>2016-05-09T03:16:28Z</time>
      </trkpt>
      <trkpt lat="44.39787" lon="6.30331">
        <ele>1192</ele>
        <time>2016-05-09T03:18:28Z</time>
      </trkpt>
      <trkpt lat="44.3978" lon="6.30301">
        <ele>1196</ele>
        <time>2016-05-09T03:20:28Z</time>
      </trkpt>
      <trkpt lat="44.39774" lon="6.30275">
        <ele>1200</ele>
        <time>2016-05-09T03:22:28Z</time>
      </trkpt>
      <trkpt lat="44.3977" lon="6.30265">
        <ele>1201</ele>
        <time>2016-05-09T03:24:28Z</time>
      </trkpt>
      <trkpt lat="44.39765" lon="6.30254">
        <ele>1203</ele>
        <time>2016-05-09T03:26:28Z</time>
      </trkpt>
      <trkpt lat="44.39758" lon="6.30244">
        <ele>1203</ele>
        <time>2016-05-09T03:28:28Z</time>
      </trkpt>
      <trkpt lat="44.39751" lon="6.30234">
        <ele>1203</ele>
        <time>2016-05-09T03:30:28Z</time>
      </trkpt>
      <trkpt lat="44.39718" lon="6.30197">
        <ele>1202</ele>
        <time>2016-05-09T03:32:28Z</time>
      </trkpt>
      <trkpt lat="44.39711" lon="6.30189">
        <ele>1202</ele>
        <time>2016-05-09T03:34:28Z</time>
      </trkpt>
      <trkpt lat="44.39707" lon="6.30183">
        <ele>1202</ele>
        <time>2016-05-09T03:36:28Z</time>
      </trkpt>
      <trkpt lat="44.39703" lon="6.30172">
        <ele>1203</ele>
        <time>2016-05-09T03:38:28Z</time>
      </trkpt>
      <trkpt lat="44.397" lon="6.30161">
        <ele>1203</ele>
        <time>2016-05-09T03:40:28Z</time>
      </trkpt>
      <trkpt lat="44.397" lon="6.30153">
        <ele>1204</ele>
        <time>2016-05-09T03:42:28Z</time>
      </trkpt>
      <trkpt lat="44.39701" lon="6.30147">
        <ele>1205</ele>
        <time>2016-05-09T03:44:28Z</time>
      </trkpt>
      <trkpt lat="44.39704" lon="6.30127">
        <ele>1208</ele>
        <time>2016-05-09T03:46:28Z</time>
      </trkpt>
      <trkpt lat="44.39718" lon="6.30055">
        <ele>1215</ele>
        <time>2016-05-09T03:48:28Z</time>
      </trkpt>
      <trkpt lat="44.39718" lon="6.30049">
        <ele>1215</ele>
        <time>2016-05-09T03:50:28Z</time>
      </trkpt>
      <trkpt lat="44.39722" lon="6.30041">
        <ele>1216</ele>
        <time>2016-05-09T03:52:28Z</time>
      </trkpt>
      <trkpt lat="44.39726" lon="6.30033">
        <ele>1217</ele>
        <time>2016-05-09T03:54:28Z</time>
      </trkpt>
      <trkpt lat="44.39749" lon="6.30009">
        <ele>1222</ele>
        <time>2016-05-09T03:56:28Z</time>
      </trkpt>
      <trkpt lat="44.39768" lon="6.29988">
        <ele>1223</ele>
        <time>2016-05-09T03:58:28Z</time>
      </trkpt>
      <trkpt lat="44.39773" lon="6.29982">
        <ele>1223</ele>
        <time>2016-05-09T04:00:28Z</time>
      </trkpt>
      <trkpt lat="44.39777" lon="6.29976">
        <ele>1224</ele>
        <time>2016-05-09T04:02:28Z</time>
      </trkpt>
      <trkpt lat="44.3978" lon="6.2997">
        <ele>1224</ele>
        <time>2016-05-09T04:04:28Z</time>
      </trkpt>
      <trkpt lat="44.39783" lon="6.29963">
        <ele>1224</ele>
        <time>2016-05-09T04:06:28Z</time>
      </trkpt>
      <trkpt lat="44.39786" lon="6.29956">
        <ele>1225</ele>
        <time>2016-05-09T04:08:28Z</time>
      </trkpt>
      <trkpt lat="44.39787" lon="6.2995">
        <ele>1225</ele>
        <time>2016-05-09T04:10:28Z</time>
      </trkpt>
      <trkpt lat="44.3979" lon="6.29923">
        <ele>1226</ele>
        <time>2016-05-09T04:12:28Z</time>
      </trkpt>
      <trkpt lat="44.39799" lon="6.29864">
        <ele>1228</ele>
        <time>2016-05-09T04:14:28Z</time>
      </trkpt>
      <trkpt lat="44.39802" lon="6.29842">
        <ele>1228</ele>
        <time>2016-05-09T04:16:28Z</time>
      </trkpt>
      <trkpt lat="44.39804" lon="6.29837">
        <ele>1228</ele>
        <time>2016-05-09T04:18:28Z</time>
      </trkpt>
      <trkpt lat="44.39806" lon="6.29833">
        <ele>1228</ele>
        <time>2016-05-09T04:20:28Z</time>
      </trkpt>
      <trkpt lat="44.3981" lon="6.29829">
        <ele>1228</ele>
        <time>2016-05-09T04:22:28Z</time>
      </trkpt>
      <trkpt lat="44.39813" lon="6.29827">
        <ele>1228</ele>
        <time>2016-05-09T04:24:28Z</time>
      </trkpt>
      <trkpt lat="44.39842" lon="6.29819">
        <ele>1226</ele>
        <time>2016-05-09T04:26:28Z</time>
      </trkpt>
      <trkpt lat="44.39869" lon="6.29815">
        <ele>1225</ele>
        <time>2016-05-09T04:28:28Z</time>
      </trkpt>
      <trkpt lat="44.39896" lon="6.29808">
        <ele>1224</ele>
        <time>2016-05-09T04:30:28Z</time>
      </trkpt>
      <trkpt lat="44.39907" lon="6.29804">
        <ele>1224</ele>
        <time>2016-05-09T04:32:28Z</time>
      </trkpt>
      <trkpt lat="44.39916" lon="6.29802">
        <ele>1223</ele>
        <time>2016-05-09T04:34:28Z</time>
      </trkpt>
      <trkpt lat="44.39928" lon="6.29801">
        <ele>1223</ele>
        <time>2016-05-09T04:36:28Z</time>
      </trkpt>
      <trkpt lat="44.3994" lon="6.29802">
        <ele>1223</ele>
        <time>2016-05-09T04:38:28Z</time>
      </trkpt>
      <trkpt lat="44.39951" lon="6.29804">
        <ele>1223</ele>
        <time>2016-05-09T04:40:28Z</time>
      </trkpt>
      <trkpt lat="44.39963" lon="6.29806">
        <ele>1223</ele>
        <time>2016-05-09T04:42:28Z</time>
      </trkpt>
      <trkpt lat="44.39987" lon="6.2981">
        <ele>1223</ele>
        <time>2016-05-09T04:44:28Z</time>
      </trkpt>
      <trkpt lat="44.40008" lon="6.29817">
        <ele>1222</ele>
        <time>2016-05-09T04:46:28Z</time>
      </trkpt>
      <trkpt lat="44.40029" lon="6.29828">
        <ele>1222</ele>
        <time>2016-05-09T04:48:28Z</time>
      </trkpt>
      <trkpt lat="44.40036" lon="6.29831">
        <ele>1222</ele>
        <time>2016-05-09T04:50:28Z</time>
      </trkpt>
      <trkpt lat="44.40044" lon="6.29833">
        <ele>1221</ele>
        <time>2016-05-09T04:52:28Z</time>
      </trkpt>
      <trkpt lat="44.40054" lon="6.29834">
        <ele>1221</ele>
        <time>2016-05-09T04:54:28Z</time>
      </trkpt>
      <trkpt lat="44.40064" lon="6.29833">
        <ele>1221</ele>
        <time>2016-05-09T04:56:28Z</time>
      </trkpt>
      <trkpt lat="44.40078" lon="6.29827">
        <ele>1220</ele>
        <time>2016-05-09T04:58:28Z</time>
      </trkpt>
      <trkpt lat="44.40089" lon="6.2982">
        <ele>1220</ele>
        <time>2016-05-09T05:00:28Z</time>
      </trkpt>
      <trkpt lat="44.40099" lon="6.29814">
        <ele>1220</ele>
        <time>2016-05-09T05:02:28Z</time>
      </trkpt>
      <trkpt lat="44.40128" lon="6.29791">
        <ele>1221</ele>
        <time>2016-05-09T05:04:28Z</time>
      </trkpt>
      <trkpt lat="44.40154" lon="6.29776">
        <ele>1222</ele>
        <time>2016-05-09T05:06:28Z</time>
      </trkpt>
      <trkpt lat="44.40176" lon="6.29765">
        <ele>1224</ele>
        <time>2016-05-09T05:08:28Z</time>
      </trkpt>
      <trkpt lat="44.40182" lon="6.2976">
        <ele>1225</ele>
        <time>2016-05-09T05:10:28Z</time>
      </trkpt>
      <trkpt lat="44.40187" lon="6.29753">
        <ele>1225</ele>
        <time>2016-05-09T05:12:28Z</time>
      </trkpt>
      <trkpt lat="44.40191" lon="6.29745">
        <ele>1226</ele>
        <time>2016-05-09T05:14:28Z</time>
      </trkpt>
      <trkpt lat="44.40206" lon="6.29717">
        <ele>1226</ele>
        <time>2016-05-09T05:16:28Z</time>
      </trkpt>
      <trkpt lat="44.40224" lon="6.29689">
        <ele>1226</ele>
        <time>2016-05-09T05:18:28Z</time>
      </trkpt>
      <trkpt lat="44.40247" lon="6.29657">
        <ele>1229</ele>
        <time>2016-05-09T05:20:28Z</time>
      </trkpt>
      <trkpt lat="44.40261" lon="6.29631">
        <ele>1233</ele>
        <time>2016-05-09T05:22:28Z</time>
      </trkpt>
      <trkpt lat="44.40265" lon="6.29621">
        <ele>1234</ele>
        <time>2016-05-09T05:24:28Z</time>
      </trkpt>
      <trkpt lat="44.40268" lon="6.29609">
        <ele>1235</ele>
        <time>2016-05-09T05:26:28Z</time>
      </trkpt>
      <trkpt lat="44.4027" lon="6.29597">
        <ele>1235</ele>
        <time>2016-05-09T05:28:28Z</time>
      </trkpt>
      <trkpt lat="44.40271" lon="6.29584">
        <ele>1236</ele>
        <time>2016-05-09T05:30:28Z</time>
      </trkpt>
      <trkpt lat="44.40271" lon="6.29576">
        <ele>1235</ele>
        <time>2016-05-09T05:32:28Z</time>
      </trkpt>
      <trkpt lat="44.40273" lon="6.29569">
        <ele>1235</ele>
        <time>2016-05-09T05:34:28Z</time>
      </trkpt>
      <trkpt lat="44.40276" lon="6.29561">
        <ele>1236</ele>
        <time>2016-05-09T05:36:28Z</time>
      </trkpt>
      <trkpt lat="44.4028" lon="6.29551">
        <ele>1236</ele>
        <time>2016-05-09T05:38:28Z</time>
      </trkpt>
      <trkpt lat="44.40298" lon="6.29534">
        <ele>1238</ele>
        <time>2016-05-09T05:40:28Z</time>
      </trkpt>
      <trkpt lat="44.40316" lon="6.29518">
        <ele>1240</ele>
        <time>2016-05-09T05:42:28Z</time>
      </trkpt>
      <trkpt lat="44.40363" lon="6.29481">
        <ele>1242</ele>
        <time>2016-05-09T05:44:28Z</time>
      </trkpt>
      <trkpt lat="44.40399" lon="6.29453">
        <ele>1241</ele>
        <time>2016-05-09T05:46:28Z</time>
      </trkpt>
      <trkpt lat="44.40427" lon="6.29434">
        <ele>1241</ele>
        <time>2016-05-09T05:48:28Z</time>
      </trkpt>
      <trkpt lat="44.40452" lon="6.29415">
        <ele>1242</ele>
        <time>2016-05-09T05:50:28Z</time>
      </trkpt>
      <trkpt lat="44.40456" lon="6.29413">
        <ele>1243</ele>
        <time>2016-05-09T05:52:28Z</time>
      </trkpt>
      <trkpt lat="44.40461" lon="6.29412">
        <ele>1243</ele>
        <time>2016-05-09T05:54:28Z</time>
      </trkpt>
      <trkpt lat="44.40465" lon="6.29411">
        <ele>1244</ele>
        <time>2016-05-09T05:56:28Z</time>
      </trkpt>
      <trkpt lat="44.4047" lon="6.29411">
        <ele>1245</ele>
        <time>2016-05-09T05:58:28Z</time>
      </trkpt>
      <trkpt lat="44.40474" lon="6.29412">
        <ele>1245</ele>
        <time>2016-05-09T06:00:28Z</time>
      </trkpt>
      <trkpt lat="44.4048" lon="6.29415">
        <ele>1246</ele>
        <time>2016-05-09T06:02:28Z</time>
      </trkpt>
      <trkpt lat="44.40491" lon="6.29421">
        <ele>1248</ele>
        <time>2016-05-09T06:04:28Z</time>
      </trkpt>
      <trkpt lat="44.40498" lon="6.29424">
        <ele>1250</ele>
        <time>2016-05-09T06:06:28Z</time>
      </trkpt>
      <trkpt lat="44.405" lon="6.29424">
        <ele>1250</ele>
        <time>2016-05-09T06:08:28Z</time>
      </trkpt>
      <trkpt lat="44.40502" lon="6.29424">
        <ele>1250</ele>
        <time>2016-05-09T06:10:28Z</time>
      </trkpt>
      <trkpt lat="44.40505" lon="6.29423">
        <ele>1251</ele>
        <time>2016-05-09T06:12:28Z</time>
      </trkpt>
      <trkpt lat="44.40508" lon="6.2942">
        <ele>1251</ele>
        <time>2016-05-09T06:14:28Z</time>
      </trkpt>
      <trkpt lat="44.40512" lon="6.29414">
        <ele>1251</ele>
        <time>2016-05-09T06:16:28Z</time>
      </trkpt>
      <trkpt lat="44.40513" lon="6.2941">
        <ele>1251</ele>
        <time>2016-05-09T06:18:28Z</time>
      </trkpt>
      <trkpt lat="44.40514" lon="6.29406">
        <ele>1251</ele>
        <time>2016-05-09T06:20:28Z</time>
      </trkpt>
      <trkpt lat="44.40514" lon="6.29399">
        <ele>1251</ele>
        <time>2016-05-09T06:22:28Z</time>
      </trkpt>
      <trkpt lat="44.40512" lon="6.29369">
        <ele>1250</ele>
        <time>2016-05-09T06:24:28Z</time>
      </trkpt>
      <trkpt lat="44.40512" lon="6.29363">
        <ele>1250</ele>
        <time>2016-05-09T06:26:28Z</time>
      </trkpt>
      <trkpt lat="44.40513" lon="6.29358">
        <ele>1250</ele>
        <time>2016-05-09T06:28:28Z</time>
      </trkpt>
      <trkpt lat="44.40515" lon="6.29351">
        <ele>1250</ele>
        <time>2016-05-09T06:30:28Z</time>
      </trkpt>
      <trkpt lat="44.40517" lon="6.29345">
        <ele>1251</ele>
        <time>2016-05-09T06:32:28Z</time>
      </trkpt>
      <trkpt lat="44.40519" lon="6.2934">
        <ele>1251</ele>
        <time>2016-05-09T06:34:28Z</time>
      </trkpt>
      <trkpt lat="44.40523" lon="6.29334">
        <ele>1251</ele>
        <time>2016-05-09T06:36:28Z</time>
      </trkpt>
      <trkpt lat="44.40528" lon="6.29329">
        <ele>1252</ele>
        <time>2016-05-09T06:38:28Z</time>
      </trkpt>
      <trkpt lat="44.40533" lon="6.29324">
        <ele>1253</ele>
        <time>2016-05-09T06:40:28Z</time>
      </trkpt>
      <trkpt lat="44.40539" lon="6.2932">
        <ele>1253</ele>
        <time>2016-05-09T06:42:28Z</time>
      </trkpt>
      <trkpt lat="44.40545" lon="6.29316">
        <ele>1254</ele>
        <time>2016-05-09T06:44:28Z</time>
      </trkpt>
      <trkpt lat="44.40552" lon="6.29313">
        <ele>1255</ele>
        <time>2016-05-09T06:46:28Z</time>
      </trkpt>
      <trkpt lat="44.40561" lon="6.2931">
        <ele>1256</ele>
        <time>2016-05-09T06:48:28Z</time>
      </trkpt>
      <trkpt lat="44.40568" lon="6.29306">
        <ele>1257</ele>
        <time>2016-05-09T06:50:28Z</time>
      </trkpt>
      <trkpt lat="44.40573" lon="6.29302">
        <ele>1258</ele>
        <time>2016-05-09T06:52:28Z</time>
      </trkpt>
      <trkpt lat="44.40577" lon="6.29297">
        <ele>1258</ele>
        <time>2016-05-09T06:54:28Z</time>
      </trkpt>
      <trkpt lat="44.4058" lon="6.29292">
        <ele>1258</ele>
        <time>2016-05-09T06:56:28Z</time>
      </trkpt>
      <trkpt lat="44.40629" lon="6.29202">
        <ele>1265</ele>
        <time>2016-05-09T06:58:28Z</time>
      </trkpt>
      <trkpt lat="44.40632" lon="6.29193">
        <ele>1266</ele>
        <time>2016-05-09T07:00:28Z</time>
      </trkpt>
      <trkpt lat="44.40634" lon="6.29185">
        <ele>1266</ele>
        <time>2016-05-09T07:02:28Z</time>
      </trkpt>
      <trkpt lat="44.40635" lon="6.29177">
        <ele>1266</ele>
        <time>2016-05-09T07:04:28Z</time>
      </trkpt>
      <trkpt lat="44.40635" lon="6.29169">
        <ele>1266</ele>
        <time>2016-05-09T07:06:28Z</time>
      </trkpt>
      <trkpt lat="44.40635" lon="6.2915">
        <ele>1268</ele>
        <time>2016-05-09T07:08:28Z</time>
      </trkpt>
      <trkpt lat="44.40634" lon="6.29139">
        <ele>1269</ele>
        <time>2016-05-09T07:10:28Z</time>
      </trkpt>
      <trkpt lat="44.40632" lon="6.29127">
        <ele>1271</ele>
        <time>2016-05-09T07:12:28Z</time>
      </trkpt>
      <trkpt lat="44.40629" lon="6.29116">
        <ele>1271</ele>
        <time>2016-05-09T07:14:28Z</time>
      </trkpt>
      <trkpt lat="44.40615" lon="6.29082">
        <ele>1273</ele>
        <time>2016-05-09T07:16:28Z</time>
      </trkpt>
      <trkpt lat="44.40599" lon="6.2905">
        <ele>1276</ele>
        <time>2016-05-09T07:18:28Z</time>
      </trkpt>
      <trkpt lat="44.40585" lon="6.29024">
        <ele>1278</ele>
        <time>2016-05-09T07:20:28Z</time>
      </trkpt>
      <trkpt lat="44.40571" lon="6.29006">
        <ele>1279</ele>
        <time>2016-05-09T07:22:28Z</time>
      </trkpt>
      <trkpt lat="44.40565" lon="6.29001">
        <ele>1280</ele>
        <time>2016-05-09T07:24:28Z</time>
      </trkpt>
      <trkpt lat="44.40558" lon="6.28995">
        <ele>1280</ele>
        <time>2016-05-09T07:26:28Z</time>
      </trkpt>
      <trkpt lat="44.40552" lon="6.28992">
        <ele>1280</ele>
        <time>2016-05-09T07:28:28Z</time>
      </trkpt>
      <trkpt lat="44.40529" lon="6.28986">
        <ele>1280</ele>
        <time>2016-05-09T07:30:28Z</time>
      </trkpt>
      <trkpt lat="44.40525" lon="6.28984">
        <ele>1280</ele>
        <time>2016-05-09T07:32:28Z</time>
      </trkpt>
      <trkpt lat="44.40522" lon="6.2898">
        <ele>1281</ele>
        <time>2016-05-09T07:34:28Z</time>
      </trkpt>
      <trkpt lat="44.4052" lon="6.28977">
        <ele>1281</ele>
        <time>2016-05-09T07:36:28Z</time>
      </trkpt>
      <trkpt lat="44.40519" lon="6.28974">
        <ele>1281</ele>
        <time>2016-05-09T07:38:28Z</time>
      </trkpt>
      <trkpt lat="44.40518" lon="6.2897">
        <ele>1282</ele>
        <time>2016-05-09T07:40:28Z</time>
      </trkpt>
      <trkpt lat="44.40519" lon="6.28966">
        <ele>1283</ele>
        <time>2016-05-09T07:42:28Z</time>
      </trkpt>
      <trkpt lat="44.4052" lon="6.28962">
        <ele>1283</ele>
        <time>2016-05-09T07:44:28Z</time>
      </trkpt>
      <trkpt lat="44.40521" lon="6.2896">
        <ele>1284</ele>
        <time>2016-05-09T07:46:28Z</time>
      </trkpt>
      <trkpt lat="44.40523" lon="6.28958">
        <ele>1284</ele>
        <time>2016-05-09T07:48:28Z</time>
      </trkpt>
      <trkpt lat="44.40526" lon="6.28956">
        <ele>1285</ele>
        <time>2016-05-09T07:50:28Z</time>
      </trkpt>
      <trkpt lat="44.4053" lon="6.28954">
        <ele>1285</ele>
        <time>2016-05-09T07:52:28Z</time>
      </trkpt>
      <trkpt lat="44.40533" lon="6.28954">
        <ele>1285</ele>
        <time>2016-05-09T07:54:28Z</time>
      </trkpt>
      <trkpt lat="44.40538" lon="6.28956">
        <ele>1285</ele>
        <time>2016-05-09T07:56:28Z</time>
      </trkpt>
      <trkpt lat="44.40549" lon="6.28958">
        <ele>1285</ele>
        <time>2016-05-09T07:58:28Z</time>
      </trkpt>
      <trkpt lat="44.40561" lon="6.28962">
        <ele>1285</ele>
        <time>2016-05-09T08:00:28Z</time>
      </trkpt>
      <trkpt lat="44.40587" lon="6.28962">
        <ele>1287</ele>
        <time>2016-05-09T08:02:28Z</time>
      </trkpt>
      <trkpt lat="44.40593" lon="6.28964">
        <ele>1288</ele>
        <time>2016-05-09T08:04:28Z</time>
      </trkpt>
      <trkpt lat="44.406" lon="6.28966">
        <ele>1288</ele>
        <time>2016-05-09T08:06:28Z</time>
      </trkpt>
      <trkpt lat="44.40606" lon="6.2897">
        <ele>1289</ele>
        <time>2016-05-09T08:08:28Z</time>
      </trkpt>
      <trkpt lat="44.40626" lon="6.2899">
        <ele>1290</ele>
        <time>2016-05-09T08:10:28Z</time>
      </trkpt>
      <trkpt lat="44.40648" lon="6.29012">
        <ele>1291</ele>
        <time>2016-05-09T08:12:28Z</time>
      </trkpt>
      <trkpt lat="44.40678" lon="6.29034">
        <ele>1292</ele>
        <time>2016-05-09T08:14:28Z</time>
      </trkpt>
      <trkpt lat="44.40709" lon="6.29056">
        <ele>1294</ele>
        <time>2016-05-09T08:16:28Z</time>
      </trkpt>
      <trkpt lat="44.40742" lon="6.29075">
        <ele>1298</ele>
        <time>2016-05-09T08:18:28Z</time>
      </trkpt>
      <trkpt lat="44.40748" lon="6.29077">
        <ele>1299</ele>
        <time>2016-05-09T08:20:28Z</time>
      </trkpt>
      <trkpt lat="44.40754" lon="6.29078">
        <ele>1300</ele>
        <time>2016-05-09T08:22:28Z</time>
      </trkpt>
      <trkpt lat="44.4076" lon="6.29078">
        <ele>1301</ele>
        <time>2016-05-09T08:24:28Z</time>
      </trkpt>
      <trkpt lat="44.40766" lon="6.29077">
        <ele>1302</ele>
        <time>2016-05-09T08:26:28Z</time>
      </trkpt>
      <trkpt lat="44.40795" lon="6.29065">
        <ele>1306</ele>
        <time>2016-05-09T08:28:28Z</time>
      </trkpt>
      <trkpt lat="44.40824" lon="6.29055">
        <ele>1309</ele>
        <time>2016-05-09T08:30:28Z</time>
      </trkpt>
      <trkpt lat="44.40829" lon="6.29055">
        <ele>1310</ele>
        <time>2016-05-09T08:32:28Z</time>
      </trkpt>
      <trkpt lat="44.40834" lon="6.29056">
        <ele>1310</ele>
        <time>2016-05-09T08:34:28Z</time>
      </trkpt>
      <trkpt lat="44.40839" lon="6.29058">
        <ele>1311</ele>
        <time>2016-05-09T08:36:28Z</time>
      </trkpt>
      <trkpt lat="44.40844" lon="6.29061">
        <ele>1312</ele>
        <time>2016-05-09T08:38:28Z</time>
      </trkpt>
      <trkpt lat="44.40849" lon="6.29066">
        <ele>1313</ele>
        <time>2016-05-09T08:40:28Z</time>
      </trkpt>
      <trkpt lat="44.40859" lon="6.2908">
        <ele>1315</ele>
        <time>2016-05-09T08:42:28Z</time>
      </trkpt>
      <trkpt lat="44.40866" lon="6.2909">
        <ele>1316</ele>
        <time>2016-05-09T08:44:28Z</time>
      </trkpt>
      <trkpt lat="44.40873" lon="6.29101">
        <ele>1317</ele>
        <time>2016-05-09T08:46:28Z</time>
      </trkpt>
      <trkpt lat="44.40878" lon="6.29113">
        <ele>1317</ele>
        <time>2016-05-09T08:48:28Z</time>
      </trkpt>
      <trkpt lat="44.40881" lon="6.29121">
        <ele>1317</ele>
        <time>2016-05-09T08:50:28Z</time>
      </trkpt>
      <trkpt lat="44.40884" lon="6.29129">
        <ele>1317</ele>
        <time>2016-05-09T08:52:28Z</time>
      </trkpt>
      <trkpt lat="44.40893" lon="6.29145">
        <ele>1318</ele>
        <time>2016-05-09T08:54:28Z</time>
      </trkpt>
      <trkpt lat="44.40897" lon="6.29155">
        <ele>1318</ele>
        <time>2016-05-09T08:56:28Z</time>
      </trkpt>
      <trkpt lat="44.40913" lon="6.292">
        <ele>1319</ele>
        <time>2016-05-09T08:58:28Z</time>
      </trkpt>
      <trkpt lat="44.40918" lon="6.29208">
        <ele>1320</ele>
        <time>2016-05-09T09:00:28Z</time>
      </trkpt>
      <trkpt lat="44.40922" lon="6.29212">
        <ele>1319</ele>
        <time>2016-05-09T09:02:28Z</time>
      </trkpt>
      <trkpt lat="44.40923" lon="6.29213">
        <ele>1319</ele>
        <time>2016-05-09T09:04:28Z</time>
      </trkpt>
      <trkpt lat="44.40926" lon="6.29217">
        <ele>1319</ele>
        <time>2016-05-09T09:06:28Z</time>
      </trkpt>
      <trkpt lat="44.40929" lon="6.2922">
        <ele>1319</ele>
        <time>2016-05-09T09:08:28Z</time>
      </trkpt>
      <trkpt lat="44.40933" lon="6.29221">
        <ele>1319</ele>
        <time>2016-05-09T09:10:28Z</time>
      </trkpt>
      <trkpt lat="44.40936" lon="6.2922">
        <ele>1319</ele>
        <time>2016-05-09T09:12:28Z</time>
      </trkpt>
      <trkpt lat="44.40941" lon="6.29217">
        <ele>1319</ele>
        <time>2016-05-09T09:14:28Z</time>
      </trkpt>
      <trkpt lat="44.40945" lon="6.29213">
        <ele>1320</ele>
        <time>2016-05-09T09:16:28Z</time>
      </trkpt>
      <trkpt lat="44.4095" lon="6.2921">
        <ele>1320</ele>
        <time>2016-05-09T09:18:28Z</time>
      </trkpt>
      <trkpt lat="44.40956" lon="6.29208">
        <ele>1320</ele>
        <time>2016-05-09T09:20:28Z</time>
      </trkpt>
      <trkpt lat="44.40964" lon="6.29207">
        <ele>1320</ele>
        <time>2016-05-09T09:22:28Z</time>
      </trkpt>
      <trkpt lat="44.40972" lon="6.29207">
        <ele>1320</ele>
        <time>2016-05-09T09:24:28Z</time>
      </trkpt>
      <trkpt lat="44.4098" lon="6.2921">
        <ele>1320</ele>
        <time>2016-05-09T09:26:28Z</time>
      </trkpt>
      <trkpt lat="44.40994" lon="6.29217">
        <ele>1321</ele>
        <time>2016-05-09T09:28:28Z</time>
      </trkpt>
      <trkpt lat="44.41005" lon="6.29224">
        <ele>1320</ele>
        <time>2016-05-09T09:30:28Z</time>
      </trkpt>
      <trkpt lat="44.41022" lon="6.29234">
        <ele>1319</ele>
        <time>2016-05-09T09:32:28Z</time>
      </trkpt>
      <trkpt lat="44.41049" lon="6.2925">
        <ele>1317</ele>
        <time>2016-05-09T09:34:28Z</time>
      </trkpt>
      <trkpt lat="44.41074" lon="6.29257">
        <ele>1315</ele>
        <time>2016-05-09T09:36:28Z</time>
      </trkpt>
      <trkpt lat="44.41093" lon="6.29266">
        <ele>1313</ele>
        <time>2016-05-09T09:38:28Z</time>
      </trkpt>
      <trkpt lat="44.41115" lon="6.29278">
        <ele>1310</ele>
        <time>2016-05-09T09:40:28Z</time>
      </trkpt>
      <trkpt lat="44.4112" lon="6.2928">
        <ele>1309</ele>
        <time>2016-05-09T09:42:28Z</time>
      </trkpt>
      <trkpt lat="44.41126" lon="6.29285">
        <ele>1308</ele>
        <time>2016-05-09T09:44:28Z</time>
      </trkpt>
      <trkpt lat="44.41133" lon="6.29293">
        <ele>1308</ele>
        <time>2016-05-09T09:46:28Z</time>
      </trkpt>
      <trkpt lat="44.41138" lon="6.29299">
        <ele>1307</ele>
        <time>2016-05-09T09:48:28Z</time>
      </trkpt>
      <trkpt lat="44.41154" lon="6.29322">
        <ele>1306</ele>
        <time>2016-05-09T09:50:28Z</time>
      </trkpt>
      <trkpt lat="44.41181" lon="6.29348">
        <ele>1302</ele>
        <time>2016-05-09T09:52:28Z</time>
      </trkpt>
      <trkpt lat="44.41198" lon="6.29371">
        <ele>1300</ele>
        <time>2016-05-09T09:54:28Z</time>
      </trkpt>
      <trkpt lat="44.41209" lon="6.29389">
        <ele>1299</ele>
        <time>2016-05-09T09:56:28Z</time>
      </trkpt>
      <trkpt lat="44.41226" lon="6.29404">
        <ele>1297</ele>
        <time>2016-05-09T09:58:28Z</time>
      </trkpt>
      <trkpt lat="44.41248" lon="6.29419">
        <ele>1293</ele>
        <time>2016-05-09T10:00:28Z</time>
      </trkpt>
      <trkpt lat="44.41252" lon="6.29423">
        <ele>1293</ele>
        <time>2016-05-09T10:02:28Z</time>
      </trkpt>
      <trkpt lat="44.41256" lon="6.29427">
        <ele>1292</ele>
        <time>2016-05-09T10:04:28Z</time>
      </trkpt>
      <trkpt lat="44.41261" lon="6.29437">
        <ele>1291</ele>
        <time>2016-05-09T10:06:28Z</time>
      </trkpt>
      <trkpt lat="44.41264" lon="6.29443">
        <ele>1291</ele>
        <time>2016-05-09T10:08:28Z</time>
      </trkpt>
      <trkpt lat="44.41266" lon="6.29452">
        <ele>1290</ele>
        <time>2016-05-09T10:10:28Z</time>
      </trkpt>
      <trkpt lat="44.41266" lon="6.29492">
        <ele>1290</ele>
        <time>2016-05-09T10:12:28Z</time>
      </trkpt>
      <trkpt lat="44.41268" lon="6.29506">
        <ele>1290</ele>
        <time>2016-05-09T10:14:28Z</time>
      </trkpt>
      <trkpt lat="44.4127" lon="6.29518">
        <ele>1289</ele>
        <time>2016-05-09T10:16:28Z</time>
      </trkpt>
      <trkpt lat="44.41277" lon="6.29535">
        <ele>1288</ele>
        <time>2016-05-09T10:18:28Z</time>
      </trkpt>
      <trkpt lat="44.4128" lon="6.29546">
        <ele>1288</ele>
        <time>2016-05-09T10:20:28Z</time>
      </trkpt>
      <trkpt lat="44.41283" lon="6.29555">
        <ele>1288</ele>
        <time>2016-05-09T10:22:28Z</time>
      </trkpt>
      <trkpt lat="44.41284" lon="6.29567">
        <ele>1288</ele>
        <time>2016-05-09T10:24:28Z</time>
      </trkpt>
      <trkpt lat="44.41283" lon="6.29577">
        <ele>1288</ele>
        <time>2016-05-09T10:26:28Z</time>
      </trkpt>
      <trkpt lat="44.4128" lon="6.29588">
        <ele>1288</ele>
        <time>2016-05-09T10:28:28Z</time>
      </trkpt>
      <trkpt lat="44.41274" lon="6.29597">
        <ele>1289</ele>
        <time>2016-05-09T10:30:28Z</time>
      </trkpt>
      <trkpt lat="44.41268" lon="6.29604">
        <ele>1290</ele>
        <time>2016-05-09T10:32:28Z</time>
      </trkpt>
      <trkpt lat="44.41264" lon="6.2961">
        <ele>1291</ele>
        <time>2016-05-09T10:34:28Z</time>
      </trkpt>
      <trkpt lat="44.4126" lon="6.29618">
        <ele>1292</ele>
        <time>2016-05-09T10:36:28Z</time>
      </trkpt>
      <trkpt lat="44.41258" lon="6.29625">
        <ele>1292</ele>
        <time>2016-05-09T10:38:28Z</time>
      </trkpt>
      <trkpt lat="44.41257" lon="6.2963">
        <ele>1292</ele>
        <time>2016-05-09T10:40:28Z</time>
      </trkpt>
      <trkpt lat="44.41257" lon="6.29634">
        <ele>1292</ele>
        <time>2016-05-09T10:42:28Z</time>
      </trkpt>
      <trkpt lat="44.41257" lon="6.29638">
        <ele>1292</ele>
        <time>2016-05-09T10:44:28Z</time>
      </trkpt>
      <trkpt lat="44.41258" lon="6.29644">
        <ele>1292</ele>
        <time>2016-05-09T10:46:28Z</time>
      </trkpt>
      <trkpt lat="44.41261" lon="6.29652">
        <ele>1292</ele>
        <time>2016-05-09T10:48:28Z</time>
      </trkpt>
      <trkpt lat="44.41265" lon="6.29659">
        <ele>1292</ele>
        <time>2016-05-09T10:50:28Z</time>
      </trkpt>
      <trkpt lat="44.41269" lon="6.29663">
        <ele>1291</ele>
        <time>2016-05-09T10:52:28Z</time>
      </trkpt>
      <trkpt lat="44.41274" lon="6.29667">
        <ele>1291</ele>
        <time>2016-05-09T10:54:28Z</time>
      </trkpt>
      <trkpt lat="44.41288" lon="6.29672">
        <ele>1290</ele>
        <time>2016-05-09T10:56:28Z</time>
      </trkpt>
      <trkpt lat="44.41296" lon="6.29674">
        <ele>1289</ele>
        <time>2016-05-09T10:58:28Z</time>
      </trkpt>
      <trkpt lat="44.41304" lon="6.29676">
        <ele>1289</ele>
        <time>2016-05-09T11:00:28Z</time>
      </trkpt>
      <trkpt lat="44.41311" lon="6.2968">
        <ele>1289</ele>
        <time>2016-05-09T11:02:28Z</time>
      </trkpt>
      <trkpt lat="44.41324" lon="6.29689">
        <ele>1289</ele>
        <time>2016-05-09T11:04:28Z</time>
      </trkpt>
      <trkpt lat="44.41337" lon="6.29695">
        <ele>1288</ele>
        <time>2016-05-09T11:06:28Z</time>
      </trkpt>
      <trkpt lat="44.41353" lon="6.29701">
        <ele>1287</ele>
        <time>2016-05-09T11:08:28Z</time>
      </trkpt>
      <trkpt lat="44.4136" lon="6.29703">
        <ele>1286</ele>
        <time>2016-05-09T11:10:28Z</time>
      </trkpt>
      <trkpt lat="44.41364" lon="6.29704">
        <ele>1286</ele>
        <time>2016-05-09T11:12:28Z</time>
      </trkpt>
      <trkpt lat="44.41369" lon="6.29707">
        <ele>1286</ele>
        <time>2016-05-09T11:14:28Z</time>
      </trkpt>
      <trkpt lat="44.41372" lon="6.29709">
        <ele>1286</ele>
        <time>2016-05-09T11:16:28Z</time>
      </trkpt>
      <trkpt lat="44.41377" lon="6.29709">
        <ele>1285</ele>
        <time>2016-05-09T11:18:28Z</time>
      </trkpt>
      <trkpt lat="44.41382" lon="6.29711">
        <ele>1284</ele>
        <time>2016-05-09T11:20:28Z</time>
      </trkpt>
      <trkpt lat="44.41388" lon="6.29714">
        <ele>1284</ele>
        <time>2016-05-09T11:22:28Z</time>
      </trkpt>
      <trkpt lat="44.41401" lon="6.29719">
        <ele>1283</ele>
        <time>2016-05-09T11:24:28Z</time>
      </trkpt>
      <trkpt lat="44.41411" lon="6.2972">
        <ele>1282</ele>
        <time>2016-05-09T11:26:28Z</time>
      </trkpt>
      <trkpt lat="44.4142" lon="6.29719">
        <ele>1281</ele>
        <time>2016-05-09T11:28:28Z</time>
      </trkpt>
      <trkpt lat="44.4143" lon="6.29714">
        <ele>1279</ele>
        <time>2016-05-09T11:30:28Z</time>
      </trkpt>
      <trkpt lat="44.4144" lon="6.29708">
        <ele>1277</ele>
        <time>2016-05-09T11:32:28Z</time>
      </trkpt>
      <trkpt lat="44.41447" lon="6.29706">
        <ele>1277</ele>
        <time>2016-05-09T11:34:28Z</time>
      </trkpt>
      <trkpt lat="44.41451" lon="6.29706">
        <ele>1276</ele>
        <time>2016-05-09T11:36:28Z</time>
      </trkpt>
      <trkpt lat="44.41454" lon="6.29708">
        <ele>1276</ele>
        <time>2016-05-09T11:38:28Z</time>
      </trkpt>
      <trkpt lat="44.41458" lon="6.29709">
        <ele>1276</ele>
        <time>2016-05-09T11:40:28Z</time>
      </trkpt>
      <trkpt lat="44.41461" lon="6.29713">
        <ele>1277</ele>
        <time>2016-05-09T11:42:28Z</time>
      </trkpt>
      <trkpt lat="44.41466" lon="6.29714">
        <ele>1277</ele>
        <time>2016-05-09T11:44:28Z</time>
      </trkpt>
      <trkpt lat="44.4147" lon="6.29715">
        <ele>1277</ele>
        <time>2016-05-09T11:46:28Z</time>
      </trkpt>
      <trkpt lat="44.41476" lon="6.29716">
        <ele>1277</ele>
        <time>2016-05-09T11:48:28Z</time>
      </trkpt>
      <trkpt lat="44.41481" lon="6.29715">
        <ele>1276</ele>
        <time>2016-05-09T11:50:28Z</time>
      </trkpt>
      <trkpt lat="44.41483" lon="6.29714">
        <ele>1276</ele>
        <time>2016-05-09T11:52:28Z</time>
      </trkpt>
      <trkpt lat="44.41487" lon="6.29711">
        <ele>1275</ele>
        <time>2016-05-09T11:54:28Z</time>
      </trkpt>
      <trkpt lat="44.41492" lon="6.2971">
        <ele>1274</ele>
        <time>2016-05-09T11:56:28Z</time>
      </trkpt>
      <trkpt lat="44.41496" lon="6.29711">
        <ele>1274</ele>
        <time>2016-05-09T11:58:28Z</time>
      </trkpt>
      <trkpt lat="44.41502" lon="6.29713">
        <ele>1275</ele>
        <time>2016-05-09T12:00:28Z</time>
      </trkpt>
      <trkpt lat="44.41504" lon="6.29713">
        <ele>1275</ele>
        <time>2016-05-09T12:02:28Z</time>
      </trkpt>
      <trkpt lat="44.41508" lon="6.29712">
        <ele>1275</ele>
        <time>2016-05-09T12:04:28Z</time>
      </trkpt>
      <trkpt lat="44.41511" lon="6.29712">
        <ele>1275</ele>
        <time>2016-05-09T12:06:28Z</time>
      </trkpt>
      <trkpt lat="44.41516" lon="6.29711">
        <ele>1276</ele>
        <time>2016-05-09T12:08:28Z</time>
      </trkpt>
      <trkpt lat="44.41531" lon="6.29696">
        <ele>1274</ele>
        <time>2016-05-09T12:10:28Z</time>
      </trkpt>
      <trkpt lat="44.41538" lon="6.2969">
        <ele>1273</ele>
        <time>2016-05-09T12:12:28Z</time>
      </trkpt>
      <trkpt lat="44.41543" lon="6.29687">
        <ele>1273</ele>
        <time>2016-05-09T12:14:28Z</time>
      </trkpt>
      <trkpt lat="44.41555" lon="6.29682">
        <ele>1272</ele>
        <time>2016-05-09T12:16:28Z</time>
      </trkpt>
      <trkpt lat="44.4156" lon="6.29679">
        <ele>1272</ele>
        <time>2016-05-09T12:18:28Z</time>
      </trkpt>
      <trkpt lat="44.41567" lon="6.29677">
        <ele>1272</ele>
        <time>2016-05-09T12:20:28Z</time>
      </trkpt>
      <trkpt lat="44.41576" lon="6.29673">
        <ele>1271</ele>
        <time>2016-05-09T12:22:28Z</time>
      </trkpt>
      <trkpt lat="44.41588" lon="6.2967">
        <ele>1272</ele>
        <time>2016-05-09T12:24:28Z</time>
      </trkpt>
      <trkpt lat="44.41594" lon="6.29669">
        <ele>1272</ele>
        <time>2016-05-09T12:26:28Z</time>
      </trkpt>
      <trkpt lat="44.41598" lon="6.29666">
        <ele>1272</ele>
        <time>2016-05-09T12:28:28Z</time>
      </trkpt>
      <trkpt lat="44.41605" lon="6.29661">
        <ele>1272</ele>
        <time>2016-05-09T12:30:28Z</time>
      </trkpt>
      <trkpt lat="44.41633" lon="6.29635">
        <ele>1269</ele>
        <time>2016-05-09T12:32:28Z</time>
      </trkpt>
      <trkpt lat="44.41646" lon="6.2962">
        <ele>1267</ele>
        <time>2016-05-09T12:34:28Z</time>
      </trkpt>
      <trkpt lat="44.41667" lon="6.29598">
        <ele>1262</ele>
        <time>2016-05-09T12:36:28Z</time>
      </trkpt>
      <trkpt lat="44.41686" lon="6.29589">
        <ele>1263</ele>
        <time>2016-05-09T12:38:28Z</time>
      </trkpt>
      <trkpt lat="44.41705" lon="6.29578">
        <ele>1263</ele>
        <time>2016-05-09T12:40:28Z</time>
      </trkpt>
      <trkpt lat="44.41719" lon="6.29567">
        <ele>1263</ele>
        <time>2016-05-09T12:42:28Z</time>
      </trkpt>
      <trkpt lat="44.41734" lon="6.29554">
        <ele>1261</ele>
        <time>2016-05-09T12:44:28Z</time>
      </trkpt>
      <trkpt lat="44.41743" lon="6.29546">
        <ele>1261</ele>
        <time>2016-05-09T12:46:28Z</time>
      </trkpt>
      <trkpt lat="44.41747" lon="6.29543">
        <ele>1260</ele>
        <time>2016-05-09T12:48:28Z</time>
      </trkpt>
      <trkpt lat="44.41754" lon="6.29539">
        <ele>1260</ele>
        <time>2016-05-09T12:50:28Z</time>
      </trkpt>
      <trkpt lat="44.41762" lon="6.29535">
        <ele>1259</ele>
        <time>2016-05-09T12:52:28Z</time>
      </trkpt>
      <trkpt lat="44.41772" lon="6.29532">
        <ele>1258</ele>
        <time>2016-05-09T12:54:28Z</time>
      </trkpt>
      <trkpt lat="44.41788" lon="6.29531">
        <ele>1257</ele>
        <time>2016-05-09T12:56:28Z</time>
      </trkpt>
      <trkpt lat="44.41801" lon="6.2953">
        <ele>1257</ele>
        <time>2016-05-09T12:58:28Z</time>
      </trkpt>
      <trkpt lat="44.41811" lon="6.29531">
        <ele>1257</ele>
        <time>2016-05-09T13:00:28Z</time>
      </trkpt>
      <trkpt lat="44.41826" lon="6.29528">
        <ele>1256</ele>
        <time>2016-05-09T13:02:28Z</time>
      </trkpt>
      <trkpt lat="44.41834" lon="6.29527">
        <ele>1256</ele>
        <time>2016-05-09T13:04:28Z</time>
      </trkpt>
      <trkpt lat="44.41842" lon="6.29527">
        <ele>1255</ele>
        <time>2016-05-09T13:06:28Z</time>
      </trkpt>
      <trkpt lat="44.41851" lon="6.29529">
        <ele>1254</ele>
        <time>2016-05-09T13:08:28Z</time>
      </trkpt>
      <trkpt lat="44.41859" lon="6.29531">
        <ele>1254</ele>
        <time>2016-05-09T13:10:28Z</time>
      </trkpt>
      <trkpt lat="44.41867" lon="6.29535">
        <ele>1253</ele>
        <time>2016-05-09T13:12:28Z</time>
      </trkpt>
      <trkpt lat="44.41898" lon="6.2955">
        <ele>1252</ele>
        <time>2016-05-09T13:14:28Z</time>
      </trkpt>
      <trkpt lat="44.41919" lon="6.29557">
        <ele>1250</ele>
        <time>2016-05-09T13:16:28Z</time>
      </trkpt>
      <trkpt lat="44.41921" lon="6.29558">
        <ele>1249</ele>
        <time>2016-05-09T13:18:28Z</time>
      </trkpt>
      <trkpt lat="44.41929" lon="6.29564">
        <ele>1249</ele>
        <time>2016-05-09T13:20:28Z</time>
      </trkpt>
      <trkpt lat="44.41936" lon="6.29575">
        <ele>1249</ele>
        <time>2016-05-09T13:22:28Z</time>
      </trkpt>
      <trkpt lat="44.4194" lon="6.29583">
        <ele>1249</ele>
        <time>2016-05-09T13:24:28Z</time>
      </trkpt>
      <trkpt lat="44.41945" lon="6.29593">
        <ele>1250</ele>
        <time>2016-05-09T13:26:28Z</time>
      </trkpt>
      <trkpt lat="44.41949" lon="6.29602">
        <ele>1251</ele>
        <time>2016-05-09T13:28:28Z</time>
      </trkpt>
      <trkpt lat="44.41955" lon="6.29609">
        <ele>1251</ele>
        <time>2016-05-09T13:30:28Z</time>
      </trkpt>
      <trkpt lat="44.4196" lon="6.29615">
        <ele>1251</ele>
        <time>2016-05-09T13:32:28Z</time>
      </trkpt>
      <trkpt lat="44.41965" lon="6.29619">
        <ele>1251</ele>
        <time>2016-05-09T13:34:28Z</time>
      </trkpt>
      <trkpt lat="44.4197" lon="6.29623">
        <ele>1250</ele>
        <time>2016-05-09T13:36:28Z</time>
      </trkpt>
      <trkpt lat="44.42" lon="6.29636">
        <ele>1246</ele>
        <time>2016-05-09T13:38:28Z</time>
      </trkpt>
      <trkpt lat="44.42007" lon="6.29637">
        <ele>1245</ele>
        <time>2016-05-09T13:40:28Z</time>
      </trkpt>
      <trkpt lat="44.42015" lon="6.29638">
        <ele>1244</ele>
        <time>2016-05-09T13:42:28Z</time>
      </trkpt>
      <trkpt lat="44.42021" lon="6.29638">
        <ele>1244</ele>
        <time>2016-05-09T13:44:28Z</time>
      </trkpt>
      <trkpt lat="44.42036" lon="6.29636">
        <ele>1242</ele>
        <time>2016-05-09T13:46:28Z</time>
      </trkpt>
      <trkpt lat="44.42048" lon="6.29636">
        <ele>1240</ele>
        <time>2016-05-09T13:48:28Z</time>
      </trkpt>
      <trkpt lat="44.42068" lon="6.2964">
        <ele>1239</ele>
        <time>2016-05-09T13:50:28Z</time>
      </trkpt>
      <trkpt lat="44.42094" lon="6.29645">
        <ele>1237</ele>
        <time>2016-05-09T13:52:28Z</time>
      </trkpt>
      <trkpt lat="44.42151" lon="6.29645">
        <ele>1232</ele>
        <time>2016-05-09T13:54:28Z</time>
      </trkpt>
      <trkpt lat="44.42158" lon="6.29645">
        <ele>1232</ele>
        <time>2016-05-09T13:56:28Z</time>
      </trkpt>
      <trkpt lat="44.42165" lon="6.29642">
        <ele>1230</ele>
        <time>2016-05-09T13:58:28Z</time>
      </trkpt>
      <trkpt lat="44.42171" lon="6.29639">
        <ele>1229</ele>
        <time>2016-05-09T14:00:28Z</time>
      </trkpt>
      <trkpt lat="44.42184" lon="6.29629">
        <ele>1227</ele>
        <time>2016-05-09T14:02:28Z</time>
      </trkpt>
      <trkpt lat="44.42192" lon="6.29625">
        <ele>1227</ele>
        <time>2016-05-09T14:04:28Z</time>
      </trkpt>
      <trkpt lat="44.42201" lon="6.29621">
        <ele>1226</ele>
        <time>2016-05-09T14:06:28Z</time>
      </trkpt>
      <trkpt lat="44.42205" lon="6.29619">
        <ele>1226</ele>
        <time>2016-05-09T14:08:28Z</time>
      </trkpt>
      <trkpt lat="44.4221" lon="6.29614">
        <ele>1225</ele>
        <time>2016-05-09T14:10:28Z</time>
      </trkpt>
      <trkpt lat="44.42214" lon="6.29607">
        <ele>1223</ele>
        <time>2016-05-09T14:12:28Z</time>
      </trkpt>
      <trkpt lat="44.42217" lon="6.29601">
        <ele>1222</ele>
        <time>2016-05-09T14:14:28Z</time>
      </trkpt>
      <trkpt lat="44.42219" lon="6.29595">
        <ele>1221</ele>
        <time>2016-05-09T14:16:28Z</time>
      </trkpt>
      <trkpt lat="44.42228" lon="6.29571">
        <ele>1216</ele>
        <time>2016-05-09T14:18:28Z</time>
      </trkpt>
      <trkpt lat="44.42235" lon="6.29558">
        <ele>1214</ele>
        <time>2016-05-09T14:20:28Z</time>
      </trkpt>
      <trkpt lat="44.42242" lon="6.29549">
        <ele>1213</ele>
        <time>2016-05-09T14:22:28Z</time>
      </trkpt>
      <trkpt lat="44.4225" lon="6.2954">
        <ele>1211</ele>
        <time>2016-05-09T14:24:28Z</time>
      </trkpt>
      <trkpt lat="44.42255" lon="6.29536">
        <ele>1210</ele>
        <time>2016-05-09T14:26:28Z</time>
      </trkpt>
      <trkpt lat="44.42261" lon="6.29534">
        <ele>1209</ele>
        <time>2016-05-09T14:28:28Z</time>
      </trkpt>
      <trkpt lat="44.42268" lon="6.29534">
        <ele>1208</ele>
        <time>2016-05-09T14:30:28Z</time>
      </trkpt>
      <trkpt lat="44.42275" lon="6.29535">
        <ele>1207</ele>
        <time>2016-05-09T14:32:28Z</time>
      </trkpt>
      <trkpt lat="44.42283" lon="6.29539">
        <ele>1206</ele>
        <time>2016-05-09T14:34:28Z</time>
      </trkpt>
      <trkpt lat="44.42286" lon="6.29541">
        <ele>1206</ele>
        <time>2016-05-09T14:36:28Z</time>
      </trkpt>
      <trkpt lat="44.4229" lon="6.29546">
        <ele>1206</ele>
        <time>2016-05-09T14:38:28Z</time>
      </trkpt>
      <trkpt lat="44.42307" lon="6.29571">
        <ele>1206</ele>
        <time>2016-05-09T14:40:28Z</time>
      </trkpt>
      <trkpt lat="44.42324" lon="6.296">
        <ele>1207</ele>
        <time>2016-05-09T14:42:28Z</time>
      </trkpt>
      <trkpt lat="44.42339" lon="6.2963">
        <ele>1209</ele>
        <time>2016-05-09T14:44:28Z</time>
      </trkpt>
      <trkpt lat="44.42345" lon="6.29641">
        <ele>1210</ele>
        <time>2016-05-09T14:46:28Z</time>
      </trkpt>
      <trkpt lat="44.42354" lon="6.29657">
        <ele>1211</ele>
        <time>2016-05-09T14:48:28Z</time>
      </trkpt>
      <trkpt lat="44.42362" lon="6.29668">
        <ele>1211</ele>
        <time>2016-05-09T14:50:28Z</time>
      </trkpt>
      <trkpt lat="44.42364" lon="6.29669">
        <ele>1211</ele>
        <time>2016-05-09T14:52:28Z</time>
      </trkpt>
      <trkpt lat="44.42366" lon="6.29669">
        <ele>1210</ele>
        <time>2016-05-09T14:54:28Z</time>
      </trkpt>
      <trkpt lat="44.42368" lon="6.2967">
        <ele>1210</ele>
        <time>2016-05-09T14:56:28Z</time>
      </trkpt>
      <trkpt lat="44.4237" lon="6.2967">
        <ele>1210</ele>
        <time>2016-05-09T14:58:28Z</time>
      </trkpt>
      <trkpt lat="44.42374" lon="6.29669">
        <ele>1209</ele>
        <time>2016-05-09T15:00:28Z</time>
      </trkpt>
      <trkpt lat="44.42378" lon="6.29666">
        <ele>1207</ele>
        <time>2016-05-09T15:02:28Z</time>
      </trkpt>
      <trkpt lat="44.42393" lon="6.29651">
        <ele>1203</ele>
        <time>2016-05-09T15:04:28Z</time>
      </trkpt>
      <trkpt lat="44.42399" lon="6.29646">
        <ele>1202</ele>
        <time>2016-05-09T15:06:28Z</time>
      </trkpt>
      <trkpt lat="44.42403" lon="6.29644">
        <ele>1201</ele>
        <time>2016-05-09T15:08:28Z</time>
      </trkpt>
      <trkpt lat="44.42407" lon="6.29643">
        <ele>1201</ele>
        <time>2016-05-09T15:10:28Z</time>
      </trkpt>
      <trkpt lat="44.42415" lon="6.29642">
        <ele>1199</ele>
        <time>2016-05-09T15:12:28Z</time>
      </trkpt>
      <trkpt lat="44.42421" lon="6.29645">
        <ele>1199</ele>
        <time>2016-05-09T15:14:28Z</time>
      </trkpt>
      <trkpt lat="44.42424" lon="6.29647">
        <ele>1200</ele>
        <time>2016-05-09T15:16:28Z</time>
      </trkpt>
      <trkpt lat="44.42427" lon="6.2965">
        <ele>1200</ele>
        <time>2016-05-09T15:18:28Z</time>
      </trkpt>
      <trkpt lat="44.4244" lon="6.29667">
        <ele>1201</ele>
        <time>2016-05-09T15:20:28Z</time>
      </trkpt>
      <trkpt lat="44.42448" lon="6.29676">
        <ele>1202</ele>
        <time>2016-05-09T15:22:28Z</time>
      </trkpt>
      <trkpt lat="44.42451" lon="6.29679">
        <ele>1203</ele>
        <time>2016-05-09T15:24:28Z</time>
      </trkpt>
      <trkpt lat="44.42462" lon="6.29686">
        <ele>1204</ele>
        <time>2016-05-09T15:26:28Z</time>
      </trkpt>
      <trkpt lat="44.42468" lon="6.2969">
        <ele>1204</ele>
        <time>2016-05-09T15:28:28Z</time>
      </trkpt>
      <trkpt lat="44.42475" lon="6.29694">
        <ele>1205</ele>
        <time>2016-05-09T15:30:28Z</time>
      </trkpt>
      <trkpt lat="44.42482" lon="6.29698">
        <ele>1205</ele>
        <time>2016-05-09T15:32:28Z</time>
      </trkpt>
      <trkpt lat="44.42492" lon="6.29701">
        <ele>1206</ele>
        <time>2016-05-09T15:34:28Z</time>
      </trkpt>
      <trkpt lat="44.42504" lon="6.29703">
        <ele>1206</ele>
        <time>2016-05-09T15:36:28Z</time>
      </trkpt>
      <trkpt lat="44.4251" lon="6.29705">
        <ele>1206</ele>
        <time>2016-05-09T15:38:28Z</time>
      </trkpt>
      <trkpt lat="44.42516" lon="6.29708">
        <ele>1207</ele>
        <time>2016-05-09T15:40:28Z</time>
      </trkpt>
      <trkpt lat="44.42525" lon="6.29713">
        <ele>1207</ele>
        <time>2016-05-09T15:42:28Z</time>
      </trkpt>
      <trkpt lat="44.42553" lon="6.29726">
        <ele>1208</ele>
        <time>2016-05-09T15:44:28Z</time>
      </trkpt>
      <trkpt lat="44.4257" lon="6.29735">
        <ele>1208</ele>
        <time>2016-05-09T15:46:28Z</time>
      </trkpt>
      <trkpt lat="44.42587" lon="6.29745">
        <ele>1209</ele>
        <time>2016-05-09T15:48:28Z</time>
      </trkpt>
      <trkpt lat="44.42593" lon="6.29747">
        <ele>1209</ele>
        <time>2016-05-09T15:50:28Z</time>
      </trkpt>
      <trkpt lat="44.42605" lon="6.29754">
        <ele>1211</ele>
        <time>2016-05-09T15:52:28Z</time>
      </trkpt>
      <trkpt lat="44.42625" lon="6.29764">
        <ele>1214</ele>
        <time>2016-05-09T15:54:28Z</time>
      </trkpt>
      <trkpt lat="44.42644" lon="6.29771">
        <ele>1216</ele>
        <time>2016-05-09T15:56:28Z</time>
      </trkpt>
      <trkpt lat="44.42664" lon="6.29776">
        <ele>1217</ele>
        <time>2016-05-09T15:58:28Z</time>
      </trkpt>
      <trkpt lat="44.42674" lon="6.2978">
        <ele>1218</ele>
        <time>2016-05-09T16:00:28Z</time>
      </trkpt>
      <trkpt lat="44.42682" lon="6.29784">
        <ele>1219</ele>
        <time>2016-05-09T16:02:28Z</time>
      </trkpt>
      <trkpt lat="44.4269" lon="6.29789">
        <ele>1219</ele>
        <time>2016-05-09T16:04:28Z</time>
      </trkpt>
      <trkpt lat="44.42717" lon="6.29811">
        <ele>1222</ele>
        <time>2016-05-09T16:06:28Z</time>
      </trkpt>
      <trkpt lat="44.42721" lon="6.29814">
        <ele>1222</ele>
        <time>2016-05-09T16:08:28Z</time>
      </trkpt>
      <trkpt lat="44.42735" lon="6.29822">
        <ele>1223</ele>
        <time>2016-05-09T16:10:28Z</time>
      </trkpt>
      <trkpt lat="44.42752" lon="6.2983">
        <ele>1223</ele>
        <time>2016-05-09T16:12:28Z</time>
      </trkpt>
      <trkpt lat="44.42762" lon="6.29829">
        <ele>1223</ele>
        <time>2016-05-09T16:14:28Z</time>
      </trkpt>
      <trkpt lat="44.42774" lon="6.2983">
        <ele>1223</ele>
        <time>2016-05-09T16:16:28Z</time>
      </trkpt>
      <trkpt lat="44.42796" lon="6.29831">
        <ele>1224</ele>
        <time>2016-05-09T16:18:28Z</time>
      </trkpt>
      <trkpt lat="44.4281" lon="6.29833">
        <ele>1224</ele>
        <time>2016-05-09T16:20:28Z</time>
      </trkpt>
      <trkpt lat="44.42826" lon="6.29836">
        <ele>1225</ele>
        <time>2016-05-09T16:22:28Z</time>
      </trkpt>
      <trkpt lat="44.42856" lon="6.29843">
        <ele>1228</ele>
        <time>2016-05-09T16:24:28Z</time>
      </trkpt>
      <trkpt lat="44.42885" lon="6.29853">
        <ele>1231</ele>
        <time>2016-05-09T16:26:28Z</time>
      </trkpt>
      <trkpt lat="44.42892" lon="6.29854">
        <ele>1232</ele>
        <time>2016-05-09T16:28:28Z</time>
      </trkpt>
      <trkpt lat="44.42899" lon="6.29856">
        <ele>1232</ele>
        <time>2016-05-09T16:30:28Z</time>
      </trkpt>
      <trkpt lat="44.42906" lon="6.29857">
        <ele>1233</ele>
        <time>2016-05-09T16:32:28Z</time>
      </trkpt>
      <trkpt lat="44.42913" lon="6.29859">
        <ele>1233</ele>
        <time>2016-05-09T16:34:28Z</time>
      </trkpt>
      <trkpt lat="44.4292" lon="6.29864">
        <ele>1234</ele>
        <time>2016-05-09T16:36:28Z</time>
      </trkpt>
      <trkpt lat="44.4293" lon="6.29873">
        <ele>1236</ele>
        <time>2016-05-09T16:38:28Z</time>
      </trkpt>
      <trkpt lat="44.42941" lon="6.29881">
        <ele>1238</ele>
        <time>2016-05-09T16:40:28Z</time>
      </trkpt>
      <trkpt lat="44.42949" lon="6.29886">
        <ele>1238</ele>
        <time>2016-05-09T16:42:28Z</time>
      </trkpt>
      <trkpt lat="44.42971" lon="6.29894">
        <ele>1239</ele>
        <time>2016-05-09T16:44:28Z</time>
      </trkpt>
      <trkpt lat="44.42982" lon="6.29901">
        <ele>1240</ele>
        <time>2016-05-09T16:46:28Z</time>
      </trkpt>
      <trkpt lat="44.4299" lon="6.29908">
        <ele>1239</ele>
        <time>2016-05-09T16:48:28Z</time>
      </trkpt>
      <trkpt lat="44.42999" lon="6.29919">
        <ele>1239</ele>
        <time>2016-05-09T16:50:28Z</time>
      </trkpt>
      <trkpt lat="44.43006" lon="6.29925">
        <ele>1240</ele>
        <time>2016-05-09T16:52:28Z</time>
      </trkpt>
      <trkpt lat="44.43014" lon="6.29932">
        <ele>1241</ele>
        <time>2016-05-09T16:54:28Z</time>
      </trkpt>
      <trkpt lat="44.43023" lon="6.29936">
        <ele>1241</ele>
        <time>2016-05-09T16:56:28Z</time>
      </trkpt>
      <trkpt lat="44.43035" lon="6.29939">
        <ele>1242</ele>
        <time>2016-05-09T16:58:28Z</time>
      </trkpt>
      <trkpt lat="44.43045" lon="6.2994">
        <ele>1242</ele>
        <time>2016-05-09T17:00:28Z</time>
      </trkpt>
      <trkpt lat="44.43055" lon="6.29939">
        <ele>1242</ele>
        <time>2016-05-09T17:02:28Z</time>
      </trkpt>
      <trkpt lat="44.43066" lon="6.29937">
        <ele>1243</ele>
        <time>2016-05-09T17:04:28Z</time>
      </trkpt>
      <trkpt lat="44.43072" lon="6.29934">
        <ele>1243</ele>
        <time>2016-05-09T17:06:28Z</time>
      </trkpt>
      <trkpt lat="44.4308" lon="6.2993">
        <ele>1243</ele>
        <time>2016-05-09T17:08:28Z</time>
      </trkpt>
      <trkpt lat="44.43093" lon="6.2992">
        <ele>1242</ele>
        <time>2016-05-09T17:10:28Z</time>
      </trkpt>
      <trkpt lat="44.43106" lon="6.29912">
        <ele>1243</ele>
        <time>2016-05-09T17:12:28Z</time>
      </trkpt>
      <trkpt lat="44.43115" lon="6.29907">
        <ele>1244</ele>
        <time>2016-05-09T17:14:28Z</time>
      </trkpt>
      <trkpt lat="44.43123" lon="6.29904">
        <ele>1244</ele>
        <time>2016-05-09T17:16:28Z</time>
      </trkpt>
      <trkpt lat="44.43154" lon="6.29888">
        <ele>1245</ele>
        <time>2016-05-09T17:18:28Z</time>
      </trkpt>
      <trkpt lat="44.43157" lon="6.29887">
        <ele>1245</ele>
        <time>2016-05-09T17:20:28Z</time>
      </trkpt>
      <trkpt lat="44.43161" lon="6.29887">
        <ele>1246</ele>
        <time>2016-05-09T17:22:28Z</time>
      </trkpt>
      <trkpt lat="44.43165" lon="6.29888">
        <ele>1246</ele>
        <time>2016-05-09T17:24:28Z</time>
      </trkpt>
      <trkpt lat="44.43168" lon="6.2989">
        <ele>1246</ele>
        <time>2016-05-09T17:26:28Z</time>
      </trkpt>
      <trkpt lat="44.43172" lon="6.29894">
        <ele>1245</ele>
        <time>2016-05-09T17:28:28Z</time>
      </trkpt>
      <trkpt lat="44.43175" lon="6.299">
        <ele>1244</ele>
        <time>2016-05-09T17:30:28Z</time>
      </trkpt>
      <trkpt lat="44.43178" lon="6.29907">
        <ele>1244</ele>
        <time>2016-05-09T17:32:28Z</time>
      </trkpt>
      <trkpt lat="44.43178" lon="6.29915">
        <ele>1243</ele>
        <time>2016-05-09T17:34:28Z</time>
      </trkpt>
      <trkpt lat="44.43175" lon="6.29944">
        <ele>1242</ele>
        <time>2016-05-09T17:36:28Z</time>
      </trkpt>
      <trkpt lat="44.43166" lon="6.30006">
        <ele>1239</ele>
        <time>2016-05-09T17:38:28Z</time>
      </trkpt>
      <trkpt lat="44.43165" lon="6.30025">
        <ele>1237</ele>
        <time>2016-05-09T17:40:28Z</time>
      </trkpt>
      <trkpt lat="44.43162" lon="6.30041">
        <ele>1236</ele>
        <time>2016-05-09T17:42:28Z</time>
      </trkpt>
      <trkpt lat="44.43159" lon="6.30055">
        <ele>1235</ele>
        <time>2016-05-09T17:44:28Z</time>
      </trkpt>
      <trkpt lat="44.43147" lon="6.30079">
        <ele>1234</ele>
        <time>2016-05-09T17:46:28Z</time>
      </trkpt>
      <trkpt lat="44.43141" lon="6.30093">
        <ele>1233</ele>
        <time>2016-05-09T17:48:28Z</time>
      </trkpt>
      <trkpt lat="44.43139" lon="6.301">
        <ele>1233</ele>
        <time>2016-05-09T17:50:28Z</time>
      </trkpt>
      <trkpt lat="44.43136" lon="6.30109">
        <ele>1232</ele>
        <time>2016-05-09T17:52:28Z</time>
      </trkpt>
      <trkpt lat="44.43134" lon="6.3012">
        <ele>1230</ele>
        <time>2016-05-09T17:54:28Z</time>
      </trkpt>
      <trkpt lat="44.43132" lon="6.30129">
        <ele>1229</ele>
        <time>2016-05-09T17:56:28Z</time>
      </trkpt>
      <trkpt lat="44.4313" lon="6.30139">
        <ele>1228</ele>
        <time>2016-05-09T17:58:28Z</time>
      </trkpt>
      <trkpt lat="44.43126" lon="6.30156">
        <ele>1227</ele>
        <time>2016-05-09T18:00:28Z</time>
      </trkpt>
      <trkpt lat="44.43122" lon="6.30169">
        <ele>1226</ele>
        <time>2016-05-09T18:02:28Z</time>
      </trkpt>
      <trkpt lat="44.43113" lon="6.3019">
        <ele>1224</ele>
        <time>2016-05-09T18:04:28Z</time>
      </trkpt>
      <trkpt lat="44.43107" lon="6.30202">
        <ele>1224</ele>
        <time>2016-05-09T18:06:28Z</time>
      </trkpt>
      <trkpt lat="44.43102" lon="6.30213">
        <ele>1223</ele>
        <time>2016-05-09T18:08:28Z</time>
      </trkpt>
      <trkpt lat="44.43094" lon="6.30236">
        <ele>1221</ele>
        <time>2016-05-09T18:10:28Z</time>
      </trkpt>
      <trkpt lat="44.4309" lon="6.30247">
        <ele>1220</ele>
        <time>2016-05-09T18:12:28Z</time>
      </trkpt>
      <trkpt lat="44.43088" lon="6.30254">
        <ele>1219</ele>
        <time>2016-05-09T18:14:28Z</time>
      </trkpt>
      <trkpt lat="44.43086" lon="6.3026">
        <ele>1219</ele>
        <time>2016-05-09T18:16:28Z</time>
      </trkpt>
      <trkpt lat="44.43086" lon="6.30264">
        <ele>1218</ele>
        <time>2016-05-09T18:18:28Z</time>
      </trkpt>
      <trkpt lat="44.43087" lon="6.30267">
        <ele>1218</ele>
        <time>2016-05-09T18:20:28Z</time>
      </trkpt>
      <trkpt lat="44.43089" lon="6.3027">
        <ele>1217</ele>
        <time>2016-05-09T18:22:28Z</time>
      </trkpt>
      <trkpt lat="44.43092" lon="6.30271">
        <ele>1216</ele>
        <time>2016-05-09T18:24:28Z</time>
      </trkpt>
      <trkpt lat="44.43095" lon="6.30271">
        <ele>1215</ele>
        <time>2016-05-09T18:26:28Z</time>
      </trkpt>
      <trkpt lat="44.43101" lon="6.30269">
        <ele>1214</ele>
        <time>2016-05-09T18:28:28Z</time>
      </trkpt>
      <trkpt lat="44.43108" lon="6.30263">
        <ele>1213</ele>
        <time>2016-05-09T18:30:28Z</time>
      </trkpt>
      <trkpt lat="44.43117" lon="6.30253">
        <ele>1212</ele>
        <time>2016-05-09T18:32:28Z</time>
      </trkpt>
      <trkpt lat="44.43137" lon="6.30235">
        <ele>1210</ele>
        <time>2016-05-09T18:34:28Z</time>
      </trkpt>
      <trkpt lat="44.43157" lon="6.30223">
        <ele>1206</ele>
        <time>2016-05-09T18:36:28Z</time>
      </trkpt>
      <trkpt lat="44.43167" lon="6.30218">
        <ele>1205</ele>
        <time>2016-05-09T18:38:28Z</time>
      </trkpt>
      <trkpt lat="44.43178" lon="6.30214">
        <ele>1203</ele>
        <time>2016-05-09T18:40:28Z</time>
      </trkpt>
      <trkpt lat="44.4319" lon="6.30212">
        <ele>1201</ele>
        <time>2016-05-09T18:42:28Z</time>
      </trkpt>
      <trkpt lat="44.4321" lon="6.3021">
        <ele>1198</ele>
        <time>2016-05-09T18:44:28Z</time>
      </trkpt>
      <trkpt lat="44.43217" lon="6.30207">
        <ele>1197</ele>
        <time>2016-05-09T18:46:28Z</time>
      </trkpt>
      <trkpt lat="44.43227" lon="6.30203">
        <ele>1195</ele>
        <time>2016-05-09T18:48:28Z</time>
      </trkpt>
      <trkpt lat="44.43234" lon="6.30198">
        <ele>1194</ele>
        <time>2016-05-09T18:50:28Z</time>
      </trkpt>
      <trkpt lat="44.43241" lon="6.30193">
        <ele>1192</ele>
        <time>2016-05-09T18:52:28Z</time>
      </trkpt>
      <trkpt lat="44.43247" lon="6.30188">
        <ele>1191</ele>
        <time>2016-05-09T18:54:28Z</time>
      </trkpt>
      <trkpt lat="44.43287" lon="6.30149">
        <ele>1185</ele>
        <time>2016-05-09T18:56:28Z</time>
      </trkpt>
      <trkpt lat="44.43324" lon="6.30115">
        <ele>1180</ele>
        <time>2016-05-09T18:58:28Z</time>
      </trkpt>
      <trkpt lat="44.43345" lon="6.30096">
        <ele>1177</ele>
        <time>2016-05-09T19:00:28Z</time>
      </trkpt>
      <trkpt lat="44.43397" lon="6.30053">
        <ele>1174</ele>
        <time>2016-05-09T19:02:28Z</time>
      </trkpt>
      <trkpt lat="44.4342" lon="6.30035">
        <ele>1173</ele>
        <time>2016-05-09T19:04:28Z</time>
      </trkpt>
      <trkpt lat="44.43451" lon="6.30012">
        <ele>1173</ele>
        <time>2016-05-09T19:06:28Z</time>
      </trkpt>
      <trkpt lat="44.43464" lon="6.30001">
        <ele>1173</ele>
        <time>2016-05-09T19:08:28Z</time>
      </trkpt>
      <trkpt lat="44.43478" lon="6.29989">
        <ele>1173</ele>
        <time>2016-05-09T19:10:28Z</time>
      </trkpt>
      <trkpt lat="44.43482" lon="6.29983">
        <ele>1173</ele>
        <time>2016-05-09T19:12:28Z</time>
      </trkpt>
      <trkpt lat="44.43486" lon="6.29978">
        <ele>1174</ele>
        <time>2016-05-09T19:14:28Z</time>
      </trkpt>
      <trkpt lat="44.4349" lon="6.29976">
        <ele>1173</ele>
        <time>2016-05-09T19:16:28Z</time>
      </trkpt>
      <trkpt lat="44.43496" lon="6.29974">
        <ele>1173</ele>
        <time>2016-05-09T19:18:28Z</time>
      </trkpt>
      <trkpt lat="44.43501" lon="6.29974">
        <ele>1172</ele>
        <time>2016-05-09T19:20:28Z</time>
      </trkpt>
      <trkpt lat="44.43506" lon="6.29976">
        <ele>1172</ele>
        <time>2016-05-09T19:22:28Z</time>
      </trkpt>
      <trkpt lat="44.43525" lon="6.29986">
        <ele>1170</ele>
        <time>2016-05-09T19:24:28Z</time>
      </trkpt>
      <trkpt lat="44.43534" lon="6.2999">
        <ele>1169</ele>
        <time>2016-05-09T19:26:28Z</time>
      </trkpt>
      <trkpt lat="44.43544" lon="6.29993">
        <ele>1168</ele>
        <time>2016-05-09T19:28:28Z</time>
      </trkpt>
      <trkpt lat="44.43571" lon="6.3">
        <ele>1166</ele>
        <time>2016-05-09T19:30:28Z</time>
      </trkpt>
      <trkpt lat="44.436" lon="6.3001">
        <ele>1165</ele>
        <time>2016-05-09T19:32:28Z</time>
      </trkpt>
      <trkpt lat="44.43612" lon="6.30012">
        <ele>1164</ele>
        <time>2016-05-09T19:34:28Z</time>
      </trkpt>
      <trkpt lat="44.43631" lon="6.30014">
        <ele>1164</ele>
        <time>2016-05-09T19:36:28Z</time>
      </trkpt>
      <trkpt lat="44.43643" lon="6.30017">
        <ele>1163</ele>
        <time>2016-05-09T19:38:28Z</time>
      </trkpt>
      <trkpt lat="44.43651" lon="6.30021">
        <ele>1163</ele>
        <time>2016-05-09T19:40:28Z</time>
      </trkpt>
      <trkpt lat="44.43659" lon="6.30025">
        <ele>1162</ele>
        <time>2016-05-09T19:42:28Z</time>
      </trkpt>
      <trkpt lat="44.43676" lon="6.3004">
        <ele>1159</ele>
        <time>2016-05-09T19:44:28Z</time>
      </trkpt>
      <trkpt lat="44.43682" lon="6.30043">
        <ele>1158</ele>
        <time>2016-05-09T19:46:28Z</time>
      </trkpt>
      <trkpt lat="44.43689" lon="6.30046">
        <ele>1158</ele>
        <time>2016-05-09T19:48:28Z</time>
      </trkpt>
      <trkpt lat="44.43698" lon="6.30048">
        <ele>1157</ele>
        <time>2016-05-09T19:50:28Z</time>
      </trkpt>
      <trkpt lat="44.43706" lon="6.30049">
        <ele>1157</ele>
        <time>2016-05-09T19:52:28Z</time>
      </trkpt>
      <trkpt lat="44.4374" lon="6.30043">
        <ele>1156</ele>
        <time>2016-05-09T19:54:28Z</time>
      </trkpt>
      <trkpt lat="44.43804" lon="6.30028">
        <ele>1153</ele>
        <time>2016-05-09T19:56:28Z</time>
      </trkpt>
      <trkpt lat="44.43824" lon="6.30028">
        <ele>1151</ele>
        <time>2016-05-09T19:58:28Z</time>
      </trkpt>
      <trkpt lat="44.43844" lon="6.30028">
        <ele>1149</ele>
        <time>2016-05-09T20:00:28Z</time>
      </trkpt>
      <trkpt lat="44.43866" lon="6.30027">
        <ele>1147</ele>
        <time>2016-05-09T20:02:28Z</time>
      </trkpt>
      <trkpt lat="44.43896" lon="6.30025">
        <ele>1144</ele>
        <time>2016-05-09T20:04:28Z</time>
      </trkpt>
      <trkpt lat="44.43922" lon="6.30021">
        <ele>1141</ele>
        <time>2016-05-09T20:06:28Z</time>
      </trkpt>
      <trkpt lat="44.43936" lon="6.3002">
        <ele>1139</ele>
        <time>2016-05-09T20:08:28Z</time>
      </trkpt>
      <trkpt lat="44.43958" lon="6.30021">
        <ele>1136</ele>
        <time>2016-05-09T20:10:28Z</time>
      </trkpt>
      <trkpt lat="44.43982" lon="6.30024">
        <ele>1131</ele>
        <time>2016-05-09T20:12:28Z</time>
      </trkpt>
      <trkpt lat="44.44002" lon="6.30027">
        <ele>1128</ele>
        <time>2016-05-09T20:14:28Z</time>
      </trkpt>
      <trkpt lat="44.44024" lon="6.30029">
        <ele>1123</ele>
        <time>2016-05-09T20:16:28Z</time>
      </trkpt>
      <trkpt lat="44.44034" lon="6.3003">
        <ele>1122</ele>
        <time>2016-05-09T20:18:28Z</time>
      </trkpt>
      <trkpt lat="44.44044" lon="6.30029">
        <ele>1120</ele>
        <time>2016-05-09T20:20:28Z</time>
      </trkpt>
      <trkpt lat="44.44058" lon="6.30026">
        <ele>1118</ele>
        <time>2016-05-09T20:22:28Z</time>
      </trkpt>
      <trkpt lat="44.44062" lon="6.30027">
        <ele>1117</ele>
        <time>2016-05-09T20:24:28Z</time>
      </trkpt>
      <trkpt lat="44.44065" lon="6.30029">
        <ele>1117</ele>
        <time>2016-05-09T20:26:28Z</time>
      </trkpt>
      <trkpt lat="44.44067" lon="6.30033">
        <ele>1116</ele>
        <time>2016-05-09T20:28:28Z</time>
      </trkpt>
      <trkpt lat="44.44067" lon="6.30041">
        <ele>1115</ele>
        <time>2016-05-09T20:30:28Z</time>
      </trkpt>
      <trkpt lat="44.44066" lon="6.30046">
        <ele>1114</ele>
        <time>2016-05-09T20:32:28Z</time>
      </trkpt>
      <trkpt lat="44.44064" lon="6.3005">
        <ele>1114</ele>
        <time>2016-05-09T20:34:28Z</time>
      </trkpt>
      <trkpt lat="44.44062" lon="6.30055">
        <ele>1113</ele>
        <time>2016-05-09T20:36:28Z</time>
      </trkpt>
      <trkpt lat="44.44058" lon="6.30059">
        <ele>1113</ele>
        <time>2016-05-09T20:38:28Z</time>
      </trkpt>
      <trkpt lat="44.44047" lon="6.30068">
        <ele>1113</ele>
        <time>2016-05-09T20:40:28Z</time>
      </trkpt>
      <trkpt lat="44.44041" lon="6.30076">
        <ele>1112</ele>
        <time>2016-05-09T20:42:28Z</time>
      </trkpt>
      <trkpt lat="44.44035" lon="6.30084">
        <ele>1111</ele>
        <time>2016-05-09T20:44:28Z</time>
      </trkpt>
      <trkpt lat="44.4403" lon="6.30094">
        <ele>1110</ele>
        <time>2016-05-09T20:46:28Z</time>
      </trkpt>
      <trkpt lat="44.44024" lon="6.30103">
        <ele>1108</ele>
        <time>2016-05-09T20:48:28Z</time>
      </trkpt>
      <trkpt lat="44.44016" lon="6.30111">
        <ele>1107</ele>
        <time>2016-05-09T20:50:28Z</time>
      </trkpt>
      <trkpt lat="44.44009" lon="6.30117">
        <ele>1107</ele>
        <time>2016-05-09T20:52:28Z</time>
      </trkpt>
      <trkpt lat="44.43981" lon="6.3013">
        <ele>1108</ele>
        <time>2016-05-09T20:54:28Z</time>
      </trkpt>
      <trkpt lat="44.43955" lon="6.30143">
        <ele>1110</ele>
        <time>2016-05-09T20:56:28Z</time>
      </trkpt>
      <trkpt lat="44.43942" lon="6.30152">
        <ele>1110</ele>
        <time>2016-05-09T20:58:28Z</time>
      </trkpt>
      <trkpt lat="44.43923" lon="6.30165">
        <ele>1111</ele>
        <time>2016-05-09T21:00:28Z</time>
      </trkpt>
      <trkpt lat="44.43904" lon="6.30181">
        <ele>1111</ele>
        <time>2016-05-09T21:02:28Z</time>
      </trkpt>
      <trkpt lat="44.43889" lon="6.30197">
        <ele>1109</ele>
        <time>2016-05-09T21:04:28Z</time>
      </trkpt>
      <trkpt lat="44.43875" lon="6.30215">
        <ele>1107</ele>
        <time>2016-05-09T21:06:28Z</time>
      </trkpt>
      <trkpt lat="44.43844" lon="6.30276">
        <ele>1099</ele>
        <time>2016-05-09T21:08:28Z</time>
      </trkpt>
      <trkpt lat="44.43835" lon="6.30298">
        <ele>1096</ele>
        <time>2016-05-09T21:10:28Z</time>
      </trkpt>
      <trkpt lat="44.43827" lon="6.30323">
        <ele>1091</ele>
        <time>2016-05-09T21:12:28Z</time>
      </trkpt>
      <trkpt lat="44.43822" lon="6.30342">
        <ele>1089</ele>
        <time>2016-05-09T21:14:28Z</time>
      </trkpt>
      <trkpt lat="44.43814" lon="6.30379">
        <ele>1088</ele>
        <time>2016-05-09T21:16:28Z</time>
      </trkpt>
      <trkpt lat="44.43812" lon="6.30387">
        <ele>1087</ele>
        <time>2016-05-09T21:18:28Z</time>
      </trkpt>
      <trkpt lat="44.43809" lon="6.30401">
        <ele>1087</ele>
        <time>2016-05-09T21:20:28Z</time>
      </trkpt>
      <trkpt lat="44.43808" lon="6.30413">
        <ele>1086</ele>
        <time>2016-05-09T21:22:28Z</time>
      </trkpt>
      <trkpt lat="44.43808" lon="6.30428">
        <ele>1086</ele>
        <time>2016-05-09T21:24:28Z</time>
      </trkpt>
      <trkpt lat="44.4381" lon="6.30442">
        <ele>1085</ele>
        <time>2016-05-09T21:26:28Z</time>
      </trkpt>
      <trkpt lat="44.43814" lon="6.30462">
        <ele>1085</ele>
        <time>2016-05-09T21:28:28Z</time>
      </trkpt>
      <trkpt lat="44.43816" lon="6.30468">
        <ele>1084</ele>
        <time>2016-05-09T21:30:28Z</time>
      </trkpt>
      <trkpt lat="44.43818" lon="6.30472">
        <ele>1084</ele>
        <time>2016-05-09T21:32:28Z</time>
      </trkpt>
      <trkpt lat="44.43822" lon="6.30476">
        <ele>1084</ele>
        <time>2016-05-09T21:34:28Z</time>
      </trkpt>
      <trkpt lat="44.43824" lon="6.30479">
        <ele>1083</ele>
        <time>2016-05-09T21:36:28Z</time>
      </trkpt>
      <trkpt lat="44.43828" lon="6.30481">
        <ele>1083</ele>
        <time>2016-05-09T21:38:28Z</time>
      </trkpt>
      <trkpt lat="44.43848" lon="6.3049">
        <ele>1080</ele>
        <time>2016-05-09T21:40:28Z</time>
      </trkpt>
      <trkpt lat="44.43868" lon="6.30498">
        <ele>1078</ele>
        <time>2016-05-09T21:42:28Z</time>
      </trkpt>
      <trkpt lat="44.43876" lon="6.30499">
        <ele>1077</ele>
        <time>2016-05-09T21:44:28Z</time>
      </trkpt>
      <trkpt lat="44.43884" lon="6.30498">
        <ele>1076</ele>
        <time>2016-05-09T21:46:28Z</time>
      </trkpt>
      <trkpt lat="44.43893" lon="6.30495">
        <ele>1075</ele>
        <time>2016-05-09T21:48:28Z</time>
      </trkpt>
      <trkpt lat="44.43901" lon="6.3049">
        <ele>1074</ele>
        <time>2016-05-09T21:50:28Z</time>
      </trkpt>
      <trkpt lat="44.43911" lon="6.3048">
        <ele>1072</ele>
        <time>2016-05-09T21:52:28Z</time>
      </trkpt>
      <trkpt lat="44.43925" lon="6.30466">
        <ele>1070</ele>
        <time>2016-05-09T21:54:28Z</time>
      </trkpt>
      <trkpt lat="44.43936" lon="6.30442">
        <ele>1068</ele>
        <time>2016-05-09T21:56:28Z</time>
      </trkpt>
      <trkpt lat="44.43948" lon="6.30424">
        <ele>1067</ele>
        <time>2016-05-09T21:58:28Z</time>
      </trkpt>
      <trkpt lat="44.43952" lon="6.3042">
        <ele>1066</ele>
        <time>2016-05-09T22:00:28Z</time>
      </trkpt>
      <trkpt lat="44.43958" lon="6.30414">
        <ele>1065</ele>
        <time>2016-05-09T22:02:28Z</time>
      </trkpt>
      <trkpt lat="44.43967" lon="6.30407">
        <ele>1065</ele>
        <time>2016-05-09T22:04:28Z</time>
      </trkpt>
      <trkpt lat="44.43974" lon="6.304">
        <ele>1064</ele>
        <time>2016-05-09T22:06:28Z</time>
      </trkpt>
      <trkpt lat="44.43983" lon="6.30395">
        <ele>1063</ele>
        <time>2016-05-09T22:08:28Z</time>
      </trkpt>
      <trkpt lat="44.43993" lon="6.30389">
        <ele>1063</ele>
        <time>2016-05-09T22:10:28Z</time>
      </trkpt>
      <trkpt lat="44.44005" lon="6.30386">
        <ele>1061</ele>
        <time>2016-05-09T22:12:28Z</time>
      </trkpt>
      <trkpt lat="44.44029" lon="6.30392">
        <ele>1059</ele>
        <time>2016-05-09T22:14:28Z</time>
      </trkpt>
      <trkpt lat="44.44036" lon="6.30393">
        <ele>1058</ele>
        <time>2016-05-09T22:16:28Z</time>
      </trkpt>
      <trkpt lat="44.44055" lon="6.3039">
        <ele>1056</ele>
        <time>2016-05-09T22:18:28Z</time>
      </trkpt>
      <trkpt lat="44.44073" lon="6.30386">
        <ele>1055</ele>
        <time>2016-05-09T22:20:28Z</time>
      </trkpt>
      <trkpt lat="44.44092" lon="6.30385">
        <ele>1052</ele>
        <time>2016-05-09T22:22:28Z</time>
      </trkpt>
      <trkpt lat="44.4411" lon="6.30383">
        <ele>1049</ele>
        <time>2016-05-09T22:24:28Z</time>
      </trkpt>
      <trkpt lat="44.44138" lon="6.30375">
        <ele>1044</ele>
        <time>2016-05-09T22:26:28Z</time>
      </trkpt>
      <trkpt lat="44.44143" lon="6.30374">
        <ele>1044</ele>
        <time>2016-05-09T22:28:28Z</time>
      </trkpt>
      <trkpt lat="44.44151" lon="6.30374">
        <ele>1042</ele>
        <time>2016-05-09T22:30:28Z</time>
      </trkpt>
      <trkpt lat="44.44156" lon="6.30376">
        <ele>1041</ele>
        <time>2016-05-09T22:32:28Z</time>
      </trkpt>
      <trkpt lat="44.4416" lon="6.30378">
        <ele>1041</ele>
        <time>2016-05-09T22:34:28Z</time>
      </trkpt>
      <trkpt lat="44.44165" lon="6.30383">
        <ele>1040</ele>
        <time>2016-05-09T22:36:28Z</time>
      </trkpt>
      <trkpt lat="44.4417" lon="6.30389">
        <ele>1039</ele>
        <time>2016-05-09T22:38:28Z</time>
      </trkpt>
      <trkpt lat="44.44175" lon="6.30395">
        <ele>1038</ele>
        <time>2016-05-09T22:40:28Z</time>
      </trkpt>
      <trkpt lat="44.44181" lon="6.30399">
        <ele>1037</ele>
        <time>2016-05-09T22:42:28Z</time>
      </trkpt>
      <trkpt lat="44.44187" lon="6.30403">
        <ele>1036</ele>
        <time>2016-05-09T22:44:28Z</time>
      </trkpt>
      <trkpt lat="44.44192" lon="6.30406">
        <ele>1036</ele>
        <time>2016-05-09T22:46:28Z</time>
      </trkpt>
      <trkpt lat="44.442" lon="6.30408">
        <ele>1035</ele>
        <time>2016-05-09T22:48:28Z</time>
      </trkpt>
      <trkpt lat="44.44232" lon="6.30419">
        <ele>1032</ele>
        <time>2016-05-09T22:50:28Z</time>
      </trkpt>
      <trkpt lat="44.44234" lon="6.30419">
        <ele>1032</ele>
        <time>2016-05-09T22:52:28Z</time>
      </trkpt>
      <trkpt lat="44.44242" lon="6.3042">
        <ele>1031</ele>
        <time>2016-05-09T22:54:28Z</time>
      </trkpt>
      <trkpt lat="44.44253" lon="6.30422">
        <ele>1030</ele>
        <time>2016-05-09T22:56:28Z</time>
      </trkpt>
      <trkpt lat="44.44265" lon="6.3042">
        <ele>1029</ele>
        <time>2016-05-09T22:58:28Z</time>
      </trkpt>
      <trkpt lat="44.44277" lon="6.30416">
        <ele>1028</ele>
        <time>2016-05-09T23:00:28Z</time>
      </trkpt>
      <trkpt lat="44.44301" lon="6.30407">
        <ele>1026</ele>
        <time>2016-05-09T23:02:28Z</time>
      </trkpt>
      <trkpt lat="44.4435" lon="6.30389">
        <ele>1021</ele>
        <time>2016-05-09T23:04:28Z</time>
      </trkpt>
      <trkpt lat="44.44397" lon="6.30372">
        <ele>1015</ele>
        <time>2016-05-09T23:06:28Z</time>
      </trkpt>
      <trkpt lat="44.44406" lon="6.30369">
        <ele>1014</ele>
        <time>2016-05-09T23:08:28Z</time>
      </trkpt>
      <trkpt lat="44.4442" lon="6.30363">
        <ele>1013</ele>
        <time>2016-05-09T23:10:28Z</time>
      </trkpt>
      <trkpt lat="44.44433" lon="6.30357">
        <ele>1012</ele>
        <time>2016-05-09T23:12:28Z</time>
      </trkpt>
      <trkpt lat="44.44443" lon="6.30353">
        <ele>1011</ele>
        <time>2016-05-09T23:14:28Z</time>
      </trkpt>
      <trkpt lat="44.44451" lon="6.30351">
        <ele>1010</ele>
        <time>2016-05-09T23:16:28Z</time>
      </trkpt>
      <trkpt lat="44.44462" lon="6.30349">
        <ele>1009</ele>
        <time>2016-05-09T23:18:28Z</time>
      </trkpt>
      <trkpt lat="44.44475" lon="6.30346">
        <ele>1008</ele>
        <time>2016-05-09T23:20:28Z</time>
      </trkpt>
      <trkpt lat="44.44517" lon="6.30342">
        <ele>1004</ele>
        <time>2016-05-09T23:22:28Z</time>
      </trkpt>
      <trkpt lat="44.44547" lon="6.30338">
        <ele>999</ele>
        <time>2016-05-09T23:24:28Z</time>
      </trkpt>
      <trkpt lat="44.44576" lon="6.30334">
        <ele>995</ele>
        <time>2016-05-09T23:26:28Z</time>
      </trkpt>
      <trkpt lat="44.44624" lon="6.30321">
        <ele>989</ele>
        <time>2016-05-09T23:28:28Z</time>
      </trkpt>
      <trkpt lat="44.44638" lon="6.30318">
        <ele>988</ele>
        <time>2016-05-09T23:30:28Z</time>
      </trkpt>
      <trkpt lat="44.44653" lon="6.30316">
        <ele>986</ele>
        <time>2016-05-09T23:32:28Z</time>
      </trkpt>
      <trkpt lat="44.44668" lon="6.30317">
        <ele>984</ele>
        <time>2016-05-09T23:34:28Z</time>
      </trkpt>
      <trkpt lat="44.44685" lon="6.30316">
        <ele>983</ele>
        <time>2016-05-09T23:36:28Z</time>
      </trkpt>
      <trkpt lat="44.44699" lon="6.30314">
        <ele>982</ele>
        <time>2016-05-09T23:38:28Z</time>
      </trkpt>
      <trkpt lat="44.44706" lon="6.30312">
        <ele>981</ele>
        <time>2016-05-09T23:40:28Z</time>
      </trkpt>
      <trkpt lat="44.44715" lon="6.30307">
        <ele>980</ele>
        <time>2016-05-09T23:42:28Z</time>
      </trkpt>
      <trkpt lat="44.44723" lon="6.303">
        <ele>980</ele>
        <time>2016-05-09T23:44:28Z</time>
      </trkpt>
      <trkpt lat="44.44731" lon="6.3029">
        <ele>979</ele>
        <time>2016-05-09T23:46:28Z</time>
      </trkpt>
      <trkpt lat="44.44746" lon="6.30271">
        <ele>977</ele>
        <time>2016-05-09T23:48:28Z</time>
      </trkpt>
      <trkpt lat="44.4478" lon="6.30236">
        <ele>975</ele>
        <time>2016-05-09T23:50:28Z</time>
      </trkpt>
      <trkpt lat="44.44785" lon="6.3023">
        <ele>975</ele>
        <time>2016-05-09T23:52:28Z</time>
      </trkpt>
      <trkpt lat="44.44794" lon="6.30217">
        <ele>975</ele>
        <time>2016-05-09T23:54:28Z</time>
      </trkpt>
      <trkpt lat="44.44801" lon="6.30206">
        <ele>974</ele>
        <time>2016-05-09T23:56:28Z</time>
      </trkpt>
      <trkpt lat="44.44815" lon="6.30182">
        <ele>974</ele>
        <time>2016-05-09T23:58:28Z</time>
      </trkpt>
      <trkpt lat="44.44829" lon="6.30162">
        <ele>973</ele>
        <time>2016-05-10T00:00:28Z</time>
      </trkpt>
      <trkpt lat="44.44852" lon="6.30133">
        <ele>972</ele>
        <time>2016-05-10T00:02:28Z</time>
      </trkpt>
      <trkpt lat="44.44857" lon="6.30127">
        <ele>971</ele>
        <time>2016-05-10T00:04:28Z</time>
      </trkpt>
      <trkpt lat="44.44867" lon="6.30118">
        <ele>971</ele>
        <time>2016-05-10T00:06:28Z</time>
      </trkpt>
      <trkpt lat="44.44875" lon="6.3011">
        <ele>970</ele>
        <time>2016-05-10T00:08:28Z</time>
      </trkpt>
      <trkpt lat="44.44882" lon="6.30098">
        <ele>970</ele>
        <time>2016-05-10T00:10:28Z</time>
      </trkpt>
      <trkpt lat="44.4489" lon="6.30082">
        <ele>969</ele>
        <time>2016-05-10T00:12:28Z</time>
      </trkpt>
      <trkpt lat="44.44896" lon="6.30074">
        <ele>968</ele>
        <time>2016-05-10T00:14:28Z</time>
      </trkpt>
      <trkpt lat="44.44901" lon="6.30069">
        <ele>968</ele>
        <time>2016-05-10T00:16:28Z</time>
      </trkpt>
      <trkpt lat="44.44907" lon="6.30065">
        <ele>967</ele>
        <time>2016-05-10T00:18:28Z</time>
      </trkpt>
      <trkpt lat="44.44912" lon="6.30063">
        <ele>966</ele>
        <time>2016-05-10T00:20:28Z</time>
      </trkpt>
      <trkpt lat="44.44933" lon="6.30058">
        <ele>963</ele>
        <time>2016-05-10T00:22:28Z</time>
      </trkpt>
      <trkpt lat="44.4494" lon="6.30054">
        <ele>962</ele>
        <time>2016-05-10T00:24:28Z</time>
      </trkpt>
      <trkpt lat="44.44944" lon="6.30051">
        <ele>962</ele>
        <time>2016-05-10T00:26:28Z</time>
      </trkpt>
      <trkpt lat="44.44948" lon="6.30047">
        <ele>961</ele>
        <time>2016-05-10T00:28:28Z</time>
      </trkpt>
      <trkpt lat="44.44954" lon="6.30037">
        <ele>961</ele>
        <time>2016-05-10T00:30:28Z</time>
      </trkpt>
      <trkpt lat="44.4496" lon="6.30029">
        <ele>960</ele>
        <time>2016-05-10T00:32:28Z</time>
      </trkpt>
      <trkpt lat="44.44967" lon="6.30023">
        <ele>959</ele>
        <time>2016-05-10T00:34:28Z</time>
      </trkpt>
      <trkpt lat="44.44973" lon="6.30019">
        <ele>958</ele>
        <time>2016-05-10T00:36:28Z</time>
      </trkpt>
      <trkpt lat="44.44978" lon="6.30017">
        <ele>958</ele>
        <time>2016-05-10T00:38:28Z</time>
      </trkpt>
      <trkpt lat="44.44984" lon="6.30015">
        <ele>957</ele>
        <time>2016-05-10T00:40:28Z</time>
      </trkpt>
      <trkpt lat="44.45014" lon="6.30009">
        <ele>953</ele>
        <time>2016-05-10T00:42:28Z</time>
      </trkpt>
      <trkpt lat="44.45024" lon="6.30004">
        <ele>951</ele>
        <time>2016-05-10T00:44:28Z</time>
      </trkpt>
      <trkpt lat="44.4503" lon="6.3">
        <ele>951</ele>
        <time>2016-05-10T00:46:28Z</time>
      </trkpt>
      <trkpt lat="44.45045" lon="6.29982">
        <ele>950</ele>
        <time>2016-05-10T00:48:28Z</time>
      </trkpt>
      <trkpt lat="44.45049" lon="6.29978">
        <ele>950</ele>
        <time>2016-05-10T00:50:28Z</time>
      </trkpt>
      <trkpt lat="44.45054" lon="6.29974">
        <ele>949</ele>
        <time>2016-05-10T00:52:28Z</time>
      </trkpt>
      <trkpt lat="44.45072" lon="6.29962">
        <ele>947</ele>
        <time>2016-05-10T00:54:28Z</time>
      </trkpt>
      <trkpt lat="44.45079" lon="6.29957">
        <ele>946</ele>
        <time>2016-05-10T00:56:28Z</time>
      </trkpt>
      <trkpt lat="44.45091" lon="6.29948">
        <ele>945</ele>
        <time>2016-05-10T00:58:28Z</time>
      </trkpt>
      <trkpt lat="44.45104" lon="6.29937">
        <ele>943</ele>
        <time>2016-05-10T01:00:28Z</time>
      </trkpt>
      <trkpt lat="44.45104" lon="6.29937">
        <ele>943</ele>
        <time>2016-05-10T01:02:28Z</time>
      </trkpt>
      <trkpt lat="44.45109" lon="6.29923">
        <ele>943</ele>
        <time>2016-05-10T01:04:28Z</time>
      </trkpt>
      <trkpt lat="44.45114" lon="6.29914">
        <ele>943</ele>
        <time>2016-05-10T01:06:28Z</time>
      </trkpt>
      <trkpt lat="44.4512" lon="6.29903">
        <ele>943</ele>
        <time>2016-05-10T01:08:28Z</time>
      </trkpt>
      <trkpt lat="44.45128" lon="6.29892">
        <ele>943</ele>
        <time>2016-05-10T01:10:28Z</time>
      </trkpt>
      <trkpt lat="44.45136" lon="6.29881">
        <ele>943</ele>
        <time>2016-05-10T01:12:28Z</time>
      </trkpt>
      <trkpt lat="44.45151" lon="6.29861">
        <ele>942</ele>
        <time>2016-05-10T01:14:28Z</time>
      </trkpt>
      <trkpt lat="44.45179" lon="6.29824">
        <ele>940</ele>
        <time>2016-05-10T01:16:28Z</time>
      </trkpt>
      <trkpt lat="44.4542" lon="6.29506">
        <ele>948</ele>
        <time>2016-05-10T01:18:28Z</time>
      </trkpt>
      <trkpt lat="44.45494" lon="6.29408">
        <ele>944</ele>
        <time>2016-05-10T01:20:28Z</time>
      </trkpt>
      <trkpt lat="44.45515" lon="6.29381">
        <ele>943</ele>
        <time>2016-05-10T01:22:28Z</time>
      </trkpt>
      <trkpt lat="44.45541" lon="6.29345">
        <ele>942</ele>
        <time>2016-05-10T01:24:28Z</time>
      </trkpt>
      <trkpt lat="44.45617" lon="6.29246">
        <ele>934</ele>
        <time>2016-05-10T01:26:28Z</time>
      </trkpt>
      <trkpt lat="44.45664" lon="6.29182">
        <ele>931</ele>
        <time>2016-05-10T01:28:28Z</time>
      </trkpt>
      <trkpt lat="44.4577" lon="6.29041">
        <ele>933</ele>
        <time>2016-05-10T01:30:28Z</time>
      </trkpt>
      <trkpt lat="44.45797" lon="6.29007">
        <ele>930</ele>
        <time>2016-05-10T01:32:28Z</time>
      </trkpt>
      <trkpt lat="44.4584" lon="6.28949">
        <ele>920</ele>
        <time>2016-05-10T01:34:28Z</time>
      </trkpt>
      <trkpt lat="44.45852" lon="6.28934">
        <ele>920</ele>
        <time>2016-05-10T01:36:28Z</time>
      </trkpt>
      <trkpt lat="44.45862" lon="6.28923">
        <ele>919</ele>
        <time>2016-05-10T01:38:28Z</time>
      </trkpt>
      <trkpt lat="44.45873" lon="6.28912">
        <ele>919</ele>
        <time>2016-05-10T01:40:28Z</time>
      </trkpt>
      <trkpt lat="44.45884" lon="6.28903">
        <ele>918</ele>
        <time>2016-05-10T01:42:28Z</time>
      </trkpt>
      <trkpt lat="44.45893" lon="6.28896">
        <ele>918</ele>
        <time>2016-05-10T01:44:28Z</time>
      </trkpt>
      <trkpt lat="44.45902" lon="6.28892">
        <ele>917</ele>
        <time>2016-05-10T01:46:28Z</time>
      </trkpt>
      <trkpt lat="44.45916" lon="6.28884">
        <ele>916</ele>
        <time>2016-05-10T01:48:28Z</time>
      </trkpt>
      <trkpt lat="44.45929" lon="6.28878">
        <ele>915</ele>
        <time>2016-05-10T01:50:28Z</time>
      </trkpt>
      <trkpt lat="44.46026" lon="6.28835">
        <ele>905</ele>
        <time>2016-05-10T01:52:28Z</time>
      </trkpt>
      <trkpt lat="44.46102" lon="6.28802">
        <ele>901</ele>
        <time>2016-05-10T01:54:28Z</time>
      </trkpt>
      <trkpt lat="44.46114" lon="6.28797">
        <ele>900</ele>
        <time>2016-05-10T01:56:28Z</time>
      </trkpt>
      <trkpt lat="44.46129" lon="6.28792">
        <ele>899</ele>
        <time>2016-05-10T01:58:28Z</time>
      </trkpt>
      <trkpt lat="44.46137" lon="6.28789">
        <ele>899</ele>
        <time>2016-05-10T02:00:28Z</time>
      </trkpt>
      <trkpt lat="44.46149" lon="6.28787">
        <ele>898</ele>
        <time>2016-05-10T02:02:28Z</time>
      </trkpt>
      <trkpt lat="44.46159" lon="6.28787">
        <ele>897</ele>
        <time>2016-05-10T02:04:28Z</time>
      </trkpt>
      <trkpt lat="44.46163" lon="6.28787">
        <ele>897</ele>
        <time>2016-05-10T02:06:28Z</time>
      </trkpt>
      <trkpt lat="44.46167" lon="6.28788">
        <ele>897</ele>
        <time>2016-05-10T02:08:28Z</time>
      </trkpt>
      <trkpt lat="44.46173" lon="6.28788">
        <ele>896</ele>
        <time>2016-05-10T02:10:28Z</time>
      </trkpt>
      <trkpt lat="44.46179" lon="6.28789">
        <ele>895</ele>
        <time>2016-05-10T02:12:28Z</time>
      </trkpt>
      <trkpt lat="44.46185" lon="6.28791">
        <ele>895</ele>
        <time>2016-05-10T02:14:28Z</time>
      </trkpt>
      <trkpt lat="44.46196" lon="6.28795">
        <ele>894</ele>
        <time>2016-05-10T02:16:28Z</time>
      </trkpt>
      <trkpt lat="44.46253" lon="6.2882">
        <ele>892</ele>
        <time>2016-05-10T02:18:28Z</time>
      </trkpt>
      <trkpt lat="44.46276" lon="6.2883">
        <ele>891</ele>
        <time>2016-05-10T02:20:28Z</time>
      </trkpt>
      <trkpt lat="44.46292" lon="6.28835">
        <ele>891</ele>
        <time>2016-05-10T02:22:28Z</time>
      </trkpt>
      <trkpt lat="44.46304" lon="6.28837">
        <ele>890</ele>
        <time>2016-05-10T02:24:28Z</time>
      </trkpt>
      <trkpt lat="44.46315" lon="6.28837">
        <ele>889</ele>
        <time>2016-05-10T02:26:28Z</time>
      </trkpt>
      <trkpt lat="44.46329" lon="6.28835">
        <ele>888</ele>
        <time>2016-05-10T02:28:28Z</time>
      </trkpt>
      <trkpt lat="44.46342" lon="6.28831">
        <ele>888</ele>
        <time>2016-05-10T02:30:28Z</time>
      </trkpt>
      <trkpt lat="44.46353" lon="6.28827">
        <ele>889</ele>
        <time>2016-05-10T02:32:28Z</time>
      </trkpt>
      <trkpt lat="44.46368" lon="6.28818">
        <ele>889</ele>
        <time>2016-05-10T02:34:28Z</time>
      </trkpt>
      <trkpt lat="44.46377" lon="6.28811">
        <ele>889</ele>
        <time>2016-05-10T02:36:28Z</time>
      </trkpt>
      <trkpt lat="44.4639" lon="6.28799">
        <ele>888</ele>
        <time>2016-05-10T02:38:28Z</time>
      </trkpt>
      <trkpt lat="44.46395" lon="6.28793">
        <ele>888</ele>
        <time>2016-05-10T02:40:28Z</time>
      </trkpt>
      <trkpt lat="44.46398" lon="6.28789">
        <ele>887</ele>
        <time>2016-05-10T02:42:28Z</time>
      </trkpt>
      <trkpt lat="44.46411" lon="6.28772">
        <ele>885</ele>
        <time>2016-05-10T02:44:28Z</time>
      </trkpt>
      <trkpt lat="44.46418" lon="6.28759">
        <ele>883</ele>
        <time>2016-05-10T02:46:28Z</time>
      </trkpt>
      <trkpt lat="44.46423" lon="6.28748">
        <ele>882</ele>
        <time>2016-05-10T02:48:28Z</time>
      </trkpt>
      <trkpt lat="44.46429" lon="6.28733">
        <ele>881</ele>
        <time>2016-05-10T02:50:28Z</time>
      </trkpt>
      <trkpt lat="44.46433" lon="6.28719">
        <ele>880</ele>
        <time>2016-05-10T02:52:28Z</time>
      </trkpt>
      <trkpt lat="44.46437" lon="6.28702">
        <ele>879</ele>
        <time>2016-05-10T02:54:28Z</time>
      </trkpt>
      <trkpt lat="44.4644" lon="6.28689">
        <ele>879</ele>
        <time>2016-05-10T02:56:28Z</time>
      </trkpt>
      <trkpt lat="44.4644" lon="6.28682">
        <ele>878</ele>
        <time>2016-05-10T02:58:28Z</time>
      </trkpt>
      <trkpt lat="44.46441" lon="6.28676">
        <ele>878</ele>
        <time>2016-05-10T03:00:28Z</time>
      </trkpt>
      <trkpt lat="44.46442" lon="6.28665">
        <ele>877</ele>
        <time>2016-05-10T03:02:28Z</time>
      </trkpt>
      <trkpt lat="44.46442" lon="6.2865">
        <ele>877</ele>
        <time>2016-05-10T03:04:28Z</time>
      </trkpt>
      <trkpt lat="44.46441" lon="6.28638">
        <ele>877</ele>
        <time>2016-05-10T03:06:28Z</time>
      </trkpt>
      <trkpt lat="44.4644" lon="6.2862">
        <ele>878</ele>
        <time>2016-05-10T03:08:28Z</time>
      </trkpt>
      <trkpt lat="44.46435" lon="6.2859">
        <ele>877</ele>
        <time>2016-05-10T03:10:28Z</time>
      </trkpt>
      <trkpt lat="44.4643" lon="6.28557">
        <ele>877</ele>
        <time>2016-05-10T03:12:28Z</time>
      </trkpt>
      <trkpt lat="44.46419" lon="6.28491">
        <ele>876</ele>
        <time>2016-05-10T03:14:28Z</time>
      </trkpt>
      <trkpt lat="44.46404" lon="6.28391">
        <ele>875</ele>
        <time>2016-05-10T03:16:28Z</time>
      </trkpt>
      <trkpt lat="44.46396" lon="6.28358">
        <ele>875</ele>
        <time>2016-05-10T03:18:28Z</time>
      </trkpt>
      <trkpt lat="44.4639" lon="6.28332">
        <ele>875</ele>
        <time>2016-05-10T03:20:28Z</time>
      </trkpt>
      <trkpt lat="44.46382" lon="6.28304">
        <ele>873</ele>
        <time>2016-05-10T03:22:28Z</time>
      </trkpt>
      <trkpt lat="44.46347" lon="6.282">
        <ele>862</ele>
        <time>2016-05-10T03:24:28Z</time>
      </trkpt>
      <trkpt lat="44.46315" lon="6.28101">
        <ele>856</ele>
        <time>2016-05-10T03:26:28Z</time>
      </trkpt>
      <trkpt lat="44.46294" lon="6.2804">
        <ele>855</ele>
        <time>2016-05-10T03:28:28Z</time>
      </trkpt>
      <trkpt lat="44.46269" lon="6.27962">
        <ele>850</ele>
        <time>2016-05-10T03:30:28Z</time>
      </trkpt>
      <trkpt lat="44.46254" lon="6.27915">
        <ele>845</ele>
        <time>2016-05-10T03:32:28Z</time>
      </trkpt>
      <trkpt lat="44.46243" lon="6.27883">
        <ele>843</ele>
        <time>2016-05-10T03:34:28Z</time>
      </trkpt>
      <trkpt lat="44.46231" lon="6.2783">
        <ele>842</ele>
        <time>2016-05-10T03:36:28Z</time>
      </trkpt>
      <trkpt lat="44.46229" lon="6.27821">
        <ele>842</ele>
        <time>2016-05-10T03:38:28Z</time>
      </trkpt>
      <trkpt lat="44.46226" lon="6.27806">
        <ele>841</ele>
        <time>2016-05-10T03:40:28Z</time>
      </trkpt>
      <trkpt lat="44.46221" lon="6.27774">
        <ele>839</ele>
        <time>2016-05-10T03:42:28Z</time>
      </trkpt>
      <trkpt lat="44.46213" lon="6.27712">
        <ele>835</ele>
        <time>2016-05-10T03:44:28Z</time>
      </trkpt>
      <trkpt lat="44.4621" lon="6.2768">
        <ele>832</ele>
        <time>2016-05-10T03:46:28Z</time>
      </trkpt>
      <trkpt lat="44.46188" lon="6.27517">
        <ele>828</ele>
        <time>2016-05-10T03:48:28Z</time>
      </trkpt>
      <trkpt lat="44.46179" lon="6.27457">
        <ele>829</ele>
        <time>2016-05-10T03:50:28Z</time>
      </trkpt>
      <trkpt lat="44.46178" lon="6.2745">
        <ele>829</ele>
        <time>2016-05-10T03:52:28Z</time>
      </trkpt>
      <trkpt lat="44.46177" lon="6.27443">
        <ele>829</ele>
        <time>2016-05-10T03:54:28Z</time>
      </trkpt>
      <trkpt lat="44.4617" lon="6.27407">
        <ele>830</ele>
        <time>2016-05-10T03:56:28Z</time>
      </trkpt>
      <trkpt lat="44.46169" lon="6.27396">
        <ele>831</ele>
        <time>2016-05-10T03:58:28Z</time>
      </trkpt>
      <trkpt lat="44.46168" lon="6.27381">
        <ele>832</ele>
        <time>2016-05-10T04:00:28Z</time>
      </trkpt>
      <trkpt lat="44.46167" lon="6.27364">
        <ele>832</ele>
        <time>2016-05-10T04:02:28Z</time>
      </trkpt>
      <trkpt lat="44.46168" lon="6.27348">
        <ele>833</ele>
        <time>2016-05-10T04:04:28Z</time>
      </trkpt>
      <trkpt lat="44.46169" lon="6.27338">
        <ele>833</ele>
        <time>2016-05-10T04:06:28Z</time>
      </trkpt>
      <trkpt lat="44.46171" lon="6.27327">
        <ele>834</ele>
        <time>2016-05-10T04:08:28Z</time>
      </trkpt>
      <trkpt lat="44.46177" lon="6.27307">
        <ele>835</ele>
        <time>2016-05-10T04:10:28Z</time>
      </trkpt>
      <trkpt lat="44.46182" lon="6.27293">
        <ele>835</ele>
        <time>2016-05-10T04:12:28Z</time>
      </trkpt>
      <trkpt lat="44.46193" lon="6.2727">
        <ele>833</ele>
        <time>2016-05-10T04:14:28Z</time>
      </trkpt>
      <trkpt lat="44.46205" lon="6.27248">
        <ele>830</ele>
        <time>2016-05-10T04:16:28Z</time>
      </trkpt>
      <trkpt lat="44.46212" lon="6.27234">
        <ele>828</ele>
        <time>2016-05-10T04:18:28Z</time>
      </trkpt>
      <trkpt lat="44.46217" lon="6.27221">
        <ele>827</ele>
        <time>2016-05-10T04:20:28Z</time>
      </trkpt>
      <trkpt lat="44.46218" lon="6.27217">
        <ele>827</ele>
        <time>2016-05-10T04:22:28Z</time>
      </trkpt>
      <trkpt lat="44.46221" lon="6.27202">
        <ele>827</ele>
        <time>2016-05-10T04:24:28Z</time>
      </trkpt>
      <trkpt lat="44.46222" lon="6.27189">
        <ele>827</ele>
        <time>2016-05-10T04:26:28Z</time>
      </trkpt>
      <trkpt lat="44.46222" lon="6.27179">
        <ele>828</ele>
        <time>2016-05-10T04:28:28Z</time>
      </trkpt>
      <trkpt lat="44.46218" lon="6.27111">
        <ele>828</ele>
        <time>2016-05-10T04:30:28Z</time>
      </trkpt>
      <trkpt lat="44.46215" lon="6.2708">
        <ele>830</ele>
        <time>2016-05-10T04:32:28Z</time>
      </trkpt>
      <trkpt lat="44.46212" lon="6.27037">
        <ele>835</ele>
        <time>2016-05-10T04:34:28Z</time>
      </trkpt>
      <trkpt lat="44.46212" lon="6.27023">
        <ele>836</ele>
        <time>2016-05-10T04:36:28Z</time>
      </trkpt>
      <trkpt lat="44.46213" lon="6.27012">
        <ele>836</ele>
        <time>2016-05-10T04:38:28Z</time>
      </trkpt>
      <trkpt lat="44.46215" lon="6.27003">
        <ele>836</ele>
        <time>2016-05-10T04:40:28Z</time>
      </trkpt>
      <trkpt lat="44.46217" lon="6.26995">
        <ele>836</ele>
        <time>2016-05-10T04:42:28Z</time>
      </trkpt>
      <trkpt lat="44.46221" lon="6.26986">
        <ele>836</ele>
        <time>2016-05-10T04:44:28Z</time>
      </trkpt>
      <trkpt lat="44.46223" lon="6.26982">
        <ele>836</ele>
        <time>2016-05-10T04:46:28Z</time>
      </trkpt>
      <trkpt lat="44.46224" lon="6.2698">
        <ele>836</ele>
        <time>2016-05-10T04:48:28Z</time>
      </trkpt>
      <trkpt lat="44.46229" lon="6.2697">
        <ele>837</ele>
        <time>2016-05-10T04:50:28Z</time>
      </trkpt>
      <trkpt lat="44.46233" lon="6.26964">
        <ele>837</ele>
        <time>2016-05-10T04:52:28Z</time>
      </trkpt>
      <trkpt lat="44.46241" lon="6.26954">
        <ele>836</ele>
        <time>2016-05-10T04:54:28Z</time>
      </trkpt>
      <trkpt lat="44.46244" lon="6.26951">
        <ele>835</ele>
        <time>2016-05-10T04:56:28Z</time>
      </trkpt>
      <trkpt lat="44.46248" lon="6.26946">
        <ele>835</ele>
        <time>2016-05-10T04:58:28Z</time>
      </trkpt>
      <trkpt lat="44.46252" lon="6.26944">
        <ele>834</ele>
        <time>2016-05-10T05:00:28Z</time>
      </trkpt>
      <trkpt lat="44.46256" lon="6.2694">
        <ele>834</ele>
        <time>2016-05-10T05:02:28Z</time>
      </trkpt>
      <trkpt lat="44.46264" lon="6.26937">
        <ele>832</ele>
        <time>2016-05-10T05:04:28Z</time>
      </trkpt>
      <trkpt lat="44.46275" lon="6.26933">
        <ele>829</ele>
        <time>2016-05-10T05:06:28Z</time>
      </trkpt>
      <trkpt lat="44.46284" lon="6.26932">
        <ele>825</ele>
        <time>2016-05-10T05:08:28Z</time>
      </trkpt>
      <trkpt lat="44.46303" lon="6.26931">
        <ele>817</ele>
        <time>2016-05-10T05:10:28Z</time>
      </trkpt>
      <trkpt lat="44.46322" lon="6.26931">
        <ele>809</ele>
        <time>2016-05-10T05:12:28Z</time>
      </trkpt>
      <trkpt lat="44.46332" lon="6.2693">
        <ele>805</ele>
        <time>2016-05-10T05:14:28Z</time>
      </trkpt>
      <trkpt lat="44.46343" lon="6.26927">
        <ele>802</ele>
        <time>2016-05-10T05:16:28Z</time>
      </trkpt>
      <trkpt lat="44.46352" lon="6.26921">
        <ele>800</ele>
        <time>2016-05-10T05:18:28Z</time>
      </trkpt>
      <trkpt lat="44.46361" lon="6.26913">
        <ele>798</ele>
        <time>2016-05-10T05:20:28Z</time>
      </trkpt>
      <trkpt lat="44.46366" lon="6.26907">
        <ele>797</ele>
        <time>2016-05-10T05:22:28Z</time>
      </trkpt>
      <trkpt lat="44.46368" lon="6.26904">
        <ele>796</ele>
        <time>2016-05-10T05:24:28Z</time>
      </trkpt>
      <trkpt lat="44.46372" lon="6.26898">
        <ele>795</ele>
        <time>2016-05-10T05:26:28Z</time>
      </trkpt>
      <trkpt lat="44.46376" lon="6.26888">
        <ele>793</ele>
        <time>2016-05-10T05:28:28Z</time>
      </trkpt>
      <trkpt lat="44.46379" lon="6.26876">
        <ele>793</ele>
        <time>2016-05-10T05:30:28Z</time>
      </trkpt>
      <trkpt lat="44.46381" lon="6.26865">
        <ele>792</ele>
        <time>2016-05-10T05:32:28Z</time>
      </trkpt>
      <trkpt lat="44.46381" lon="6.26854">
        <ele>792</ele>
        <time>2016-05-10T05:34:28Z</time>
      </trkpt>
      <trkpt lat="44.46379" lon="6.26843">
        <ele>794</ele>
        <time>2016-05-10T05:36:28Z</time>
      </trkpt>
      <trkpt lat="44.46376" lon="6.26832">
        <ele>796</ele>
        <time>2016-05-10T05:38:28Z</time>
      </trkpt>
      <trkpt lat="44.46373" lon="6.26823">
        <ele>795</ele>
        <time>2016-05-10T05:40:28Z</time>
      </trkpt>
      <trkpt lat="44.4637" lon="6.26816">
        <ele>795</ele>
        <time>2016-05-10T05:42:28Z</time>
      </trkpt>
      <trkpt lat="44.46363" lon="6.26802">
        <ele>796</ele>
        <time>2016-05-10T05:44:28Z</time>
      </trkpt>
      <trkpt lat="44.46347" lon="6.26769">
        <ele>799</ele>
        <time>2016-05-10T05:46:28Z</time>
      </trkpt>
      <trkpt lat="44.46338" lon="6.26746">
        <ele>799</ele>
        <time>2016-05-10T05:48:28Z</time>
      </trkpt>
      <trkpt lat="44.46331" lon="6.26726">
        <ele>800</ele>
        <time>2016-05-10T05:50:28Z</time>
      </trkpt>
      <trkpt lat="44.46312" lon="6.26667">
        <ele>800</ele>
        <time>2016-05-10T05:52:28Z</time>
      </trkpt>
      <trkpt lat="44.46299" lon="6.26626">
        <ele>799</ele>
        <time>2016-05-10T05:54:28Z</time>
      </trkpt>
      <trkpt lat="44.46293" lon="6.26608">
        <ele>799</ele>
        <time>2016-05-10T05:56:28Z</time>
      </trkpt>
      <trkpt lat="44.46285" lon="6.26579">
        <ele>798</ele>
        <time>2016-05-10T05:58:28Z</time>
      </trkpt>
      <trkpt lat="44.46276" lon="6.26547">
        <ele>796</ele>
        <time>2016-05-10T06:00:28Z</time>
      </trkpt>
      <trkpt lat="44.46259" lon="6.2647">
        <ele>789</ele>
        <time>2016-05-10T06:02:28Z</time>
      </trkpt>
      <trkpt lat="44.46235" lon="6.2636">
        <ele>783</ele>
        <time>2016-05-10T06:04:28Z</time>
      </trkpt>
      <trkpt lat="44.46226" lon="6.26314">
        <ele>782</ele>
        <time>2016-05-10T06:06:28Z</time>
      </trkpt>
      <trkpt lat="44.46222" lon="6.26299">
        <ele>781</ele>
        <time>2016-05-10T06:08:28Z</time>
      </trkpt>
      <trkpt lat="44.46218" lon="6.26285">
        <ele>781</ele>
        <time>2016-05-10T06:10:28Z</time>
      </trkpt>
      <trkpt lat="44.46213" lon="6.26269">
        <ele>781</ele>
        <time>2016-05-10T06:12:28Z</time>
      </trkpt>
      <trkpt lat="44.46207" lon="6.26255">
        <ele>782</ele>
        <time>2016-05-10T06:14:28Z</time>
      </trkpt>
      <trkpt lat="44.462" lon="6.26241">
        <ele>783</ele>
        <time>2016-05-10T06:16:28Z</time>
      </trkpt>
      <trkpt lat="44.46188" lon="6.26214">
        <ele>783</ele>
        <time>2016-05-10T06:18:28Z</time>
      </trkpt>
      <trkpt lat="44.46172" lon="6.26177">
        <ele>782</ele>
        <time>2016-05-10T06:20:28Z</time>
      </trkpt>
      <trkpt lat="44.46169" lon="6.26167">
        <ele>781</ele>
        <time>2016-05-10T06:22:28Z</time>
      </trkpt>
      <trkpt lat="44.46167" lon="6.26157">
        <ele>780</ele>
        <time>2016-05-10T06:24:28Z</time>
      </trkpt>
      <trkpt lat="44.46167" lon="6.26147">
        <ele>778</ele>
        <time>2016-05-10T06:26:28Z</time>
      </trkpt>
      <trkpt lat="44.46167" lon="6.2614">
        <ele>776</ele>
        <time>2016-05-10T06:28:28Z</time>
      </trkpt>
      <trkpt lat="44.46167" lon="6.26134">
        <ele>775</ele>
        <time>2016-05-10T06:30:28Z</time>
      </trkpt>
      <trkpt lat="44.46169" lon="6.26119">
        <ele>771</ele>
        <time>2016-05-10T06:32:28Z</time>
      </trkpt>
      <trkpt lat="44.46172" lon="6.26103">
        <ele>766</ele>
        <time>2016-05-10T06:34:28Z</time>
      </trkpt>
      <trkpt lat="44.46175" lon="6.26085">
        <ele>761</ele>
        <time>2016-05-10T06:36:28Z</time>
      </trkpt>
      <trkpt lat="44.46177" lon="6.26052">
        <ele>760</ele>
        <time>2016-05-10T06:38:28Z</time>
      </trkpt>
      <trkpt lat="44.46178" lon="6.26036">
        <ele>760</ele>
        <time>2016-05-10T06:40:28Z</time>
      </trkpt>
      <trkpt lat="44.46179" lon="6.26025">
        <ele>760</ele>
        <time>2016-05-10T06:42:28Z</time>
      </trkpt>
      <trkpt lat="44.46179" lon="6.26009">
        <ele>760</ele>
        <time>2016-05-10T06:44:28Z</time>
      </trkpt>
      <trkpt lat="44.46179" lon="6.25991">
        <ele>760</ele>
        <time>2016-05-10T06:46:28Z</time>
      </trkpt>
      <trkpt lat="44.46177" lon="6.25976">
        <ele>762</ele>
        <time>2016-05-10T06:48:28Z</time>
      </trkpt>
      <trkpt lat="44.46175" lon="6.25964">
        <ele>763</ele>
        <time>2016-05-10T06:50:28Z</time>
      </trkpt>
      <trkpt lat="44.46172" lon="6.25949">
        <ele>765</ele>
        <time>2016-05-10T06:52:28Z</time>
      </trkpt>
      <trkpt lat="44.46152" lon="6.25878">
        <ele>784</ele>
        <time>2016-05-10T06:54:28Z</time>
      </trkpt>
      <trkpt lat="44.46124" lon="6.25763">
        <ele>809</ele>
        <time>2016-05-10T06:56:28Z</time>
      </trkpt>
      <trkpt lat="44.46095" lon="6.25649">
        <ele>795</ele>
        <time>2016-05-10T06:58:28Z</time>
      </trkpt>
      <trkpt lat="44.46039" lon="6.25451">
        <ele>749</ele>
        <time>2016-05-10T07:00:28Z</time>
      </trkpt>
      <trkpt lat="44.46016" lon="6.25375">
        <ele>738</ele>
        <time>2016-05-10T07:02:28Z</time>
      </trkpt>
      <trkpt lat="44.46002" lon="6.25329">
        <ele>735</ele>
        <time>2016-05-10T07:04:28Z</time>
      </trkpt>
      <trkpt lat="44.45988" lon="6.25284">
        <ele>737</ele>
        <time>2016-05-10T07:06:28Z</time>
      </trkpt>
      <trkpt lat="44.45979" lon="6.25253">
        <ele>736</ele>
        <time>2016-05-10T07:08:28Z</time>
      </trkpt>
      <trkpt lat="44.45967" lon="6.25205">
        <ele>734</ele>
        <time>2016-05-10T07:10:28Z</time>
      </trkpt>
      <trkpt lat="44.45946" lon="6.25127">
        <ele>729</ele>
        <time>2016-05-10T07:12:28Z</time>
      </trkpt>
      <trkpt lat="44.45926" lon="6.2505">
        <ele>724</ele>
        <time>2016-05-10T07:14:28Z</time>
      </trkpt>
      <trkpt lat="44.45918" lon="6.25018">
        <ele>722</ele>
        <time>2016-05-10T07:16:28Z</time>
      </trkpt>
      <trkpt lat="44.45908" lon="6.24987">
        <ele>725</ele>
        <time>2016-05-10T07:18:28Z</time>
      </trkpt>
      <trkpt lat="44.45898" lon="6.24958">
        <ele>729</ele>
        <time>2016-05-10T07:20:28Z</time>
      </trkpt>
      <trkpt lat="44.45893" lon="6.24943">
        <ele>730</ele>
        <time>2016-05-10T07:22:28Z</time>
      </trkpt>
      <trkpt lat="44.45891" lon="6.24934">
        <ele>730</ele>
        <time>2016-05-10T07:24:28Z</time>
      </trkpt>
      <trkpt lat="44.4589" lon="6.24927">
        <ele>729</ele>
        <time>2016-05-10T07:26:28Z</time>
      </trkpt>
      <trkpt lat="44.45889" lon="6.24909">
        <ele>727</ele>
        <time>2016-05-10T07:28:28Z</time>
      </trkpt>
      <trkpt lat="44.4589" lon="6.24883">
        <ele>721</ele>
        <time>2016-05-10T07:30:28Z</time>
      </trkpt>
      <trkpt lat="44.4589" lon="6.24858">
        <ele>717</ele>
        <time>2016-05-10T07:32:28Z</time>
      </trkpt>
      <trkpt lat="44.4589" lon="6.24841">
        <ele>714</ele>
        <time>2016-05-10T07:34:28Z</time>
      </trkpt>
      <trkpt lat="44.45889" lon="6.24826">
        <ele>712</ele>
        <time>2016-05-10T07:36:28Z</time>
      </trkpt>
      <trkpt lat="44.45886" lon="6.24809">
        <ele>711</ele>
        <time>2016-05-10T07:38:28Z</time>
      </trkpt>
      <trkpt lat="44.45882" lon="6.24794">
        <ele>712</ele>
        <time>2016-05-10T07:40:28Z</time>
      </trkpt>
      <trkpt lat="44.45867" lon="6.24751">
        <ele>713</ele>
        <time>2016-05-10T07:42:28Z</time>
      </trkpt>
      <trkpt lat="44.45856" lon="6.24718">
        <ele>715</ele>
        <time>2016-05-10T07:44:28Z</time>
      </trkpt>
      <trkpt lat="44.45852" lon="6.24703">
        <ele>715</ele>
        <time>2016-05-10T07:46:28Z</time>
      </trkpt>
      <trkpt lat="44.45848" lon="6.24687">
        <ele>715</ele>
        <time>2016-05-10T07:48:28Z</time>
      </trkpt>
      <trkpt lat="44.45845" lon="6.2467">
        <ele>715</ele>
        <time>2016-05-10T07:50:28Z</time>
      </trkpt>
      <trkpt lat="44.45845" lon="6.24653">
        <ele>713</ele>
        <time>2016-05-10T07:52:28Z</time>
      </trkpt>
      <trkpt lat="44.45845" lon="6.24635">
        <ele>712</ele>
        <time>2016-05-10T07:54:28Z</time>
      </trkpt>
      <trkpt lat="44.45848" lon="6.24585">
        <ele>707</ele>
        <time>2016-05-10T07:56:28Z</time>
      </trkpt>
      <trkpt lat="44.45847" lon="6.24569">
        <ele>706</ele>
        <time>2016-05-10T07:58:28Z</time>
      </trkpt>
      <trkpt lat="44.45845" lon="6.24553">
        <ele>704</ele>
        <time>2016-05-10T08:00:28Z</time>
      </trkpt>
      <trkpt lat="44.45843" lon="6.2454">
        <ele>703</ele>
        <time>2016-05-10T08:02:28Z</time>
      </trkpt>
      <trkpt lat="44.45839" lon="6.24522">
        <ele>702</ele>
        <time>2016-05-10T08:04:28Z</time>
      </trkpt>
      <trkpt lat="44.45834" lon="6.24505">
        <ele>702</ele>
        <time>2016-05-10T08:06:28Z</time>
      </trkpt>
      <trkpt lat="44.45822" lon="6.24462">
        <ele>703</ele>
        <time>2016-05-10T08:08:28Z</time>
      </trkpt>
      <trkpt lat="44.45802" lon="6.24398">
        <ele>704</ele>
        <time>2016-05-10T08:10:28Z</time>
      </trkpt>
      <trkpt lat="44.45795" lon="6.24378">
        <ele>704</ele>
        <time>2016-05-10T08:12:28Z</time>
      </trkpt>
      <trkpt lat="44.45794" lon="6.24373">
        <ele>704</ele>
        <time>2016-05-10T08:14:28Z</time>
      </trkpt>
      <trkpt lat="44.4578" lon="6.24329">
        <ele>702</ele>
        <time>2016-05-10T08:16:28Z</time>
      </trkpt>
      <trkpt lat="44.45765" lon="6.24279">
        <ele>698</ele>
        <time>2016-05-10T08:18:28Z</time>
      </trkpt>
      <trkpt lat="44.4576" lon="6.24258">
        <ele>696</ele>
        <time>2016-05-10T08:20:28Z</time>
      </trkpt>
      <trkpt lat="44.45752" lon="6.24228">
        <ele>694</ele>
        <time>2016-05-10T08:22:28Z</time>
      </trkpt>
      <trkpt lat="44.45749" lon="6.24211">
        <ele>693</ele>
        <time>2016-05-10T08:24:28Z</time>
      </trkpt>
      <trkpt lat="44.45746" lon="6.24194">
        <ele>694</ele>
        <time>2016-05-10T08:26:28Z</time>
      </trkpt>
      <trkpt lat="44.45745" lon="6.24179">
        <ele>693</ele>
        <time>2016-05-10T08:28:28Z</time>
      </trkpt>
      <trkpt lat="44.45743" lon="6.24161">
        <ele>692</ele>
        <time>2016-05-10T08:30:28Z</time>
      </trkpt>
      <trkpt lat="44.45743" lon="6.24145">
        <ele>691</ele>
        <time>2016-05-10T08:32:28Z</time>
      </trkpt>
      <trkpt lat="44.45743" lon="6.24128">
        <ele>690</ele>
        <time>2016-05-10T08:34:28Z</time>
      </trkpt>
      <trkpt lat="44.45743" lon="6.24078">
        <ele>686</ele>
        <time>2016-05-10T08:36:28Z</time>
      </trkpt>
      <trkpt lat="44.45744" lon="6.24061">
        <ele>684</ele>
        <time>2016-05-10T08:38:28Z</time>
      </trkpt>
      <trkpt lat="44.45745" lon="6.24044">
        <ele>682</ele>
        <time>2016-05-10T08:40:28Z</time>
      </trkpt>
      <trkpt lat="44.45748" lon="6.24027">
        <ele>679</ele>
        <time>2016-05-10T08:42:28Z</time>
      </trkpt>
      <trkpt lat="44.4575" lon="6.24019">
        <ele>678</ele>
        <time>2016-05-10T08:44:28Z</time>
      </trkpt>
      <trkpt lat="44.45752" lon="6.2401">
        <ele>677</ele>
        <time>2016-05-10T08:46:28Z</time>
      </trkpt>
      <trkpt lat="44.45757" lon="6.23995">
        <ele>675</ele>
        <time>2016-05-10T08:48:28Z</time>
      </trkpt>
      <trkpt lat="44.45764" lon="6.23979">
        <ele>674</ele>
        <time>2016-05-10T08:50:28Z</time>
      </trkpt>
      <trkpt lat="44.45771" lon="6.23967">
        <ele>674</ele>
        <time>2016-05-10T08:52:28Z</time>
      </trkpt>
      <trkpt lat="44.45777" lon="6.23958">
        <ele>673</ele>
        <time>2016-05-10T08:54:28Z</time>
      </trkpt>
      <trkpt lat="44.45779" lon="6.23955">
        <ele>673</ele>
        <time>2016-05-10T08:56:28Z</time>
      </trkpt>
      <trkpt lat="44.45789" lon="6.23942">
        <ele>672</ele>
        <time>2016-05-10T08:58:28Z</time>
      </trkpt>
      <trkpt lat="44.458" lon="6.23929">
        <ele>672</ele>
        <time>2016-05-10T09:00:28Z</time>
      </trkpt>
      <trkpt lat="44.45813" lon="6.23916">
        <ele>671</ele>
        <time>2016-05-10T09:02:28Z</time>
      </trkpt>
      <trkpt lat="44.45827" lon="6.23902">
        <ele>671</ele>
        <time>2016-05-10T09:04:28Z</time>
      </trkpt>
      <trkpt lat="44.45835" lon="6.23894">
        <ele>671</ele>
        <time>2016-05-10T09:06:28Z</time>
      </trkpt>
      <trkpt lat="44.45875" lon="6.23854">
        <ele>670</ele>
        <time>2016-05-10T09:08:28Z</time>
      </trkpt>
      <trkpt lat="44.45905" lon="6.23824">
        <ele>669</ele>
        <time>2016-05-10T09:10:28Z</time>
      </trkpt>
      <trkpt lat="44.45925" lon="6.23807">
        <ele>668</ele>
        <time>2016-05-10T09:12:28Z</time>
      </trkpt>
      <trkpt lat="44.45947" lon="6.23792">
        <ele>668</ele>
        <time>2016-05-10T09:14:28Z</time>
      </trkpt>
      <trkpt lat="44.45968" lon="6.23778">
        <ele>668</ele>
        <time>2016-05-10T09:16:28Z</time>
      </trkpt>
      <trkpt lat="44.45979" lon="6.23771">
        <ele>667</ele>
        <time>2016-05-10T09:18:28Z</time>
      </trkpt>
      <trkpt lat="44.45997" lon="6.2376">
        <ele>667</ele>
        <time>2016-05-10T09:20:28Z</time>
      </trkpt>
      <trkpt lat="44.45997" lon="6.2376">
        <ele>667</ele>
        <time>2016-05-10T09:22:28Z</time>
      </trkpt>
      <trkpt lat="44.45988" lon="6.23736">
        <ele>667</ele>
        <time>2016-05-10T09:24:28Z</time>
      </trkpt>
      <trkpt lat="44.45977" lon="6.23707">
        <ele>668</ele>
        <time>2016-05-10T09:26:28Z</time>
      </trkpt>
      <trkpt lat="44.45974" lon="6.23696">
        <ele>668</ele>
        <time>2016-05-10T09:28:28Z</time>
      </trkpt>
      <trkpt lat="44.45971" lon="6.23684">
        <ele>668</ele>
        <time>2016-05-10T09:30:28Z</time>
      </trkpt>
      <trkpt lat="44.45967" lon="6.23674">
        <ele>668</ele>
        <time>2016-05-10T09:32:28Z</time>
      </trkpt>
      <trkpt lat="44.45964" lon="6.23663">
        <ele>668</ele>
        <time>2016-05-10T09:34:28Z</time>
      </trkpt>
      <trkpt lat="44.45962" lon="6.23655">
        <ele>668</ele>
        <time>2016-05-10T09:36:28Z</time>
      </trkpt>
      <trkpt lat="44.45961" lon="6.2365">
        <ele>668</ele>
        <time>2016-05-10T09:38:28Z</time>
      </trkpt>
      <trkpt lat="44.4596" lon="6.23639">
        <ele>668</ele>
        <time>2016-05-10T09:40:28Z</time>
      </trkpt>
      <trkpt lat="44.45961" lon="6.23627">
        <ele>668</ele>
        <time>2016-05-10T09:42:28Z</time>
      </trkpt>
      <trkpt lat="44.45961" lon="6.23617">
        <ele>668</ele>
        <time>2016-05-10T09:44:28Z</time>
      </trkpt>
      <trkpt lat="44.45963" lon="6.23603">
        <ele>668</ele>
        <time>2016-05-10T09:46:28Z</time>
      </trkpt>
      <trkpt lat="44.45968" lon="6.23585">
        <ele>668</ele>
        <time>2016-05-10T09:48:28Z</time>
      </trkpt>
      <trkpt lat="44.45972" lon="6.23571">
        <ele>667</ele>
        <time>2016-05-10T09:50:28Z</time>
      </trkpt>
      <trkpt lat="44.45974" lon="6.23565">
        <ele>667</ele>
        <time>2016-05-10T09:52:28Z</time>
      </trkpt>
      <trkpt lat="44.45984" lon="6.23537">
        <ele>666</ele>
        <time>2016-05-10T09:54:28Z</time>
      </trkpt>
      <trkpt lat="44.46005" lon="6.2347">
        <ele>665</ele>
        <time>2016-05-10T09:56:28Z</time>
      </trkpt>
      <trkpt lat="44.46013" lon="6.23442">
        <ele>665</ele>
        <time>2016-05-10T09:58:28Z</time>
      </trkpt>
      <trkpt lat="44.46014" lon="6.23433">
        <ele>665</ele>
        <time>2016-05-10T10:00:28Z</time>
      </trkpt>
      <trkpt lat="44.46014" lon="6.23427">
        <ele>665</ele>
        <time>2016-05-10T10:02:28Z</time>
      </trkpt>
      <trkpt lat="44.46013" lon="6.2342">
        <ele>665</ele>
        <time>2016-05-10T10:04:28Z</time>
      </trkpt>
      <trkpt lat="44.46013" lon="6.2341">
        <ele>664</ele>
        <time>2016-05-10T10:06:28Z</time>
      </trkpt>
      <trkpt lat="44.46013" lon="6.23408">
        <ele>664</ele>
        <time>2016-05-10T10:08:28Z</time>
      </trkpt>
      <trkpt lat="44.46011" lon="6.234">
        <ele>664</ele>
        <time>2016-05-10T10:10:28Z</time>
      </trkpt>
      <trkpt lat="44.46005" lon="6.23388">
        <ele>665</ele>
        <time>2016-05-10T10:12:28Z</time>
      </trkpt>
      <trkpt lat="44.45993" lon="6.23358">
        <ele>665</ele>
        <time>2016-05-10T10:14:28Z</time>
      </trkpt>
      <trkpt lat="44.4598" lon="6.23328">
        <ele>666</ele>
        <time>2016-05-10T10:16:28Z</time>
      </trkpt>
      <trkpt lat="44.45973" lon="6.23311">
        <ele>666</ele>
        <time>2016-05-10T10:18:28Z</time>
      </trkpt>
      <trkpt lat="44.45966" lon="6.23294">
        <ele>667</ele>
        <time>2016-05-10T10:20:28Z</time>
      </trkpt>
      <trkpt lat="44.4596" lon="6.2328">
        <ele>668</ele>
        <time>2016-05-10T10:22:28Z</time>
      </trkpt>
      <trkpt lat="44.45957" lon="6.23272">
        <ele>668</ele>
        <time>2016-05-10T10:24:28Z</time>
      </trkpt>
      <trkpt lat="44.45956" lon="6.23262">
        <ele>668</ele>
        <time>2016-05-10T10:26:28Z</time>
      </trkpt>
      <trkpt lat="44.45955" lon="6.23247">
        <ele>669</ele>
        <time>2016-05-10T10:28:28Z</time>
      </trkpt>
      <trkpt lat="44.45956" lon="6.2324">
        <ele>669</ele>
        <time>2016-05-10T10:30:28Z</time>
      </trkpt>
      <trkpt lat="44.45962" lon="6.23225">
        <ele>669</ele>
        <time>2016-05-10T10:32:28Z</time>
      </trkpt>
      <trkpt lat="44.45978" lon="6.23193">
        <ele>668</ele>
        <time>2016-05-10T10:34:28Z</time>
      </trkpt>
      <trkpt lat="44.45992" lon="6.23166">
        <ele>667</ele>
        <time>2016-05-10T10:36:28Z</time>
      </trkpt>
      <trkpt lat="44.45995" lon="6.23161">
        <ele>667</ele>
        <time>2016-05-10T10:38:28Z</time>
      </trkpt>
      <trkpt lat="44.46001" lon="6.23154">
        <ele>667</ele>
        <time>2016-05-10T10:40:28Z</time>
      </trkpt>
      <trkpt lat="44.46012" lon="6.23144">
        <ele>666</ele>
        <time>2016-05-10T10:42:28Z</time>
      </trkpt>
      <trkpt lat="44.46013" lon="6.23143">
        <ele>666</ele>
        <time>2016-05-10T10:44:28Z</time>
      </trkpt>
      <trkpt lat="44.46019" lon="6.23137">
        <ele>666</ele>
        <time>2016-05-10T10:46:28Z</time>
      </trkpt>
      <trkpt lat="44.46029" lon="6.23132">
        <ele>665</ele>
        <time>2016-05-10T10:48:28Z</time>
      </trkpt>
      <trkpt lat="44.46035" lon="6.23128">
        <ele>664</ele>
        <time>2016-05-10T10:50:28Z</time>
      </trkpt>
      <trkpt lat="44.46035" lon="6.23128">
        <ele>664</ele>
        <time>2016-05-10T10:52:28Z</time>
      </trkpt>
      <trkpt lat="44.46036" lon="6.23128">
        <ele>664</ele>
        <time>2016-05-10T10:54:28Z</time>
      </trkpt>
      <trkpt lat="44.46046" lon="6.23123">
        <ele>663</ele>
        <time>2016-05-10T10:56:28Z</time>
      </trkpt>
      <trkpt lat="44.46054" lon="6.23118">
        <ele>663</ele>
        <time>2016-05-10T10:58:28Z</time>
      </trkpt>
      <trkpt lat="44.46058" lon="6.23115">
        <ele>662</ele>
        <time>2016-05-10T11:00:28Z</time>
      </trkpt>
      <trkpt lat="44.46066" lon="6.23107">
        <ele>662</ele>
        <time>2016-05-10T11:02:28Z</time>
      </trkpt>
      <trkpt lat="44.46073" lon="6.23096">
        <ele>661</ele>
        <time>2016-05-10T11:04:28Z</time>
      </trkpt>
      <trkpt lat="44.46084" lon="6.2308">
        <ele>660</ele>
        <time>2016-05-10T11:06:28Z</time>
      </trkpt>
      <trkpt lat="44.46093" lon="6.23062">
        <ele>660</ele>
        <time>2016-05-10T11:08:28Z</time>
      </trkpt>
      <trkpt lat="44.461" lon="6.23046">
        <ele>660</ele>
        <time>2016-05-10T11:10:28Z</time>
      </trkpt>
      <trkpt lat="44.46102" lon="6.23038">
        <ele>661</ele>
        <time>2016-05-10T11:12:28Z</time>
      </trkpt>
      <trkpt lat="44.46104" lon="6.23031">
        <ele>661</ele>
        <time>2016-05-10T11:14:28Z</time>
      </trkpt>
      <trkpt lat="44.46105" lon="6.23018">
        <ele>661</ele>
        <time>2016-05-10T11:16:28Z</time>
      </trkpt>
      <trkpt lat="44.46105" lon="6.23007">
        <ele>661</ele>
        <time>2016-05-10T11:18:28Z</time>
      </trkpt>
      <trkpt lat="44.46104" lon="6.22996">
        <ele>661</ele>
        <time>2016-05-10T11:20:28Z</time>
      </trkpt>
      <trkpt lat="44.46102" lon="6.22986">
        <ele>661</ele>
        <time>2016-05-10T11:22:28Z</time>
      </trkpt>
      <trkpt lat="44.46097" lon="6.22975">
        <ele>661</ele>
        <time>2016-05-10T11:24:28Z</time>
      </trkpt>
      <trkpt lat="44.46094" lon="6.22967">
        <ele>661</ele>
        <time>2016-05-10T11:26:28Z</time>
      </trkpt>
      <trkpt lat="44.46092" lon="6.22963">
        <ele>661</ele>
        <time>2016-05-10T11:28:28Z</time>
      </trkpt>
      <trkpt lat="44.46088" lon="6.22956">
        <ele>661</ele>
        <time>2016-05-10T11:30:28Z</time>
      </trkpt>
      <trkpt lat="44.46087" lon="6.22948">
        <ele>661</ele>
        <time>2016-05-10T11:32:28Z</time>
      </trkpt>
      <trkpt lat="44.46086" lon="6.2294">
        <ele>661</ele>
        <time>2016-05-10T11:34:28Z</time>
      </trkpt>
      <trkpt lat="44.46082" lon="6.22928">
        <ele>661</ele>
        <time>2016-05-10T11:36:28Z</time>
      </trkpt>
      <trkpt lat="44.46078" lon="6.22917">
        <ele>661</ele>
        <time>2016-05-10T11:38:28Z</time>
      </trkpt>
      <trkpt lat="44.46074" lon="6.22908">
        <ele>660</ele>
        <time>2016-05-10T11:40:28Z</time>
      </trkpt>
      <trkpt lat="44.46068" lon="6.22901">
        <ele>661</ele>
        <time>2016-05-10T11:42:28Z</time>
      </trkpt>
      <trkpt lat="44.4606" lon="6.22893">
        <ele>661</ele>
        <time>2016-05-10T11:44:28Z</time>
      </trkpt>
      <trkpt lat="44.4605" lon="6.22883">
        <ele>661</ele>
        <time>2016-05-10T11:46:28Z</time>
      </trkpt>
      <trkpt lat="44.4604" lon="6.22866">
        <ele>662</ele>
        <time>2016-05-10T11:48:28Z</time>
      </trkpt>
      <trkpt lat="44.4603" lon="6.2284">
        <ele>661</ele>
        <time>2016-05-10T11:50:28Z</time>
      </trkpt>
      <trkpt lat="44.46022" lon="6.22824">
        <ele>662</ele>
        <time>2016-05-10T11:52:28Z</time>
      </trkpt>
      <trkpt lat="44.46017" lon="6.22814">
        <ele>662</ele>
        <time>2016-05-10T11:54:28Z</time>
      </trkpt>
      <trkpt lat="44.46013" lon="6.22803">
        <ele>662</ele>
        <time>2016-05-10T11:56:28Z</time>
      </trkpt>
      <trkpt lat="44.46007" lon="6.22787">
        <ele>661</ele>
        <time>2016-05-10T11:58:28Z</time>
      </trkpt>
      <trkpt lat="44.46" lon="6.22768">
        <ele>661</ele>
        <time>2016-05-10T12:00:28Z</time>
      </trkpt>
      <trkpt lat="44.45993" lon="6.22744">
        <ele>661</ele>
        <time>2016-05-10T12:02:28Z</time>
      </trkpt>
      <trkpt lat="44.45986" lon="6.22717">
        <ele>662</ele>
        <time>2016-05-10T12:04:28Z</time>
      </trkpt>
      <trkpt lat="44.45981" lon="6.22692">
        <ele>661</ele>
        <time>2016-05-10T12:06:28Z</time>
      </trkpt>
      <trkpt lat="44.45979" lon="6.22667">
        <ele>660</ele>
        <time>2016-05-10T12:08:28Z</time>
      </trkpt>
      <trkpt lat="44.45981" lon="6.22639">
        <ele>658</ele>
        <time>2016-05-10T12:10:28Z</time>
      </trkpt>
      <trkpt lat="44.45982" lon="6.22628">
        <ele>657</ele>
        <time>2016-05-10T12:12:28Z</time>
      </trkpt>
      <trkpt lat="44.45984" lon="6.2261">
        <ele>656</ele>
        <time>2016-05-10T12:14:28Z</time>
      </trkpt>
      <trkpt lat="44.45984" lon="6.22603">
        <ele>656</ele>
        <time>2016-05-10T12:16:28Z</time>
      </trkpt>
      <trkpt lat="44.45982" lon="6.22594">
        <ele>655</ele>
        <time>2016-05-10T12:18:28Z</time>
      </trkpt>
      <trkpt lat="44.45978" lon="6.22583">
        <ele>655</ele>
        <time>2016-05-10T12:20:28Z</time>
      </trkpt>
      <trkpt lat="44.45964" lon="6.22557">
        <ele>655</ele>
        <time>2016-05-10T12:22:28Z</time>
      </trkpt>
      <trkpt lat="44.45937" lon="6.22513">
        <ele>654</ele>
        <time>2016-05-10T12:24:28Z</time>
      </trkpt>
      <trkpt lat="44.45924" lon="6.2249">
        <ele>654</ele>
        <time>2016-05-10T12:26:28Z</time>
      </trkpt>
      <trkpt lat="44.45912" lon="6.22465">
        <ele>656</ele>
        <time>2016-05-10T12:28:28Z</time>
      </trkpt>
      <trkpt lat="44.45906" lon="6.22448">
        <ele>657</ele>
        <time>2016-05-10T12:30:28Z</time>
      </trkpt>
      <trkpt lat="44.459" lon="6.22433">
        <ele>658</ele>
        <time>2016-05-10T12:32:28Z</time>
      </trkpt>
      <trkpt lat="44.45893" lon="6.22417">
        <ele>659</ele>
        <time>2016-05-10T12:34:28Z</time>
      </trkpt>
      <trkpt lat="44.45887" lon="6.22406">
        <ele>659</ele>
        <time>2016-05-10T12:36:28Z</time>
      </trkpt>
      <trkpt lat="44.45881" lon="6.22398">
        <ele>660</ele>
        <time>2016-05-10T12:38:28Z</time>
      </trkpt>
      <trkpt lat="44.45873" lon="6.22388">
        <ele>661</ele>
        <time>2016-05-10T12:40:28Z</time>
      </trkpt>
      <trkpt lat="44.45865" lon="6.22376">
        <ele>662</ele>
        <time>2016-05-10T12:42:28Z</time>
      </trkpt>
      <trkpt lat="44.45856" lon="6.22361">
        <ele>663</ele>
        <time>2016-05-10T12:44:28Z</time>
      </trkpt>
      <trkpt lat="44.4585" lon="6.22348">
        <ele>663</ele>
        <time>2016-05-10T12:46:28Z</time>
      </trkpt>
      <trkpt lat="44.45847" lon="6.22335">
        <ele>662</ele>
        <time>2016-05-10T12:48:28Z</time>
      </trkpt>
      <trkpt lat="44.45844" lon="6.22321">
        <ele>662</ele>
        <time>2016-05-10T12:50:28Z</time>
      </trkpt>
      <trkpt lat="44.4584" lon="6.22304">
        <ele>662</ele>
        <time>2016-05-10T12:52:28Z</time>
      </trkpt>
      <trkpt lat="44.45835" lon="6.2229">
        <ele>662</ele>
        <time>2016-05-10T12:54:28Z</time>
      </trkpt>
      <trkpt lat="44.45828" lon="6.22272">
        <ele>664</ele>
        <time>2016-05-10T12:56:28Z</time>
      </trkpt>
      <trkpt lat="44.45822" lon="6.22259">
        <ele>666</ele>
        <time>2016-05-10T12:58:28Z</time>
      </trkpt>
      <trkpt lat="44.45818" lon="6.22244">
        <ele>667</ele>
        <time>2016-05-10T13:00:28Z</time>
      </trkpt>
      <trkpt lat="44.45816" lon="6.22233">
        <ele>667</ele>
        <time>2016-05-10T13:02:28Z</time>
      </trkpt>
      <trkpt lat="44.45817" lon="6.22224">
        <ele>667</ele>
        <time>2016-05-10T13:04:28Z</time>
      </trkpt>
      <trkpt lat="44.4582" lon="6.22217">
        <ele>665</ele>
        <time>2016-05-10T13:06:28Z</time>
      </trkpt>
      <trkpt lat="44.45826" lon="6.22206">
        <ele>663</ele>
        <time>2016-05-10T13:08:28Z</time>
      </trkpt>
      <trkpt lat="44.45833" lon="6.22192">
        <ele>661</ele>
        <time>2016-05-10T13:10:28Z</time>
      </trkpt>
      <trkpt lat="44.45842" lon="6.22171">
        <ele>660</ele>
        <time>2016-05-10T13:12:28Z</time>
      </trkpt>
      <trkpt lat="44.45849" lon="6.22155">
        <ele>659</ele>
        <time>2016-05-10T13:14:28Z</time>
      </trkpt>
      <trkpt lat="44.45853" lon="6.22145">
        <ele>658</ele>
        <time>2016-05-10T13:16:28Z</time>
      </trkpt>
      <trkpt lat="44.45854" lon="6.22137">
        <ele>658</ele>
        <time>2016-05-10T13:18:28Z</time>
      </trkpt>
      <trkpt lat="44.45854" lon="6.22132">
        <ele>657</ele>
        <time>2016-05-10T13:20:28Z</time>
      </trkpt>
      <trkpt lat="44.45853" lon="6.22126">
        <ele>657</ele>
        <time>2016-05-10T13:22:28Z</time>
      </trkpt>
      <trkpt lat="44.4585" lon="6.22114">
        <ele>658</ele>
        <time>2016-05-10T13:24:28Z</time>
      </trkpt>
      <trkpt lat="44.45839" lon="6.22076">
        <ele>658</ele>
        <time>2016-05-10T13:26:28Z</time>
      </trkpt>
      <trkpt lat="44.45832" lon="6.22041">
        <ele>658</ele>
        <time>2016-05-10T13:28:28Z</time>
      </trkpt>
      <trkpt lat="44.45829" lon="6.22024">
        <ele>658</ele>
        <time>2016-05-10T13:30:28Z</time>
      </trkpt>
      <trkpt lat="44.45829" lon="6.22012">
        <ele>658</ele>
        <time>2016-05-10T13:32:28Z</time>
      </trkpt>
      <trkpt lat="44.4583" lon="6.22001">
        <ele>657</ele>
        <time>2016-05-10T13:34:28Z</time>
      </trkpt>
      <trkpt lat="44.45829" lon="6.21996">
        <ele>657</ele>
        <time>2016-05-10T13:36:28Z</time>
      </trkpt>
      <trkpt lat="44.45827" lon="6.21992">
        <ele>658</ele>
        <time>2016-05-10T13:38:28Z</time>
      </trkpt>
      <trkpt lat="44.45824" lon="6.2198">
        <ele>660</ele>
        <time>2016-05-10T13:40:28Z</time>
      </trkpt>
      <trkpt lat="44.45819" lon="6.2196">
        <ele>663</ele>
        <time>2016-05-10T13:42:28Z</time>
      </trkpt>
      <trkpt lat="44.45812" lon="6.2191">
        <ele>666</ele>
        <time>2016-05-10T13:44:28Z</time>
      </trkpt>
      <trkpt lat="44.45808" lon="6.21862">
        <ele>668</ele>
        <time>2016-05-10T13:46:28Z</time>
      </trkpt>
      <trkpt lat="44.45809" lon="6.21841">
        <ele>667</ele>
        <time>2016-05-10T13:48:28Z</time>
      </trkpt>
      <trkpt lat="44.45812" lon="6.21819">
        <ele>665</ele>
        <time>2016-05-10T13:50:28Z</time>
      </trkpt>
      <trkpt lat="44.45811" lon="6.21794">
        <ele>665</ele>
        <time>2016-05-10T13:52:28Z</time>
      </trkpt>
      <trkpt lat="44.45815" lon="6.21736">
        <ele>662</ele>
        <time>2016-05-10T13:54:28Z</time>
      </trkpt>
      <trkpt lat="44.45825" lon="6.21626">
        <ele>661</ele>
        <time>2016-05-10T13:56:28Z</time>
      </trkpt>
      <trkpt lat="44.45831" lon="6.21548">
        <ele>669</ele>
        <time>2016-05-10T13:58:28Z</time>
      </trkpt>
      <trkpt lat="44.45831" lon="6.21541">
        <ele>670</ele>
        <time>2016-05-10T14:00:28Z</time>
      </trkpt>
      <trkpt lat="44.45832" lon="6.21518">
        <ele>673</ele>
        <time>2016-05-10T14:02:28Z</time>
      </trkpt>
      <trkpt lat="44.45838" lon="6.21397">
        <ele>672</ele>
        <time>2016-05-10T14:04:28Z</time>
      </trkpt>
      <trkpt lat="44.4584" lon="6.21346">
        <ele>670</ele>
        <time>2016-05-10T14:06:28Z</time>
      </trkpt>
      <trkpt lat="44.45846" lon="6.2124">
        <ele>675</ele>
        <time>2016-05-10T14:08:28Z</time>
      </trkpt>
      <trkpt lat="44.45851" lon="6.21156">
        <ele>679</ele>
        <time>2016-05-10T14:10:28Z</time>
      </trkpt>
      <trkpt lat="44.45854" lon="6.21102">
        <ele>678</ele>
        <time>2016-05-10T14:12:28Z</time>
      </trkpt>
      <trkpt lat="44.45857" lon="6.21052">
        <ele>674</ele>
        <time>2016-05-10T14:14:28Z</time>
      </trkpt>
      <trkpt lat="44.45858" lon="6.21028">
        <ele>673</ele>
        <time>2016-05-10T14:16:28Z</time>
      </trkpt>
      <trkpt lat="44.45858" lon="6.21002">
        <ele>671</ele>
        <time>2016-05-10T14:18:28Z</time>
      </trkpt>
      <trkpt lat="44.45858" lon="6.20981">
        <ele>670</ele>
        <time>2016-05-10T14:20:28Z</time>
      </trkpt>
      <trkpt lat="44.45855" lon="6.20948">
        <ele>668</ele>
        <time>2016-05-10T14:22:28Z</time>
      </trkpt>
      <trkpt lat="44.45853" lon="6.20925">
        <ele>667</ele>
        <time>2016-05-10T14:24:28Z</time>
      </trkpt>
      <trkpt lat="44.45851" lon="6.20904">
        <ele>666</ele>
        <time>2016-05-10T14:26:28Z</time>
      </trkpt>
      <trkpt lat="44.45846" lon="6.20876">
        <ele>666</ele>
        <time>2016-05-10T14:28:28Z</time>
      </trkpt>
      <trkpt lat="44.45841" lon="6.20849">
        <ele>665</ele>
        <time>2016-05-10T14:30:28Z</time>
      </trkpt>
      <trkpt lat="44.45829" lon="6.20801">
        <ele>668</ele>
        <time>2016-05-10T14:32:28Z</time>
      </trkpt>
      <trkpt lat="44.45821" lon="6.20764">
        <ele>671</ele>
        <time>2016-05-10T14:34:28Z</time>
      </trkpt>
      <trkpt lat="44.45809" lon="6.20711">
        <ele>672</ele>
        <time>2016-05-10T14:36:28Z</time>
      </trkpt>
      <trkpt lat="44.45796" lon="6.20652">
        <ele>671</ele>
        <time>2016-05-10T14:38:28Z</time>
      </trkpt>
      <trkpt lat="44.45785" lon="6.20606">
        <ele>670</ele>
        <time>2016-05-10T14:40:28Z</time>
      </trkpt>
      <trkpt lat="44.45777" lon="6.20574">
        <ele>669</ele>
        <time>2016-05-10T14:42:28Z</time>
      </trkpt>
      <trkpt lat="44.45769" lon="6.20542">
        <ele>668</ele>
        <time>2016-05-10T14:44:28Z</time>
      </trkpt>
      <trkpt lat="44.4576" lon="6.20508">
        <ele>667</ele>
        <time>2016-05-10T14:46:28Z</time>
      </trkpt>
      <trkpt lat="44.45745" lon="6.20443">
        <ele>667</ele>
        <time>2016-05-10T14:48:28Z</time>
      </trkpt>
      <trkpt lat="44.45728" lon="6.20372">
        <ele>668</ele>
        <time>2016-05-10T14:50:28Z</time>
      </trkpt>
      <trkpt lat="44.45707" lon="6.20282">
        <ele>669</ele>
        <time>2016-05-10T14:52:28Z</time>
      </trkpt>
      <trkpt lat="44.457" lon="6.20252">
        <ele>668</ele>
        <time>2016-05-10T14:54:28Z</time>
      </trkpt>
      <trkpt lat="44.45689" lon="6.20206">
        <ele>667</ele>
        <time>2016-05-10T14:56:28Z</time>
      </trkpt>
      <trkpt lat="44.45679" lon="6.20163">
        <ele>664</ele>
        <time>2016-05-10T14:58:28Z</time>
      </trkpt>
      <trkpt lat="44.45653" lon="6.20059">
        <ele>664</ele>
        <time>2016-05-10T15:00:28Z</time>
      </trkpt>
      <trkpt lat="44.45649" lon="6.20045">
        <ele>664</ele>
        <time>2016-05-10T15:02:28Z</time>
      </trkpt>
      <trkpt lat="44.45644" lon="6.20027">
        <ele>664</ele>
        <time>2016-05-10T15:04:28Z</time>
      </trkpt>
      <trkpt lat="44.45637" lon="6.20007">
        <ele>664</ele>
        <time>2016-05-10T15:06:28Z</time>
      </trkpt>
      <trkpt lat="44.45632" lon="6.19994">
        <ele>664</ele>
        <time>2016-05-10T15:08:28Z</time>
      </trkpt>
      <trkpt lat="44.45625" lon="6.19965">
        <ele>664</ele>
        <time>2016-05-10T15:10:28Z</time>
      </trkpt>
      <trkpt lat="44.45621" lon="6.19943">
        <ele>664</ele>
        <time>2016-05-10T15:12:28Z</time>
      </trkpt>
      <trkpt lat="44.45618" lon="6.19923">
        <ele>663</ele>
        <time>2016-05-10T15:14:28Z</time>
      </trkpt>
      <trkpt lat="44.45614" lon="6.19892">
        <ele>662</ele>
        <time>2016-05-10T15:16:28Z</time>
      </trkpt>
      <trkpt lat="44.45611" lon="6.19852">
        <ele>662</ele>
        <time>2016-05-10T15:18:28Z</time>
      </trkpt>
      <trkpt lat="44.45608" lon="6.19823">
        <ele>661</ele>
        <time>2016-05-10T15:20:28Z</time>
      </trkpt>
      <trkpt lat="44.45604" lon="6.19794">
        <ele>662</ele>
        <time>2016-05-10T15:22:28Z</time>
      </trkpt>
      <trkpt lat="44.45603" lon="6.19782">
        <ele>662</ele>
        <time>2016-05-10T15:24:28Z</time>
      </trkpt>
      <trkpt lat="44.45603" lon="6.19782">
        <ele>662</ele>
        <time>2016-05-10T15:26:28Z</time>
      </trkpt>
      <trkpt lat="44.45614" lon="6.19784">
        <ele>661</ele>
        <time>2016-05-10T15:28:28Z</time>
      </trkpt>
      <trkpt lat="44.4562" lon="6.19784">
        <ele>661</ele>
        <time>2016-05-10T15:30:28Z</time>
      </trkpt>
      <trkpt lat="44.45629" lon="6.19784">
        <ele>660</ele>
        <time>2016-05-10T15:32:28Z</time>
      </trkpt>
      <trkpt lat="44.45648" lon="6.19786">
        <ele>659</ele>
        <time>2016-05-10T15:34:28Z</time>
      </trkpt>
      <trkpt lat="44.45668" lon="6.19789">
        <ele>658</ele>
        <time>2016-05-10T15:36:28Z</time>
      </trkpt>
      <trkpt lat="44.45675" lon="6.19789">
        <ele>657</ele>
        <time>2016-05-10T15:38:28Z</time>
      </trkpt>
      <trkpt lat="44.45676" lon="6.19789">
        <ele>657</ele>
        <time>2016-05-10T15:40:28Z</time>
      </trkpt>
      <trkpt lat="44.45679" lon="6.19789">
        <ele>657</ele>
        <time>2016-05-10T15:42:28Z</time>
      </trkpt>
      <trkpt lat="44.45697" lon="6.1979">
        <ele>655</ele>
        <time>2016-05-10T15:44:28Z</time>
      </trkpt>
      <trkpt lat="44.45719" lon="6.19791">
        <ele>654</ele>
        <time>2016-05-10T15:46:28Z</time>
      </trkpt>
      <trkpt lat="44.45724" lon="6.19791">
        <ele>653</ele>
        <time>2016-05-10T15:48:28Z</time>
      </trkpt>
      <trkpt lat="44.45742" lon="6.19793">
        <ele>652</ele>
        <time>2016-05-10T15:50:28Z</time>
      </trkpt>
      <trkpt lat="44.45764" lon="6.19795">
        <ele>650</ele>
        <time>2016-05-10T15:52:28Z</time>
      </trkpt>
      <trkpt lat="44.45789" lon="6.19798">
        <ele>649</ele>
        <time>2016-05-10T15:54:28Z</time>
      </trkpt>
      <trkpt lat="44.45809" lon="6.19802">
        <ele>649</ele>
        <time>2016-05-10T15:56:28Z</time>
      </trkpt>
      <trkpt lat="44.45822" lon="6.19805">
        <ele>648</ele>
        <time>2016-05-10T15:58:28Z</time>
      </trkpt>
      <trkpt lat="44.45834" lon="6.19807">
        <ele>648</ele>
        <time>2016-05-10T16:00:28Z</time>
      </trkpt>
      <trkpt lat="44.45834" lon="6.19807">
        <ele>648</ele>
        <time>2016-05-10T16:02:28Z</time>
      </trkpt>
      <trkpt lat="44.45834" lon="6.19799">
        <ele>648</ele>
        <time>2016-05-10T16:04:28Z</time>
      </trkpt>
      <trkpt lat="44.45834" lon="6.19788">
        <ele>647</ele>
        <time>2016-05-10T16:06:28Z</time>
      </trkpt>
      <trkpt lat="44.45838" lon="6.19747">
        <ele>647</ele>
        <time>2016-05-10T16:08:28Z</time>
      </trkpt>
      <trkpt lat="44.45838" lon="6.19739">
        <ele>647</ele>
        <time>2016-05-10T16:10:28Z</time>
      </trkpt>
      <trkpt lat="44.45838" lon="6.19725">
        <ele>647</ele>
        <time>2016-05-10T16:12:28Z</time>
      </trkpt>
      <trkpt lat="44.45838" lon="6.197">
        <ele>646</ele>
        <time>2016-05-10T16:14:28Z</time>
      </trkpt>
      <trkpt lat="44.45838" lon="6.19644">
        <ele>645</ele>
        <time>2016-05-10T16:16:28Z</time>
      </trkpt>
      <trkpt lat="44.45838" lon="6.19604">
        <ele>644</ele>
        <time>2016-05-10T16:18:28Z</time>
      </trkpt>
      <trkpt lat="44.45837" lon="6.19572">
        <ele>643</ele>
        <time>2016-05-10T16:20:28Z</time>
      </trkpt>
      <trkpt lat="44.45836" lon="6.19551">
        <ele>642</ele>
        <time>2016-05-10T16:22:28Z</time>
      </trkpt>
      <trkpt lat="44.45835" lon="6.19537">
        <ele>642</ele>
        <time>2016-05-10T16:24:28Z</time>
      </trkpt>
      <trkpt lat="44.45833" lon="6.19519">
        <ele>641</ele>
        <time>2016-05-10T16:26:28Z</time>
      </trkpt>
      <trkpt lat="44.45828" lon="6.19496">
        <ele>642</ele>
        <time>2016-05-10T16:28:28Z</time>
      </trkpt>
      <trkpt lat="44.45823" lon="6.19469">
        <ele>642</ele>
        <time>2016-05-10T16:30:28Z</time>
      </trkpt>
      <trkpt lat="44.4582" lon="6.1945">
        <ele>642</ele>
        <time>2016-05-10T16:32:28Z</time>
      </trkpt>
      <trkpt lat="44.45817" lon="6.19428">
        <ele>642</ele>
        <time>2016-05-10T16:34:28Z</time>
      </trkpt>
      <trkpt lat="44.45815" lon="6.19413">
        <ele>642</ele>
        <time>2016-05-10T16:36:28Z</time>
      </trkpt>
      <trkpt lat="44.45815" lon="6.19394">
        <ele>642</ele>
        <time>2016-05-10T16:38:28Z</time>
      </trkpt>
      <trkpt lat="44.45815" lon="6.19366">
        <ele>642</ele>
        <time>2016-05-10T16:40:28Z</time>
      </trkpt>
      <trkpt lat="44.45816" lon="6.1932">
        <ele>642</ele>
        <time>2016-05-10T16:42:28Z</time>
      </trkpt>
      <trkpt lat="44.45816" lon="6.19279">
        <ele>641</ele>
        <time>2016-05-10T16:44:28Z</time>
      </trkpt>
      <trkpt lat="44.45815" lon="6.19247">
        <ele>641</ele>
        <time>2016-05-10T16:46:28Z</time>
      </trkpt>
      <trkpt lat="44.45814" lon="6.19227">
        <ele>640</ele>
        <time>2016-05-10T16:48:28Z</time>
      </trkpt>
      <trkpt lat="44.45811" lon="6.19206">
        <ele>640</ele>
        <time>2016-05-10T16:50:28Z</time>
      </trkpt>
      <trkpt lat="44.45807" lon="6.1918">
        <ele>639</ele>
        <time>2016-05-10T16:52:28Z</time>
      </trkpt>
      <trkpt lat="44.45802" lon="6.19158">
        <ele>639</ele>
        <time>2016-05-10T16:54:28Z</time>
      </trkpt>
      <trkpt lat="44.45795" lon="6.19136">
        <ele>640</ele>
        <time>2016-05-10T16:56:28Z</time>
      </trkpt>
      <trkpt lat="44.45787" lon="6.19115">
        <ele>640</ele>
        <time>2016-05-10T16:58:28Z</time>
      </trkpt>
      <trkpt lat="44.45778" lon="6.19096">
        <ele>641</ele>
        <time>2016-05-10T17:00:28Z</time>
      </trkpt>
      <trkpt lat="44.45766" lon="6.1907">
        <ele>641</ele>
        <time>2016-05-10T17:02:28Z</time>
      </trkpt>
      <trkpt lat="44.45746" lon="6.1903">
        <ele>641</ele>
        <time>2016-05-10T17:04:28Z</time>
      </trkpt>
      <trkpt lat="44.45725" lon="6.18992">
        <ele>643</ele>
        <time>2016-05-10T17:06:28Z</time>
      </trkpt>
      <trkpt lat="44.45712" lon="6.18964">
        <ele>643</ele>
        <time>2016-05-10T17:08:28Z</time>
      </trkpt>
      <trkpt lat="44.45704" lon="6.18943">
        <ele>643</ele>
        <time>2016-05-10T17:10:28Z</time>
      </trkpt>
      <trkpt lat="44.45697" lon="6.18923">
        <ele>642</ele>
        <time>2016-05-10T17:12:28Z</time>
      </trkpt>
      <trkpt lat="44.45692" lon="6.18904">
        <ele>642</ele>
        <time>2016-05-10T17:14:28Z</time>
      </trkpt>
      <trkpt lat="44.45687" lon="6.18881">
        <ele>642</ele>
        <time>2016-05-10T17:16:28Z</time>
      </trkpt>
      <trkpt lat="44.45683" lon="6.18858">
        <ele>641</ele>
        <time>2016-05-10T17:18:28Z</time>
      </trkpt>
      <trkpt lat="44.4568" lon="6.18835">
        <ele>641</ele>
        <time>2016-05-10T17:20:28Z</time>
      </trkpt>
      <trkpt lat="44.45679" lon="6.18812">
        <ele>641</ele>
        <time>2016-05-10T17:22:28Z</time>
      </trkpt>
      <trkpt lat="44.45676" lon="6.18761">
        <ele>639</ele>
        <time>2016-05-10T17:24:28Z</time>
      </trkpt>
      <trkpt lat="44.45676" lon="6.18754">
        <ele>639</ele>
        <time>2016-05-10T17:26:28Z</time>
      </trkpt>
      <trkpt lat="44.45675" lon="6.18741">
        <ele>639</ele>
        <time>2016-05-10T17:28:28Z</time>
      </trkpt>
      <trkpt lat="44.45673" lon="6.18673">
        <ele>638</ele>
        <time>2016-05-10T17:30:28Z</time>
      </trkpt>
      <trkpt lat="44.45671" lon="6.18633">
        <ele>637</ele>
        <time>2016-05-10T17:32:28Z</time>
      </trkpt>
      <trkpt lat="44.45669" lon="6.18607">
        <ele>637</ele>
        <time>2016-05-10T17:34:28Z</time>
      </trkpt>
      <trkpt lat="44.45668" lon="6.18586">
        <ele>636</ele>
        <time>2016-05-10T17:36:28Z</time>
      </trkpt>
      <trkpt lat="44.45664" lon="6.18558">
        <ele>636</ele>
        <time>2016-05-10T17:38:28Z</time>
      </trkpt>
      <trkpt lat="44.45659" lon="6.18511">
        <ele>636</ele>
        <time>2016-05-10T17:40:28Z</time>
      </trkpt>
      <trkpt lat="44.45654" lon="6.18476">
        <ele>636</ele>
        <time>2016-05-10T17:42:28Z</time>
      </trkpt>
      <trkpt lat="44.45651" lon="6.18447">
        <ele>637</ele>
        <time>2016-05-10T17:44:28Z</time>
      </trkpt>
      <trkpt lat="44.45646" lon="6.18404">
        <ele>637</ele>
        <time>2016-05-10T17:46:28Z</time>
      </trkpt>
      <trkpt lat="44.45641" lon="6.18365">
        <ele>638</ele>
        <time>2016-05-10T17:48:28Z</time>
      </trkpt>
      <trkpt lat="44.45636" lon="6.18329">
        <ele>638</ele>
        <time>2016-05-10T17:50:28Z</time>
      </trkpt>
      <trkpt lat="44.45632" lon="6.18294">
        <ele>639</ele>
        <time>2016-05-10T17:52:28Z</time>
      </trkpt>
      <trkpt lat="44.45629" lon="6.18261">
        <ele>639</ele>
        <time>2016-05-10T17:54:28Z</time>
      </trkpt>
      <trkpt lat="44.45627" lon="6.18239">
        <ele>639</ele>
        <time>2016-05-10T17:56:28Z</time>
      </trkpt>
      <trkpt lat="44.45626" lon="6.18217">
        <ele>639</ele>
        <time>2016-05-10T17:58:28Z</time>
      </trkpt>
      <trkpt lat="44.45627" lon="6.182">
        <ele>639</ele>
        <time>2016-05-10T18:00:28Z</time>
      </trkpt>
      <trkpt lat="44.45627" lon="6.1818">
        <ele>639</ele>
        <time>2016-05-10T18:02:28Z</time>
      </trkpt>
      <trkpt lat="44.45628" lon="6.18165">
        <ele>639</ele>
        <time>2016-05-10T18:04:28Z</time>
      </trkpt>
      <trkpt lat="44.4563" lon="6.18151">
        <ele>640</ele>
        <time>2016-05-10T18:06:28Z</time>
      </trkpt>
      <trkpt lat="44.45632" lon="6.18133">
        <ele>640</ele>
        <time>2016-05-10T18:08:28Z</time>
      </trkpt>
      <trkpt lat="44.45633" lon="6.1811">
        <ele>640</ele>
        <time>2016-05-10T18:10:28Z</time>
      </trkpt>
      <trkpt lat="44.45634" lon="6.18074">
        <ele>640</ele>
        <time>2016-05-10T18:12:28Z</time>
      </trkpt>
      <trkpt lat="44.45635" lon="6.18047">
        <ele>641</ele>
        <time>2016-05-10T18:14:28Z</time>
      </trkpt>
      <trkpt lat="44.45636" lon="6.18026">
        <ele>641</ele>
        <time>2016-05-10T18:16:28Z</time>
      </trkpt>
      <trkpt lat="44.45636" lon="6.18005">
        <ele>641</ele>
        <time>2016-05-10T18:18:28Z</time>
      </trkpt>
      <trkpt lat="44.45635" lon="6.17993">
        <ele>641</ele>
        <time>2016-05-10T18:20:28Z</time>
      </trkpt>
      <trkpt lat="44.45634" lon="6.17975">
        <ele>641</ele>
        <time>2016-05-10T18:22:28Z</time>
      </trkpt>
      <trkpt lat="44.45632" lon="6.17961">
        <ele>642</ele>
        <time>2016-05-10T18:24:28Z</time>
      </trkpt>
      <trkpt lat="44.45629" lon="6.17945">
        <ele>642</ele>
        <time>2016-05-10T18:26:28Z</time>
      </trkpt>
      <trkpt lat="44.45626" lon="6.1793">
        <ele>642</ele>
        <time>2016-05-10T18:28:28Z</time>
      </trkpt>
      <trkpt lat="44.45624" lon="6.1792">
        <ele>642</ele>
        <time>2016-05-10T18:30:28Z</time>
      </trkpt>
      <trkpt lat="44.45624" lon="6.17914">
        <ele>643</ele>
        <time>2016-05-10T18:32:28Z</time>
      </trkpt>
      <trkpt lat="44.45624" lon="6.1791">
        <ele>643</ele>
        <time>2016-05-10T18:34:28Z</time>
      </trkpt>
      <trkpt lat="44.45624" lon="6.17902">
        <ele>643</ele>
        <time>2016-05-10T18:36:28Z</time>
      </trkpt>
      <trkpt lat="44.45624" lon="6.17893">
        <ele>643</ele>
        <time>2016-05-10T18:38:28Z</time>
      </trkpt>
      <trkpt lat="44.45627" lon="6.17879">
        <ele>643</ele>
        <time>2016-05-10T18:40:28Z</time>
      </trkpt>
      <trkpt lat="44.45634" lon="6.17854">
        <ele>643</ele>
        <time>2016-05-10T18:42:28Z</time>
      </trkpt>
      <trkpt lat="44.45639" lon="6.17837">
        <ele>643</ele>
        <time>2016-05-10T18:44:28Z</time>
      </trkpt>
      <trkpt lat="44.45641" lon="6.17824">
        <ele>643</ele>
        <time>2016-05-10T18:46:28Z</time>
      </trkpt>
      <trkpt lat="44.45644" lon="6.17808">
        <ele>644</ele>
        <time>2016-05-10T18:48:28Z</time>
      </trkpt>
      <trkpt lat="44.45644" lon="6.17793">
        <ele>644</ele>
        <time>2016-05-10T18:50:28Z</time>
      </trkpt>
      <trkpt lat="44.45645" lon="6.17772">
        <ele>645</ele>
        <time>2016-05-10T18:52:28Z</time>
      </trkpt>
      <trkpt lat="44.45646" lon="6.17753">
        <ele>645</ele>
        <time>2016-05-10T18:54:28Z</time>
      </trkpt>
      <trkpt lat="44.45648" lon="6.17732">
        <ele>645</ele>
        <time>2016-05-10T18:56:28Z</time>
      </trkpt>
      <trkpt lat="44.45653" lon="6.17704">
        <ele>646</ele>
        <time>2016-05-10T18:58:28Z</time>
      </trkpt>
      <trkpt lat="44.45655" lon="6.17683">
        <ele>646</ele>
        <time>2016-05-10T19:00:28Z</time>
      </trkpt>
      <trkpt lat="44.45656" lon="6.17674">
        <ele>646</ele>
        <time>2016-05-10T19:02:28Z</time>
      </trkpt>
      <trkpt lat="44.45656" lon="6.17668">
        <ele>646</ele>
        <time>2016-05-10T19:04:28Z</time>
      </trkpt>
      <trkpt lat="44.45655" lon="6.17656">
        <ele>646</ele>
        <time>2016-05-10T19:06:28Z</time>
      </trkpt>
      <trkpt lat="44.45654" lon="6.17652">
        <ele>646</ele>
        <time>2016-05-10T19:08:28Z</time>
      </trkpt>
      <trkpt lat="44.45649" lon="6.17642">
        <ele>646</ele>
        <time>2016-05-10T19:10:28Z</time>
      </trkpt>
      <trkpt lat="44.45645" lon="6.17634">
        <ele>646</ele>
        <time>2016-05-10T19:12:28Z</time>
      </trkpt>
      <trkpt lat="44.45635" lon="6.17621">
        <ele>646</ele>
        <time>2016-05-10T19:14:28Z</time>
      </trkpt>
      <trkpt lat="44.45622" lon="6.176">
        <ele>647</ele>
        <time>2016-05-10T19:16:28Z</time>
      </trkpt>
      <trkpt lat="44.45614" lon="6.17588">
        <ele>647</ele>
        <time>2016-05-10T19:18:28Z</time>
      </trkpt>
      <trkpt lat="44.45611" lon="6.17581">
        <ele>647</ele>
        <time>2016-05-10T19:20:28Z</time>
      </trkpt>
      <trkpt lat="44.45609" lon="6.17577">
        <ele>647</ele>
        <time>2016-05-10T19:22:28Z</time>
      </trkpt>
      <trkpt lat="44.45609" lon="6.17575">
        <ele>647</ele>
        <time>2016-05-10T19:24:28Z</time>
      </trkpt>
      <trkpt lat="44.45608" lon="6.17562">
        <ele>647</ele>
        <time>2016-05-10T19:26:28Z</time>
      </trkpt>
      <trkpt lat="44.45609" lon="6.17555">
        <ele>647</ele>
        <time>2016-05-10T19:28:28Z</time>
      </trkpt>
      <trkpt lat="44.45611" lon="6.17547">
        <ele>647</ele>
        <time>2016-05-10T19:30:28Z</time>
      </trkpt>
      <trkpt lat="44.45614" lon="6.17536">
        <ele>647</ele>
        <time>2016-05-10T19:32:28Z</time>
      </trkpt>
      <trkpt lat="44.45619" lon="6.17519">
        <ele>647</ele>
        <time>2016-05-10T19:34:28Z</time>
      </trkpt>
      <trkpt lat="44.45626" lon="6.17497">
        <ele>647</ele>
        <time>2016-05-10T19:36:28Z</time>
      </trkpt>
      <trkpt lat="44.45632" lon="6.17474">
        <ele>647</ele>
        <time>2016-05-10T19:38:28Z</time>
      </trkpt>
      <trkpt lat="44.45636" lon="6.17453">
        <ele>647</ele>
        <time>2016-05-10T19:40:28Z</time>
      </trkpt>
      <trkpt lat="44.45639" lon="6.17435">
        <ele>647</ele>
        <time>2016-05-10T19:42:28Z</time>
      </trkpt>
      <trkpt lat="44.45644" lon="6.1741">
        <ele>647</ele>
        <time>2016-05-10T19:44:28Z</time>
      </trkpt>
      <trkpt lat="44.45651" lon="6.17378">
        <ele>647</ele>
        <time>2016-05-10T19:46:28Z</time>
      </trkpt>
      <trkpt lat="44.45652" lon="6.17376">
        <ele>647</ele>
        <time>2016-05-10T19:48:28Z</time>
      </trkpt>
      <trkpt lat="44.45655" lon="6.17362">
        <ele>647</ele>
        <time>2016-05-10T19:50:28Z</time>
      </trkpt>
      <trkpt lat="44.45664" lon="6.17327">
        <ele>647</ele>
        <time>2016-05-10T19:52:28Z</time>
      </trkpt>
      <trkpt lat="44.45668" lon="6.17313">
        <ele>647</ele>
        <time>2016-05-10T19:54:28Z</time>
      </trkpt>
      <trkpt lat="44.4567" lon="6.17306">
        <ele>646</ele>
        <time>2016-05-10T19:56:28Z</time>
      </trkpt>
      <trkpt lat="44.45672" lon="6.17302">
        <ele>646</ele>
        <time>2016-05-10T19:58:28Z</time>
      </trkpt>
      <trkpt lat="44.45675" lon="6.17295">
        <ele>646</ele>
        <time>2016-05-10T20:00:28Z</time>
      </trkpt>
      <trkpt lat="44.45683" lon="6.17284">
        <ele>646</ele>
        <time>2016-05-10T20:02:28Z</time>
      </trkpt>
      <trkpt lat="44.45692" lon="6.17272">
        <ele>645</ele>
        <time>2016-05-10T20:04:28Z</time>
      </trkpt>
      <trkpt lat="44.45717" lon="6.17246">
        <ele>644</ele>
        <time>2016-05-10T20:06:28Z</time>
      </trkpt>
      <trkpt lat="44.45753" lon="6.17213">
        <ele>642</ele>
        <time>2016-05-10T20:08:28Z</time>
      </trkpt>
      <trkpt lat="44.4579" lon="6.17174">
        <ele>642</ele>
        <time>2016-05-10T20:10:28Z</time>
      </trkpt>
      <trkpt lat="44.45804" lon="6.17161">
        <ele>642</ele>
        <time>2016-05-10T20:12:28Z</time>
      </trkpt>
      <trkpt lat="44.4581" lon="6.17154">
        <ele>642</ele>
        <time>2016-05-10T20:14:28Z</time>
      </trkpt>
      <trkpt lat="44.45828" lon="6.17135">
        <ele>641</ele>
        <time>2016-05-10T20:16:28Z</time>
      </trkpt>
      <trkpt lat="44.45833" lon="6.17128">
        <ele>641</ele>
        <time>2016-05-10T20:18:28Z</time>
      </trkpt>
      <trkpt lat="44.45834" lon="6.17127">
        <ele>641</ele>
        <time>2016-05-10T20:20:28Z</time>
      </trkpt>
      <trkpt lat="44.45838" lon="6.17122">
        <ele>641</ele>
        <time>2016-05-10T20:22:28Z</time>
      </trkpt>
      <trkpt lat="44.45848" lon="6.17108">
        <ele>640</ele>
        <time>2016-05-10T20:24:28Z</time>
      </trkpt>
      <trkpt lat="44.4586" lon="6.17087">
        <ele>640</ele>
        <time>2016-05-10T20:26:28Z</time>
      </trkpt>
      <trkpt lat="44.45878" lon="6.17055">
        <ele>641</ele>
        <time>2016-05-10T20:28:28Z</time>
      </trkpt>
      <trkpt lat="44.4589" lon="6.17035">
        <ele>640</ele>
        <time>2016-05-10T20:30:28Z</time>
      </trkpt>
      <trkpt lat="44.45896" lon="6.17025">
        <ele>640</ele>
        <time>2016-05-10T20:32:28Z</time>
      </trkpt>
      <trkpt lat="44.4591" lon="6.17001">
        <ele>640</ele>
        <time>2016-05-10T20:34:28Z</time>
      </trkpt>
      <trkpt lat="44.45917" lon="6.16986">
        <ele>640</ele>
        <time>2016-05-10T20:36:28Z</time>
      </trkpt>
      <trkpt lat="44.45926" lon="6.16961">
        <ele>639</ele>
        <time>2016-05-10T20:38:28Z</time>
      </trkpt>
      <trkpt lat="44.45937" lon="6.16931">
        <ele>639</ele>
        <time>2016-05-10T20:40:28Z</time>
      </trkpt>
      <trkpt lat="44.45962" lon="6.16861">
        <ele>637</ele>
        <time>2016-05-10T20:42:28Z</time>
      </trkpt>
      <trkpt lat="44.45988" lon="6.1679">
        <ele>636</ele>
        <time>2016-05-10T20:44:28Z</time>
      </trkpt>
      <trkpt lat="44.46008" lon="6.16732">
        <ele>634</ele>
        <time>2016-05-10T20:46:28Z</time>
      </trkpt>
      <trkpt lat="44.46009" lon="6.16728">
        <ele>633</ele>
        <time>2016-05-10T20:48:28Z</time>
      </trkpt>
      <trkpt lat="44.46015" lon="6.16706">
        <ele>633</ele>
        <time>2016-05-10T20:50:28Z</time>
      </trkpt>
      <trkpt lat="44.46019" lon="6.16687">
        <ele>633</ele>
        <time>2016-05-10T20:52:28Z</time>
      </trkpt>
      <trkpt lat="44.46021" lon="6.1667">
        <ele>633</ele>
        <time>2016-05-10T20:54:28Z</time>
      </trkpt>
      <trkpt lat="44.46023" lon="6.16644">
        <ele>633</ele>
        <time>2016-05-10T20:56:28Z</time>
      </trkpt>
      <trkpt lat="44.46024" lon="6.16614">
        <ele>634</ele>
        <time>2016-05-10T20:58:28Z</time>
      </trkpt>
      <trkpt lat="44.46023" lon="6.16586">
        <ele>634</ele>
        <time>2016-05-10T21:00:28Z</time>
      </trkpt>
      <trkpt lat="44.46022" lon="6.16565">
        <ele>634</ele>
        <time>2016-05-10T21:02:28Z</time>
      </trkpt>
      <trkpt lat="44.4602" lon="6.16538">
        <ele>635</ele>
        <time>2016-05-10T21:04:28Z</time>
      </trkpt>
      <trkpt lat="44.46017" lon="6.16498">
        <ele>635</ele>
        <time>2016-05-10T21:06:28Z</time>
      </trkpt>
      <trkpt lat="44.46017" lon="6.16423">
        <ele>633</ele>
        <time>2016-05-10T21:08:28Z</time>
      </trkpt>
      <trkpt lat="44.46023" lon="6.1628">
        <ele>632</ele>
        <time>2016-05-10T21:10:28Z</time>
      </trkpt>
      <trkpt lat="44.46028" lon="6.16103">
        <ele>635</ele>
        <time>2016-05-10T21:12:28Z</time>
      </trkpt>
      <trkpt lat="44.46032" lon="6.15973">
        <ele>631</ele>
        <time>2016-05-10T21:14:28Z</time>
      </trkpt>
      <trkpt lat="44.46032" lon="6.15923">
        <ele>632</ele>
        <time>2016-05-10T21:16:28Z</time>
      </trkpt>
      <trkpt lat="44.46037" lon="6.15847">
        <ele>630</ele>
        <time>2016-05-10T21:18:28Z</time>
      </trkpt>
      <trkpt lat="44.46039" lon="6.15771">
        <ele>628</ele>
        <time>2016-05-10T21:20:28Z</time>
      </trkpt>
      <trkpt lat="44.46039" lon="6.15737">
        <ele>628</ele>
        <time>2016-05-10T21:22:28Z</time>
      </trkpt>
      <trkpt lat="44.4604" lon="6.15681">
        <ele>630</ele>
        <time>2016-05-10T21:24:28Z</time>
      </trkpt>
      <trkpt lat="44.46044" lon="6.1561">
        <ele>631</ele>
        <time>2016-05-10T21:26:28Z</time>
      </trkpt>
      <trkpt lat="44.46048" lon="6.15581">
        <ele>631</ele>
        <time>2016-05-10T21:28:28Z</time>
      </trkpt>
      <trkpt lat="44.46048" lon="6.15581">
        <ele>631</ele>
        <time>2016-05-10T21:30:28Z</time>
      </trkpt>
      <trkpt lat="44.46051" lon="6.15554">
        <ele>630</ele>
        <time>2016-05-10T21:32:28Z</time>
      </trkpt>
      <trkpt lat="44.46054" lon="6.15524">
        <ele>630</ele>
        <time>2016-05-10T21:34:28Z</time>
      </trkpt>
      <trkpt lat="44.46061" lon="6.15465">
        <ele>629</ele>
        <time>2016-05-10T21:36:28Z</time>
      </trkpt>
      <trkpt lat="44.46071" lon="6.15389">
        <ele>628</ele>
        <time>2016-05-10T21:38:28Z</time>
      </trkpt>
      <trkpt lat="44.46076" lon="6.15337">
        <ele>627</ele>
        <time>2016-05-10T21:40:28Z</time>
      </trkpt>
      <trkpt lat="44.46076" lon="6.15304">
        <ele>627</ele>
        <time>2016-05-10T21:42:28Z</time>
      </trkpt>
      <trkpt lat="44.46074" lon="6.15275">
        <ele>628</ele>
        <time>2016-05-10T21:44:28Z</time>
      </trkpt>
      <trkpt lat="44.46066" lon="6.15204">
        <ele>630</ele>
        <time>2016-05-10T21:46:28Z</time>
      </trkpt>
      <trkpt lat="44.46062" lon="6.15173">
        <ele>631</ele>
        <time>2016-05-10T21:48:28Z</time>
      </trkpt>
      <trkpt lat="44.46058" lon="6.15141">
        <ele>632</ele>
        <time>2016-05-10T21:50:28Z</time>
      </trkpt>
      <trkpt lat="44.4605" lon="6.15075">
        <ele>635</ele>
        <time>2016-05-10T21:52:28Z</time>
      </trkpt>
      <trkpt lat="44.46043" lon="6.15032">
        <ele>638</ele>
        <time>2016-05-10T21:54:28Z</time>
      </trkpt>
      <trkpt lat="44.46042" lon="6.15021">
        <ele>639</ele>
        <time>2016-05-10T21:56:28Z</time>
      </trkpt>
      <trkpt lat="44.46042" lon="6.15012">
        <ele>639</ele>
        <time>2016-05-10T21:58:28Z</time>
      </trkpt>
      <trkpt lat="44.46043" lon="6.15004">
        <ele>640</ele>
        <time>2016-05-10T22:00:28Z</time>
      </trkpt>
      <trkpt lat="44.46045" lon="6.14995">
        <ele>640</ele>
        <time>2016-05-10T22:02:28Z</time>
      </trkpt>
      <trkpt lat="44.46047" lon="6.14987">
        <ele>640</ele>
        <time>2016-05-10T22:04:28Z</time>
      </trkpt>
      <trkpt lat="44.46049" lon="6.14979">
        <ele>641</ele>
        <time>2016-05-10T22:06:28Z</time>
      </trkpt>
      <trkpt lat="44.46056" lon="6.14965">
        <ele>641</ele>
        <time>2016-05-10T22:08:28Z</time>
      </trkpt>
      <trkpt lat="44.46089" lon="6.14923">
        <ele>640</ele>
        <time>2016-05-10T22:10:28Z</time>
      </trkpt>
      <trkpt lat="44.46112" lon="6.14892">
        <ele>638</ele>
        <time>2016-05-10T22:12:28Z</time>
      </trkpt>
      <trkpt lat="44.46114" lon="6.14889">
        <ele>637</ele>
        <time>2016-05-10T22:14:28Z</time>
      </trkpt>
      <trkpt lat="44.46118" lon="6.1488">
        <ele>637</ele>
        <time>2016-05-10T22:16:28Z</time>
      </trkpt>
      <trkpt lat="44.46122" lon="6.14871">
        <ele>637</ele>
        <time>2016-05-10T22:18:28Z</time>
      </trkpt>
      <trkpt lat="44.46124" lon="6.14861">
        <ele>637</ele>
        <time>2016-05-10T22:20:28Z</time>
      </trkpt>
      <trkpt lat="44.46125" lon="6.14851">
        <ele>637</ele>
        <time>2016-05-10T22:22:28Z</time>
      </trkpt>
      <trkpt lat="44.46126" lon="6.14838">
        <ele>637</ele>
        <time>2016-05-10T22:24:28Z</time>
      </trkpt>
      <trkpt lat="44.46124" lon="6.14757">
        <ele>636</ele>
        <time>2016-05-10T22:26:28Z</time>
      </trkpt>
      <trkpt lat="44.46119" lon="6.14646">
        <ele>635</ele>
        <time>2016-05-10T22:28:28Z</time>
      </trkpt>
      <trkpt lat="44.46117" lon="6.14616">
        <ele>634</ele>
        <time>2016-05-10T22:30:28Z</time>
      </trkpt>
      <trkpt lat="44.46115" lon="6.1459">
        <ele>634</ele>
        <time>2016-05-10T22:32:28Z</time>
      </trkpt>
      <trkpt lat="44.46112" lon="6.14562">
        <ele>634</ele>
        <time>2016-05-10T22:34:28Z</time>
      </trkpt>
      <trkpt lat="44.46109" lon="6.14543">
        <ele>635</ele>
        <time>2016-05-10T22:36:28Z</time>
      </trkpt>
      <trkpt lat="44.46106" lon="6.14529">
        <ele>636</ele>
        <time>2016-05-10T22:38:28Z</time>
      </trkpt>
      <trkpt lat="44.46101" lon="6.14513">
        <ele>637</ele>
        <time>2016-05-10T22:40:28Z</time>
      </trkpt>
      <trkpt lat="44.46089" lon="6.14458">
        <ele>642</ele>
        <time>2016-05-10T22:42:28Z</time>
      </trkpt>
      <trkpt lat="44.46086" lon="6.14439">
        <ele>645</ele>
        <time>2016-05-10T22:44:28Z</time>
      </trkpt>
      <trkpt lat="44.46084" lon="6.14414">
        <ele>647</ele>
        <time>2016-05-10T22:46:28Z</time>
      </trkpt>
      <trkpt lat="44.46084" lon="6.144">
        <ele>647</ele>
        <time>2016-05-10T22:48:28Z</time>
      </trkpt>
      <trkpt lat="44.46084" lon="6.14385">
        <ele>648</ele>
        <time>2016-05-10T22:50:28Z</time>
      </trkpt>
      <trkpt lat="44.46085" lon="6.1437">
        <ele>648</ele>
        <time>2016-05-10T22:52:28Z</time>
      </trkpt>
      <trkpt lat="44.46087" lon="6.14356">
        <ele>648</ele>
        <time>2016-05-10T22:54:28Z</time>
      </trkpt>
      <trkpt lat="44.46102" lon="6.14288">
        <ele>646</ele>
        <time>2016-05-10T22:56:28Z</time>
      </trkpt>
      <trkpt lat="44.46105" lon="6.14269">
        <ele>645</ele>
        <time>2016-05-10T22:58:28Z</time>
      </trkpt>
      <trkpt lat="44.46106" lon="6.14261">
        <ele>645</ele>
        <time>2016-05-10T23:00:28Z</time>
      </trkpt>
      <trkpt lat="44.46104" lon="6.14253">
        <ele>646</ele>
        <time>2016-05-10T23:02:28Z</time>
      </trkpt>
      <trkpt lat="44.46103" lon="6.14248">
        <ele>647</ele>
        <time>2016-05-10T23:04:28Z</time>
      </trkpt>
      <trkpt lat="44.46096" lon="6.14205">
        <ele>651</ele>
        <time>2016-05-10T23:06:28Z</time>
      </trkpt>
      <trkpt lat="44.46095" lon="6.14195">
        <ele>652</ele>
        <time>2016-05-10T23:08:28Z</time>
      </trkpt>
      <trkpt lat="44.46095" lon="6.14185">
        <ele>652</ele>
        <time>2016-05-10T23:10:28Z</time>
      </trkpt>
      <trkpt lat="44.46095" lon="6.14174">
        <ele>653</ele>
        <time>2016-05-10T23:12:28Z</time>
      </trkpt>
      <trkpt lat="44.46096" lon="6.1416">
        <ele>653</ele>
        <time>2016-05-10T23:14:28Z</time>
      </trkpt>
      <trkpt lat="44.46098" lon="6.1415">
        <ele>653</ele>
        <time>2016-05-10T23:16:28Z</time>
      </trkpt>
      <trkpt lat="44.46101" lon="6.14136">
        <ele>653</ele>
        <time>2016-05-10T23:18:28Z</time>
      </trkpt>
      <trkpt lat="44.46105" lon="6.14121">
        <ele>653</ele>
        <time>2016-05-10T23:20:28Z</time>
      </trkpt>
      <trkpt lat="44.46111" lon="6.1411">
        <ele>652</ele>
        <time>2016-05-10T23:22:28Z</time>
      </trkpt>
      <trkpt lat="44.46117" lon="6.14103">
        <ele>651</ele>
        <time>2016-05-10T23:24:28Z</time>
      </trkpt>
      <trkpt lat="44.46121" lon="6.14099">
        <ele>650</ele>
        <time>2016-05-10T23:26:28Z</time>
      </trkpt>
      <trkpt lat="44.46181" lon="6.14055">
        <ele>642</ele>
        <time>2016-05-10T23:28:28Z</time>
      </trkpt>
      <trkpt lat="44.46205" lon="6.14041">
        <ele>642</ele>
        <time>2016-05-10T23:30:28Z</time>
      </trkpt>
      <trkpt lat="44.46211" lon="6.14036">
        <ele>642</ele>
        <time>2016-05-10T23:32:28Z</time>
      </trkpt>
      <trkpt lat="44.46216" lon="6.1403">
        <ele>643</ele>
        <time>2016-05-10T23:34:28Z</time>
      </trkpt>
      <trkpt lat="44.46222" lon="6.14019">
        <ele>643</ele>
        <time>2016-05-10T23:36:28Z</time>
      </trkpt>
      <trkpt lat="44.46224" lon="6.14014">
        <ele>644</ele>
        <time>2016-05-10T23:38:28Z</time>
      </trkpt>
      <trkpt lat="44.46227" lon="6.14006">
        <ele>644</ele>
        <time>2016-05-10T23:40:28Z</time>
      </trkpt>
      <trkpt lat="44.46256" lon="6.13881">
        <ele>652</ele>
        <time>2016-05-10T23:42:28Z</time>
      </trkpt>
      <trkpt lat="44.46274" lon="6.13805">
        <ele>654</ele>
        <time>2016-05-10T23:44:28Z</time>
      </trkpt>
      <trkpt lat="44.46284" lon="6.13766">
        <ele>653</ele>
        <time>2016-05-10T23:46:28Z</time>
      </trkpt>
      <trkpt lat="44.46284" lon="6.13766">
        <ele>653</ele>
        <time>2016-05-10T23:48:28Z</time>
      </trkpt>
      <trkpt lat="44.46302" lon="6.13689">
        <ele>653</ele>
        <time>2016-05-10T23:50:28Z</time>
      </trkpt>
      <trkpt lat="44.46305" lon="6.13677">
        <ele>653</ele>
        <time>2016-05-10T23:52:28Z</time>
      </trkpt>
      <trkpt lat="44.46307" lon="6.13668">
        <ele>653</ele>
        <time>2016-05-10T23:54:28Z</time>
      </trkpt>
      <trkpt lat="44.46315" lon="6.13641">
        <ele>653</ele>
        <time>2016-05-10T23:56:28Z</time>
      </trkpt>
      <trkpt lat="44.46322" lon="6.1362">
        <ele>652</ele>
        <time>2016-05-10T23:58:28Z</time>
      </trkpt>
      <trkpt lat="44.46329" lon="6.13602">
        <ele>651</ele>
        <time>2016-05-11T00:00:28Z</time>
      </trkpt>
      <trkpt lat="44.46336" lon="6.13588">
        <ele>651</ele>
        <time>2016-05-11T00:02:28Z</time>
      </trkpt>
      <trkpt lat="44.46349" lon="6.13565">
        <ele>649</ele>
        <time>2016-05-11T00:04:28Z</time>
      </trkpt>
      <trkpt lat="44.46356" lon="6.13551">
        <ele>648</ele>
        <time>2016-05-11T00:06:28Z</time>
      </trkpt>
      <trkpt lat="44.46362" lon="6.13536">
        <ele>647</ele>
        <time>2016-05-11T00:08:28Z</time>
      </trkpt>
      <trkpt lat="44.46368" lon="6.13517">
        <ele>647</ele>
        <time>2016-05-11T00:10:28Z</time>
      </trkpt>
      <trkpt lat="44.46372" lon="6.13497">
        <ele>646</ele>
        <time>2016-05-11T00:12:28Z</time>
      </trkpt>
      <trkpt lat="44.46388" lon="6.13431">
        <ele>646</ele>
        <time>2016-05-11T00:14:28Z</time>
      </trkpt>
      <trkpt lat="44.46395" lon="6.13409">
        <ele>645</ele>
        <time>2016-05-11T00:16:28Z</time>
      </trkpt>
      <trkpt lat="44.46406" lon="6.13381">
        <ele>643</ele>
        <time>2016-05-11T00:18:28Z</time>
      </trkpt>
      <trkpt lat="44.46413" lon="6.13359">
        <ele>641</ele>
        <time>2016-05-11T00:20:28Z</time>
      </trkpt>
      <trkpt lat="44.4642" lon="6.13333">
        <ele>639</ele>
        <time>2016-05-11T00:22:28Z</time>
      </trkpt>
      <trkpt lat="44.46422" lon="6.13322">
        <ele>640</ele>
        <time>2016-05-11T00:24:28Z</time>
      </trkpt>
      <trkpt lat="44.4643" lon="6.13285">
        <ele>639</ele>
        <time>2016-05-11T00:26:28Z</time>
      </trkpt>
      <trkpt lat="44.46434" lon="6.13264">
        <ele>639</ele>
        <time>2016-05-11T00:28:28Z</time>
      </trkpt>
      <trkpt lat="44.46436" lon="6.13242">
        <ele>639</ele>
        <time>2016-05-11T00:30:28Z</time>
      </trkpt>
      <trkpt lat="44.46441" lon="6.13179">
        <ele>640</ele>
        <time>2016-05-11T00:32:28Z</time>
      </trkpt>
      <trkpt lat="44.46443" lon="6.13154">
        <ele>640</ele>
        <time>2016-05-11T00:34:28Z</time>
      </trkpt>
      <trkpt lat="44.46444" lon="6.13134">
        <ele>641</ele>
        <time>2016-05-11T00:36:28Z</time>
      </trkpt>
      <trkpt lat="44.46444" lon="6.13114">
        <ele>643</ele>
        <time>2016-05-11T00:38:28Z</time>
      </trkpt>
      <trkpt lat="44.46445" lon="6.13102">
        <ele>643</ele>
        <time>2016-05-11T00:40:28Z</time>
      </trkpt>
      <trkpt lat="44.46446" lon="6.13092">
        <ele>643</ele>
        <time>2016-05-11T00:42:28Z</time>
      </trkpt>
      <trkpt lat="44.46448" lon="6.13083">
        <ele>643</ele>
        <time>2016-05-11T00:44:28Z</time>
      </trkpt>
      <trkpt lat="44.46451" lon="6.13072">
        <ele>643</ele>
        <time>2016-05-11T00:46:28Z</time>
      </trkpt>
      <trkpt lat="44.46455" lon="6.13063">
        <ele>642</ele>
        <time>2016-05-11T00:48:28Z</time>
      </trkpt>
      <trkpt lat="44.46455" lon="6.13063">
        <ele>642</ele>
        <time>2016-05-11T00:50:28Z</time>
      </trkpt>
      <trkpt lat="44.46461" lon="6.13048">
        <ele>641</ele>
        <time>2016-05-11T00:52:28Z</time>
      </trkpt>
      <trkpt lat="44.46476" lon="6.12996">
        <ele>638</ele>
        <time>2016-05-11T00:54:28Z</time>
      </trkpt>
      <trkpt lat="44.46489" lon="6.12942">
        <ele>640</ele>
        <time>2016-05-11T00:56:28Z</time>
      </trkpt>
      <trkpt lat="44.46496" lon="6.129">
        <ele>641</ele>
        <time>2016-05-11T00:58:28Z</time>
      </trkpt>
      <trkpt lat="44.46496" lon="6.129">
        <ele>641</ele>
        <time>2016-05-11T01:00:28Z</time>
      </trkpt>
      <trkpt lat="44.46503" lon="6.12863">
        <ele>641</ele>
        <time>2016-05-11T01:02:28Z</time>
      </trkpt>
      <trkpt lat="44.46508" lon="6.12825">
        <ele>642</ele>
        <time>2016-05-11T01:04:28Z</time>
      </trkpt>
      <trkpt lat="44.46513" lon="6.1279">
        <ele>641</ele>
        <time>2016-05-11T01:06:28Z</time>
      </trkpt>
      <trkpt lat="44.46515" lon="6.12779">
        <ele>641</ele>
        <time>2016-05-11T01:08:28Z</time>
      </trkpt>
      <trkpt lat="44.46519" lon="6.12766">
        <ele>640</ele>
        <time>2016-05-11T01:10:28Z</time>
      </trkpt>
      <trkpt lat="44.46524" lon="6.12754">
        <ele>639</ele>
        <time>2016-05-11T01:12:28Z</time>
      </trkpt>
      <trkpt lat="44.46528" lon="6.12746">
        <ele>638</ele>
        <time>2016-05-11T01:14:28Z</time>
      </trkpt>
      <trkpt lat="44.46538" lon="6.12722">
        <ele>637</ele>
        <time>2016-05-11T01:16:28Z</time>
      </trkpt>
      <trkpt lat="44.4654" lon="6.12716">
        <ele>636</ele>
        <time>2016-05-11T01:18:28Z</time>
      </trkpt>
      <trkpt lat="44.46541" lon="6.12712">
        <ele>636</ele>
        <time>2016-05-11T01:20:28Z</time>
      </trkpt>
      <trkpt lat="44.46542" lon="6.12705">
        <ele>636</ele>
        <time>2016-05-11T01:22:28Z</time>
      </trkpt>
      <trkpt lat="44.46541" lon="6.12698">
        <ele>636</ele>
        <time>2016-05-11T01:24:28Z</time>
      </trkpt>
      <trkpt lat="44.4654" lon="6.12691">
        <ele>636</ele>
        <time>2016-05-11T01:26:28Z</time>
      </trkpt>
      <trkpt lat="44.46538" lon="6.12685">
        <ele>637</ele>
        <time>2016-05-11T01:28:28Z</time>
      </trkpt>
      <trkpt lat="44.46527" lon="6.12657">
        <ele>639</ele>
        <time>2016-05-11T01:30:28Z</time>
      </trkpt>
      <trkpt lat="44.46522" lon="6.12642">
        <ele>641</ele>
        <time>2016-05-11T01:32:28Z</time>
      </trkpt>
      <trkpt lat="44.46519" lon="6.12637">
        <ele>642</ele>
        <time>2016-05-11T01:34:28Z</time>
      </trkpt>
      <trkpt lat="44.46515" lon="6.12632">
        <ele>643</ele>
        <time>2016-05-11T01:36:28Z</time>
      </trkpt>
      <trkpt lat="44.46511" lon="6.12626">
        <ele>644</ele>
        <time>2016-05-11T01:38:28Z</time>
      </trkpt>
      <trkpt lat="44.46505" lon="6.12622">
        <ele>645</ele>
        <time>2016-05-11T01:40:28Z</time>
      </trkpt>
      <trkpt lat="44.46499" lon="6.12618">
        <ele>646</ele>
        <time>2016-05-11T01:42:28Z</time>
      </trkpt>
      <trkpt lat="44.46495" lon="6.12614">
        <ele>648</ele>
        <time>2016-05-11T01:44:28Z</time>
      </trkpt>
      <trkpt lat="44.46491" lon="6.12608">
        <ele>650</ele>
        <time>2016-05-11T01:46:28Z</time>
      </trkpt>
      <trkpt lat="44.46489" lon="6.126">
        <ele>651</ele>
        <time>2016-05-11T01:48:28Z</time>
      </trkpt>
      <trkpt lat="44.46489" lon="6.12587">
        <ele>651</ele>
        <time>2016-05-11T01:50:28Z</time>
      </trkpt>
      <trkpt lat="44.4649" lon="6.12576">
        <ele>652</ele>
        <time>2016-05-11T01:52:28Z</time>
      </trkpt>
      <trkpt lat="44.46493" lon="6.12565">
        <ele>652</ele>
        <time>2016-05-11T01:54:28Z</time>
      </trkpt>
      <trkpt lat="44.46497" lon="6.12551">
        <ele>652</ele>
        <time>2016-05-11T01:56:28Z</time>
      </trkpt>
      <trkpt lat="44.46508" lon="6.12524">
        <ele>655</ele>
        <time>2016-05-11T01:58:28Z</time>
      </trkpt>
      <trkpt lat="44.46511" lon="6.12518">
        <ele>656</ele>
        <time>2016-05-11T02:00:28Z</time>
      </trkpt>
      <trkpt lat="44.46515" lon="6.12513">
        <ele>657</ele>
        <time>2016-05-11T02:02:28Z</time>
      </trkpt>
      <trkpt lat="44.46519" lon="6.12509">
        <ele>658</ele>
        <time>2016-05-11T02:04:28Z</time>
      </trkpt>
      <trkpt lat="44.46525" lon="6.12506">
        <ele>658</ele>
        <time>2016-05-11T02:06:28Z</time>
      </trkpt>
      <trkpt lat="44.4653" lon="6.12506">
        <ele>659</ele>
        <time>2016-05-11T02:08:28Z</time>
      </trkpt>
      <trkpt lat="44.46535" lon="6.12507">
        <ele>659</ele>
        <time>2016-05-11T02:10:28Z</time>
      </trkpt>
      <trkpt lat="44.46571" lon="6.12519">
        <ele>657</ele>
        <time>2016-05-11T02:12:28Z</time>
      </trkpt>
      <trkpt lat="44.46585" lon="6.12523">
        <ele>656</ele>
        <time>2016-05-11T02:14:28Z</time>
      </trkpt>
      <trkpt lat="44.46601" lon="6.12525">
        <ele>656</ele>
        <time>2016-05-11T02:16:28Z</time>
      </trkpt>
      <trkpt lat="44.46618" lon="6.12526">
        <ele>656</ele>
        <time>2016-05-11T02:18:28Z</time>
      </trkpt>
      <trkpt lat="44.46659" lon="6.12524">
        <ele>658</ele>
        <time>2016-05-11T02:20:28Z</time>
      </trkpt>
      <trkpt lat="44.46662" lon="6.12523">
        <ele>659</ele>
        <time>2016-05-11T02:22:28Z</time>
      </trkpt>
      <trkpt lat="44.46666" lon="6.12521">
        <ele>660</ele>
        <time>2016-05-11T02:24:28Z</time>
      </trkpt>
      <trkpt lat="44.46668" lon="6.1252">
        <ele>660</ele>
        <time>2016-05-11T02:26:28Z</time>
      </trkpt>
      <trkpt lat="44.4667" lon="6.12516">
        <ele>661</ele>
        <time>2016-05-11T02:28:28Z</time>
      </trkpt>
      <trkpt lat="44.46671" lon="6.12512">
        <ele>662</ele>
        <time>2016-05-11T02:30:28Z</time>
      </trkpt>
      <trkpt lat="44.46672" lon="6.12508">
        <ele>663</ele>
        <time>2016-05-11T02:32:28Z</time>
      </trkpt>
      <trkpt lat="44.46672" lon="6.12504">
        <ele>665</ele>
        <time>2016-05-11T02:34:28Z</time>
      </trkpt>
      <trkpt lat="44.46671" lon="6.125">
        <ele>666</ele>
        <time>2016-05-11T02:36:28Z</time>
      </trkpt>
      <trkpt lat="44.46669" lon="6.12496">
        <ele>668</ele>
        <time>2016-05-11T02:38:28Z</time>
      </trkpt>
      <trkpt lat="44.46659" lon="6.12488">
        <ele>670</ele>
        <time>2016-05-11T02:40:28Z</time>
      </trkpt>
      <trkpt lat="44.46649" lon="6.1248">
        <ele>672</ele>
        <time>2016-05-11T02:42:28Z</time>
      </trkpt>
      <trkpt lat="44.46642" lon="6.12475">
        <ele>672</ele>
        <time>2016-05-11T02:44:28Z</time>
      </trkpt>
      <trkpt lat="44.46638" lon="6.12473">
        <ele>673</ele>
        <time>2016-05-11T02:46:28Z</time>
      </trkpt>
      <trkpt lat="44.46626" lon="6.12469">
        <ele>673</ele>
        <time>2016-05-11T02:48:28Z</time>
      </trkpt>
      <trkpt lat="44.46617" lon="6.12467">
        <ele>673</ele>
        <time>2016-05-11T02:50:28Z</time>
      </trkpt>
      <trkpt lat="44.46608" lon="6.12465">
        <ele>673</ele>
        <time>2016-05-11T02:52:28Z</time>
      </trkpt>
      <trkpt lat="44.46602" lon="6.12462">
        <ele>674</ele>
        <time>2016-05-11T02:54:28Z</time>
      </trkpt>
      <trkpt lat="44.46596" lon="6.12459">
        <ele>674</ele>
        <time>2016-05-11T02:56:28Z</time>
      </trkpt>
      <trkpt lat="44.46587" lon="6.12454">
        <ele>675</ele>
        <time>2016-05-11T02:58:28Z</time>
      </trkpt>
      <trkpt lat="44.46581" lon="6.12448">
        <ele>676</ele>
        <time>2016-05-11T03:00:28Z</time>
      </trkpt>
      <trkpt lat="44.46553" lon="6.12413">
        <ele>682</ele>
        <time>2016-05-11T03:02:28Z</time>
      </trkpt>
      <trkpt lat="44.46529" lon="6.12386">
        <ele>683</ele>
        <time>2016-05-11T03:04:28Z</time>
      </trkpt>
      <trkpt lat="44.46524" lon="6.1238">
        <ele>684</ele>
        <time>2016-05-11T03:06:28Z</time>
      </trkpt>
      <trkpt lat="44.46517" lon="6.1237">
        <ele>685</ele>
        <time>2016-05-11T03:08:28Z</time>
      </trkpt>
      <trkpt lat="44.46513" lon="6.12359">
        <ele>687</ele>
        <time>2016-05-11T03:10:28Z</time>
      </trkpt>
      <trkpt lat="44.4651" lon="6.12349">
        <ele>688</ele>
        <time>2016-05-11T03:12:28Z</time>
      </trkpt>
      <trkpt lat="44.46509" lon="6.12339">
        <ele>690</ele>
        <time>2016-05-11T03:14:28Z</time>
      </trkpt>
      <trkpt lat="44.46509" lon="6.1233">
        <ele>692</ele>
        <time>2016-05-11T03:16:28Z</time>
      </trkpt>
      <trkpt lat="44.4651" lon="6.12317">
        <ele>694</ele>
        <time>2016-05-11T03:18:28Z</time>
      </trkpt>
      <trkpt lat="44.46512" lon="6.12307">
        <ele>696</ele>
        <time>2016-05-11T03:20:28Z</time>
      </trkpt>
      <trkpt lat="44.46514" lon="6.12298">
        <ele>697</ele>
        <time>2016-05-11T03:22:28Z</time>
      </trkpt>
      <trkpt lat="44.46517" lon="6.1229">
        <ele>699</ele>
        <time>2016-05-11T03:24:28Z</time>
      </trkpt>
      <trkpt lat="44.46526" lon="6.12254">
        <ele>704</ele>
        <time>2016-05-11T03:26:28Z</time>
      </trkpt>
      <trkpt lat="44.46544" lon="6.12192">
        <ele>708</ele>
        <time>2016-05-11T03:28:28Z</time>
      </trkpt>
      <trkpt lat="44.46549" lon="6.12167">
        <ele>709</ele>
        <time>2016-05-11T03:30:28Z</time>
      </trkpt>
      <trkpt lat="44.46552" lon="6.12153">
        <ele>709</ele>
        <time>2016-05-11T03:32:28Z</time>
      </trkpt>
      <trkpt lat="44.46554" lon="6.12136">
        <ele>710</ele>
        <time>2016-05-11T03:34:28Z</time>
      </trkpt>
      <trkpt lat="44.4656" lon="6.12076">
        <ele>712</ele>
        <time>2016-05-11T03:36:28Z</time>
      </trkpt>
      <trkpt lat="44.46563" lon="6.12059">
        <ele>713</ele>
        <time>2016-05-11T03:38:28Z</time>
      </trkpt>
      <trkpt lat="44.46567" lon="6.12044">
        <ele>713</ele>
        <time>2016-05-11T03:40:28Z</time>
      </trkpt>
      <trkpt lat="44.4657" lon="6.12035">
        <ele>712</ele>
        <time>2016-05-11T03:42:28Z</time>
      </trkpt>
      <trkpt lat="44.4657" lon="6.12035">
        <ele>712</ele>
        <time>2016-05-11T03:44:28Z</time>
      </trkpt>
      <trkpt lat="44.46583" lon="6.12021">
        <ele>709</ele>
        <time>2016-05-11T03:46:28Z</time>
      </trkpt>
      <trkpt lat="44.46591" lon="6.12014">
        <ele>709</ele>
        <time>2016-05-11T03:48:28Z</time>
      </trkpt>
      <trkpt lat="44.46644" lon="6.11969">
        <ele>707</ele>
        <time>2016-05-11T03:50:28Z</time>
      </trkpt>
      <trkpt lat="44.46657" lon="6.11957">
        <ele>705</ele>
        <time>2016-05-11T03:52:28Z</time>
      </trkpt>
      <trkpt lat="44.46672" lon="6.11942">
        <ele>703</ele>
        <time>2016-05-11T03:54:28Z</time>
      </trkpt>
      <trkpt lat="44.46684" lon="6.11929">
        <ele>702</ele>
        <time>2016-05-11T03:56:28Z</time>
      </trkpt>
      <trkpt lat="44.46695" lon="6.11915">
        <ele>701</ele>
        <time>2016-05-11T03:58:28Z</time>
      </trkpt>
      <trkpt lat="44.46706" lon="6.119">
        <ele>701</ele>
        <time>2016-05-11T04:00:28Z</time>
      </trkpt>
      <trkpt lat="44.46767" lon="6.11822">
        <ele>696</ele>
        <time>2016-05-11T04:02:28Z</time>
      </trkpt>
      <trkpt lat="44.46808" lon="6.11768">
        <ele>695</ele>
        <time>2016-05-11T04:04:28Z</time>
      </trkpt>
      <trkpt lat="44.4684" lon="6.1173">
        <ele>693</ele>
        <time>2016-05-11T04:06:28Z</time>
      </trkpt>
      <trkpt lat="44.46853" lon="6.11713">
        <ele>693</ele>
        <time>2016-05-11T04:08:28Z</time>
      </trkpt>
      <trkpt lat="44.46865" lon="6.11694">
        <ele>692</ele>
        <time>2016-05-11T04:10:28Z</time>
      </trkpt>
      <trkpt lat="44.46872" lon="6.11682">
        <ele>692</ele>
        <time>2016-05-11T04:12:28Z</time>
      </trkpt>
      <trkpt lat="44.46878" lon="6.11671">
        <ele>692</ele>
        <time>2016-05-11T04:14:28Z</time>
      </trkpt>
      <trkpt lat="44.46882" lon="6.11663">
        <ele>691</ele>
        <time>2016-05-11T04:16:28Z</time>
      </trkpt>
      <trkpt lat="44.46895" lon="6.11636">
        <ele>691</ele>
        <time>2016-05-11T04:18:28Z</time>
      </trkpt>
      <trkpt lat="44.46902" lon="6.11621">
        <ele>691</ele>
        <time>2016-05-11T04:20:28Z</time>
      </trkpt>
      <trkpt lat="44.46923" lon="6.11586">
        <ele>689</ele>
        <time>2016-05-11T04:22:28Z</time>
      </trkpt>
      <trkpt lat="44.46934" lon="6.11568">
        <ele>687</ele>
        <time>2016-05-11T04:24:28Z</time>
      </trkpt>
      <trkpt lat="44.46939" lon="6.11556">
        <ele>687</ele>
        <time>2016-05-11T04:26:28Z</time>
      </trkpt>
      <trkpt lat="44.46941" lon="6.11546">
        <ele>686</ele>
        <time>2016-05-11T04:28:28Z</time>
      </trkpt>
      <trkpt lat="44.46942" lon="6.11539">
        <ele>686</ele>
        <time>2016-05-11T04:30:28Z</time>
      </trkpt>
      <trkpt lat="44.46942" lon="6.1153">
        <ele>686</ele>
        <time>2016-05-11T04:32:28Z</time>
      </trkpt>
      <trkpt lat="44.46941" lon="6.11519">
        <ele>686</ele>
        <time>2016-05-11T04:34:28Z</time>
      </trkpt>
      <trkpt lat="44.46939" lon="6.11509">
        <ele>687</ele>
        <time>2016-05-11T04:36:28Z</time>
      </trkpt>
      <trkpt lat="44.46938" lon="6.115">
        <ele>687</ele>
        <time>2016-05-11T04:38:28Z</time>
      </trkpt>
      <trkpt lat="44.46938" lon="6.1149">
        <ele>686</ele>
        <time>2016-05-11T04:40:28Z</time>
      </trkpt>
      <trkpt lat="44.4694" lon="6.11474">
        <ele>684</ele>
        <time>2016-05-11T04:42:28Z</time>
      </trkpt>
      <trkpt lat="44.46948" lon="6.11432">
        <ele>678</ele>
        <time>2016-05-11T04:44:28Z</time>
      </trkpt>
      <trkpt lat="44.4695" lon="6.1142">
        <ele>677</ele>
        <time>2016-05-11T04:46:28Z</time>
      </trkpt>
      <trkpt lat="44.46951" lon="6.11413">
        <ele>676</ele>
        <time>2016-05-11T04:48:28Z</time>
      </trkpt>
      <trkpt lat="44.4695" lon="6.11405">
        <ele>675</ele>
        <time>2016-05-11T04:50:28Z</time>
      </trkpt>
      <trkpt lat="44.46946" lon="6.11389">
        <ele>675</ele>
        <time>2016-05-11T04:52:28Z</time>
      </trkpt>
      <trkpt lat="44.4694" lon="6.11366">
        <ele>674</ele>
        <time>2016-05-11T04:54:28Z</time>
      </trkpt>
      <trkpt lat="44.46937" lon="6.1135">
        <ele>673</ele>
        <time>2016-05-11T04:56:28Z</time>
      </trkpt>
      <trkpt lat="44.46934" lon="6.11334">
        <ele>671</ele>
        <time>2016-05-11T04:58:28Z</time>
      </trkpt>
      <trkpt lat="44.46931" lon="6.1132">
        <ele>673</ele>
        <time>2016-05-11T05:00:28Z</time>
      </trkpt>
      <trkpt lat="44.46928" lon="6.1131">
        <ele>674</ele>
        <time>2016-05-11T05:02:28Z</time>
      </trkpt>
      <trkpt lat="44.46928" lon="6.113">
        <ele>675</ele>
        <time>2016-05-11T05:04:28Z</time>
      </trkpt>
      <trkpt lat="44.46928" lon="6.113">
        <ele>675</ele>
        <time>2016-05-11T05:06:28Z</time>
      </trkpt>
      <trkpt lat="44.46934" lon="6.11298">
        <ele>674</ele>
        <time>2016-05-11T05:08:28Z</time>
      </trkpt>
      <trkpt lat="44.46966" lon="6.11283">
        <ele>671</ele>
        <time>2016-05-11T05:10:28Z</time>
      </trkpt>
      <trkpt lat="44.46986" lon="6.11277">
        <ele>668</ele>
        <time>2016-05-11T05:12:28Z</time>
      </trkpt>
      <trkpt lat="44.4699" lon="6.11276">
        <ele>667</ele>
        <time>2016-05-11T05:14:28Z</time>
      </trkpt>
      <trkpt lat="44.47028" lon="6.11264">
        <ele>662</ele>
        <time>2016-05-11T05:16:28Z</time>
      </trkpt>
      <trkpt lat="44.47052" lon="6.11258">
        <ele>659</ele>
        <time>2016-05-11T05:18:28Z</time>
      </trkpt>
      <trkpt lat="44.47074" lon="6.11257">
        <ele>656</ele>
        <time>2016-05-11T05:20:28Z</time>
      </trkpt>
      <trkpt lat="44.47092" lon="6.1126">
        <ele>655</ele>
        <time>2016-05-11T05:22:28Z</time>
      </trkpt>
      <trkpt lat="44.47107" lon="6.1126">
        <ele>653</ele>
        <time>2016-05-11T05:24:28Z</time>
      </trkpt>
      <trkpt lat="44.47116" lon="6.1126">
        <ele>652</ele>
        <time>2016-05-11T05:26:28Z</time>
      </trkpt>
      <trkpt lat="44.47128" lon="6.11259">
        <ele>651</ele>
        <time>2016-05-11T05:28:28Z</time>
      </trkpt>
      <trkpt lat="44.4714" lon="6.11258">
        <ele>650</ele>
        <time>2016-05-11T05:30:28Z</time>
      </trkpt>
      <trkpt lat="44.4715" lon="6.11257">
        <ele>650</ele>
        <time>2016-05-11T05:32:28Z</time>
      </trkpt>
      <trkpt lat="44.47153" lon="6.11256">
        <ele>649</ele>
        <time>2016-05-11T05:34:28Z</time>
      </trkpt>
      <trkpt lat="44.4718" lon="6.11251">
        <ele>647</ele>
        <time>2016-05-11T05:36:28Z</time>
      </trkpt>
      <trkpt lat="44.47206" lon="6.11243">
        <ele>644</ele>
        <time>2016-05-11T05:38:28Z</time>
      </trkpt>
      <trkpt lat="44.47232" lon="6.11238">
        <ele>642</ele>
        <time>2016-05-11T05:40:28Z</time>
      </trkpt>
      <trkpt lat="44.47241" lon="6.11236">
        <ele>641</ele>
        <time>2016-05-11T05:42:28Z</time>
      </trkpt>
      <trkpt lat="44.4726" lon="6.11234">
        <ele>640</ele>
        <time>2016-05-11T05:44:28Z</time>
      </trkpt>
      <trkpt lat="44.47279" lon="6.11231">
        <ele>638</ele>
        <time>2016-05-11T05:46:28Z</time>
      </trkpt>
      <trkpt lat="44.47286" lon="6.1123">
        <ele>638</ele>
        <time>2016-05-11T05:48:28Z</time>
      </trkpt>
      <trkpt lat="44.4732" lon="6.11226">
        <ele>636</ele>
        <time>2016-05-11T05:50:28Z</time>
      </trkpt>
      <trkpt lat="44.47365" lon="6.1122">
        <ele>631</ele>
        <time>2016-05-11T05:52:28Z</time>
      </trkpt>
      <trkpt lat="44.47418" lon="6.11212">
        <ele>626</ele>
        <time>2016-05-11T05:54:28Z</time>
      </trkpt>
      <trkpt lat="44.47467" lon="6.11203">
        <ele>623</ele>
        <time>2016-05-11T05:56:28Z</time>
      </trkpt>
      <trkpt lat="44.47482" lon="6.112">
        <ele>622</ele>
        <time>2016-05-11T05:58:28Z</time>
      </trkpt>
      <trkpt lat="44.47513" lon="6.11195">
        <ele>620</ele>
        <time>2016-05-11T06:00:28Z</time>
      </trkpt>
      <trkpt lat="44.47538" lon="6.11192">
        <ele>619</ele>
        <time>2016-05-11T06:02:28Z</time>
      </trkpt>
      <trkpt lat="44.47567" lon="6.11187">
        <ele>617</ele>
        <time>2016-05-11T06:04:28Z</time>
      </trkpt>
      <trkpt lat="44.47572" lon="6.11186">
        <ele>617</ele>
        <time>2016-05-11T06:06:28Z</time>
      </trkpt>
      <trkpt lat="44.47576" lon="6.11186">
        <ele>617</ele>
        <time>2016-05-11T06:08:28Z</time>
      </trkpt>
      <trkpt lat="44.47585" lon="6.11185">
        <ele>617</ele>
        <time>2016-05-11T06:10:28Z</time>
      </trkpt>
      <trkpt lat="44.47606" lon="6.11181">
        <ele>623</ele>
        <time>2016-05-11T06:12:28Z</time>
      </trkpt>
      <trkpt lat="44.47609" lon="6.1118">
        <ele>623</ele>
        <time>2016-05-11T06:14:28Z</time>
      </trkpt>
      <trkpt lat="44.47613" lon="6.11175">
        <ele>624</ele>
        <time>2016-05-11T06:16:28Z</time>
      </trkpt>
      <trkpt lat="44.47616" lon="6.11168">
        <ele>625</ele>
        <time>2016-05-11T06:18:28Z</time>
      </trkpt>
      <trkpt lat="44.47622" lon="6.11142">
        <ele>625</ele>
        <time>2016-05-11T06:20:28Z</time>
      </trkpt>
      <trkpt lat="44.47636" lon="6.11076">
        <ele>625</ele>
        <time>2016-05-11T06:22:28Z</time>
      </trkpt>
      <trkpt lat="44.47647" lon="6.1103">
        <ele>625</ele>
        <time>2016-05-11T06:24:28Z</time>
      </trkpt>
      <trkpt lat="44.47651" lon="6.11014">
        <ele>625</ele>
        <time>2016-05-11T06:26:28Z</time>
      </trkpt>
      <trkpt lat="44.47657" lon="6.10986">
        <ele>625</ele>
        <time>2016-05-11T06:28:28Z</time>
      </trkpt>
      <trkpt lat="44.47658" lon="6.10982">
        <ele>625</ele>
        <time>2016-05-11T06:30:28Z</time>
      </trkpt>
      <trkpt lat="44.47659" lon="6.1098">
        <ele>625</ele>
        <time>2016-05-11T06:32:28Z</time>
      </trkpt>
      <trkpt lat="44.47661" lon="6.1098">
        <ele>625</ele>
        <time>2016-05-11T06:34:28Z</time>
      </trkpt>
      <trkpt lat="44.47665" lon="6.10981">
        <ele>626</ele>
        <time>2016-05-11T06:36:28Z</time>
      </trkpt>
      <trkpt lat="44.47665" lon="6.10981">
        <ele>626</ele>
        <time>2016-05-11T06:38:28Z</time>
      </trkpt>
      <trkpt lat="44.4767" lon="6.10985">
        <ele>627</ele>
        <time>2016-05-11T06:40:28Z</time>
      </trkpt>
      <trkpt lat="44.4768" lon="6.10993">
        <ele>628</ele>
        <time>2016-05-11T06:42:28Z</time>
      </trkpt>
      <trkpt lat="44.47698" lon="6.11012">
        <ele>631</ele>
        <time>2016-05-11T06:44:28Z</time>
      </trkpt>
      <trkpt lat="44.47712" lon="6.11027">
        <ele>633</ele>
        <time>2016-05-11T06:46:28Z</time>
      </trkpt>
      <trkpt lat="44.47717" lon="6.11032">
        <ele>634</ele>
        <time>2016-05-11T06:48:28Z</time>
      </trkpt>
      <trkpt lat="44.47726" lon="6.11039">
        <ele>636</ele>
        <time>2016-05-11T06:50:28Z</time>
      </trkpt>
      <trkpt lat="44.47748" lon="6.11061">
        <ele>640</ele>
        <time>2016-05-11T06:52:28Z</time>
      </trkpt>
      <trkpt lat="44.47766" lon="6.1108">
        <ele>642</ele>
        <time>2016-05-11T06:54:28Z</time>
      </trkpt>
      <trkpt lat="44.4778" lon="6.11094">
        <ele>644</ele>
        <time>2016-05-11T06:56:28Z</time>
      </trkpt>
      <trkpt lat="44.47793" lon="6.11108">
        <ele>646</ele>
        <time>2016-05-11T06:58:28Z</time>
      </trkpt>
      <trkpt lat="44.478" lon="6.11114">
        <ele>647</ele>
        <time>2016-05-11T07:00:28Z</time>
      </trkpt>
      <trkpt lat="44.47805" lon="6.11116">
        <ele>648</ele>
        <time>2016-05-11T07:02:28Z</time>
      </trkpt>
      <trkpt lat="44.47816" lon="6.11119">
        <ele>649</ele>
        <time>2016-05-11T07:04:28Z</time>
      </trkpt>
      <trkpt lat="44.47827" lon="6.11122">
        <ele>650</ele>
        <time>2016-05-11T07:06:28Z</time>
      </trkpt>
      <trkpt lat="44.47846" lon="6.11126">
        <ele>651</ele>
        <time>2016-05-11T07:08:28Z</time>
      </trkpt>
      <trkpt lat="44.4786" lon="6.1113">
        <ele>652</ele>
        <time>2016-05-11T07:10:28Z</time>
      </trkpt>
      <trkpt lat="44.47874" lon="6.11133">
        <ele>653</ele>
        <time>2016-05-11T07:12:28Z</time>
      </trkpt>
      <trkpt lat="44.47883" lon="6.11135">
        <ele>654</ele>
        <time>2016-05-11T07:14:28Z</time>
      </trkpt>
      <trkpt lat="44.47894" lon="6.11139">
        <ele>655</ele>
        <time>2016-05-11T07:16:28Z</time>
      </trkpt>
      <trkpt lat="44.47912" lon="6.11146">
        <ele>657</ele>
        <time>2016-05-11T07:18:28Z</time>
      </trkpt>
      <trkpt lat="44.47926" lon="6.11151">
        <ele>658</ele>
        <time>2016-05-11T07:20:28Z</time>
      </trkpt>
      <trkpt lat="44.47942" lon="6.11159">
        <ele>660</ele>
        <time>2016-05-11T07:22:28Z</time>
      </trkpt>
      <trkpt lat="44.47954" lon="6.1116">
        <ele>660</ele>
        <time>2016-05-11T07:24:28Z</time>
      </trkpt>
      <trkpt lat="44.47959" lon="6.11163">
        <ele>660</ele>
        <time>2016-05-11T07:26:28Z</time>
      </trkpt>
      <trkpt lat="44.47965" lon="6.11166">
        <ele>661</ele>
        <time>2016-05-11T07:28:28Z</time>
      </trkpt>
      <trkpt lat="44.47976" lon="6.11166">
        <ele>661</ele>
        <time>2016-05-11T07:30:28Z</time>
      </trkpt>
      <trkpt lat="44.47985" lon="6.11166">
        <ele>661</ele>
        <time>2016-05-11T07:32:28Z</time>
      </trkpt>
      <trkpt lat="44.47997" lon="6.11164">
        <ele>661</ele>
        <time>2016-05-11T07:34:28Z</time>
      </trkpt>
      <trkpt lat="44.48007" lon="6.11162">
        <ele>661</ele>
        <time>2016-05-11T07:36:28Z</time>
      </trkpt>
      <trkpt lat="44.48017" lon="6.11158">
        <ele>661</ele>
        <time>2016-05-11T07:38:28Z</time>
      </trkpt>
      <trkpt lat="44.48023" lon="6.11156">
        <ele>661</ele>
        <time>2016-05-11T07:40:28Z</time>
      </trkpt>
      <trkpt lat="44.4803" lon="6.11153">
        <ele>661</ele>
        <time>2016-05-11T07:42:28Z</time>
      </trkpt>
      <trkpt lat="44.48046" lon="6.11146">
        <ele>661</ele>
        <time>2016-05-11T07:44:28Z</time>
      </trkpt>
      <trkpt lat="44.4807" lon="6.11138">
        <ele>662</ele>
        <time>2016-05-11T07:46:28Z</time>
      </trkpt>
      <trkpt lat="44.4809" lon="6.11131">
        <ele>663</ele>
        <time>2016-05-11T07:48:28Z</time>
      </trkpt>
      <trkpt lat="44.48104" lon="6.11126">
        <ele>662</ele>
        <time>2016-05-11T07:50:28Z</time>
      </trkpt>
      <trkpt lat="44.48121" lon="6.11124">
        <ele>662</ele>
        <time>2016-05-11T07:52:28Z</time>
      </trkpt>
      <trkpt lat="44.48124" lon="6.11124">
        <ele>662</ele>
        <time>2016-05-11T07:54:28Z</time>
      </trkpt>
      <trkpt lat="44.48133" lon="6.11126">
        <ele>663</ele>
        <time>2016-05-11T07:56:28Z</time>
      </trkpt>
      <trkpt lat="44.48142" lon="6.1113">
        <ele>663</ele>
        <time>2016-05-11T07:58:28Z</time>
      </trkpt>
      <trkpt lat="44.48151" lon="6.11137">
        <ele>664</ele>
        <time>2016-05-11T08:00:28Z</time>
      </trkpt>
      <trkpt lat="44.48162" lon="6.11151">
        <ele>665</ele>
        <time>2016-05-11T08:02:28Z</time>
      </trkpt>
      <trkpt lat="44.48173" lon="6.11167">
        <ele>666</ele>
        <time>2016-05-11T08:04:28Z</time>
      </trkpt>
      <trkpt lat="44.48181" lon="6.11179">
        <ele>667</ele>
        <time>2016-05-11T08:06:28Z</time>
      </trkpt>
      <trkpt lat="44.48192" lon="6.11195">
        <ele>668</ele>
        <time>2016-05-11T08:08:28Z</time>
      </trkpt>
      <trkpt lat="44.482" lon="6.11204">
        <ele>669</ele>
        <time>2016-05-11T08:10:28Z</time>
      </trkpt>
      <trkpt lat="44.48216" lon="6.1122">
        <ele>670</ele>
        <time>2016-05-11T08:12:28Z</time>
      </trkpt>
      <trkpt lat="44.48231" lon="6.11235">
        <ele>671</ele>
        <time>2016-05-11T08:14:28Z</time>
      </trkpt>
      <trkpt lat="44.48252" lon="6.11253">
        <ele>672</ele>
        <time>2016-05-11T08:16:28Z</time>
      </trkpt>
      <trkpt lat="44.48272" lon="6.1127">
        <ele>670</ele>
        <time>2016-05-11T08:18:28Z</time>
      </trkpt>
      <trkpt lat="44.48285" lon="6.11283">
        <ele>669</ele>
        <time>2016-05-11T08:20:28Z</time>
      </trkpt>
      <trkpt lat="44.48308" lon="6.11308">
        <ele>669</ele>
        <time>2016-05-11T08:22:28Z</time>
      </trkpt>
      <trkpt lat="44.48324" lon="6.11329">
        <ele>669</ele>
        <time>2016-05-11T08:24:28Z</time>
      </trkpt>
      <trkpt lat="44.48334" lon="6.11346">
        <ele>670</ele>
        <time>2016-05-11T08:26:28Z</time>
      </trkpt>
      <trkpt lat="44.48339" lon="6.11358">
        <ele>671</ele>
        <time>2016-05-11T08:28:28Z</time>
      </trkpt>
      <trkpt lat="44.48348" lon="6.11376">
        <ele>672</ele>
        <time>2016-05-11T08:30:28Z</time>
      </trkpt>
      <trkpt lat="44.4837" lon="6.1141">
        <ele>670</ele>
        <time>2016-05-11T08:32:28Z</time>
      </trkpt>
      <trkpt lat="44.48382" lon="6.11426">
        <ele>669</ele>
        <time>2016-05-11T08:34:28Z</time>
      </trkpt>
      <trkpt lat="44.48392" lon="6.11443">
        <ele>669</ele>
        <time>2016-05-11T08:36:28Z</time>
      </trkpt>
      <trkpt lat="44.484" lon="6.11454">
        <ele>668</ele>
        <time>2016-05-11T08:38:28Z</time>
      </trkpt>
      <trkpt lat="44.48404" lon="6.11463">
        <ele>669</ele>
        <time>2016-05-11T08:40:28Z</time>
      </trkpt>
      <trkpt lat="44.48412" lon="6.1148">
        <ele>669</ele>
        <time>2016-05-11T08:42:28Z</time>
      </trkpt>
      <trkpt lat="44.48422" lon="6.11501">
        <ele>670</ele>
        <time>2016-05-11T08:44:28Z</time>
      </trkpt>
      <trkpt lat="44.48429" lon="6.11523">
        <ele>673</ele>
        <time>2016-05-11T08:46:28Z</time>
      </trkpt>
      <trkpt lat="44.48434" lon="6.11535">
        <ele>674</ele>
        <time>2016-05-11T08:48:28Z</time>
      </trkpt>
      <trkpt lat="44.4844" lon="6.11545">
        <ele>674</ele>
        <time>2016-05-11T08:50:28Z</time>
      </trkpt>
      <trkpt lat="44.48446" lon="6.11551">
        <ele>673</ele>
        <time>2016-05-11T08:52:28Z</time>
      </trkpt>
      <trkpt lat="44.48454" lon="6.11561">
        <ele>672</ele>
        <time>2016-05-11T08:54:28Z</time>
      </trkpt>
      <trkpt lat="44.48465" lon="6.11579">
        <ele>670</ele>
        <time>2016-05-11T08:56:28Z</time>
      </trkpt>
      <trkpt lat="44.48471" lon="6.11592">
        <ele>670</ele>
        <time>2016-05-11T08:58:28Z</time>
      </trkpt>
      <trkpt lat="44.48482" lon="6.11622">
        <ele>672</ele>
        <time>2016-05-11T09:00:28Z</time>
      </trkpt>
      <trkpt lat="44.48493" lon="6.11651">
        <ele>672</ele>
        <time>2016-05-11T09:02:28Z</time>
      </trkpt>
      <trkpt lat="44.48499" lon="6.1167">
        <ele>672</ele>
        <time>2016-05-11T09:04:28Z</time>
      </trkpt>
      <trkpt lat="44.48518" lon="6.11715">
        <ele>675</ele>
        <time>2016-05-11T09:06:28Z</time>
      </trkpt>
      <trkpt lat="44.48528" lon="6.11733">
        <ele>675</ele>
        <time>2016-05-11T09:08:28Z</time>
      </trkpt>
      <trkpt lat="44.48543" lon="6.11754">
        <ele>673</ele>
        <time>2016-05-11T09:10:28Z</time>
      </trkpt>
      <trkpt lat="44.48558" lon="6.11775">
        <ele>671</ele>
        <time>2016-05-11T09:12:28Z</time>
      </trkpt>
      <trkpt lat="44.4857" lon="6.11795">
        <ele>669</ele>
        <time>2016-05-11T09:14:28Z</time>
      </trkpt>
      <trkpt lat="44.48574" lon="6.11806">
        <ele>669</ele>
        <time>2016-05-11T09:16:28Z</time>
      </trkpt>
      <trkpt lat="44.48578" lon="6.11827">
        <ele>670</ele>
        <time>2016-05-11T09:18:28Z</time>
      </trkpt>
      <trkpt lat="44.4858" lon="6.11836">
        <ele>670</ele>
        <time>2016-05-11T09:20:28Z</time>
      </trkpt>
      <trkpt lat="44.48583" lon="6.11843">
        <ele>670</ele>
        <time>2016-05-11T09:22:28Z</time>
      </trkpt>
      <trkpt lat="44.48586" lon="6.11847">
        <ele>670</ele>
        <time>2016-05-11T09:24:28Z</time>
      </trkpt>
      <trkpt lat="44.48592" lon="6.11853">
        <ele>669</ele>
        <time>2016-05-11T09:26:28Z</time>
      </trkpt>
      <trkpt lat="44.48597" lon="6.1186">
        <ele>669</ele>
        <time>2016-05-11T09:28:28Z</time>
      </trkpt>
      <trkpt lat="44.48604" lon="6.11871">
        <ele>669</ele>
        <time>2016-05-11T09:30:28Z</time>
      </trkpt>
      <trkpt lat="44.48611" lon="6.11892">
        <ele>669</ele>
        <time>2016-05-11T09:32:28Z</time>
      </trkpt>
      <trkpt lat="44.48615" lon="6.1191">
        <ele>669</ele>
        <time>2016-05-11T09:34:28Z</time>
      </trkpt>
      <trkpt lat="44.48618" lon="6.11933">
        <ele>670</ele>
        <time>2016-05-11T09:36:28Z</time>
      </trkpt>
      <trkpt lat="44.48622" lon="6.11969">
        <ele>669</ele>
        <time>2016-05-11T09:38:28Z</time>
      </trkpt>
      <trkpt lat="44.48624" lon="6.12006">
        <ele>669</ele>
        <time>2016-05-11T09:40:28Z</time>
      </trkpt>
      <trkpt lat="44.48627" lon="6.12037">
        <ele>669</ele>
        <time>2016-05-11T09:42:28Z</time>
      </trkpt>
      <trkpt lat="44.48629" lon="6.12057">
        <ele>668</ele>
        <time>2016-05-11T09:44:28Z</time>
      </trkpt>
      <trkpt lat="44.48634" lon="6.12098">
        <ele>668</ele>
        <time>2016-05-11T09:46:28Z</time>
      </trkpt>
      <trkpt lat="44.48638" lon="6.12125">
        <ele>669</ele>
        <time>2016-05-11T09:48:28Z</time>
      </trkpt>
      <trkpt lat="44.48639" lon="6.12135">
        <ele>669</ele>
        <time>2016-05-11T09:50:28Z</time>
      </trkpt>
      <trkpt lat="44.4864" lon="6.12146">
        <ele>669</ele>
        <time>2016-05-11T09:52:28Z</time>
      </trkpt>
      <trkpt lat="44.48647" lon="6.12171">
        <ele>669</ele>
        <time>2016-05-11T09:54:28Z</time>
      </trkpt>
      <trkpt lat="44.48659" lon="6.12212">
        <ele>670</ele>
        <time>2016-05-11T09:56:28Z</time>
      </trkpt>
      <trkpt lat="44.48666" lon="6.1224">
        <ele>670</ele>
        <time>2016-05-11T09:58:28Z</time>
      </trkpt>
      <trkpt lat="44.48673" lon="6.12262">
        <ele>671</ele>
        <time>2016-05-11T10:00:28Z</time>
      </trkpt>
      <trkpt lat="44.48692" lon="6.12302">
        <ele>671</ele>
        <time>2016-05-11T10:02:28Z</time>
      </trkpt>
      <trkpt lat="44.48699" lon="6.12319">
        <ele>671</ele>
        <time>2016-05-11T10:04:28Z</time>
      </trkpt>
      <trkpt lat="44.4871" lon="6.12351">
        <ele>672</ele>
        <time>2016-05-11T10:06:28Z</time>
      </trkpt>
      <trkpt lat="44.48722" lon="6.12381">
        <ele>671</ele>
        <time>2016-05-11T10:08:28Z</time>
      </trkpt>
      <trkpt lat="44.48726" lon="6.12391">
        <ele>671</ele>
        <time>2016-05-11T10:10:28Z</time>
      </trkpt>
      <trkpt lat="44.4873" lon="6.12399">
        <ele>671</ele>
        <time>2016-05-11T10:12:28Z</time>
      </trkpt>
      <trkpt lat="44.48747" lon="6.12431">
        <ele>672</ele>
        <time>2016-05-11T10:14:28Z</time>
      </trkpt>
      <trkpt lat="44.48755" lon="6.12448">
        <ele>672</ele>
        <time>2016-05-11T10:16:28Z</time>
      </trkpt>
      <trkpt lat="44.48762" lon="6.12466">
        <ele>672</ele>
        <time>2016-05-11T10:18:28Z</time>
      </trkpt>
      <trkpt lat="44.48771" lon="6.12499">
        <ele>674</ele>
        <time>2016-05-11T10:20:28Z</time>
      </trkpt>
      <trkpt lat="44.48779" lon="6.12538">
        <ele>677</ele>
        <time>2016-05-11T10:22:28Z</time>
      </trkpt>
      <trkpt lat="44.48782" lon="6.12562">
        <ele>679</ele>
        <time>2016-05-11T10:24:28Z</time>
      </trkpt>
      <trkpt lat="44.48786" lon="6.1258">
        <ele>681</ele>
        <time>2016-05-11T10:26:28Z</time>
      </trkpt>
      <trkpt lat="44.4879" lon="6.12596">
        <ele>683</ele>
        <time>2016-05-11T10:28:28Z</time>
      </trkpt>
      <trkpt lat="44.48791" lon="6.12611">
        <ele>685</ele>
        <time>2016-05-11T10:30:28Z</time>
      </trkpt>
      <trkpt lat="44.48791" lon="6.12621">
        <ele>686</ele>
        <time>2016-05-11T10:32:28Z</time>
      </trkpt>
      <trkpt lat="44.48791" lon="6.12628">
        <ele>687</ele>
        <time>2016-05-11T10:34:28Z</time>
      </trkpt>
      <trkpt lat="44.48791" lon="6.12628">
        <ele>687</ele>
        <time>2016-05-11T10:36:28Z</time>
      </trkpt>
      <trkpt lat="44.48798" lon="6.12636">
        <ele>687</ele>
        <time>2016-05-11T10:38:28Z</time>
      </trkpt>
      <trkpt lat="44.48806" lon="6.12644">
        <ele>687</ele>
        <time>2016-05-11T10:40:28Z</time>
      </trkpt>
      <trkpt lat="44.48815" lon="6.12652">
        <ele>687</ele>
        <time>2016-05-11T10:42:28Z</time>
      </trkpt>
      <trkpt lat="44.48833" lon="6.12667">
        <ele>686</ele>
        <time>2016-05-11T10:44:28Z</time>
      </trkpt>
      <trkpt lat="44.48852" lon="6.12685">
        <ele>686</ele>
        <time>2016-05-11T10:46:28Z</time>
      </trkpt>
      <trkpt lat="44.48863" lon="6.12692">
        <ele>685</ele>
        <time>2016-05-11T10:48:28Z</time>
      </trkpt>
      <trkpt lat="44.4887" lon="6.12699">
        <ele>685</ele>
        <time>2016-05-11T10:50:28Z</time>
      </trkpt>
      <trkpt lat="44.48881" lon="6.12713">
        <ele>685</ele>
        <time>2016-05-11T10:52:28Z</time>
      </trkpt>
      <trkpt lat="44.48887" lon="6.12721">
        <ele>685</ele>
        <time>2016-05-11T10:54:28Z</time>
      </trkpt>
      <trkpt lat="44.4889" lon="6.12728">
        <ele>686</ele>
        <time>2016-05-11T10:56:28Z</time>
      </trkpt>
      <trkpt lat="44.48896" lon="6.12739">
        <ele>687</ele>
        <time>2016-05-11T10:58:28Z</time>
      </trkpt>
      <trkpt lat="44.48906" lon="6.12755">
        <ele>688</ele>
        <time>2016-05-11T11:00:28Z</time>
      </trkpt>
      <trkpt lat="44.48913" lon="6.12764">
        <ele>688</ele>
        <time>2016-05-11T11:02:28Z</time>
      </trkpt>
      <trkpt lat="44.48924" lon="6.12774">
        <ele>689</ele>
        <time>2016-05-11T11:04:28Z</time>
      </trkpt>
      <trkpt lat="44.48939" lon="6.12786">
        <ele>689</ele>
        <time>2016-05-11T11:06:28Z</time>
      </trkpt>
      <trkpt lat="44.48948" lon="6.12794">
        <ele>689</ele>
        <time>2016-05-11T11:08:28Z</time>
      </trkpt>
      <trkpt lat="44.48963" lon="6.12804">
        <ele>688</ele>
        <time>2016-05-11T11:10:28Z</time>
      </trkpt>
      <trkpt lat="44.48969" lon="6.12807">
        <ele>687</ele>
        <time>2016-05-11T11:12:28Z</time>
      </trkpt>
      <trkpt lat="44.48971" lon="6.12808">
        <ele>687</ele>
        <time>2016-05-11T11:14:28Z</time>
      </trkpt>
      <trkpt lat="44.48972" lon="6.12809">
        <ele>687</ele>
        <time>2016-05-11T11:16:28Z</time>
      </trkpt>
      <trkpt lat="44.48974" lon="6.12809">
        <ele>687</ele>
        <time>2016-05-11T11:18:28Z</time>
      </trkpt>
      <trkpt lat="44.48979" lon="6.12814">
        <ele>687</ele>
        <time>2016-05-11T11:20:28Z</time>
      </trkpt>
      <trkpt lat="44.4898" lon="6.12816">
        <ele>687</ele>
        <time>2016-05-11T11:22:28Z</time>
      </trkpt>
      <trkpt lat="44.48982" lon="6.12819">
        <ele>687</ele>
        <time>2016-05-11T11:24:28Z</time>
      </trkpt>
      <trkpt lat="44.48993" lon="6.12833">
        <ele>686</ele>
        <time>2016-05-11T11:26:28Z</time>
      </trkpt>
      <trkpt lat="44.49005" lon="6.12852">
        <ele>687</ele>
        <time>2016-05-11T11:28:28Z</time>
      </trkpt>
      <trkpt lat="44.49012" lon="6.12864">
        <ele>687</ele>
        <time>2016-05-11T11:30:28Z</time>
      </trkpt>
      <trkpt lat="44.49021" lon="6.12878">
        <ele>687</ele>
        <time>2016-05-11T11:32:28Z</time>
      </trkpt>
      <trkpt lat="44.49026" lon="6.12889">
        <ele>687</ele>
        <time>2016-05-11T11:34:28Z</time>
      </trkpt>
      <trkpt lat="44.49032" lon="6.12895">
        <ele>686</ele>
        <time>2016-05-11T11:36:28Z</time>
      </trkpt>
      <trkpt lat="44.49036" lon="6.12896">
        <ele>685</ele>
        <time>2016-05-11T11:38:28Z</time>
      </trkpt>
      <trkpt lat="44.49042" lon="6.12894">
        <ele>684</ele>
        <time>2016-05-11T11:40:28Z</time>
      </trkpt>
      <trkpt lat="44.49043" lon="6.12893">
        <ele>683</ele>
        <time>2016-05-11T11:42:28Z</time>
      </trkpt>
      <trkpt lat="44.49045" lon="6.12888">
        <ele>682</ele>
        <time>2016-05-11T11:44:28Z</time>
      </trkpt>
      <trkpt lat="44.49046" lon="6.12881">
        <ele>682</ele>
        <time>2016-05-11T11:46:28Z</time>
      </trkpt>
      <trkpt lat="44.49045" lon="6.12875">
        <ele>681</ele>
        <time>2016-05-11T11:48:28Z</time>
      </trkpt>
      <trkpt lat="44.49044" lon="6.12868">
        <ele>681</ele>
        <time>2016-05-11T11:50:28Z</time>
      </trkpt>
      <trkpt lat="44.49043" lon="6.12856">
        <ele>680</ele>
        <time>2016-05-11T11:52:28Z</time>
      </trkpt>
      <trkpt lat="44.49042" lon="6.12846">
        <ele>679</ele>
        <time>2016-05-11T11:54:28Z</time>
      </trkpt>
      <trkpt lat="44.49043" lon="6.12836">
        <ele>678</ele>
        <time>2016-05-11T11:56:28Z</time>
      </trkpt>
      <trkpt lat="44.49045" lon="6.12823">
        <ele>677</ele>
        <time>2016-05-11T11:58:28Z</time>
      </trkpt>
      <trkpt lat="44.49053" lon="6.12789">
        <ele>674</ele>
        <time>2016-05-11T12:00:28Z</time>
      </trkpt>
      <trkpt lat="44.49056" lon="6.12784">
        <ele>674</ele>
        <time>2016-05-11T12:02:28Z</time>
      </trkpt>
      <trkpt lat="44.49058" lon="6.12779">
        <ele>673</ele>
        <time>2016-05-11T12:04:28Z</time>
      </trkpt>
      <trkpt lat="44.49075" lon="6.12761">
        <ele>671</ele>
        <time>2016-05-11T12:06:28Z</time>
      </trkpt>
      <trkpt lat="44.4908" lon="6.12756">
        <ele>670</ele>
        <time>2016-05-11T12:08:28Z</time>
      </trkpt>
      <trkpt lat="44.49087" lon="6.12747">
        <ele>670</ele>
        <time>2016-05-11T12:10:28Z</time>
      </trkpt>
      <trkpt lat="44.49094" lon="6.12735">
        <ele>671</ele>
        <time>2016-05-11T12:12:28Z</time>
      </trkpt>
      <trkpt lat="44.49103" lon="6.12712">
        <ele>672</ele>
        <time>2016-05-11T12:14:28Z</time>
      </trkpt>
      <trkpt lat="44.49109" lon="6.12697">
        <ele>673</ele>
        <time>2016-05-11T12:16:28Z</time>
      </trkpt>
      <trkpt lat="44.49121" lon="6.12667">
        <ele>675</ele>
        <time>2016-05-11T12:18:28Z</time>
      </trkpt>
      <trkpt lat="44.49123" lon="6.12662">
        <ele>675</ele>
        <time>2016-05-11T12:20:28Z</time>
      </trkpt>
      <trkpt lat="44.49126" lon="6.12659">
        <ele>676</ele>
        <time>2016-05-11T12:22:28Z</time>
      </trkpt>
      <trkpt lat="44.49137" lon="6.12638">
        <ele>677</ele>
        <time>2016-05-11T12:24:28Z</time>
      </trkpt>
      <trkpt lat="44.49137" lon="6.12638">
        <ele>677</ele>
        <time>2016-05-11T12:26:28Z</time>
      </trkpt>
      <trkpt lat="44.49129" lon="6.12615">
        <ele>676</ele>
        <time>2016-05-11T12:28:28Z</time>
      </trkpt>
      <trkpt lat="44.49122" lon="6.12598">
        <ele>676</ele>
        <time>2016-05-11T12:30:28Z</time>
      </trkpt>
      <trkpt lat="44.49116" lon="6.12581">
        <ele>675</ele>
        <time>2016-05-11T12:32:28Z</time>
      </trkpt>
      <trkpt lat="44.49113" lon="6.12572">
        <ele>676</ele>
        <time>2016-05-11T12:34:28Z</time>
      </trkpt>
      <trkpt lat="44.49111" lon="6.12566">
        <ele>676</ele>
        <time>2016-05-11T12:36:28Z</time>
      </trkpt>
      <trkpt lat="44.49109" lon="6.12557">
        <ele>676</ele>
        <time>2016-05-11T12:38:28Z</time>
      </trkpt>
      <trkpt lat="44.49108" lon="6.12546">
        <ele>676</ele>
        <time>2016-05-11T12:40:28Z</time>
      </trkpt>
      <trkpt lat="44.49106" lon="6.12532">
        <ele>677</ele>
        <time>2016-05-11T12:42:28Z</time>
      </trkpt>
      <trkpt lat="44.49105" lon="6.12521">
        <ele>677</ele>
        <time>2016-05-11T12:44:28Z</time>
      </trkpt>
      <trkpt lat="44.49105" lon="6.12505">
        <ele>678</ele>
        <time>2016-05-11T12:46:28Z</time>
      </trkpt>
      <trkpt lat="44.49105" lon="6.12492">
        <ele>678</ele>
        <time>2016-05-11T12:48:28Z</time>
      </trkpt>
      <trkpt lat="44.49106" lon="6.12476">
        <ele>680</ele>
        <time>2016-05-11T12:50:28Z</time>
      </trkpt>
      <trkpt lat="44.49109" lon="6.1246">
        <ele>681</ele>
        <time>2016-05-11T12:52:28Z</time>
      </trkpt>
      <trkpt lat="44.49112" lon="6.12449">
        <ele>682</ele>
        <time>2016-05-11T12:54:28Z</time>
      </trkpt>
      <trkpt lat="44.49114" lon="6.12441">
        <ele>683</ele>
        <time>2016-05-11T12:56:28Z</time>
      </trkpt>
      <trkpt lat="44.49118" lon="6.12431">
        <ele>683</ele>
        <time>2016-05-11T12:58:28Z</time>
      </trkpt>
      <trkpt lat="44.49122" lon="6.12422">
        <ele>684</ele>
        <time>2016-05-11T13:00:28Z</time>
      </trkpt>
      <trkpt lat="44.49128" lon="6.12411">
        <ele>685</ele>
        <time>2016-05-11T13:02:28Z</time>
      </trkpt>
      <trkpt lat="44.49147" lon="6.12384">
        <ele>686</ele>
        <time>2016-05-11T13:04:28Z</time>
      </trkpt>
      <trkpt lat="44.49155" lon="6.12373">
        <ele>686</ele>
        <time>2016-05-11T13:06:28Z</time>
      </trkpt>
      <trkpt lat="44.49175" lon="6.12349">
        <ele>688</ele>
        <time>2016-05-11T13:08:28Z</time>
      </trkpt>
      <trkpt lat="44.49197" lon="6.12321">
        <ele>690</ele>
        <time>2016-05-11T13:10:28Z</time>
      </trkpt>
      <trkpt lat="44.49199" lon="6.12317">
        <ele>691</ele>
        <time>2016-05-11T13:12:28Z</time>
      </trkpt>
      <trkpt lat="44.49202" lon="6.1231">
        <ele>691</ele>
        <time>2016-05-11T13:14:28Z</time>
      </trkpt>
      <trkpt lat="44.49205" lon="6.12304">
        <ele>691</ele>
        <time>2016-05-11T13:16:28Z</time>
      </trkpt>
      <trkpt lat="44.49206" lon="6.123">
        <ele>691</ele>
        <time>2016-05-11T13:18:28Z</time>
      </trkpt>
      <trkpt lat="44.4921" lon="6.12288">
        <ele>692</ele>
        <time>2016-05-11T13:20:28Z</time>
      </trkpt>
      <trkpt lat="44.4921" lon="6.12288">
        <ele>692</ele>
        <time>2016-05-11T13:22:28Z</time>
      </trkpt>
      <trkpt lat="44.49228" lon="6.12279">
        <ele>693</ele>
        <time>2016-05-11T13:24:28Z</time>
      </trkpt>
      <trkpt lat="44.49234" lon="6.12272">
        <ele>694</ele>
        <time>2016-05-11T13:26:28Z</time>
      </trkpt>
      <trkpt lat="44.49238" lon="6.12267">
        <ele>694</ele>
        <time>2016-05-11T13:28:28Z</time>
      </trkpt>
      <trkpt lat="44.49241" lon="6.12261">
        <ele>694</ele>
        <time>2016-05-11T13:30:28Z</time>
      </trkpt>
      <trkpt lat="44.49244" lon="6.12251">
        <ele>695</ele>
        <time>2016-05-11T13:32:28Z</time>
      </trkpt>
      <trkpt lat="44.49248" lon="6.12233">
        <ele>696</ele>
        <time>2016-05-11T13:34:28Z</time>
      </trkpt>
      <trkpt lat="44.49249" lon="6.12219">
        <ele>696</ele>
        <time>2016-05-11T13:36:28Z</time>
      </trkpt>
      <trkpt lat="44.49249" lon="6.12205">
        <ele>697</ele>
        <time>2016-05-11T13:38:28Z</time>
      </trkpt>
      <trkpt lat="44.49248" lon="6.12186">
        <ele>698</ele>
        <time>2016-05-11T13:40:28Z</time>
      </trkpt>
      <trkpt lat="44.49242" lon="6.12145">
        <ele>700</ele>
        <time>2016-05-11T13:42:28Z</time>
      </trkpt>
      <trkpt lat="44.49236" lon="6.12104">
        <ele>702</ele>
        <time>2016-05-11T13:44:28Z</time>
      </trkpt>
      <trkpt lat="44.49231" lon="6.12066">
        <ele>704</ele>
        <time>2016-05-11T13:46:28Z</time>
      </trkpt>
      <trkpt lat="44.49226" lon="6.12036">
        <ele>706</ele>
        <time>2016-05-11T13:48:28Z</time>
      </trkpt>
      <trkpt lat="44.49225" lon="6.12022">
        <ele>706</ele>
        <time>2016-05-11T13:50:28Z</time>
      </trkpt>
      <trkpt lat="44.49224" lon="6.12">
        <ele>708</ele>
        <time>2016-05-11T13:52:28Z</time>
      </trkpt>
      <trkpt lat="44.49223" lon="6.11979">
        <ele>710</ele>
        <time>2016-05-11T13:54:28Z</time>
      </trkpt>
      <trkpt lat="44.49222" lon="6.11964">
        <ele>712</ele>
        <time>2016-05-11T13:56:28Z</time>
      </trkpt>
      <trkpt lat="44.49218" lon="6.11946">
        <ele>713</ele>
        <time>2016-05-11T13:58:28Z</time>
      </trkpt>
      <trkpt lat="44.49211" lon="6.11923">
        <ele>714</ele>
        <time>2016-05-11T14:00:28Z</time>
      </trkpt>
      <trkpt lat="44.49207" lon="6.11909">
        <ele>714</ele>
        <time>2016-05-11T14:02:28Z</time>
      </trkpt>
      <trkpt lat="44.49204" lon="6.11887">
        <ele>716</ele>
        <time>2016-05-11T14:04:28Z</time>
      </trkpt>
      <trkpt lat="44.49201" lon="6.11859">
        <ele>717</ele>
        <time>2016-05-11T14:06:28Z</time>
      </trkpt>
      <trkpt lat="44.49197" lon="6.11819">
        <ele>721</ele>
        <time>2016-05-11T14:08:28Z</time>
      </trkpt>
      <trkpt lat="44.49196" lon="6.11792">
        <ele>724</ele>
        <time>2016-05-11T14:10:28Z</time>
      </trkpt>
      <trkpt lat="44.49192" lon="6.11751">
        <ele>729</ele>
        <time>2016-05-11T14:12:28Z</time>
      </trkpt>
      <trkpt lat="44.49189" lon="6.11721">
        <ele>732</ele>
        <time>2016-05-11T14:14:28Z</time>
      </trkpt>
      <trkpt lat="44.49186" lon="6.11707">
        <ele>733</ele>
        <time>2016-05-11T14:16:28Z</time>
      </trkpt>
      <trkpt lat="44.49182" lon="6.11695">
        <ele>733</ele>
        <time>2016-05-11T14:18:28Z</time>
      </trkpt>
      <trkpt lat="44.49177" lon="6.11687">
        <ele>732</ele>
        <time>2016-05-11T14:20:28Z</time>
      </trkpt>
      <trkpt lat="44.49172" lon="6.1168">
        <ele>731</ele>
        <time>2016-05-11T14:22:28Z</time>
      </trkpt>
      <trkpt lat="44.4916" lon="6.11668">
        <ele>730</ele>
        <time>2016-05-11T14:24:28Z</time>
      </trkpt>
      <trkpt lat="44.49149" lon="6.11657">
        <ele>730</ele>
        <time>2016-05-11T14:26:28Z</time>
      </trkpt>
      <trkpt lat="44.49139" lon="6.11647">
        <ele>731</ele>
        <time>2016-05-11T14:28:28Z</time>
      </trkpt>
      <trkpt lat="44.49119" lon="6.11626">
        <ele>731</ele>
        <time>2016-05-11T14:30:28Z</time>
      </trkpt>
      <trkpt lat="44.49103" lon="6.11607">
        <ele>732</ele>
        <time>2016-05-11T14:32:28Z</time>
      </trkpt>
      <trkpt lat="44.49088" lon="6.11586">
        <ele>733</ele>
        <time>2016-05-11T14:34:28Z</time>
      </trkpt>
      <trkpt lat="44.49081" lon="6.11573">
        <ele>733</ele>
        <time>2016-05-11T14:36:28Z</time>
      </trkpt>
      <trkpt lat="44.49073" lon="6.11559">
        <ele>733</ele>
        <time>2016-05-11T14:38:28Z</time>
      </trkpt>
      <trkpt lat="44.49059" lon="6.11528">
        <ele>734</ele>
        <time>2016-05-11T14:40:28Z</time>
      </trkpt>
      <trkpt lat="44.49048" lon="6.11497">
        <ele>736</ele>
        <time>2016-05-11T14:42:28Z</time>
      </trkpt>
      <trkpt lat="44.49039" lon="6.11472">
        <ele>737</ele>
        <time>2016-05-11T14:44:28Z</time>
      </trkpt>
      <trkpt lat="44.49031" lon="6.11453">
        <ele>738</ele>
        <time>2016-05-11T14:46:28Z</time>
      </trkpt>
      <trkpt lat="44.49024" lon="6.11436">
        <ele>738</ele>
        <time>2016-05-11T14:48:28Z</time>
      </trkpt>
      <trkpt lat="44.49021" lon="6.1143">
        <ele>738</ele>
        <time>2016-05-11T14:50:28Z</time>
      </trkpt>
      <trkpt lat="44.49019" lon="6.11424">
        <ele>738</ele>
        <time>2016-05-11T14:52:28Z</time>
      </trkpt>
      <trkpt lat="44.49008" lon="6.11398">
        <ele>738</ele>
        <time>2016-05-11T14:54:28Z</time>
      </trkpt>
      <trkpt lat="44.48998" lon="6.11368">
        <ele>738</ele>
        <time>2016-05-11T14:56:28Z</time>
      </trkpt>
      <trkpt lat="44.48994" lon="6.11352">
        <ele>738</ele>
        <time>2016-05-11T14:58:28Z</time>
      </trkpt>
      <trkpt lat="44.48994" lon="6.11348">
        <ele>739</ele>
        <time>2016-05-11T15:00:28Z</time>
      </trkpt>
      <trkpt lat="44.48995" lon="6.11337">
        <ele>740</ele>
        <time>2016-05-11T15:02:28Z</time>
      </trkpt>
      <trkpt lat="44.48995" lon="6.11333">
        <ele>740</ele>
        <time>2016-05-11T15:04:28Z</time>
      </trkpt>
      <trkpt lat="44.48998" lon="6.11325">
        <ele>740</ele>
        <time>2016-05-11T15:06:28Z</time>
      </trkpt>
      <trkpt lat="44.49" lon="6.11322">
        <ele>741</ele>
        <time>2016-05-11T15:08:28Z</time>
      </trkpt>
      <trkpt lat="44.49009" lon="6.11315">
        <ele>742</ele>
        <time>2016-05-11T15:10:28Z</time>
      </trkpt>
      <trkpt lat="44.49016" lon="6.11313">
        <ele>744</ele>
        <time>2016-05-11T15:12:28Z</time>
      </trkpt>
      <trkpt lat="44.49029" lon="6.1131">
        <ele>746</ele>
        <time>2016-05-11T15:14:28Z</time>
      </trkpt>
      <trkpt lat="44.49045" lon="6.11308">
        <ele>749</ele>
        <time>2016-05-11T15:16:28Z</time>
      </trkpt>
      <trkpt lat="44.49062" lon="6.11306">
        <ele>753</ele>
        <time>2016-05-11T15:18:28Z</time>
      </trkpt>
      <trkpt lat="44.49077" lon="6.11302">
        <ele>756</ele>
        <time>2016-05-11T15:20:28Z</time>
      </trkpt>
      <trkpt lat="44.49086" lon="6.11304">
        <ele>758</ele>
        <time>2016-05-11T15:22:28Z</time>
      </trkpt>
      <trkpt lat="44.49092" lon="6.11305">
        <ele>759</ele>
        <time>2016-05-11T15:24:28Z</time>
      </trkpt>
      <trkpt lat="44.49099" lon="6.11312">
        <ele>760</ele>
        <time>2016-05-11T15:26:28Z</time>
      </trkpt>
      <trkpt lat="44.49106" lon="6.11322">
        <ele>761</ele>
        <time>2016-05-11T15:28:28Z</time>
      </trkpt>
      <trkpt lat="44.49114" lon="6.11328">
        <ele>762</ele>
        <time>2016-05-11T15:30:28Z</time>
      </trkpt>
      <trkpt lat="44.4912" lon="6.1133">
        <ele>763</ele>
        <time>2016-05-11T15:32:28Z</time>
      </trkpt>
      <trkpt lat="44.49122" lon="6.11329">
        <ele>763</ele>
        <time>2016-05-11T15:34:28Z</time>
      </trkpt>
      <trkpt lat="44.49129" lon="6.11325">
        <ele>765</ele>
        <time>2016-05-11T15:36:28Z</time>
      </trkpt>
      <trkpt lat="44.49135" lon="6.11316">
        <ele>766</ele>
        <time>2016-05-11T15:38:28Z</time>
      </trkpt>
      <trkpt lat="44.49138" lon="6.11307">
        <ele>768</ele>
        <time>2016-05-11T15:40:28Z</time>
      </trkpt>
      <trkpt lat="44.49137" lon="6.11298">
        <ele>768</ele>
        <time>2016-05-11T15:42:28Z</time>
      </trkpt>
      <trkpt lat="44.49134" lon="6.11287">
        <ele>768</ele>
        <time>2016-05-11T15:44:28Z</time>
      </trkpt>
      <trkpt lat="44.49123" lon="6.11271">
        <ele>767</ele>
        <time>2016-05-11T15:46:28Z</time>
      </trkpt>
      <trkpt lat="44.49107" lon="6.11254">
        <ele>764</ele>
        <time>2016-05-11T15:48:28Z</time>
      </trkpt>
      <trkpt lat="44.4909" lon="6.11237">
        <ele>762</ele>
        <time>2016-05-11T15:50:28Z</time>
      </trkpt>
      <trkpt lat="44.49079" lon="6.11221">
        <ele>761</ele>
        <time>2016-05-11T15:52:28Z</time>
      </trkpt>
      <trkpt lat="44.49075" lon="6.11213">
        <ele>762</ele>
        <time>2016-05-11T15:54:28Z</time>
      </trkpt>
      <trkpt lat="44.49072" lon="6.11202">
        <ele>762</ele>
        <time>2016-05-11T15:56:28Z</time>
      </trkpt>
      <trkpt lat="44.4907" lon="6.11197">
        <ele>762</ele>
        <time>2016-05-11T15:58:28Z</time>
      </trkpt>
      <trkpt lat="44.49066" lon="6.11175">
        <ele>764</ele>
        <time>2016-05-11T16:00:28Z</time>
      </trkpt>
      <trkpt lat="44.49062" lon="6.11154">
        <ele>765</ele>
        <time>2016-05-11T16:02:28Z</time>
      </trkpt>
      <trkpt lat="44.49055" lon="6.11114">
        <ele>765</ele>
        <time>2016-05-11T16:04:28Z</time>
      </trkpt>
      <trkpt lat="44.49053" lon="6.11101">
        <ele>766</ele>
        <time>2016-05-11T16:06:28Z</time>
      </trkpt>
      <trkpt lat="44.49052" lon="6.1109">
        <ele>766</ele>
        <time>2016-05-11T16:08:28Z</time>
      </trkpt>
      <trkpt lat="44.49052" lon="6.11074">
        <ele>767</ele>
        <time>2016-05-11T16:10:28Z</time>
      </trkpt>
      <trkpt lat="44.49054" lon="6.11061">
        <ele>767</ele>
        <time>2016-05-11T16:12:28Z</time>
      </trkpt>
      <trkpt lat="44.49064" lon="6.11043">
        <ele>769</ele>
        <time>2016-05-11T16:14:28Z</time>
      </trkpt>
      <trkpt lat="44.49065" lon="6.11041">
        <ele>769</ele>
        <time>2016-05-11T16:16:28Z</time>
      </trkpt>
      <trkpt lat="44.49071" lon="6.11032">
        <ele>771</ele>
        <time>2016-05-11T16:18:28Z</time>
      </trkpt>
      <trkpt lat="44.49091" lon="6.11008">
        <ele>774</ele>
        <time>2016-05-11T16:20:28Z</time>
      </trkpt>
      <trkpt lat="44.49106" lon="6.10993">
        <ele>774</ele>
        <time>2016-05-11T16:22:28Z</time>
      </trkpt>
      <trkpt lat="44.49115" lon="6.10989">
        <ele>775</ele>
        <time>2016-05-11T16:24:28Z</time>
      </trkpt>
      <trkpt lat="44.49124" lon="6.10987">
        <ele>775</ele>
        <time>2016-05-11T16:26:28Z</time>
      </trkpt>
      <trkpt lat="44.49132" lon="6.10989">
        <ele>776</ele>
        <time>2016-05-11T16:28:28Z</time>
      </trkpt>
      <trkpt lat="44.49142" lon="6.10994">
        <ele>777</ele>
        <time>2016-05-11T16:30:28Z</time>
      </trkpt>
      <trkpt lat="44.49171" lon="6.11015">
        <ele>780</ele>
        <time>2016-05-11T16:32:28Z</time>
      </trkpt>
      <trkpt lat="44.49192" lon="6.11028">
        <ele>781</ele>
        <time>2016-05-11T16:34:28Z</time>
      </trkpt>
      <trkpt lat="44.4921" lon="6.11038">
        <ele>783</ele>
        <time>2016-05-11T16:36:28Z</time>
      </trkpt>
      <trkpt lat="44.49222" lon="6.1104">
        <ele>784</ele>
        <time>2016-05-11T16:38:28Z</time>
      </trkpt>
      <trkpt lat="44.49232" lon="6.11041">
        <ele>784</ele>
        <time>2016-05-11T16:40:28Z</time>
      </trkpt>
      <trkpt lat="44.49243" lon="6.11038">
        <ele>785</ele>
        <time>2016-05-11T16:42:28Z</time>
      </trkpt>
      <trkpt lat="44.49256" lon="6.11031">
        <ele>785</ele>
        <time>2016-05-11T16:44:28Z</time>
      </trkpt>
      <trkpt lat="44.49271" lon="6.11021">
        <ele>785</ele>
        <time>2016-05-11T16:46:28Z</time>
      </trkpt>
      <trkpt lat="44.4929" lon="6.11008">
        <ele>786</ele>
        <time>2016-05-11T16:48:28Z</time>
      </trkpt>
      <trkpt lat="44.49306" lon="6.10999">
        <ele>786</ele>
        <time>2016-05-11T16:50:28Z</time>
      </trkpt>
      <trkpt lat="44.49316" lon="6.10996">
        <ele>786</ele>
        <time>2016-05-11T16:52:28Z</time>
      </trkpt>
      <trkpt lat="44.49324" lon="6.10996">
        <ele>786</ele>
        <time>2016-05-11T16:54:28Z</time>
      </trkpt>
      <trkpt lat="44.49331" lon="6.11001">
        <ele>787</ele>
        <time>2016-05-11T16:56:28Z</time>
      </trkpt>
      <trkpt lat="44.49339" lon="6.1101">
        <ele>788</ele>
        <time>2016-05-11T16:58:28Z</time>
      </trkpt>
      <trkpt lat="44.49345" lon="6.11023">
        <ele>789</ele>
        <time>2016-05-11T17:00:28Z</time>
      </trkpt>
      <trkpt lat="44.4935" lon="6.11039">
        <ele>791</ele>
        <time>2016-05-11T17:02:28Z</time>
      </trkpt>
      <trkpt lat="44.49356" lon="6.11054">
        <ele>792</ele>
        <time>2016-05-11T17:04:28Z</time>
      </trkpt>
      <trkpt lat="44.49364" lon="6.11065">
        <ele>794</ele>
        <time>2016-05-11T17:06:28Z</time>
      </trkpt>
      <trkpt lat="44.49375" lon="6.11075">
        <ele>795</ele>
        <time>2016-05-11T17:08:28Z</time>
      </trkpt>
      <trkpt lat="44.49391" lon="6.11081">
        <ele>796</ele>
        <time>2016-05-11T17:10:28Z</time>
      </trkpt>
      <trkpt lat="44.49397" lon="6.11085">
        <ele>797</ele>
        <time>2016-05-11T17:12:28Z</time>
      </trkpt>
      <trkpt lat="44.49406" lon="6.11089">
        <ele>797</ele>
        <time>2016-05-11T17:14:28Z</time>
      </trkpt>
      <trkpt lat="44.49416" lon="6.11096">
        <ele>798</ele>
        <time>2016-05-11T17:16:28Z</time>
      </trkpt>
      <trkpt lat="44.49423" lon="6.11107">
        <ele>799</ele>
        <time>2016-05-11T17:18:28Z</time>
      </trkpt>
      <trkpt lat="44.49425" lon="6.11116">
        <ele>800</ele>
        <time>2016-05-11T17:20:28Z</time>
      </trkpt>
      <trkpt lat="44.49427" lon="6.1113">
        <ele>801</ele>
        <time>2016-05-11T17:22:28Z</time>
      </trkpt>
      <trkpt lat="44.49427" lon="6.11136">
        <ele>802</ele>
        <time>2016-05-11T17:24:28Z</time>
      </trkpt>
      <trkpt lat="44.49426" lon="6.11145">
        <ele>802</ele>
        <time>2016-05-11T17:26:28Z</time>
      </trkpt>
      <trkpt lat="44.49421" lon="6.11161">
        <ele>803</ele>
        <time>2016-05-11T17:28:28Z</time>
      </trkpt>
      <trkpt lat="44.49414" lon="6.11173">
        <ele>804</ele>
        <time>2016-05-11T17:30:28Z</time>
      </trkpt>
      <trkpt lat="44.494" lon="6.11185">
        <ele>804</ele>
        <time>2016-05-11T17:32:28Z</time>
      </trkpt>
      <trkpt lat="44.49379" lon="6.11197">
        <ele>804</ele>
        <time>2016-05-11T17:34:28Z</time>
      </trkpt>
      <trkpt lat="44.49353" lon="6.11213">
        <ele>805</ele>
        <time>2016-05-11T17:36:28Z</time>
      </trkpt>
      <trkpt lat="44.49335" lon="6.11224">
        <ele>805</ele>
        <time>2016-05-11T17:38:28Z</time>
      </trkpt>
      <trkpt lat="44.49325" lon="6.11235">
        <ele>805</ele>
        <time>2016-05-11T17:40:28Z</time>
      </trkpt>
      <trkpt lat="44.49321" lon="6.11248">
        <ele>806</ele>
        <time>2016-05-11T17:42:28Z</time>
      </trkpt>
      <trkpt lat="44.4932" lon="6.1126">
        <ele>806</ele>
        <time>2016-05-11T17:44:28Z</time>
      </trkpt>
      <trkpt lat="44.49322" lon="6.11272">
        <ele>806</ele>
        <time>2016-05-11T17:46:28Z</time>
      </trkpt>
      <trkpt lat="44.49324" lon="6.1128">
        <ele>807</ele>
        <time>2016-05-11T17:48:28Z</time>
      </trkpt>
      <trkpt lat="44.49325" lon="6.11288">
        <ele>807</ele>
        <time>2016-05-11T17:50:28Z</time>
      </trkpt>
      <trkpt lat="44.49335" lon="6.11335">
        <ele>810</ele>
        <time>2016-05-11T17:52:28Z</time>
      </trkpt>
      <trkpt lat="44.49346" lon="6.11379">
        <ele>813</ele>
        <time>2016-05-11T17:54:28Z</time>
      </trkpt>
      <trkpt lat="44.49355" lon="6.11407">
        <ele>815</ele>
        <time>2016-05-11T17:56:28Z</time>
      </trkpt>
      <trkpt lat="44.49366" lon="6.11433">
        <ele>818</ele>
        <time>2016-05-11T17:58:28Z</time>
      </trkpt>
      <trkpt lat="44.49376" lon="6.11452">
        <ele>820</ele>
        <time>2016-05-11T18:00:28Z</time>
      </trkpt>
      <trkpt lat="44.49379" lon="6.11463">
        <ele>821</ele>
        <time>2016-05-11T18:02:28Z</time>
      </trkpt>
      <trkpt lat="44.4938" lon="6.11474">
        <ele>821</ele>
        <time>2016-05-11T18:04:28Z</time>
      </trkpt>
      <trkpt lat="44.49378" lon="6.11484">
        <ele>821</ele>
        <time>2016-05-11T18:06:28Z</time>
      </trkpt>
      <trkpt lat="44.49374" lon="6.11497">
        <ele>820</ele>
        <time>2016-05-11T18:08:28Z</time>
      </trkpt>
      <trkpt lat="44.49368" lon="6.1151">
        <ele>820</ele>
        <time>2016-05-11T18:10:28Z</time>
      </trkpt>
      <trkpt lat="44.49363" lon="6.1152">
        <ele>819</ele>
        <time>2016-05-11T18:12:28Z</time>
      </trkpt>
      <trkpt lat="44.49359" lon="6.11536">
        <ele>818</ele>
        <time>2016-05-11T18:14:28Z</time>
      </trkpt>
      <trkpt lat="44.49358" lon="6.11551">
        <ele>818</ele>
        <time>2016-05-11T18:16:28Z</time>
      </trkpt>
      <trkpt lat="44.49361" lon="6.11567">
        <ele>818</ele>
        <time>2016-05-11T18:18:28Z</time>
      </trkpt>
      <trkpt lat="44.49366" lon="6.11574">
        <ele>820</ele>
        <time>2016-05-11T18:20:28Z</time>
      </trkpt>
      <trkpt lat="44.49371" lon="6.11578">
        <ele>821</ele>
        <time>2016-05-11T18:22:28Z</time>
      </trkpt>
      <trkpt lat="44.49378" lon="6.1158">
        <ele>823</ele>
        <time>2016-05-11T18:24:28Z</time>
      </trkpt>
      <trkpt lat="44.49384" lon="6.11581">
        <ele>824</ele>
        <time>2016-05-11T18:26:28Z</time>
      </trkpt>
      <trkpt lat="44.49392" lon="6.11577">
        <ele>826</ele>
        <time>2016-05-11T18:28:28Z</time>
      </trkpt>
      <trkpt lat="44.49399" lon="6.11569">
        <ele>828</ele>
        <time>2016-05-11T18:30:28Z</time>
      </trkpt>
      <trkpt lat="44.49404" lon="6.11559">
        <ele>828</ele>
        <time>2016-05-11T18:32:28Z</time>
      </trkpt>
      <trkpt lat="44.49409" lon="6.1154">
        <ele>828</ele>
        <time>2016-05-11T18:34:28Z</time>
      </trkpt>
      <trkpt lat="44.49411" lon="6.11522">
        <ele>827</ele>
        <time>2016-05-11T18:36:28Z</time>
      </trkpt>
      <trkpt lat="44.49412" lon="6.11515">
        <ele>827</ele>
        <time>2016-05-11T18:38:28Z</time>
      </trkpt>
      <trkpt lat="44.49413" lon="6.11511">
        <ele>826</ele>
        <time>2016-05-11T18:40:28Z</time>
      </trkpt>
      <trkpt lat="44.49414" lon="6.11503">
        <ele>826</ele>
        <time>2016-05-11T18:42:28Z</time>
      </trkpt>
      <trkpt lat="44.49415" lon="6.11479">
        <ele>827</ele>
        <time>2016-05-11T18:44:28Z</time>
      </trkpt>
      <trkpt lat="44.49415" lon="6.11463">
        <ele>827</ele>
        <time>2016-05-11T18:46:28Z</time>
      </trkpt>
      <trkpt lat="44.49413" lon="6.11451">
        <ele>828</ele>
        <time>2016-05-11T18:48:28Z</time>
      </trkpt>
      <trkpt lat="44.49407" lon="6.11429">
        <ele>827</ele>
        <time>2016-05-11T18:50:28Z</time>
      </trkpt>
      <trkpt lat="44.49401" lon="6.11408">
        <ele>826</ele>
        <time>2016-05-11T18:52:28Z</time>
      </trkpt>
      <trkpt lat="44.49399" lon="6.11393">
        <ele>825</ele>
        <time>2016-05-11T18:54:28Z</time>
      </trkpt>
      <trkpt lat="44.494" lon="6.11383">
        <ele>825</ele>
        <time>2016-05-11T18:56:28Z</time>
      </trkpt>
      <trkpt lat="44.49406" lon="6.11368">
        <ele>825</ele>
        <time>2016-05-11T18:58:28Z</time>
      </trkpt>
      <trkpt lat="44.49414" lon="6.11362">
        <ele>827</ele>
        <time>2016-05-11T19:00:28Z</time>
      </trkpt>
      <trkpt lat="44.49424" lon="6.11359">
        <ele>827</ele>
        <time>2016-05-11T19:02:28Z</time>
      </trkpt>
      <trkpt lat="44.49431" lon="6.11361">
        <ele>828</ele>
        <time>2016-05-11T19:04:28Z</time>
      </trkpt>
      <trkpt lat="44.49444" lon="6.11366">
        <ele>829</ele>
        <time>2016-05-11T19:06:28Z</time>
      </trkpt>
      <trkpt lat="44.49457" lon="6.11374">
        <ele>830</ele>
        <time>2016-05-11T19:08:28Z</time>
      </trkpt>
      <trkpt lat="44.49479" lon="6.11387">
        <ele>833</ele>
        <time>2016-05-11T19:10:28Z</time>
      </trkpt>
      <trkpt lat="44.49499" lon="6.11396">
        <ele>836</ele>
        <time>2016-05-11T19:12:28Z</time>
      </trkpt>
      <trkpt lat="44.49513" lon="6.11406">
        <ele>837</ele>
        <time>2016-05-11T19:14:28Z</time>
      </trkpt>
      <trkpt lat="44.49536" lon="6.11426">
        <ele>840</ele>
        <time>2016-05-11T19:16:28Z</time>
      </trkpt>
      <trkpt lat="44.4954" lon="6.11431">
        <ele>840</ele>
        <time>2016-05-11T19:18:28Z</time>
      </trkpt>
      <trkpt lat="44.49546" lon="6.11438">
        <ele>841</ele>
        <time>2016-05-11T19:20:28Z</time>
      </trkpt>
      <trkpt lat="44.49556" lon="6.11454">
        <ele>843</ele>
        <time>2016-05-11T19:22:28Z</time>
      </trkpt>
      <trkpt lat="44.49565" lon="6.11469">
        <ele>845</ele>
        <time>2016-05-11T19:24:28Z</time>
      </trkpt>
      <trkpt lat="44.49573" lon="6.11484">
        <ele>847</ele>
        <time>2016-05-11T19:26:28Z</time>
      </trkpt>
      <trkpt lat="44.49578" lon="6.11492">
        <ele>849</ele>
        <time>2016-05-11T19:28:28Z</time>
      </trkpt>
      <trkpt lat="44.49583" lon="6.115">
        <ele>850</ele>
        <time>2016-05-11T19:30:28Z</time>
      </trkpt>
      <trkpt lat="44.49593" lon="6.11508">
        <ele>851</ele>
        <time>2016-05-11T19:32:28Z</time>
      </trkpt>
      <trkpt lat="44.49603" lon="6.11513">
        <ele>852</ele>
        <time>2016-05-11T19:34:28Z</time>
      </trkpt>
      <trkpt lat="44.49622" lon="6.11518">
        <ele>852</ele>
        <time>2016-05-11T19:36:28Z</time>
      </trkpt>
      <trkpt lat="44.49638" lon="6.11521">
        <ele>853</ele>
        <time>2016-05-11T19:38:28Z</time>
      </trkpt>
      <trkpt lat="44.49656" lon="6.11526">
        <ele>854</ele>
        <time>2016-05-11T19:40:28Z</time>
      </trkpt>
      <trkpt lat="44.49674" lon="6.11532">
        <ele>856</ele>
        <time>2016-05-11T19:42:28Z</time>
      </trkpt>
      <trkpt lat="44.49683" lon="6.11534">
        <ele>858</ele>
        <time>2016-05-11T19:44:28Z</time>
      </trkpt>
      <trkpt lat="44.49689" lon="6.11537">
        <ele>859</ele>
        <time>2016-05-11T19:46:28Z</time>
      </trkpt>
      <trkpt lat="44.49696" lon="6.11546">
        <ele>861</ele>
        <time>2016-05-11T19:48:28Z</time>
      </trkpt>
      <trkpt lat="44.49704" lon="6.11559">
        <ele>862</ele>
        <time>2016-05-11T19:50:28Z</time>
      </trkpt>
      <trkpt lat="44.49708" lon="6.11567">
        <ele>863</ele>
        <time>2016-05-11T19:52:28Z</time>
      </trkpt>
      <trkpt lat="44.4971" lon="6.11575">
        <ele>864</ele>
        <time>2016-05-11T19:54:28Z</time>
      </trkpt>
      <trkpt lat="44.49714" lon="6.11587">
        <ele>865</ele>
        <time>2016-05-11T19:56:28Z</time>
      </trkpt>
      <trkpt lat="44.4972" lon="6.11591">
        <ele>866</ele>
        <time>2016-05-11T19:58:28Z</time>
      </trkpt>
      <trkpt lat="44.49726" lon="6.11593">
        <ele>867</ele>
        <time>2016-05-11T20:00:28Z</time>
      </trkpt>
      <trkpt lat="44.4973" lon="6.11594">
        <ele>867</ele>
        <time>2016-05-11T20:02:28Z</time>
      </trkpt>
      <trkpt lat="44.49737" lon="6.11592">
        <ele>867</ele>
        <time>2016-05-11T20:04:28Z</time>
      </trkpt>
      <trkpt lat="44.4974" lon="6.11587">
        <ele>867</ele>
        <time>2016-05-11T20:06:28Z</time>
      </trkpt>
      <trkpt lat="44.49745" lon="6.11581">
        <ele>867</ele>
        <time>2016-05-11T20:08:28Z</time>
      </trkpt>
      <trkpt lat="44.49746" lon="6.11562">
        <ele>867</ele>
        <time>2016-05-11T20:10:28Z</time>
      </trkpt>
      <trkpt lat="44.49744" lon="6.11532">
        <ele>866</ele>
        <time>2016-05-11T20:12:28Z</time>
      </trkpt>
      <trkpt lat="44.49743" lon="6.11502">
        <ele>866</ele>
        <time>2016-05-11T20:14:28Z</time>
      </trkpt>
      <trkpt lat="44.49742" lon="6.1147">
        <ele>864</ele>
        <time>2016-05-11T20:16:28Z</time>
      </trkpt>
      <trkpt lat="44.49743" lon="6.11454">
        <ele>863</ele>
        <time>2016-05-11T20:18:28Z</time>
      </trkpt>
      <trkpt lat="44.49747" lon="6.1144">
        <ele>864</ele>
        <time>2016-05-11T20:20:28Z</time>
      </trkpt>
      <trkpt lat="44.49753" lon="6.11432">
        <ele>864</ele>
        <time>2016-05-11T20:22:28Z</time>
      </trkpt>
      <trkpt lat="44.49759" lon="6.11429">
        <ele>865</ele>
        <time>2016-05-11T20:24:28Z</time>
      </trkpt>
      <trkpt lat="44.49764" lon="6.11428">
        <ele>866</ele>
        <time>2016-05-11T20:26:28Z</time>
      </trkpt>
      <trkpt lat="44.49772" lon="6.11429">
        <ele>867</ele>
        <time>2016-05-11T20:28:28Z</time>
      </trkpt>
      <trkpt lat="44.49777" lon="6.1143">
        <ele>868</ele>
        <time>2016-05-11T20:30:28Z</time>
      </trkpt>
      <trkpt lat="44.49781" lon="6.11431">
        <ele>869</ele>
        <time>2016-05-11T20:32:28Z</time>
      </trkpt>
      <trkpt lat="44.49789" lon="6.11429">
        <ele>870</ele>
        <time>2016-05-11T20:34:28Z</time>
      </trkpt>
      <trkpt lat="44.49795" lon="6.11427">
        <ele>871</ele>
        <time>2016-05-11T20:36:28Z</time>
      </trkpt>
      <trkpt lat="44.498" lon="6.11424">
        <ele>871</ele>
        <time>2016-05-11T20:38:28Z</time>
      </trkpt>
      <trkpt lat="44.49806" lon="6.11417">
        <ele>872</ele>
        <time>2016-05-11T20:40:28Z</time>
      </trkpt>
      <trkpt lat="44.49818" lon="6.11401">
        <ele>872</ele>
        <time>2016-05-11T20:42:28Z</time>
      </trkpt>
      <trkpt lat="44.49836" lon="6.11382">
        <ele>874</ele>
        <time>2016-05-11T20:44:28Z</time>
      </trkpt>
      <trkpt lat="44.4985" lon="6.11369">
        <ele>875</ele>
        <time>2016-05-11T20:46:28Z</time>
      </trkpt>
      <trkpt lat="44.49864" lon="6.11356">
        <ele>876</ele>
        <time>2016-05-11T20:48:28Z</time>
      </trkpt>
      <trkpt lat="44.49875" lon="6.1135">
        <ele>877</ele>
        <time>2016-05-11T20:50:28Z</time>
      </trkpt>
      <trkpt lat="44.49895" lon="6.11342">
        <ele>878</ele>
        <time>2016-05-11T20:52:28Z</time>
      </trkpt>
      <trkpt lat="44.49912" lon="6.11333">
        <ele>879</ele>
        <time>2016-05-11T20:54:28Z</time>
      </trkpt>
      <trkpt lat="44.49924" lon="6.11329">
        <ele>881</ele>
        <time>2016-05-11T20:56:28Z</time>
      </trkpt>
      <trkpt lat="44.49935" lon="6.11326">
        <ele>883</ele>
        <time>2016-05-11T20:58:28Z</time>
      </trkpt>
      <trkpt lat="44.49952" lon="6.11323">
        <ele>885</ele>
        <time>2016-05-11T21:00:28Z</time>
      </trkpt>
      <trkpt lat="44.49958" lon="6.11323">
        <ele>886</ele>
        <time>2016-05-11T21:02:28Z</time>
      </trkpt>
      <trkpt lat="44.49995" lon="6.11319">
        <ele>892</ele>
        <time>2016-05-11T21:04:28Z</time>
      </trkpt>
      <trkpt lat="44.50029" lon="6.11314">
        <ele>894</ele>
        <time>2016-05-11T21:06:28Z</time>
      </trkpt>
      <trkpt lat="44.50033" lon="6.11312">
        <ele>894</ele>
        <time>2016-05-11T21:08:28Z</time>
      </trkpt>
      <trkpt lat="44.50036" lon="6.1131">
        <ele>894</ele>
        <time>2016-05-11T21:10:28Z</time>
      </trkpt>
      <trkpt lat="44.50039" lon="6.11307">
        <ele>894</ele>
        <time>2016-05-11T21:12:28Z</time>
      </trkpt>
      <trkpt lat="44.50041" lon="6.11303">
        <ele>894</ele>
        <time>2016-05-11T21:14:28Z</time>
      </trkpt>
      <trkpt lat="44.50043" lon="6.11295">
        <ele>894</ele>
        <time>2016-05-11T21:16:28Z</time>
      </trkpt>
      <trkpt lat="44.50044" lon="6.11286">
        <ele>894</ele>
        <time>2016-05-11T21:18:28Z</time>
      </trkpt>
      <trkpt lat="44.50044" lon="6.11281">
        <ele>894</ele>
        <time>2016-05-11T21:20:28Z</time>
      </trkpt>
      <trkpt lat="44.50043" lon="6.11276">
        <ele>894</ele>
        <time>2016-05-11T21:22:28Z</time>
      </trkpt>
      <trkpt lat="44.50042" lon="6.11271">
        <ele>894</ele>
        <time>2016-05-11T21:24:28Z</time>
      </trkpt>
      <trkpt lat="44.5004" lon="6.11267">
        <ele>894</ele>
        <time>2016-05-11T21:26:28Z</time>
      </trkpt>
      <trkpt lat="44.50038" lon="6.11263">
        <ele>894</ele>
        <time>2016-05-11T21:28:28Z</time>
      </trkpt>
      <trkpt lat="44.50023" lon="6.11243">
        <ele>893</ele>
        <time>2016-05-11T21:30:28Z</time>
      </trkpt>
      <trkpt lat="44.50004" lon="6.11221">
        <ele>892</ele>
        <time>2016-05-11T21:32:28Z</time>
      </trkpt>
      <trkpt lat="44.49992" lon="6.11205">
        <ele>891</ele>
        <time>2016-05-11T21:34:28Z</time>
      </trkpt>
      <trkpt lat="44.49989" lon="6.11199">
        <ele>891</ele>
        <time>2016-05-11T21:36:28Z</time>
      </trkpt>
      <trkpt lat="44.49987" lon="6.11192">
        <ele>892</ele>
        <time>2016-05-11T21:38:28Z</time>
      </trkpt>
      <trkpt lat="44.49985" lon="6.11186">
        <ele>892</ele>
        <time>2016-05-11T21:40:28Z</time>
      </trkpt>
      <trkpt lat="44.49985" lon="6.11181">
        <ele>892</ele>
        <time>2016-05-11T21:42:28Z</time>
      </trkpt>
      <trkpt lat="44.49986" lon="6.11174">
        <ele>893</ele>
        <time>2016-05-11T21:44:28Z</time>
      </trkpt>
      <trkpt lat="44.49988" lon="6.11166">
        <ele>893</ele>
        <time>2016-05-11T21:46:28Z</time>
      </trkpt>
      <trkpt lat="44.4999" lon="6.11161">
        <ele>893</ele>
        <time>2016-05-11T21:48:28Z</time>
      </trkpt>
      <trkpt lat="44.49994" lon="6.11156">
        <ele>893</ele>
        <time>2016-05-11T21:50:28Z</time>
      </trkpt>
      <trkpt lat="44.49998" lon="6.11151">
        <ele>893</ele>
        <time>2016-05-11T21:52:28Z</time>
      </trkpt>
      <trkpt lat="44.50002" lon="6.11149">
        <ele>893</ele>
        <time>2016-05-11T21:54:28Z</time>
      </trkpt>
      <trkpt lat="44.50006" lon="6.11146">
        <ele>893</ele>
        <time>2016-05-11T21:56:28Z</time>
      </trkpt>
      <trkpt lat="44.5001" lon="6.11144">
        <ele>893</ele>
        <time>2016-05-11T21:58:28Z</time>
      </trkpt>
      <trkpt lat="44.50014" lon="6.11142">
        <ele>893</ele>
        <time>2016-05-11T22:00:28Z</time>
      </trkpt>
      <trkpt lat="44.50021" lon="6.11141">
        <ele>893</ele>
        <time>2016-05-11T22:02:28Z</time>
      </trkpt>
      <trkpt lat="44.50026" lon="6.11142">
        <ele>893</ele>
        <time>2016-05-11T22:04:28Z</time>
      </trkpt>
      <trkpt lat="44.5004" lon="6.11143">
        <ele>894</ele>
        <time>2016-05-11T22:06:28Z</time>
      </trkpt>
      <trkpt lat="44.50065" lon="6.11146">
        <ele>896</ele>
        <time>2016-05-11T22:08:28Z</time>
      </trkpt>
      <trkpt lat="44.50085" lon="6.1115">
        <ele>898</ele>
        <time>2016-05-11T22:10:28Z</time>
      </trkpt>
      <trkpt lat="44.501" lon="6.11152">
        <ele>900</ele>
        <time>2016-05-11T22:12:28Z</time>
      </trkpt>
      <trkpt lat="44.50106" lon="6.11152">
        <ele>901</ele>
        <time>2016-05-11T22:14:28Z</time>
      </trkpt>
      <trkpt lat="44.50113" lon="6.1115">
        <ele>901</ele>
        <time>2016-05-11T22:16:28Z</time>
      </trkpt>
      <trkpt lat="44.50129" lon="6.11146">
        <ele>902</ele>
        <time>2016-05-11T22:18:28Z</time>
      </trkpt>
      <trkpt lat="44.50142" lon="6.11142">
        <ele>903</ele>
        <time>2016-05-11T22:20:28Z</time>
      </trkpt>
      <trkpt lat="44.50152" lon="6.1114">
        <ele>904</ele>
        <time>2016-05-11T22:22:28Z</time>
      </trkpt>
      <trkpt lat="44.50158" lon="6.11139">
        <ele>904</ele>
        <time>2016-05-11T22:24:28Z</time>
      </trkpt>
      <trkpt lat="44.50167" lon="6.1114">
        <ele>906</ele>
        <time>2016-05-11T22:26:28Z</time>
      </trkpt>
      <trkpt lat="44.50182" lon="6.11142">
        <ele>907</ele>
        <time>2016-05-11T22:28:28Z</time>
      </trkpt>
      <trkpt lat="44.50219" lon="6.1115">
        <ele>912</ele>
        <time>2016-05-11T22:30:28Z</time>
      </trkpt>
      <trkpt lat="44.50268" lon="6.11159">
        <ele>916</ele>
        <time>2016-05-11T22:32:28Z</time>
      </trkpt>
      <trkpt lat="44.50291" lon="6.11162">
        <ele>918</ele>
        <time>2016-05-11T22:34:28Z</time>
      </trkpt>
      <trkpt lat="44.50316" lon="6.11162">
        <ele>920</ele>
        <time>2016-05-11T22:36:28Z</time>
      </trkpt>
      <trkpt lat="44.50318" lon="6.11162">
        <ele>920</ele>
        <time>2016-05-11T22:38:28Z</time>
      </trkpt>
      <trkpt lat="44.50333" lon="6.11162">
        <ele>921</ele>
        <time>2016-05-11T22:40:28Z</time>
      </trkpt>
      <trkpt lat="44.50353" lon="6.1116">
        <ele>923</ele>
        <time>2016-05-11T22:42:28Z</time>
      </trkpt>
      <trkpt lat="44.50362" lon="6.11158">
        <ele>924</ele>
        <time>2016-05-11T22:44:28Z</time>
      </trkpt>
      <trkpt lat="44.50375" lon="6.11154">
        <ele>926</ele>
        <time>2016-05-11T22:46:28Z</time>
      </trkpt>
      <trkpt lat="44.50382" lon="6.11151">
        <ele>927</ele>
        <time>2016-05-11T22:48:28Z</time>
      </trkpt>
      <trkpt lat="44.50384" lon="6.1115">
        <ele>927</ele>
        <time>2016-05-11T22:50:28Z</time>
      </trkpt>
      <trkpt lat="44.5039" lon="6.11146">
        <ele>927</ele>
        <time>2016-05-11T22:52:28Z</time>
      </trkpt>
      <trkpt lat="44.50397" lon="6.11141">
        <ele>928</ele>
        <time>2016-05-11T22:54:28Z</time>
      </trkpt>
      <trkpt lat="44.50403" lon="6.11134">
        <ele>929</ele>
        <time>2016-05-11T22:56:28Z</time>
      </trkpt>
      <trkpt lat="44.50409" lon="6.11124">
        <ele>930</ele>
        <time>2016-05-11T22:58:28Z</time>
      </trkpt>
      <trkpt lat="44.50419" lon="6.11099">
        <ele>931</ele>
        <time>2016-05-11T23:00:28Z</time>
      </trkpt>
      <trkpt lat="44.50428" lon="6.11072">
        <ele>932</ele>
        <time>2016-05-11T23:02:28Z</time>
      </trkpt>
      <trkpt lat="44.50439" lon="6.11043">
        <ele>932</ele>
        <time>2016-05-11T23:04:28Z</time>
      </trkpt>
      <trkpt lat="44.50443" lon="6.11034">
        <ele>932</ele>
        <time>2016-05-11T23:06:28Z</time>
      </trkpt>
      <trkpt lat="44.50447" lon="6.11028">
        <ele>932</ele>
        <time>2016-05-11T23:08:28Z</time>
      </trkpt>
      <trkpt lat="44.50453" lon="6.11019">
        <ele>932</ele>
        <time>2016-05-11T23:10:28Z</time>
      </trkpt>
      <trkpt lat="44.50461" lon="6.11013">
        <ele>932</ele>
        <time>2016-05-11T23:12:28Z</time>
      </trkpt>
      <trkpt lat="44.50468" lon="6.11011">
        <ele>932</ele>
        <time>2016-05-11T23:14:28Z</time>
      </trkpt>
      <trkpt lat="44.50481" lon="6.11007">
        <ele>933</ele>
        <time>2016-05-11T23:16:28Z</time>
      </trkpt>
      <trkpt lat="44.50502" lon="6.11001">
        <ele>933</ele>
        <time>2016-05-11T23:18:28Z</time>
      </trkpt>
      <trkpt lat="44.50513" lon="6.10998">
        <ele>933</ele>
        <time>2016-05-11T23:20:28Z</time>
      </trkpt>
      <trkpt lat="44.50555" lon="6.10987">
        <ele>934</ele>
        <time>2016-05-11T23:22:28Z</time>
      </trkpt>
      <trkpt lat="44.50566" lon="6.10983">
        <ele>934</ele>
        <time>2016-05-11T23:24:28Z</time>
      </trkpt>
      <trkpt lat="44.50585" lon="6.10978">
        <ele>934</ele>
        <time>2016-05-11T23:26:28Z</time>
      </trkpt>
      <trkpt lat="44.5062" lon="6.10967">
        <ele>936</ele>
        <time>2016-05-11T23:28:28Z</time>
      </trkpt>
      <trkpt lat="44.50625" lon="6.10966">
        <ele>936</ele>
        <time>2016-05-11T23:30:28Z</time>
      </trkpt>
      <trkpt lat="44.5066" lon="6.10957">
        <ele>939</ele>
        <time>2016-05-11T23:32:28Z</time>
      </trkpt>
      <trkpt lat="44.50664" lon="6.10955">
        <ele>939</ele>
        <time>2016-05-11T23:34:28Z</time>
      </trkpt>
      <trkpt lat="44.50679" lon="6.10951">
        <ele>940</ele>
        <time>2016-05-11T23:36:28Z</time>
      </trkpt>
      <trkpt lat="44.50711" lon="6.10942">
        <ele>941</ele>
        <time>2016-05-11T23:38:28Z</time>
      </trkpt>
      <trkpt lat="44.50719" lon="6.1094">
        <ele>941</ele>
        <time>2016-05-11T23:40:28Z</time>
      </trkpt>
      <trkpt lat="44.50772" lon="6.10924">
        <ele>943</ele>
        <time>2016-05-11T23:42:28Z</time>
      </trkpt>
      <trkpt lat="44.50806" lon="6.10915">
        <ele>944</ele>
        <time>2016-05-11T23:44:28Z</time>
      </trkpt>
      <trkpt lat="44.50823" lon="6.10911">
        <ele>944</ele>
        <time>2016-05-11T23:46:28Z</time>
      </trkpt>
      <trkpt lat="44.50849" lon="6.10903">
        <ele>945</ele>
        <time>2016-05-11T23:48:28Z</time>
      </trkpt>
      <trkpt lat="44.50856" lon="6.10901">
        <ele>945</ele>
        <time>2016-05-11T23:50:28Z</time>
      </trkpt>
      <trkpt lat="44.50862" lon="6.10899">
        <ele>945</ele>
        <time>2016-05-11T23:52:28Z</time>
      </trkpt>
      <trkpt lat="44.50866" lon="6.10897">
        <ele>945</ele>
        <time>2016-05-11T23:54:28Z</time>
      </trkpt>
      <trkpt lat="44.50874" lon="6.10894">
        <ele>945</ele>
        <time>2016-05-11T23:56:28Z</time>
      </trkpt>
      <trkpt lat="44.50882" lon="6.1089">
        <ele>945</ele>
        <time>2016-05-11T23:58:28Z</time>
      </trkpt>
      <trkpt lat="44.50886" lon="6.10887">
        <ele>945</ele>
        <time>2016-05-12T00:00:28Z</time>
      </trkpt>
      <trkpt lat="44.50889" lon="6.10886">
        <ele>945</ele>
        <time>2016-05-12T00:02:28Z</time>
      </trkpt>
      <trkpt lat="44.50893" lon="6.10882">
        <ele>945</ele>
        <time>2016-05-12T00:04:28Z</time>
      </trkpt>
      <trkpt lat="44.50896" lon="6.1088">
        <ele>946</ele>
        <time>2016-05-12T00:06:28Z</time>
      </trkpt>
      <trkpt lat="44.50899" lon="6.10877">
        <ele>946</ele>
        <time>2016-05-12T00:08:28Z</time>
      </trkpt>
      <trkpt lat="44.50904" lon="6.10873">
        <ele>946</ele>
        <time>2016-05-12T00:10:28Z</time>
      </trkpt>
      <trkpt lat="44.50905" lon="6.10872">
        <ele>946</ele>
        <time>2016-05-12T00:12:28Z</time>
      </trkpt>
      <trkpt lat="44.50917" lon="6.10858">
        <ele>946</ele>
        <time>2016-05-12T00:14:28Z</time>
      </trkpt>
      <trkpt lat="44.5092" lon="6.10853">
        <ele>946</ele>
        <time>2016-05-12T00:16:28Z</time>
      </trkpt>
      <trkpt lat="44.5094" lon="6.10824">
        <ele>947</ele>
        <time>2016-05-12T00:18:28Z</time>
      </trkpt>
      <trkpt lat="44.50947" lon="6.10813">
        <ele>948</ele>
        <time>2016-05-12T00:20:28Z</time>
      </trkpt>
      <trkpt lat="44.50961" lon="6.1079">
        <ele>949</ele>
        <time>2016-05-12T00:22:28Z</time>
      </trkpt>
      <trkpt lat="44.50965" lon="6.10784">
        <ele>950</ele>
        <time>2016-05-12T00:24:28Z</time>
      </trkpt>
      <trkpt lat="44.5098" lon="6.1076">
        <ele>951</ele>
        <time>2016-05-12T00:26:28Z</time>
      </trkpt>
      <trkpt lat="44.51032" lon="6.10676">
        <ele>958</ele>
        <time>2016-05-12T00:28:28Z</time>
      </trkpt>
      <trkpt lat="44.51037" lon="6.10668">
        <ele>959</ele>
        <time>2016-05-12T00:30:28Z</time>
      </trkpt>
      <trkpt lat="44.51047" lon="6.10649">
        <ele>961</ele>
        <time>2016-05-12T00:32:28Z</time>
      </trkpt>
      <trkpt lat="44.51049" lon="6.10644">
        <ele>961</ele>
        <time>2016-05-12T00:34:28Z</time>
      </trkpt>
      <trkpt lat="44.51052" lon="6.10635">
        <ele>962</ele>
        <time>2016-05-12T00:36:28Z</time>
      </trkpt>
      <trkpt lat="44.51057" lon="6.10621">
        <ele>963</ele>
        <time>2016-05-12T00:38:28Z</time>
      </trkpt>
      <trkpt lat="44.51061" lon="6.10605">
        <ele>964</ele>
        <time>2016-05-12T00:40:28Z</time>
      </trkpt>
      <trkpt lat="44.51064" lon="6.10592">
        <ele>965</ele>
        <time>2016-05-12T00:42:28Z</time>
      </trkpt>
      <trkpt lat="44.51064" lon="6.10582">
        <ele>965</ele>
        <time>2016-05-12T00:44:28Z</time>
      </trkpt>
      <trkpt lat="44.51063" lon="6.10566">
        <ele>965</ele>
        <time>2016-05-12T00:46:28Z</time>
      </trkpt>
      <trkpt lat="44.51061" lon="6.10539">
        <ele>966</ele>
        <time>2016-05-12T00:48:28Z</time>
      </trkpt>
      <trkpt lat="44.51058" lon="6.10497">
        <ele>967</ele>
        <time>2016-05-12T00:50:28Z</time>
      </trkpt>
      <trkpt lat="44.51058" lon="6.10466">
        <ele>967</ele>
        <time>2016-05-12T00:52:28Z</time>
      </trkpt>
      <trkpt lat="44.51058" lon="6.1046">
        <ele>967</ele>
        <time>2016-05-12T00:54:28Z</time>
      </trkpt>
      <trkpt lat="44.51059" lon="6.10452">
        <ele>967</ele>
        <time>2016-05-12T00:56:28Z</time>
      </trkpt>
      <trkpt lat="44.5106" lon="6.10441">
        <ele>967</ele>
        <time>2016-05-12T00:58:28Z</time>
      </trkpt>
      <trkpt lat="44.51061" lon="6.10431">
        <ele>967</ele>
        <time>2016-05-12T01:00:28Z</time>
      </trkpt>
      <trkpt lat="44.51065" lon="6.1042">
        <ele>967</ele>
        <time>2016-05-12T01:02:28Z</time>
      </trkpt>
      <trkpt lat="44.51074" lon="6.10404">
        <ele>969</ele>
        <time>2016-05-12T01:04:28Z</time>
      </trkpt>
      <trkpt lat="44.51089" lon="6.10381">
        <ele>971</ele>
        <time>2016-05-12T01:06:28Z</time>
      </trkpt>
      <trkpt lat="44.51108" lon="6.10353">
        <ele>973</ele>
        <time>2016-05-12T01:08:28Z</time>
      </trkpt>
      <trkpt lat="44.51129" lon="6.10319">
        <ele>975</ele>
        <time>2016-05-12T01:10:28Z</time>
      </trkpt>
      <trkpt lat="44.51147" lon="6.10292">
        <ele>976</ele>
        <time>2016-05-12T01:12:28Z</time>
      </trkpt>
      <trkpt lat="44.51165" lon="6.10268">
        <ele>977</ele>
        <time>2016-05-12T01:14:28Z</time>
      </trkpt>
      <trkpt lat="44.5118" lon="6.10252">
        <ele>978</ele>
        <time>2016-05-12T01:16:28Z</time>
      </trkpt>
      <trkpt lat="44.51199" lon="6.10235">
        <ele>980</ele>
        <time>2016-05-12T01:18:28Z</time>
      </trkpt>
      <trkpt lat="44.51217" lon="6.1022">
        <ele>981</ele>
        <time>2016-05-12T01:20:28Z</time>
      </trkpt>
      <trkpt lat="44.51224" lon="6.10211">
        <ele>981</ele>
        <time>2016-05-12T01:22:28Z</time>
      </trkpt>
      <trkpt lat="44.51228" lon="6.10205">
        <ele>981</ele>
        <time>2016-05-12T01:24:28Z</time>
      </trkpt>
      <trkpt lat="44.51238" lon="6.1019">
        <ele>981</ele>
        <time>2016-05-12T01:26:28Z</time>
      </trkpt>
      <trkpt lat="44.51255" lon="6.10158">
        <ele>981</ele>
        <time>2016-05-12T01:28:28Z</time>
      </trkpt>
      <trkpt lat="44.5127" lon="6.10123">
        <ele>982</ele>
        <time>2016-05-12T01:30:28Z</time>
      </trkpt>
      <trkpt lat="44.51283" lon="6.10092">
        <ele>982</ele>
        <time>2016-05-12T01:32:28Z</time>
      </trkpt>
      <trkpt lat="44.51294" lon="6.10071">
        <ele>982</ele>
        <time>2016-05-12T01:34:28Z</time>
      </trkpt>
      <trkpt lat="44.51308" lon="6.10054">
        <ele>981</ele>
        <time>2016-05-12T01:36:28Z</time>
      </trkpt>
      <trkpt lat="44.51318" lon="6.10043">
        <ele>981</ele>
        <time>2016-05-12T01:38:28Z</time>
      </trkpt>
      <trkpt lat="44.51322" lon="6.1004">
        <ele>981</ele>
        <time>2016-05-12T01:40:28Z</time>
      </trkpt>
      <trkpt lat="44.51338" lon="6.10025">
        <ele>980</ele>
        <time>2016-05-12T01:42:28Z</time>
      </trkpt>
      <trkpt lat="44.51344" lon="6.10021">
        <ele>980</ele>
        <time>2016-05-12T01:44:28Z</time>
      </trkpt>
      <trkpt lat="44.51357" lon="6.10011">
        <ele>979</ele>
        <time>2016-05-12T01:46:28Z</time>
      </trkpt>
      <trkpt lat="44.51373" lon="6.10001">
        <ele>979</ele>
        <time>2016-05-12T01:48:28Z</time>
      </trkpt>
      <trkpt lat="44.51379" lon="6.09997">
        <ele>978</ele>
        <time>2016-05-12T01:50:28Z</time>
      </trkpt>
      <trkpt lat="44.51394" lon="6.09987">
        <ele>976</ele>
        <time>2016-05-12T01:52:28Z</time>
      </trkpt>
      <trkpt lat="44.51397" lon="6.09986">
        <ele>976</ele>
        <time>2016-05-12T01:54:28Z</time>
      </trkpt>
      <trkpt lat="44.51417" lon="6.09973">
        <ele>973</ele>
        <time>2016-05-12T01:56:28Z</time>
      </trkpt>
      <trkpt lat="44.51434" lon="6.09965">
        <ele>970</ele>
        <time>2016-05-12T01:58:28Z</time>
      </trkpt>
      <trkpt lat="44.51442" lon="6.09962">
        <ele>969</ele>
        <time>2016-05-12T02:00:28Z</time>
      </trkpt>
      <trkpt lat="44.51455" lon="6.09959">
        <ele>968</ele>
        <time>2016-05-12T02:02:28Z</time>
      </trkpt>
      <trkpt lat="44.51474" lon="6.09956">
        <ele>967</ele>
        <time>2016-05-12T02:04:28Z</time>
      </trkpt>
      <trkpt lat="44.51493" lon="6.09953">
        <ele>965</ele>
        <time>2016-05-12T02:06:28Z</time>
      </trkpt>
      <trkpt lat="44.51508" lon="6.09953">
        <ele>964</ele>
        <time>2016-05-12T02:08:28Z</time>
      </trkpt>
      <trkpt lat="44.51525" lon="6.09953">
        <ele>962</ele>
        <time>2016-05-12T02:10:28Z</time>
      </trkpt>
      <trkpt lat="44.51543" lon="6.09957">
        <ele>962</ele>
        <time>2016-05-12T02:12:28Z</time>
      </trkpt>
      <trkpt lat="44.51557" lon="6.0996">
        <ele>962</ele>
        <time>2016-05-12T02:14:28Z</time>
      </trkpt>
      <trkpt lat="44.51571" lon="6.09961">
        <ele>961</ele>
        <time>2016-05-12T02:16:28Z</time>
      </trkpt>
      <trkpt lat="44.51592" lon="6.09964">
        <ele>959</ele>
        <time>2016-05-12T02:18:28Z</time>
      </trkpt>
      <trkpt lat="44.5161" lon="6.09967">
        <ele>957</ele>
        <time>2016-05-12T02:20:28Z</time>
      </trkpt>
      <trkpt lat="44.51628" lon="6.09972">
        <ele>956</ele>
        <time>2016-05-12T02:22:28Z</time>
      </trkpt>
      <trkpt lat="44.51636" lon="6.09977">
        <ele>956</ele>
        <time>2016-05-12T02:24:28Z</time>
      </trkpt>
      <trkpt lat="44.51643" lon="6.09981">
        <ele>956</ele>
        <time>2016-05-12T02:26:28Z</time>
      </trkpt>
      <trkpt lat="44.5165" lon="6.09987">
        <ele>957</ele>
        <time>2016-05-12T02:28:28Z</time>
      </trkpt>
      <trkpt lat="44.51661" lon="6.09995">
        <ele>957</ele>
        <time>2016-05-12T02:30:28Z</time>
      </trkpt>
      <trkpt lat="44.51676" lon="6.10007">
        <ele>957</ele>
        <time>2016-05-12T02:32:28Z</time>
      </trkpt>
      <trkpt lat="44.51687" lon="6.10013">
        <ele>955</ele>
        <time>2016-05-12T02:34:28Z</time>
      </trkpt>
      <trkpt lat="44.51699" lon="6.10019">
        <ele>953</ele>
        <time>2016-05-12T02:36:28Z</time>
      </trkpt>
      <trkpt lat="44.51714" lon="6.10023">
        <ele>950</ele>
        <time>2016-05-12T02:38:28Z</time>
      </trkpt>
      <trkpt lat="44.51733" lon="6.1003">
        <ele>945</ele>
        <time>2016-05-12T02:40:28Z</time>
      </trkpt>
      <trkpt lat="44.51742" lon="6.10036">
        <ele>944</ele>
        <time>2016-05-12T02:42:28Z</time>
      </trkpt>
      <trkpt lat="44.51743" lon="6.10036">
        <ele>944</ele>
        <time>2016-05-12T02:44:28Z</time>
      </trkpt>
      <trkpt lat="44.51752" lon="6.10047">
        <ele>944</ele>
        <time>2016-05-12T02:46:28Z</time>
      </trkpt>
      <trkpt lat="44.51752" lon="6.10048">
        <ele>944</ele>
        <time>2016-05-12T02:48:28Z</time>
      </trkpt>
      <trkpt lat="44.51764" lon="6.10074">
        <ele>947</ele>
        <time>2016-05-12T02:50:28Z</time>
      </trkpt>
      <trkpt lat="44.51772" lon="6.10097">
        <ele>949</ele>
        <time>2016-05-12T02:52:28Z</time>
      </trkpt>
      <trkpt lat="44.51782" lon="6.1013">
        <ele>950</ele>
        <time>2016-05-12T02:54:28Z</time>
      </trkpt>
      <trkpt lat="44.51787" lon="6.10147">
        <ele>950</ele>
        <time>2016-05-12T02:56:28Z</time>
      </trkpt>
      <trkpt lat="44.51791" lon="6.10169">
        <ele>952</ele>
        <time>2016-05-12T02:58:28Z</time>
      </trkpt>
      <trkpt lat="44.51794" lon="6.10188">
        <ele>953</ele>
        <time>2016-05-12T03:00:28Z</time>
      </trkpt>
      <trkpt lat="44.51798" lon="6.10203">
        <ele>954</ele>
        <time>2016-05-12T03:02:28Z</time>
      </trkpt>
      <trkpt lat="44.51805" lon="6.10217">
        <ele>953</ele>
        <time>2016-05-12T03:04:28Z</time>
      </trkpt>
      <trkpt lat="44.51811" lon="6.10224">
        <ele>953</ele>
        <time>2016-05-12T03:06:28Z</time>
      </trkpt>
      <trkpt lat="44.51817" lon="6.10228">
        <ele>951</ele>
        <time>2016-05-12T03:08:28Z</time>
      </trkpt>
      <trkpt lat="44.51824" lon="6.10229">
        <ele>950</ele>
        <time>2016-05-12T03:10:28Z</time>
      </trkpt>
      <trkpt lat="44.51829" lon="6.10228">
        <ele>948</ele>
        <time>2016-05-12T03:12:28Z</time>
      </trkpt>
      <trkpt lat="44.51834" lon="6.10225">
        <ele>947</ele>
        <time>2016-05-12T03:14:28Z</time>
      </trkpt>
      <trkpt lat="44.51845" lon="6.10217">
        <ele>948</ele>
        <time>2016-05-12T03:16:28Z</time>
      </trkpt>
      <trkpt lat="44.51853" lon="6.1021">
        <ele>949</ele>
        <time>2016-05-12T03:18:28Z</time>
      </trkpt>
      <trkpt lat="44.51859" lon="6.10202">
        <ele>950</ele>
        <time>2016-05-12T03:20:28Z</time>
      </trkpt>
      <trkpt lat="44.51864" lon="6.10189">
        <ele>950</ele>
        <time>2016-05-12T03:22:28Z</time>
      </trkpt>
      <trkpt lat="44.51866" lon="6.10176">
        <ele>950</ele>
        <time>2016-05-12T03:24:28Z</time>
      </trkpt>
      <trkpt lat="44.51864" lon="6.10159">
        <ele>947</ele>
        <time>2016-05-12T03:26:28Z</time>
      </trkpt>
      <trkpt lat="44.51861" lon="6.10136">
        <ele>943</ele>
        <time>2016-05-12T03:28:28Z</time>
      </trkpt>
      <trkpt lat="44.51859" lon="6.10116">
        <ele>940</ele>
        <time>2016-05-12T03:30:28Z</time>
      </trkpt>
      <trkpt lat="44.51861" lon="6.10094">
        <ele>937</ele>
        <time>2016-05-12T03:32:28Z</time>
      </trkpt>
      <trkpt lat="44.51867" lon="6.10073">
        <ele>935</ele>
        <time>2016-05-12T03:34:28Z</time>
      </trkpt>
      <trkpt lat="44.51874" lon="6.10059">
        <ele>934</ele>
        <time>2016-05-12T03:36:28Z</time>
      </trkpt>
      <trkpt lat="44.51884" lon="6.10036">
        <ele>931</ele>
        <time>2016-05-12T03:38:28Z</time>
      </trkpt>
      <trkpt lat="44.51891" lon="6.10019">
        <ele>928</ele>
        <time>2016-05-12T03:40:28Z</time>
      </trkpt>
      <trkpt lat="44.51895" lon="6.10002">
        <ele>925</ele>
        <time>2016-05-12T03:42:28Z</time>
      </trkpt>
      <trkpt lat="44.51895" lon="6.09984">
        <ele>921</ele>
        <time>2016-05-12T03:44:28Z</time>
      </trkpt>
      <trkpt lat="44.51895" lon="6.09973">
        <ele>919</ele>
        <time>2016-05-12T03:46:28Z</time>
      </trkpt>
      <trkpt lat="44.51894" lon="6.09963">
        <ele>917</ele>
        <time>2016-05-12T03:48:28Z</time>
      </trkpt>
      <trkpt lat="44.51895" lon="6.09949">
        <ele>914</ele>
        <time>2016-05-12T03:50:28Z</time>
      </trkpt>
      <trkpt lat="44.51898" lon="6.09941">
        <ele>913</ele>
        <time>2016-05-12T03:52:28Z</time>
      </trkpt>
      <trkpt lat="44.51904" lon="6.09934">
        <ele>913</ele>
        <time>2016-05-12T03:54:28Z</time>
      </trkpt>
      <trkpt lat="44.5191" lon="6.09932">
        <ele>914</ele>
        <time>2016-05-12T03:56:28Z</time>
      </trkpt>
      <trkpt lat="44.51918" lon="6.09932">
        <ele>915</ele>
        <time>2016-05-12T03:58:28Z</time>
      </trkpt>
      <trkpt lat="44.5193" lon="6.09936">
        <ele>916</ele>
        <time>2016-05-12T04:00:28Z</time>
      </trkpt>
      <trkpt lat="44.51945" lon="6.09942">
        <ele>916</ele>
        <time>2016-05-12T04:02:28Z</time>
      </trkpt>
      <trkpt lat="44.51966" lon="6.09952">
        <ele>918</ele>
        <time>2016-05-12T04:04:28Z</time>
      </trkpt>
      <trkpt lat="44.51988" lon="6.09959">
        <ele>919</ele>
        <time>2016-05-12T04:06:28Z</time>
      </trkpt>
      <trkpt lat="44.52003" lon="6.09963">
        <ele>920</ele>
        <time>2016-05-12T04:08:28Z</time>
      </trkpt>
      <trkpt lat="44.5201" lon="6.09963">
        <ele>919</ele>
        <time>2016-05-12T04:10:28Z</time>
      </trkpt>
      <trkpt lat="44.52023" lon="6.09957">
        <ele>917</ele>
        <time>2016-05-12T04:12:28Z</time>
      </trkpt>
      <trkpt lat="44.52036" lon="6.09947">
        <ele>914</ele>
        <time>2016-05-12T04:14:28Z</time>
      </trkpt>
      <trkpt lat="44.52044" lon="6.09944">
        <ele>913</ele>
        <time>2016-05-12T04:16:28Z</time>
      </trkpt>
      <trkpt lat="44.52055" lon="6.09943">
        <ele>912</ele>
        <time>2016-05-12T04:18:28Z</time>
      </trkpt>
      <trkpt lat="44.52073" lon="6.09946">
        <ele>912</ele>
        <time>2016-05-12T04:20:28Z</time>
      </trkpt>
      <trkpt lat="44.5211" lon="6.09956">
        <ele>911</ele>
        <time>2016-05-12T04:22:28Z</time>
      </trkpt>
      <trkpt lat="44.52115" lon="6.09957">
        <ele>911</ele>
        <time>2016-05-12T04:24:28Z</time>
      </trkpt>
      <trkpt lat="44.52144" lon="6.09964">
        <ele>909</ele>
        <time>2016-05-12T04:26:28Z</time>
      </trkpt>
      <trkpt lat="44.52174" lon="6.09971">
        <ele>907</ele>
        <time>2016-05-12T04:28:28Z</time>
      </trkpt>
      <trkpt lat="44.52197" lon="6.09976">
        <ele>906</ele>
        <time>2016-05-12T04:30:28Z</time>
      </trkpt>
      <trkpt lat="44.52202" lon="6.09977">
        <ele>906</ele>
        <time>2016-05-12T04:32:28Z</time>
      </trkpt>
      <trkpt lat="44.52218" lon="6.0998">
        <ele>905</ele>
        <time>2016-05-12T04:34:28Z</time>
      </trkpt>
      <trkpt lat="44.52223" lon="6.09981">
        <ele>905</ele>
        <time>2016-05-12T04:36:28Z</time>
      </trkpt>
      <trkpt lat="44.5224" lon="6.09983">
        <ele>904</ele>
        <time>2016-05-12T04:38:28Z</time>
      </trkpt>
      <trkpt lat="44.5225" lon="6.09981">
        <ele>902</ele>
        <time>2016-05-12T04:40:28Z</time>
      </trkpt>
      <trkpt lat="44.52257" lon="6.09978">
        <ele>902</ele>
        <time>2016-05-12T04:42:28Z</time>
      </trkpt>
      <trkpt lat="44.52272" lon="6.0997">
        <ele>900</ele>
        <time>2016-05-12T04:44:28Z</time>
      </trkpt>
      <trkpt lat="44.52281" lon="6.09965">
        <ele>899</ele>
        <time>2016-05-12T04:46:28Z</time>
      </trkpt>
      <trkpt lat="44.52299" lon="6.09955">
        <ele>897</ele>
        <time>2016-05-12T04:48:28Z</time>
      </trkpt>
      <trkpt lat="44.52325" lon="6.09944">
        <ele>896</ele>
        <time>2016-05-12T04:50:28Z</time>
      </trkpt>
      <trkpt lat="44.52346" lon="6.09934">
        <ele>893</ele>
        <time>2016-05-12T04:52:28Z</time>
      </trkpt>
      <trkpt lat="44.52367" lon="6.09927">
        <ele>890</ele>
        <time>2016-05-12T04:54:28Z</time>
      </trkpt>
      <trkpt lat="44.52382" lon="6.09923">
        <ele>889</ele>
        <time>2016-05-12T04:56:28Z</time>
      </trkpt>
      <trkpt lat="44.52393" lon="6.0992">
        <ele>888</ele>
        <time>2016-05-12T04:58:28Z</time>
      </trkpt>
      <trkpt lat="44.52404" lon="6.09918">
        <ele>887</ele>
        <time>2016-05-12T05:00:28Z</time>
      </trkpt>
      <trkpt lat="44.52412" lon="6.09917">
        <ele>886</ele>
        <time>2016-05-12T05:02:28Z</time>
      </trkpt>
      <trkpt lat="44.52422" lon="6.09917">
        <ele>885</ele>
        <time>2016-05-12T05:04:28Z</time>
      </trkpt>
      <trkpt lat="44.5243" lon="6.09919">
        <ele>883</ele>
        <time>2016-05-12T05:06:28Z</time>
      </trkpt>
      <trkpt lat="44.52439" lon="6.09922">
        <ele>881</ele>
        <time>2016-05-12T05:08:28Z</time>
      </trkpt>
      <trkpt lat="44.52447" lon="6.09925">
        <ele>880</ele>
        <time>2016-05-12T05:10:28Z</time>
      </trkpt>
      <trkpt lat="44.52456" lon="6.0993">
        <ele>879</ele>
        <time>2016-05-12T05:12:28Z</time>
      </trkpt>
      <trkpt lat="44.52465" lon="6.09937">
        <ele>878</ele>
        <time>2016-05-12T05:14:28Z</time>
      </trkpt>
      <trkpt lat="44.52471" lon="6.09942">
        <ele>877</ele>
        <time>2016-05-12T05:16:28Z</time>
      </trkpt>
      <trkpt lat="44.52477" lon="6.09947">
        <ele>877</ele>
        <time>2016-05-12T05:18:28Z</time>
      </trkpt>
      <trkpt lat="44.52483" lon="6.09954">
        <ele>877</ele>
        <time>2016-05-12T05:20:28Z</time>
      </trkpt>
      <trkpt lat="44.52494" lon="6.09966">
        <ele>877</ele>
        <time>2016-05-12T05:22:28Z</time>
      </trkpt>
      <trkpt lat="44.525" lon="6.09974">
        <ele>877</ele>
        <time>2016-05-12T05:24:28Z</time>
      </trkpt>
      <trkpt lat="44.52508" lon="6.09986">
        <ele>879</ele>
        <time>2016-05-12T05:26:28Z</time>
      </trkpt>
      <trkpt lat="44.52517" lon="6.1">
        <ele>881</ele>
        <time>2016-05-12T05:28:28Z</time>
      </trkpt>
      <trkpt lat="44.52524" lon="6.10014">
        <ele>881</ele>
        <time>2016-05-12T05:30:28Z</time>
      </trkpt>
      <trkpt lat="44.5253" lon="6.10031">
        <ele>883</ele>
        <time>2016-05-12T05:32:28Z</time>
      </trkpt>
      <trkpt lat="44.52533" lon="6.10045">
        <ele>884</ele>
        <time>2016-05-12T05:34:28Z</time>
      </trkpt>
      <trkpt lat="44.52535" lon="6.10056">
        <ele>885</ele>
        <time>2016-05-12T05:36:28Z</time>
      </trkpt>
      <trkpt lat="44.52535" lon="6.10067">
        <ele>886</ele>
        <time>2016-05-12T05:38:28Z</time>
      </trkpt>
      <trkpt lat="44.52535" lon="6.10081">
        <ele>888</ele>
        <time>2016-05-12T05:40:28Z</time>
      </trkpt>
      <trkpt lat="44.52534" lon="6.10099">
        <ele>889</ele>
        <time>2016-05-12T05:42:28Z</time>
      </trkpt>
      <trkpt lat="44.5253" lon="6.10119">
        <ele>891</ele>
        <time>2016-05-12T05:44:28Z</time>
      </trkpt>
      <trkpt lat="44.52528" lon="6.10139">
        <ele>892</ele>
        <time>2016-05-12T05:46:28Z</time>
      </trkpt>
      <trkpt lat="44.52526" lon="6.10154">
        <ele>893</ele>
        <time>2016-05-12T05:48:28Z</time>
      </trkpt>
      <trkpt lat="44.52526" lon="6.10162">
        <ele>893</ele>
        <time>2016-05-12T05:50:28Z</time>
      </trkpt>
      <trkpt lat="44.52526" lon="6.10169">
        <ele>893</ele>
        <time>2016-05-12T05:52:28Z</time>
      </trkpt>
      <trkpt lat="44.52528" lon="6.10175">
        <ele>894</ele>
        <time>2016-05-12T05:54:28Z</time>
      </trkpt>
      <trkpt lat="44.52531" lon="6.1018">
        <ele>893</ele>
        <time>2016-05-12T05:56:28Z</time>
      </trkpt>
      <trkpt lat="44.52535" lon="6.10183">
        <ele>893</ele>
        <time>2016-05-12T05:58:28Z</time>
      </trkpt>
      <trkpt lat="44.52539" lon="6.10185">
        <ele>893</ele>
        <time>2016-05-12T06:00:28Z</time>
      </trkpt>
      <trkpt lat="44.52541" lon="6.10185">
        <ele>893</ele>
        <time>2016-05-12T06:02:28Z</time>
      </trkpt>
      <trkpt lat="44.52544" lon="6.10185">
        <ele>892</ele>
        <time>2016-05-12T06:04:28Z</time>
      </trkpt>
      <trkpt lat="44.5255" lon="6.10185">
        <ele>892</ele>
        <time>2016-05-12T06:06:28Z</time>
      </trkpt>
      <trkpt lat="44.52556" lon="6.10184">
        <ele>891</ele>
        <time>2016-05-12T06:08:28Z</time>
      </trkpt>
      <trkpt lat="44.52561" lon="6.10181">
        <ele>890</ele>
        <time>2016-05-12T06:10:28Z</time>
      </trkpt>
      <trkpt lat="44.52564" lon="6.1018">
        <ele>889</ele>
        <time>2016-05-12T06:12:28Z</time>
      </trkpt>
      <trkpt lat="44.52569" lon="6.10177">
        <ele>888</ele>
        <time>2016-05-12T06:14:28Z</time>
      </trkpt>
      <trkpt lat="44.52572" lon="6.10174">
        <ele>888</ele>
        <time>2016-05-12T06:16:28Z</time>
      </trkpt>
      <trkpt lat="44.52574" lon="6.10171">
        <ele>887</ele>
        <time>2016-05-12T06:18:28Z</time>
      </trkpt>
      <trkpt lat="44.52576" lon="6.10166">
        <ele>886</ele>
        <time>2016-05-12T06:20:28Z</time>
      </trkpt>
      <trkpt lat="44.52579" lon="6.10159">
        <ele>885</ele>
        <time>2016-05-12T06:22:28Z</time>
      </trkpt>
      <trkpt lat="44.52584" lon="6.1013">
        <ele>882</ele>
        <time>2016-05-12T06:24:28Z</time>
      </trkpt>
      <trkpt lat="44.52589" lon="6.10103">
        <ele>881</ele>
        <time>2016-05-12T06:26:28Z</time>
      </trkpt>
      <trkpt lat="44.52592" lon="6.10082">
        <ele>881</ele>
        <time>2016-05-12T06:28:28Z</time>
      </trkpt>
      <trkpt lat="44.52597" lon="6.10042">
        <ele>878</ele>
        <time>2016-05-12T06:30:28Z</time>
      </trkpt>
      <trkpt lat="44.52598" lon="6.10027">
        <ele>877</ele>
        <time>2016-05-12T06:32:28Z</time>
      </trkpt>
      <trkpt lat="44.52598" lon="6.10011">
        <ele>875</ele>
        <time>2016-05-12T06:34:28Z</time>
      </trkpt>
      <trkpt lat="44.52598" lon="6.09997">
        <ele>874</ele>
        <time>2016-05-12T06:36:28Z</time>
      </trkpt>
      <trkpt lat="44.52597" lon="6.09978">
        <ele>871</ele>
        <time>2016-05-12T06:38:28Z</time>
      </trkpt>
      <trkpt lat="44.52595" lon="6.09959">
        <ele>869</ele>
        <time>2016-05-12T06:40:28Z</time>
      </trkpt>
      <trkpt lat="44.52593" lon="6.0994">
        <ele>866</ele>
        <time>2016-05-12T06:42:28Z</time>
      </trkpt>
      <trkpt lat="44.52592" lon="6.09934">
        <ele>865</ele>
        <time>2016-05-12T06:44:28Z</time>
      </trkpt>
      <trkpt lat="44.5259" lon="6.09924">
        <ele>864</ele>
        <time>2016-05-12T06:46:28Z</time>
      </trkpt>
      <trkpt lat="44.52584" lon="6.09903">
        <ele>861</ele>
        <time>2016-05-12T06:48:28Z</time>
      </trkpt>
      <trkpt lat="44.52582" lon="6.09891">
        <ele>860</ele>
        <time>2016-05-12T06:50:28Z</time>
      </trkpt>
      <trkpt lat="44.52579" lon="6.0988">
        <ele>859</ele>
        <time>2016-05-12T06:52:28Z</time>
      </trkpt>
      <trkpt lat="44.52579" lon="6.09872">
        <ele>859</ele>
        <time>2016-05-12T06:54:28Z</time>
      </trkpt>
      <trkpt lat="44.52578" lon="6.09862">
        <ele>858</ele>
        <time>2016-05-12T06:56:28Z</time>
      </trkpt>
      <trkpt lat="44.52579" lon="6.09853">
        <ele>858</ele>
        <time>2016-05-12T06:58:28Z</time>
      </trkpt>
      <trkpt lat="44.52583" lon="6.09825">
        <ele>857</ele>
        <time>2016-05-12T07:00:28Z</time>
      </trkpt>
      <trkpt lat="44.52584" lon="6.09817">
        <ele>856</ele>
        <time>2016-05-12T07:02:28Z</time>
      </trkpt>
      <trkpt lat="44.52588" lon="6.09797">
        <ele>854</ele>
        <time>2016-05-12T07:04:28Z</time>
      </trkpt>
      <trkpt lat="44.5259" lon="6.09785">
        <ele>853</ele>
        <time>2016-05-12T07:06:28Z</time>
      </trkpt>
      <trkpt lat="44.52593" lon="6.09777">
        <ele>852</ele>
        <time>2016-05-12T07:08:28Z</time>
      </trkpt>
      <trkpt lat="44.52596" lon="6.09772">
        <ele>852</ele>
        <time>2016-05-12T07:10:28Z</time>
      </trkpt>
      <trkpt lat="44.52601" lon="6.09767">
        <ele>852</ele>
        <time>2016-05-12T07:12:28Z</time>
      </trkpt>
      <trkpt lat="44.52606" lon="6.09764">
        <ele>852</ele>
        <time>2016-05-12T07:14:28Z</time>
      </trkpt>
      <trkpt lat="44.52635" lon="6.09755">
        <ele>854</ele>
        <time>2016-05-12T07:16:28Z</time>
      </trkpt>
      <trkpt lat="44.52657" lon="6.09747">
        <ele>855</ele>
        <time>2016-05-12T07:18:28Z</time>
      </trkpt>
      <trkpt lat="44.5268" lon="6.09738">
        <ele>855</ele>
        <time>2016-05-12T07:20:28Z</time>
      </trkpt>
      <trkpt lat="44.52717" lon="6.0972">
        <ele>856</ele>
        <time>2016-05-12T07:22:28Z</time>
      </trkpt>
      <trkpt lat="44.52739" lon="6.09708">
        <ele>856</ele>
        <time>2016-05-12T07:24:28Z</time>
      </trkpt>
      <trkpt lat="44.52746" lon="6.09703">
        <ele>856</ele>
        <time>2016-05-12T07:26:28Z</time>
      </trkpt>
      <trkpt lat="44.52752" lon="6.09699">
        <ele>856</ele>
        <time>2016-05-12T07:28:28Z</time>
      </trkpt>
      <trkpt lat="44.52759" lon="6.09694">
        <ele>856</ele>
        <time>2016-05-12T07:30:28Z</time>
      </trkpt>
      <trkpt lat="44.52767" lon="6.09685">
        <ele>856</ele>
        <time>2016-05-12T07:32:28Z</time>
      </trkpt>
      <trkpt lat="44.52775" lon="6.09677">
        <ele>855</ele>
        <time>2016-05-12T07:34:28Z</time>
      </trkpt>
      <trkpt lat="44.52784" lon="6.09665">
        <ele>854</ele>
        <time>2016-05-12T07:36:28Z</time>
      </trkpt>
      <trkpt lat="44.5279" lon="6.0966">
        <ele>854</ele>
        <time>2016-05-12T07:38:28Z</time>
      </trkpt>
      <trkpt lat="44.52792" lon="6.09659">
        <ele>854</ele>
        <time>2016-05-12T07:40:28Z</time>
      </trkpt>
      <trkpt lat="44.52809" lon="6.09648">
        <ele>854</ele>
        <time>2016-05-12T07:42:28Z</time>
      </trkpt>
      <trkpt lat="44.52824" lon="6.0964">
        <ele>854</ele>
        <time>2016-05-12T07:44:28Z</time>
      </trkpt>
      <trkpt lat="44.52827" lon="6.09638">
        <ele>854</ele>
        <time>2016-05-12T07:46:28Z</time>
      </trkpt>
      <trkpt lat="44.52843" lon="6.09628">
        <ele>853</ele>
        <time>2016-05-12T07:48:28Z</time>
      </trkpt>
      <trkpt lat="44.52845" lon="6.09627">
        <ele>853</ele>
        <time>2016-05-12T07:50:28Z</time>
      </trkpt>
      <trkpt lat="44.52852" lon="6.09622">
        <ele>852</ele>
        <time>2016-05-12T07:52:28Z</time>
      </trkpt>
      <trkpt lat="44.52854" lon="6.0962">
        <ele>852</ele>
        <time>2016-05-12T07:54:28Z</time>
      </trkpt>
      <trkpt lat="44.52866" lon="6.09613">
        <ele>851</ele>
        <time>2016-05-12T07:56:28Z</time>
      </trkpt>
      <trkpt lat="44.52878" lon="6.09602">
        <ele>850</ele>
        <time>2016-05-12T07:58:28Z</time>
      </trkpt>
      <trkpt lat="44.52881" lon="6.09599">
        <ele>850</ele>
        <time>2016-05-12T08:00:28Z</time>
      </trkpt>
      <trkpt lat="44.52885" lon="6.09595">
        <ele>849</ele>
        <time>2016-05-12T08:02:28Z</time>
      </trkpt>
      <trkpt lat="44.52889" lon="6.09591">
        <ele>849</ele>
        <time>2016-05-12T08:04:28Z</time>
      </trkpt>
      <trkpt lat="44.52893" lon="6.09587">
        <ele>848</ele>
        <time>2016-05-12T08:06:28Z</time>
      </trkpt>
      <trkpt lat="44.52896" lon="6.09584">
        <ele>848</ele>
        <time>2016-05-12T08:08:28Z</time>
      </trkpt>
      <trkpt lat="44.529" lon="6.09582">
        <ele>848</ele>
        <time>2016-05-12T08:10:28Z</time>
      </trkpt>
      <trkpt lat="44.52907" lon="6.09581">
        <ele>848</ele>
        <time>2016-05-12T08:12:28Z</time>
      </trkpt>
      <trkpt lat="44.52912" lon="6.09581">
        <ele>849</ele>
        <time>2016-05-12T08:14:28Z</time>
      </trkpt>
      <trkpt lat="44.52917" lon="6.09583">
        <ele>849</ele>
        <time>2016-05-12T08:16:28Z</time>
      </trkpt>
      <trkpt lat="44.52922" lon="6.09587">
        <ele>849</ele>
        <time>2016-05-12T08:18:28Z</time>
      </trkpt>
      <trkpt lat="44.5293" lon="6.09595">
        <ele>849</ele>
        <time>2016-05-12T08:20:28Z</time>
      </trkpt>
      <trkpt lat="44.52938" lon="6.09606">
        <ele>849</ele>
        <time>2016-05-12T08:22:28Z</time>
      </trkpt>
      <trkpt lat="44.52948" lon="6.09622">
        <ele>850</ele>
        <time>2016-05-12T08:24:28Z</time>
      </trkpt>
      <trkpt lat="44.52957" lon="6.09635">
        <ele>850</ele>
        <time>2016-05-12T08:26:28Z</time>
      </trkpt>
      <trkpt lat="44.5296" lon="6.09638">
        <ele>850</ele>
        <time>2016-05-12T08:28:28Z</time>
      </trkpt>
      <trkpt lat="44.52963" lon="6.09641">
        <ele>850</ele>
        <time>2016-05-12T08:30:28Z</time>
      </trkpt>
      <trkpt lat="44.5297" lon="6.09645">
        <ele>850</ele>
        <time>2016-05-12T08:32:28Z</time>
      </trkpt>
      <trkpt lat="44.52978" lon="6.09649">
        <ele>850</ele>
        <time>2016-05-12T08:34:28Z</time>
      </trkpt>
      <trkpt lat="44.52986" lon="6.09651">
        <ele>849</ele>
        <time>2016-05-12T08:36:28Z</time>
      </trkpt>
      <trkpt lat="44.52992" lon="6.09651">
        <ele>848</ele>
        <time>2016-05-12T08:38:28Z</time>
      </trkpt>
      <trkpt lat="44.52998" lon="6.0965">
        <ele>847</ele>
        <time>2016-05-12T08:40:28Z</time>
      </trkpt>
      <trkpt lat="44.53004" lon="6.09648">
        <ele>847</ele>
        <time>2016-05-12T08:42:28Z</time>
      </trkpt>
      <trkpt lat="44.53011" lon="6.09645">
        <ele>847</ele>
        <time>2016-05-12T08:44:28Z</time>
      </trkpt>
      <trkpt lat="44.5302" lon="6.09639">
        <ele>847</ele>
        <time>2016-05-12T08:46:28Z</time>
      </trkpt>
      <trkpt lat="44.53028" lon="6.09631">
        <ele>847</ele>
        <time>2016-05-12T08:48:28Z</time>
      </trkpt>
      <trkpt lat="44.53036" lon="6.09621">
        <ele>846</ele>
        <time>2016-05-12T08:50:28Z</time>
      </trkpt>
      <trkpt lat="44.53046" lon="6.09606">
        <ele>844</ele>
        <time>2016-05-12T08:52:28Z</time>
      </trkpt>
      <trkpt lat="44.53052" lon="6.09595">
        <ele>843</ele>
        <time>2016-05-12T08:54:28Z</time>
      </trkpt>
      <trkpt lat="44.53055" lon="6.0959">
        <ele>843</ele>
        <time>2016-05-12T08:56:28Z</time>
      </trkpt>
      <trkpt lat="44.53057" lon="6.09586">
        <ele>842</ele>
        <time>2016-05-12T08:58:28Z</time>
      </trkpt>
      <trkpt lat="44.5306" lon="6.09581">
        <ele>842</ele>
        <time>2016-05-12T09:00:28Z</time>
      </trkpt>
      <trkpt lat="44.53063" lon="6.09573">
        <ele>842</ele>
        <time>2016-05-12T09:02:28Z</time>
      </trkpt>
      <trkpt lat="44.53066" lon="6.09567">
        <ele>841</ele>
        <time>2016-05-12T09:04:28Z</time>
      </trkpt>
      <trkpt lat="44.53069" lon="6.09557">
        <ele>841</ele>
        <time>2016-05-12T09:06:28Z</time>
      </trkpt>
      <trkpt lat="44.53071" lon="6.09547">
        <ele>840</ele>
        <time>2016-05-12T09:08:28Z</time>
      </trkpt>
      <trkpt lat="44.53073" lon="6.09539">
        <ele>839</ele>
        <time>2016-05-12T09:10:28Z</time>
      </trkpt>
      <trkpt lat="44.53074" lon="6.09522">
        <ele>838</ele>
        <time>2016-05-12T09:12:28Z</time>
      </trkpt>
      <trkpt lat="44.53075" lon="6.09508">
        <ele>837</ele>
        <time>2016-05-12T09:14:28Z</time>
      </trkpt>
      <trkpt lat="44.53077" lon="6.09498">
        <ele>836</ele>
        <time>2016-05-12T09:16:28Z</time>
      </trkpt>
      <trkpt lat="44.53079" lon="6.09493">
        <ele>835</ele>
        <time>2016-05-12T09:18:28Z</time>
      </trkpt>
      <trkpt lat="44.53082" lon="6.09488">
        <ele>834</ele>
        <time>2016-05-12T09:20:28Z</time>
      </trkpt>
      <trkpt lat="44.53086" lon="6.09485">
        <ele>834</ele>
        <time>2016-05-12T09:22:28Z</time>
      </trkpt>
      <trkpt lat="44.53089" lon="6.09483">
        <ele>833</ele>
        <time>2016-05-12T09:24:28Z</time>
      </trkpt>
      <trkpt lat="44.53094" lon="6.09481">
        <ele>832</ele>
        <time>2016-05-12T09:26:28Z</time>
      </trkpt>
      <trkpt lat="44.53099" lon="6.09481">
        <ele>832</ele>
        <time>2016-05-12T09:28:28Z</time>
      </trkpt>
      <trkpt lat="44.53105" lon="6.09483">
        <ele>832</ele>
        <time>2016-05-12T09:30:28Z</time>
      </trkpt>
      <trkpt lat="44.53109" lon="6.09484">
        <ele>831</ele>
        <time>2016-05-12T09:32:28Z</time>
      </trkpt>
      <trkpt lat="44.53114" lon="6.09487">
        <ele>831</ele>
        <time>2016-05-12T09:34:28Z</time>
      </trkpt>
      <trkpt lat="44.53125" lon="6.09493">
        <ele>831</ele>
        <time>2016-05-12T09:36:28Z</time>
      </trkpt>
      <trkpt lat="44.53134" lon="6.09502">
        <ele>831</ele>
        <time>2016-05-12T09:38:28Z</time>
      </trkpt>
      <trkpt lat="44.53148" lon="6.09516">
        <ele>832</ele>
        <time>2016-05-12T09:40:28Z</time>
      </trkpt>
      <trkpt lat="44.53157" lon="6.09529">
        <ele>833</ele>
        <time>2016-05-12T09:42:28Z</time>
      </trkpt>
      <trkpt lat="44.53168" lon="6.09547">
        <ele>834</ele>
        <time>2016-05-12T09:44:28Z</time>
      </trkpt>
      <trkpt lat="44.53173" lon="6.09556">
        <ele>835</ele>
        <time>2016-05-12T09:46:28Z</time>
      </trkpt>
      <trkpt lat="44.53184" lon="6.09585">
        <ele>839</ele>
        <time>2016-05-12T09:48:28Z</time>
      </trkpt>
      <trkpt lat="44.53191" lon="6.09602">
        <ele>840</ele>
        <time>2016-05-12T09:50:28Z</time>
      </trkpt>
      <trkpt lat="44.53206" lon="6.0964">
        <ele>842</ele>
        <time>2016-05-12T09:52:28Z</time>
      </trkpt>
      <trkpt lat="44.53209" lon="6.09648">
        <ele>843</ele>
        <time>2016-05-12T09:54:28Z</time>
      </trkpt>
      <trkpt lat="44.53213" lon="6.09652">
        <ele>843</ele>
        <time>2016-05-12T09:56:28Z</time>
      </trkpt>
      <trkpt lat="44.53215" lon="6.09654">
        <ele>843</ele>
        <time>2016-05-12T09:58:28Z</time>
      </trkpt>
      <trkpt lat="44.53218" lon="6.09654">
        <ele>843</ele>
        <time>2016-05-12T10:00:28Z</time>
      </trkpt>
      <trkpt lat="44.53219" lon="6.09654">
        <ele>843</ele>
        <time>2016-05-12T10:02:28Z</time>
      </trkpt>
      <trkpt lat="44.53223" lon="6.09653">
        <ele>842</ele>
        <time>2016-05-12T10:04:28Z</time>
      </trkpt>
      <trkpt lat="44.53227" lon="6.09651">
        <ele>842</ele>
        <time>2016-05-12T10:06:28Z</time>
      </trkpt>
      <trkpt lat="44.53228" lon="6.0965">
        <ele>842</ele>
        <time>2016-05-12T10:08:28Z</time>
      </trkpt>
      <trkpt lat="44.53231" lon="6.09646">
        <ele>841</ele>
        <time>2016-05-12T10:10:28Z</time>
      </trkpt>
      <trkpt lat="44.53233" lon="6.09642">
        <ele>841</ele>
        <time>2016-05-12T10:12:28Z</time>
      </trkpt>
      <trkpt lat="44.53234" lon="6.09639">
        <ele>840</ele>
        <time>2016-05-12T10:14:28Z</time>
      </trkpt>
      <trkpt lat="44.53234" lon="6.09636">
        <ele>840</ele>
        <time>2016-05-12T10:16:28Z</time>
      </trkpt>
      <trkpt lat="44.53235" lon="6.09628">
        <ele>840</ele>
        <time>2016-05-12T10:18:28Z</time>
      </trkpt>
      <trkpt lat="44.53234" lon="6.09618">
        <ele>839</ele>
        <time>2016-05-12T10:20:28Z</time>
      </trkpt>
      <trkpt lat="44.53233" lon="6.09601">
        <ele>838</ele>
        <time>2016-05-12T10:22:28Z</time>
      </trkpt>
      <trkpt lat="44.53234" lon="6.0959">
        <ele>837</ele>
        <time>2016-05-12T10:24:28Z</time>
      </trkpt>
      <trkpt lat="44.53235" lon="6.09583">
        <ele>837</ele>
        <time>2016-05-12T10:26:28Z</time>
      </trkpt>
      <trkpt lat="44.53238" lon="6.09572">
        <ele>835</ele>
        <time>2016-05-12T10:28:28Z</time>
      </trkpt>
      <trkpt lat="44.53243" lon="6.09562">
        <ele>834</ele>
        <time>2016-05-12T10:30:28Z</time>
      </trkpt>
      <trkpt lat="44.53249" lon="6.09553">
        <ele>833</ele>
        <time>2016-05-12T10:32:28Z</time>
      </trkpt>
      <trkpt lat="44.53255" lon="6.09544">
        <ele>833</ele>
        <time>2016-05-12T10:34:28Z</time>
      </trkpt>
      <trkpt lat="44.53265" lon="6.09534">
        <ele>834</ele>
        <time>2016-05-12T10:36:28Z</time>
      </trkpt>
      <trkpt lat="44.53271" lon="6.0953">
        <ele>834</ele>
        <time>2016-05-12T10:38:28Z</time>
      </trkpt>
      <trkpt lat="44.53274" lon="6.09529">
        <ele>835</ele>
        <time>2016-05-12T10:40:28Z</time>
      </trkpt>
      <trkpt lat="44.5328" lon="6.09527">
        <ele>835</ele>
        <time>2016-05-12T10:42:28Z</time>
      </trkpt>
      <trkpt lat="44.53286" lon="6.09527">
        <ele>836</ele>
        <time>2016-05-12T10:44:28Z</time>
      </trkpt>
      <trkpt lat="44.53292" lon="6.09528">
        <ele>837</ele>
        <time>2016-05-12T10:46:28Z</time>
      </trkpt>
      <trkpt lat="44.53302" lon="6.09529">
        <ele>839</ele>
        <time>2016-05-12T10:48:28Z</time>
      </trkpt>
      <trkpt lat="44.53307" lon="6.09529">
        <ele>839</ele>
        <time>2016-05-12T10:50:28Z</time>
      </trkpt>
      <trkpt lat="44.53312" lon="6.09527">
        <ele>840</ele>
        <time>2016-05-12T10:52:28Z</time>
      </trkpt>
      <trkpt lat="44.53316" lon="6.09523">
        <ele>840</ele>
        <time>2016-05-12T10:54:28Z</time>
      </trkpt>
      <trkpt lat="44.53317" lon="6.09519">
        <ele>840</ele>
        <time>2016-05-12T10:56:28Z</time>
      </trkpt>
      <trkpt lat="44.53317" lon="6.09513">
        <ele>840</ele>
        <time>2016-05-12T10:58:28Z</time>
      </trkpt>
      <trkpt lat="44.53317" lon="6.09509">
        <ele>839</ele>
        <time>2016-05-12T11:00:28Z</time>
      </trkpt>
      <trkpt lat="44.53315" lon="6.09496">
        <ele>839</ele>
        <time>2016-05-12T11:02:28Z</time>
      </trkpt>
      <trkpt lat="44.5331" lon="6.09473">
        <ele>839</ele>
        <time>2016-05-12T11:04:28Z</time>
      </trkpt>
      <trkpt lat="44.53305" lon="6.09445">
        <ele>840</ele>
        <time>2016-05-12T11:06:28Z</time>
      </trkpt>
      <trkpt lat="44.53303" lon="6.09429">
        <ele>841</ele>
        <time>2016-05-12T11:08:28Z</time>
      </trkpt>
      <trkpt lat="44.53302" lon="6.09417">
        <ele>841</ele>
        <time>2016-05-12T11:10:28Z</time>
      </trkpt>
      <trkpt lat="44.53302" lon="6.09406">
        <ele>842</ele>
        <time>2016-05-12T11:12:28Z</time>
      </trkpt>
      <trkpt lat="44.53301" lon="6.09392">
        <ele>842</ele>
        <time>2016-05-12T11:14:28Z</time>
      </trkpt>
      <trkpt lat="44.533" lon="6.09369">
        <ele>842</ele>
        <time>2016-05-12T11:16:28Z</time>
      </trkpt>
      <trkpt lat="44.533" lon="6.09353">
        <ele>843</ele>
        <time>2016-05-12T11:18:28Z</time>
      </trkpt>
      <trkpt lat="44.533" lon="6.09341">
        <ele>843</ele>
        <time>2016-05-12T11:20:28Z</time>
      </trkpt>
      <trkpt lat="44.53302" lon="6.09328">
        <ele>843</ele>
        <time>2016-05-12T11:22:28Z</time>
      </trkpt>
      <trkpt lat="44.53304" lon="6.0932">
        <ele>843</ele>
        <time>2016-05-12T11:24:28Z</time>
      </trkpt>
      <trkpt lat="44.5331" lon="6.09308">
        <ele>842</ele>
        <time>2016-05-12T11:26:28Z</time>
      </trkpt>
      <trkpt lat="44.53316" lon="6.09301">
        <ele>842</ele>
        <time>2016-05-12T11:28:28Z</time>
      </trkpt>
      <trkpt lat="44.53324" lon="6.09293">
        <ele>843</ele>
        <time>2016-05-12T11:30:28Z</time>
      </trkpt>
      <trkpt lat="44.53336" lon="6.09284">
        <ele>843</ele>
        <time>2016-05-12T11:32:28Z</time>
      </trkpt>
      <trkpt lat="44.53365" lon="6.09269">
        <ele>845</ele>
        <time>2016-05-12T11:34:28Z</time>
      </trkpt>
      <trkpt lat="44.53391" lon="6.09258">
        <ele>847</ele>
        <time>2016-05-12T11:36:28Z</time>
      </trkpt>
      <trkpt lat="44.53423" lon="6.09244">
        <ele>850</ele>
        <time>2016-05-12T11:38:28Z</time>
      </trkpt>
      <trkpt lat="44.53434" lon="6.09237">
        <ele>851</ele>
        <time>2016-05-12T11:40:28Z</time>
      </trkpt>
      <trkpt lat="44.53445" lon="6.0923">
        <ele>852</ele>
        <time>2016-05-12T11:42:28Z</time>
      </trkpt>
      <trkpt lat="44.53451" lon="6.09226">
        <ele>852</ele>
        <time>2016-05-12T11:44:28Z</time>
      </trkpt>
      <trkpt lat="44.5346" lon="6.09218">
        <ele>853</ele>
        <time>2016-05-12T11:46:28Z</time>
      </trkpt>
      <trkpt lat="44.53469" lon="6.09207">
        <ele>852</ele>
        <time>2016-05-12T11:48:28Z</time>
      </trkpt>
      <trkpt lat="44.53479" lon="6.09191">
        <ele>851</ele>
        <time>2016-05-12T11:50:28Z</time>
      </trkpt>
      <trkpt lat="44.53494" lon="6.0917">
        <ele>849</ele>
        <time>2016-05-12T11:52:28Z</time>
      </trkpt>
      <trkpt lat="44.53503" lon="6.09161">
        <ele>849</ele>
        <time>2016-05-12T11:54:28Z</time>
      </trkpt>
      <trkpt lat="44.53509" lon="6.09155">
        <ele>849</ele>
        <time>2016-05-12T11:56:28Z</time>
      </trkpt>
      <trkpt lat="44.53512" lon="6.09152">
        <ele>849</ele>
        <time>2016-05-12T11:58:28Z</time>
      </trkpt>
      <trkpt lat="44.53516" lon="6.09149">
        <ele>849</ele>
        <time>2016-05-12T12:00:28Z</time>
      </trkpt>
      <trkpt lat="44.53652" lon="6.09051">
        <ele>846</ele>
        <time>2016-05-12T12:02:28Z</time>
      </trkpt>
      <trkpt lat="44.53662" lon="6.09044">
        <ele>846</ele>
        <time>2016-05-12T12:04:28Z</time>
      </trkpt>
      <trkpt lat="44.53668" lon="6.09039">
        <ele>845</ele>
        <time>2016-05-12T12:06:28Z</time>
      </trkpt>
      <trkpt lat="44.53686" lon="6.09026">
        <ele>845</ele>
        <time>2016-05-12T12:08:28Z</time>
      </trkpt>
      <trkpt lat="44.53697" lon="6.09019">
        <ele>845</ele>
        <time>2016-05-12T12:10:28Z</time>
      </trkpt>
      <trkpt lat="44.53711" lon="6.09011">
        <ele>844</ele>
        <time>2016-05-12T12:12:28Z</time>
      </trkpt>
      <trkpt lat="44.53725" lon="6.09003">
        <ele>843</ele>
        <time>2016-05-12T12:14:28Z</time>
      </trkpt>
      <trkpt lat="44.53732" lon="6.09">
        <ele>843</ele>
        <time>2016-05-12T12:16:28Z</time>
      </trkpt>
      <trkpt lat="44.53738" lon="6.08998">
        <ele>842</ele>
        <time>2016-05-12T12:18:28Z</time>
      </trkpt>
      <trkpt lat="44.53746" lon="6.08998">
        <ele>842</ele>
        <time>2016-05-12T12:20:28Z</time>
      </trkpt>
      <trkpt lat="44.53762" lon="6.08999">
        <ele>841</ele>
        <time>2016-05-12T12:22:28Z</time>
      </trkpt>
      <trkpt lat="44.53768" lon="6.08999">
        <ele>841</ele>
        <time>2016-05-12T12:24:28Z</time>
      </trkpt>
      <trkpt lat="44.538" lon="6.09002">
        <ele>839</ele>
        <time>2016-05-12T12:26:28Z</time>
      </trkpt>
      <trkpt lat="44.5383" lon="6.09005">
        <ele>837</ele>
        <time>2016-05-12T12:28:28Z</time>
      </trkpt>
      <trkpt lat="44.53843" lon="6.09009">
        <ele>836</ele>
        <time>2016-05-12T12:30:28Z</time>
      </trkpt>
      <trkpt lat="44.53845" lon="6.09009">
        <ele>836</ele>
        <time>2016-05-12T12:32:28Z</time>
      </trkpt>
      <trkpt lat="44.53853" lon="6.09012">
        <ele>836</ele>
        <time>2016-05-12T12:34:28Z</time>
      </trkpt>
      <trkpt lat="44.53866" lon="6.09018">
        <ele>836</ele>
        <time>2016-05-12T12:36:28Z</time>
      </trkpt>
      <trkpt lat="44.53867" lon="6.09018">
        <ele>836</ele>
        <time>2016-05-12T12:38:28Z</time>
      </trkpt>
      <trkpt lat="44.53868" lon="6.09019">
        <ele>836</ele>
        <time>2016-05-12T12:40:28Z</time>
      </trkpt>
      <trkpt lat="44.53891" lon="6.09032">
        <ele>836</ele>
        <time>2016-05-12T12:42:28Z</time>
      </trkpt>
      <trkpt lat="44.53905" lon="6.0904">
        <ele>836</ele>
        <time>2016-05-12T12:44:28Z</time>
      </trkpt>
      <trkpt lat="44.53906" lon="6.0904">
        <ele>836</ele>
        <time>2016-05-12T12:46:28Z</time>
      </trkpt>
      <trkpt lat="44.53907" lon="6.0904">
        <ele>836</ele>
        <time>2016-05-12T12:48:28Z</time>
      </trkpt>
      <trkpt lat="44.53925" lon="6.09047">
        <ele>835</ele>
        <time>2016-05-12T12:50:28Z</time>
      </trkpt>
      <trkpt lat="44.53926" lon="6.09047">
        <ele>835</ele>
        <time>2016-05-12T12:52:28Z</time>
      </trkpt>
      <trkpt lat="44.53936" lon="6.09051">
        <ele>835</ele>
        <time>2016-05-12T12:54:28Z</time>
      </trkpt>
      <trkpt lat="44.53944" lon="6.09052">
        <ele>834</ele>
        <time>2016-05-12T12:56:28Z</time>
      </trkpt>
      <trkpt lat="44.53961" lon="6.09055">
        <ele>833</ele>
        <time>2016-05-12T12:58:28Z</time>
      </trkpt>
      <trkpt lat="44.53969" lon="6.09057">
        <ele>833</ele>
        <time>2016-05-12T13:00:28Z</time>
      </trkpt>
      <trkpt lat="44.53978" lon="6.09059">
        <ele>832</ele>
        <time>2016-05-12T13:02:28Z</time>
      </trkpt>
      <trkpt lat="44.53986" lon="6.09061">
        <ele>832</ele>
        <time>2016-05-12T13:04:28Z</time>
      </trkpt>
      <trkpt lat="44.53998" lon="6.09065">
        <ele>831</ele>
        <time>2016-05-12T13:06:28Z</time>
      </trkpt>
      <trkpt lat="44.54001" lon="6.09067">
        <ele>831</ele>
        <time>2016-05-12T13:08:28Z</time>
      </trkpt>
      <trkpt lat="44.54004" lon="6.09068">
        <ele>831</ele>
        <time>2016-05-12T13:10:28Z</time>
      </trkpt>
      <trkpt lat="44.54021" lon="6.09079">
        <ele>830</ele>
        <time>2016-05-12T13:12:28Z</time>
      </trkpt>
      <trkpt lat="44.54039" lon="6.09092">
        <ele>829</ele>
        <time>2016-05-12T13:14:28Z</time>
      </trkpt>
      <trkpt lat="44.54044" lon="6.09096">
        <ele>828</ele>
        <time>2016-05-12T13:16:28Z</time>
      </trkpt>
      <trkpt lat="44.5405" lon="6.09101">
        <ele>828</ele>
        <time>2016-05-12T13:18:28Z</time>
      </trkpt>
      <trkpt lat="44.54063" lon="6.09111">
        <ele>827</ele>
        <time>2016-05-12T13:20:28Z</time>
      </trkpt>
      <trkpt lat="44.54067" lon="6.09113">
        <ele>826</ele>
        <time>2016-05-12T13:22:28Z</time>
      </trkpt>
      <trkpt lat="44.54067" lon="6.09114">
        <ele>826</ele>
        <time>2016-05-12T13:24:28Z</time>
      </trkpt>
      <trkpt lat="44.54069" lon="6.09114">
        <ele>826</ele>
        <time>2016-05-12T13:26:28Z</time>
      </trkpt>
      <trkpt lat="44.54071" lon="6.09114">
        <ele>826</ele>
        <time>2016-05-12T13:28:28Z</time>
      </trkpt>
      <trkpt lat="44.54073" lon="6.09115">
        <ele>826</ele>
        <time>2016-05-12T13:30:28Z</time>
      </trkpt>
      <trkpt lat="44.54075" lon="6.09115">
        <ele>825</ele>
        <time>2016-05-12T13:32:28Z</time>
      </trkpt>
      <trkpt lat="44.54077" lon="6.09115">
        <ele>825</ele>
        <time>2016-05-12T13:34:28Z</time>
      </trkpt>
      <trkpt lat="44.54082" lon="6.09115">
        <ele>824</ele>
        <time>2016-05-12T13:36:28Z</time>
      </trkpt>
      <trkpt lat="44.54083" lon="6.09115">
        <ele>824</ele>
        <time>2016-05-12T13:38:28Z</time>
      </trkpt>
      <trkpt lat="44.54086" lon="6.09115">
        <ele>824</ele>
        <time>2016-05-12T13:40:28Z</time>
      </trkpt>
      <trkpt lat="44.54087" lon="6.09115">
        <ele>824</ele>
        <time>2016-05-12T13:42:28Z</time>
      </trkpt>
      <trkpt lat="44.54087" lon="6.09114">
        <ele>824</ele>
        <time>2016-05-12T13:44:28Z</time>
      </trkpt>
      <trkpt lat="44.5409" lon="6.09114">
        <ele>823</ele>
        <time>2016-05-12T13:46:28Z</time>
      </trkpt>
      <trkpt lat="44.54091" lon="6.09114">
        <ele>823</ele>
        <time>2016-05-12T13:48:28Z</time>
      </trkpt>
      <trkpt lat="44.54094" lon="6.09112">
        <ele>823</ele>
        <time>2016-05-12T13:50:28Z</time>
      </trkpt>
      <trkpt lat="44.54095" lon="6.09112">
        <ele>823</ele>
        <time>2016-05-12T13:52:28Z</time>
      </trkpt>
      <trkpt lat="44.54096" lon="6.09112">
        <ele>823</ele>
        <time>2016-05-12T13:54:28Z</time>
      </trkpt>
      <trkpt lat="44.54104" lon="6.09107">
        <ele>822</ele>
        <time>2016-05-12T13:56:28Z</time>
      </trkpt>
      <trkpt lat="44.5411" lon="6.09104">
        <ele>822</ele>
        <time>2016-05-12T13:58:28Z</time>
      </trkpt>
      <trkpt lat="44.54126" lon="6.09096">
        <ele>820</ele>
        <time>2016-05-12T14:00:28Z</time>
      </trkpt>
      <trkpt lat="44.54142" lon="6.09088">
        <ele>818</ele>
        <time>2016-05-12T14:02:28Z</time>
      </trkpt>
      <trkpt lat="44.54155" lon="6.0908">
        <ele>817</ele>
        <time>2016-05-12T14:04:28Z</time>
      </trkpt>
      <trkpt lat="44.54191" lon="6.09057">
        <ele>814</ele>
        <time>2016-05-12T14:06:28Z</time>
      </trkpt>
      <trkpt lat="44.54218" lon="6.09042">
        <ele>812</ele>
        <time>2016-05-12T14:08:28Z</time>
      </trkpt>
      <trkpt lat="44.54227" lon="6.09038">
        <ele>811</ele>
        <time>2016-05-12T14:10:28Z</time>
      </trkpt>
      <trkpt lat="44.54239" lon="6.09035">
        <ele>810</ele>
        <time>2016-05-12T14:12:28Z</time>
      </trkpt>
      <trkpt lat="44.54251" lon="6.09034">
        <ele>810</ele>
        <time>2016-05-12T14:14:28Z</time>
      </trkpt>
      <trkpt lat="44.5426" lon="6.09035">
        <ele>809</ele>
        <time>2016-05-12T14:16:28Z</time>
      </trkpt>
      <trkpt lat="44.5427" lon="6.09037">
        <ele>809</ele>
        <time>2016-05-12T14:18:28Z</time>
      </trkpt>
      <trkpt lat="44.5429" lon="6.09043">
        <ele>807</ele>
        <time>2016-05-12T14:20:28Z</time>
      </trkpt>
      <trkpt lat="44.54327" lon="6.09056">
        <ele>806</ele>
        <time>2016-05-12T14:22:28Z</time>
      </trkpt>
      <trkpt lat="44.54353" lon="6.09066">
        <ele>804</ele>
        <time>2016-05-12T14:24:28Z</time>
      </trkpt>
      <trkpt lat="44.54366" lon="6.09072">
        <ele>802</ele>
        <time>2016-05-12T14:26:28Z</time>
      </trkpt>
      <trkpt lat="44.54377" lon="6.09079">
        <ele>801</ele>
        <time>2016-05-12T14:28:28Z</time>
      </trkpt>
      <trkpt lat="44.54386" lon="6.09088">
        <ele>801</ele>
        <time>2016-05-12T14:30:28Z</time>
      </trkpt>
      <trkpt lat="44.54393" lon="6.09095">
        <ele>800</ele>
        <time>2016-05-12T14:32:28Z</time>
      </trkpt>
      <trkpt lat="44.544" lon="6.09107">
        <ele>800</ele>
        <time>2016-05-12T14:34:28Z</time>
      </trkpt>
      <trkpt lat="44.54404" lon="6.09113">
        <ele>800</ele>
        <time>2016-05-12T14:36:28Z</time>
      </trkpt>
      <trkpt lat="44.54418" lon="6.09138">
        <ele>799</ele>
        <time>2016-05-12T14:38:28Z</time>
      </trkpt>
      <trkpt lat="44.54421" lon="6.09142">
        <ele>799</ele>
        <time>2016-05-12T14:40:28Z</time>
      </trkpt>
      <trkpt lat="44.54425" lon="6.09146">
        <ele>799</ele>
        <time>2016-05-12T14:42:28Z</time>
      </trkpt>
      <trkpt lat="44.54431" lon="6.09151">
        <ele>799</ele>
        <time>2016-05-12T14:44:28Z</time>
      </trkpt>
      <trkpt lat="44.54436" lon="6.09153">
        <ele>799</ele>
        <time>2016-05-12T14:46:28Z</time>
      </trkpt>
      <trkpt lat="44.5444" lon="6.09154">
        <ele>798</ele>
        <time>2016-05-12T14:48:28Z</time>
      </trkpt>
      <trkpt lat="44.54442" lon="6.09154">
        <ele>798</ele>
        <time>2016-05-12T14:50:28Z</time>
      </trkpt>
      <trkpt lat="44.54446" lon="6.09154">
        <ele>798</ele>
        <time>2016-05-12T14:52:28Z</time>
      </trkpt>
      <trkpt lat="44.54454" lon="6.09151">
        <ele>797</ele>
        <time>2016-05-12T14:54:28Z</time>
      </trkpt>
      <trkpt lat="44.54457" lon="6.0915">
        <ele>797</ele>
        <time>2016-05-12T14:56:28Z</time>
      </trkpt>
      <trkpt lat="44.54459" lon="6.09148">
        <ele>797</ele>
        <time>2016-05-12T14:58:28Z</time>
      </trkpt>
      <trkpt lat="44.54462" lon="6.09146">
        <ele>796</ele>
        <time>2016-05-12T15:00:28Z</time>
      </trkpt>
      <trkpt lat="44.54464" lon="6.09144">
        <ele>796</ele>
        <time>2016-05-12T15:02:28Z</time>
      </trkpt>
      <trkpt lat="44.54466" lon="6.0914">
        <ele>796</ele>
        <time>2016-05-12T15:04:28Z</time>
      </trkpt>
      <trkpt lat="44.54468" lon="6.09137">
        <ele>795</ele>
        <time>2016-05-12T15:06:28Z</time>
      </trkpt>
      <trkpt lat="44.5447" lon="6.09131">
        <ele>795</ele>
        <time>2016-05-12T15:08:28Z</time>
      </trkpt>
      <trkpt lat="44.54472" lon="6.09126">
        <ele>795</ele>
        <time>2016-05-12T15:10:28Z</time>
      </trkpt>
      <trkpt lat="44.54474" lon="6.09119">
        <ele>794</ele>
        <time>2016-05-12T15:12:28Z</time>
      </trkpt>
      <trkpt lat="44.54476" lon="6.09104">
        <ele>793</ele>
        <time>2016-05-12T15:14:28Z</time>
      </trkpt>
      <trkpt lat="44.54487" lon="6.09022">
        <ele>791</ele>
        <time>2016-05-12T15:16:28Z</time>
      </trkpt>
      <trkpt lat="44.54498" lon="6.08945">
        <ele>790</ele>
        <time>2016-05-12T15:18:28Z</time>
      </trkpt>
      <trkpt lat="44.54504" lon="6.08865">
        <ele>788</ele>
        <time>2016-05-12T15:20:28Z</time>
      </trkpt>
      <trkpt lat="44.54515" lon="6.0879">
        <ele>786</ele>
        <time>2016-05-12T15:22:28Z</time>
      </trkpt>
      <trkpt lat="44.54521" lon="6.08749">
        <ele>786</ele>
        <time>2016-05-12T15:24:28Z</time>
      </trkpt>
      <trkpt lat="44.54524" lon="6.08729">
        <ele>786</ele>
        <time>2016-05-12T15:26:28Z</time>
      </trkpt>
      <trkpt lat="44.54526" lon="6.08715">
        <ele>786</ele>
        <time>2016-05-12T15:28:28Z</time>
      </trkpt>
      <trkpt lat="44.54529" lon="6.08703">
        <ele>785</ele>
        <time>2016-05-12T15:30:28Z</time>
      </trkpt>
      <trkpt lat="44.54535" lon="6.08689">
        <ele>785</ele>
        <time>2016-05-12T15:32:28Z</time>
      </trkpt>
      <trkpt lat="44.54539" lon="6.08682">
        <ele>785</ele>
        <time>2016-05-12T15:34:28Z</time>
      </trkpt>
      <trkpt lat="44.54587" lon="6.08609">
        <ele>779</ele>
        <time>2016-05-12T15:36:28Z</time>
      </trkpt>
      <trkpt lat="44.546" lon="6.08589">
        <ele>779</ele>
        <time>2016-05-12T15:38:28Z</time>
      </trkpt>
      <trkpt lat="44.54603" lon="6.08581">
        <ele>779</ele>
        <time>2016-05-12T15:40:28Z</time>
      </trkpt>
      <trkpt lat="44.54609" lon="6.08569">
        <ele>779</ele>
        <time>2016-05-12T15:42:28Z</time>
      </trkpt>
      <trkpt lat="44.54614" lon="6.08557">
        <ele>779</ele>
        <time>2016-05-12T15:44:28Z</time>
      </trkpt>
      <trkpt lat="44.54617" lon="6.08547">
        <ele>779</ele>
        <time>2016-05-12T15:46:28Z</time>
      </trkpt>
      <trkpt lat="44.54619" lon="6.08534">
        <ele>779</ele>
        <time>2016-05-12T15:48:28Z</time>
      </trkpt>
      <trkpt lat="44.54621" lon="6.08522">
        <ele>780</ele>
        <time>2016-05-12T15:50:28Z</time>
      </trkpt>
      <trkpt lat="44.54621" lon="6.0851">
        <ele>779</ele>
        <time>2016-05-12T15:52:28Z</time>
      </trkpt>
      <trkpt lat="44.54621" lon="6.08497">
        <ele>780</ele>
        <time>2016-05-12T15:54:28Z</time>
      </trkpt>
      <trkpt lat="44.5462" lon="6.08488">
        <ele>780</ele>
        <time>2016-05-12T15:56:28Z</time>
      </trkpt>
      <trkpt lat="44.54619" lon="6.08481">
        <ele>781</ele>
        <time>2016-05-12T15:58:28Z</time>
      </trkpt>
      <trkpt lat="44.54618" lon="6.08472">
        <ele>781</ele>
        <time>2016-05-12T16:00:28Z</time>
      </trkpt>
      <trkpt lat="44.54601" lon="6.08376">
        <ele>787</ele>
        <time>2016-05-12T16:02:28Z</time>
      </trkpt>
      <trkpt lat="44.54586" lon="6.08304">
        <ele>790</ele>
        <time>2016-05-12T16:04:28Z</time>
      </trkpt>
      <trkpt lat="44.54583" lon="6.0829">
        <ele>790</ele>
        <time>2016-05-12T16:06:28Z</time>
      </trkpt>
      <trkpt lat="44.5458" lon="6.08277">
        <ele>791</ele>
        <time>2016-05-12T16:08:28Z</time>
      </trkpt>
      <trkpt lat="44.54577" lon="6.08263">
        <ele>791</ele>
        <time>2016-05-12T16:10:28Z</time>
      </trkpt>
      <trkpt lat="44.54577" lon="6.08259">
        <ele>792</ele>
        <time>2016-05-12T16:12:28Z</time>
      </trkpt>
      <trkpt lat="44.54569" lon="6.08221">
        <ele>794</ele>
        <time>2016-05-12T16:14:28Z</time>
      </trkpt>
      <trkpt lat="44.54559" lon="6.08175">
        <ele>797</ele>
        <time>2016-05-12T16:16:28Z</time>
      </trkpt>
      <trkpt lat="44.54556" lon="6.08156">
        <ele>798</ele>
        <time>2016-05-12T16:18:28Z</time>
      </trkpt>
      <trkpt lat="44.54553" lon="6.08138">
        <ele>799</ele>
        <time>2016-05-12T16:20:28Z</time>
      </trkpt>
      <trkpt lat="44.5455" lon="6.08121">
        <ele>800</ele>
        <time>2016-05-12T16:22:28Z</time>
      </trkpt>
      <trkpt lat="44.54549" lon="6.08111">
        <ele>801</ele>
        <time>2016-05-12T16:24:28Z</time>
      </trkpt>
      <trkpt lat="44.54548" lon="6.08082">
        <ele>804</ele>
        <time>2016-05-12T16:26:28Z</time>
      </trkpt>
      <trkpt lat="44.54547" lon="6.08069">
        <ele>804</ele>
        <time>2016-05-12T16:28:28Z</time>
      </trkpt>
      <trkpt lat="44.54546" lon="6.08053">
        <ele>804</ele>
        <time>2016-05-12T16:30:28Z</time>
      </trkpt>
      <trkpt lat="44.54544" lon="6.08037">
        <ele>804</ele>
        <time>2016-05-12T16:32:28Z</time>
      </trkpt>
      <trkpt lat="44.54525" lon="6.07973">
        <ele>799</ele>
        <time>2016-05-12T16:34:28Z</time>
      </trkpt>
      <trkpt lat="44.54507" lon="6.07915">
        <ele>795</ele>
        <time>2016-05-12T16:36:28Z</time>
      </trkpt>
      <trkpt lat="44.545" lon="6.07888">
        <ele>793</ele>
        <time>2016-05-12T16:38:28Z</time>
      </trkpt>
      <trkpt lat="44.54496" lon="6.07862">
        <ele>791</ele>
        <time>2016-05-12T16:40:28Z</time>
      </trkpt>
      <trkpt lat="44.54496" lon="6.07852">
        <ele>791</ele>
        <time>2016-05-12T16:42:28Z</time>
      </trkpt>
      <trkpt lat="44.54496" lon="6.07844">
        <ele>791</ele>
        <time>2016-05-12T16:44:28Z</time>
      </trkpt>
      <trkpt lat="44.54497" lon="6.07836">
        <ele>791</ele>
        <time>2016-05-12T16:46:28Z</time>
      </trkpt>
      <trkpt lat="44.54498" lon="6.07828">
        <ele>791</ele>
        <time>2016-05-12T16:48:28Z</time>
      </trkpt>
      <trkpt lat="44.54499" lon="6.0782">
        <ele>790</ele>
        <time>2016-05-12T16:50:28Z</time>
      </trkpt>
      <trkpt lat="44.54502" lon="6.07814">
        <ele>790</ele>
        <time>2016-05-12T16:52:28Z</time>
      </trkpt>
      <trkpt lat="44.54509" lon="6.07803">
        <ele>790</ele>
        <time>2016-05-12T16:54:28Z</time>
      </trkpt>
      <trkpt lat="44.54514" lon="6.07797">
        <ele>789</ele>
        <time>2016-05-12T16:56:28Z</time>
      </trkpt>
      <trkpt lat="44.54516" lon="6.07796">
        <ele>789</ele>
        <time>2016-05-12T16:58:28Z</time>
      </trkpt>
      <trkpt lat="44.5454" lon="6.07777">
        <ele>789</ele>
        <time>2016-05-12T17:00:28Z</time>
      </trkpt>
      <trkpt lat="44.54555" lon="6.07768">
        <ele>788</ele>
        <time>2016-05-12T17:02:28Z</time>
      </trkpt>
      <trkpt lat="44.54585" lon="6.07747">
        <ele>785</ele>
        <time>2016-05-12T17:04:28Z</time>
      </trkpt>
      <trkpt lat="44.54586" lon="6.07746">
        <ele>785</ele>
        <time>2016-05-12T17:06:28Z</time>
      </trkpt>
      <trkpt lat="44.54591" lon="6.07744">
        <ele>784</ele>
        <time>2016-05-12T17:08:28Z</time>
      </trkpt>
      <trkpt lat="44.54593" lon="6.07743">
        <ele>784</ele>
        <time>2016-05-12T17:10:28Z</time>
      </trkpt>
      <trkpt lat="44.54599" lon="6.07742">
        <ele>783</ele>
        <time>2016-05-12T17:12:28Z</time>
      </trkpt>
      <trkpt lat="44.54601" lon="6.07742">
        <ele>783</ele>
        <time>2016-05-12T17:14:28Z</time>
      </trkpt>
      <trkpt lat="44.54603" lon="6.07742">
        <ele>783</ele>
        <time>2016-05-12T17:16:28Z</time>
      </trkpt>
      <trkpt lat="44.54613" lon="6.07745">
        <ele>783</ele>
        <time>2016-05-12T17:18:28Z</time>
      </trkpt>
      <trkpt lat="44.54638" lon="6.07755">
        <ele>782</ele>
        <time>2016-05-12T17:20:28Z</time>
      </trkpt>
      <trkpt lat="44.54679" lon="6.07773">
        <ele>781</ele>
        <time>2016-05-12T17:22:28Z</time>
      </trkpt>
      <trkpt lat="44.54701" lon="6.07782">
        <ele>780</ele>
        <time>2016-05-12T17:24:28Z</time>
      </trkpt>
      <trkpt lat="44.5474" lon="6.07798">
        <ele>776</ele>
        <time>2016-05-12T17:26:28Z</time>
      </trkpt>
      <trkpt lat="44.54755" lon="6.07804">
        <ele>775</ele>
        <time>2016-05-12T17:28:28Z</time>
      </trkpt>
      <trkpt lat="44.54763" lon="6.07809">
        <ele>774</ele>
        <time>2016-05-12T17:30:28Z</time>
      </trkpt>
      <trkpt lat="44.54769" lon="6.07813">
        <ele>774</ele>
        <time>2016-05-12T17:32:28Z</time>
      </trkpt>
      <trkpt lat="44.5478" lon="6.07821">
        <ele>774</ele>
        <time>2016-05-12T17:34:28Z</time>
      </trkpt>
      <trkpt lat="44.54794" lon="6.07832">
        <ele>774</ele>
        <time>2016-05-12T17:36:28Z</time>
      </trkpt>
      <trkpt lat="44.54813" lon="6.07847">
        <ele>775</ele>
        <time>2016-05-12T17:38:28Z</time>
      </trkpt>
      <trkpt lat="44.54823" lon="6.07854">
        <ele>774</ele>
        <time>2016-05-12T17:40:28Z</time>
      </trkpt>
      <trkpt lat="44.54834" lon="6.07861">
        <ele>774</ele>
        <time>2016-05-12T17:42:28Z</time>
      </trkpt>
      <trkpt lat="44.54844" lon="6.07867">
        <ele>775</ele>
        <time>2016-05-12T17:44:28Z</time>
      </trkpt>
      <trkpt lat="44.54847" lon="6.07868">
        <ele>775</ele>
        <time>2016-05-12T17:46:28Z</time>
      </trkpt>
      <trkpt lat="44.54862" lon="6.07871">
        <ele>774</ele>
        <time>2016-05-12T17:48:28Z</time>
      </trkpt>
      <trkpt lat="44.54864" lon="6.07871">
        <ele>774</ele>
        <time>2016-05-12T17:50:28Z</time>
      </trkpt>
      <trkpt lat="44.54868" lon="6.07869">
        <ele>774</ele>
        <time>2016-05-12T17:52:28Z</time>
      </trkpt>
      <trkpt lat="44.54872" lon="6.07868">
        <ele>773</ele>
        <time>2016-05-12T17:54:28Z</time>
      </trkpt>
      <trkpt lat="44.54875" lon="6.07867">
        <ele>773</ele>
        <time>2016-05-12T17:56:28Z</time>
      </trkpt>
      <trkpt lat="44.54883" lon="6.07862">
        <ele>771</ele>
        <time>2016-05-12T17:58:28Z</time>
      </trkpt>
      <trkpt lat="44.54887" lon="6.07859">
        <ele>771</ele>
        <time>2016-05-12T18:00:28Z</time>
      </trkpt>
      <trkpt lat="44.54891" lon="6.07855">
        <ele>770</ele>
        <time>2016-05-12T18:02:28Z</time>
      </trkpt>
      <trkpt lat="44.54896" lon="6.0785">
        <ele>768</ele>
        <time>2016-05-12T18:04:28Z</time>
      </trkpt>
      <trkpt lat="44.54901" lon="6.07844">
        <ele>767</ele>
        <time>2016-05-12T18:06:28Z</time>
      </trkpt>
      <trkpt lat="44.54908" lon="6.07836">
        <ele>765</ele>
        <time>2016-05-12T18:08:28Z</time>
      </trkpt>
      <trkpt lat="44.54913" lon="6.07828">
        <ele>763</ele>
        <time>2016-05-12T18:10:28Z</time>
      </trkpt>
      <trkpt lat="44.54921" lon="6.07821">
        <ele>761</ele>
        <time>2016-05-12T18:12:28Z</time>
      </trkpt>
      <trkpt lat="44.54925" lon="6.07818">
        <ele>760</ele>
        <time>2016-05-12T18:14:28Z</time>
      </trkpt>
      <trkpt lat="44.54929" lon="6.07815">
        <ele>759</ele>
        <time>2016-05-12T18:16:28Z</time>
      </trkpt>
      <trkpt lat="44.54932" lon="6.07814">
        <ele>759</ele>
        <time>2016-05-12T18:18:28Z</time>
      </trkpt>
      <trkpt lat="44.54934" lon="6.07813">
        <ele>758</ele>
        <time>2016-05-12T18:20:28Z</time>
      </trkpt>
      <trkpt lat="44.54936" lon="6.07813">
        <ele>758</ele>
        <time>2016-05-12T18:22:28Z</time>
      </trkpt>
      <trkpt lat="44.54938" lon="6.07813">
        <ele>758</ele>
        <time>2016-05-12T18:24:28Z</time>
      </trkpt>
      <trkpt lat="44.5494" lon="6.07813">
        <ele>758</ele>
        <time>2016-05-12T18:26:28Z</time>
      </trkpt>
      <trkpt lat="44.54948" lon="6.07814">
        <ele>757</ele>
        <time>2016-05-12T18:28:28Z</time>
      </trkpt>
      <trkpt lat="44.54958" lon="6.07817">
        <ele>757</ele>
        <time>2016-05-12T18:30:28Z</time>
      </trkpt>
      <trkpt lat="44.54983" lon="6.07826">
        <ele>758</ele>
        <time>2016-05-12T18:32:28Z</time>
      </trkpt>
      <trkpt lat="44.55008" lon="6.07835">
        <ele>758</ele>
        <time>2016-05-12T18:34:28Z</time>
      </trkpt>
      <trkpt lat="44.55034" lon="6.07844">
        <ele>759</ele>
        <time>2016-05-12T18:36:28Z</time>
      </trkpt>
      <trkpt lat="44.55061" lon="6.0785">
        <ele>759</ele>
        <time>2016-05-12T18:38:28Z</time>
      </trkpt>
      <trkpt lat="44.55092" lon="6.07858">
        <ele>758</ele>
        <time>2016-05-12T18:40:28Z</time>
      </trkpt>
      <trkpt lat="44.55125" lon="6.07865">
        <ele>755</ele>
        <time>2016-05-12T18:42:28Z</time>
      </trkpt>
      <trkpt lat="44.55127" lon="6.07865">
        <ele>754</ele>
        <time>2016-05-12T18:44:28Z</time>
      </trkpt>
      <trkpt lat="44.55138" lon="6.07864">
        <ele>752</ele>
        <time>2016-05-12T18:46:28Z</time>
      </trkpt>
      <trkpt lat="44.55152" lon="6.07861">
        <ele>749</ele>
        <time>2016-05-12T18:48:28Z</time>
      </trkpt>
      <trkpt lat="44.55164" lon="6.07859">
        <ele>747</ele>
        <time>2016-05-12T18:50:28Z</time>
      </trkpt>
      <trkpt lat="44.55185" lon="6.07858">
        <ele>745</ele>
        <time>2016-05-12T18:52:28Z</time>
      </trkpt>
      <trkpt lat="44.55196" lon="6.0786">
        <ele>744</ele>
        <time>2016-05-12T18:54:28Z</time>
      </trkpt>
      <trkpt lat="44.55218" lon="6.07866">
        <ele>744</ele>
        <time>2016-05-12T18:56:28Z</time>
      </trkpt>
      <trkpt lat="44.55238" lon="6.07873">
        <ele>743</ele>
        <time>2016-05-12T18:58:28Z</time>
      </trkpt>
      <trkpt lat="44.55252" lon="6.07879">
        <ele>742</ele>
        <time>2016-05-12T19:00:28Z</time>
      </trkpt>
      <trkpt lat="44.55265" lon="6.07884">
        <ele>743</ele>
        <time>2016-05-12T19:02:28Z</time>
      </trkpt>
      <trkpt lat="44.5527" lon="6.07883">
        <ele>743</ele>
        <time>2016-05-12T19:04:28Z</time>
      </trkpt>
      <trkpt lat="44.55275" lon="6.07883">
        <ele>743</ele>
        <time>2016-05-12T19:06:28Z</time>
      </trkpt>
      <trkpt lat="44.55285" lon="6.07883">
        <ele>743</ele>
        <time>2016-05-12T19:08:28Z</time>
      </trkpt>
      <trkpt lat="44.553" lon="6.07879">
        <ele>742</ele>
        <time>2016-05-12T19:10:28Z</time>
      </trkpt>
      <trkpt lat="44.55307" lon="6.07878">
        <ele>742</ele>
        <time>2016-05-12T19:12:28Z</time>
      </trkpt>
      <trkpt lat="44.55329" lon="6.07873">
        <ele>741</ele>
        <time>2016-05-12T19:14:28Z</time>
      </trkpt>
      <trkpt lat="44.55355" lon="6.07868">
        <ele>739</ele>
        <time>2016-05-12T19:16:28Z</time>
      </trkpt>
      <trkpt lat="44.55364" lon="6.0787">
        <ele>739</ele>
        <time>2016-05-12T19:18:28Z</time>
      </trkpt>
      <trkpt lat="44.55379" lon="6.07874">
        <ele>738</ele>
        <time>2016-05-12T19:20:28Z</time>
      </trkpt>
      <trkpt lat="44.55402" lon="6.07879">
        <ele>738</ele>
        <time>2016-05-12T19:22:28Z</time>
      </trkpt>
      <trkpt lat="44.55424" lon="6.07885">
        <ele>737</ele>
        <time>2016-05-12T19:24:28Z</time>
      </trkpt>
      <trkpt lat="44.55438" lon="6.07888">
        <ele>736</ele>
        <time>2016-05-12T19:26:28Z</time>
      </trkpt>
      <trkpt lat="44.5545" lon="6.0789">
        <ele>736</ele>
        <time>2016-05-12T19:28:28Z</time>
      </trkpt>
      <trkpt lat="44.55476" lon="6.07896">
        <ele>734</ele>
        <time>2016-05-12T19:30:28Z</time>
      </trkpt>
      <trkpt lat="44.55507" lon="6.07904">
        <ele>733</ele>
        <time>2016-05-12T19:32:28Z</time>
      </trkpt>
      <trkpt lat="44.55514" lon="6.07905">
        <ele>733</ele>
        <time>2016-05-12T19:34:28Z</time>
      </trkpt>
      <trkpt lat="44.5553" lon="6.07909">
        <ele>733</ele>
        <time>2016-05-12T19:36:28Z</time>
      </trkpt>
      <trkpt lat="44.55534" lon="6.07909">
        <ele>732</ele>
        <time>2016-05-12T19:38:28Z</time>
      </trkpt>
      <trkpt lat="44.55538" lon="6.07909">
        <ele>732</ele>
        <time>2016-05-12T19:40:28Z</time>
      </trkpt>
      <trkpt lat="44.55542" lon="6.07909">
        <ele>732</ele>
        <time>2016-05-12T19:42:28Z</time>
      </trkpt>
      <trkpt lat="44.55545" lon="6.07908">
        <ele>732</ele>
        <time>2016-05-12T19:44:28Z</time>
      </trkpt>
      <trkpt lat="44.55548" lon="6.07908">
        <ele>732</ele>
        <time>2016-05-12T19:46:28Z</time>
      </trkpt>
      <trkpt lat="44.55553" lon="6.07906">
        <ele>732</ele>
        <time>2016-05-12T19:48:28Z</time>
      </trkpt>
      <trkpt lat="44.55557" lon="6.07902">
        <ele>731</ele>
        <time>2016-05-12T19:50:28Z</time>
      </trkpt>
      <trkpt lat="44.55565" lon="6.07893">
        <ele>731</ele>
        <time>2016-05-12T19:52:28Z</time>
      </trkpt>
      <trkpt lat="44.55569" lon="6.07887">
        <ele>731</ele>
        <time>2016-05-12T19:54:28Z</time>
      </trkpt>
      <trkpt lat="44.55571" lon="6.07884">
        <ele>731</ele>
        <time>2016-05-12T19:56:28Z</time>
      </trkpt>
      <trkpt lat="44.55573" lon="6.07883">
        <ele>731</ele>
        <time>2016-05-12T19:58:28Z</time>
      </trkpt>
      <trkpt lat="44.55576" lon="6.07881">
        <ele>731</ele>
        <time>2016-05-12T20:00:28Z</time>
      </trkpt>
      <trkpt lat="44.55585" lon="6.07872">
        <ele>730</ele>
        <time>2016-05-12T20:02:28Z</time>
      </trkpt>
      <trkpt lat="44.55585" lon="6.07872">
        <ele>730</ele>
        <time>2016-05-12T20:04:28Z</time>
      </trkpt>
      <trkpt lat="44.55586" lon="6.07872">
        <ele>730</ele>
        <time>2016-05-12T20:06:28Z</time>
      </trkpt>
      <trkpt lat="44.55587" lon="6.07872">
        <ele>731</ele>
        <time>2016-05-12T20:08:28Z</time>
      </trkpt>
      <trkpt lat="44.55587" lon="6.07873">
        <ele>731</ele>
        <time>2016-05-12T20:10:28Z</time>
      </trkpt>
      <trkpt lat="44.55588" lon="6.07873">
        <ele>731</ele>
        <time>2016-05-12T20:12:28Z</time>
      </trkpt>
      <trkpt lat="44.55589" lon="6.07873">
        <ele>731</ele>
        <time>2016-05-12T20:14:28Z</time>
      </trkpt>
      <trkpt lat="44.5559" lon="6.07873">
        <ele>731</ele>
        <time>2016-05-12T20:16:28Z</time>
      </trkpt>
      <trkpt lat="44.55591" lon="6.07873">
        <ele>731</ele>
        <time>2016-05-12T20:18:28Z</time>
      </trkpt>
      <trkpt lat="44.55604" lon="6.07886">
        <ele>731</ele>
        <time>2016-05-12T20:20:28Z</time>
      </trkpt>
      <trkpt lat="44.55614" lon="6.07897">
        <ele>731</ele>
        <time>2016-05-12T20:22:28Z</time>
      </trkpt>
      <trkpt lat="44.55618" lon="6.07902">
        <ele>731</ele>
        <time>2016-05-12T20:24:28Z</time>
      </trkpt>
      <trkpt lat="44.55627" lon="6.07915">
        <ele>731</ele>
        <time>2016-05-12T20:26:28Z</time>
      </trkpt>
      <trkpt lat="44.55636" lon="6.0793">
        <ele>731</ele>
        <time>2016-05-12T20:28:28Z</time>
      </trkpt>
      <trkpt lat="44.55643" lon="6.07942">
        <ele>731</ele>
        <time>2016-05-12T20:30:28Z</time>
      </trkpt>
      <trkpt lat="44.55659" lon="6.0797">
        <ele>730</ele>
        <time>2016-05-12T20:32:28Z</time>
      </trkpt>
      <trkpt lat="44.55673" lon="6.07998">
        <ele>729</ele>
        <time>2016-05-12T20:34:28Z</time>
      </trkpt>
      <trkpt lat="44.55684" lon="6.0802">
        <ele>730</ele>
        <time>2016-05-12T20:36:28Z</time>
      </trkpt>
      <trkpt lat="44.55707" lon="6.08065">
        <ele>732</ele>
        <time>2016-05-12T20:38:28Z</time>
      </trkpt>
      <trkpt lat="44.5571" lon="6.0807">
        <ele>732</ele>
        <time>2016-05-12T20:40:28Z</time>
      </trkpt>
      <trkpt lat="44.55725" lon="6.08101">
        <ele>733</ele>
        <time>2016-05-12T20:42:28Z</time>
      </trkpt>
      <trkpt lat="44.55731" lon="6.08112">
        <ele>733</ele>
        <time>2016-05-12T20:44:28Z</time>
      </trkpt>
      <trkpt lat="44.5574" lon="6.08131">
        <ele>733</ele>
        <time>2016-05-12T20:46:28Z</time>
      </trkpt>
      <trkpt lat="44.55753" lon="6.08156">
        <ele>733</ele>
        <time>2016-05-12T20:48:28Z</time>
      </trkpt>
      <trkpt lat="44.55756" lon="6.08163">
        <ele>733</ele>
        <time>2016-05-12T20:50:28Z</time>
      </trkpt>
      <trkpt lat="44.55768" lon="6.08186">
        <ele>735</ele>
        <time>2016-05-12T20:52:28Z</time>
      </trkpt>
      <trkpt lat="44.55772" lon="6.08192">
        <ele>735</ele>
        <time>2016-05-12T20:54:28Z</time>
      </trkpt>
      <trkpt lat="44.55779" lon="6.08206">
        <ele>736</ele>
        <time>2016-05-12T20:56:28Z</time>
      </trkpt>
      <trkpt lat="44.55785" lon="6.08218">
        <ele>737</ele>
        <time>2016-05-12T20:58:28Z</time>
      </trkpt>
      <trkpt lat="44.55789" lon="6.08228">
        <ele>737</ele>
        <time>2016-05-12T21:00:28Z</time>
      </trkpt>
      <trkpt lat="44.55798" lon="6.08244">
        <ele>737</ele>
        <time>2016-05-12T21:02:28Z</time>
      </trkpt>
      <trkpt lat="44.55814" lon="6.08268">
        <ele>739</ele>
        <time>2016-05-12T21:04:28Z</time>
      </trkpt>
      <trkpt lat="44.55815" lon="6.08271">
        <ele>739</ele>
        <time>2016-05-12T21:06:28Z</time>
      </trkpt>
      <trkpt lat="44.55828" lon="6.08286">
        <ele>740</ele>
        <time>2016-05-12T21:08:28Z</time>
      </trkpt>
      <trkpt lat="44.55844" lon="6.08304">
        <ele>740</ele>
        <time>2016-05-12T21:10:28Z</time>
      </trkpt>
      <trkpt lat="44.55865" lon="6.08322">
        <ele>740</ele>
        <time>2016-05-12T21:12:28Z</time>
      </trkpt>
      <trkpt lat="44.55944" lon="6.08404">
        <ele>736</ele>
        <time>2016-05-12T21:14:28Z</time>
      </trkpt>
      <trkpt lat="44.5595" lon="6.08411">
        <ele>736</ele>
        <time>2016-05-12T21:16:28Z</time>
      </trkpt>
      <trkpt lat="44.55957" lon="6.0842">
        <ele>736</ele>
        <time>2016-05-12T21:18:28Z</time>
      </trkpt>
      <trkpt lat="44.55961" lon="6.08424">
        <ele>736</ele>
        <time>2016-05-12T21:20:28Z</time>
      </trkpt>
      <trkpt lat="44.55968" lon="6.08431">
        <ele>737</ele>
        <time>2016-05-12T21:22:28Z</time>
      </trkpt>
      <trkpt lat="44.55975" lon="6.08436">
        <ele>737</ele>
        <time>2016-05-12T21:24:28Z</time>
      </trkpt>
      <trkpt lat="44.55981" lon="6.08441">
        <ele>737</ele>
        <time>2016-05-12T21:26:28Z</time>
      </trkpt>
      <trkpt lat="44.55981" lon="6.08441">
        <ele>737</ele>
        <time>2016-05-12T21:28:28Z</time>
      </trkpt>
      <trkpt lat="44.55997" lon="6.08449">
        <ele>736</ele>
        <time>2016-05-12T21:30:28Z</time>
      </trkpt>
      <trkpt lat="44.56024" lon="6.08456">
        <ele>737</ele>
        <time>2016-05-12T21:32:28Z</time>
      </trkpt>
      <trkpt lat="44.56039" lon="6.08458">
        <ele>738</ele>
        <time>2016-05-12T21:34:28Z</time>
      </trkpt>
      <trkpt lat="44.56048" lon="6.08455">
        <ele>738</ele>
        <time>2016-05-12T21:36:28Z</time>
      </trkpt>
      <trkpt lat="44.56054" lon="6.08455">
        <ele>738</ele>
        <time>2016-05-12T21:38:28Z</time>
      </trkpt>
      <trkpt lat="44.56074" lon="6.08455">
        <ele>739</ele>
        <time>2016-05-12T21:40:28Z</time>
      </trkpt>
      <trkpt lat="44.56087" lon="6.0845">
        <ele>739</ele>
        <time>2016-05-12T21:42:28Z</time>
      </trkpt>
      <trkpt lat="44.56099" lon="6.08446">
        <ele>740</ele>
        <time>2016-05-12T21:44:28Z</time>
      </trkpt>
      <trkpt lat="44.56118" lon="6.08438">
        <ele>741</ele>
        <time>2016-05-12T21:46:28Z</time>
      </trkpt>
      <trkpt lat="44.56132" lon="6.08431">
        <ele>741</ele>
        <time>2016-05-12T21:48:28Z</time>
      </trkpt>
      <trkpt lat="44.56153" lon="6.0842">
        <ele>742</ele>
        <time>2016-05-12T21:50:28Z</time>
      </trkpt>
      <trkpt lat="44.56159" lon="6.08413">
        <ele>743</ele>
        <time>2016-05-12T21:52:28Z</time>
      </trkpt>
      <trkpt lat="44.5617" lon="6.08414">
        <ele>743</ele>
        <time>2016-05-12T21:54:28Z</time>
      </trkpt>
      <trkpt lat="44.5618" lon="6.08421">
        <ele>743</ele>
        <time>2016-05-12T21:56:28Z</time>
      </trkpt>
      <trkpt lat="44.5618" lon="6.08421">
        <ele>743</ele>
        <time>2016-05-12T21:58:28Z</time>
      </trkpt>
      <trkpt lat="44.56181" lon="6.08423">
        <ele>743</ele>
        <time>2016-05-12T22:00:28Z</time>
      </trkpt>
      <trkpt lat="44.56182" lon="6.08424">
        <ele>743</ele>
        <time>2016-05-12T22:02:28Z</time>
      </trkpt>
      <trkpt lat="44.56183" lon="6.08426">
        <ele>743</ele>
        <time>2016-05-12T22:04:28Z</time>
      </trkpt>
      <trkpt lat="44.56183" lon="6.08427">
        <ele>743</ele>
        <time>2016-05-12T22:06:28Z</time>
      </trkpt>
      <trkpt lat="44.56184" lon="6.08428">
        <ele>743</ele>
        <time>2016-05-12T22:08:28Z</time>
      </trkpt>
      <trkpt lat="44.56185" lon="6.08429">
        <ele>743</ele>
        <time>2016-05-12T22:10:28Z</time>
      </trkpt>
      <trkpt lat="44.56186" lon="6.0843">
        <ele>743</ele>
        <time>2016-05-12T22:12:28Z</time>
      </trkpt>
      <trkpt lat="44.56187" lon="6.08431">
        <ele>743</ele>
        <time>2016-05-12T22:14:28Z</time>
      </trkpt>
      <trkpt lat="44.56189" lon="6.08432">
        <ele>743</ele>
        <time>2016-05-12T22:16:28Z</time>
      </trkpt>
      <trkpt lat="44.5619" lon="6.08432">
        <ele>743</ele>
        <time>2016-05-12T22:18:28Z</time>
      </trkpt>
      <trkpt lat="44.56191" lon="6.08433">
        <ele>744</ele>
        <time>2016-05-12T22:20:28Z</time>
      </trkpt>
      <trkpt lat="44.56192" lon="6.08433">
        <ele>744</ele>
        <time>2016-05-12T22:22:28Z</time>
      </trkpt>
      <trkpt lat="44.56193" lon="6.08433">
        <ele>744</ele>
        <time>2016-05-12T22:24:28Z</time>
      </trkpt>
      <trkpt lat="44.56194" lon="6.08433">
        <ele>744</ele>
        <time>2016-05-12T22:26:28Z</time>
      </trkpt>
      <trkpt lat="44.56196" lon="6.08433">
        <ele>744</ele>
        <time>2016-05-12T22:28:28Z</time>
      </trkpt>
      <trkpt lat="44.56197" lon="6.08433">
        <ele>744</ele>
        <time>2016-05-12T22:30:28Z</time>
      </trkpt>
      <trkpt lat="44.56198" lon="6.08433">
        <ele>744</ele>
        <time>2016-05-12T22:32:28Z</time>
      </trkpt>
      <trkpt lat="44.56199" lon="6.08433">
        <ele>744</ele>
        <time>2016-05-12T22:34:28Z</time>
      </trkpt>
      <trkpt lat="44.562" lon="6.08432">
        <ele>744</ele>
        <time>2016-05-12T22:36:28Z</time>
      </trkpt>
      <trkpt lat="44.56202" lon="6.08432">
        <ele>744</ele>
        <time>2016-05-12T22:38:28Z</time>
      </trkpt>
      <trkpt lat="44.56203" lon="6.08431">
        <ele>744</ele>
        <time>2016-05-12T22:40:28Z</time>
      </trkpt>
      <trkpt lat="44.56204" lon="6.0843">
        <ele>744</ele>
        <time>2016-05-12T22:42:28Z</time>
      </trkpt>
      <trkpt lat="44.56205" lon="6.08429">
        <ele>744</ele>
        <time>2016-05-12T22:44:28Z</time>
      </trkpt>
      <trkpt lat="44.56206" lon="6.08428">
        <ele>744</ele>
        <time>2016-05-12T22:46:28Z</time>
      </trkpt>
      <trkpt lat="44.56207" lon="6.08427">
        <ele>744</ele>
        <time>2016-05-12T22:48:28Z</time>
      </trkpt>
      <trkpt lat="44.56207" lon="6.08426">
        <ele>744</ele>
        <time>2016-05-12T22:50:28Z</time>
      </trkpt>
      <trkpt lat="44.56208" lon="6.08424">
        <ele>744</ele>
        <time>2016-05-12T22:52:28Z</time>
      </trkpt>
      <trkpt lat="44.56209" lon="6.08423">
        <ele>744</ele>
        <time>2016-05-12T22:54:28Z</time>
      </trkpt>
      <trkpt lat="44.5621" lon="6.08421">
        <ele>744</ele>
        <time>2016-05-12T22:56:28Z</time>
      </trkpt>
      <trkpt lat="44.5621" lon="6.0842">
        <ele>744</ele>
        <time>2016-05-12T22:58:28Z</time>
      </trkpt>
      <trkpt lat="44.56211" lon="6.08418">
        <ele>744</ele>
        <time>2016-05-12T23:00:28Z</time>
      </trkpt>
      <trkpt lat="44.56211" lon="6.08417">
        <ele>744</ele>
        <time>2016-05-12T23:02:28Z</time>
      </trkpt>
      <trkpt lat="44.56211" lon="6.08416">
        <ele>744</ele>
        <time>2016-05-12T23:04:28Z</time>
      </trkpt>
      <trkpt lat="44.56211" lon="6.08415">
        <ele>744</ele>
        <time>2016-05-12T23:06:28Z</time>
      </trkpt>
      <trkpt lat="44.56211" lon="6.08414">
        <ele>744</ele>
        <time>2016-05-12T23:08:28Z</time>
      </trkpt>
      <trkpt lat="44.56211" lon="6.08413">
        <ele>744</ele>
        <time>2016-05-12T23:10:28Z</time>
      </trkpt>
      <trkpt lat="44.56211" lon="6.08412">
        <ele>744</ele>
        <time>2016-05-12T23:12:28Z</time>
      </trkpt>
      <trkpt lat="44.56211" lon="6.08411">
        <ele>744</ele>
        <time>2016-05-12T23:14:28Z</time>
      </trkpt>
      <trkpt lat="44.56211" lon="6.0841">
        <ele>744</ele>
        <time>2016-05-12T23:16:28Z</time>
      </trkpt>
      <trkpt lat="44.56211" lon="6.08408">
        <ele>744</ele>
        <time>2016-05-12T23:18:28Z</time>
      </trkpt>
      <trkpt lat="44.56211" lon="6.08407">
        <ele>744</ele>
        <time>2016-05-12T23:20:28Z</time>
      </trkpt>
      <trkpt lat="44.5621" lon="6.08405">
        <ele>744</ele>
        <time>2016-05-12T23:22:28Z</time>
      </trkpt>
      <trkpt lat="44.5621" lon="6.08403">
        <ele>744</ele>
        <time>2016-05-12T23:24:28Z</time>
      </trkpt>
      <trkpt lat="44.5621" lon="6.08402">
        <ele>744</ele>
        <time>2016-05-12T23:26:28Z</time>
      </trkpt>
      <trkpt lat="44.56209" lon="6.084">
        <ele>744</ele>
        <time>2016-05-12T23:28:28Z</time>
      </trkpt>
      <trkpt lat="44.56209" lon="6.08398">
        <ele>744</ele>
        <time>2016-05-12T23:30:28Z</time>
      </trkpt>
      <trkpt lat="44.56208" lon="6.08397">
        <ele>744</ele>
        <time>2016-05-12T23:32:28Z</time>
      </trkpt>
      <trkpt lat="44.56208" lon="6.08396">
        <ele>744</ele>
        <time>2016-05-12T23:34:28Z</time>
      </trkpt>
      <trkpt lat="44.56208" lon="6.08395">
        <ele>744</ele>
        <time>2016-05-12T23:36:28Z</time>
      </trkpt>
      <trkpt lat="44.56207" lon="6.08394">
        <ele>744</ele>
        <time>2016-05-12T23:38:28Z</time>
      </trkpt>
      <trkpt lat="44.56207" lon="6.08393">
        <ele>744</ele>
        <time>2016-05-12T23:40:28Z</time>
      </trkpt>
      <trkpt lat="44.56206" lon="6.08393">
        <ele>744</ele>
        <time>2016-05-12T23:42:28Z</time>
      </trkpt>
      <trkpt lat="44.56206" lon="6.08392">
        <ele>744</ele>
        <time>2016-05-12T23:44:28Z</time>
      </trkpt>
      <trkpt lat="44.56205" lon="6.08391">
        <ele>744</ele>
        <time>2016-05-12T23:46:28Z</time>
      </trkpt>
      <trkpt lat="44.56197" lon="6.08369">
        <ele>745</ele>
        <time>2016-05-12T23:48:28Z</time>
      </trkpt>
      <trkpt lat="44.56192" lon="6.08361">
        <ele>745</ele>
        <time>2016-05-12T23:50:28Z</time>
      </trkpt>
      <trkpt lat="44.56189" lon="6.08353">
        <ele>745</ele>
        <time>2016-05-12T23:52:28Z</time>
      </trkpt>
      <trkpt lat="44.56171" lon="6.08313">
        <ele>745</ele>
        <time>2016-05-12T23:54:28Z</time>
      </trkpt>
      <trkpt lat="44.5615" lon="6.08261">
        <ele>743</ele>
        <time>2016-05-12T23:56:28Z</time>
      </trkpt>
      <trkpt lat="44.5614" lon="6.08232">
        <ele>742</ele>
        <time>2016-05-12T23:58:28Z</time>
      </trkpt>
      <trkpt lat="44.5614" lon="6.08232">
        <ele>742</ele>
        <time>2016-05-13T00:00:28Z</time>
      </trkpt>
      <trkpt lat="44.56141" lon="6.08231">
        <ele>742</ele>
        <time>2016-05-13T00:02:28Z</time>
      </trkpt>
      <trkpt lat="44.56142" lon="6.0823">
        <ele>742</ele>
        <time>2016-05-13T00:04:28Z</time>
      </trkpt>
      <trkpt lat="44.56142" lon="6.08229">
        <ele>742</ele>
        <time>2016-05-13T00:06:28Z</time>
      </trkpt>
      <trkpt lat="44.56143" lon="6.08228">
        <ele>742</ele>
        <time>2016-05-13T00:08:28Z</time>
      </trkpt>
      <trkpt lat="44.56143" lon="6.08227">
        <ele>742</ele>
        <time>2016-05-13T00:10:28Z</time>
      </trkpt>
      <trkpt lat="44.56143" lon="6.08226">
        <ele>742</ele>
        <time>2016-05-13T00:12:28Z</time>
      </trkpt>
      <trkpt lat="44.56144" lon="6.08225">
        <ele>742</ele>
        <time>2016-05-13T00:14:28Z</time>
      </trkpt>
      <trkpt lat="44.56144" lon="6.08224">
        <ele>742</ele>
        <time>2016-05-13T00:16:28Z</time>
      </trkpt>
      <trkpt lat="44.56144" lon="6.08223">
        <ele>742</ele>
        <time>2016-05-13T00:18:28Z</time>
      </trkpt>
      <trkpt lat="44.56144" lon="6.08222">
        <ele>742</ele>
        <time>2016-05-13T00:20:28Z</time>
      </trkpt>
      <trkpt lat="44.56144" lon="6.08221">
        <ele>742</ele>
        <time>2016-05-13T00:22:28Z</time>
      </trkpt>
      <trkpt lat="44.56144" lon="6.0822">
        <ele>742</ele>
        <time>2016-05-13T00:24:28Z</time>
      </trkpt>
      <trkpt lat="44.56144" lon="6.08219">
        <ele>742</ele>
        <time>2016-05-13T00:26:28Z</time>
      </trkpt>
      <trkpt lat="44.56144" lon="6.08218">
        <ele>742</ele>
        <time>2016-05-13T00:28:28Z</time>
      </trkpt>
      <trkpt lat="44.56144" lon="6.08217">
        <ele>742</ele>
        <time>2016-05-13T00:30:28Z</time>
      </trkpt>
      <trkpt lat="44.56143" lon="6.08216">
        <ele>742</ele>
        <time>2016-05-13T00:32:28Z</time>
      </trkpt>
      <trkpt lat="44.56143" lon="6.08215">
        <ele>742</ele>
        <time>2016-05-13T00:34:28Z</time>
      </trkpt>
      <trkpt lat="44.56143" lon="6.08214">
        <ele>742</ele>
        <time>2016-05-13T00:36:28Z</time>
      </trkpt>
      <trkpt lat="44.56142" lon="6.08214">
        <ele>742</ele>
        <time>2016-05-13T00:38:28Z</time>
      </trkpt>
      <trkpt lat="44.56142" lon="6.08213">
        <ele>742</ele>
        <time>2016-05-13T00:40:28Z</time>
      </trkpt>
      <trkpt lat="44.56142" lon="6.08212">
        <ele>742</ele>
        <time>2016-05-13T00:42:28Z</time>
      </trkpt>
      <trkpt lat="44.56141" lon="6.08212">
        <ele>742</ele>
        <time>2016-05-13T00:44:28Z</time>
      </trkpt>
      <trkpt lat="44.56141" lon="6.08211">
        <ele>742</ele>
        <time>2016-05-13T00:46:28Z</time>
      </trkpt>
      <trkpt lat="44.5614" lon="6.08211">
        <ele>742</ele>
        <time>2016-05-13T00:48:28Z</time>
      </trkpt>
      <trkpt lat="44.5614" lon="6.0821">
        <ele>742</ele>
        <time>2016-05-13T00:50:28Z</time>
      </trkpt>
      <trkpt lat="44.56139" lon="6.08209">
        <ele>742</ele>
        <time>2016-05-13T00:52:28Z</time>
      </trkpt>
      <trkpt lat="44.56138" lon="6.08209">
        <ele>742</ele>
        <time>2016-05-13T00:54:28Z</time>
      </trkpt>
      <trkpt lat="44.56138" lon="6.08208">
        <ele>742</ele>
        <time>2016-05-13T00:56:28Z</time>
      </trkpt>
      <trkpt lat="44.56143" lon="6.08181">
        <ele>742</ele>
        <time>2016-05-13T00:58:28Z</time>
      </trkpt>
      <trkpt lat="44.56144" lon="6.08172">
        <ele>742</ele>
        <time>2016-05-13T01:00:28Z</time>
      </trkpt>
      <trkpt lat="44.56144" lon="6.08166">
        <ele>741</ele>
        <time>2016-05-13T01:02:28Z</time>
      </trkpt>
      <trkpt lat="44.56144" lon="6.08158">
        <ele>742</ele>
        <time>2016-05-13T01:04:28Z</time>
      </trkpt>
      <trkpt lat="44.56143" lon="6.08149">
        <ele>742</ele>
        <time>2016-05-13T01:06:28Z</time>
      </trkpt>
      <trkpt lat="44.56139" lon="6.08136">
        <ele>742</ele>
        <time>2016-05-13T01:08:28Z</time>
      </trkpt>
      <trkpt lat="44.56136" lon="6.08128">
        <ele>742</ele>
        <time>2016-05-13T01:10:28Z</time>
      </trkpt>
      <trkpt lat="44.56132" lon="6.08114">
        <ele>743</ele>
        <time>2016-05-13T01:12:28Z</time>
      </trkpt>
      <trkpt lat="44.56121" lon="6.08086">
        <ele>743</ele>
        <time>2016-05-13T01:14:28Z</time>
      </trkpt>
      <trkpt lat="44.56117" lon="6.08075">
        <ele>744</ele>
        <time>2016-05-13T01:16:28Z</time>
      </trkpt>
      <trkpt lat="44.56114" lon="6.08066">
        <ele>744</ele>
        <time>2016-05-13T01:18:28Z</time>
      </trkpt>
      <trkpt lat="44.56111" lon="6.08057">
        <ele>744</ele>
        <time>2016-05-13T01:20:28Z</time>
      </trkpt>
      <trkpt lat="44.5611" lon="6.0805">
        <ele>744</ele>
        <time>2016-05-13T01:22:28Z</time>
      </trkpt>
      <trkpt lat="44.56109" lon="6.08044">
        <ele>744</ele>
        <time>2016-05-13T01:24:28Z</time>
      </trkpt>
      <trkpt lat="44.56111" lon="6.08036">
        <ele>745</ele>
        <time>2016-05-13T01:26:28Z</time>
      </trkpt>
      <trkpt lat="44.56123" lon="6.07986">
        <ele>746</ele>
        <time>2016-05-13T01:28:28Z</time>
      </trkpt>
      <trkpt lat="44.56123" lon="6.0798">
        <ele>746</ele>
        <time>2016-05-13T01:30:28Z</time>
      </trkpt>
      <trkpt lat="44.56123" lon="6.07973">
        <ele>746</ele>
        <time>2016-05-13T01:32:28Z</time>
      </trkpt>
      <trkpt lat="44.56122" lon="6.07964">
        <ele>746</ele>
        <time>2016-05-13T01:34:28Z</time>
      </trkpt>
      <trkpt lat="44.56119" lon="6.0795">
        <ele>746</ele>
        <time>2016-05-13T01:36:28Z</time>
      </trkpt>
      <trkpt lat="44.56114" lon="6.07931">
        <ele>747</ele>
        <time>2016-05-13T01:38:28Z</time>
      </trkpt>
      <trkpt lat="44.56103" lon="6.07897">
        <ele>747</ele>
        <time>2016-05-13T01:40:28Z</time>
      </trkpt>
      <trkpt lat="44.56084" lon="6.07836">
        <ele>747</ele>
        <time>2016-05-13T01:42:28Z</time>
      </trkpt>
      <trkpt lat="44.5608" lon="6.07823">
        <ele>747</ele>
        <time>2016-05-13T01:44:28Z</time>
      </trkpt>
      <trkpt lat="44.56071" lon="6.07794">
        <ele>746</ele>
        <time>2016-05-13T01:46:28Z</time>
      </trkpt>
      <trkpt lat="44.5607" lon="6.07791">
        <ele>746</ele>
        <time>2016-05-13T01:48:28Z</time>
      </trkpt>
      <trkpt lat="44.56056" lon="6.07748">
        <ele>745</ele>
        <time>2016-05-13T01:50:28Z</time>
      </trkpt>
      <trkpt lat="44.56045" lon="6.07718">
        <ele>745</ele>
        <time>2016-05-13T01:52:28Z</time>
      </trkpt>
      <trkpt lat="44.56037" lon="6.07689">
        <ele>745</ele>
        <time>2016-05-13T01:54:28Z</time>
      </trkpt>
      <trkpt lat="44.56036" lon="6.07687">
        <ele>745</ele>
        <time>2016-05-13T01:56:28Z</time>
      </trkpt>
    </trkseg>
  </trk>
</gpx>